<?xml version='1.0' encoding='UTF-8'?><gpx version="1.1" creator="JPX - https://github.com/jenetics/jpx" xmlns="http://www.topografix.com/GPX/1/1"><trk><trkseg><trkpt lat="44.2350337" lon="9.7181002"><ele>108.0</ele><time>2026-03-22T08:39:50.206Z</time></trkpt><trkpt lat="44.2349409" lon="9.718125"><ele>108.0</ele><time>2026-03-22T08:39:53.207Z</time></trkpt><trkpt lat="44.2348373" lon="9.7180591"><ele>108.0</ele><time>2026-03-22T08:39:55.206Z</time></trkpt><trkpt lat="44.2347839" lon="9.7180105"><ele>108.0</ele><time>2026-03-22T08:39:56.206Z</time></trkpt><trkpt lat="44.2347243" lon="9.7179517"><ele>108.0</ele><time>2026-03-22T08:39:57.206Z</time></trkpt><trkpt lat="44.2346703" lon="9.7178979"><ele>108.0</ele><time>2026-03-22T08:39:58.207Z</time></trkpt><trkpt lat="44.2346199" lon="9.7178396"><ele>108.0</ele><time>2026-03-22T08:39:59.207Z</time></trkpt><trkpt lat="44.2345342" lon="9.7177408"><ele>108.0</ele><time>2026-03-22T08:40:01.207Z</time></trkpt><trkpt lat="44.2344799" lon="9.7176756"><ele>108.0</ele><time>2026-03-22T08:40:02.207Z</time></trkpt><trkpt lat="44.2344119" lon="9.7176061"><ele>108.0</ele><time>2026-03-22T08:40:03.206Z</time></trkpt><trkpt lat="44.2343394" lon="9.7175427"><ele>108.0</ele><time>2026-03-22T08:40:04.206Z</time></trkpt><trkpt lat="44.2342633" lon="9.717473"><ele>108.0</ele><time>2026-03-22T08:40:05.206Z</time></trkpt><trkpt lat="44.2341846" lon="9.7173978"><ele>108.0</ele><time>2026-03-22T08:40:06.207Z</time></trkpt><trkpt lat="44.2341026" lon="9.7173091"><ele>108.00000000000001</ele><time>2026-03-22T08:40:07.206Z</time></trkpt><trkpt lat="44.2340165" lon="9.7172153"><ele>108.00000000000001</ele><time>2026-03-22T08:40:08.206Z</time></trkpt><trkpt lat="44.2339389" lon="9.7171176"><ele>108.0</ele><time>2026-03-22T08:40:09.206Z</time></trkpt><trkpt lat="44.2338628" lon="9.71699"><ele>108.0</ele><time>2026-03-22T08:40:10.207Z</time></trkpt><trkpt lat="44.2338073" lon="9.7168493"><ele>108.4</ele><time>2026-03-22T08:40:11.206Z</time></trkpt><trkpt lat="44.2337775" lon="9.7167009"><ele>108.80000000000001</ele><time>2026-03-22T08:40:12.206Z</time></trkpt><trkpt lat="44.2337607" lon="9.7165387"><ele>109.2</ele><time>2026-03-22T08:40:13.206Z</time></trkpt><trkpt lat="44.2337716" lon="9.7163807"><ele>109.6</ele><time>2026-03-22T08:40:14.207Z</time></trkpt><trkpt lat="44.2338077" lon="9.7162485"><ele>110.0</ele><time>2026-03-22T08:40:15.206Z</time></trkpt><trkpt lat="44.2338488" lon="9.7161328"><ele>110.0</ele><time>2026-03-22T08:40:16.206Z</time></trkpt><trkpt lat="44.2339041" lon="9.7160363"><ele>110.0</ele><time>2026-03-22T08:40:17.206Z</time></trkpt><trkpt lat="44.2339643" lon="9.7159512"><ele>110.0</ele><time>2026-03-22T08:40:18.207Z</time></trkpt><trkpt lat="44.2340382" lon="9.7158677"><ele>110.0</ele><time>2026-03-22T08:40:19.207Z</time></trkpt><trkpt lat="44.2341218" lon="9.7157774"><ele>110.0</ele><time>2026-03-22T08:40:20.206Z</time></trkpt><trkpt lat="44.2342075" lon="9.7157021"><ele>111.0</ele><time>2026-03-22T08:40:21.206Z</time></trkpt><trkpt lat="44.2343035" lon="9.7156207"><ele>112.0</ele><time>2026-03-22T08:40:22.206Z</time></trkpt><trkpt lat="44.2344017" lon="9.7155304"><ele>113.0</ele><time>2026-03-22T08:40:23.206Z</time></trkpt><trkpt lat="44.2344933" lon="9.7154444"><ele>114.0</ele><time>2026-03-22T08:40:24.207Z</time></trkpt><trkpt lat="44.2345931" lon="9.7153492"><ele>114.5</ele><time>2026-03-22T08:40:25.207Z</time></trkpt><trkpt lat="44.234677" lon="9.715229"><ele>115.0</ele><time>2026-03-22T08:40:26.207Z</time></trkpt><trkpt lat="44.2347591" lon="9.7150789"><ele>115.5</ele><time>2026-03-22T08:40:27.207Z</time></trkpt><trkpt lat="44.2348182" lon="9.7149115"><ele>116.0</ele><time>2026-03-22T08:40:28.207Z</time></trkpt><trkpt lat="44.2348943" lon="9.7147588"><ele>117.0</ele><time>2026-03-22T08:40:29.207Z</time></trkpt><trkpt lat="44.2349589" lon="9.7145982"><ele>118.0</ele><time>2026-03-22T08:40:30.206Z</time></trkpt><trkpt lat="44.2350207" lon="9.7144056"><ele>119.0</ele><time>2026-03-22T08:40:31.207Z</time></trkpt><trkpt lat="44.2350872" lon="9.7142277"><ele>120.0</ele><time>2026-03-22T08:40:32.207Z</time></trkpt><trkpt lat="44.2351574" lon="9.7140747"><ele>120.0</ele><time>2026-03-22T08:40:33.207Z</time></trkpt><trkpt lat="44.2352328" lon="9.7138936"><ele>120.0</ele><time>2026-03-22T08:40:34.207Z</time></trkpt><trkpt lat="44.2353072" lon="9.713734"><ele>120.0</ele><time>2026-03-22T08:40:35.206Z</time></trkpt><trkpt lat="44.2353803" lon="9.7135615"><ele>120.0</ele><time>2026-03-22T08:40:36.206Z</time></trkpt><trkpt lat="44.2354781" lon="9.7134045"><ele>117.66666666666666</ele><time>2026-03-22T08:40:37.206Z</time></trkpt><trkpt lat="44.2355873" lon="9.71327"><ele>115.33333333333333</ele><time>2026-03-22T08:40:38.206Z</time></trkpt><trkpt lat="44.2357278" lon="9.7131531"><ele>113.0</ele><time>2026-03-22T08:40:39.207Z</time></trkpt><trkpt lat="44.2358575" lon="9.7130358"><ele>114.0</ele><time>2026-03-22T08:40:40.207Z</time></trkpt><trkpt lat="44.2359955" lon="9.7129339"><ele>115.0</ele><time>2026-03-22T08:40:41.207Z</time></trkpt><trkpt lat="44.2361106" lon="9.7128071"><ele>116.0</ele><time>2026-03-22T08:40:42.207Z</time></trkpt><trkpt lat="44.2362481" lon="9.7126866"><ele>116.0</ele><time>2026-03-22T08:40:43.207Z</time></trkpt><trkpt lat="44.2364002" lon="9.7125811"><ele>116.0</ele><time>2026-03-22T08:40:44.206Z</time></trkpt><trkpt lat="44.2365599" lon="9.7124733"><ele>116.0</ele><time>2026-03-22T08:40:45.206Z</time></trkpt><trkpt lat="44.2367089" lon="9.7123331"><ele>115.33333333333333</ele><time>2026-03-22T08:40:46.207Z</time></trkpt><trkpt lat="44.236856" lon="9.712199"><ele>114.66666666666666</ele><time>2026-03-22T08:40:47.206Z</time></trkpt><trkpt lat="44.2369945" lon="9.7120513"><ele>114.0</ele><time>2026-03-22T08:40:48.206Z</time></trkpt><trkpt lat="44.2371228" lon="9.7118909"><ele>114.0</ele><time>2026-03-22T08:40:49.207Z</time></trkpt><trkpt lat="44.2372423" lon="9.7117564"><ele>114.0</ele><time>2026-03-22T08:40:50.206Z</time></trkpt><trkpt lat="44.2373768" lon="9.7116243"><ele>114.0</ele><time>2026-03-22T08:40:51.206Z</time></trkpt><trkpt lat="44.2375225" lon="9.7115021"><ele>118.66666666666666</ele><time>2026-03-22T08:40:52.207Z</time></trkpt><trkpt lat="44.2376682" lon="9.7113978"><ele>123.33333333333333</ele><time>2026-03-22T08:40:53.206Z</time></trkpt><trkpt lat="44.2378838" lon="9.7114827"><ele>128.0</ele><time>2026-03-22T08:40:54.207Z</time></trkpt><trkpt lat="44.2380547" lon="9.7114469"><ele>135.0</ele><time>2026-03-22T08:40:55.206Z</time></trkpt><trkpt lat="44.23822" lon="9.7114168"><ele>142.0</ele><time>2026-03-22T08:40:56.207Z</time></trkpt><trkpt lat="44.2383951" lon="9.7113453"><ele>149.0</ele><time>2026-03-22T08:40:57.206Z</time></trkpt><trkpt lat="44.2385828" lon="9.7112749"><ele>149.0</ele><time>2026-03-22T08:40:58.206Z</time></trkpt><trkpt lat="44.2387262" lon="9.7110871"><ele>149.0</ele><time>2026-03-22T08:40:59.207Z</time></trkpt><trkpt lat="44.2388578" lon="9.7108962"><ele>149.0</ele><time>2026-03-22T08:41:00.206Z</time></trkpt><trkpt lat="44.238957" lon="9.7107049"><ele>148.0</ele><time>2026-03-22T08:41:01.207Z</time></trkpt><trkpt lat="44.2390959" lon="9.7105463"><ele>147.0</ele><time>2026-03-22T08:41:02.206Z</time></trkpt><trkpt lat="44.2392204" lon="9.7103718"><ele>146.0</ele><time>2026-03-22T08:41:03.206Z</time></trkpt><trkpt lat="44.2393481" lon="9.710218"><ele>137.66666666666666</ele><time>2026-03-22T08:41:04.206Z</time></trkpt><trkpt lat="44.239464" lon="9.7100448"><ele>129.33333333333334</ele><time>2026-03-22T08:41:05.207Z</time></trkpt><trkpt lat="44.2396029" lon="9.7099062"><ele>121.0</ele><time>2026-03-22T08:41:06.207Z</time></trkpt><trkpt lat="44.2397347" lon="9.7097401"><ele>124.33333333333334</ele><time>2026-03-22T08:41:07.206Z</time></trkpt><trkpt lat="44.2398559" lon="9.7095839"><ele>127.66666666666666</ele><time>2026-03-22T08:41:08.206Z</time></trkpt><trkpt lat="44.2399865" lon="9.7094304"><ele>131.0</ele><time>2026-03-22T08:41:09.207Z</time></trkpt><trkpt lat="44.240101" lon="9.7092608"><ele>131.0</ele><time>2026-03-22T08:41:10.206Z</time></trkpt><trkpt lat="44.2401942" lon="9.7090687"><ele>131.0</ele><time>2026-03-22T08:41:11.206Z</time></trkpt><trkpt lat="44.2402987" lon="9.7088473"><ele>131.0</ele><time>2026-03-22T08:41:12.207Z</time></trkpt><trkpt lat="44.2403978" lon="9.708656"><ele>128.33333333333331</ele><time>2026-03-22T08:41:13.207Z</time></trkpt><trkpt lat="44.2404952" lon="9.7084742"><ele>125.66666666666666</ele><time>2026-03-22T08:41:14.206Z</time></trkpt><trkpt lat="44.2406195" lon="9.7082987"><ele>123.0</ele><time>2026-03-22T08:41:15.206Z</time></trkpt><trkpt lat="44.2407526" lon="9.7081466"><ele>129.66666666666666</ele><time>2026-03-22T08:41:16.206Z</time></trkpt><trkpt lat="44.2408956" lon="9.7080053"><ele>136.33333333333331</ele><time>2026-03-22T08:41:17.207Z</time></trkpt><trkpt lat="44.2410312" lon="9.7078701"><ele>143.0</ele><time>2026-03-22T08:41:18.206Z</time></trkpt><trkpt lat="44.2411733" lon="9.7077471"><ele>142.0</ele><time>2026-03-22T08:41:19.207Z</time></trkpt><trkpt lat="44.2413198" lon="9.7076206"><ele>141.0</ele><time>2026-03-22T08:41:20.207Z</time></trkpt><trkpt lat="44.2414617" lon="9.707498"><ele>140.0</ele><time>2026-03-22T08:41:21.206Z</time></trkpt><trkpt lat="44.2416199" lon="9.7073849"><ele>140.0</ele><time>2026-03-22T08:41:22.206Z</time></trkpt><trkpt lat="44.2417792" lon="9.7072717"><ele>140.0</ele><time>2026-03-22T08:41:23.207Z</time></trkpt><trkpt lat="44.2419399" lon="9.7071595"><ele>140.0</ele><time>2026-03-22T08:41:24.206Z</time></trkpt><trkpt lat="44.2420968" lon="9.7070455"><ele>140.0</ele><time>2026-03-22T08:41:25.206Z</time></trkpt><trkpt lat="44.2422573" lon="9.7069305"><ele>140.0</ele><time>2026-03-22T08:41:26.206Z</time></trkpt><trkpt lat="44.2424149" lon="9.7068151"><ele>140.0</ele><time>2026-03-22T08:41:27.206Z</time></trkpt><trkpt lat="44.2425742" lon="9.7066927"><ele>138.0</ele><time>2026-03-22T08:41:28.207Z</time></trkpt><trkpt lat="44.2427339" lon="9.7065741"><ele>136.0</ele><time>2026-03-22T08:41:29.207Z</time></trkpt><trkpt lat="44.2428919" lon="9.7064587"><ele>134.0</ele><time>2026-03-22T08:41:30.207Z</time></trkpt><trkpt lat="44.2430532" lon="9.7063593"><ele>135.33333333333331</ele><time>2026-03-22T08:41:31.206Z</time></trkpt><trkpt lat="44.2432067" lon="9.7062448"><ele>136.66666666666666</ele><time>2026-03-22T08:41:32.206Z</time></trkpt><trkpt lat="44.243365" lon="9.7061358"><ele>138.0</ele><time>2026-03-22T08:41:33.206Z</time></trkpt><trkpt lat="44.2435202" lon="9.706024"><ele>138.0</ele><time>2026-03-22T08:41:34.207Z</time></trkpt><trkpt lat="44.2436762" lon="9.7059114"><ele>138.0</ele><time>2026-03-22T08:41:35.207Z</time></trkpt><trkpt lat="44.2453173" lon="9.7037163"><ele>137.0</ele><time>2026-03-22T08:41:49.207Z</time></trkpt><trkpt lat="44.2452708" lon="9.7034028"><ele>136.0</ele><time>2026-03-22T08:41:50.206Z</time></trkpt><trkpt lat="44.2452673" lon="9.7031307"><ele>135.0</ele><time>2026-03-22T08:41:51.206Z</time></trkpt><trkpt lat="44.2452448" lon="9.7028354"><ele>137.33333333333334</ele><time>2026-03-22T08:41:52.206Z</time></trkpt><trkpt lat="44.2451923" lon="9.7025554"><ele>139.66666666666669</ele><time>2026-03-22T08:41:53.206Z</time></trkpt><trkpt lat="44.245115" lon="9.7022916"><ele>142.0</ele><time>2026-03-22T08:41:54.206Z</time></trkpt><trkpt lat="44.2450206" lon="9.7020676"><ele>146.33333333333334</ele><time>2026-03-22T08:41:55.207Z</time></trkpt><trkpt lat="44.2449151" lon="9.7018686"><ele>150.66666666666666</ele><time>2026-03-22T08:41:56.207Z</time></trkpt><trkpt lat="44.2447537" lon="9.7017049"><ele>155.0</ele><time>2026-03-22T08:41:57.207Z</time></trkpt><trkpt lat="44.244628" lon="9.701545"><ele>152.0</ele><time>2026-03-22T08:41:58.206Z</time></trkpt><trkpt lat="44.2445203" lon="9.7013793"><ele>149.0</ele><time>2026-03-22T08:41:59.206Z</time></trkpt><trkpt lat="44.2444008" lon="9.7012318"><ele>146.0</ele><time>2026-03-22T08:42:00.206Z</time></trkpt><trkpt lat="44.2442722" lon="9.7010725"><ele>146.0</ele><time>2026-03-22T08:42:01.206Z</time></trkpt><trkpt lat="44.2441491" lon="9.7008726"><ele>146.0</ele><time>2026-03-22T08:42:02.206Z</time></trkpt><trkpt lat="44.2440326" lon="9.7006602"><ele>146.0</ele><time>2026-03-22T08:42:03.206Z</time></trkpt><trkpt lat="44.2439317" lon="9.7004484"><ele>145.33333333333331</ele><time>2026-03-22T08:42:04.207Z</time></trkpt><trkpt lat="44.2438522" lon="9.7002131"><ele>144.66666666666666</ele><time>2026-03-22T08:42:05.207Z</time></trkpt><trkpt lat="44.2437889" lon="9.6999676"><ele>144.0</ele><time>2026-03-22T08:42:06.206Z</time></trkpt><trkpt lat="44.2437264" lon="9.6997173"><ele>144.0</ele><time>2026-03-22T08:42:07.207Z</time></trkpt><trkpt lat="44.2436763" lon="9.6994547"><ele>144.0</ele><time>2026-03-22T08:42:08.207Z</time></trkpt><trkpt lat="44.2436322" lon="9.6991961"><ele>144.0</ele><time>2026-03-22T08:42:09.206Z</time></trkpt><trkpt lat="44.2435933" lon="9.6989358"><ele>143.66666666666666</ele><time>2026-03-22T08:42:10.206Z</time></trkpt><trkpt lat="44.2435597" lon="9.6986829"><ele>143.33333333333331</ele><time>2026-03-22T08:42:11.206Z</time></trkpt><trkpt lat="44.2435134" lon="9.6984113"><ele>143.0</ele><time>2026-03-22T08:42:12.207Z</time></trkpt><trkpt lat="44.2434828" lon="9.6981473"><ele>143.0</ele><time>2026-03-22T08:42:13.206Z</time></trkpt><trkpt lat="44.2434519" lon="9.6978899"><ele>143.0</ele><time>2026-03-22T08:42:14.206Z</time></trkpt><trkpt lat="44.2434237" lon="9.6976391"><ele>143.0</ele><time>2026-03-22T08:42:15.207Z</time></trkpt><trkpt lat="44.2433946" lon="9.6973863"><ele>142.66666666666666</ele><time>2026-03-22T08:42:16.207Z</time></trkpt><trkpt lat="44.243359" lon="9.697127"><ele>142.33333333333334</ele><time>2026-03-22T08:42:17.206Z</time></trkpt><trkpt lat="44.2433272" lon="9.6968758"><ele>142.0</ele><time>2026-03-22T08:42:18.206Z</time></trkpt><trkpt lat="44.2433054" lon="9.696651"><ele>142.0</ele><time>2026-03-22T08:42:19.206Z</time></trkpt><trkpt lat="44.2432588" lon="9.6964195"><ele>142.0</ele><time>2026-03-22T08:42:20.206Z</time></trkpt><trkpt lat="44.2432247" lon="9.6961949"><ele>142.0</ele><time>2026-03-22T08:42:21.206Z</time></trkpt><trkpt lat="44.2432386" lon="9.6959732"><ele>140.66666666666669</ele><time>2026-03-22T08:42:22.206Z</time></trkpt><trkpt lat="44.2432845" lon="9.695777"><ele>139.33333333333334</ele><time>2026-03-22T08:42:23.206Z</time></trkpt><trkpt lat="44.243376" lon="9.6956025"><ele>138.0</ele><time>2026-03-22T08:42:24.206Z</time></trkpt><trkpt lat="44.2435026" lon="9.6954674"><ele>138.0</ele><time>2026-03-22T08:42:25.206Z</time></trkpt><trkpt lat="44.2436321" lon="9.69535"><ele>138.0</ele><time>2026-03-22T08:42:26.206Z</time></trkpt><trkpt lat="44.2437748" lon="9.6952338"><ele>138.0</ele><time>2026-03-22T08:42:27.207Z</time></trkpt><trkpt lat="44.2439511" lon="9.6951486"><ele>136.66666666666666</ele><time>2026-03-22T08:42:28.206Z</time></trkpt><trkpt lat="44.2441121" lon="9.6950496"><ele>135.33333333333331</ele><time>2026-03-22T08:42:29.206Z</time></trkpt><trkpt lat="44.2442742" lon="9.6949519"><ele>134.0</ele><time>2026-03-22T08:42:30.206Z</time></trkpt><trkpt lat="44.2444354" lon="9.6948527"><ele>134.0</ele><time>2026-03-22T08:42:31.206Z</time></trkpt><trkpt lat="44.2445999" lon="9.6947513"><ele>134.0</ele><time>2026-03-22T08:42:32.206Z</time></trkpt><trkpt lat="44.2447594" lon="9.6946514"><ele>134.0</ele><time>2026-03-22T08:42:33.206Z</time></trkpt><trkpt lat="44.2449102" lon="9.69456"><ele>132.0</ele><time>2026-03-22T08:42:34.206Z</time></trkpt><trkpt lat="44.2450436" lon="9.6944791"><ele>130.0</ele><time>2026-03-22T08:42:35.206Z</time></trkpt><trkpt lat="44.2451746" lon="9.6943998"><ele>128.0</ele><time>2026-03-22T08:42:36.206Z</time></trkpt><trkpt lat="44.245309" lon="9.6943216"><ele>126.0</ele><time>2026-03-22T08:42:37.207Z</time></trkpt><trkpt lat="44.2454469" lon="9.6942486"><ele>126.0</ele><time>2026-03-22T08:42:38.207Z</time></trkpt><trkpt lat="44.2455875" lon="9.6941569"><ele>126.0</ele><time>2026-03-22T08:42:39.206Z</time></trkpt><trkpt lat="44.2457376" lon="9.6940403"><ele>126.0</ele><time>2026-03-22T08:42:40.206Z</time></trkpt><trkpt lat="44.2458908" lon="9.6939128"><ele>127.0</ele><time>2026-03-22T08:42:41.206Z</time></trkpt><trkpt lat="44.2460274" lon="9.693732"><ele>128.0</ele><time>2026-03-22T08:42:42.206Z</time></trkpt><trkpt lat="44.2461421" lon="9.6935194"><ele>129.0</ele><time>2026-03-22T08:42:43.206Z</time></trkpt><trkpt lat="44.2462614" lon="9.6933232"><ele>129.0</ele><time>2026-03-22T08:42:44.206Z</time></trkpt><trkpt lat="44.24638" lon="9.6931259"><ele>129.0</ele><time>2026-03-22T08:42:45.206Z</time></trkpt><trkpt lat="44.2464952" lon="9.6929352"><ele>129.0</ele><time>2026-03-22T08:42:46.206Z</time></trkpt><trkpt lat="44.246608" lon="9.6927565"><ele>133.33333333333334</ele><time>2026-03-22T08:42:47.207Z</time></trkpt><trkpt lat="44.2467133" lon="9.692568"><ele>137.66666666666669</ele><time>2026-03-22T08:42:48.207Z</time></trkpt><trkpt lat="44.2468236" lon="9.6923796"><ele>142.0</ele><time>2026-03-22T08:42:49.207Z</time></trkpt><trkpt lat="44.2469364" lon="9.692198"><ele>142.0</ele><time>2026-03-22T08:42:50.206Z</time></trkpt><trkpt lat="44.2470547" lon="9.6920154"><ele>142.0</ele><time>2026-03-22T08:42:51.206Z</time></trkpt><trkpt lat="44.2471695" lon="9.691831"><ele>142.0</ele><time>2026-03-22T08:42:52.206Z</time></trkpt><trkpt lat="44.2472803" lon="9.6916554"><ele>148.66666666666669</ele><time>2026-03-22T08:42:53.206Z</time></trkpt><trkpt lat="44.2473893" lon="9.6914895"><ele>155.33333333333334</ele><time>2026-03-22T08:42:54.206Z</time></trkpt><trkpt lat="44.247488" lon="9.6913081"><ele>162.0</ele><time>2026-03-22T08:42:55.207Z</time></trkpt><trkpt lat="44.2475572" lon="9.691107"><ele>159.33333333333334</ele><time>2026-03-22T08:42:56.207Z</time></trkpt><trkpt lat="44.2476234" lon="9.6908988"><ele>156.66666666666669</ele><time>2026-03-22T08:42:57.207Z</time></trkpt><trkpt lat="44.2476777" lon="9.6906643"><ele>154.0</ele><time>2026-03-22T08:42:58.206Z</time></trkpt><trkpt lat="44.2476232" lon="9.6903714"><ele>148.66666666666669</ele><time>2026-03-22T08:42:59.206Z</time></trkpt><trkpt lat="44.2476043" lon="9.6901089"><ele>143.33333333333334</ele><time>2026-03-22T08:43:00.206Z</time></trkpt><trkpt lat="44.2475804" lon="9.6898237"><ele>138.0</ele><time>2026-03-22T08:43:01.207Z</time></trkpt><trkpt lat="44.2475726" lon="9.6895473"><ele>141.33333333333334</ele><time>2026-03-22T08:43:02.207Z</time></trkpt><trkpt lat="44.2475395" lon="9.689304"><ele>144.66666666666669</ele><time>2026-03-22T08:43:03.206Z</time></trkpt><trkpt lat="44.247429" lon="9.6890296"><ele>148.0</ele><time>2026-03-22T08:43:04.206Z</time></trkpt><trkpt lat="44.2473569" lon="9.688768"><ele>143.66666666666669</ele><time>2026-03-22T08:43:05.206Z</time></trkpt><trkpt lat="44.2472726" lon="9.6885674"><ele>139.33333333333334</ele><time>2026-03-22T08:43:06.206Z</time></trkpt><trkpt lat="44.2471957" lon="9.6883432"><ele>135.0</ele><time>2026-03-22T08:43:07.206Z</time></trkpt><trkpt lat="44.247119" lon="9.688128"><ele>135.0</ele><time>2026-03-22T08:43:08.206Z</time></trkpt><trkpt lat="44.2469662" lon="9.6879862"><ele>135.0</ele><time>2026-03-22T08:43:09.206Z</time></trkpt><trkpt lat="44.2468236" lon="9.6879047"><ele>135.0</ele><time>2026-03-22T08:43:10.206Z</time></trkpt><trkpt lat="44.24672" lon="9.6877173"><ele>134.33333333333334</ele><time>2026-03-22T08:43:11.206Z</time></trkpt><trkpt lat="44.2466123" lon="9.6875115"><ele>133.66666666666669</ele><time>2026-03-22T08:43:12.206Z</time></trkpt><trkpt lat="44.2465278" lon="9.6873322"><ele>133.0</ele><time>2026-03-22T08:43:13.206Z</time></trkpt><trkpt lat="44.2464355" lon="9.6871069"><ele>133.33333333333334</ele><time>2026-03-22T08:43:14.206Z</time></trkpt><trkpt lat="44.2463629" lon="9.6868609"><ele>133.66666666666666</ele><time>2026-03-22T08:43:15.206Z</time></trkpt><trkpt lat="44.2462998" lon="9.6866099"><ele>134.0</ele><time>2026-03-22T08:43:16.206Z</time></trkpt><trkpt lat="44.2462225" lon="9.6863506"><ele>132.66666666666666</ele><time>2026-03-22T08:43:17.206Z</time></trkpt><trkpt lat="44.2462207" lon="9.6860524"><ele>131.33333333333334</ele><time>2026-03-22T08:43:18.206Z</time></trkpt><trkpt lat="44.2461908" lon="9.6857779"><ele>130.0</ele><time>2026-03-22T08:43:19.206Z</time></trkpt><trkpt lat="44.2461643" lon="9.6855152"><ele>130.0</ele><time>2026-03-22T08:43:20.206Z</time></trkpt><trkpt lat="44.2461422" lon="9.685268"><ele>130.0</ele><time>2026-03-22T08:43:21.206Z</time></trkpt><trkpt lat="44.2461158" lon="9.6850222"><ele>130.0</ele><time>2026-03-22T08:43:22.206Z</time></trkpt><trkpt lat="44.2460822" lon="9.6847782"><ele>129.33333333333334</ele><time>2026-03-22T08:43:23.206Z</time></trkpt><trkpt lat="44.2460525" lon="9.6845429"><ele>128.66666666666666</ele><time>2026-03-22T08:43:24.207Z</time></trkpt><trkpt lat="44.2460377" lon="9.6843102"><ele>128.0</ele><time>2026-03-22T08:43:25.206Z</time></trkpt><trkpt lat="44.2460174" lon="9.6840886"><ele>129.25</ele><time>2026-03-22T08:43:26.206Z</time></trkpt><trkpt lat="44.2459974" lon="9.6838818"><ele>130.5</ele><time>2026-03-22T08:43:27.207Z</time></trkpt><trkpt lat="44.2459851" lon="9.6837019"><ele>131.75</ele><time>2026-03-22T08:43:28.207Z</time></trkpt><trkpt lat="44.2460414" lon="9.6835532"><ele>133.0</ele><time>2026-03-22T08:43:29.206Z</time></trkpt><trkpt lat="44.2460785" lon="9.683417"><ele>134.0</ele><time>2026-03-22T08:43:30.206Z</time></trkpt><trkpt lat="44.2461166" lon="9.683304"><ele>135.0</ele><time>2026-03-22T08:43:31.206Z</time></trkpt><trkpt lat="44.2461715" lon="9.6832034"><ele>136.0</ele><time>2026-03-22T08:43:32.206Z</time></trkpt><trkpt lat="44.2462359" lon="9.6830893"><ele>137.0</ele><time>2026-03-22T08:43:33.207Z</time></trkpt><trkpt lat="44.2464498" lon="9.6831636"><ele>142.5</ele><time>2026-03-22T08:43:34.206Z</time></trkpt><trkpt lat="44.2467282" lon="9.6832025"><ele>148.0</ele><time>2026-03-22T08:43:35.206Z</time></trkpt><trkpt lat="44.2469005" lon="9.6831644"><ele>148.0</ele><time>2026-03-22T08:43:36.206Z</time></trkpt><trkpt lat="44.2470676" lon="9.6831089"><ele>148.0</ele><time>2026-03-22T08:43:37.206Z</time></trkpt><trkpt lat="44.2472525" lon="9.6830507"><ele>148.0</ele><time>2026-03-22T08:43:38.207Z</time></trkpt><trkpt lat="44.2474239" lon="9.68299"><ele>146.66666666666669</ele><time>2026-03-22T08:43:39.207Z</time></trkpt><trkpt lat="44.2475908" lon="9.6829039"><ele>145.33333333333334</ele><time>2026-03-22T08:43:40.206Z</time></trkpt><trkpt lat="44.2477728" lon="9.6828481"><ele>144.0</ele><time>2026-03-22T08:43:41.206Z</time></trkpt><trkpt lat="44.2479439" lon="9.6827641"><ele>145.0</ele><time>2026-03-22T08:43:42.206Z</time></trkpt><trkpt lat="44.248128" lon="9.6826684"><ele>146.0</ele><time>2026-03-22T08:43:43.206Z</time></trkpt><trkpt lat="44.2483163" lon="9.6825522"><ele>147.0</ele><time>2026-03-22T08:43:44.207Z</time></trkpt><trkpt lat="44.2485047" lon="9.6824258"><ele>147.0</ele><time>2026-03-22T08:43:45.206Z</time></trkpt><trkpt lat="44.2486779" lon="9.6822999"><ele>147.0</ele><time>2026-03-22T08:43:46.206Z</time></trkpt><trkpt lat="44.2488344" lon="9.6821622"><ele>147.0</ele><time>2026-03-22T08:43:47.207Z</time></trkpt><trkpt lat="44.2489819" lon="9.6820011"><ele>148.33333333333334</ele><time>2026-03-22T08:43:48.206Z</time></trkpt><trkpt lat="44.249132" lon="9.6818393"><ele>149.66666666666669</ele><time>2026-03-22T08:43:49.206Z</time></trkpt><trkpt lat="44.2492771" lon="9.6816787"><ele>151.0</ele><time>2026-03-22T08:43:50.206Z</time></trkpt><trkpt lat="44.2494285" lon="9.6815403"><ele>151.0</ele><time>2026-03-22T08:43:51.206Z</time></trkpt><trkpt lat="44.2495725" lon="9.681387"><ele>151.0</ele><time>2026-03-22T08:43:52.207Z</time></trkpt><trkpt lat="44.2497183" lon="9.6812322"><ele>151.0</ele><time>2026-03-22T08:43:53.207Z</time></trkpt><trkpt lat="44.2498568" lon="9.6810635"><ele>147.66666666666669</ele><time>2026-03-22T08:43:54.207Z</time></trkpt><trkpt lat="44.2499595" lon="9.6808677"><ele>144.33333333333334</ele><time>2026-03-22T08:43:55.206Z</time></trkpt><trkpt lat="44.2500458" lon="9.6806375"><ele>141.0</ele><time>2026-03-22T08:43:56.206Z</time></trkpt><trkpt lat="44.2501238" lon="9.6803885"><ele>140.0</ele><time>2026-03-22T08:43:57.207Z</time></trkpt><trkpt lat="44.2501803" lon="9.6801204"><ele>139.0</ele><time>2026-03-22T08:43:58.206Z</time></trkpt><trkpt lat="44.2502126" lon="9.6798258"><ele>138.0</ele><time>2026-03-22T08:43:59.207Z</time></trkpt><trkpt lat="44.2502529" lon="9.6795556"><ele>137.33333333333334</ele><time>2026-03-22T08:44:00.207Z</time></trkpt><trkpt lat="44.2502919" lon="9.6792967"><ele>136.66666666666669</ele><time>2026-03-22T08:44:01.207Z</time></trkpt><trkpt lat="44.2503368" lon="9.6790381"><ele>136.0</ele><time>2026-03-22T08:44:02.206Z</time></trkpt><trkpt lat="44.2503796" lon="9.6787749"><ele>137.66666666666669</ele><time>2026-03-22T08:44:03.206Z</time></trkpt><trkpt lat="44.2504188" lon="9.6785118"><ele>139.33333333333334</ele><time>2026-03-22T08:44:04.207Z</time></trkpt><trkpt lat="44.2504529" lon="9.6782418"><ele>141.0</ele><time>2026-03-22T08:44:05.206Z</time></trkpt><trkpt lat="44.250496" lon="9.6779695"><ele>149.33333333333334</ele><time>2026-03-22T08:44:06.206Z</time></trkpt><trkpt lat="44.2505403" lon="9.6776939"><ele>157.66666666666669</ele><time>2026-03-22T08:44:07.206Z</time></trkpt><trkpt lat="44.250581" lon="9.6774111"><ele>166.0</ele><time>2026-03-22T08:44:08.207Z</time></trkpt><trkpt lat="44.2506215" lon="9.6771298"><ele>158.0</ele><time>2026-03-22T08:44:09.207Z</time></trkpt><trkpt lat="44.2526126" lon="9.6736197"><ele>155.33333333333331</ele><time>2026-03-22T08:44:28.206Z</time></trkpt><trkpt lat="44.252792" lon="9.6735477"><ele>152.66666666666666</ele><time>2026-03-22T08:44:29.206Z</time></trkpt><trkpt lat="44.252975" lon="9.6734944"><ele>150.0</ele><time>2026-03-22T08:44:30.206Z</time></trkpt><trkpt lat="44.253167" lon="9.6734597"><ele>150.0</ele><time>2026-03-22T08:44:31.206Z</time></trkpt><trkpt lat="44.2533998" lon="9.6734444"><ele>150.0</ele><time>2026-03-22T08:44:32.206Z</time></trkpt><trkpt lat="44.253628" lon="9.6734133"><ele>150.0</ele><time>2026-03-22T08:44:33.206Z</time></trkpt><trkpt lat="44.253873" lon="9.673399"><ele>150.0</ele><time>2026-03-22T08:44:34.206Z</time></trkpt><trkpt lat="44.254092" lon="9.6733779"><ele>151.33333333333334</ele><time>2026-03-22T08:44:35.206Z</time></trkpt><trkpt lat="44.2543018" lon="9.6733665"><ele>152.66666666666669</ele><time>2026-03-22T08:44:36.206Z</time></trkpt><trkpt lat="44.2545019" lon="9.6733591"><ele>154.0</ele><time>2026-03-22T08:44:37.206Z</time></trkpt><trkpt lat="44.2546962" lon="9.6733649"><ele>156.66666666666669</ele><time>2026-03-22T08:44:38.207Z</time></trkpt><trkpt lat="44.2548749" lon="9.673351"><ele>159.33333333333334</ele><time>2026-03-22T08:44:39.206Z</time></trkpt><trkpt lat="44.2550769" lon="9.6733178"><ele>162.0</ele><time>2026-03-22T08:44:40.206Z</time></trkpt><trkpt lat="44.2552513" lon="9.673297"><ele>162.0</ele><time>2026-03-22T08:44:41.206Z</time></trkpt><trkpt lat="44.2554154" lon="9.6732384"><ele>162.0</ele><time>2026-03-22T08:44:42.207Z</time></trkpt><trkpt lat="44.2555943" lon="9.6731765"><ele>162.0</ele><time>2026-03-22T08:44:43.207Z</time></trkpt><trkpt lat="44.2557634" lon="9.6731094"><ele>164.0</ele><time>2026-03-22T08:44:44.206Z</time></trkpt><trkpt lat="44.2559379" lon="9.6730213"><ele>166.0</ele><time>2026-03-22T08:44:45.208Z</time></trkpt><trkpt lat="44.2561053" lon="9.6729079"><ele>168.0</ele><time>2026-03-22T08:44:46.207Z</time></trkpt><trkpt lat="44.2562635" lon="9.672781"><ele>169.33333333333334</ele><time>2026-03-22T08:44:47.206Z</time></trkpt><trkpt lat="44.2564165" lon="9.672636"><ele>170.66666666666669</ele><time>2026-03-22T08:44:48.207Z</time></trkpt><trkpt lat="44.2565681" lon="9.6724849"><ele>172.0</ele><time>2026-03-22T08:44:49.206Z</time></trkpt><trkpt lat="44.2567252" lon="9.6723364"><ele>172.0</ele><time>2026-03-22T08:44:50.206Z</time></trkpt><trkpt lat="44.2568892" lon="9.6721978"><ele>172.0</ele><time>2026-03-22T08:44:51.206Z</time></trkpt><trkpt lat="44.2570412" lon="9.6720482"><ele>172.0</ele><time>2026-03-22T08:44:52.206Z</time></trkpt><trkpt lat="44.2571947" lon="9.6718936"><ele>174.0</ele><time>2026-03-22T08:44:53.206Z</time></trkpt><trkpt lat="44.2573504" lon="9.6717387"><ele>176.0</ele><time>2026-03-22T08:44:54.207Z</time></trkpt><trkpt lat="44.2575016" lon="9.6715861"><ele>178.0</ele><time>2026-03-22T08:44:55.208Z</time></trkpt><trkpt lat="44.2576515" lon="9.6714249"><ele>178.0</ele><time>2026-03-22T08:44:56.206Z</time></trkpt><trkpt lat="44.2577981" lon="9.6712552"><ele>178.0</ele><time>2026-03-22T08:44:57.206Z</time></trkpt><trkpt lat="44.2579252" lon="9.6710681"><ele>178.0</ele><time>2026-03-22T08:44:58.206Z</time></trkpt><trkpt lat="44.2580287" lon="9.6708565"><ele>177.33333333333334</ele><time>2026-03-22T08:44:59.206Z</time></trkpt><trkpt lat="44.2581109" lon="9.6706196"><ele>176.66666666666666</ele><time>2026-03-22T08:45:00.206Z</time></trkpt><trkpt lat="44.2581858" lon="9.6703827"><ele>176.0</ele><time>2026-03-22T08:45:01.207Z</time></trkpt><trkpt lat="44.2582602" lon="9.6701374"><ele>176.0</ele><time>2026-03-22T08:45:02.206Z</time></trkpt><trkpt lat="44.2583372" lon="9.6698986"><ele>176.0</ele><time>2026-03-22T08:45:03.206Z</time></trkpt><trkpt lat="44.2584073" lon="9.6696527"><ele>176.0</ele><time>2026-03-22T08:45:04.206Z</time></trkpt><trkpt lat="44.2584772" lon="9.6694045"><ele>170.66666666666666</ele><time>2026-03-22T08:45:05.207Z</time></trkpt><trkpt lat="44.2585445" lon="9.6691608"><ele>165.33333333333334</ele><time>2026-03-22T08:45:06.207Z</time></trkpt><trkpt lat="44.2586051" lon="9.6689203"><ele>160.0</ele><time>2026-03-22T08:45:07.206Z</time></trkpt><trkpt lat="44.2586492" lon="9.6686716"><ele>159.66666666666669</ele><time>2026-03-22T08:45:08.206Z</time></trkpt><trkpt lat="44.2587024" lon="9.6684294"><ele>159.33333333333334</ele><time>2026-03-22T08:45:09.207Z</time></trkpt><trkpt lat="44.2587568" lon="9.6681859"><ele>159.0</ele><time>2026-03-22T08:45:10.207Z</time></trkpt><trkpt lat="44.2588046" lon="9.6679463"><ele>160.66666666666666</ele><time>2026-03-22T08:45:11.206Z</time></trkpt><trkpt lat="44.2588662" lon="9.6677108"><ele>162.33333333333331</ele><time>2026-03-22T08:45:12.207Z</time></trkpt><trkpt lat="44.2589406" lon="9.6674757"><ele>164.0</ele><time>2026-03-22T08:45:13.207Z</time></trkpt><trkpt lat="44.2590334" lon="9.6672643"><ele>164.0</ele><time>2026-03-22T08:45:14.207Z</time></trkpt><trkpt lat="44.2591443" lon="9.6670622"><ele>164.0</ele><time>2026-03-22T08:45:15.207Z</time></trkpt><trkpt lat="44.2592676" lon="9.6668763"><ele>164.0</ele><time>2026-03-22T08:45:16.207Z</time></trkpt><trkpt lat="44.2594064" lon="9.6666909"><ele>164.0</ele><time>2026-03-22T08:45:17.206Z</time></trkpt><trkpt lat="44.2595459" lon="9.6665077"><ele>164.0</ele><time>2026-03-22T08:45:18.207Z</time></trkpt><trkpt lat="44.2596869" lon="9.6663312"><ele>164.0</ele><time>2026-03-22T08:45:19.207Z</time></trkpt><trkpt lat="44.2598317" lon="9.6661608"><ele>166.66666666666666</ele><time>2026-03-22T08:45:20.206Z</time></trkpt><trkpt lat="44.2599759" lon="9.6659865"><ele>169.33333333333334</ele><time>2026-03-22T08:45:21.206Z</time></trkpt><trkpt lat="44.2601278" lon="9.6658139"><ele>172.0</ele><time>2026-03-22T08:45:22.207Z</time></trkpt><trkpt lat="44.2602724" lon="9.6656529"><ele>172.0</ele><time>2026-03-22T08:45:23.206Z</time></trkpt><trkpt lat="44.2604149" lon="9.6655014"><ele>172.0</ele><time>2026-03-22T08:45:24.206Z</time></trkpt><trkpt lat="44.260565" lon="9.6653551"><ele>172.0</ele><time>2026-03-22T08:45:25.206Z</time></trkpt><trkpt lat="44.2607286" lon="9.6652318"><ele>171.0</ele><time>2026-03-22T08:45:26.207Z</time></trkpt><trkpt lat="44.2608982" lon="9.6651383"><ele>170.0</ele><time>2026-03-22T08:45:27.207Z</time></trkpt><trkpt lat="44.2610773" lon="9.6650683"><ele>169.0</ele><time>2026-03-22T08:45:28.207Z</time></trkpt><trkpt lat="44.261255" lon="9.6650039"><ele>169.0</ele><time>2026-03-22T08:45:29.206Z</time></trkpt><trkpt lat="44.2614276" lon="9.6649341"><ele>169.0</ele><time>2026-03-22T08:45:30.206Z</time></trkpt><trkpt lat="44.2616113" lon="9.664886"><ele>169.0</ele><time>2026-03-22T08:45:31.206Z</time></trkpt><trkpt lat="44.2618017" lon="9.6648742"><ele>171.66666666666669</ele><time>2026-03-22T08:45:32.206Z</time></trkpt><trkpt lat="44.26199" lon="9.6648813"><ele>174.33333333333334</ele><time>2026-03-22T08:45:33.206Z</time></trkpt><trkpt lat="44.2621771" lon="9.6649181"><ele>177.0</ele><time>2026-03-22T08:45:34.207Z</time></trkpt><trkpt lat="44.2623581" lon="9.664966"><ele>177.0</ele><time>2026-03-22T08:45:35.207Z</time></trkpt><trkpt lat="44.2625399" lon="9.6650216"><ele>177.0</ele><time>2026-03-22T08:45:36.207Z</time></trkpt><trkpt lat="44.2627127" lon="9.6650702"><ele>177.0</ele><time>2026-03-22T08:45:37.207Z</time></trkpt><trkpt lat="44.2628761" lon="9.6651414"><ele>177.0</ele><time>2026-03-22T08:45:38.207Z</time></trkpt><trkpt lat="44.2630413" lon="9.6652099"><ele>177.0</ele><time>2026-03-22T08:45:39.207Z</time></trkpt><trkpt lat="44.26318" lon="9.665337"><ele>177.0</ele><time>2026-03-22T08:45:40.207Z</time></trkpt><trkpt lat="44.263333" lon="9.6654477"><ele>179.66666666666666</ele><time>2026-03-22T08:45:41.207Z</time></trkpt><trkpt lat="44.2634899" lon="9.6656419"><ele>182.33333333333331</ele><time>2026-03-22T08:45:42.207Z</time></trkpt><trkpt lat="44.2636232" lon="9.6658533"><ele>185.0</ele><time>2026-03-22T08:45:43.207Z</time></trkpt><trkpt lat="44.263712" lon="9.6661228"><ele>193.33333333333331</ele><time>2026-03-22T08:45:44.207Z</time></trkpt><trkpt lat="44.2637478" lon="9.666385"><ele>201.66666666666666</ele><time>2026-03-22T08:45:45.207Z</time></trkpt><trkpt lat="44.2638332" lon="9.6665983"><ele>210.0</ele><time>2026-03-22T08:45:46.206Z</time></trkpt><trkpt lat="44.26391" lon="9.6667994"><ele>205.0</ele><time>2026-03-22T08:45:47.207Z</time></trkpt><trkpt lat="44.2640049" lon="9.6669996"><ele>200.0</ele><time>2026-03-22T08:45:48.207Z</time></trkpt><trkpt lat="44.2641208" lon="9.6671857"><ele>195.0</ele><time>2026-03-22T08:45:49.206Z</time></trkpt><trkpt lat="44.2642542" lon="9.6673472"><ele>195.0</ele><time>2026-03-22T08:45:50.206Z</time></trkpt><trkpt lat="44.2643814" lon="9.6675035"><ele>195.0</ele><time>2026-03-22T08:45:51.206Z</time></trkpt><trkpt lat="44.2645408" lon="9.6676062"><ele>195.0</ele><time>2026-03-22T08:45:52.207Z</time></trkpt><trkpt lat="44.2647059" lon="9.6676942"><ele>198.33333333333331</ele><time>2026-03-22T08:45:53.207Z</time></trkpt><trkpt lat="44.264873" lon="9.6678026"><ele>201.66666666666666</ele><time>2026-03-22T08:45:54.207Z</time></trkpt><trkpt lat="44.2650494" lon="9.6677672"><ele>205.0</ele><time>2026-03-22T08:45:55.206Z</time></trkpt><trkpt lat="44.265208" lon="9.6677719"><ele>195.66666666666666</ele><time>2026-03-22T08:45:56.206Z</time></trkpt><trkpt lat="44.2653763" lon="9.6677332"><ele>186.33333333333331</ele><time>2026-03-22T08:45:57.206Z</time></trkpt><trkpt lat="44.2655137" lon="9.6677015"><ele>177.0</ele><time>2026-03-22T08:45:58.206Z</time></trkpt><trkpt lat="44.2656766" lon="9.6674947"><ele>177.0</ele><time>2026-03-22T08:45:59.206Z</time></trkpt><trkpt lat="44.2658355" lon="9.6673893"><ele>177.0</ele><time>2026-03-22T08:46:00.207Z</time></trkpt><trkpt lat="44.2659991" lon="9.6672529"><ele>177.0</ele><time>2026-03-22T08:46:01.206Z</time></trkpt><trkpt lat="44.2660959" lon="9.6670771"><ele>172.33333333333334</ele><time>2026-03-22T08:46:02.206Z</time></trkpt><trkpt lat="44.2662251" lon="9.6669091"><ele>167.66666666666669</ele><time>2026-03-22T08:46:03.206Z</time></trkpt><trkpt lat="44.2663327" lon="9.6667123"><ele>163.0</ele><time>2026-03-22T08:46:04.207Z</time></trkpt><trkpt lat="44.266429" lon="9.6664939"><ele>169.0</ele><time>2026-03-22T08:46:05.207Z</time></trkpt><trkpt lat="44.2665147" lon="9.666266"><ele>175.0</ele><time>2026-03-22T08:46:06.206Z</time></trkpt><trkpt lat="44.2665742" lon="9.6660118"><ele>181.0</ele><time>2026-03-22T08:46:07.206Z</time></trkpt><trkpt lat="44.2666107" lon="9.6657597"><ele>181.0</ele><time>2026-03-22T08:46:08.206Z</time></trkpt><trkpt lat="44.2666594" lon="9.6655231"><ele>181.0</ele><time>2026-03-22T08:46:09.206Z</time></trkpt><trkpt lat="44.266699" lon="9.6652804"><ele>181.0</ele><time>2026-03-22T08:46:10.206Z</time></trkpt><trkpt lat="44.266749" lon="9.6650299"><ele>180.33333333333334</ele><time>2026-03-22T08:46:11.206Z</time></trkpt><trkpt lat="44.2668139" lon="9.6647765"><ele>179.66666666666666</ele><time>2026-03-22T08:46:12.206Z</time></trkpt><trkpt lat="44.2668947" lon="9.6645352"><ele>179.0</ele><time>2026-03-22T08:46:13.206Z</time></trkpt><trkpt lat="44.2669886" lon="9.6643019"><ele>175.66666666666666</ele><time>2026-03-22T08:46:14.206Z</time></trkpt><trkpt lat="44.2670866" lon="9.6640707"><ele>172.33333333333334</ele><time>2026-03-22T08:46:15.206Z</time></trkpt><trkpt lat="44.2671818" lon="9.663858"><ele>169.0</ele><time>2026-03-22T08:46:16.207Z</time></trkpt><trkpt lat="44.2672813" lon="9.6636622"><ele>176.0</ele><time>2026-03-22T08:46:17.207Z</time></trkpt><trkpt lat="44.2673696" lon="9.6634791"><ele>183.0</ele><time>2026-03-22T08:46:18.207Z</time></trkpt><trkpt lat="44.2674545" lon="9.6632908"><ele>190.0</ele><time>2026-03-22T08:46:19.207Z</time></trkpt><trkpt lat="44.2675512" lon="9.6630849"><ele>190.0</ele><time>2026-03-22T08:46:20.206Z</time></trkpt><trkpt lat="44.2676591" lon="9.6628831"><ele>190.0</ele><time>2026-03-22T08:46:21.206Z</time></trkpt><trkpt lat="44.267783" lon="9.6627052"><ele>190.0</ele><time>2026-03-22T08:46:22.206Z</time></trkpt><trkpt lat="44.2679211" lon="9.6625388"><ele>195.0</ele><time>2026-03-22T08:46:23.206Z</time></trkpt><trkpt lat="44.2680694" lon="9.6623788"><ele>200.0</ele><time>2026-03-22T08:46:24.206Z</time></trkpt><trkpt lat="44.2682216" lon="9.6622119"><ele>205.0</ele><time>2026-03-22T08:46:25.206Z</time></trkpt><trkpt lat="44.2683646" lon="9.6620355"><ele>195.66666666666666</ele><time>2026-03-22T08:46:26.206Z</time></trkpt><trkpt lat="44.2684979" lon="9.6618387"><ele>186.33333333333331</ele><time>2026-03-22T08:46:27.206Z</time></trkpt><trkpt lat="44.2686075" lon="9.6616275"><ele>177.0</ele><time>2026-03-22T08:46:28.206Z</time></trkpt><trkpt lat="44.2686943" lon="9.6614054"><ele>177.0</ele><time>2026-03-22T08:46:29.206Z</time></trkpt><trkpt lat="44.2687564" lon="9.6611659"><ele>177.0</ele><time>2026-03-22T08:46:30.206Z</time></trkpt><trkpt lat="44.2688101" lon="9.6609214"><ele>177.0</ele><time>2026-03-22T08:46:31.206Z</time></trkpt><trkpt lat="44.268816" lon="9.6606544"><ele>173.33333333333334</ele><time>2026-03-22T08:46:32.206Z</time></trkpt><trkpt lat="44.2688436" lon="9.6603888"><ele>169.66666666666669</ele><time>2026-03-22T08:46:33.206Z</time></trkpt><trkpt lat="44.2688725" lon="9.6601079"><ele>166.0</ele><time>2026-03-22T08:46:34.206Z</time></trkpt><trkpt lat="44.2688992" lon="9.659819"><ele>165.66666666666669</ele><time>2026-03-22T08:46:35.206Z</time></trkpt><trkpt lat="44.268921" lon="9.6595292"><ele>165.33333333333334</ele><time>2026-03-22T08:46:36.206Z</time></trkpt><trkpt lat="44.2689494" lon="9.6592517"><ele>165.0</ele><time>2026-03-22T08:46:37.206Z</time></trkpt><trkpt lat="44.268982" lon="9.6589848"><ele>170.33333333333334</ele><time>2026-03-22T08:46:38.206Z</time></trkpt><trkpt lat="44.269011" lon="9.6587236"><ele>175.66666666666669</ele><time>2026-03-22T08:46:39.206Z</time></trkpt><trkpt lat="44.2690378" lon="9.6584625"><ele>181.0</ele><time>2026-03-22T08:46:40.206Z</time></trkpt><trkpt lat="44.2690649" lon="9.6582095"><ele>181.0</ele><time>2026-03-22T08:46:41.206Z</time></trkpt><trkpt lat="44.2690892" lon="9.6579632"><ele>181.0</ele><time>2026-03-22T08:46:42.206Z</time></trkpt><trkpt lat="44.2691197" lon="9.6577279"><ele>181.0</ele><time>2026-03-22T08:46:43.206Z</time></trkpt><trkpt lat="44.2691444" lon="9.6574775"><ele>179.33333333333334</ele><time>2026-03-22T08:46:44.206Z</time></trkpt><trkpt lat="44.2692556" lon="9.6572611"><ele>177.66666666666666</ele><time>2026-03-22T08:46:45.206Z</time></trkpt><trkpt lat="44.2693646" lon="9.6570384"><ele>176.0</ele><time>2026-03-22T08:46:46.206Z</time></trkpt><trkpt lat="44.2694966" lon="9.6568653"><ele>174.33333333333331</ele><time>2026-03-22T08:46:47.206Z</time></trkpt><trkpt lat="44.2696276" lon="9.6567037"><ele>172.66666666666666</ele><time>2026-03-22T08:46:48.206Z</time></trkpt><trkpt lat="44.2698049" lon="9.6566645"><ele>171.0</ele><time>2026-03-22T08:46:49.206Z</time></trkpt><trkpt lat="44.2699843" lon="9.6566119"><ele>174.33333333333334</ele><time>2026-03-22T08:46:50.206Z</time></trkpt><trkpt lat="44.2701604" lon="9.6565846"><ele>177.66666666666669</ele><time>2026-03-22T08:46:51.206Z</time></trkpt><trkpt lat="44.270338" lon="9.6565722"><ele>181.0</ele><time>2026-03-22T08:46:52.206Z</time></trkpt><trkpt lat="44.2705017" lon="9.6565515"><ele>182.0</ele><time>2026-03-22T08:46:53.206Z</time></trkpt><trkpt lat="44.2706659" lon="9.656535"><ele>183.0</ele><time>2026-03-22T08:46:54.206Z</time></trkpt><trkpt lat="44.2708276" lon="9.6565173"><ele>184.0</ele><time>2026-03-22T08:46:55.206Z</time></trkpt><trkpt lat="44.2709895" lon="9.6564975"><ele>184.0</ele><time>2026-03-22T08:46:56.207Z</time></trkpt><trkpt lat="44.2711504" lon="9.6564812"><ele>184.0</ele><time>2026-03-22T08:46:57.206Z</time></trkpt><trkpt lat="44.271312" lon="9.6564674"><ele>184.0</ele><time>2026-03-22T08:46:58.206Z</time></trkpt><trkpt lat="44.27148" lon="9.6564666"><ele>182.0</ele><time>2026-03-22T08:46:59.206Z</time></trkpt><trkpt lat="44.2716455" lon="9.6564793"><ele>180.0</ele><time>2026-03-22T08:47:00.206Z</time></trkpt><trkpt lat="44.2718155" lon="9.6565144"><ele>178.0</ele><time>2026-03-22T08:47:01.206Z</time></trkpt><trkpt lat="44.2719867" lon="9.6565744"><ele>178.0</ele><time>2026-03-22T08:47:02.206Z</time></trkpt><trkpt lat="44.2721514" lon="9.6566373"><ele>178.0</ele><time>2026-03-22T08:47:03.206Z</time></trkpt><trkpt lat="44.2723151" lon="9.6567519"><ele>178.0</ele><time>2026-03-22T08:47:04.206Z</time></trkpt><trkpt lat="44.2724722" lon="9.6568963"><ele>182.0</ele><time>2026-03-22T08:47:05.206Z</time></trkpt><trkpt lat="44.2726114" lon="9.6570556"><ele>186.0</ele><time>2026-03-22T08:47:06.206Z</time></trkpt><trkpt lat="44.2727362" lon="9.6572138"><ele>190.0</ele><time>2026-03-22T08:47:07.206Z</time></trkpt><trkpt lat="44.2728656" lon="9.6573758"><ele>190.0</ele><time>2026-03-22T08:47:08.206Z</time></trkpt><trkpt lat="44.2729899" lon="9.6575364"><ele>190.0</ele><time>2026-03-22T08:47:09.206Z</time></trkpt><trkpt lat="44.2730973" lon="9.6577063"><ele>190.0</ele><time>2026-03-22T08:47:10.206Z</time></trkpt><trkpt lat="44.273215" lon="9.6578914"><ele>188.66666666666669</ele><time>2026-03-22T08:47:11.206Z</time></trkpt><trkpt lat="44.2733136" lon="9.6580891"><ele>187.33333333333334</ele><time>2026-03-22T08:47:12.207Z</time></trkpt><trkpt lat="44.273397" lon="9.6582808"><ele>186.0</ele><time>2026-03-22T08:47:13.207Z</time></trkpt><trkpt lat="44.2734512" lon="9.6584758"><ele>189.5</ele><time>2026-03-22T08:47:14.207Z</time></trkpt><trkpt lat="44.2735328" lon="9.6586423"><ele>193.0</ele><time>2026-03-22T08:47:15.206Z</time></trkpt><trkpt lat="44.273616" lon="9.658801"><ele>196.5</ele><time>2026-03-22T08:47:16.206Z</time></trkpt><trkpt lat="44.2737143" lon="9.6589469"><ele>200.0</ele><time>2026-03-22T08:47:17.206Z</time></trkpt><trkpt lat="44.2738013" lon="9.6590931"><ele>194.0</ele><time>2026-03-22T08:47:18.207Z</time></trkpt><trkpt lat="44.2739413" lon="9.6591846"><ele>188.0</ele><time>2026-03-22T08:47:19.206Z</time></trkpt><trkpt lat="44.2740667" lon="9.6592746"><ele>182.0</ele><time>2026-03-22T08:47:20.206Z</time></trkpt><trkpt lat="44.2741991" lon="9.659352"><ele>176.0</ele><time>2026-03-22T08:47:21.206Z</time></trkpt><trkpt lat="44.2743347" lon="9.6594076"><ele>176.5</ele><time>2026-03-22T08:47:22.206Z</time></trkpt><trkpt lat="44.2744703" lon="9.65946"><ele>177.0</ele><time>2026-03-22T08:47:23.206Z</time></trkpt><trkpt lat="44.2746081" lon="9.659513"><ele>177.5</ele><time>2026-03-22T08:47:24.207Z</time></trkpt><trkpt lat="44.2747491" lon="9.6595658"><ele>178.0</ele><time>2026-03-22T08:47:25.207Z</time></trkpt><trkpt lat="44.274891" lon="9.6596222"><ele>178.0</ele><time>2026-03-22T08:47:26.206Z</time></trkpt><trkpt lat="44.2750359" lon="9.6596863"><ele>178.0</ele><time>2026-03-22T08:47:27.206Z</time></trkpt><trkpt lat="44.275177" lon="9.659746"><ele>178.0</ele><time>2026-03-22T08:47:28.206Z</time></trkpt><trkpt lat="44.2753191" lon="9.6598042"><ele>178.0</ele><time>2026-03-22T08:47:29.206Z</time></trkpt><trkpt lat="44.2754606" lon="9.6598627"><ele>178.0</ele><time>2026-03-22T08:47:30.206Z</time></trkpt><trkpt lat="44.2756024" lon="9.659919"><ele>178.0</ele><time>2026-03-22T08:47:31.207Z</time></trkpt><trkpt lat="44.2757328" lon="9.65997"><ele>178.0</ele><time>2026-03-22T08:47:32.207Z</time></trkpt><trkpt lat="44.2758699" lon="9.6600279"><ele>178.0</ele><time>2026-03-22T08:47:33.207Z</time></trkpt><trkpt lat="44.2760001" lon="9.660085"><ele>178.0</ele><time>2026-03-22T08:47:34.207Z</time></trkpt><trkpt lat="44.2761271" lon="9.6601496"><ele>178.0</ele><time>2026-03-22T08:47:35.206Z</time></trkpt><trkpt lat="44.2762597" lon="9.6602406"><ele>178.0</ele><time>2026-03-22T08:47:36.206Z</time></trkpt><trkpt lat="44.2763947" lon="9.6603559"><ele>178.0</ele><time>2026-03-22T08:47:37.206Z</time></trkpt><trkpt lat="44.2765236" lon="9.6604779"><ele>179.75</ele><time>2026-03-22T08:47:38.207Z</time></trkpt><trkpt lat="44.2766432" lon="9.6605955"><ele>181.5</ele><time>2026-03-22T08:47:39.207Z</time></trkpt><trkpt lat="44.2767638" lon="9.6607179"><ele>183.25</ele><time>2026-03-22T08:47:40.206Z</time></trkpt><trkpt lat="44.2768784" lon="9.6608275"><ele>185.0</ele><time>2026-03-22T08:47:41.206Z</time></trkpt><trkpt lat="44.2769885" lon="9.6609391"><ele>185.0</ele><time>2026-03-22T08:47:42.206Z</time></trkpt><trkpt lat="44.2770934" lon="9.6610462"><ele>185.0</ele><time>2026-03-22T08:47:43.206Z</time></trkpt><trkpt lat="44.2771939" lon="9.6611443"><ele>185.0</ele><time>2026-03-22T08:47:44.206Z</time></trkpt><trkpt lat="44.2772939" lon="9.6612434"><ele>185.0</ele><time>2026-03-22T08:47:45.206Z</time></trkpt><trkpt lat="44.277399" lon="9.661345"><ele>185.0</ele><time>2026-03-22T08:47:46.206Z</time></trkpt><trkpt lat="44.2775085" lon="9.6614578"><ele>185.0</ele><time>2026-03-22T08:47:47.206Z</time></trkpt><trkpt lat="44.2776291" lon="9.6615805"><ele>185.0</ele><time>2026-03-22T08:47:48.206Z</time></trkpt><trkpt lat="44.2777732" lon="9.6617167"><ele>185.0</ele><time>2026-03-22T08:47:49.206Z</time></trkpt><trkpt lat="44.2779437" lon="9.6618566"><ele>185.0</ele><time>2026-03-22T08:47:50.206Z</time></trkpt><trkpt lat="44.278144" lon="9.6619916"><ele>185.0</ele><time>2026-03-22T08:47:51.206Z</time></trkpt><trkpt lat="44.2783561" lon="9.6621132"><ele>184.0</ele><time>2026-03-22T08:47:52.206Z</time></trkpt><trkpt lat="44.278578" lon="9.6622116"><ele>183.0</ele><time>2026-03-22T08:47:53.207Z</time></trkpt><trkpt lat="44.2787965" lon="9.6622977"><ele>183.0</ele><time>2026-03-22T08:47:54.207Z</time></trkpt><trkpt lat="44.2790011" lon="9.6623699"><ele>183.0</ele><time>2026-03-22T08:47:55.206Z</time></trkpt><trkpt lat="44.2791934" lon="9.6624443"><ele>183.0</ele><time>2026-03-22T08:47:56.206Z</time></trkpt><trkpt lat="44.2793758" lon="9.6625111"><ele>183.0</ele><time>2026-03-22T08:47:57.206Z</time></trkpt><trkpt lat="44.2795464" lon="9.6625782"><ele>183.0</ele><time>2026-03-22T08:47:58.206Z</time></trkpt><trkpt lat="44.2797143" lon="9.6626456"><ele>183.0</ele><time>2026-03-22T08:47:59.207Z</time></trkpt><trkpt lat="44.2798819" lon="9.6627118"><ele>185.33333333333334</ele><time>2026-03-22T08:48:00.206Z</time></trkpt><trkpt lat="44.2800491" lon="9.6627768"><ele>187.66666666666669</ele><time>2026-03-22T08:48:01.206Z</time></trkpt><trkpt lat="44.2802113" lon="9.6628422"><ele>190.0</ele><time>2026-03-22T08:48:02.206Z</time></trkpt><trkpt lat="44.280383" lon="9.6629337"><ele>195.66666666666669</ele><time>2026-03-22T08:48:03.206Z</time></trkpt><trkpt lat="44.2805518" lon="9.662999"><ele>201.33333333333334</ele><time>2026-03-22T08:48:04.206Z</time></trkpt><trkpt lat="44.2807409" lon="9.6630649"><ele>207.0</ele><time>2026-03-22T08:48:05.206Z</time></trkpt><trkpt lat="44.2809346" lon="9.6631336"><ele>207.0</ele><time>2026-03-22T08:48:06.206Z</time></trkpt><trkpt lat="44.2811238" lon="9.6632026"><ele>207.0</ele><time>2026-03-22T08:48:07.206Z</time></trkpt><trkpt lat="44.2813026" lon="9.6632729"><ele>207.0</ele><time>2026-03-22T08:48:08.207Z</time></trkpt><trkpt lat="44.281475" lon="9.6633399"><ele>205.33333333333331</ele><time>2026-03-22T08:48:09.206Z</time></trkpt><trkpt lat="44.2816412" lon="9.663407"><ele>203.66666666666666</ele><time>2026-03-22T08:48:10.206Z</time></trkpt><trkpt lat="44.2818072" lon="9.6634722"><ele>202.0</ele><time>2026-03-22T08:48:11.206Z</time></trkpt><trkpt lat="44.2819711" lon="9.6635363"><ele>202.0</ele><time>2026-03-22T08:48:12.207Z</time></trkpt><trkpt lat="44.2821306" lon="9.6635987"><ele>202.0</ele><time>2026-03-22T08:48:13.207Z</time></trkpt><trkpt lat="44.282285" lon="9.6636636"><ele>202.0</ele><time>2026-03-22T08:48:14.207Z</time></trkpt><trkpt lat="44.2824403" lon="9.6637262"><ele>202.33333333333331</ele><time>2026-03-22T08:48:15.207Z</time></trkpt><trkpt lat="44.2826001" lon="9.6637879"><ele>202.66666666666669</ele><time>2026-03-22T08:48:16.206Z</time></trkpt><trkpt lat="44.2827658" lon="9.6638501"><ele>203.0</ele><time>2026-03-22T08:48:17.206Z</time></trkpt><trkpt lat="44.2829301" lon="9.6639022"><ele>202.66666666666669</ele><time>2026-03-22T08:48:18.207Z</time></trkpt><trkpt lat="44.2830996" lon="9.6639525"><ele>202.33333333333331</ele><time>2026-03-22T08:48:19.206Z</time></trkpt><trkpt lat="44.2832706" lon="9.6639794"><ele>202.0</ele><time>2026-03-22T08:48:20.206Z</time></trkpt><trkpt lat="44.2834559" lon="9.6640007"><ele>202.0</ele><time>2026-03-22T08:48:21.206Z</time></trkpt><trkpt lat="44.2836455" lon="9.6640136"><ele>202.0</ele><time>2026-03-22T08:48:22.207Z</time></trkpt><trkpt lat="44.2838251" lon="9.6640254"><ele>202.0</ele><time>2026-03-22T08:48:23.206Z</time></trkpt><trkpt lat="44.2840094" lon="9.6640498"><ele>203.0</ele><time>2026-03-22T08:48:24.206Z</time></trkpt><trkpt lat="44.2841915" lon="9.6640602"><ele>204.0</ele><time>2026-03-22T08:48:25.206Z</time></trkpt><trkpt lat="44.2843723" lon="9.6640766"><ele>205.0</ele><time>2026-03-22T08:48:26.206Z</time></trkpt><trkpt lat="44.284551" lon="9.6640965"><ele>205.0</ele><time>2026-03-22T08:48:27.206Z</time></trkpt><trkpt lat="44.2847268" lon="9.664122"><ele>205.0</ele><time>2026-03-22T08:48:28.206Z</time></trkpt><trkpt lat="44.2849011" lon="9.6641505"><ele>205.0</ele><time>2026-03-22T08:48:29.207Z</time></trkpt><trkpt lat="44.2850741" lon="9.6641795"><ele>206.33333333333331</ele><time>2026-03-22T08:48:30.206Z</time></trkpt><trkpt lat="44.2852469" lon="9.6642418"><ele>207.66666666666669</ele><time>2026-03-22T08:48:31.206Z</time></trkpt><trkpt lat="44.2854126" lon="9.6642961"><ele>209.0</ele><time>2026-03-22T08:48:32.206Z</time></trkpt><trkpt lat="44.2855849" lon="9.6643526"><ele>210.33333333333334</ele><time>2026-03-22T08:48:33.206Z</time></trkpt><trkpt lat="44.2857559" lon="9.6644096"><ele>211.66666666666669</ele><time>2026-03-22T08:48:34.206Z</time></trkpt><trkpt lat="44.2859273" lon="9.6644648"><ele>213.0</ele><time>2026-03-22T08:48:35.206Z</time></trkpt><trkpt lat="44.2861028" lon="9.6645231"><ele>213.33333333333331</ele><time>2026-03-22T08:48:36.206Z</time></trkpt><trkpt lat="44.2862798" lon="9.6645823"><ele>213.66666666666666</ele><time>2026-03-22T08:48:37.206Z</time></trkpt><trkpt lat="44.2864599" lon="9.6646456"><ele>214.0</ele><time>2026-03-22T08:48:38.206Z</time></trkpt><trkpt lat="44.2866428" lon="9.6647133"><ele>214.66666666666666</ele><time>2026-03-22T08:48:39.206Z</time></trkpt><trkpt lat="44.286827" lon="9.6647766"><ele>215.33333333333331</ele><time>2026-03-22T08:48:40.206Z</time></trkpt><trkpt lat="44.2870083" lon="9.6648329"><ele>216.0</ele><time>2026-03-22T08:48:41.206Z</time></trkpt><trkpt lat="44.2871848" lon="9.6648822"><ele>216.66666666666669</ele><time>2026-03-22T08:48:42.207Z</time></trkpt><trkpt lat="44.2873656" lon="9.6649424"><ele>217.33333333333334</ele><time>2026-03-22T08:48:43.207Z</time></trkpt><trkpt lat="44.2875462" lon="9.6649863"><ele>218.0</ele><time>2026-03-22T08:48:44.206Z</time></trkpt><trkpt lat="44.287724" lon="9.6650197"><ele>218.0</ele><time>2026-03-22T08:48:45.206Z</time></trkpt><trkpt lat="44.2879031" lon="9.665045"><ele>218.0</ele><time>2026-03-22T08:48:46.206Z</time></trkpt><trkpt lat="44.2880844" lon="9.6650683"><ele>218.0</ele><time>2026-03-22T08:48:47.206Z</time></trkpt><trkpt lat="44.2882647" lon="9.6650905"><ele>219.0</ele><time>2026-03-22T08:48:48.207Z</time></trkpt><trkpt lat="44.288441" lon="9.6651115"><ele>220.0</ele><time>2026-03-22T08:48:49.207Z</time></trkpt><trkpt lat="44.2886184" lon="9.665128"><ele>221.0</ele><time>2026-03-22T08:48:50.206Z</time></trkpt><trkpt lat="44.2887958" lon="9.6651428"><ele>222.0</ele><time>2026-03-22T08:48:51.206Z</time></trkpt><trkpt lat="44.2889738" lon="9.6651527"><ele>223.0</ele><time>2026-03-22T08:48:52.206Z</time></trkpt><trkpt lat="44.2891536" lon="9.6651646"><ele>224.0</ele><time>2026-03-22T08:48:53.206Z</time></trkpt><trkpt lat="44.289333" lon="9.665174"><ele>224.0</ele><time>2026-03-22T08:48:54.207Z</time></trkpt><trkpt lat="44.289512" lon="9.6651841"><ele>224.0</ele><time>2026-03-22T08:48:55.206Z</time></trkpt><trkpt lat="44.2896975" lon="9.6652056"><ele>224.0</ele><time>2026-03-22T08:48:56.206Z</time></trkpt><trkpt lat="44.2898808" lon="9.6652301"><ele>225.33333333333334</ele><time>2026-03-22T08:48:57.206Z</time></trkpt><trkpt lat="44.2900625" lon="9.6652377"><ele>226.66666666666669</ele><time>2026-03-22T08:48:58.207Z</time></trkpt><trkpt lat="44.2902446" lon="9.6652469"><ele>228.0</ele><time>2026-03-22T08:48:59.207Z</time></trkpt><trkpt lat="44.2904263" lon="9.6652587"><ele>228.0</ele><time>2026-03-22T08:49:00.206Z</time></trkpt><trkpt lat="44.2906055" lon="9.6652635"><ele>228.0</ele><time>2026-03-22T08:49:01.206Z</time></trkpt><trkpt lat="44.2907808" lon="9.6652702"><ele>228.0</ele><time>2026-03-22T08:49:02.207Z</time></trkpt><trkpt lat="44.290958" lon="9.6652776"><ele>229.33333333333331</ele><time>2026-03-22T08:49:03.206Z</time></trkpt><trkpt lat="44.2911329" lon="9.6652886"><ele>230.66666666666666</ele><time>2026-03-22T08:49:04.206Z</time></trkpt><trkpt lat="44.2913047" lon="9.6652983"><ele>232.0</ele><time>2026-03-22T08:49:05.206Z</time></trkpt><trkpt lat="44.2914769" lon="9.6653049"><ele>233.66666666666666</ele><time>2026-03-22T08:49:06.206Z</time></trkpt><trkpt lat="44.2916485" lon="9.6653071"><ele>235.33333333333331</ele><time>2026-03-22T08:49:07.206Z</time></trkpt><trkpt lat="44.2918197" lon="9.6652995"><ele>237.0</ele><time>2026-03-22T08:49:08.207Z</time></trkpt><trkpt lat="44.2919889" lon="9.6652894"><ele>235.33333333333331</ele><time>2026-03-22T08:49:09.205Z</time></trkpt><trkpt lat="44.2921596" lon="9.6652649"><ele>233.66666666666666</ele><time>2026-03-22T08:49:10.206Z</time></trkpt><trkpt lat="44.2923301" lon="9.6652386"><ele>232.0</ele><time>2026-03-22T08:49:11.206Z</time></trkpt><trkpt lat="44.2925018" lon="9.6652034"><ele>232.0</ele><time>2026-03-22T08:49:12.206Z</time></trkpt><trkpt lat="44.2926674" lon="9.6651617"><ele>232.0</ele><time>2026-03-22T08:49:13.206Z</time></trkpt><trkpt lat="44.2928358" lon="9.6651094"><ele>232.0</ele><time>2026-03-22T08:49:14.207Z</time></trkpt><trkpt lat="44.2930011" lon="9.6650549"><ele>234.33333333333331</ele><time>2026-03-22T08:49:15.207Z</time></trkpt><trkpt lat="44.2931691" lon="9.6650064"><ele>236.66666666666669</ele><time>2026-03-22T08:49:16.206Z</time></trkpt><trkpt lat="44.2933353" lon="9.6649551"><ele>239.0</ele><time>2026-03-22T08:49:17.206Z</time></trkpt><trkpt lat="44.2935079" lon="9.6649018"><ele>239.0</ele><time>2026-03-22T08:49:18.206Z</time></trkpt><trkpt lat="44.2936861" lon="9.6648452"><ele>239.0</ele><time>2026-03-22T08:49:19.206Z</time></trkpt><trkpt lat="44.2938613" lon="9.6647899"><ele>239.0</ele><time>2026-03-22T08:49:20.207Z</time></trkpt><trkpt lat="44.2940367" lon="9.664733"><ele>239.66666666666669</ele><time>2026-03-22T08:49:21.207Z</time></trkpt><trkpt lat="44.2942059" lon="9.6646709"><ele>240.33333333333331</ele><time>2026-03-22T08:49:22.207Z</time></trkpt><trkpt lat="44.2943721" lon="9.6646193"><ele>241.0</ele><time>2026-03-22T08:49:23.206Z</time></trkpt><trkpt lat="44.2945366" lon="9.6645677"><ele>241.0</ele><time>2026-03-22T08:49:24.206Z</time></trkpt><trkpt lat="44.2946999" lon="9.6645123"><ele>241.0</ele><time>2026-03-22T08:49:25.207Z</time></trkpt><trkpt lat="44.294864" lon="9.6644564"><ele>241.0</ele><time>2026-03-22T08:49:26.207Z</time></trkpt><trkpt lat="44.2950271" lon="9.664402"><ele>243.33333333333331</ele><time>2026-03-22T08:49:27.206Z</time></trkpt><trkpt lat="44.2951916" lon="9.6643468"><ele>245.66666666666669</ele><time>2026-03-22T08:49:28.206Z</time></trkpt><trkpt lat="44.2953569" lon="9.6642886"><ele>248.0</ele><time>2026-03-22T08:49:29.206Z</time></trkpt><trkpt lat="44.2955225" lon="9.6642266"><ele>251.33333333333334</ele><time>2026-03-22T08:49:30.206Z</time></trkpt><trkpt lat="44.295686" lon="9.6641702"><ele>254.66666666666669</ele><time>2026-03-22T08:49:31.206Z</time></trkpt><trkpt lat="44.2958563" lon="9.6641002"><ele>258.0</ele><time>2026-03-22T08:49:32.206Z</time></trkpt><trkpt lat="44.2960253" lon="9.6639863"><ele>258.0</ele><time>2026-03-22T08:49:33.206Z</time></trkpt><trkpt lat="44.2961942" lon="9.6638764"><ele>258.0</ele><time>2026-03-22T08:49:34.206Z</time></trkpt><trkpt lat="44.296319" lon="9.6636945"><ele>258.0</ele><time>2026-03-22T08:49:35.206Z</time></trkpt><trkpt lat="44.2964484" lon="9.6635302"><ele>259.0</ele><time>2026-03-22T08:49:36.207Z</time></trkpt><trkpt lat="44.2965722" lon="9.6633609"><ele>260.0</ele><time>2026-03-22T08:49:37.207Z</time></trkpt><trkpt lat="44.2966759" lon="9.663173"><ele>261.0</ele><time>2026-03-22T08:49:38.207Z</time></trkpt><trkpt lat="44.2967683" lon="9.6629708"><ele>264.6666666666667</ele><time>2026-03-22T08:49:39.206Z</time></trkpt><trkpt lat="44.29682" lon="9.662733"><ele>268.33333333333337</ele><time>2026-03-22T08:49:40.207Z</time></trkpt><trkpt lat="44.2968977" lon="9.6625196"><ele>272.0</ele><time>2026-03-22T08:49:41.206Z</time></trkpt><trkpt lat="44.2969696" lon="9.662296"><ele>244.0</ele><time>2026-03-22T08:49:42.206Z</time></trkpt><trkpt lat="44.2991591" lon="9.6529906"><ele>243.0</ele><time>2026-03-22T08:50:19.206Z</time></trkpt><trkpt lat="44.299188" lon="9.6527322"><ele>242.0</ele><time>2026-03-22T08:50:20.206Z</time></trkpt><trkpt lat="44.2992189" lon="9.652472"><ele>241.0</ele><time>2026-03-22T08:50:21.207Z</time></trkpt><trkpt lat="44.2992374" lon="9.652217"><ele>241.0</ele><time>2026-03-22T08:50:22.206Z</time></trkpt><trkpt lat="44.2992623" lon="9.651963"><ele>241.0</ele><time>2026-03-22T08:50:23.206Z</time></trkpt><trkpt lat="44.2992665" lon="9.6517016"><ele>241.0</ele><time>2026-03-22T08:50:24.207Z</time></trkpt><trkpt lat="44.2992783" lon="9.6514394"><ele>241.0</ele><time>2026-03-22T08:50:25.207Z</time></trkpt><trkpt lat="44.2992886" lon="9.6511678"><ele>241.0</ele><time>2026-03-22T08:50:26.206Z</time></trkpt><trkpt lat="44.2992905" lon="9.6508906"><ele>241.0</ele><time>2026-03-22T08:50:27.207Z</time></trkpt><trkpt lat="44.2992916" lon="9.6506109"><ele>241.0</ele><time>2026-03-22T08:50:28.207Z</time></trkpt><trkpt lat="44.2992899" lon="9.6503306"><ele>241.0</ele><time>2026-03-22T08:50:29.206Z</time></trkpt><trkpt lat="44.2992924" lon="9.6500528"><ele>241.0</ele><time>2026-03-22T08:50:30.206Z</time></trkpt><trkpt lat="44.2992914" lon="9.6497811"><ele>239.66666666666666</ele><time>2026-03-22T08:50:31.206Z</time></trkpt><trkpt lat="44.2992935" lon="9.6495064"><ele>238.33333333333331</ele><time>2026-03-22T08:50:32.207Z</time></trkpt><trkpt lat="44.2992973" lon="9.6492276"><ele>237.0</ele><time>2026-03-22T08:50:33.206Z</time></trkpt><trkpt lat="44.299305" lon="9.6489506"><ele>235.66666666666669</ele><time>2026-03-22T08:50:34.206Z</time></trkpt><trkpt lat="44.2993083" lon="9.6486745"><ele>234.33333333333334</ele><time>2026-03-22T08:50:35.206Z</time></trkpt><trkpt lat="44.2993126" lon="9.6484032"><ele>233.0</ele><time>2026-03-22T08:50:36.207Z</time></trkpt><trkpt lat="44.2993147" lon="9.6481371"><ele>233.0</ele><time>2026-03-22T08:50:37.206Z</time></trkpt><trkpt lat="44.2993158" lon="9.6478869"><ele>233.0</ele><time>2026-03-22T08:50:38.206Z</time></trkpt><trkpt lat="44.2993182" lon="9.6476385"><ele>233.0</ele><time>2026-03-22T08:50:39.206Z</time></trkpt><trkpt lat="44.2993183" lon="9.6473991"><ele>234.0</ele><time>2026-03-22T08:50:40.206Z</time></trkpt><trkpt lat="44.2993215" lon="9.6471586"><ele>235.0</ele><time>2026-03-22T08:50:41.207Z</time></trkpt><trkpt lat="44.2993294" lon="9.6469158"><ele>236.0</ele><time>2026-03-22T08:50:42.206Z</time></trkpt><trkpt lat="44.299347" lon="9.6466661"><ele>236.0</ele><time>2026-03-22T08:50:43.206Z</time></trkpt><trkpt lat="44.2993765" lon="9.6464133"><ele>236.0</ele><time>2026-03-22T08:50:44.206Z</time></trkpt><trkpt lat="44.2994123" lon="9.6461578"><ele>236.0</ele><time>2026-03-22T08:50:45.207Z</time></trkpt><trkpt lat="44.2994545" lon="9.6458977"><ele>235.0</ele><time>2026-03-22T08:50:46.206Z</time></trkpt><trkpt lat="44.2994957" lon="9.6456369"><ele>234.0</ele><time>2026-03-22T08:50:47.207Z</time></trkpt><trkpt lat="44.2995403" lon="9.645378"><ele>233.0</ele><time>2026-03-22T08:50:48.207Z</time></trkpt><trkpt lat="44.2995874" lon="9.6451301"><ele>231.66666666666669</ele><time>2026-03-22T08:50:49.206Z</time></trkpt><trkpt lat="44.2996391" lon="9.644895"><ele>230.33333333333331</ele><time>2026-03-22T08:50:50.206Z</time></trkpt><trkpt lat="44.2997002" lon="9.6446632"><ele>229.0</ele><time>2026-03-22T08:50:51.206Z</time></trkpt><trkpt lat="44.299775" lon="9.6444428"><ele>237.33333333333331</ele><time>2026-03-22T08:50:52.206Z</time></trkpt><trkpt lat="44.2998515" lon="9.6442306"><ele>245.66666666666669</ele><time>2026-03-22T08:50:53.207Z</time></trkpt><trkpt lat="44.2999189" lon="9.6440192"><ele>254.0</ele><time>2026-03-22T08:50:54.206Z</time></trkpt><trkpt lat="44.2999689" lon="9.6437947"><ele>250.5</ele><time>2026-03-22T08:50:55.206Z</time></trkpt><trkpt lat="44.3000201" lon="9.6433386"><ele>247.0</ele><time>2026-03-22T08:50:57.207Z</time></trkpt><trkpt lat="44.3000178" lon="9.6430958"><ele>247.0</ele><time>2026-03-22T08:50:58.207Z</time></trkpt><trkpt lat="44.3000547" lon="9.6428127"><ele>247.0</ele><time>2026-03-22T08:50:59.206Z</time></trkpt><trkpt lat="44.2999919" lon="9.6425556"><ele>247.0</ele><time>2026-03-22T08:51:00.207Z</time></trkpt><trkpt lat="44.2999866" lon="9.6422962"><ele>247.33333333333331</ele><time>2026-03-22T08:51:01.207Z</time></trkpt><trkpt lat="44.3000002" lon="9.6420332"><ele>247.66666666666669</ele><time>2026-03-22T08:51:02.207Z</time></trkpt><trkpt lat="44.3000516" lon="9.6417732"><ele>248.0</ele><time>2026-03-22T08:51:03.207Z</time></trkpt><trkpt lat="44.3001285" lon="9.6415236"><ele>247.0</ele><time>2026-03-22T08:51:04.207Z</time></trkpt><trkpt lat="44.3002368" lon="9.6413092"><ele>246.0</ele><time>2026-03-22T08:51:05.207Z</time></trkpt><trkpt lat="44.3003774" lon="9.6411124"><ele>245.0</ele><time>2026-03-22T08:51:06.207Z</time></trkpt><trkpt lat="44.3005371" lon="9.640951"><ele>246.33333333333334</ele><time>2026-03-22T08:51:07.206Z</time></trkpt><trkpt lat="44.3007162" lon="9.6408367"><ele>247.66666666666669</ele><time>2026-03-22T08:51:08.206Z</time></trkpt><trkpt lat="44.3008977" lon="9.640714"><ele>249.0</ele><time>2026-03-22T08:51:09.206Z</time></trkpt><trkpt lat="44.3011023" lon="9.6406319"><ele>249.0</ele><time>2026-03-22T08:51:10.206Z</time></trkpt><trkpt lat="44.3012931" lon="9.6405362"><ele>249.0</ele><time>2026-03-22T08:51:11.206Z</time></trkpt><trkpt lat="44.3014884" lon="9.6404373"><ele>249.0</ele><time>2026-03-22T08:51:12.206Z</time></trkpt><trkpt lat="44.3016885" lon="9.6403411"><ele>247.66666666666669</ele><time>2026-03-22T08:51:13.206Z</time></trkpt><trkpt lat="44.301883" lon="9.6402474"><ele>246.33333333333334</ele><time>2026-03-22T08:51:14.206Z</time></trkpt><trkpt lat="44.3020772" lon="9.6401753"><ele>245.0</ele><time>2026-03-22T08:51:15.206Z</time></trkpt><trkpt lat="44.302271" lon="9.6400958"><ele>245.0</ele><time>2026-03-22T08:51:16.206Z</time></trkpt><trkpt lat="44.3024607" lon="9.6400122"><ele>245.0</ele><time>2026-03-22T08:51:17.206Z</time></trkpt><trkpt lat="44.302644" lon="9.6399268"><ele>245.0</ele><time>2026-03-22T08:51:18.207Z</time></trkpt><trkpt lat="44.3028257" lon="9.639842"><ele>245.0</ele><time>2026-03-22T08:51:19.206Z</time></trkpt><trkpt lat="44.303008" lon="9.6397491"><ele>245.0</ele><time>2026-03-22T08:51:20.207Z</time></trkpt><trkpt lat="44.3031874" lon="9.6396412"><ele>245.0</ele><time>2026-03-22T08:51:21.206Z</time></trkpt><trkpt lat="44.3033557" lon="9.6395121"><ele>243.0</ele><time>2026-03-22T08:51:22.206Z</time></trkpt><trkpt lat="44.3035205" lon="9.6393676"><ele>241.0</ele><time>2026-03-22T08:51:23.206Z</time></trkpt><trkpt lat="44.3036756" lon="9.6392031"><ele>239.0</ele><time>2026-03-22T08:51:24.206Z</time></trkpt><trkpt lat="44.3038117" lon="9.6390111"><ele>239.0</ele><time>2026-03-22T08:51:25.206Z</time></trkpt><trkpt lat="44.3039459" lon="9.6388311"><ele>239.0</ele><time>2026-03-22T08:51:26.206Z</time></trkpt><trkpt lat="44.3041071" lon="9.6387068"><ele>239.0</ele><time>2026-03-22T08:51:27.206Z</time></trkpt><trkpt lat="44.304284" lon="9.6385985"><ele>239.0</ele><time>2026-03-22T08:51:28.206Z</time></trkpt><trkpt lat="44.3044674" lon="9.6385277"><ele>239.0</ele><time>2026-03-22T08:51:29.206Z</time></trkpt><trkpt lat="44.304653" lon="9.6384694"><ele>239.0</ele><time>2026-03-22T08:51:30.206Z</time></trkpt><trkpt lat="44.3048476" lon="9.6384124"><ele>238.66666666666669</ele><time>2026-03-22T08:51:31.206Z</time></trkpt><trkpt lat="44.3050354" lon="9.6383841"><ele>238.33333333333331</ele><time>2026-03-22T08:51:32.206Z</time></trkpt><trkpt lat="44.3052199" lon="9.6383457"><ele>238.0</ele><time>2026-03-22T08:51:33.206Z</time></trkpt><trkpt lat="44.3053976" lon="9.6383086"><ele>238.0</ele><time>2026-03-22T08:51:34.206Z</time></trkpt><trkpt lat="44.3055715" lon="9.6382829"><ele>238.0</ele><time>2026-03-22T08:51:35.207Z</time></trkpt><trkpt lat="44.3057454" lon="9.6382714"><ele>238.0</ele><time>2026-03-22T08:51:36.207Z</time></trkpt><trkpt lat="44.3059211" lon="9.6382719"><ele>239.33333333333331</ele><time>2026-03-22T08:51:37.206Z</time></trkpt><trkpt lat="44.3060919" lon="9.6382658"><ele>240.66666666666669</ele><time>2026-03-22T08:51:38.207Z</time></trkpt><trkpt lat="44.3062625" lon="9.6382607"><ele>242.0</ele><time>2026-03-22T08:51:39.207Z</time></trkpt><trkpt lat="44.3064349" lon="9.6382491"><ele>243.66666666666669</ele><time>2026-03-22T08:51:40.207Z</time></trkpt><trkpt lat="44.3066081" lon="9.638229"><ele>245.33333333333331</ele><time>2026-03-22T08:51:41.206Z</time></trkpt><trkpt lat="44.3067776" lon="9.6381809"><ele>247.0</ele><time>2026-03-22T08:51:42.206Z</time></trkpt><trkpt lat="44.3069457" lon="9.6381241"><ele>247.0</ele><time>2026-03-22T08:51:43.206Z</time></trkpt><trkpt lat="44.3071082" lon="9.6380613"><ele>247.0</ele><time>2026-03-22T08:51:44.207Z</time></trkpt><trkpt lat="44.3072661" lon="9.6379835"><ele>247.0</ele><time>2026-03-22T08:51:45.207Z</time></trkpt><trkpt lat="44.307415" lon="9.6379012"><ele>246.33333333333331</ele><time>2026-03-22T08:51:46.206Z</time></trkpt><trkpt lat="44.3075588" lon="9.6378171"><ele>245.66666666666669</ele><time>2026-03-22T08:51:47.206Z</time></trkpt><trkpt lat="44.3077053" lon="9.6377283"><ele>245.0</ele><time>2026-03-22T08:51:48.207Z</time></trkpt><trkpt lat="44.3078463" lon="9.6376339"><ele>245.0</ele><time>2026-03-22T08:51:49.206Z</time></trkpt><trkpt lat="44.3079906" lon="9.6375315"><ele>245.0</ele><time>2026-03-22T08:51:50.206Z</time></trkpt><trkpt lat="44.3081374" lon="9.6374341"><ele>245.0</ele><time>2026-03-22T08:51:51.206Z</time></trkpt><trkpt lat="44.308289" lon="9.6373385"><ele>248.0</ele><time>2026-03-22T08:51:52.206Z</time></trkpt><trkpt lat="44.3084375" lon="9.6372406"><ele>251.0</ele><time>2026-03-22T08:51:53.207Z</time></trkpt><trkpt lat="44.3085885" lon="9.6371464"><ele>254.0</ele><time>2026-03-22T08:51:54.207Z</time></trkpt><trkpt lat="44.3087475" lon="9.637047"><ele>254.66666666666669</ele><time>2026-03-22T08:51:55.206Z</time></trkpt><trkpt lat="44.3089054" lon="9.6369495"><ele>255.33333333333331</ele><time>2026-03-22T08:51:56.206Z</time></trkpt><trkpt lat="44.309059" lon="9.6368466"><ele>256.0</ele><time>2026-03-22T08:51:57.207Z</time></trkpt><trkpt lat="44.309211" lon="9.6367339"><ele>256.0</ele><time>2026-03-22T08:51:58.206Z</time></trkpt><trkpt lat="44.3093518" lon="9.6366042"><ele>256.0</ele><time>2026-03-22T08:51:59.206Z</time></trkpt><trkpt lat="44.3094882" lon="9.636464"><ele>256.0</ele><time>2026-03-22T08:52:00.206Z</time></trkpt><trkpt lat="44.309616" lon="9.6363163"><ele>256.0</ele><time>2026-03-22T08:52:01.206Z</time></trkpt><trkpt lat="44.3097363" lon="9.6361582"><ele>256.0</ele><time>2026-03-22T08:52:02.206Z</time></trkpt><trkpt lat="44.3098451" lon="9.6359808"><ele>256.0</ele><time>2026-03-22T08:52:03.206Z</time></trkpt><trkpt lat="44.3099441" lon="9.6357872"><ele>257.0</ele><time>2026-03-22T08:52:04.207Z</time></trkpt><trkpt lat="44.3100496" lon="9.6355916"><ele>258.0</ele><time>2026-03-22T08:52:05.206Z</time></trkpt><trkpt lat="44.3101535" lon="9.6353992"><ele>259.0</ele><time>2026-03-22T08:52:06.206Z</time></trkpt><trkpt lat="44.3102654" lon="9.6352082"><ele>256.0</ele><time>2026-03-22T08:52:07.206Z</time></trkpt><trkpt lat="44.3103855" lon="9.635023"><ele>253.0</ele><time>2026-03-22T08:52:08.206Z</time></trkpt><trkpt lat="44.3104955" lon="9.6348348"><ele>250.0</ele><time>2026-03-22T08:52:09.206Z</time></trkpt><trkpt lat="44.3105929" lon="9.6346287"><ele>254.0</ele><time>2026-03-22T08:52:10.206Z</time></trkpt><trkpt lat="44.3106733" lon="9.6344127"><ele>258.0</ele><time>2026-03-22T08:52:11.206Z</time></trkpt><trkpt lat="44.310741" lon="9.634191"><ele>262.0</ele><time>2026-03-22T08:52:12.207Z</time></trkpt><trkpt lat="44.3108042" lon="9.6339749"><ele>262.0</ele><time>2026-03-22T08:52:13.207Z</time></trkpt><trkpt lat="44.3108785" lon="9.6337757"><ele>262.0</ele><time>2026-03-22T08:52:14.206Z</time></trkpt><trkpt lat="44.3109674" lon="9.6335951"><ele>262.0</ele><time>2026-03-22T08:52:15.206Z</time></trkpt><trkpt lat="44.3110714" lon="9.6334297"><ele>259.3333333333333</ele><time>2026-03-22T08:52:16.207Z</time></trkpt><trkpt lat="44.3111879" lon="9.6332799"><ele>256.6666666666667</ele><time>2026-03-22T08:52:17.207Z</time></trkpt><trkpt lat="44.311312" lon="9.6331395"><ele>254.0</ele><time>2026-03-22T08:52:18.207Z</time></trkpt><trkpt lat="44.3114475" lon="9.6330075"><ele>256.33333333333337</ele><time>2026-03-22T08:52:19.207Z</time></trkpt><trkpt lat="44.3115797" lon="9.6328663"><ele>258.6666666666667</ele><time>2026-03-22T08:52:20.207Z</time></trkpt><trkpt lat="44.3117159" lon="9.6327296"><ele>261.0</ele><time>2026-03-22T08:52:21.207Z</time></trkpt><trkpt lat="44.3118346" lon="9.6325731"><ele>261.0</ele><time>2026-03-22T08:52:22.206Z</time></trkpt><trkpt lat="44.3119162" lon="9.63228"><ele>261.0</ele><time>2026-03-22T08:52:23.206Z</time></trkpt><trkpt lat="44.3120182" lon="9.6320686"><ele>261.0</ele><time>2026-03-22T08:52:24.206Z</time></trkpt><trkpt lat="44.3121136" lon="9.6318496"><ele>258.3333333333333</ele><time>2026-03-22T08:52:25.206Z</time></trkpt><trkpt lat="44.3122182" lon="9.6316284"><ele>255.66666666666666</ele><time>2026-03-22T08:52:26.206Z</time></trkpt><trkpt lat="44.3123452" lon="9.6314428"><ele>253.0</ele><time>2026-03-22T08:52:27.206Z</time></trkpt><trkpt lat="44.3124855" lon="9.6312963"><ele>255.33333333333331</ele><time>2026-03-22T08:52:28.206Z</time></trkpt><trkpt lat="44.3126319" lon="9.6311502"><ele>257.6666666666667</ele><time>2026-03-22T08:52:29.207Z</time></trkpt><trkpt lat="44.3127767" lon="9.6310128"><ele>260.0</ele><time>2026-03-22T08:52:30.207Z</time></trkpt><trkpt lat="44.3129182" lon="9.6308699"><ele>260.0</ele><time>2026-03-22T08:52:31.206Z</time></trkpt><trkpt lat="44.3130485" lon="9.6307149"><ele>260.0</ele><time>2026-03-22T08:52:32.206Z</time></trkpt><trkpt lat="44.3131729" lon="9.6305473"><ele>260.0</ele><time>2026-03-22T08:52:33.207Z</time></trkpt><trkpt lat="44.313285" lon="9.630368"><ele>262.6666666666667</ele><time>2026-03-22T08:52:34.207Z</time></trkpt><trkpt lat="44.3133895" lon="9.6301787"><ele>265.3333333333333</ele><time>2026-03-22T08:52:35.206Z</time></trkpt><trkpt lat="44.3134939" lon="9.6299962"><ele>268.0</ele><time>2026-03-22T08:52:36.206Z</time></trkpt><trkpt lat="44.3135916" lon="9.6298092"><ele>268.0</ele><time>2026-03-22T08:52:37.206Z</time></trkpt><trkpt lat="44.3136904" lon="9.6296212"><ele>268.0</ele><time>2026-03-22T08:52:38.207Z</time></trkpt><trkpt lat="44.3137859" lon="9.6294311"><ele>268.0</ele><time>2026-03-22T08:52:39.207Z</time></trkpt><trkpt lat="44.3138761" lon="9.6292355"><ele>269.66666666666663</ele><time>2026-03-22T08:52:40.207Z</time></trkpt><trkpt lat="44.3139588" lon="9.6290367"><ele>271.3333333333333</ele><time>2026-03-22T08:52:41.206Z</time></trkpt><trkpt lat="44.314027" lon="9.6288281"><ele>273.0</ele><time>2026-03-22T08:52:42.206Z</time></trkpt><trkpt lat="44.314085" lon="9.628609"><ele>273.0</ele><time>2026-03-22T08:52:43.206Z</time></trkpt><trkpt lat="44.3141365" lon="9.6283847"><ele>273.0</ele><time>2026-03-22T08:52:44.206Z</time></trkpt><trkpt lat="44.3141863" lon="9.6281605"><ele>273.0</ele><time>2026-03-22T08:52:45.206Z</time></trkpt><trkpt lat="44.3142369" lon="9.6279379"><ele>271.6666666666667</ele><time>2026-03-22T08:52:46.207Z</time></trkpt><trkpt lat="44.3142906" lon="9.6277142"><ele>270.33333333333337</ele><time>2026-03-22T08:52:47.207Z</time></trkpt><trkpt lat="44.3143533" lon="9.6274859"><ele>269.0</ele><time>2026-03-22T08:52:48.207Z</time></trkpt><trkpt lat="44.314434" lon="9.6272626"><ele>269.0</ele><time>2026-03-22T08:52:49.207Z</time></trkpt><trkpt lat="44.3145322" lon="9.6270477"><ele>269.0</ele><time>2026-03-22T08:52:50.207Z</time></trkpt><trkpt lat="44.3146388" lon="9.6268432"><ele>269.0</ele><time>2026-03-22T08:52:51.207Z</time></trkpt><trkpt lat="44.3147585" lon="9.6266493"><ele>270.0</ele><time>2026-03-22T08:52:52.207Z</time></trkpt><trkpt lat="44.3148881" lon="9.6264677"><ele>271.0</ele><time>2026-03-22T08:52:53.207Z</time></trkpt><trkpt lat="44.3150194" lon="9.6262995"><ele>272.0</ele><time>2026-03-22T08:52:54.207Z</time></trkpt><trkpt lat="44.3151554" lon="9.6261318"><ele>272.0</ele><time>2026-03-22T08:52:55.206Z</time></trkpt><trkpt lat="44.3152962" lon="9.6259753"><ele>272.0</ele><time>2026-03-22T08:52:56.206Z</time></trkpt><trkpt lat="44.315434" lon="9.6258213"><ele>272.0</ele><time>2026-03-22T08:52:57.206Z</time></trkpt><trkpt lat="44.3155617" lon="9.6256517"><ele>272.6666666666667</ele><time>2026-03-22T08:52:58.206Z</time></trkpt><trkpt lat="44.3156748" lon="9.6254581"><ele>273.3333333333333</ele><time>2026-03-22T08:52:59.206Z</time></trkpt><trkpt lat="44.3157754" lon="9.6252484"><ele>274.0</ele><time>2026-03-22T08:53:00.207Z</time></trkpt><trkpt lat="44.315867" lon="9.6250342"><ele>274.0</ele><time>2026-03-22T08:53:01.207Z</time></trkpt><trkpt lat="44.3159556" lon="9.6248161"><ele>274.0</ele><time>2026-03-22T08:53:02.207Z</time></trkpt><trkpt lat="44.316039" lon="9.6245924"><ele>274.0</ele><time>2026-03-22T08:53:03.206Z</time></trkpt><trkpt lat="44.3161032" lon="9.6243662"><ele>273.3333333333333</ele><time>2026-03-22T08:53:04.206Z</time></trkpt><trkpt lat="44.3161581" lon="9.6241303"><ele>272.6666666666667</ele><time>2026-03-22T08:53:05.206Z</time></trkpt><trkpt lat="44.3162164" lon="9.6238916"><ele>272.0</ele><time>2026-03-22T08:53:06.206Z</time></trkpt><trkpt lat="44.3162759" lon="9.6236551"><ele>271.6666666666667</ele><time>2026-03-22T08:53:07.206Z</time></trkpt><trkpt lat="44.3163429" lon="9.6234208"><ele>271.3333333333333</ele><time>2026-03-22T08:53:08.207Z</time></trkpt><trkpt lat="44.3164239" lon="9.6231917"><ele>271.0</ele><time>2026-03-22T08:53:09.206Z</time></trkpt><trkpt lat="44.3165136" lon="9.6229646"><ele>273.66666666666663</ele><time>2026-03-22T08:53:10.206Z</time></trkpt><trkpt lat="44.3166058" lon="9.6227439"><ele>276.3333333333333</ele><time>2026-03-22T08:53:11.206Z</time></trkpt><trkpt lat="44.3167014" lon="9.6225237"><ele>279.0</ele><time>2026-03-22T08:53:12.206Z</time></trkpt><trkpt lat="44.3167935" lon="9.6223114"><ele>279.0</ele><time>2026-03-22T08:53:13.206Z</time></trkpt><trkpt lat="44.316878" lon="9.6221039"><ele>279.0</ele><time>2026-03-22T08:53:14.207Z</time></trkpt><trkpt lat="44.3169688" lon="9.621906"><ele>279.0</ele><time>2026-03-22T08:53:15.207Z</time></trkpt><trkpt lat="44.3170695" lon="9.6217145"><ele>275.0</ele><time>2026-03-22T08:53:16.207Z</time></trkpt><trkpt lat="44.3171862" lon="9.6215282"><ele>271.0</ele><time>2026-03-22T08:53:17.206Z</time></trkpt><trkpt lat="44.3173162" lon="9.6213624"><ele>267.0</ele><time>2026-03-22T08:53:18.206Z</time></trkpt><trkpt lat="44.3174635" lon="9.6212183"><ele>268.0</ele><time>2026-03-22T08:53:19.206Z</time></trkpt><trkpt lat="44.3176231" lon="9.6210967"><ele>269.0</ele><time>2026-03-22T08:53:20.207Z</time></trkpt><trkpt lat="44.3177925" lon="9.6209864"><ele>270.0</ele><time>2026-03-22T08:53:21.206Z</time></trkpt><trkpt lat="44.3179489" lon="9.6208659"><ele>279.3333333333333</ele><time>2026-03-22T08:53:22.207Z</time></trkpt><trkpt lat="44.3181075" lon="9.6207499"><ele>288.66666666666663</ele><time>2026-03-22T08:53:23.207Z</time></trkpt><trkpt lat="44.3182658" lon="9.6206331"><ele>298.0</ele><time>2026-03-22T08:53:24.206Z</time></trkpt><trkpt lat="44.3184159" lon="9.6205137"><ele>298.0</ele><time>2026-03-22T08:53:25.206Z</time></trkpt><trkpt lat="44.3185602" lon="9.6203867"><ele>298.0</ele><time>2026-03-22T08:53:26.206Z</time></trkpt><trkpt lat="44.3186932" lon="9.6202296"><ele>298.0</ele><time>2026-03-22T08:53:27.206Z</time></trkpt><trkpt lat="44.3188394" lon="9.6200946"><ele>294.3333333333333</ele><time>2026-03-22T08:53:28.207Z</time></trkpt><trkpt lat="44.3189955" lon="9.6199637"><ele>290.6666666666667</ele><time>2026-03-22T08:53:29.207Z</time></trkpt><trkpt lat="44.3191566" lon="9.6198438"><ele>287.0</ele><time>2026-03-22T08:53:30.207Z</time></trkpt><trkpt lat="44.3193119" lon="9.6197316"><ele>287.0</ele><time>2026-03-22T08:53:31.206Z</time></trkpt><trkpt lat="44.3194652" lon="9.6196264"><ele>287.0</ele><time>2026-03-22T08:53:32.206Z</time></trkpt><trkpt lat="44.319613" lon="9.6195191"><ele>287.0</ele><time>2026-03-22T08:53:33.206Z</time></trkpt><trkpt lat="44.3197598" lon="9.6194105"><ele>283.6666666666667</ele><time>2026-03-22T08:53:34.206Z</time></trkpt><trkpt lat="44.3199137" lon="9.6193109"><ele>280.3333333333333</ele><time>2026-03-22T08:53:35.207Z</time></trkpt><trkpt lat="44.3200768" lon="9.6192275"><ele>277.0</ele><time>2026-03-22T08:53:36.207Z</time></trkpt><trkpt lat="44.3202514" lon="9.6191775"><ele>277.0</ele><time>2026-03-22T08:53:37.207Z</time></trkpt><trkpt lat="44.3204232" lon="9.6191295"><ele>277.0</ele><time>2026-03-22T08:53:38.207Z</time></trkpt><trkpt lat="44.3205802" lon="9.6190432"><ele>277.0</ele><time>2026-03-22T08:53:39.207Z</time></trkpt><trkpt lat="44.3207329" lon="9.6189153"><ele>272.66666666666663</ele><time>2026-03-22T08:53:40.207Z</time></trkpt><trkpt lat="44.3208797" lon="9.6187819"><ele>268.3333333333333</ele><time>2026-03-22T08:53:41.207Z</time></trkpt><trkpt lat="44.3210393" lon="9.6186224"><ele>264.0</ele><time>2026-03-22T08:53:42.206Z</time></trkpt><trkpt lat="44.3211878" lon="9.6184655"><ele>264.0</ele><time>2026-03-22T08:53:43.207Z</time></trkpt><trkpt lat="44.3213405" lon="9.6183297"><ele>264.0</ele><time>2026-03-22T08:53:44.206Z</time></trkpt><trkpt lat="44.321489" lon="9.6181924"><ele>264.0</ele><time>2026-03-22T08:53:45.207Z</time></trkpt><trkpt lat="44.3216457" lon="9.6180796"><ele>262.6666666666667</ele><time>2026-03-22T08:53:46.207Z</time></trkpt><trkpt lat="44.3218152" lon="9.6179941"><ele>261.33333333333337</ele><time>2026-03-22T08:53:47.206Z</time></trkpt><trkpt lat="44.3219815" lon="9.6179029"><ele>260.0</ele><time>2026-03-22T08:53:48.206Z</time></trkpt><trkpt lat="44.3221472" lon="9.6178018"><ele>263.6666666666667</ele><time>2026-03-22T08:53:49.206Z</time></trkpt><trkpt lat="44.3223024" lon="9.6176669"><ele>267.3333333333333</ele><time>2026-03-22T08:53:50.206Z</time></trkpt><trkpt lat="44.3224556" lon="9.6175063"><ele>271.0</ele><time>2026-03-22T08:53:51.206Z</time></trkpt><trkpt lat="44.3226216" lon="9.6173744"><ele>271.0</ele><time>2026-03-22T08:53:52.206Z</time></trkpt><trkpt lat="44.3227889" lon="9.6172748"><ele>271.0</ele><time>2026-03-22T08:53:53.206Z</time></trkpt><trkpt lat="44.3229668" lon="9.6171981"><ele>271.0</ele><time>2026-03-22T08:53:54.207Z</time></trkpt><trkpt lat="44.323131" lon="9.6171045"><ele>270.66666666666663</ele><time>2026-03-22T08:53:55.206Z</time></trkpt><trkpt lat="44.3232873" lon="9.6169919"><ele>270.3333333333333</ele><time>2026-03-22T08:53:56.206Z</time></trkpt><trkpt lat="44.3234233" lon="9.6168682"><ele>270.0</ele><time>2026-03-22T08:53:57.206Z</time></trkpt><trkpt lat="44.3235371" lon="9.6167362"><ele>270.0</ele><time>2026-03-22T08:53:58.206Z</time></trkpt><trkpt lat="44.323644" lon="9.6166055"><ele>270.0</ele><time>2026-03-22T08:53:59.206Z</time></trkpt><trkpt lat="44.3237385" lon="9.6164678"><ele>270.0</ele><time>2026-03-22T08:54:00.207Z</time></trkpt><trkpt lat="44.3238107" lon="9.6163261"><ele>270.0</ele><time>2026-03-22T08:54:01.207Z</time></trkpt><trkpt lat="44.3238275" lon="9.6161948"><ele>266.6666666666667</ele><time>2026-03-22T08:54:02.207Z</time></trkpt><trkpt lat="44.3238237" lon="9.6160325"><ele>263.33333333333337</ele><time>2026-03-22T08:54:03.207Z</time></trkpt><trkpt lat="44.3237201" lon="9.615825"><ele>260.0</ele><time>2026-03-22T08:54:04.207Z</time></trkpt><trkpt lat="44.3236375" lon="9.6156259"><ele>260.0</ele><time>2026-03-22T08:54:05.207Z</time></trkpt><trkpt lat="44.3235448" lon="9.6154172"><ele>260.0</ele><time>2026-03-22T08:54:06.206Z</time></trkpt><trkpt lat="44.3234648" lon="9.6151997"><ele>260.0</ele><time>2026-03-22T08:54:07.206Z</time></trkpt><trkpt lat="44.3233764" lon="9.6149818"><ele>260.0</ele><time>2026-03-22T08:54:08.207Z</time></trkpt><trkpt lat="44.3232945" lon="9.6147772"><ele>260.0</ele><time>2026-03-22T08:54:09.207Z</time></trkpt><trkpt lat="44.3232114" lon="9.6145811"><ele>260.0</ele><time>2026-03-22T08:54:10.207Z</time></trkpt><trkpt lat="44.3231369" lon="9.6143941"><ele>260.75</ele><time>2026-03-22T08:54:11.207Z</time></trkpt><trkpt lat="44.3230781" lon="9.6142074"><ele>261.5</ele><time>2026-03-22T08:54:12.207Z</time></trkpt><trkpt lat="44.3230513" lon="9.6140138"><ele>262.25</ele><time>2026-03-22T08:54:13.206Z</time></trkpt><trkpt lat="44.3230644" lon="9.6138145"><ele>263.0</ele><time>2026-03-22T08:54:14.206Z</time></trkpt><trkpt lat="44.3231193" lon="9.6136107"><ele>268.33333333333337</ele><time>2026-03-22T08:54:15.206Z</time></trkpt><trkpt lat="44.3232085" lon="9.6134125"><ele>273.6666666666667</ele><time>2026-03-22T08:54:16.206Z</time></trkpt><trkpt lat="44.3233317" lon="9.6132149"><ele>279.0</ele><time>2026-03-22T08:54:17.206Z</time></trkpt><trkpt lat="44.3234606" lon="9.6130214"><ele>287.6666666666667</ele><time>2026-03-22T08:54:18.206Z</time></trkpt><trkpt lat="44.3235954" lon="9.6128218"><ele>296.33333333333337</ele><time>2026-03-22T08:54:19.207Z</time></trkpt><trkpt lat="44.3237376" lon="9.6126243"><ele>305.0</ele><time>2026-03-22T08:54:20.206Z</time></trkpt><trkpt lat="44.3238789" lon="9.6124473"><ele>295.6666666666667</ele><time>2026-03-22T08:54:21.206Z</time></trkpt><trkpt lat="44.3240217" lon="9.6122896"><ele>286.3333333333333</ele><time>2026-03-22T08:54:22.207Z</time></trkpt><trkpt lat="44.3241708" lon="9.6121431"><ele>277.0</ele><time>2026-03-22T08:54:23.207Z</time></trkpt><trkpt lat="44.3243164" lon="9.6120049"><ele>276.3333333333333</ele><time>2026-03-22T08:54:24.206Z</time></trkpt><trkpt lat="44.324457" lon="9.6118729"><ele>275.6666666666667</ele><time>2026-03-22T08:54:25.207Z</time></trkpt><trkpt lat="44.3245963" lon="9.6117374"><ele>275.0</ele><time>2026-03-22T08:54:26.207Z</time></trkpt><trkpt lat="44.324731" lon="9.6116085"><ele>275.0</ele><time>2026-03-22T08:54:27.206Z</time></trkpt><trkpt lat="44.3248732" lon="9.6114834"><ele>275.0</ele><time>2026-03-22T08:54:28.206Z</time></trkpt><trkpt lat="44.3250127" lon="9.6113502"><ele>275.0</ele><time>2026-03-22T08:54:29.206Z</time></trkpt><trkpt lat="44.325157" lon="9.6112176"><ele>278.0</ele><time>2026-03-22T08:54:30.206Z</time></trkpt><trkpt lat="44.3253086" lon="9.6110886"><ele>281.0</ele><time>2026-03-22T08:54:31.207Z</time></trkpt><trkpt lat="44.3254599" lon="9.6109831"><ele>284.0</ele><time>2026-03-22T08:54:32.207Z</time></trkpt><trkpt lat="44.3256169" lon="9.6108748"><ele>284.0</ele><time>2026-03-22T08:54:33.206Z</time></trkpt><trkpt lat="44.3257706" lon="9.6107667"><ele>284.0</ele><time>2026-03-22T08:54:34.206Z</time></trkpt><trkpt lat="44.3259061" lon="9.6106339"><ele>284.0</ele><time>2026-03-22T08:54:35.207Z</time></trkpt><trkpt lat="44.3260471" lon="9.610493"><ele>291.33333333333337</ele><time>2026-03-22T08:54:36.208Z</time></trkpt><trkpt lat="44.326171" lon="9.6103159"><ele>298.6666666666667</ele><time>2026-03-22T08:54:37.206Z</time></trkpt><trkpt lat="44.3262893" lon="9.6101359"><ele>306.0</ele><time>2026-03-22T08:54:38.206Z</time></trkpt><trkpt lat="44.3263828" lon="9.6099244"><ele>303.6666666666667</ele><time>2026-03-22T08:54:39.206Z</time></trkpt><trkpt lat="44.3264689" lon="9.6097077"><ele>301.33333333333337</ele><time>2026-03-22T08:54:40.207Z</time></trkpt><trkpt lat="44.3265591" lon="9.6094948"><ele>299.0</ele><time>2026-03-22T08:54:41.207Z</time></trkpt><trkpt lat="44.3266518" lon="9.60928"><ele>299.0</ele><time>2026-03-22T08:54:42.207Z</time></trkpt><trkpt lat="44.3267458" lon="9.609062"><ele>299.0</ele><time>2026-03-22T08:54:43.206Z</time></trkpt><trkpt lat="44.3268345" lon="9.6088444"><ele>299.0</ele><time>2026-03-22T08:54:44.206Z</time></trkpt><trkpt lat="44.3269235" lon="9.6086296"><ele>304.0</ele><time>2026-03-22T08:54:45.206Z</time></trkpt><trkpt lat="44.3269945" lon="9.608411"><ele>309.0</ele><time>2026-03-22T08:54:46.206Z</time></trkpt><trkpt lat="44.3270598" lon="9.6081849"><ele>314.0</ele><time>2026-03-22T08:54:47.206Z</time></trkpt><trkpt lat="44.3270888" lon="9.6079417"><ele>318.6666666666667</ele><time>2026-03-22T08:54:48.206Z</time></trkpt><trkpt lat="44.3271143" lon="9.6077013"><ele>323.3333333333333</ele><time>2026-03-22T08:54:49.207Z</time></trkpt><trkpt lat="44.327141" lon="9.6074567"><ele>328.0</ele><time>2026-03-22T08:54:50.207Z</time></trkpt><trkpt lat="44.327178" lon="9.6072173"><ele>335.0</ele><time>2026-03-22T08:54:51.207Z</time></trkpt><trkpt lat="44.3272237" lon="9.6069813"><ele>342.0</ele><time>2026-03-22T08:54:52.207Z</time></trkpt><trkpt lat="44.3272789" lon="9.6067492"><ele>349.0</ele><time>2026-03-22T08:54:53.206Z</time></trkpt><trkpt lat="44.3273616" lon="9.6065316"><ele>341.3333333333333</ele><time>2026-03-22T08:54:54.206Z</time></trkpt><trkpt lat="44.3274533" lon="9.6063255"><ele>333.6666666666667</ele><time>2026-03-22T08:54:55.206Z</time></trkpt><trkpt lat="44.327553" lon="9.6061404"><ele>326.0</ele><time>2026-03-22T08:54:56.206Z</time></trkpt><trkpt lat="44.3276641" lon="9.6059668"><ele>326.0</ele><time>2026-03-22T08:54:57.207Z</time></trkpt><trkpt lat="44.3277847" lon="9.605798"><ele>326.0</ele><time>2026-03-22T08:54:58.206Z</time></trkpt><trkpt lat="44.3279037" lon="9.6056344"><ele>326.0</ele><time>2026-03-22T08:54:59.206Z</time></trkpt><trkpt lat="44.3280224" lon="9.6054657"><ele>322.33333333333337</ele><time>2026-03-22T08:55:00.206Z</time></trkpt><trkpt lat="44.3281342" lon="9.6052876"><ele>318.6666666666667</ele><time>2026-03-22T08:55:01.206Z</time></trkpt><trkpt lat="44.3282174" lon="9.6050826"><ele>315.0</ele><time>2026-03-22T08:55:02.206Z</time></trkpt><trkpt lat="44.3283033" lon="9.6048717"><ele>315.0</ele><time>2026-03-22T08:55:03.206Z</time></trkpt><trkpt lat="44.3283576" lon="9.6046388"><ele>315.0</ele><time>2026-03-22T08:55:04.206Z</time></trkpt><trkpt lat="44.3283945" lon="9.604398"><ele>315.0</ele><time>2026-03-22T08:55:05.206Z</time></trkpt><trkpt lat="44.3284107" lon="9.6041608"><ele>318.0</ele><time>2026-03-22T08:55:06.206Z</time></trkpt><trkpt lat="44.3284202" lon="9.6039173"><ele>321.0</ele><time>2026-03-22T08:55:07.207Z</time></trkpt><trkpt lat="44.3284305" lon="9.6036679"><ele>324.0</ele><time>2026-03-22T08:55:08.207Z</time></trkpt><trkpt lat="44.328444" lon="9.6034107"><ele>324.3333333333333</ele><time>2026-03-22T08:55:09.207Z</time></trkpt><trkpt lat="44.3284599" lon="9.603159"><ele>324.66666666666663</ele><time>2026-03-22T08:55:10.206Z</time></trkpt><trkpt lat="44.328476" lon="9.602903"><ele>325.0</ele><time>2026-03-22T08:55:11.206Z</time></trkpt><trkpt lat="44.3284808" lon="9.6026401"><ele>325.0</ele><time>2026-03-22T08:55:12.206Z</time></trkpt><trkpt lat="44.3284924" lon="9.6023778"><ele>325.0</ele><time>2026-03-22T08:55:13.206Z</time></trkpt><trkpt lat="44.3285015" lon="9.602119"><ele>325.0</ele><time>2026-03-22T08:55:14.206Z</time></trkpt><trkpt lat="44.3285133" lon="9.6018687"><ele>323.3333333333333</ele><time>2026-03-22T08:55:15.206Z</time></trkpt><trkpt lat="44.3285246" lon="9.6016228"><ele>321.6666666666667</ele><time>2026-03-22T08:55:16.206Z</time></trkpt><trkpt lat="44.3285431" lon="9.6013772"><ele>320.0</ele><time>2026-03-22T08:55:17.206Z</time></trkpt><trkpt lat="44.3285689" lon="9.6011324"><ele>318.33333333333337</ele><time>2026-03-22T08:55:18.207Z</time></trkpt><trkpt lat="44.3286079" lon="9.6008675"><ele>316.6666666666667</ele><time>2026-03-22T08:55:19.206Z</time></trkpt><trkpt lat="44.3287133" lon="9.6006387"><ele>315.0</ele><time>2026-03-22T08:55:20.206Z</time></trkpt><trkpt lat="44.3288021" lon="9.6003917"><ele>309.3333333333333</ele><time>2026-03-22T08:55:21.206Z</time></trkpt><trkpt lat="44.3289112" lon="9.6001491"><ele>303.66666666666663</ele><time>2026-03-22T08:55:22.206Z</time></trkpt><trkpt lat="44.3290146" lon="9.5999243"><ele>298.0</ele><time>2026-03-22T08:55:23.206Z</time></trkpt><trkpt lat="44.3291214" lon="9.599701"><ele>297.66666666666663</ele><time>2026-03-22T08:55:24.206Z</time></trkpt><trkpt lat="44.3292389" lon="9.5994724"><ele>297.3333333333333</ele><time>2026-03-22T08:55:25.206Z</time></trkpt><trkpt lat="44.32936" lon="9.5992355"><ele>297.0</ele><time>2026-03-22T08:55:26.206Z</time></trkpt><trkpt lat="44.3294777" lon="9.5989941"><ele>297.0</ele><time>2026-03-22T08:55:27.207Z</time></trkpt><trkpt lat="44.3295951" lon="9.5987593"><ele>297.0</ele><time>2026-03-22T08:55:28.207Z</time></trkpt><trkpt lat="44.3297182" lon="9.5985324"><ele>297.0</ele><time>2026-03-22T08:55:29.207Z</time></trkpt><trkpt lat="44.3298402" lon="9.5982987"><ele>295.3333333333333</ele><time>2026-03-22T08:55:30.207Z</time></trkpt><trkpt lat="44.3299614" lon="9.5980649"><ele>293.66666666666663</ele><time>2026-03-22T08:55:31.207Z</time></trkpt><trkpt lat="44.3300699" lon="9.5978165"><ele>292.0</ele><time>2026-03-22T08:55:32.207Z</time></trkpt><trkpt lat="44.3301642" lon="9.5975646"><ele>291.0</ele><time>2026-03-22T08:55:33.207Z</time></trkpt><trkpt lat="44.3302321" lon="9.5973084"><ele>290.0</ele><time>2026-03-22T08:55:34.206Z</time></trkpt><trkpt lat="44.3302833" lon="9.5970444"><ele>289.0</ele><time>2026-03-22T08:55:35.206Z</time></trkpt><trkpt lat="44.3303157" lon="9.5967757"><ele>289.0</ele><time>2026-03-22T08:55:36.206Z</time></trkpt><trkpt lat="44.3303335" lon="9.5964993"><ele>289.0</ele><time>2026-03-22T08:55:37.206Z</time></trkpt><trkpt lat="44.3303429" lon="9.5962186"><ele>289.0</ele><time>2026-03-22T08:55:38.207Z</time></trkpt><trkpt lat="44.3303489" lon="9.5959453"><ele>292.0</ele><time>2026-03-22T08:55:39.207Z</time></trkpt><trkpt lat="44.330354" lon="9.595677"><ele>295.0</ele><time>2026-03-22T08:55:40.207Z</time></trkpt><trkpt lat="44.3303602" lon="9.5954322"><ele>298.0</ele><time>2026-03-22T08:55:41.207Z</time></trkpt><trkpt lat="44.3303602" lon="9.5951755"><ele>299.0</ele><time>2026-03-22T08:55:42.207Z</time></trkpt><trkpt lat="44.3303657" lon="9.5949155"><ele>300.0</ele><time>2026-03-22T08:55:43.207Z</time></trkpt><trkpt lat="44.3303798" lon="9.5946675"><ele>301.0</ele><time>2026-03-22T08:55:44.207Z</time></trkpt><trkpt lat="44.3304078" lon="9.5944338"><ele>301.0</ele><time>2026-03-22T08:55:45.206Z</time></trkpt><trkpt lat="44.3304657" lon="9.5942084"><ele>301.0</ele><time>2026-03-22T08:55:46.206Z</time></trkpt><trkpt lat="44.330564" lon="9.5939905"><ele>301.0</ele><time>2026-03-22T08:55:47.206Z</time></trkpt><trkpt lat="44.330691" lon="9.5937922"><ele>299.0</ele><time>2026-03-22T08:55:48.206Z</time></trkpt><trkpt lat="44.3308453" lon="9.5936231"><ele>297.0</ele><time>2026-03-22T08:55:49.206Z</time></trkpt><trkpt lat="44.3310082" lon="9.5934764"><ele>295.0</ele><time>2026-03-22T08:55:50.206Z</time></trkpt><trkpt lat="44.3311632" lon="9.5933484"><ele>295.0</ele><time>2026-03-22T08:55:51.206Z</time></trkpt><trkpt lat="44.3313044" lon="9.5932174"><ele>295.0</ele><time>2026-03-22T08:55:52.206Z</time></trkpt><trkpt lat="44.3314304" lon="9.5930699"><ele>295.0</ele><time>2026-03-22T08:55:53.206Z</time></trkpt><trkpt lat="44.3315322" lon="9.5928857"><ele>294.3333333333333</ele><time>2026-03-22T08:55:54.206Z</time></trkpt><trkpt lat="44.3316217" lon="9.5926871"><ele>293.6666666666667</ele><time>2026-03-22T08:55:55.206Z</time></trkpt><trkpt lat="44.331702" lon="9.592479"><ele>293.0</ele><time>2026-03-22T08:55:56.206Z</time></trkpt><trkpt lat="44.3317813" lon="9.5922608"><ele>293.0</ele><time>2026-03-22T08:55:57.206Z</time></trkpt><trkpt lat="44.3318591" lon="9.5920368"><ele>293.0</ele><time>2026-03-22T08:55:58.206Z</time></trkpt><trkpt lat="44.3319366" lon="9.5918108"><ele>293.0</ele><time>2026-03-22T08:55:59.206Z</time></trkpt><trkpt lat="44.3320133" lon="9.5915832"><ele>292.6666666666667</ele><time>2026-03-22T08:56:00.206Z</time></trkpt><trkpt lat="44.3320905" lon="9.5913639"><ele>292.3333333333333</ele><time>2026-03-22T08:56:01.207Z</time></trkpt><trkpt lat="44.332161" lon="9.591142"><ele>292.0</ele><time>2026-03-22T08:56:02.206Z</time></trkpt><trkpt lat="44.3322367" lon="9.5909311"><ele>292.0</ele><time>2026-03-22T08:56:03.206Z</time></trkpt><trkpt lat="44.3323343" lon="9.5907478"><ele>292.0</ele><time>2026-03-22T08:56:04.207Z</time></trkpt><trkpt lat="44.3324641" lon="9.590606"><ele>292.0</ele><time>2026-03-22T08:56:05.207Z</time></trkpt><trkpt lat="44.3326209" lon="9.5905221"><ele>292.0</ele><time>2026-03-22T08:56:06.207Z</time></trkpt><trkpt lat="44.332774" lon="9.5904337"><ele>292.0</ele><time>2026-03-22T08:56:07.207Z</time></trkpt><trkpt lat="44.3329568" lon="9.5903974"><ele>292.0</ele><time>2026-03-22T08:56:08.206Z</time></trkpt><trkpt lat="44.3331069" lon="9.5903046"><ele>292.75</ele><time>2026-03-22T08:56:09.206Z</time></trkpt><trkpt lat="44.3332347" lon="9.5901998"><ele>293.5</ele><time>2026-03-22T08:56:10.207Z</time></trkpt><trkpt lat="44.3333412" lon="9.5900972"><ele>294.25</ele><time>2026-03-22T08:56:11.207Z</time></trkpt><trkpt lat="44.3334372" lon="9.5899931"><ele>295.0</ele><time>2026-03-22T08:56:12.207Z</time></trkpt><trkpt lat="44.3335209" lon="9.5899125"><ele>295.0</ele><time>2026-03-22T08:56:13.207Z</time></trkpt><trkpt lat="44.3335847" lon="9.5898374"><ele>295.0</ele><time>2026-03-22T08:56:14.206Z</time></trkpt><trkpt lat="44.3336589" lon="9.5897745"><ele>295.0</ele><time>2026-03-22T08:56:15.206Z</time></trkpt><trkpt lat="44.3337304" lon="9.5897296"><ele>295.0</ele><time>2026-03-22T08:56:16.206Z</time></trkpt><trkpt lat="44.3337956" lon="9.589692"><ele>295.0</ele><time>2026-03-22T08:56:17.206Z</time></trkpt><trkpt lat="44.3338802" lon="9.5896688"><ele>295.0</ele><time>2026-03-22T08:56:18.206Z</time></trkpt><trkpt lat="44.3340166" lon="9.5896686"><ele>293.5</ele><time>2026-03-22T08:56:19.206Z</time></trkpt><trkpt lat="44.3341451" lon="9.589659"><ele>292.0</ele><time>2026-03-22T08:56:20.206Z</time></trkpt><trkpt lat="44.334283" lon="9.5896296"><ele>290.5</ele><time>2026-03-22T08:56:21.206Z</time></trkpt><trkpt lat="44.3344012" lon="9.5896048"><ele>289.0</ele><time>2026-03-22T08:56:22.206Z</time></trkpt><trkpt lat="44.3345114" lon="9.5895871"><ele>289.0</ele><time>2026-03-22T08:56:23.206Z</time></trkpt><trkpt lat="44.3346208" lon="9.5895733"><ele>289.0</ele><time>2026-03-22T08:56:24.206Z</time></trkpt><trkpt lat="44.3347372" lon="9.5895583"><ele>289.0</ele><time>2026-03-22T08:56:25.206Z</time></trkpt><trkpt lat="44.3348708" lon="9.5895321"><ele>289.0</ele><time>2026-03-22T08:56:26.206Z</time></trkpt><trkpt lat="44.3350106" lon="9.589511"><ele>288.25</ele><time>2026-03-22T08:56:27.207Z</time></trkpt><trkpt lat="44.3351478" lon="9.5894902"><ele>287.5</ele><time>2026-03-22T08:56:28.207Z</time></trkpt><trkpt lat="44.3352812" lon="9.5894663"><ele>286.75</ele><time>2026-03-22T08:56:29.207Z</time></trkpt><trkpt lat="44.3354112" lon="9.5894362"><ele>286.0</ele><time>2026-03-22T08:56:30.207Z</time></trkpt><trkpt lat="44.3355287" lon="9.5893939"><ele>285.75</ele><time>2026-03-22T08:56:31.206Z</time></trkpt><trkpt lat="44.3356514" lon="9.5893699"><ele>285.5</ele><time>2026-03-22T08:56:32.206Z</time></trkpt><trkpt lat="44.3357702" lon="9.5893644"><ele>285.25</ele><time>2026-03-22T08:56:33.206Z</time></trkpt><trkpt lat="44.3359038" lon="9.5893794"><ele>285.0</ele><time>2026-03-22T08:56:34.207Z</time></trkpt><trkpt lat="44.3360443" lon="9.5894333"><ele>285.0</ele><time>2026-03-22T08:56:35.207Z</time></trkpt><trkpt lat="44.3361975" lon="9.589499"><ele>285.0</ele><time>2026-03-22T08:56:36.207Z</time></trkpt><trkpt lat="44.3363593" lon="9.5895355"><ele>285.0</ele><time>2026-03-22T08:56:37.207Z</time></trkpt><trkpt lat="44.3365196" lon="9.5895784"><ele>285.75</ele><time>2026-03-22T08:56:38.206Z</time></trkpt><trkpt lat="44.3366676" lon="9.5896141"><ele>286.5</ele><time>2026-03-22T08:56:39.206Z</time></trkpt><trkpt lat="44.33681" lon="9.5896458"><ele>287.25</ele><time>2026-03-22T08:56:40.206Z</time></trkpt><trkpt lat="44.3369531" lon="9.5896869"><ele>288.0</ele><time>2026-03-22T08:56:41.206Z</time></trkpt><trkpt lat="44.3370985" lon="9.5897445"><ele>288.6666666666667</ele><time>2026-03-22T08:56:42.206Z</time></trkpt><trkpt lat="44.3372441" lon="9.5897965"><ele>289.33333333333337</ele><time>2026-03-22T08:56:43.208Z</time></trkpt><trkpt lat="44.3373936" lon="9.5898504"><ele>290.0</ele><time>2026-03-22T08:56:44.207Z</time></trkpt><trkpt lat="44.3375409" lon="9.5899063"><ele>290.0</ele><time>2026-03-22T08:56:45.207Z</time></trkpt><trkpt lat="44.3376955" lon="9.5899821"><ele>290.0</ele><time>2026-03-22T08:56:46.206Z</time></trkpt><trkpt lat="44.3378494" lon="9.5900428"><ele>290.0</ele><time>2026-03-22T08:56:47.206Z</time></trkpt><trkpt lat="44.3380014" lon="9.5901086"><ele>292.6666666666667</ele><time>2026-03-22T08:56:48.206Z</time></trkpt><trkpt lat="44.33816" lon="9.5901656"><ele>295.3333333333333</ele><time>2026-03-22T08:56:49.207Z</time></trkpt><trkpt lat="44.3383286" lon="9.5902273"><ele>298.0</ele><time>2026-03-22T08:56:50.207Z</time></trkpt><trkpt lat="44.3385013" lon="9.5902951"><ele>296.3333333333333</ele><time>2026-03-22T08:56:51.207Z</time></trkpt><trkpt lat="44.3386749" lon="9.5903701"><ele>294.6666666666667</ele><time>2026-03-22T08:56:52.206Z</time></trkpt><trkpt lat="44.3388405" lon="9.590429"><ele>293.0</ele><time>2026-03-22T08:56:53.206Z</time></trkpt><trkpt lat="44.3390109" lon="9.5904608"><ele>293.0</ele><time>2026-03-22T08:56:54.206Z</time></trkpt><trkpt lat="44.3391789" lon="9.5904583"><ele>293.0</ele><time>2026-03-22T08:56:55.207Z</time></trkpt><trkpt lat="44.3393518" lon="9.5904413"><ele>293.0</ele><time>2026-03-22T08:56:56.207Z</time></trkpt><trkpt lat="44.33952" lon="9.5904397"><ele>293.0</ele><time>2026-03-22T08:56:57.206Z</time></trkpt><trkpt lat="44.3396868" lon="9.5904256"><ele>293.0</ele><time>2026-03-22T08:56:58.206Z</time></trkpt><trkpt lat="44.3398546" lon="9.590414"><ele>293.0</ele><time>2026-03-22T08:56:59.206Z</time></trkpt><trkpt lat="44.3400246" lon="9.5903958"><ele>293.6666666666667</ele><time>2026-03-22T08:57:00.206Z</time></trkpt><trkpt lat="44.3401965" lon="9.5903785"><ele>294.3333333333333</ele><time>2026-03-22T08:57:01.207Z</time></trkpt><trkpt lat="44.3403722" lon="9.5903567"><ele>295.0</ele><time>2026-03-22T08:57:02.207Z</time></trkpt><trkpt lat="44.3405425" lon="9.5903404"><ele>298.66666666666663</ele><time>2026-03-22T08:57:03.206Z</time></trkpt><trkpt lat="44.3407153" lon="9.5903247"><ele>302.3333333333333</ele><time>2026-03-22T08:57:04.206Z</time></trkpt><trkpt lat="44.3408946" lon="9.5903107"><ele>306.0</ele><time>2026-03-22T08:57:05.206Z</time></trkpt><trkpt lat="44.3410919" lon="9.5902948"><ele>306.0</ele><time>2026-03-22T08:57:06.206Z</time></trkpt><trkpt lat="44.341298" lon="9.5902827"><ele>306.0</ele><time>2026-03-22T08:57:07.206Z</time></trkpt><trkpt lat="44.341492" lon="9.5902798"><ele>306.0</ele><time>2026-03-22T08:57:08.207Z</time></trkpt><trkpt lat="44.3416724" lon="9.5902743"><ele>307.0</ele><time>2026-03-22T08:57:09.207Z</time></trkpt><trkpt lat="44.341846" lon="9.5902647"><ele>308.0</ele><time>2026-03-22T08:57:10.206Z</time></trkpt><trkpt lat="44.3420144" lon="9.5902638"><ele>309.0</ele><time>2026-03-22T08:57:11.206Z</time></trkpt><trkpt lat="44.3421767" lon="9.5902835"><ele>311.3333333333333</ele><time>2026-03-22T08:57:12.206Z</time></trkpt><trkpt lat="44.342338" lon="9.5903208"><ele>313.66666666666663</ele><time>2026-03-22T08:57:13.206Z</time></trkpt><trkpt lat="44.3425018" lon="9.5903542"><ele>316.0</ele><time>2026-03-22T08:57:14.206Z</time></trkpt><trkpt lat="44.3426541" lon="9.5903283"><ele>316.0</ele><time>2026-03-22T08:57:15.207Z</time></trkpt><trkpt lat="44.3428031" lon="9.5903041"><ele>316.0</ele><time>2026-03-22T08:57:16.207Z</time></trkpt><trkpt lat="44.3429494" lon="9.5902617"><ele>316.0</ele><time>2026-03-22T08:57:17.207Z</time></trkpt><trkpt lat="44.3430773" lon="9.5901913"><ele>316.0</ele><time>2026-03-22T08:57:18.207Z</time></trkpt><trkpt lat="44.3432048" lon="9.5901224"><ele>315.0</ele><time>2026-03-22T08:57:19.207Z</time></trkpt><trkpt lat="44.3433392" lon="9.5900797"><ele>314.0</ele><time>2026-03-22T08:57:20.207Z</time></trkpt><trkpt lat="44.3434834" lon="9.5900761"><ele>313.0</ele><time>2026-03-22T08:57:21.207Z</time></trkpt><trkpt lat="44.3436277" lon="9.5900844"><ele>312.0</ele><time>2026-03-22T08:57:22.207Z</time></trkpt><trkpt lat="44.3437673" lon="9.5900937"><ele>311.25</ele><time>2026-03-22T08:57:23.206Z</time></trkpt><trkpt lat="44.3438954" lon="9.5901381"><ele>310.5</ele><time>2026-03-22T08:57:24.206Z</time></trkpt><trkpt lat="44.3440045" lon="9.5902414"><ele>309.75</ele><time>2026-03-22T08:57:25.206Z</time></trkpt><trkpt lat="44.3440981" lon="9.5903885"><ele>309.0</ele><time>2026-03-22T08:57:26.206Z</time></trkpt><trkpt lat="44.3441836" lon="9.5905643"><ele>305.0</ele><time>2026-03-22T08:57:27.207Z</time></trkpt><trkpt lat="44.3442615" lon="9.590793"><ele>301.0</ele><time>2026-03-22T08:57:28.206Z</time></trkpt><trkpt lat="44.3443389" lon="9.5910415"><ele>297.0</ele><time>2026-03-22T08:57:29.206Z</time></trkpt><trkpt lat="44.3444112" lon="9.5912699"><ele>296.6666666666667</ele><time>2026-03-22T08:57:30.206Z</time></trkpt><trkpt lat="44.3444883" lon="9.5915004"><ele>296.33333333333337</ele><time>2026-03-22T08:57:31.206Z</time></trkpt><trkpt lat="44.3445783" lon="9.5917357"><ele>296.0</ele><time>2026-03-22T08:57:32.206Z</time></trkpt><trkpt lat="44.3446966" lon="9.591969"><ele>300.33333333333337</ele><time>2026-03-22T08:57:33.206Z</time></trkpt><trkpt lat="44.3448166" lon="9.5922071"><ele>304.6666666666667</ele><time>2026-03-22T08:57:34.207Z</time></trkpt><trkpt lat="44.3449263" lon="9.5924227"><ele>309.0</ele><time>2026-03-22T08:57:35.206Z</time></trkpt><trkpt lat="44.3450309" lon="9.5926123"><ele>309.0</ele><time>2026-03-22T08:57:36.207Z</time></trkpt><trkpt lat="44.3451295" lon="9.5927895"><ele>309.0</ele><time>2026-03-22T08:57:37.207Z</time></trkpt><trkpt lat="44.3452373" lon="9.5929254"><ele>309.0</ele><time>2026-03-22T08:57:38.207Z</time></trkpt><trkpt lat="44.3453432" lon="9.5930613"><ele>309.0</ele><time>2026-03-22T08:57:39.207Z</time></trkpt><trkpt lat="44.3454618" lon="9.5931434"><ele>306.3333333333333</ele><time>2026-03-22T08:57:40.206Z</time></trkpt><trkpt lat="44.3456503" lon="9.593092"><ele>303.66666666666663</ele><time>2026-03-22T08:57:41.206Z</time></trkpt><trkpt lat="44.3457983" lon="9.5931343"><ele>301.0</ele><time>2026-03-22T08:57:42.206Z</time></trkpt><trkpt lat="44.345949" lon="9.5930801"><ele>301.0</ele><time>2026-03-22T08:57:43.206Z</time></trkpt><trkpt lat="44.346146" lon="9.5929289"><ele>301.0</ele><time>2026-03-22T08:57:44.206Z</time></trkpt><trkpt lat="44.3463192" lon="9.5928137"><ele>301.0</ele><time>2026-03-22T08:57:45.206Z</time></trkpt><trkpt lat="44.3464826" lon="9.5926917"><ele>304.3333333333333</ele><time>2026-03-22T08:57:46.206Z</time></trkpt><trkpt lat="44.3466416" lon="9.5925773"><ele>307.6666666666667</ele><time>2026-03-22T08:57:47.206Z</time></trkpt><trkpt lat="44.3467961" lon="9.5924666"><ele>311.0</ele><time>2026-03-22T08:57:48.206Z</time></trkpt><trkpt lat="44.34695" lon="9.5923673"><ele>311.0</ele><time>2026-03-22T08:57:49.207Z</time></trkpt><trkpt lat="44.3471203" lon="9.5923156"><ele>311.0</ele><time>2026-03-22T08:57:50.207Z</time></trkpt><trkpt lat="44.3473117" lon="9.5923189"><ele>311.0</ele><time>2026-03-22T08:57:51.206Z</time></trkpt><trkpt lat="44.3475013" lon="9.5923115"><ele>311.6666666666667</ele><time>2026-03-22T08:57:52.206Z</time></trkpt><trkpt lat="44.347697" lon="9.5923506"><ele>312.3333333333333</ele><time>2026-03-22T08:57:53.206Z</time></trkpt><trkpt lat="44.347861" lon="9.592417"><ele>313.0</ele><time>2026-03-22T08:57:54.206Z</time></trkpt><trkpt lat="44.3480223" lon="9.5924902"><ele>315.66666666666663</ele><time>2026-03-22T08:57:55.207Z</time></trkpt><trkpt lat="44.3481868" lon="9.5925664"><ele>318.3333333333333</ele><time>2026-03-22T08:57:56.207Z</time></trkpt><trkpt lat="44.3483348" lon="9.5926796"><ele>321.0</ele><time>2026-03-22T08:57:57.207Z</time></trkpt><trkpt lat="44.3485006" lon="9.5928035"><ele>316.3333333333333</ele><time>2026-03-22T08:57:58.207Z</time></trkpt><trkpt lat="44.3486395" lon="9.592937"><ele>311.66666666666663</ele><time>2026-03-22T08:57:59.206Z</time></trkpt><trkpt lat="44.3487597" lon="9.5930881"><ele>307.0</ele><time>2026-03-22T08:58:00.206Z</time></trkpt><trkpt lat="44.3488746" lon="9.5933208"><ele>311.0</ele><time>2026-03-22T08:58:01.206Z</time></trkpt><trkpt lat="44.3489571" lon="9.5935148"><ele>315.0</ele><time>2026-03-22T08:58:02.206Z</time></trkpt><trkpt lat="44.3490389" lon="9.5937232"><ele>319.0</ele><time>2026-03-22T08:58:03.206Z</time></trkpt><trkpt lat="44.349123" lon="9.5939495"><ele>319.0</ele><time>2026-03-22T08:58:04.206Z</time></trkpt><trkpt lat="44.3491982" lon="9.5941565"><ele>319.0</ele><time>2026-03-22T08:58:05.206Z</time></trkpt><trkpt lat="44.3492843" lon="9.5943738"><ele>319.0</ele><time>2026-03-22T08:58:06.206Z</time></trkpt><trkpt lat="44.3493786" lon="9.5945779"><ele>319.3333333333333</ele><time>2026-03-22T08:58:07.206Z</time></trkpt><trkpt lat="44.3495207" lon="9.5946972"><ele>319.6666666666667</ele><time>2026-03-22T08:58:08.207Z</time></trkpt><trkpt lat="44.3496526" lon="9.5948255"><ele>320.0</ele><time>2026-03-22T08:58:09.206Z</time></trkpt><trkpt lat="44.3498166" lon="9.5949104"><ele>320.0</ele><time>2026-03-22T08:58:10.207Z</time></trkpt><trkpt lat="44.3499838" lon="9.5949786"><ele>320.0</ele><time>2026-03-22T08:58:11.206Z</time></trkpt><trkpt lat="44.3501572" lon="9.5950023"><ele>320.0</ele><time>2026-03-22T08:58:12.207Z</time></trkpt><trkpt lat="44.3503342" lon="9.5950424"><ele>320.0</ele><time>2026-03-22T08:58:13.207Z</time></trkpt><trkpt lat="44.3505043" lon="9.5951149"><ele>320.0</ele><time>2026-03-22T08:58:14.207Z</time></trkpt><trkpt lat="44.3506703" lon="9.5952268"><ele>320.0</ele><time>2026-03-22T08:58:15.207Z</time></trkpt><trkpt lat="44.3508384" lon="9.5953258"><ele>317.6666666666667</ele><time>2026-03-22T08:58:16.207Z</time></trkpt><trkpt lat="44.3510266" lon="9.5954282"><ele>315.3333333333333</ele><time>2026-03-22T08:58:17.206Z</time></trkpt><trkpt lat="44.3511413" lon="9.5956298"><ele>313.0</ele><time>2026-03-22T08:58:18.206Z</time></trkpt><trkpt lat="44.3512934" lon="9.5957648"><ele>315.3333333333333</ele><time>2026-03-22T08:58:19.207Z</time></trkpt><trkpt lat="44.351436" lon="9.5958875"><ele>317.6666666666667</ele><time>2026-03-22T08:58:20.206Z</time></trkpt><trkpt lat="44.3515773" lon="9.5959272"><ele>320.0</ele><time>2026-03-22T08:58:21.206Z</time></trkpt><trkpt lat="44.351716" lon="9.5960072"><ele>320.0</ele><time>2026-03-22T08:58:22.206Z</time></trkpt><trkpt lat="44.351888" lon="9.5958215"><ele>320.0</ele><time>2026-03-22T08:58:23.206Z</time></trkpt><trkpt lat="44.3520117" lon="9.5957552"><ele>320.0</ele><time>2026-03-22T08:58:24.206Z</time></trkpt><trkpt lat="44.3521419" lon="9.5956463"><ele>320.0</ele><time>2026-03-22T08:58:25.206Z</time></trkpt><trkpt lat="44.352253" lon="9.5954869"><ele>320.0</ele><time>2026-03-22T08:58:26.207Z</time></trkpt><trkpt lat="44.3523275" lon="9.5953133"><ele>320.0</ele><time>2026-03-22T08:58:27.207Z</time></trkpt><trkpt lat="44.3523146" lon="9.5951887"><ele>320.0</ele><time>2026-03-22T08:58:28.206Z</time></trkpt><trkpt lat="44.3523701" lon="9.5950754"><ele>320.0</ele><time>2026-03-22T08:58:29.206Z</time></trkpt><trkpt lat="44.3524024" lon="9.5949891"><ele>320.0</ele><time>2026-03-22T08:58:30.206Z</time></trkpt><trkpt lat="44.3524756" lon="9.5949719"><ele>320.0</ele><time>2026-03-22T08:58:31.206Z</time></trkpt><trkpt lat="44.3527484" lon="9.5950885"><ele>320.0</ele><time>2026-03-22T08:58:32.207Z</time></trkpt><trkpt lat="44.3528875" lon="9.5950835"><ele>320.0</ele><time>2026-03-22T08:58:33.207Z</time></trkpt><trkpt lat="44.3530375" lon="9.5951062"><ele>320.0</ele><time>2026-03-22T08:58:34.206Z</time></trkpt><trkpt lat="44.3531956" lon="9.5951142"><ele>320.0</ele><time>2026-03-22T08:58:35.206Z</time></trkpt><trkpt lat="44.3533586" lon="9.5950983"><ele>319.6666666666667</ele><time>2026-03-22T08:58:36.206Z</time></trkpt><trkpt lat="44.3535453" lon="9.5950542"><ele>319.3333333333333</ele><time>2026-03-22T08:58:37.206Z</time></trkpt><trkpt lat="44.3537242" lon="9.594943"><ele>319.0</ele><time>2026-03-22T08:58:38.207Z</time></trkpt><trkpt lat="44.353895" lon="9.5948538"><ele>319.0</ele><time>2026-03-22T08:58:39.207Z</time></trkpt><trkpt lat="44.3540671" lon="9.5947659"><ele>319.0</ele><time>2026-03-22T08:58:40.206Z</time></trkpt><trkpt lat="44.354243" lon="9.5946807"><ele>319.0</ele><time>2026-03-22T08:58:41.206Z</time></trkpt><trkpt lat="44.3544135" lon="9.5946126"><ele>319.0</ele><time>2026-03-22T08:58:42.206Z</time></trkpt><trkpt lat="44.3545907" lon="9.5945293"><ele>319.0</ele><time>2026-03-22T08:58:43.206Z</time></trkpt><trkpt lat="44.3547735" lon="9.5944501"><ele>319.0</ele><time>2026-03-22T08:58:44.206Z</time></trkpt><trkpt lat="44.3549531" lon="9.5944027"><ele>324.3333333333333</ele><time>2026-03-22T08:58:45.206Z</time></trkpt><trkpt lat="44.3550897" lon="9.5943199"><ele>329.6666666666667</ele><time>2026-03-22T08:58:46.207Z</time></trkpt><trkpt lat="44.3552589" lon="9.5942152"><ele>335.0</ele><time>2026-03-22T08:58:47.206Z</time></trkpt><trkpt lat="44.3554199" lon="9.5940812"><ele>331.6666666666667</ele><time>2026-03-22T08:58:48.206Z</time></trkpt><trkpt lat="44.3555589" lon="9.5939454"><ele>328.3333333333333</ele><time>2026-03-22T08:58:49.206Z</time></trkpt><trkpt lat="44.3557324" lon="9.5938883"><ele>325.0</ele><time>2026-03-22T08:58:50.207Z</time></trkpt><trkpt lat="44.3558958" lon="9.5937898"><ele>325.0</ele><time>2026-03-22T08:58:51.207Z</time></trkpt><trkpt lat="44.3560989" lon="9.5938471"><ele>325.0</ele><time>2026-03-22T08:58:52.206Z</time></trkpt><trkpt lat="44.3563013" lon="9.5938345"><ele>325.0</ele><time>2026-03-22T08:58:53.206Z</time></trkpt><trkpt lat="44.3564851" lon="9.5938134"><ele>324.3333333333333</ele><time>2026-03-22T08:58:54.206Z</time></trkpt><trkpt lat="44.3566573" lon="9.5937913"><ele>323.6666666666667</ele><time>2026-03-22T08:58:55.206Z</time></trkpt><trkpt lat="44.3568202" lon="9.5937627"><ele>323.0</ele><time>2026-03-22T08:58:56.206Z</time></trkpt><trkpt lat="44.3569828" lon="9.5937413"><ele>323.0</ele><time>2026-03-22T08:58:57.206Z</time></trkpt><trkpt lat="44.3571449" lon="9.5937249"><ele>323.0</ele><time>2026-03-22T08:58:58.206Z</time></trkpt><trkpt lat="44.3572948" lon="9.5937099"><ele>323.0</ele><time>2026-03-22T08:58:59.206Z</time></trkpt><trkpt lat="44.3574391" lon="9.5936789"><ele>327.5</ele><time>2026-03-22T08:59:00.206Z</time></trkpt><trkpt lat="44.3575816" lon="9.5936606"><ele>332.0</ele><time>2026-03-22T08:59:01.206Z</time></trkpt><trkpt lat="44.3577213" lon="9.5936471"><ele>336.5</ele><time>2026-03-22T08:59:02.206Z</time></trkpt><trkpt lat="44.3578609" lon="9.5936456"><ele>341.0</ele><time>2026-03-22T08:59:03.207Z</time></trkpt><trkpt lat="44.3579974" lon="9.5936537"><ele>341.0</ele><time>2026-03-22T08:59:04.206Z</time></trkpt><trkpt lat="44.3581319" lon="9.5936602"><ele>341.0</ele><time>2026-03-22T08:59:05.207Z</time></trkpt><trkpt lat="44.3582645" lon="9.5936747"><ele>341.0</ele><time>2026-03-22T08:59:06.207Z</time></trkpt><trkpt lat="44.358396" lon="9.5936915"><ele>341.0</ele><time>2026-03-22T08:59:07.206Z</time></trkpt><trkpt lat="44.3585284" lon="9.5937098"><ele>338.0</ele><time>2026-03-22T08:59:08.206Z</time></trkpt><trkpt lat="44.3586588" lon="9.5937349"><ele>335.0</ele><time>2026-03-22T08:59:09.206Z</time></trkpt><trkpt lat="44.3587927" lon="9.5937647"><ele>332.0</ele><time>2026-03-22T08:59:10.206Z</time></trkpt><trkpt lat="44.3589327" lon="9.5937851"><ele>329.0</ele><time>2026-03-22T08:59:11.206Z</time></trkpt><trkpt lat="44.3590781" lon="9.5937907"><ele>329.0</ele><time>2026-03-22T08:59:12.206Z</time></trkpt><trkpt lat="44.3592232" lon="9.5937968"><ele>329.0</ele><time>2026-03-22T08:59:13.206Z</time></trkpt><trkpt lat="44.3593615" lon="9.5937877"><ele>329.0</ele><time>2026-03-22T08:59:14.206Z</time></trkpt><trkpt lat="44.3594985" lon="9.5937775"><ele>329.0</ele><time>2026-03-22T08:59:15.206Z</time></trkpt><trkpt lat="44.3596328" lon="9.593757"><ele>328.75</ele><time>2026-03-22T08:59:16.206Z</time></trkpt><trkpt lat="44.3597676" lon="9.5937421"><ele>328.5</ele><time>2026-03-22T08:59:17.206Z</time></trkpt><trkpt lat="44.3599019" lon="9.5937277"><ele>328.25</ele><time>2026-03-22T08:59:18.207Z</time></trkpt><trkpt lat="44.3600347" lon="9.593712"><ele>328.0</ele><time>2026-03-22T08:59:19.207Z</time></trkpt><trkpt lat="44.3601656" lon="9.5936952"><ele>328.0</ele><time>2026-03-22T08:59:20.207Z</time></trkpt><trkpt lat="44.3602968" lon="9.5936789"><ele>328.0</ele><time>2026-03-22T08:59:21.206Z</time></trkpt><trkpt lat="44.3604275" lon="9.5936631"><ele>328.0</ele><time>2026-03-22T08:59:22.207Z</time></trkpt><trkpt lat="44.3605534" lon="9.5936461"><ele>328.0</ele><time>2026-03-22T08:59:23.206Z</time></trkpt><trkpt lat="44.3606831" lon="9.5936341"><ele>331.0</ele><time>2026-03-22T08:59:24.207Z</time></trkpt><trkpt lat="44.3608094" lon="9.593622"><ele>334.0</ele><time>2026-03-22T08:59:25.207Z</time></trkpt><trkpt lat="44.360926" lon="9.5936071"><ele>337.0</ele><time>2026-03-22T08:59:26.207Z</time></trkpt><trkpt lat="44.3610369" lon="9.5935911"><ele>340.0</ele><time>2026-03-22T08:59:27.206Z</time></trkpt><trkpt lat="44.3611445" lon="9.5935786"><ele>340.0</ele><time>2026-03-22T08:59:28.207Z</time></trkpt><trkpt lat="44.3612418" lon="9.5935723"><ele>340.0</ele><time>2026-03-22T08:59:29.207Z</time></trkpt><trkpt lat="44.3613322" lon="9.5935671"><ele>340.0</ele><time>2026-03-22T08:59:30.207Z</time></trkpt><trkpt lat="44.3614136" lon="9.5935691"><ele>340.0</ele><time>2026-03-22T08:59:31.206Z</time></trkpt><trkpt lat="44.3614897" lon="9.5935857"><ele>340.0</ele><time>2026-03-22T08:59:32.206Z</time></trkpt><trkpt lat="44.3615534" lon="9.5936107"><ele>340.0</ele><time>2026-03-22T08:59:33.206Z</time></trkpt><trkpt lat="44.3616382" lon="9.5936927"><ele>341.0</ele><time>2026-03-22T08:59:35.206Z</time></trkpt><trkpt lat="44.361689" lon="9.5937711"><ele>342.0</ele><time>2026-03-22T08:59:37.208Z</time></trkpt><trkpt lat="44.3617381" lon="9.5938263"><ele>343.0</ele><time>2026-03-22T08:59:39.207Z</time></trkpt><trkpt lat="44.361814" lon="9.5938454"><ele>344.0</ele><time>2026-03-22T08:59:42.206Z</time></trkpt><trkpt lat="44.3618878" lon="9.5938481"><ele>345.0</ele><time>2026-03-22T08:59:47.207Z</time></trkpt><trkpt lat="44.3619637" lon="9.5937967"><ele>346.0</ele><time>2026-03-22T09:00:21.206Z</time></trkpt><trkpt lat="44.3620477" lon="9.59375"><ele>346.0</ele><time>2026-03-22T09:00:23.206Z</time></trkpt><trkpt lat="44.3621962" lon="9.5937545"><ele>346.0</ele><time>2026-03-22T09:00:25.207Z</time></trkpt><trkpt lat="44.3622987" lon="9.5938071"><ele>346.0</ele><time>2026-03-22T09:00:26.206Z</time></trkpt><trkpt lat="44.3624089" lon="9.5938668"><ele>346.0</ele><time>2026-03-22T09:00:27.206Z</time></trkpt><trkpt lat="44.3625053" lon="9.5939208"><ele>347.4</ele><time>2026-03-22T09:00:28.206Z</time></trkpt><trkpt lat="44.3625987" lon="9.5939747"><ele>348.8</ele><time>2026-03-22T09:00:29.206Z</time></trkpt><trkpt lat="44.3626906" lon="9.5940271"><ele>350.2</ele><time>2026-03-22T09:00:30.206Z</time></trkpt><trkpt lat="44.3627748" lon="9.5940893"><ele>351.59999999999997</ele><time>2026-03-22T09:00:31.206Z</time></trkpt><trkpt lat="44.3628616" lon="9.5941515"><ele>353.0</ele><time>2026-03-22T09:00:32.207Z</time></trkpt><trkpt lat="44.3629476" lon="9.5942103"><ele>351.4</ele><time>2026-03-22T09:00:33.206Z</time></trkpt><trkpt lat="44.3630359" lon="9.5942717"><ele>349.79999999999995</ele><time>2026-03-22T09:00:34.206Z</time></trkpt><trkpt lat="44.3631252" lon="9.5943341"><ele>348.2</ele><time>2026-03-22T09:00:35.206Z</time></trkpt><trkpt lat="44.3632218" lon="9.5944014"><ele>346.6</ele><time>2026-03-22T09:00:36.207Z</time></trkpt><trkpt lat="44.363324" lon="9.5944751"><ele>345.0</ele><time>2026-03-22T09:00:37.207Z</time></trkpt><trkpt lat="44.3634363" lon="9.5945597"><ele>345.0</ele><time>2026-03-22T09:00:38.206Z</time></trkpt><trkpt lat="44.3635521" lon="9.5946422"><ele>345.0</ele><time>2026-03-22T09:00:39.206Z</time></trkpt><trkpt lat="44.3636675" lon="9.5947037"><ele>345.0</ele><time>2026-03-22T09:00:40.206Z</time></trkpt><trkpt lat="44.3637873" lon="9.5947378"><ele>345.0</ele><time>2026-03-22T09:00:41.206Z</time></trkpt><trkpt lat="44.3639276" lon="9.5947661"><ele>347.75</ele><time>2026-03-22T09:00:42.206Z</time></trkpt><trkpt lat="44.3640665" lon="9.5948159"><ele>350.5</ele><time>2026-03-22T09:00:43.207Z</time></trkpt><trkpt lat="44.3642032" lon="9.5949217"><ele>353.25</ele><time>2026-03-22T09:00:44.206Z</time></trkpt><trkpt lat="44.3643299" lon="9.5950062"><ele>356.0</ele><time>2026-03-22T09:00:45.206Z</time></trkpt><trkpt lat="44.3644213" lon="9.595107"><ele>356.0</ele><time>2026-03-22T09:00:46.206Z</time></trkpt><trkpt lat="44.3645135" lon="9.5952004"><ele>356.0</ele><time>2026-03-22T09:00:47.206Z</time></trkpt><trkpt lat="44.3646036" lon="9.5952901"><ele>356.0</ele><time>2026-03-22T09:00:48.206Z</time></trkpt><trkpt lat="44.3647023" lon="9.5953833"><ele>356.0</ele><time>2026-03-22T09:00:49.207Z</time></trkpt><trkpt lat="44.3647971" lon="9.5954642"><ele>355.75</ele><time>2026-03-22T09:00:50.207Z</time></trkpt><trkpt lat="44.3648954" lon="9.5955161"><ele>355.5</ele><time>2026-03-22T09:00:51.207Z</time></trkpt><trkpt lat="44.3649883" lon="9.5955613"><ele>355.25</ele><time>2026-03-22T09:00:52.207Z</time></trkpt><trkpt lat="44.365101" lon="9.5955684"><ele>355.0</ele><time>2026-03-22T09:00:53.207Z</time></trkpt><trkpt lat="44.3651821" lon="9.5953901"><ele>354.0</ele><time>2026-03-22T09:00:54.206Z</time></trkpt><trkpt lat="44.3652713" lon="9.5952432"><ele>353.0</ele><time>2026-03-22T09:00:55.206Z</time></trkpt><trkpt lat="44.3653407" lon="9.5950548"><ele>352.0</ele><time>2026-03-22T09:00:56.206Z</time></trkpt><trkpt lat="44.3654297" lon="9.5948846"><ele>351.0</ele><time>2026-03-22T09:00:57.206Z</time></trkpt><trkpt lat="44.365549" lon="9.5947416"><ele>351.0</ele><time>2026-03-22T09:00:58.206Z</time></trkpt><trkpt lat="44.3656612" lon="9.5945995"><ele>351.0</ele><time>2026-03-22T09:00:59.206Z</time></trkpt><trkpt lat="44.3657958" lon="9.5945032"><ele>351.0</ele><time>2026-03-22T09:01:00.206Z</time></trkpt><trkpt lat="44.3659114" lon="9.5944104"><ele>351.0</ele><time>2026-03-22T09:01:01.206Z</time></trkpt><trkpt lat="44.3661198" lon="9.5943972"><ele>353.5</ele><time>2026-03-22T09:01:02.206Z</time></trkpt><trkpt lat="44.3662508" lon="9.5943287"><ele>356.0</ele><time>2026-03-22T09:01:03.206Z</time></trkpt><trkpt lat="44.3663867" lon="9.5942955"><ele>358.5</ele><time>2026-03-22T09:01:04.206Z</time></trkpt><trkpt lat="44.3665308" lon="9.5943048"><ele>361.0</ele><time>2026-03-22T09:01:05.207Z</time></trkpt><trkpt lat="44.3666668" lon="9.5943042"><ele>361.0</ele><time>2026-03-22T09:01:06.207Z</time></trkpt><trkpt lat="44.3668091" lon="9.5943502"><ele>361.0</ele><time>2026-03-22T09:01:07.207Z</time></trkpt><trkpt lat="44.3669454" lon="9.5944856"><ele>361.0</ele><time>2026-03-22T09:01:08.207Z</time></trkpt><trkpt lat="44.367083" lon="9.5945335"><ele>355.3333333333333</ele><time>2026-03-22T09:01:09.207Z</time></trkpt><trkpt lat="44.3672166" lon="9.5945862"><ele>349.6666666666667</ele><time>2026-03-22T09:01:10.206Z</time></trkpt><trkpt lat="44.3673586" lon="9.5946386"><ele>344.0</ele><time>2026-03-22T09:01:11.206Z</time></trkpt><trkpt lat="44.3675159" lon="9.5945631"><ele>344.0</ele><time>2026-03-22T09:01:12.206Z</time></trkpt><trkpt lat="44.3676932" lon="9.5945292"><ele>344.0</ele><time>2026-03-22T09:01:13.206Z</time></trkpt><trkpt lat="44.3678643" lon="9.5945307"><ele>344.0</ele><time>2026-03-22T09:01:14.206Z</time></trkpt><trkpt lat="44.3680138" lon="9.5946439"><ele>347.0</ele><time>2026-03-22T09:01:15.206Z</time></trkpt><trkpt lat="44.3681617" lon="9.5947499"><ele>350.0</ele><time>2026-03-22T09:01:16.206Z</time></trkpt><trkpt lat="44.3683096" lon="9.5948646"><ele>353.0</ele><time>2026-03-22T09:01:17.206Z</time></trkpt><trkpt lat="44.36846" lon="9.5949714"><ele>353.0</ele><time>2026-03-22T09:01:18.207Z</time></trkpt><trkpt lat="44.3686096" lon="9.5950856"><ele>353.0</ele><time>2026-03-22T09:01:19.206Z</time></trkpt><trkpt lat="44.3687464" lon="9.5951935"><ele>353.0</ele><time>2026-03-22T09:01:20.206Z</time></trkpt><trkpt lat="44.368859" lon="9.5953155"><ele>350.0</ele><time>2026-03-22T09:01:21.206Z</time></trkpt><trkpt lat="44.3689555" lon="9.595403"><ele>347.0</ele><time>2026-03-22T09:01:22.206Z</time></trkpt><trkpt lat="44.3690696" lon="9.5954361"><ele>344.0</ele><time>2026-03-22T09:01:23.207Z</time></trkpt><trkpt lat="44.3691955" lon="9.5954323"><ele>341.0</ele><time>2026-03-22T09:01:24.207Z</time></trkpt><trkpt lat="44.3693305" lon="9.5954164"><ele>342.0</ele><time>2026-03-22T09:01:25.207Z</time></trkpt><trkpt lat="44.369455" lon="9.5953248"><ele>343.0</ele><time>2026-03-22T09:01:26.207Z</time></trkpt><trkpt lat="44.3696004" lon="9.5952712"><ele>344.0</ele><time>2026-03-22T09:01:27.207Z</time></trkpt><trkpt lat="44.3697352" lon="9.5952027"><ele>345.0</ele><time>2026-03-22T09:01:28.207Z</time></trkpt><trkpt lat="44.369882" lon="9.5951356"><ele>345.0</ele><time>2026-03-22T09:01:29.206Z</time></trkpt><trkpt lat="44.3700262" lon="9.5950554"><ele>345.0</ele><time>2026-03-22T09:01:30.207Z</time></trkpt><trkpt lat="44.3701556" lon="9.59496"><ele>345.0</ele><time>2026-03-22T09:01:31.206Z</time></trkpt><trkpt lat="44.3702834" lon="9.5948633"><ele>345.0</ele><time>2026-03-22T09:01:32.207Z</time></trkpt><trkpt lat="44.3703972" lon="9.5947834"><ele>345.0</ele><time>2026-03-22T09:01:33.206Z</time></trkpt><trkpt lat="44.3705159" lon="9.5947545"><ele>345.0</ele><time>2026-03-22T09:01:34.206Z</time></trkpt><trkpt lat="44.3706236" lon="9.5947883"><ele>345.0</ele><time>2026-03-22T09:01:35.206Z</time></trkpt><trkpt lat="44.3707152" lon="9.5948804"><ele>345.0</ele><time>2026-03-22T09:01:36.206Z</time></trkpt><trkpt lat="44.370786" lon="9.5950114"><ele>345.0</ele><time>2026-03-22T09:01:37.206Z</time></trkpt><trkpt lat="44.370839" lon="9.5951962"><ele>345.0</ele><time>2026-03-22T09:01:38.206Z</time></trkpt><trkpt lat="44.370893" lon="9.5953836"><ele>345.0</ele><time>2026-03-22T09:01:39.206Z</time></trkpt><trkpt lat="44.3709438" lon="9.5955598"><ele>345.0</ele><time>2026-03-22T09:01:40.206Z</time></trkpt><trkpt lat="44.3710127" lon="9.5957024"><ele>345.0</ele><time>2026-03-22T09:01:41.206Z</time></trkpt><trkpt lat="44.3710993" lon="9.5958074"><ele>345.0</ele><time>2026-03-22T09:01:42.206Z</time></trkpt><trkpt lat="44.3712152" lon="9.595852"><ele>345.0</ele><time>2026-03-22T09:01:43.206Z</time></trkpt><trkpt lat="44.3713258" lon="9.5959113"><ele>345.0</ele><time>2026-03-22T09:01:44.206Z</time></trkpt><trkpt lat="44.3714623" lon="9.5959231"><ele>346.6666666666667</ele><time>2026-03-22T09:01:45.206Z</time></trkpt><trkpt lat="44.3716289" lon="9.5958621"><ele>348.33333333333337</ele><time>2026-03-22T09:01:46.206Z</time></trkpt><trkpt lat="44.3717865" lon="9.5958366"><ele>350.0</ele><time>2026-03-22T09:01:47.206Z</time></trkpt><trkpt lat="44.3719544" lon="9.5958113"><ele>350.0</ele><time>2026-03-22T09:01:48.206Z</time></trkpt><trkpt lat="44.3721236" lon="9.5957876"><ele>350.0</ele><time>2026-03-22T09:01:49.207Z</time></trkpt><trkpt lat="44.3722981" lon="9.5957615"><ele>350.0</ele><time>2026-03-22T09:01:50.207Z</time></trkpt><trkpt lat="44.3724697" lon="9.5957505"><ele>351.33333333333337</ele><time>2026-03-22T09:01:51.207Z</time></trkpt><trkpt lat="44.3726317" lon="9.5957132"><ele>352.6666666666667</ele><time>2026-03-22T09:01:52.207Z</time></trkpt><trkpt lat="44.3727829" lon="9.5956584"><ele>354.0</ele><time>2026-03-22T09:01:53.207Z</time></trkpt><trkpt lat="44.372924" lon="9.5955871"><ele>355.6666666666667</ele><time>2026-03-22T09:01:54.207Z</time></trkpt><trkpt lat="44.3730599" lon="9.5954977"><ele>357.33333333333337</ele><time>2026-03-22T09:01:55.207Z</time></trkpt><trkpt lat="44.373197" lon="9.5953912"><ele>359.0</ele><time>2026-03-22T09:01:56.207Z</time></trkpt><trkpt lat="44.3733259" lon="9.5952766"><ele>355.0</ele><time>2026-03-22T09:01:57.207Z</time></trkpt><trkpt lat="44.3734579" lon="9.5951568"><ele>351.0</ele><time>2026-03-22T09:01:58.206Z</time></trkpt><trkpt lat="44.3735981" lon="9.5950511"><ele>347.0</ele><time>2026-03-22T09:01:59.206Z</time></trkpt><trkpt lat="44.3736848" lon="9.5948997"><ele>347.0</ele><time>2026-03-22T09:02:00.206Z</time></trkpt><trkpt lat="44.3737738" lon="9.5947453"><ele>347.0</ele><time>2026-03-22T09:02:01.206Z</time></trkpt><trkpt lat="44.3738646" lon="9.5945914"><ele>347.0</ele><time>2026-03-22T09:02:02.206Z</time></trkpt><trkpt lat="44.3739601" lon="9.5944312"><ele>347.0</ele><time>2026-03-22T09:02:03.207Z</time></trkpt><trkpt lat="44.3740572" lon="9.5942865"><ele>347.25</ele><time>2026-03-22T09:02:04.206Z</time></trkpt><trkpt lat="44.3741551" lon="9.5941339"><ele>347.5</ele><time>2026-03-22T09:02:05.206Z</time></trkpt><trkpt lat="44.3742554" lon="9.5939914"><ele>347.75</ele><time>2026-03-22T09:02:06.206Z</time></trkpt><trkpt lat="44.3743459" lon="9.5938673"><ele>348.0</ele><time>2026-03-22T09:02:07.207Z</time></trkpt><trkpt lat="44.3744298" lon="9.593756"><ele>347.8333333333333</ele><time>2026-03-22T09:02:08.206Z</time></trkpt><trkpt lat="44.3745042" lon="9.5936634"><ele>347.6666666666667</ele><time>2026-03-22T09:02:09.206Z</time></trkpt><trkpt lat="44.3745602" lon="9.5935911"><ele>347.5</ele><time>2026-03-22T09:02:10.206Z</time></trkpt><trkpt lat="44.3746178" lon="9.5935337"><ele>347.33333333333337</ele><time>2026-03-22T09:02:11.206Z</time></trkpt><trkpt lat="44.3746735" lon="9.5934798"><ele>347.1666666666667</ele><time>2026-03-22T09:02:12.207Z</time></trkpt><trkpt lat="44.3747278" lon="9.5934216"><ele>347.0</ele><time>2026-03-22T09:02:13.206Z</time></trkpt><trkpt lat="44.374785" lon="9.5933654"><ele>347.8</ele><time>2026-03-22T09:02:14.206Z</time></trkpt><trkpt lat="44.3748466" lon="9.5933001"><ele>348.6</ele><time>2026-03-22T09:02:15.207Z</time></trkpt><trkpt lat="44.3749155" lon="9.5932235"><ele>349.40000000000003</ele><time>2026-03-22T09:02:16.207Z</time></trkpt><trkpt lat="44.3749937" lon="9.5931381"><ele>350.20000000000005</ele><time>2026-03-22T09:02:17.207Z</time></trkpt><trkpt lat="44.3750786" lon="9.5930501"><ele>351.0</ele><time>2026-03-22T09:02:18.206Z</time></trkpt><trkpt lat="44.3751682" lon="9.5929651"><ele>351.0</ele><time>2026-03-22T09:02:19.206Z</time></trkpt><trkpt lat="44.3752719" lon="9.5929397"><ele>351.0</ele><time>2026-03-22T09:02:20.206Z</time></trkpt><trkpt lat="44.3753617" lon="9.5929533"><ele>351.0</ele><time>2026-03-22T09:02:21.206Z</time></trkpt><trkpt lat="44.3754387" lon="9.592978"><ele>351.0</ele><time>2026-03-22T09:02:22.206Z</time></trkpt><trkpt lat="44.3755115" lon="9.593029"><ele>351.0</ele><time>2026-03-22T09:02:23.206Z</time></trkpt><trkpt lat="44.375579" lon="9.5930847"><ele>351.0</ele><time>2026-03-22T09:02:24.206Z</time></trkpt><trkpt lat="44.3756478" lon="9.593146"><ele>351.5</ele><time>2026-03-22T09:02:25.206Z</time></trkpt><trkpt lat="44.3757094" lon="9.5931976"><ele>352.0</ele><time>2026-03-22T09:02:26.206Z</time></trkpt><trkpt lat="44.3757856" lon="9.5932751"><ele>352.5</ele><time>2026-03-22T09:02:27.206Z</time></trkpt><trkpt lat="44.3758672" lon="9.5933567"><ele>353.0</ele><time>2026-03-22T09:02:28.206Z</time></trkpt><trkpt lat="44.3759411" lon="9.5933758"><ele>353.5</ele><time>2026-03-22T09:02:29.206Z</time></trkpt><trkpt lat="44.3760044" lon="9.5934057"><ele>354.0</ele><time>2026-03-22T09:02:30.206Z</time></trkpt><trkpt lat="44.3760821" lon="9.5934002"><ele>354.0</ele><time>2026-03-22T09:02:32.206Z</time></trkpt><trkpt lat="44.3761412" lon="9.5933498"><ele>354.0</ele><time>2026-03-22T09:02:35.206Z</time></trkpt><trkpt lat="44.3762557" lon="9.5933"><ele>354.0</ele><time>2026-03-22T09:02:38.206Z</time></trkpt><trkpt lat="44.3763209" lon="9.5932434"><ele>354.0</ele><time>2026-03-22T09:02:39.207Z</time></trkpt><trkpt lat="44.3763895" lon="9.5931982"><ele>354.0</ele><time>2026-03-22T09:02:40.206Z</time></trkpt><trkpt lat="44.3764565" lon="9.5931409"><ele>354.0</ele><time>2026-03-22T09:02:41.207Z</time></trkpt><trkpt lat="44.3765183" lon="9.5930781"><ele>354.3333333333333</ele><time>2026-03-22T09:02:42.207Z</time></trkpt><trkpt lat="44.3765682" lon="9.5930155"><ele>354.6666666666667</ele><time>2026-03-22T09:02:43.207Z</time></trkpt><trkpt lat="44.376612" lon="9.5929385"><ele>355.0</ele><time>2026-03-22T09:02:44.207Z</time></trkpt><trkpt lat="44.3766538" lon="9.5928461"><ele>355.33333333333337</ele><time>2026-03-22T09:02:45.207Z</time></trkpt><trkpt lat="44.3767002" lon="9.5927602"><ele>355.6666666666667</ele><time>2026-03-22T09:02:46.207Z</time></trkpt><trkpt lat="44.3767671" lon="9.5926735"><ele>356.0</ele><time>2026-03-22T09:02:47.207Z</time></trkpt><trkpt lat="44.3768383" lon="9.5925949"><ele>356.0</ele><time>2026-03-22T09:02:48.206Z</time></trkpt><trkpt lat="44.3769323" lon="9.5925378"><ele>356.0</ele><time>2026-03-22T09:02:49.206Z</time></trkpt><trkpt lat="44.3769922" lon="9.5924626"><ele>356.0</ele><time>2026-03-22T09:02:50.206Z</time></trkpt><trkpt lat="44.3770589" lon="9.5924217"><ele>356.0</ele><time>2026-03-22T09:02:51.206Z</time></trkpt><trkpt lat="44.3771174" lon="9.5923714"><ele>356.0</ele><time>2026-03-22T09:02:52.206Z</time></trkpt><trkpt lat="44.3771742" lon="9.5923168"><ele>356.0</ele><time>2026-03-22T09:02:53.206Z</time></trkpt><trkpt lat="44.3772533" lon="9.5922363"><ele>355.99999999999994</ele><time>2026-03-22T09:02:55.206Z</time></trkpt><trkpt lat="44.3773103" lon="9.5921804"><ele>356.0</ele><time>2026-03-22T09:02:57.206Z</time></trkpt><trkpt lat="44.3773432" lon="9.5921032"><ele>356.0</ele><time>2026-03-22T09:03:01.206Z</time></trkpt><trkpt lat="44.3773877" lon="9.5920391"><ele>356.0</ele><time>2026-03-22T09:03:15.206Z</time></trkpt><trkpt lat="44.3773723" lon="9.5921282"><ele>356.0</ele><time>2026-03-22T09:03:51.206Z</time></trkpt><trkpt lat="44.3773094" lon="9.5921916"><ele>355.99999999999994</ele><time>2026-03-22T09:03:57.207Z</time></trkpt><trkpt lat="44.3772318" lon="9.5922696"><ele>356.0</ele><time>2026-03-22T09:04:00.207Z</time></trkpt><trkpt lat="44.377129" lon="9.5923464"><ele>356.0</ele><time>2026-03-22T09:04:02.206Z</time></trkpt><trkpt lat="44.3770249" lon="9.592444"><ele>356.0</ele><time>2026-03-22T09:04:04.206Z</time></trkpt><trkpt lat="44.376928" lon="9.5925226"><ele>356.0</ele><time>2026-03-22T09:04:06.206Z</time></trkpt><trkpt lat="44.3768471" lon="9.5925929"><ele>356.0</ele><time>2026-03-22T09:04:08.206Z</time></trkpt><trkpt lat="44.3767658" lon="9.5926537"><ele>356.0</ele><time>2026-03-22T09:04:10.207Z</time></trkpt><trkpt lat="44.3766947" lon="9.5927396"><ele>356.0</ele><time>2026-03-22T09:04:12.206Z</time></trkpt><trkpt lat="44.3766538" lon="9.592836"><ele>356.0</ele><time>2026-03-22T09:04:15.207Z</time></trkpt><trkpt lat="44.3766573" lon="9.5929248"><ele>358.0</ele><time>2026-03-22T09:04:20.207Z</time></trkpt></trkseg><trkseg><trkpt lat="44.3766519" lon="9.5929504"><ele>358.0</ele><time>2026-03-22T09:28:00.202Z</time></trkpt><trkpt lat="44.3766377" lon="9.5928592"><ele>358.0</ele><time>2026-03-22T09:28:04.202Z</time></trkpt><trkpt lat="44.3767048" lon="9.5927803"><ele>358.0</ele><time>2026-03-22T09:28:07.202Z</time></trkpt><trkpt lat="44.3767968" lon="9.5927211"><ele>358.0</ele><time>2026-03-22T09:28:09.203Z</time></trkpt><trkpt lat="44.3768762" lon="9.5926513"><ele>358.0</ele><time>2026-03-22T09:28:11.203Z</time></trkpt><trkpt lat="44.3769564" lon="9.5925471"><ele>358.0</ele><time>2026-03-22T09:28:13.203Z</time></trkpt><trkpt lat="44.3770606" lon="9.5924551"><ele>358.0</ele><time>2026-03-22T09:28:15.202Z</time></trkpt><trkpt lat="44.3771211" lon="9.5923979"><ele>358.0</ele><time>2026-03-22T09:28:16.203Z</time></trkpt><trkpt lat="44.3771889" lon="9.5923299"><ele>358.0</ele><time>2026-03-22T09:28:17.202Z</time></trkpt><trkpt lat="44.3772578" lon="9.5922465"><ele>358.0</ele><time>2026-03-22T09:28:18.202Z</time></trkpt><trkpt lat="44.3773232" lon="9.5921454"><ele>358.0</ele><time>2026-03-22T09:28:19.202Z</time></trkpt><trkpt lat="44.3773746" lon="9.5920319"><ele>358.0</ele><time>2026-03-22T09:28:20.203Z</time></trkpt><trkpt lat="44.3774219" lon="9.5919218"><ele>358.0</ele><time>2026-03-22T09:28:21.202Z</time></trkpt><trkpt lat="44.3774797" lon="9.5918209"><ele>358.0</ele><time>2026-03-22T09:28:22.202Z</time></trkpt><trkpt lat="44.3775435" lon="9.5917253"><ele>358.0</ele><time>2026-03-22T09:28:23.202Z</time></trkpt><trkpt lat="44.3776074" lon="9.5916339"><ele>357.7142857142857</ele><time>2026-03-22T09:28:24.203Z</time></trkpt><trkpt lat="44.3776719" lon="9.5915481"><ele>357.42857142857144</ele><time>2026-03-22T09:28:25.202Z</time></trkpt><trkpt lat="44.3777301" lon="9.5914716"><ele>357.1428571428571</ele><time>2026-03-22T09:28:26.202Z</time></trkpt><trkpt lat="44.3777857" lon="9.5913985"><ele>356.8571428571429</ele><time>2026-03-22T09:28:27.203Z</time></trkpt><trkpt lat="44.3778366" lon="9.5913286"><ele>356.57142857142856</ele><time>2026-03-22T09:28:28.203Z</time></trkpt><trkpt lat="44.3778855" lon="9.5912694"><ele>356.2857142857143</ele><time>2026-03-22T09:28:29.201Z</time></trkpt><trkpt lat="44.3779368" lon="9.591213"><ele>356.0</ele><time>2026-03-22T09:28:30.202Z</time></trkpt><trkpt lat="44.3779871" lon="9.5911526"><ele>355.5</ele><time>2026-03-22T09:28:31.203Z</time></trkpt><trkpt lat="44.3780438" lon="9.5910895"><ele>355.0</ele><time>2026-03-22T09:28:32.202Z</time></trkpt><trkpt lat="44.3781041" lon="9.5910255"><ele>354.5</ele><time>2026-03-22T09:28:33.203Z</time></trkpt><trkpt lat="44.3781676" lon="9.5909546"><ele>354.0</ele><time>2026-03-22T09:28:34.202Z</time></trkpt><trkpt lat="44.3782361" lon="9.590878"><ele>353.5</ele><time>2026-03-22T09:28:35.202Z</time></trkpt><trkpt lat="44.3783082" lon="9.5908074"><ele>353.0</ele><time>2026-03-22T09:28:36.202Z</time></trkpt><trkpt lat="44.3783798" lon="9.5907277"><ele>353.0</ele><time>2026-03-22T09:28:37.203Z</time></trkpt><trkpt lat="44.3784454" lon="9.5906507"><ele>353.0</ele><time>2026-03-22T09:28:38.202Z</time></trkpt><trkpt lat="44.3785057" lon="9.5905802"><ele>353.0</ele><time>2026-03-22T09:28:39.202Z</time></trkpt><trkpt lat="44.3785705" lon="9.5905037"><ele>353.0</ele><time>2026-03-22T09:28:40.203Z</time></trkpt><trkpt lat="44.3786366" lon="9.5904211"><ele>353.0</ele><time>2026-03-22T09:28:41.203Z</time></trkpt><trkpt lat="44.37871" lon="9.5903312"><ele>353.0</ele><time>2026-03-22T09:28:42.202Z</time></trkpt><trkpt lat="44.378791" lon="9.5902332"><ele>353.59999999999997</ele><time>2026-03-22T09:28:43.202Z</time></trkpt><trkpt lat="44.3788704" lon="9.5901384"><ele>354.2</ele><time>2026-03-22T09:28:44.203Z</time></trkpt><trkpt lat="44.3789569" lon="9.590047"><ele>354.8</ele><time>2026-03-22T09:28:45.202Z</time></trkpt><trkpt lat="44.3790417" lon="9.5899447"><ele>355.4</ele><time>2026-03-22T09:28:46.203Z</time></trkpt><trkpt lat="44.3791285" lon="9.5898339"><ele>356.0</ele><time>2026-03-22T09:28:47.202Z</time></trkpt><trkpt lat="44.379218" lon="9.5897276"><ele>356.0</ele><time>2026-03-22T09:28:48.202Z</time></trkpt><trkpt lat="44.3793097" lon="9.5896204"><ele>356.0</ele><time>2026-03-22T09:28:49.202Z</time></trkpt><trkpt lat="44.379411" lon="9.5895109"><ele>356.0</ele><time>2026-03-22T09:28:50.203Z</time></trkpt><trkpt lat="44.3795103" lon="9.5894111"><ele>356.0</ele><time>2026-03-22T09:28:51.202Z</time></trkpt><trkpt lat="44.3796101" lon="9.5893054"><ele>356.0</ele><time>2026-03-22T09:28:52.202Z</time></trkpt><trkpt lat="44.3797143" lon="9.5892104"><ele>356.0</ele><time>2026-03-22T09:28:53.202Z</time></trkpt><trkpt lat="44.3798315" lon="9.5891058"><ele>356.0</ele><time>2026-03-22T09:28:54.203Z</time></trkpt><trkpt lat="44.3799664" lon="9.5890017"><ele>356.0</ele><time>2026-03-22T09:28:55.202Z</time></trkpt><trkpt lat="44.3801114" lon="9.5889041"><ele>356.0</ele><time>2026-03-22T09:28:56.202Z</time></trkpt><trkpt lat="44.38025" lon="9.5888116"><ele>356.0</ele><time>2026-03-22T09:28:57.203Z</time></trkpt><trkpt lat="44.380381" lon="9.5887264"><ele>356.0</ele><time>2026-03-22T09:28:58.202Z</time></trkpt><trkpt lat="44.3805081" lon="9.5886447"><ele>356.0</ele><time>2026-03-22T09:28:59.202Z</time></trkpt><trkpt lat="44.3806376" lon="9.5885677"><ele>356.25</ele><time>2026-03-22T09:29:00.202Z</time></trkpt><trkpt lat="44.3807725" lon="9.5884949"><ele>356.5</ele><time>2026-03-22T09:29:01.202Z</time></trkpt><trkpt lat="44.3809112" lon="9.5884276"><ele>356.75</ele><time>2026-03-22T09:29:02.202Z</time></trkpt><trkpt lat="44.3810543" lon="9.5883647"><ele>357.0</ele><time>2026-03-22T09:29:03.202Z</time></trkpt><trkpt lat="44.381202" lon="9.5883122"><ele>357.0</ele><time>2026-03-22T09:29:04.203Z</time></trkpt><trkpt lat="44.3813462" lon="9.5882457"><ele>357.0</ele><time>2026-03-22T09:29:05.202Z</time></trkpt><trkpt lat="44.3814903" lon="9.5881765"><ele>357.0</ele><time>2026-03-22T09:29:06.202Z</time></trkpt><trkpt lat="44.3816301" lon="9.5881053"><ele>357.25</ele><time>2026-03-22T09:29:07.203Z</time></trkpt><trkpt lat="44.3817719" lon="9.588036"><ele>357.5</ele><time>2026-03-22T09:29:08.203Z</time></trkpt><trkpt lat="44.3819088" lon="9.5879632"><ele>357.75</ele><time>2026-03-22T09:29:09.202Z</time></trkpt><trkpt lat="44.3820444" lon="9.5878851"><ele>358.0</ele><time>2026-03-22T09:29:10.202Z</time></trkpt><trkpt lat="44.3821772" lon="9.5878146"><ele>359.5</ele><time>2026-03-22T09:29:11.203Z</time></trkpt><trkpt lat="44.3823115" lon="9.5877565"><ele>361.0</ele><time>2026-03-22T09:29:12.202Z</time></trkpt><trkpt lat="44.3824437" lon="9.5876856"><ele>362.5</ele><time>2026-03-22T09:29:13.202Z</time></trkpt><trkpt lat="44.3825748" lon="9.5876055"><ele>364.0</ele><time>2026-03-22T09:29:14.202Z</time></trkpt><trkpt lat="44.3827056" lon="9.5875272"><ele>364.0</ele><time>2026-03-22T09:29:15.202Z</time></trkpt><trkpt lat="44.3828276" lon="9.5874358"><ele>364.0</ele><time>2026-03-22T09:29:16.202Z</time></trkpt><trkpt lat="44.3829496" lon="9.5873359"><ele>364.0</ele><time>2026-03-22T09:29:17.202Z</time></trkpt><trkpt lat="44.383074" lon="9.5872418"><ele>364.0</ele><time>2026-03-22T09:29:18.202Z</time></trkpt><trkpt lat="44.3831993" lon="9.5871495"><ele>364.3333333333333</ele><time>2026-03-22T09:29:19.202Z</time></trkpt><trkpt lat="44.383324" lon="9.5870518"><ele>364.6666666666667</ele><time>2026-03-22T09:29:20.202Z</time></trkpt><trkpt lat="44.3834494" lon="9.5869496"><ele>365.0</ele><time>2026-03-22T09:29:21.202Z</time></trkpt><trkpt lat="44.3837014" lon="9.5867643"><ele>365.0</ele><time>2026-03-22T09:29:23.202Z</time></trkpt><trkpt lat="44.38383" lon="9.5866637"><ele>365.0</ele><time>2026-03-22T09:29:24.202Z</time></trkpt><trkpt lat="44.3840584" lon="9.5864138"><ele>365.0</ele><time>2026-03-22T09:29:26.203Z</time></trkpt><trkpt lat="44.3841607" lon="9.5862494"><ele>367.0</ele><time>2026-03-22T09:29:27.203Z</time></trkpt><trkpt lat="44.3842692" lon="9.5860982"><ele>369.0</ele><time>2026-03-22T09:29:28.203Z</time></trkpt><trkpt lat="44.3843755" lon="9.5859307"><ele>371.0</ele><time>2026-03-22T09:29:29.202Z</time></trkpt><trkpt lat="44.3844941" lon="9.5857728"><ele>371.0</ele><time>2026-03-22T09:29:30.202Z</time></trkpt><trkpt lat="44.3846187" lon="9.5856253"><ele>371.0</ele><time>2026-03-22T09:29:31.202Z</time></trkpt><trkpt lat="44.3847471" lon="9.5854865"><ele>371.0</ele><time>2026-03-22T09:29:32.202Z</time></trkpt><trkpt lat="44.3848728" lon="9.5853442"><ele>371.0</ele><time>2026-03-22T09:29:33.202Z</time></trkpt><trkpt lat="44.3850033" lon="9.5852081"><ele>371.0</ele><time>2026-03-22T09:29:34.202Z</time></trkpt><trkpt lat="44.3851212" lon="9.5850594"><ele>371.0</ele><time>2026-03-22T09:29:35.202Z</time></trkpt><trkpt lat="44.3852346" lon="9.584911"><ele>371.0</ele><time>2026-03-22T09:29:36.202Z</time></trkpt><trkpt lat="44.3853464" lon="9.5847482"><ele>371.0</ele><time>2026-03-22T09:29:37.202Z</time></trkpt><trkpt lat="44.3854488" lon="9.5845752"><ele>371.0</ele><time>2026-03-22T09:29:38.202Z</time></trkpt><trkpt lat="44.3855421" lon="9.5843852"><ele>373.33333333333337</ele><time>2026-03-22T09:29:39.202Z</time></trkpt><trkpt lat="44.3856357" lon="9.5842059"><ele>375.6666666666667</ele><time>2026-03-22T09:29:40.202Z</time></trkpt><trkpt lat="44.3857268" lon="9.5840328"><ele>378.0</ele><time>2026-03-22T09:29:41.202Z</time></trkpt><trkpt lat="44.385818" lon="9.5838614"><ele>378.0</ele><time>2026-03-22T09:29:42.202Z</time></trkpt><trkpt lat="44.3859014" lon="9.5836948"><ele>378.0</ele><time>2026-03-22T09:29:43.202Z</time></trkpt><trkpt lat="44.385973" lon="9.583522"><ele>378.0</ele><time>2026-03-22T09:29:44.202Z</time></trkpt><trkpt lat="44.3860314" lon="9.5833344"><ele>378.0</ele><time>2026-03-22T09:29:45.202Z</time></trkpt><trkpt lat="44.3860634" lon="9.583131"><ele>375.3333333333333</ele><time>2026-03-22T09:29:46.202Z</time></trkpt><trkpt lat="44.3860738" lon="9.582918"><ele>372.66666666666663</ele><time>2026-03-22T09:29:47.202Z</time></trkpt><trkpt lat="44.3860811" lon="9.5826984"><ele>370.0</ele><time>2026-03-22T09:29:48.202Z</time></trkpt><trkpt lat="44.3860855" lon="9.5824791"><ele>369.3333333333333</ele><time>2026-03-22T09:29:49.202Z</time></trkpt><trkpt lat="44.3860931" lon="9.5822642"><ele>368.6666666666667</ele><time>2026-03-22T09:29:50.203Z</time></trkpt><trkpt lat="44.3860984" lon="9.5820422"><ele>368.0</ele><time>2026-03-22T09:29:51.203Z</time></trkpt><trkpt lat="44.3861022" lon="9.581819"><ele>368.0</ele><time>2026-03-22T09:29:52.203Z</time></trkpt><trkpt lat="44.3861085" lon="9.5815889"><ele>368.0</ele><time>2026-03-22T09:29:53.202Z</time></trkpt><trkpt lat="44.3861104" lon="9.5813531"><ele>368.0</ele><time>2026-03-22T09:29:54.203Z</time></trkpt><trkpt lat="44.386109" lon="9.5811106"><ele>369.33333333333337</ele><time>2026-03-22T09:29:55.203Z</time></trkpt><trkpt lat="44.386103" lon="9.5808569"><ele>370.6666666666667</ele><time>2026-03-22T09:29:56.202Z</time></trkpt><trkpt lat="44.3860978" lon="9.580593"><ele>372.0</ele><time>2026-03-22T09:29:57.202Z</time></trkpt><trkpt lat="44.3860859" lon="9.5803242"><ele>374.0</ele><time>2026-03-22T09:29:58.202Z</time></trkpt><trkpt lat="44.3860586" lon="9.5800672"><ele>376.0</ele><time>2026-03-22T09:29:59.203Z</time></trkpt><trkpt lat="44.386028" lon="9.579814"><ele>378.0</ele><time>2026-03-22T09:30:00.203Z</time></trkpt><trkpt lat="44.3859971" lon="9.5795739"><ele>379.6666666666667</ele><time>2026-03-22T09:30:01.203Z</time></trkpt><trkpt lat="44.3859691" lon="9.5793304"><ele>381.33333333333337</ele><time>2026-03-22T09:30:02.202Z</time></trkpt><trkpt lat="44.3859548" lon="9.5790884"><ele>383.0</ele><time>2026-03-22T09:30:03.202Z</time></trkpt><trkpt lat="44.3859429" lon="9.5788425"><ele>383.33333333333337</ele><time>2026-03-22T09:30:04.203Z</time></trkpt><trkpt lat="44.3859358" lon="9.5785945"><ele>383.6666666666667</ele><time>2026-03-22T09:30:05.203Z</time></trkpt><trkpt lat="44.3859259" lon="9.5783578"><ele>384.0</ele><time>2026-03-22T09:30:06.203Z</time></trkpt><trkpt lat="44.3859123" lon="9.5781251"><ele>384.0</ele><time>2026-03-22T09:30:07.202Z</time></trkpt><trkpt lat="44.3858935" lon="9.5778817"><ele>384.0</ele><time>2026-03-22T09:30:08.202Z</time></trkpt><trkpt lat="44.3858607" lon="9.5776431"><ele>384.0</ele><time>2026-03-22T09:30:09.202Z</time></trkpt><trkpt lat="44.3858094" lon="9.5773952"><ele>385.0</ele><time>2026-03-22T09:30:10.202Z</time></trkpt><trkpt lat="44.3857365" lon="9.5771601"><ele>386.0</ele><time>2026-03-22T09:30:11.202Z</time></trkpt><trkpt lat="44.3856583" lon="9.5769329"><ele>387.0</ele><time>2026-03-22T09:30:12.202Z</time></trkpt><trkpt lat="44.3855767" lon="9.5767124"><ele>385.0</ele><time>2026-03-22T09:30:13.203Z</time></trkpt><trkpt lat="44.3854976" lon="9.5764981"><ele>383.0</ele><time>2026-03-22T09:30:14.202Z</time></trkpt><trkpt lat="44.3854256" lon="9.5762961"><ele>381.0</ele><time>2026-03-22T09:30:15.202Z</time></trkpt><trkpt lat="44.3853561" lon="9.5761054"><ele>381.0</ele><time>2026-03-22T09:30:16.203Z</time></trkpt><trkpt lat="44.3852915" lon="9.5759244"><ele>381.0</ele><time>2026-03-22T09:30:17.202Z</time></trkpt><trkpt lat="44.3852695" lon="9.5757431"><ele>381.0</ele><time>2026-03-22T09:30:18.202Z</time></trkpt><trkpt lat="44.3852997" lon="9.5755663"><ele>381.0</ele><time>2026-03-22T09:30:19.202Z</time></trkpt><trkpt lat="44.38537" lon="9.575397"><ele>381.0</ele><time>2026-03-22T09:30:20.202Z</time></trkpt><trkpt lat="44.3854689" lon="9.5752262"><ele>381.0</ele><time>2026-03-22T09:30:21.202Z</time></trkpt><trkpt lat="44.3855661" lon="9.5750703"><ele>381.0</ele><time>2026-03-22T09:30:22.202Z</time></trkpt><trkpt lat="44.385662" lon="9.5749209"><ele>381.0</ele><time>2026-03-22T09:30:23.202Z</time></trkpt><trkpt lat="44.3857522" lon="9.5747724"><ele>381.5</ele><time>2026-03-22T09:30:24.202Z</time></trkpt><trkpt lat="44.3858402" lon="9.5746228"><ele>382.0</ele><time>2026-03-22T09:30:25.203Z</time></trkpt><trkpt lat="44.3858439" lon="9.5744214"><ele>382.5</ele><time>2026-03-22T09:30:26.203Z</time></trkpt><trkpt lat="44.3858344" lon="9.5742184"><ele>383.0</ele><time>2026-03-22T09:30:27.202Z</time></trkpt><trkpt lat="44.3857961" lon="9.5740124"><ele>383.0</ele><time>2026-03-22T09:30:28.202Z</time></trkpt><trkpt lat="44.3857442" lon="9.5738209"><ele>383.0</ele><time>2026-03-22T09:30:29.203Z</time></trkpt><trkpt lat="44.3856913" lon="9.5736331"><ele>383.0</ele><time>2026-03-22T09:30:30.202Z</time></trkpt><trkpt lat="44.3856308" lon="9.5734357"><ele>383.0</ele><time>2026-03-22T09:30:31.203Z</time></trkpt><trkpt lat="44.3855719" lon="9.5732327"><ele>384.0</ele><time>2026-03-22T09:30:32.202Z</time></trkpt><trkpt lat="44.3855227" lon="9.5730166"><ele>385.0</ele><time>2026-03-22T09:30:33.202Z</time></trkpt><trkpt lat="44.3854957" lon="9.5727623"><ele>386.0</ele><time>2026-03-22T09:30:34.203Z</time></trkpt><trkpt lat="44.385479" lon="9.5725023"><ele>385.66666666666663</ele><time>2026-03-22T09:30:35.202Z</time></trkpt><trkpt lat="44.3854568" lon="9.5722534"><ele>385.33333333333337</ele><time>2026-03-22T09:30:36.202Z</time></trkpt><trkpt lat="44.3854215" lon="9.5720107"><ele>385.0</ele><time>2026-03-22T09:30:37.202Z</time></trkpt><trkpt lat="44.3853778" lon="9.5717629"><ele>385.0</ele><time>2026-03-22T09:30:38.202Z</time></trkpt><trkpt lat="44.3853251" lon="9.5715204"><ele>385.0</ele><time>2026-03-22T09:30:39.202Z</time></trkpt><trkpt lat="44.3852729" lon="9.5712855"><ele>385.0</ele><time>2026-03-22T09:30:40.202Z</time></trkpt><trkpt lat="44.3852257" lon="9.5710577"><ele>386.0</ele><time>2026-03-22T09:30:41.202Z</time></trkpt><trkpt lat="44.3851497" lon="9.5708625"><ele>387.0</ele><time>2026-03-22T09:30:42.202Z</time></trkpt><trkpt lat="44.385053" lon="9.570703"><ele>388.0</ele><time>2026-03-22T09:30:43.202Z</time></trkpt><trkpt lat="44.3849625" lon="9.5705503"><ele>388.0</ele><time>2026-03-22T09:30:44.202Z</time></trkpt><trkpt lat="44.3848907" lon="9.570386"><ele>388.0</ele><time>2026-03-22T09:30:45.203Z</time></trkpt><trkpt lat="44.3848378" lon="9.5701919"><ele>388.0</ele><time>2026-03-22T09:30:46.202Z</time></trkpt><trkpt lat="44.3848147" lon="9.5699805"><ele>388.0</ele><time>2026-03-22T09:30:47.202Z</time></trkpt><trkpt lat="44.384821" lon="9.5697376"><ele>390.6666666666667</ele><time>2026-03-22T09:30:48.203Z</time></trkpt><trkpt lat="44.3848362" lon="9.5694829"><ele>393.33333333333337</ele><time>2026-03-22T09:30:49.203Z</time></trkpt><trkpt lat="44.3848644" lon="9.5692188"><ele>396.0</ele><time>2026-03-22T09:30:50.203Z</time></trkpt><trkpt lat="44.3848892" lon="9.5689556"><ele>396.33333333333337</ele><time>2026-03-22T09:30:51.203Z</time></trkpt><trkpt lat="44.3849076" lon="9.5686915"><ele>396.6666666666667</ele><time>2026-03-22T09:30:52.203Z</time></trkpt><trkpt lat="44.3849271" lon="9.5684293"><ele>397.0</ele><time>2026-03-22T09:30:53.202Z</time></trkpt><trkpt lat="44.3849594" lon="9.5681748"><ele>397.0</ele><time>2026-03-22T09:30:54.202Z</time></trkpt><trkpt lat="44.3849924" lon="9.5679304"><ele>397.0</ele><time>2026-03-22T09:30:55.202Z</time></trkpt><trkpt lat="44.3850164" lon="9.5677065"><ele>397.0</ele><time>2026-03-22T09:30:56.203Z</time></trkpt><trkpt lat="44.3850543" lon="9.567502"><ele>396.0</ele><time>2026-03-22T09:30:57.203Z</time></trkpt><trkpt lat="44.3851159" lon="9.5673256"><ele>395.0</ele><time>2026-03-22T09:30:58.203Z</time></trkpt><trkpt lat="44.3851991" lon="9.5671777"><ele>394.0</ele><time>2026-03-22T09:30:59.203Z</time></trkpt><trkpt lat="44.3853077" lon="9.5670523"><ele>393.0</ele><time>2026-03-22T09:31:00.203Z</time></trkpt><trkpt lat="44.3854411" lon="9.566926"><ele>396.33333333333337</ele><time>2026-03-22T09:31:01.203Z</time></trkpt><trkpt lat="44.3855749" lon="9.5668027"><ele>399.6666666666667</ele><time>2026-03-22T09:31:02.202Z</time></trkpt><trkpt lat="44.3857215" lon="9.566676"><ele>403.0</ele><time>2026-03-22T09:31:03.202Z</time></trkpt><trkpt lat="44.3858857" lon="9.5665468"><ele>403.0</ele><time>2026-03-22T09:31:04.203Z</time></trkpt><trkpt lat="44.3860574" lon="9.566415"><ele>403.0</ele><time>2026-03-22T09:31:05.203Z</time></trkpt><trkpt lat="44.3862169" lon="9.5662893"><ele>403.0</ele><time>2026-03-22T09:31:06.202Z</time></trkpt><trkpt lat="44.3863638" lon="9.5661377"><ele>403.0</ele><time>2026-03-22T09:31:07.202Z</time></trkpt><trkpt lat="44.386517" lon="9.5659896"><ele>403.0</ele><time>2026-03-22T09:31:08.203Z</time></trkpt><trkpt lat="44.3866497" lon="9.5658379"><ele>403.0</ele><time>2026-03-22T09:31:09.202Z</time></trkpt><trkpt lat="44.3867936" lon="9.5656898"><ele>403.0</ele><time>2026-03-22T09:31:10.202Z</time></trkpt><trkpt lat="44.3869367" lon="9.5655701"><ele>403.0</ele><time>2026-03-22T09:31:11.203Z</time></trkpt><trkpt lat="44.3870802" lon="9.5654736"><ele>403.0</ele><time>2026-03-22T09:31:12.203Z</time></trkpt><trkpt lat="44.387228" lon="9.5653755"><ele>403.6666666666667</ele><time>2026-03-22T09:31:13.202Z</time></trkpt><trkpt lat="44.387369" lon="9.5652587"><ele>404.33333333333337</ele><time>2026-03-22T09:31:14.202Z</time></trkpt><trkpt lat="44.3875073" lon="9.5651155"><ele>405.0</ele><time>2026-03-22T09:31:15.202Z</time></trkpt><trkpt lat="44.3876448" lon="9.5649611"><ele>405.0</ele><time>2026-03-22T09:31:16.202Z</time></trkpt><trkpt lat="44.3877737" lon="9.5647882"><ele>405.0</ele><time>2026-03-22T09:31:17.203Z</time></trkpt><trkpt lat="44.3878912" lon="9.5646227"><ele>405.0</ele><time>2026-03-22T09:31:18.203Z</time></trkpt><trkpt lat="44.3880093" lon="9.5644639"><ele>409.0</ele><time>2026-03-22T09:31:19.202Z</time></trkpt><trkpt lat="44.3880554" lon="9.5642692"><ele>413.0</ele><time>2026-03-22T09:31:20.202Z</time></trkpt><trkpt lat="44.3881404" lon="9.5640911"><ele>417.0</ele><time>2026-03-22T09:31:21.202Z</time></trkpt><trkpt lat="44.3881732" lon="9.5638552"><ele>415.25</ele><time>2026-03-22T09:31:22.202Z</time></trkpt><trkpt lat="44.3882248" lon="9.5636719"><ele>413.5</ele><time>2026-03-22T09:31:23.202Z</time></trkpt><trkpt lat="44.3882622" lon="9.5635241"><ele>411.75</ele><time>2026-03-22T09:31:24.202Z</time></trkpt><trkpt lat="44.3883139" lon="9.5634077"><ele>410.0</ele><time>2026-03-22T09:31:25.202Z</time></trkpt><trkpt lat="44.3883959" lon="9.5633179"><ele>410.0</ele><time>2026-03-22T09:31:26.202Z</time></trkpt><trkpt lat="44.3884866" lon="9.5632195"><ele>410.0</ele><time>2026-03-22T09:31:27.202Z</time></trkpt><trkpt lat="44.3885735" lon="9.5631048"><ele>410.0</ele><time>2026-03-22T09:31:28.202Z</time></trkpt><trkpt lat="44.3886435" lon="9.5629557"><ele>410.0</ele><time>2026-03-22T09:31:29.202Z</time></trkpt><trkpt lat="44.3886936" lon="9.5627693"><ele>408.0</ele><time>2026-03-22T09:31:30.202Z</time></trkpt><trkpt lat="44.3887391" lon="9.5626098"><ele>406.0</ele><time>2026-03-22T09:31:31.202Z</time></trkpt><trkpt lat="44.3888122" lon="9.5624512"><ele>404.0</ele><time>2026-03-22T09:31:32.202Z</time></trkpt><trkpt lat="44.3889025" lon="9.5622856"><ele>402.0</ele><time>2026-03-22T09:31:33.203Z</time></trkpt><trkpt lat="44.3889987" lon="9.5621364"><ele>406.6</ele><time>2026-03-22T09:31:34.203Z</time></trkpt><trkpt lat="44.3890745" lon="9.5619979"><ele>411.20000000000005</ele><time>2026-03-22T09:31:35.203Z</time></trkpt><trkpt lat="44.3891479" lon="9.5619204"><ele>415.8</ele><time>2026-03-22T09:31:36.202Z</time></trkpt><trkpt lat="44.389224" lon="9.5618461"><ele>420.4</ele><time>2026-03-22T09:31:37.202Z</time></trkpt><trkpt lat="44.3892826" lon="9.5617918"><ele>425.0</ele><time>2026-03-22T09:31:38.202Z</time></trkpt><trkpt lat="44.3893427" lon="9.561719"><ele>425.0</ele><time>2026-03-22T09:31:39.202Z</time></trkpt><trkpt lat="44.3893624" lon="9.5614856"><ele>425.0</ele><time>2026-03-22T09:31:41.202Z</time></trkpt><trkpt lat="44.3892793" lon="9.5613499"><ele>425.0</ele><time>2026-03-22T09:31:42.203Z</time></trkpt><trkpt lat="44.3892769" lon="9.5612157"><ele>425.0</ele><time>2026-03-22T09:31:43.203Z</time></trkpt><trkpt lat="44.389269" lon="9.5610674"><ele>423.2</ele><time>2026-03-22T09:31:44.203Z</time></trkpt><trkpt lat="44.3893082" lon="9.5609462"><ele>421.4</ele><time>2026-03-22T09:31:45.203Z</time></trkpt><trkpt lat="44.3893424" lon="9.5608237"><ele>419.6</ele><time>2026-03-22T09:31:46.202Z</time></trkpt><trkpt lat="44.3894581" lon="9.5608646"><ele>417.8</ele><time>2026-03-22T09:31:47.202Z</time></trkpt><trkpt lat="44.3895503" lon="9.5608363"><ele>416.0</ele><time>2026-03-22T09:31:48.202Z</time></trkpt><trkpt lat="44.389668" lon="9.560821"><ele>422.20000000000005</ele><time>2026-03-22T09:31:49.203Z</time></trkpt><trkpt lat="44.3897883" lon="9.5608077"><ele>428.40000000000003</ele><time>2026-03-22T09:31:50.203Z</time></trkpt><trkpt lat="44.3898955" lon="9.5608011"><ele>434.6</ele><time>2026-03-22T09:31:51.203Z</time></trkpt><trkpt lat="44.3899925" lon="9.5607832"><ele>440.8</ele><time>2026-03-22T09:31:52.203Z</time></trkpt><trkpt lat="44.3900922" lon="9.5607703"><ele>447.0</ele><time>2026-03-22T09:31:53.202Z</time></trkpt><trkpt lat="44.3901593" lon="9.5607035"><ele>447.0</ele><time>2026-03-22T09:31:54.202Z</time></trkpt><trkpt lat="44.3901421" lon="9.5604387"><ele>447.0</ele><time>2026-03-22T09:31:55.202Z</time></trkpt><trkpt lat="44.3900941" lon="9.5602714"><ele>447.0</ele><time>2026-03-22T09:31:57.202Z</time></trkpt><trkpt lat="44.3900461" lon="9.5601994"><ele>447.0</ele><time>2026-03-22T09:31:58.202Z</time></trkpt><trkpt lat="44.3899326" lon="9.560216"><ele>446.8</ele><time>2026-03-22T09:31:59.202Z</time></trkpt><trkpt lat="44.3898616" lon="9.5601815"><ele>446.6</ele><time>2026-03-22T09:32:00.203Z</time></trkpt><trkpt lat="44.3897871" lon="9.5601497"><ele>446.40000000000003</ele><time>2026-03-22T09:32:01.202Z</time></trkpt><trkpt lat="44.3897543" lon="9.560028"><ele>446.20000000000005</ele><time>2026-03-22T09:32:02.202Z</time></trkpt><trkpt lat="44.3897765" lon="9.5598795"><ele>446.0</ele><time>2026-03-22T09:32:03.202Z</time></trkpt><trkpt lat="44.3899213" lon="9.5597824"><ele>446.0</ele><time>2026-03-22T09:32:04.203Z</time></trkpt><trkpt lat="44.3899323" lon="9.5596687"><ele>446.0</ele><time>2026-03-22T09:32:05.203Z</time></trkpt><trkpt lat="44.3899309" lon="9.5595491"><ele>446.0</ele><time>2026-03-22T09:32:06.203Z</time></trkpt><trkpt lat="44.3899354" lon="9.5594019"><ele>446.0</ele><time>2026-03-22T09:32:07.202Z</time></trkpt><trkpt lat="44.3899325" lon="9.5592749"><ele>446.0</ele><time>2026-03-22T09:32:08.202Z</time></trkpt><trkpt lat="44.389919" lon="9.5591406"><ele>446.25</ele><time>2026-03-22T09:32:09.202Z</time></trkpt><trkpt lat="44.389961" lon="9.5590382"><ele>446.5</ele><time>2026-03-22T09:32:10.202Z</time></trkpt><trkpt lat="44.390055" lon="9.5589736"><ele>446.75</ele><time>2026-03-22T09:32:11.203Z</time></trkpt><trkpt lat="44.3902285" lon="9.5590486"><ele>447.0</ele><time>2026-03-22T09:32:12.202Z</time></trkpt><trkpt lat="44.3904187" lon="9.5592166"><ele>454.0</ele><time>2026-03-22T09:32:13.203Z</time></trkpt><trkpt lat="44.3905388" lon="9.5592434"><ele>461.00000000000006</ele><time>2026-03-22T09:32:14.203Z</time></trkpt><trkpt lat="44.390645" lon="9.5592939"><ele>468.00000000000006</ele><time>2026-03-22T09:32:15.202Z</time></trkpt><trkpt lat="44.3907314" lon="9.5593005"><ele>475.0</ele><time>2026-03-22T09:32:16.203Z</time></trkpt><trkpt lat="44.3907" lon="9.5591311"><ele>482.0</ele><time>2026-03-22T09:32:19.203Z</time></trkpt><trkpt lat="44.3905945" lon="9.5589505"><ele>482.0</ele><time>2026-03-22T09:32:20.202Z</time></trkpt><trkpt lat="44.3905368" lon="9.5587645"><ele>482.0</ele><time>2026-03-22T09:32:21.202Z</time></trkpt><trkpt lat="44.3905014" lon="9.5585917"><ele>482.0</ele><time>2026-03-22T09:32:22.202Z</time></trkpt><trkpt lat="44.3904747" lon="9.5584234"><ele>482.0</ele><time>2026-03-22T09:32:23.202Z</time></trkpt><trkpt lat="44.3905279" lon="9.558305"><ele>481.8333333333333</ele><time>2026-03-22T09:32:24.202Z</time></trkpt><trkpt lat="44.3905801" lon="9.5582186"><ele>481.66666666666663</ele><time>2026-03-22T09:32:25.202Z</time></trkpt><trkpt lat="44.3906512" lon="9.5581595"><ele>481.5</ele><time>2026-03-22T09:32:26.202Z</time></trkpt><trkpt lat="44.3907206" lon="9.5581018"><ele>481.33333333333337</ele><time>2026-03-22T09:32:27.202Z</time></trkpt><trkpt lat="44.3907777" lon="9.5580489"><ele>481.1666666666667</ele><time>2026-03-22T09:32:28.202Z</time></trkpt><trkpt lat="44.3907968" lon="9.5579363"><ele>481.0</ele><time>2026-03-22T09:32:29.203Z</time></trkpt><trkpt lat="44.3908443" lon="9.5578543"><ele>480.6</ele><time>2026-03-22T09:32:30.201Z</time></trkpt><trkpt lat="44.39079" lon="9.5577333"><ele>480.20000000000005</ele><time>2026-03-22T09:32:31.201Z</time></trkpt><trkpt lat="44.3907036" lon="9.5575726"><ele>479.79999999999995</ele><time>2026-03-22T09:32:32.202Z</time></trkpt><trkpt lat="44.3906815" lon="9.5574465"><ele>479.4</ele><time>2026-03-22T09:32:33.201Z</time></trkpt><trkpt lat="44.3906903" lon="9.5573312"><ele>479.0</ele><time>2026-03-22T09:32:34.201Z</time></trkpt><trkpt lat="44.3906937" lon="9.5572077"><ele>479.0</ele><time>2026-03-22T09:32:35.201Z</time></trkpt><trkpt lat="44.3907469" lon="9.5570796"><ele>479.0</ele><time>2026-03-22T09:32:36.201Z</time></trkpt><trkpt lat="44.3908021" lon="9.5569894"><ele>479.0</ele><time>2026-03-22T09:32:37.201Z</time></trkpt><trkpt lat="44.390952" lon="9.5569117"><ele>479.0</ele><time>2026-03-22T09:32:38.201Z</time></trkpt><trkpt lat="44.3910582" lon="9.5568253"><ele>475.3333333333333</ele><time>2026-03-22T09:32:39.201Z</time></trkpt><trkpt lat="44.3912857" lon="9.5569511"><ele>471.66666666666663</ele><time>2026-03-22T09:32:40.202Z</time></trkpt><trkpt lat="44.3914168" lon="9.5568903"><ele>468.0</ele><time>2026-03-22T09:32:41.201Z</time></trkpt><trkpt lat="44.3915669" lon="9.5568085"><ele>474.5</ele><time>2026-03-22T09:32:42.201Z</time></trkpt><trkpt lat="44.3916936" lon="9.5566595"><ele>481.0</ele><time>2026-03-22T09:32:43.202Z</time></trkpt><trkpt lat="44.3917336" lon="9.5565846"><ele>487.5</ele><time>2026-03-22T09:32:44.202Z</time></trkpt><trkpt lat="44.3917993" lon="9.5564735"><ele>494.0</ele><time>2026-03-22T09:32:45.202Z</time></trkpt><trkpt lat="44.391719" lon="9.5562683"><ele>493.0</ele><time>2026-03-22T09:32:46.201Z</time></trkpt><trkpt lat="44.3917097" lon="9.5561084"><ele>492.0</ele><time>2026-03-22T09:32:47.201Z</time></trkpt><trkpt lat="44.39166" lon="9.5559921"><ele>491.0</ele><time>2026-03-22T09:32:48.201Z</time></trkpt><trkpt lat="44.3915855" lon="9.5558844"><ele>490.0</ele><time>2026-03-22T09:32:49.201Z</time></trkpt><trkpt lat="44.3915901" lon="9.5557691"><ele>489.0</ele><time>2026-03-22T09:32:50.201Z</time></trkpt><trkpt lat="44.3916964" lon="9.5557096"><ele>489.0</ele><time>2026-03-22T09:32:52.202Z</time></trkpt><trkpt lat="44.3917896" lon="9.5557406"><ele>489.0</ele><time>2026-03-22T09:32:53.201Z</time></trkpt><trkpt lat="44.3918742" lon="9.5557617"><ele>489.0</ele><time>2026-03-22T09:32:54.201Z</time></trkpt><trkpt lat="44.391959" lon="9.5557607"><ele>489.0</ele><time>2026-03-22T09:32:55.201Z</time></trkpt><trkpt lat="44.3920422" lon="9.5557618"><ele>489.0</ele><time>2026-03-22T09:32:56.201Z</time></trkpt><trkpt lat="44.3920522" lon="9.5555291"><ele>489.0</ele><time>2026-03-22T09:32:57.202Z</time></trkpt><trkpt lat="44.3920936" lon="9.5553841"><ele>489.0</ele><time>2026-03-22T09:32:58.202Z</time></trkpt><trkpt lat="44.392154" lon="9.5552142"><ele>489.0</ele><time>2026-03-22T09:32:59.201Z</time></trkpt><trkpt lat="44.3921936" lon="9.5549965"><ele>489.0</ele><time>2026-03-22T09:33:00.201Z</time></trkpt><trkpt lat="44.3922095" lon="9.5547937"><ele>493.0</ele><time>2026-03-22T09:33:01.201Z</time></trkpt><trkpt lat="44.3922344" lon="9.5546192"><ele>497.0</ele><time>2026-03-22T09:33:02.201Z</time></trkpt><trkpt lat="44.3922788" lon="9.5544886"><ele>501.0</ele><time>2026-03-22T09:33:03.201Z</time></trkpt><trkpt lat="44.3923573" lon="9.5543944"><ele>505.0</ele><time>2026-03-22T09:33:04.201Z</time></trkpt><trkpt lat="44.3924757" lon="9.5542806"><ele>505.0</ele><time>2026-03-22T09:33:05.201Z</time></trkpt><trkpt lat="44.3926203" lon="9.5541686"><ele>505.0</ele><time>2026-03-22T09:33:06.201Z</time></trkpt><trkpt lat="44.39277" lon="9.5541069"><ele>505.0</ele><time>2026-03-22T09:33:07.201Z</time></trkpt><trkpt lat="44.392904" lon="9.5540345"><ele>508.0</ele><time>2026-03-22T09:33:08.201Z</time></trkpt><trkpt lat="44.3930381" lon="9.5539586"><ele>511.0</ele><time>2026-03-22T09:33:09.202Z</time></trkpt><trkpt lat="44.3931192" lon="9.5538178"><ele>514.0</ele><time>2026-03-22T09:33:10.202Z</time></trkpt><trkpt lat="44.3932049" lon="9.5537025"><ele>517.0</ele><time>2026-03-22T09:33:11.202Z</time></trkpt><trkpt lat="44.3932701" lon="9.5535553"><ele>517.0</ele><time>2026-03-22T09:33:12.201Z</time></trkpt><trkpt lat="44.3933082" lon="9.5534357"><ele>517.0</ele><time>2026-03-22T09:33:13.201Z</time></trkpt><trkpt lat="44.3932606" lon="9.5532557"><ele>517.0</ele><time>2026-03-22T09:33:14.201Z</time></trkpt><trkpt lat="44.3930253" lon="9.5530218"><ele>515.5</ele><time>2026-03-22T09:33:15.202Z</time></trkpt><trkpt lat="44.3929806" lon="9.552848"><ele>514.0</ele><time>2026-03-22T09:33:16.202Z</time></trkpt><trkpt lat="44.3929377" lon="9.5526902"><ele>512.5</ele><time>2026-03-22T09:33:17.201Z</time></trkpt><trkpt lat="44.3928965" lon="9.5525324"><ele>511.0</ele><time>2026-03-22T09:33:18.201Z</time></trkpt><trkpt lat="44.3928934" lon="9.5523913"><ele>511.0</ele><time>2026-03-22T09:33:19.201Z</time></trkpt><trkpt lat="44.3928544" lon="9.5522369"><ele>511.0</ele><time>2026-03-22T09:33:20.201Z</time></trkpt><trkpt lat="44.3927355" lon="9.5520501"><ele>511.0</ele><time>2026-03-22T09:33:21.201Z</time></trkpt><trkpt lat="44.3926468" lon="9.5518587"><ele>512.25</ele><time>2026-03-22T09:33:22.201Z</time></trkpt><trkpt lat="44.3925849" lon="9.5516784"><ele>513.5</ele><time>2026-03-22T09:33:23.201Z</time></trkpt><trkpt lat="44.3925371" lon="9.5515026"><ele>514.75</ele><time>2026-03-22T09:33:24.202Z</time></trkpt><trkpt lat="44.3925072" lon="9.5513328"><ele>516.0</ele><time>2026-03-22T09:33:25.201Z</time></trkpt><trkpt lat="44.3924878" lon="9.5511763"><ele>516.75</ele><time>2026-03-22T09:33:26.201Z</time></trkpt><trkpt lat="44.3924834" lon="9.5510099"><ele>517.5</ele><time>2026-03-22T09:33:27.201Z</time></trkpt><trkpt lat="44.3924834" lon="9.5508362"><ele>518.25</ele><time>2026-03-22T09:33:28.201Z</time></trkpt><trkpt lat="44.3924796" lon="9.5506599"><ele>519.0</ele><time>2026-03-22T09:33:29.201Z</time></trkpt><trkpt lat="44.3924701" lon="9.5504804"><ele>519.75</ele><time>2026-03-22T09:33:30.201Z</time></trkpt><trkpt lat="44.3924564" lon="9.550293"><ele>520.5</ele><time>2026-03-22T09:33:31.201Z</time></trkpt><trkpt lat="44.3924326" lon="9.5501174"><ele>521.25</ele><time>2026-03-22T09:33:32.202Z</time></trkpt><trkpt lat="44.3924046" lon="9.5499647"><ele>522.0</ele><time>2026-03-22T09:33:33.201Z</time></trkpt><trkpt lat="44.3924011" lon="9.5498275"><ele>522.0</ele><time>2026-03-22T09:33:34.201Z</time></trkpt><trkpt lat="44.3924269" lon="9.5496931"><ele>522.0</ele><time>2026-03-22T09:33:35.201Z</time></trkpt><trkpt lat="44.3924399" lon="9.5495333"><ele>522.0</ele><time>2026-03-22T09:33:36.202Z</time></trkpt><trkpt lat="44.3924383" lon="9.5493711"><ele>522.0</ele><time>2026-03-22T09:33:37.202Z</time></trkpt><trkpt lat="44.3924268" lon="9.5492018"><ele>523.5</ele><time>2026-03-22T09:33:38.202Z</time></trkpt><trkpt lat="44.3924001" lon="9.5490276"><ele>525.0</ele><time>2026-03-22T09:33:39.202Z</time></trkpt><trkpt lat="44.392379" lon="9.5488572"><ele>526.5</ele><time>2026-03-22T09:33:40.202Z</time></trkpt><trkpt lat="44.3923663" lon="9.5486814"><ele>528.0</ele><time>2026-03-22T09:33:41.202Z</time></trkpt><trkpt lat="44.3923412" lon="9.548514"><ele>531.0</ele><time>2026-03-22T09:33:42.201Z</time></trkpt><trkpt lat="44.3923154" lon="9.5483434"><ele>534.0</ele><time>2026-03-22T09:33:43.201Z</time></trkpt><trkpt lat="44.3921799" lon="9.5482024"><ele>537.0</ele><time>2026-03-22T09:33:44.201Z</time></trkpt><trkpt lat="44.392062" lon="9.5480422"><ele>535.75</ele><time>2026-03-22T09:33:45.201Z</time></trkpt><trkpt lat="44.3919616" lon="9.5479158"><ele>534.5</ele><time>2026-03-22T09:33:46.201Z</time></trkpt><trkpt lat="44.3918672" lon="9.5477962"><ele>533.25</ele><time>2026-03-22T09:33:47.202Z</time></trkpt><trkpt lat="44.391804" lon="9.5476634"><ele>532.0</ele><time>2026-03-22T09:33:48.202Z</time></trkpt><trkpt lat="44.3917759" lon="9.5475342"><ele>532.0</ele><time>2026-03-22T09:33:49.202Z</time></trkpt><trkpt lat="44.3917869" lon="9.5474004"><ele>532.0</ele><time>2026-03-22T09:33:50.201Z</time></trkpt><trkpt lat="44.3918352" lon="9.5473121"><ele>532.0</ele><time>2026-03-22T09:33:51.202Z</time></trkpt><trkpt lat="44.3919076" lon="9.5472533"><ele>532.0</ele><time>2026-03-22T09:33:52.202Z</time></trkpt><trkpt lat="44.3920208" lon="9.5472405"><ele>532.0</ele><time>2026-03-22T09:33:53.202Z</time></trkpt><trkpt lat="44.3921654" lon="9.5472568"><ele>536.0</ele><time>2026-03-22T09:33:54.201Z</time></trkpt><trkpt lat="44.3923408" lon="9.5472899"><ele>540.0</ele><time>2026-03-22T09:33:55.202Z</time></trkpt><trkpt lat="44.3925064" lon="9.5472962"><ele>544.0</ele><time>2026-03-22T09:33:56.202Z</time></trkpt><trkpt lat="44.3926699" lon="9.5472919"><ele>544.0</ele><time>2026-03-22T09:33:57.202Z</time></trkpt><trkpt lat="44.3928217" lon="9.5473026"><ele>544.0</ele><time>2026-03-22T09:33:58.201Z</time></trkpt><trkpt lat="44.3929752" lon="9.5473264"><ele>544.0</ele><time>2026-03-22T09:33:59.201Z</time></trkpt><trkpt lat="44.3931199" lon="9.5473597"><ele>544.75</ele><time>2026-03-22T09:34:00.201Z</time></trkpt><trkpt lat="44.3932548" lon="9.547389"><ele>545.5</ele><time>2026-03-22T09:34:01.202Z</time></trkpt><trkpt lat="44.3933785" lon="9.5473919"><ele>546.25</ele><time>2026-03-22T09:34:02.201Z</time></trkpt><trkpt lat="44.3935008" lon="9.5473703"><ele>547.0</ele><time>2026-03-22T09:34:03.202Z</time></trkpt><trkpt lat="44.3936005" lon="9.5472303"><ele>547.0</ele><time>2026-03-22T09:34:04.201Z</time></trkpt><trkpt lat="44.3936722" lon="9.5471023"><ele>547.0</ele><time>2026-03-22T09:34:05.201Z</time></trkpt><trkpt lat="44.3937572" lon="9.5469977"><ele>547.0</ele><time>2026-03-22T09:34:06.201Z</time></trkpt><trkpt lat="44.3938606" lon="9.5469542"><ele>547.0</ele><time>2026-03-22T09:34:07.202Z</time></trkpt><trkpt lat="44.3939934" lon="9.5469408"><ele>545.75</ele><time>2026-03-22T09:34:08.202Z</time></trkpt><trkpt lat="44.3941297" lon="9.5469305"><ele>544.5</ele><time>2026-03-22T09:34:09.202Z</time></trkpt><trkpt lat="44.3942506" lon="9.5469365"><ele>543.25</ele><time>2026-03-22T09:34:10.201Z</time></trkpt><trkpt lat="44.3943556" lon="9.5470372"><ele>542.0</ele><time>2026-03-22T09:34:11.201Z</time></trkpt><trkpt lat="44.394469" lon="9.5470888"><ele>545.75</ele><time>2026-03-22T09:34:12.202Z</time></trkpt><trkpt lat="44.3945685" lon="9.5471609"><ele>549.5</ele><time>2026-03-22T09:34:13.202Z</time></trkpt><trkpt lat="44.3946643" lon="9.5470819"><ele>553.25</ele><time>2026-03-22T09:34:14.202Z</time></trkpt><trkpt lat="44.3947541" lon="9.5470274"><ele>557.0</ele><time>2026-03-22T09:34:15.201Z</time></trkpt><trkpt lat="44.394868" lon="9.5468686"><ele>557.0</ele><time>2026-03-22T09:34:16.203Z</time></trkpt><trkpt lat="44.3949719" lon="9.5467579"><ele>557.0</ele><time>2026-03-22T09:34:17.201Z</time></trkpt><trkpt lat="44.39509" lon="9.5466767"><ele>557.0</ele><time>2026-03-22T09:34:18.202Z</time></trkpt><trkpt lat="44.3952065" lon="9.5465601"><ele>557.0</ele><time>2026-03-22T09:34:19.201Z</time></trkpt><trkpt lat="44.3953003" lon="9.5464629"><ele>557.0</ele><time>2026-03-22T09:34:20.202Z</time></trkpt><trkpt lat="44.3954237" lon="9.5463743"><ele>557.0</ele><time>2026-03-22T09:34:21.201Z</time></trkpt><trkpt lat="44.3955524" lon="9.5463246"><ele>557.0</ele><time>2026-03-22T09:34:22.201Z</time></trkpt><trkpt lat="44.3956742" lon="9.5462468"><ele>557.0</ele><time>2026-03-22T09:34:23.201Z</time></trkpt><trkpt lat="44.3957683" lon="9.5461082"><ele>558.0</ele><time>2026-03-22T09:34:24.202Z</time></trkpt><trkpt lat="44.3958477" lon="9.5459612"><ele>559.0</ele><time>2026-03-22T09:34:25.201Z</time></trkpt><trkpt lat="44.3959101" lon="9.5457737"><ele>560.0</ele><time>2026-03-22T09:34:26.201Z</time></trkpt><trkpt lat="44.3959657" lon="9.5456117"><ele>561.0</ele><time>2026-03-22T09:34:27.201Z</time></trkpt><trkpt lat="44.3960344" lon="9.5454729"><ele>561.0</ele><time>2026-03-22T09:34:28.201Z</time></trkpt><trkpt lat="44.3961178" lon="9.5453924"><ele>561.0</ele><time>2026-03-22T09:34:29.202Z</time></trkpt><trkpt lat="44.3962275" lon="9.5453481"><ele>561.0</ele><time>2026-03-22T09:34:30.202Z</time></trkpt><trkpt lat="44.396366" lon="9.5453389"><ele>561.0</ele><time>2026-03-22T09:34:31.202Z</time></trkpt><trkpt lat="44.3965191" lon="9.5453551"><ele>566.25</ele><time>2026-03-22T09:34:32.201Z</time></trkpt><trkpt lat="44.3966566" lon="9.5453982"><ele>571.5</ele><time>2026-03-22T09:34:33.202Z</time></trkpt><trkpt lat="44.3968095" lon="9.5454705"><ele>576.75</ele><time>2026-03-22T09:34:34.202Z</time></trkpt><trkpt lat="44.3969373" lon="9.545557"><ele>582.0</ele><time>2026-03-22T09:34:35.201Z</time></trkpt><trkpt lat="44.3970477" lon="9.5456568"><ele>582.0</ele><time>2026-03-22T09:34:36.201Z</time></trkpt><trkpt lat="44.3971521" lon="9.5457544"><ele>582.0</ele><time>2026-03-22T09:34:37.201Z</time></trkpt><trkpt lat="44.3972529" lon="9.5457499"><ele>582.0</ele><time>2026-03-22T09:34:38.201Z</time></trkpt><trkpt lat="44.3973533" lon="9.5457129"><ele>582.0</ele><time>2026-03-22T09:34:39.201Z</time></trkpt><trkpt lat="44.3974823" lon="9.5456286"><ele>581.75</ele><time>2026-03-22T09:34:40.202Z</time></trkpt><trkpt lat="44.3976089" lon="9.5456084"><ele>581.5</ele><time>2026-03-22T09:34:41.201Z</time></trkpt><trkpt lat="44.3977208" lon="9.5455715"><ele>581.25</ele><time>2026-03-22T09:34:42.201Z</time></trkpt><trkpt lat="44.3978082" lon="9.5454697"><ele>581.0</ele><time>2026-03-22T09:34:43.202Z</time></trkpt><trkpt lat="44.3978952" lon="9.5453473"><ele>581.5</ele><time>2026-03-22T09:34:44.201Z</time></trkpt><trkpt lat="44.3979777" lon="9.545236"><ele>582.0</ele><time>2026-03-22T09:34:45.202Z</time></trkpt><trkpt lat="44.3980539" lon="9.5450793"><ele>582.5</ele><time>2026-03-22T09:34:46.202Z</time></trkpt><trkpt lat="44.3981343" lon="9.5449607"><ele>583.0</ele><time>2026-03-22T09:34:47.201Z</time></trkpt><trkpt lat="44.3982418" lon="9.5448725"><ele>583.0</ele><time>2026-03-22T09:34:48.202Z</time></trkpt><trkpt lat="44.3983903" lon="9.5447725"><ele>583.0</ele><time>2026-03-22T09:34:49.202Z</time></trkpt><trkpt lat="44.3985148" lon="9.5446983"><ele>583.0</ele><time>2026-03-22T09:34:50.201Z</time></trkpt><trkpt lat="44.398615" lon="9.5446229"><ele>583.0</ele><time>2026-03-22T09:34:51.201Z</time></trkpt><trkpt lat="44.3987062" lon="9.544526"><ele>583.8</ele><time>2026-03-22T09:34:52.201Z</time></trkpt><trkpt lat="44.3987889" lon="9.5444396"><ele>584.5999999999999</ele><time>2026-03-22T09:34:53.202Z</time></trkpt><trkpt lat="44.398752" lon="9.5442655"><ele>585.4000000000001</ele><time>2026-03-22T09:34:54.202Z</time></trkpt><trkpt lat="44.398817" lon="9.5442117"><ele>586.2</ele><time>2026-03-22T09:34:55.201Z</time></trkpt><trkpt lat="44.3989" lon="9.544158"><ele>587.0</ele><time>2026-03-22T09:34:56.201Z</time></trkpt><trkpt lat="44.3990163" lon="9.5441258"><ele>587.0</ele><time>2026-03-22T09:34:57.201Z</time></trkpt><trkpt lat="44.3991287" lon="9.5440665"><ele>587.0</ele><time>2026-03-22T09:34:58.201Z</time></trkpt><trkpt lat="44.3992394" lon="9.5440052"><ele>587.0</ele><time>2026-03-22T09:34:59.202Z</time></trkpt><trkpt lat="44.3993456" lon="9.5439067"><ele>587.0</ele><time>2026-03-22T09:35:00.201Z</time></trkpt><trkpt lat="44.3994546" lon="9.5437669"><ele>589.0</ele><time>2026-03-22T09:35:01.202Z</time></trkpt><trkpt lat="44.3995857" lon="9.5436687"><ele>591.0</ele><time>2026-03-22T09:35:02.201Z</time></trkpt><trkpt lat="44.3997092" lon="9.5435675"><ele>593.0</ele><time>2026-03-22T09:35:03.201Z</time></trkpt><trkpt lat="44.3998454" lon="9.5434619"><ele>595.0</ele><time>2026-03-22T09:35:04.202Z</time></trkpt><trkpt lat="44.399968" lon="9.5433583"><ele>595.0</ele><time>2026-03-22T09:35:05.202Z</time></trkpt><trkpt lat="44.400084" lon="9.5432435"><ele>595.0</ele><time>2026-03-22T09:35:06.202Z</time></trkpt><trkpt lat="44.400171" lon="9.543119"><ele>595.0</ele><time>2026-03-22T09:35:07.202Z</time></trkpt><trkpt lat="44.4002812" lon="9.5429997"><ele>595.0</ele><time>2026-03-22T09:35:08.202Z</time></trkpt><trkpt lat="44.4004153" lon="9.542916"><ele>594.3333333333334</ele><time>2026-03-22T09:35:09.201Z</time></trkpt><trkpt lat="44.4005728" lon="9.5428674"><ele>593.6666666666666</ele><time>2026-03-22T09:35:10.201Z</time></trkpt><trkpt lat="44.4007233" lon="9.5428333"><ele>593.0</ele><time>2026-03-22T09:35:11.201Z</time></trkpt><trkpt lat="44.4008695" lon="9.5428164"><ele>593.0</ele><time>2026-03-22T09:35:12.202Z</time></trkpt><trkpt lat="44.4010083" lon="9.5427921"><ele>593.0</ele><time>2026-03-22T09:35:13.201Z</time></trkpt><trkpt lat="44.40108" lon="9.5426594"><ele>593.0</ele><time>2026-03-22T09:35:14.201Z</time></trkpt><trkpt lat="44.4011834" lon="9.5425764"><ele>593.0</ele><time>2026-03-22T09:35:15.201Z</time></trkpt><trkpt lat="44.401282" lon="9.5423932"><ele>593.0</ele><time>2026-03-22T09:35:16.201Z</time></trkpt><trkpt lat="44.4013058" lon="9.542156"><ele>593.0</ele><time>2026-03-22T09:35:17.201Z</time></trkpt><trkpt lat="44.4013249" lon="9.5419557"><ele>593.0</ele><time>2026-03-22T09:35:18.201Z</time></trkpt><trkpt lat="44.4013483" lon="9.54178"><ele>593.0</ele><time>2026-03-22T09:35:19.201Z</time></trkpt><trkpt lat="44.4013657" lon="9.5416174"><ele>595.4</ele><time>2026-03-22T09:35:20.201Z</time></trkpt><trkpt lat="44.4013894" lon="9.5414788"><ele>597.8</ele><time>2026-03-22T09:35:21.201Z</time></trkpt><trkpt lat="44.4014267" lon="9.5413427"><ele>600.2</ele><time>2026-03-22T09:35:22.201Z</time></trkpt><trkpt lat="44.4014794" lon="9.5412192"><ele>602.6</ele><time>2026-03-22T09:35:23.201Z</time></trkpt><trkpt lat="44.4015698" lon="9.541095"><ele>605.0</ele><time>2026-03-22T09:35:24.201Z</time></trkpt><trkpt lat="44.401664" lon="9.5409654"><ele>605.0</ele><time>2026-03-22T09:35:25.202Z</time></trkpt><trkpt lat="44.4017829" lon="9.5408185"><ele>605.0</ele><time>2026-03-22T09:35:26.202Z</time></trkpt><trkpt lat="44.4019034" lon="9.5406516"><ele>605.0</ele><time>2026-03-22T09:35:27.201Z</time></trkpt><trkpt lat="44.4020147" lon="9.5404677"><ele>602.3333333333333</ele><time>2026-03-22T09:35:28.202Z</time></trkpt><trkpt lat="44.4021056" lon="9.5402634"><ele>599.6666666666666</ele><time>2026-03-22T09:35:29.201Z</time></trkpt><trkpt lat="44.4021807" lon="9.5400383"><ele>597.0</ele><time>2026-03-22T09:35:30.201Z</time></trkpt><trkpt lat="44.402252" lon="9.5397986"><ele>603.3333333333334</ele><time>2026-03-22T09:35:31.202Z</time></trkpt><trkpt lat="44.4023075" lon="9.5395688"><ele>609.6666666666667</ele><time>2026-03-22T09:35:32.202Z</time></trkpt><trkpt lat="44.402342" lon="9.5393442"><ele>616.0</ele><time>2026-03-22T09:35:33.201Z</time></trkpt><trkpt lat="44.402378" lon="9.539123"><ele>616.0</ele><time>2026-03-22T09:35:34.201Z</time></trkpt><trkpt lat="44.4024187" lon="9.5389049"><ele>616.0</ele><time>2026-03-22T09:35:35.201Z</time></trkpt><trkpt lat="44.4024593" lon="9.5386876"><ele>616.0</ele><time>2026-03-22T09:35:36.202Z</time></trkpt><trkpt lat="44.4024888" lon="9.5384602"><ele>615.6666666666667</ele><time>2026-03-22T09:35:37.201Z</time></trkpt><trkpt lat="44.4025141" lon="9.5382305"><ele>615.3333333333334</ele><time>2026-03-22T09:35:38.202Z</time></trkpt><trkpt lat="44.4025474" lon="9.5379889"><ele>615.0</ele><time>2026-03-22T09:35:39.201Z</time></trkpt><trkpt lat="44.4025815" lon="9.5377566"><ele>614.5</ele><time>2026-03-22T09:35:40.202Z</time></trkpt><trkpt lat="44.4026151" lon="9.5375407"><ele>614.0</ele><time>2026-03-22T09:35:41.201Z</time></trkpt><trkpt lat="44.4026498" lon="9.5373473"><ele>613.5</ele><time>2026-03-22T09:35:42.201Z</time></trkpt><trkpt lat="44.4026788" lon="9.5371652"><ele>613.0</ele><time>2026-03-22T09:35:43.202Z</time></trkpt><trkpt lat="44.4027063" lon="9.5369893"><ele>613.0</ele><time>2026-03-22T09:35:44.201Z</time></trkpt><trkpt lat="44.4027348" lon="9.5368166"><ele>613.0</ele><time>2026-03-22T09:35:45.202Z</time></trkpt><trkpt lat="44.4027398" lon="9.5366391"><ele>613.0</ele><time>2026-03-22T09:35:46.201Z</time></trkpt><trkpt lat="44.402709" lon="9.5364791"><ele>613.0</ele><time>2026-03-22T09:35:47.201Z</time></trkpt><trkpt lat="44.4026963" lon="9.5363247"><ele>613.25</ele><time>2026-03-22T09:35:48.201Z</time></trkpt><trkpt lat="44.4027011" lon="9.5361711"><ele>613.5</ele><time>2026-03-22T09:35:49.202Z</time></trkpt><trkpt lat="44.4027439" lon="9.5360132"><ele>613.75</ele><time>2026-03-22T09:35:50.201Z</time></trkpt><trkpt lat="44.4027766" lon="9.5358623"><ele>614.0</ele><time>2026-03-22T09:35:51.202Z</time></trkpt><trkpt lat="44.4028078" lon="9.5357122"><ele>614.0</ele><time>2026-03-22T09:35:52.202Z</time></trkpt><trkpt lat="44.4028463" lon="9.5355481"><ele>614.0</ele><time>2026-03-22T09:35:53.201Z</time></trkpt><trkpt lat="44.4028996" lon="9.5353864"><ele>614.0</ele><time>2026-03-22T09:35:54.201Z</time></trkpt><trkpt lat="44.4029735" lon="9.535232"><ele>614.0</ele><time>2026-03-22T09:35:55.201Z</time></trkpt><trkpt lat="44.4030505" lon="9.5350996"><ele>618.75</ele><time>2026-03-22T09:35:56.201Z</time></trkpt><trkpt lat="44.4031479" lon="9.5350054"><ele>623.5</ele><time>2026-03-22T09:35:57.202Z</time></trkpt><trkpt lat="44.403259" lon="9.5349433"><ele>628.25</ele><time>2026-03-22T09:35:58.201Z</time></trkpt><trkpt lat="44.4033769" lon="9.5348833"><ele>633.0</ele><time>2026-03-22T09:35:59.201Z</time></trkpt><trkpt lat="44.4035046" lon="9.534817"><ele>633.0</ele><time>2026-03-22T09:36:00.202Z</time></trkpt><trkpt lat="44.4036266" lon="9.5347379"><ele>633.0</ele><time>2026-03-22T09:36:01.202Z</time></trkpt><trkpt lat="44.4037307" lon="9.5346193"><ele>633.0</ele><time>2026-03-22T09:36:02.201Z</time></trkpt><trkpt lat="44.4038258" lon="9.5344819"><ele>633.0</ele><time>2026-03-22T09:36:03.201Z</time></trkpt><trkpt lat="44.4038415" lon="9.5342519"><ele>633.25</ele><time>2026-03-22T09:36:04.202Z</time></trkpt><trkpt lat="44.403892" lon="9.5340599"><ele>633.5</ele><time>2026-03-22T09:36:05.201Z</time></trkpt><trkpt lat="44.4039454" lon="9.5338762"><ele>633.75</ele><time>2026-03-22T09:36:06.202Z</time></trkpt><trkpt lat="44.4039961" lon="9.5336938"><ele>634.0</ele><time>2026-03-22T09:36:07.201Z</time></trkpt><trkpt lat="44.4040563" lon="9.5335369"><ele>634.0</ele><time>2026-03-22T09:36:08.201Z</time></trkpt><trkpt lat="44.4041346" lon="9.5334108"><ele>634.0</ele><time>2026-03-22T09:36:09.202Z</time></trkpt><trkpt lat="44.4042348" lon="9.5333251"><ele>634.0</ele><time>2026-03-22T09:36:10.201Z</time></trkpt><trkpt lat="44.4043451" lon="9.533272"><ele>634.0</ele><time>2026-03-22T09:36:11.202Z</time></trkpt><trkpt lat="44.4044618" lon="9.5332631"><ele>634.0</ele><time>2026-03-22T09:36:12.201Z</time></trkpt><trkpt lat="44.4045805" lon="9.5332932"><ele>634.0</ele><time>2026-03-22T09:36:13.202Z</time></trkpt><trkpt lat="44.4046925" lon="9.5333326"><ele>634.0</ele><time>2026-03-22T09:36:14.201Z</time></trkpt><trkpt lat="44.4048034" lon="9.5333391"><ele>634.0</ele><time>2026-03-22T09:36:15.202Z</time></trkpt><trkpt lat="44.4049195" lon="9.5332971"><ele>638.3333333333334</ele><time>2026-03-22T09:36:16.201Z</time></trkpt><trkpt lat="44.4050445" lon="9.5332009"><ele>642.6666666666666</ele><time>2026-03-22T09:36:17.201Z</time></trkpt><trkpt lat="44.405194" lon="9.5330819"><ele>647.0</ele><time>2026-03-22T09:36:18.201Z</time></trkpt><trkpt lat="44.4053633" lon="9.5329747"><ele>648.0</ele><time>2026-03-22T09:36:19.201Z</time></trkpt><trkpt lat="44.4055312" lon="9.5328497"><ele>649.0</ele><time>2026-03-22T09:36:20.201Z</time></trkpt><trkpt lat="44.4056812" lon="9.53271"><ele>650.0</ele><time>2026-03-22T09:36:21.202Z</time></trkpt><trkpt lat="44.4058212" lon="9.5325664"><ele>650.0</ele><time>2026-03-22T09:36:22.202Z</time></trkpt><trkpt lat="44.4059294" lon="9.5323978"><ele>650.0</ele><time>2026-03-22T09:36:23.201Z</time></trkpt><trkpt lat="44.4060312" lon="9.5322226"><ele>650.0</ele><time>2026-03-22T09:36:24.201Z</time></trkpt><trkpt lat="44.4060961" lon="9.5320093"><ele>647.6666666666666</ele><time>2026-03-22T09:36:25.201Z</time></trkpt><trkpt lat="44.4061403" lon="9.5317805"><ele>645.3333333333334</ele><time>2026-03-22T09:36:26.201Z</time></trkpt><trkpt lat="44.4061782" lon="9.5315639"><ele>643.0</ele><time>2026-03-22T09:36:27.202Z</time></trkpt><trkpt lat="44.4062188" lon="9.5313287"><ele>643.0</ele><time>2026-03-22T09:36:28.201Z</time></trkpt><trkpt lat="44.4062434" lon="9.5310898"><ele>643.0</ele><time>2026-03-22T09:36:29.201Z</time></trkpt><trkpt lat="44.4062643" lon="9.5308557"><ele>643.0</ele><time>2026-03-22T09:36:30.201Z</time></trkpt><trkpt lat="44.4062831" lon="9.5306482"><ele>643.0</ele><time>2026-03-22T09:36:31.202Z</time></trkpt><trkpt lat="44.4063143" lon="9.5304357"><ele>643.0</ele><time>2026-03-22T09:36:32.202Z</time></trkpt><trkpt lat="44.4063665" lon="9.5302289"><ele>643.0</ele><time>2026-03-22T09:36:33.202Z</time></trkpt><trkpt lat="44.4064147" lon="9.5300105"><ele>647.0</ele><time>2026-03-22T09:36:34.201Z</time></trkpt><trkpt lat="44.406439" lon="9.5297786"><ele>651.0</ele><time>2026-03-22T09:36:35.201Z</time></trkpt><trkpt lat="44.4064457" lon="9.5295566"><ele>655.0</ele><time>2026-03-22T09:36:36.201Z</time></trkpt><trkpt lat="44.4064521" lon="9.5293494"><ele>655.0</ele><time>2026-03-22T09:36:37.202Z</time></trkpt><trkpt lat="44.4064902" lon="9.52916"><ele>655.0</ele><time>2026-03-22T09:36:38.202Z</time></trkpt><trkpt lat="44.4065585" lon="9.5289994"><ele>655.0</ele><time>2026-03-22T09:36:39.202Z</time></trkpt><trkpt lat="44.4066502" lon="9.5288746"><ele>655.0</ele><time>2026-03-22T09:36:40.202Z</time></trkpt><trkpt lat="44.4067813" lon="9.5287932"><ele>655.0</ele><time>2026-03-22T09:36:41.201Z</time></trkpt><trkpt lat="44.4069347" lon="9.5287269"><ele>655.0</ele><time>2026-03-22T09:36:42.201Z</time></trkpt><trkpt lat="44.4070934" lon="9.5286504"><ele>655.0</ele><time>2026-03-22T09:36:43.202Z</time></trkpt><trkpt lat="44.4072391" lon="9.5285723"><ele>657.3333333333334</ele><time>2026-03-22T09:36:44.201Z</time></trkpt><trkpt lat="44.4073792" lon="9.5284714"><ele>659.6666666666666</ele><time>2026-03-22T09:36:45.201Z</time></trkpt><trkpt lat="44.4075114" lon="9.5283686"><ele>662.0</ele><time>2026-03-22T09:36:46.202Z</time></trkpt><trkpt lat="44.4076507" lon="9.5282193"><ele>662.0</ele><time>2026-03-22T09:36:47.201Z</time></trkpt><trkpt lat="44.4077467" lon="9.5279719"><ele>662.0</ele><time>2026-03-22T09:36:48.202Z</time></trkpt><trkpt lat="44.4077308" lon="9.5276499"><ele>662.0</ele><time>2026-03-22T09:36:49.201Z</time></trkpt><trkpt lat="44.4077859" lon="9.5273838"><ele>659.6666666666666</ele><time>2026-03-22T09:36:50.202Z</time></trkpt><trkpt lat="44.4078327" lon="9.527133"><ele>657.3333333333334</ele><time>2026-03-22T09:36:51.202Z</time></trkpt><trkpt lat="44.4079016" lon="9.526907"><ele>655.0</ele><time>2026-03-22T09:36:52.202Z</time></trkpt><trkpt lat="44.40795" lon="9.5266885"><ele>654.3333333333334</ele><time>2026-03-22T09:36:53.202Z</time></trkpt><trkpt lat="44.4079701" lon="9.5264576"><ele>653.6666666666666</ele><time>2026-03-22T09:36:54.202Z</time></trkpt><trkpt lat="44.4079618" lon="9.5262104"><ele>653.0</ele><time>2026-03-22T09:36:55.201Z</time></trkpt><trkpt lat="44.4079355" lon="9.5259616"><ele>655.3333333333333</ele><time>2026-03-22T09:36:56.201Z</time></trkpt><trkpt lat="44.4078953" lon="9.5257375"><ele>657.6666666666666</ele><time>2026-03-22T09:36:57.201Z</time></trkpt><trkpt lat="44.4078423" lon="9.5255093"><ele>660.0</ele><time>2026-03-22T09:36:58.201Z</time></trkpt><trkpt lat="44.4077266" lon="9.5253253"><ele>661.75</ele><time>2026-03-22T09:36:59.201Z</time></trkpt><trkpt lat="44.4075999" lon="9.5251581"><ele>663.5</ele><time>2026-03-22T09:37:00.202Z</time></trkpt><trkpt lat="44.4075178" lon="9.5250013"><ele>665.25</ele><time>2026-03-22T09:37:01.202Z</time></trkpt><trkpt lat="44.4074493" lon="9.5248444"><ele>667.0</ele><time>2026-03-22T09:37:02.202Z</time></trkpt><trkpt lat="44.4074155" lon="9.5246794"><ele>668.0</ele><time>2026-03-22T09:37:03.202Z</time></trkpt><trkpt lat="44.4074282" lon="9.5245125"><ele>669.0</ele><time>2026-03-22T09:37:04.201Z</time></trkpt><trkpt lat="44.4074855" lon="9.5243447"><ele>670.0</ele><time>2026-03-22T09:37:05.201Z</time></trkpt><trkpt lat="44.4075782" lon="9.5241743"><ele>671.0</ele><time>2026-03-22T09:37:06.201Z</time></trkpt><trkpt lat="44.4076685" lon="9.5240239"><ele>671.0</ele><time>2026-03-22T09:37:07.202Z</time></trkpt><trkpt lat="44.4077523" lon="9.5238747"><ele>671.0</ele><time>2026-03-22T09:37:08.202Z</time></trkpt><trkpt lat="44.4078061" lon="9.5237097"><ele>671.0</ele><time>2026-03-22T09:37:09.201Z</time></trkpt><trkpt lat="44.4078101" lon="9.5235074"><ele>671.0</ele><time>2026-03-22T09:37:10.201Z</time></trkpt><trkpt lat="44.4077909" lon="9.5232924"><ele>671.0</ele><time>2026-03-22T09:37:11.201Z</time></trkpt><trkpt lat="44.4077559" lon="9.5230972"><ele>671.0</ele><time>2026-03-22T09:37:12.202Z</time></trkpt><trkpt lat="44.4077189" lon="9.5229233"><ele>671.0</ele><time>2026-03-22T09:37:13.201Z</time></trkpt><trkpt lat="44.4076982" lon="9.5227742"><ele>671.0</ele><time>2026-03-22T09:37:14.201Z</time></trkpt><trkpt lat="44.4077063" lon="9.5226256"><ele>669.75</ele><time>2026-03-22T09:37:15.202Z</time></trkpt><trkpt lat="44.4077448" lon="9.5224864"><ele>668.5</ele><time>2026-03-22T09:37:16.202Z</time></trkpt><trkpt lat="44.4078154" lon="9.5223669"><ele>667.25</ele><time>2026-03-22T09:37:17.202Z</time></trkpt><trkpt lat="44.4079157" lon="9.5222571"><ele>666.0</ele><time>2026-03-22T09:37:18.201Z</time></trkpt><trkpt lat="44.4080336" lon="9.5221556"><ele>669.0</ele><time>2026-03-22T09:37:19.201Z</time></trkpt><trkpt lat="44.4081487" lon="9.5220736"><ele>672.0</ele><time>2026-03-22T09:37:20.201Z</time></trkpt><trkpt lat="44.4082619" lon="9.5219892"><ele>675.0</ele><time>2026-03-22T09:37:21.201Z</time></trkpt><trkpt lat="44.4083707" lon="9.5219043"><ele>678.0</ele><time>2026-03-22T09:37:22.202Z</time></trkpt><trkpt lat="44.4084821" lon="9.521814"><ele>678.0</ele><time>2026-03-22T09:37:23.202Z</time></trkpt><trkpt lat="44.4085918" lon="9.5217176"><ele>678.0</ele><time>2026-03-22T09:37:24.202Z</time></trkpt><trkpt lat="44.4087006" lon="9.5216008"><ele>678.0</ele><time>2026-03-22T09:37:25.202Z</time></trkpt><trkpt lat="44.4088116" lon="9.5214671"><ele>678.0</ele><time>2026-03-22T09:37:26.201Z</time></trkpt><trkpt lat="44.4089284" lon="9.5213201"><ele>680.3333333333334</ele><time>2026-03-22T09:37:27.201Z</time></trkpt><trkpt lat="44.409046" lon="9.5211623"><ele>682.6666666666667</ele><time>2026-03-22T09:37:28.201Z</time></trkpt><trkpt lat="44.4091701" lon="9.5210111"><ele>685.0</ele><time>2026-03-22T09:37:29.202Z</time></trkpt><trkpt lat="44.4093056" lon="9.5208699"><ele>685.0</ele><time>2026-03-22T09:37:30.202Z</time></trkpt><trkpt lat="44.4094373" lon="9.5207407"><ele>685.0</ele><time>2026-03-22T09:37:31.202Z</time></trkpt><trkpt lat="44.4095598" lon="9.5206196"><ele>685.0</ele><time>2026-03-22T09:37:32.203Z</time></trkpt><trkpt lat="44.4096645" lon="9.5205092"><ele>685.0</ele><time>2026-03-22T09:37:33.201Z</time></trkpt><trkpt lat="44.4097728" lon="9.5204226"><ele>685.0</ele><time>2026-03-22T09:37:34.201Z</time></trkpt><trkpt lat="44.4098819" lon="9.5203705"><ele>685.0</ele><time>2026-03-22T09:37:35.202Z</time></trkpt><trkpt lat="44.4099757" lon="9.5203334"><ele>685.0</ele><time>2026-03-22T09:37:36.201Z</time></trkpt><trkpt lat="44.4100573" lon="9.5203017"><ele>685.0</ele><time>2026-03-22T09:37:37.201Z</time></trkpt><trkpt lat="44.4101352" lon="9.5202637"><ele>685.0</ele><time>2026-03-22T09:37:38.201Z</time></trkpt><trkpt lat="44.4101895" lon="9.5201966"><ele>685.0</ele><time>2026-03-22T09:37:39.201Z</time></trkpt><trkpt lat="44.4102102" lon="9.520109"><ele>685.0</ele><time>2026-03-22T09:37:40.201Z</time></trkpt><trkpt lat="44.4102244" lon="9.5199887"><ele>685.0</ele><time>2026-03-22T09:37:41.201Z</time></trkpt><trkpt lat="44.4101783" lon="9.5198882"><ele>685.0</ele><time>2026-03-22T09:37:42.202Z</time></trkpt><trkpt lat="44.4099979" lon="9.5197107"><ele>685.0</ele><time>2026-03-22T09:37:43.201Z</time></trkpt><trkpt lat="44.4099143" lon="9.5195948"><ele>685.0</ele><time>2026-03-22T09:37:44.202Z</time></trkpt><trkpt lat="44.4098332" lon="9.5194655"><ele>685.0</ele><time>2026-03-22T09:37:45.202Z</time></trkpt><trkpt lat="44.4097362" lon="9.5193254"><ele>685.0</ele><time>2026-03-22T09:37:46.202Z</time></trkpt><trkpt lat="44.4096401" lon="9.5191812"><ele>680.0</ele><time>2026-03-22T09:37:47.202Z</time></trkpt><trkpt lat="44.4095828" lon="9.5190249"><ele>675.0</ele><time>2026-03-22T09:37:48.202Z</time></trkpt><trkpt lat="44.4095552" lon="9.5188576"><ele>670.0</ele><time>2026-03-22T09:37:49.202Z</time></trkpt><trkpt lat="44.409559" lon="9.5186847"><ele>665.0</ele><time>2026-03-22T09:37:50.202Z</time></trkpt><trkpt lat="44.4095979" lon="9.5184805"><ele>665.0</ele><time>2026-03-22T09:37:51.201Z</time></trkpt><trkpt lat="44.4096355" lon="9.5182888"><ele>665.0</ele><time>2026-03-22T09:37:52.201Z</time></trkpt><trkpt lat="44.4096665" lon="9.5181139"><ele>665.0</ele><time>2026-03-22T09:37:53.201Z</time></trkpt><trkpt lat="44.4096625" lon="9.5179363"><ele>665.0</ele><time>2026-03-22T09:37:54.201Z</time></trkpt><trkpt lat="44.4096248" lon="9.5177528"><ele>667.25</ele><time>2026-03-22T09:37:55.202Z</time></trkpt><trkpt lat="44.409554" lon="9.5175751"><ele>669.5</ele><time>2026-03-22T09:37:56.201Z</time></trkpt><trkpt lat="44.4094651" lon="9.5174082"><ele>671.75</ele><time>2026-03-22T09:37:57.202Z</time></trkpt><trkpt lat="44.4093834" lon="9.5172623"><ele>674.0</ele><time>2026-03-22T09:37:58.201Z</time></trkpt><trkpt lat="44.4093455" lon="9.517095"><ele>675.25</ele><time>2026-03-22T09:37:59.202Z</time></trkpt><trkpt lat="44.4093417" lon="9.5169098"><ele>676.5</ele><time>2026-03-22T09:38:00.201Z</time></trkpt><trkpt lat="44.4093537" lon="9.5167241"><ele>677.75</ele><time>2026-03-22T09:38:01.201Z</time></trkpt><trkpt lat="44.4093714" lon="9.5165401"><ele>679.0</ele><time>2026-03-22T09:38:02.201Z</time></trkpt><trkpt lat="44.4093851" lon="9.5163561"><ele>678.0</ele><time>2026-03-22T09:38:03.202Z</time></trkpt><trkpt lat="44.4093971" lon="9.5161794"><ele>677.0</ele><time>2026-03-22T09:38:04.202Z</time></trkpt><trkpt lat="44.4094039" lon="9.516012"><ele>676.0</ele><time>2026-03-22T09:38:05.202Z</time></trkpt><trkpt lat="44.4094175" lon="9.5158547"><ele>675.0</ele><time>2026-03-22T09:38:06.202Z</time></trkpt><trkpt lat="44.4094553" lon="9.5157157"><ele>675.0</ele><time>2026-03-22T09:38:07.202Z</time></trkpt><trkpt lat="44.4095335" lon="9.5155943"><ele>675.0</ele><time>2026-03-22T09:38:08.201Z</time></trkpt><trkpt lat="44.4096402" lon="9.5154802"><ele>675.0</ele><time>2026-03-22T09:38:09.201Z</time></trkpt><trkpt lat="44.4097592" lon="9.5153876"><ele>675.0</ele><time>2026-03-22T09:38:10.201Z</time></trkpt><trkpt lat="44.4098968" lon="9.5153471"><ele>677.75</ele><time>2026-03-22T09:38:11.201Z</time></trkpt><trkpt lat="44.4100461" lon="9.5153596"><ele>680.5</ele><time>2026-03-22T09:38:12.202Z</time></trkpt><trkpt lat="44.4101944" lon="9.5153754"><ele>683.25</ele><time>2026-03-22T09:38:13.201Z</time></trkpt><trkpt lat="44.4103338" lon="9.5153814"><ele>686.0</ele><time>2026-03-22T09:38:14.202Z</time></trkpt><trkpt lat="44.4104635" lon="9.5153891"><ele>689.8</ele><time>2026-03-22T09:38:15.201Z</time></trkpt><trkpt lat="44.4105629" lon="9.5153628"><ele>693.5999999999999</ele><time>2026-03-22T09:38:16.202Z</time></trkpt><trkpt lat="44.4106607" lon="9.5153282"><ele>697.4</ele><time>2026-03-22T09:38:17.201Z</time></trkpt><trkpt lat="44.4107374" lon="9.5152552"><ele>701.2</ele><time>2026-03-22T09:38:18.201Z</time></trkpt><trkpt lat="44.4107889" lon="9.5151521"><ele>705.0</ele><time>2026-03-22T09:38:19.201Z</time></trkpt><trkpt lat="44.4108339" lon="9.5150727"><ele>705.0</ele><time>2026-03-22T09:38:20.201Z</time></trkpt><trkpt lat="44.410842" lon="9.5149573"><ele>705.0</ele><time>2026-03-22T09:38:21.201Z</time></trkpt><trkpt lat="44.4106181" lon="9.5146433"><ele>705.0</ele><time>2026-03-22T09:38:22.201Z</time></trkpt><trkpt lat="44.410582" lon="9.5144727"><ele>707.5</ele><time>2026-03-22T09:38:23.201Z</time></trkpt><trkpt lat="44.4105382" lon="9.5142887"><ele>710.0</ele><time>2026-03-22T09:38:24.201Z</time></trkpt><trkpt lat="44.4104882" lon="9.514125"><ele>712.5</ele><time>2026-03-22T09:38:25.202Z</time></trkpt><trkpt lat="44.4104481" lon="9.5139452"><ele>715.0</ele><time>2026-03-22T09:38:26.202Z</time></trkpt><trkpt lat="44.4104128" lon="9.5137848"><ele>710.75</ele><time>2026-03-22T09:38:27.201Z</time></trkpt><trkpt lat="44.4103723" lon="9.5136128"><ele>706.5</ele><time>2026-03-22T09:38:28.202Z</time></trkpt><trkpt lat="44.4103238" lon="9.5134464"><ele>702.25</ele><time>2026-03-22T09:38:29.201Z</time></trkpt><trkpt lat="44.4102803" lon="9.5132629"><ele>698.0</ele><time>2026-03-22T09:38:30.201Z</time></trkpt><trkpt lat="44.4102467" lon="9.5130915"><ele>698.0</ele><time>2026-03-22T09:38:31.202Z</time></trkpt><trkpt lat="44.4102155" lon="9.5129186"><ele>698.0</ele><time>2026-03-22T09:38:32.201Z</time></trkpt><trkpt lat="44.4101997" lon="9.5127552"><ele>698.0</ele><time>2026-03-22T09:38:33.201Z</time></trkpt><trkpt lat="44.4102001" lon="9.5126079"><ele>698.0</ele><time>2026-03-22T09:38:34.202Z</time></trkpt><trkpt lat="44.4101672" lon="9.5124859"><ele>698.0</ele><time>2026-03-22T09:38:35.201Z</time></trkpt><trkpt lat="44.4101015" lon="9.5123909"><ele>701.5</ele><time>2026-03-22T09:38:36.201Z</time></trkpt><trkpt lat="44.409988" lon="9.51232"><ele>705.0</ele><time>2026-03-22T09:38:37.201Z</time></trkpt><trkpt lat="44.4098812" lon="9.5122504"><ele>708.5</ele><time>2026-03-22T09:38:38.201Z</time></trkpt><trkpt lat="44.4096994" lon="9.5122971"><ele>712.0</ele><time>2026-03-22T09:38:39.201Z</time></trkpt><trkpt lat="44.4095492" lon="9.5122889"><ele>712.0</ele><time>2026-03-22T09:38:40.201Z</time></trkpt><trkpt lat="44.4094123" lon="9.5122778"><ele>712.0</ele><time>2026-03-22T09:38:41.201Z</time></trkpt><trkpt lat="44.4092828" lon="9.5122588"><ele>712.0</ele><time>2026-03-22T09:38:42.201Z</time></trkpt><trkpt lat="44.4091678" lon="9.5122211"><ele>712.0</ele><time>2026-03-22T09:38:43.203Z</time></trkpt><trkpt lat="44.4090644" lon="9.5121392"><ele>711.0</ele><time>2026-03-22T09:38:44.202Z</time></trkpt><trkpt lat="44.408975" lon="9.5120164"><ele>710.0</ele><time>2026-03-22T09:38:45.202Z</time></trkpt><trkpt lat="44.4088957" lon="9.5118546"><ele>709.0</ele><time>2026-03-22T09:38:46.202Z</time></trkpt><trkpt lat="44.4088236" lon="9.5116511"><ele>708.0</ele><time>2026-03-22T09:38:47.203Z</time></trkpt><trkpt lat="44.4087606" lon="9.5114649"><ele>708.0</ele><time>2026-03-22T09:38:48.201Z</time></trkpt><trkpt lat="44.4086998" lon="9.5112994"><ele>708.0</ele><time>2026-03-22T09:38:49.201Z</time></trkpt><trkpt lat="44.4086739" lon="9.5111439"><ele>708.0</ele><time>2026-03-22T09:38:50.201Z</time></trkpt><trkpt lat="44.4086743" lon="9.5109774"><ele>708.0</ele><time>2026-03-22T09:38:51.201Z</time></trkpt><trkpt lat="44.4086884" lon="9.5108143"><ele>710.5999999999999</ele><time>2026-03-22T09:38:52.201Z</time></trkpt><trkpt lat="44.4087106" lon="9.5106646"><ele>713.1999999999999</ele><time>2026-03-22T09:38:53.202Z</time></trkpt><trkpt lat="44.4086988" lon="9.5105145"><ele>715.8</ele><time>2026-03-22T09:38:54.202Z</time></trkpt><trkpt lat="44.4086905" lon="9.5103876"><ele>718.4</ele><time>2026-03-22T09:38:55.202Z</time></trkpt><trkpt lat="44.4086521" lon="9.5102547"><ele>721.0</ele><time>2026-03-22T09:38:56.202Z</time></trkpt><trkpt lat="44.4084232" lon="9.5101975"><ele>725.0</ele><time>2026-03-22T09:38:57.202Z</time></trkpt><trkpt lat="44.4083059" lon="9.5100912"><ele>729.0</ele><time>2026-03-22T09:38:58.201Z</time></trkpt><trkpt lat="44.4082063" lon="9.5099693"><ele>733.0</ele><time>2026-03-22T09:38:59.201Z</time></trkpt><trkpt lat="44.4081379" lon="9.5098442"><ele>737.0</ele><time>2026-03-22T09:39:00.202Z</time></trkpt><trkpt lat="44.4081126" lon="9.5097113"><ele>737.0</ele><time>2026-03-22T09:39:01.201Z</time></trkpt><trkpt lat="44.408124" lon="9.5095773"><ele>737.0</ele><time>2026-03-22T09:39:02.201Z</time></trkpt><trkpt lat="44.4081738" lon="9.5094464"><ele>737.0</ele><time>2026-03-22T09:39:03.201Z</time></trkpt><trkpt lat="44.4082487" lon="9.509305"><ele>737.0</ele><time>2026-03-22T09:39:04.202Z</time></trkpt><trkpt lat="44.4083498" lon="9.5091818"><ele>737.0</ele><time>2026-03-22T09:39:05.202Z</time></trkpt><trkpt lat="44.4084709" lon="9.5090706"><ele>737.0</ele><time>2026-03-22T09:39:06.202Z</time></trkpt><trkpt lat="44.4085728" lon="9.5089376"><ele>737.0</ele><time>2026-03-22T09:39:07.202Z</time></trkpt><trkpt lat="44.4086578" lon="9.5087498"><ele>737.0</ele><time>2026-03-22T09:39:08.202Z</time></trkpt><trkpt lat="44.408732" lon="9.5085257"><ele>733.6666666666666</ele><time>2026-03-22T09:39:09.202Z</time></trkpt><trkpt lat="44.4088127" lon="9.5082961"><ele>730.3333333333334</ele><time>2026-03-22T09:39:10.201Z</time></trkpt><trkpt lat="44.4089019" lon="9.5080944"><ele>727.0</ele><time>2026-03-22T09:39:11.202Z</time></trkpt><trkpt lat="44.4089699" lon="9.507928"><ele>735.25</ele><time>2026-03-22T09:39:12.201Z</time></trkpt><trkpt lat="44.409012" lon="9.5077724"><ele>743.5</ele><time>2026-03-22T09:39:13.201Z</time></trkpt><trkpt lat="44.4090283" lon="9.5075901"><ele>751.75</ele><time>2026-03-22T09:39:14.202Z</time></trkpt><trkpt lat="44.4090035" lon="9.5073792"><ele>760.0</ele><time>2026-03-22T09:39:15.202Z</time></trkpt><trkpt lat="44.4090016" lon="9.5071718"><ele>760.0</ele><time>2026-03-22T09:39:16.201Z</time></trkpt><trkpt lat="44.4090219" lon="9.5069612"><ele>760.0</ele><time>2026-03-22T09:39:17.201Z</time></trkpt><trkpt lat="44.4090481" lon="9.5067402"><ele>760.0</ele><time>2026-03-22T09:39:18.201Z</time></trkpt><trkpt lat="44.4090573" lon="9.5065126"><ele>760.0</ele><time>2026-03-22T09:39:19.201Z</time></trkpt><trkpt lat="44.4090399" lon="9.5062819"><ele>760.0</ele><time>2026-03-22T09:39:20.201Z</time></trkpt><trkpt lat="44.4089929" lon="9.5060339"><ele>760.0</ele><time>2026-03-22T09:39:21.201Z</time></trkpt><trkpt lat="44.4089495" lon="9.5058128"><ele>760.0</ele><time>2026-03-22T09:39:22.201Z</time></trkpt><trkpt lat="44.4089066" lon="9.5055749"><ele>760.0</ele><time>2026-03-22T09:39:23.201Z</time></trkpt><trkpt lat="44.408861" lon="9.5053543"><ele>760.0</ele><time>2026-03-22T09:39:24.202Z</time></trkpt><trkpt lat="44.4087937" lon="9.5051567"><ele>760.0</ele><time>2026-03-22T09:39:25.202Z</time></trkpt><trkpt lat="44.4086934" lon="9.5049535"><ele>760.0</ele><time>2026-03-22T09:39:26.202Z</time></trkpt><trkpt lat="44.4085706" lon="9.5047497"><ele>760.0</ele><time>2026-03-22T09:39:27.202Z</time></trkpt><trkpt lat="44.408449" lon="9.5045405"><ele>765.3333333333334</ele><time>2026-03-22T09:39:28.201Z</time></trkpt><trkpt lat="44.4083489" lon="9.5043407"><ele>770.6666666666667</ele><time>2026-03-22T09:39:29.201Z</time></trkpt><trkpt lat="44.4082546" lon="9.5041498"><ele>776.0</ele><time>2026-03-22T09:39:30.201Z</time></trkpt><trkpt lat="44.4081591" lon="9.5039643"><ele>776.0</ele><time>2026-03-22T09:39:31.201Z</time></trkpt><trkpt lat="44.4080692" lon="9.5037905"><ele>776.0</ele><time>2026-03-22T09:39:32.201Z</time></trkpt><trkpt lat="44.4079628" lon="9.5036494"><ele>776.0</ele><time>2026-03-22T09:39:33.201Z</time></trkpt><trkpt lat="44.4078223" lon="9.5035608"><ele>777.5</ele><time>2026-03-22T09:39:34.202Z</time></trkpt><trkpt lat="44.4076781" lon="9.5035369"><ele>779.0</ele><time>2026-03-22T09:39:35.201Z</time></trkpt><trkpt lat="44.4075808" lon="9.5034246"><ele>780.5</ele><time>2026-03-22T09:39:36.201Z</time></trkpt><trkpt lat="44.4075162" lon="9.5032913"><ele>782.0</ele><time>2026-03-22T09:39:37.201Z</time></trkpt><trkpt lat="44.4074907" lon="9.5031471"><ele>782.0</ele><time>2026-03-22T09:39:38.202Z</time></trkpt><trkpt lat="44.4075012" lon="9.5029868"><ele>782.0</ele><time>2026-03-22T09:39:39.202Z</time></trkpt><trkpt lat="44.4075168" lon="9.5028129"><ele>782.0</ele><time>2026-03-22T09:39:40.202Z</time></trkpt><trkpt lat="44.4075251" lon="9.5026525"><ele>782.0</ele><time>2026-03-22T09:39:41.202Z</time></trkpt><trkpt lat="44.4075351" lon="9.5024753"><ele>786.6666666666667</ele><time>2026-03-22T09:39:42.201Z</time></trkpt><trkpt lat="44.4075184" lon="9.5023474"><ele>791.3333333333333</ele><time>2026-03-22T09:39:43.201Z</time></trkpt><trkpt lat="44.407407" lon="9.5021989"><ele>796.0</ele><time>2026-03-22T09:39:44.201Z</time></trkpt><trkpt lat="44.4071303" lon="9.5020515"><ele>796.6666666666666</ele><time>2026-03-22T09:39:45.201Z</time></trkpt><trkpt lat="44.407001" lon="9.5019092"><ele>797.3333333333333</ele><time>2026-03-22T09:39:46.201Z</time></trkpt><trkpt lat="44.406875" lon="9.5017785"><ele>798.0</ele><time>2026-03-22T09:39:47.201Z</time></trkpt><trkpt lat="44.4067581" lon="9.5016359"><ele>798.0</ele><time>2026-03-22T09:39:48.201Z</time></trkpt><trkpt lat="44.4066624" lon="9.5014544"><ele>798.0</ele><time>2026-03-22T09:39:49.201Z</time></trkpt><trkpt lat="44.4065943" lon="9.5012422"><ele>798.0</ele><time>2026-03-22T09:39:50.201Z</time></trkpt><trkpt lat="44.4065327" lon="9.5010344"><ele>801.0</ele><time>2026-03-22T09:39:51.201Z</time></trkpt><trkpt lat="44.4064631" lon="9.5008546"><ele>804.0</ele><time>2026-03-22T09:39:52.201Z</time></trkpt><trkpt lat="44.4063935" lon="9.5006953"><ele>807.0</ele><time>2026-03-22T09:39:53.201Z</time></trkpt><trkpt lat="44.4062535" lon="9.500539"><ele>807.0</ele><time>2026-03-22T09:39:54.201Z</time></trkpt><trkpt lat="44.4060808" lon="9.5004506"><ele>807.0</ele><time>2026-03-22T09:39:55.202Z</time></trkpt><trkpt lat="44.4059384" lon="9.500381"><ele>807.0</ele><time>2026-03-22T09:39:56.202Z</time></trkpt><trkpt lat="44.4058232" lon="9.5002622"><ele>805.6666666666667</ele><time>2026-03-22T09:39:57.202Z</time></trkpt><trkpt lat="44.4057109" lon="9.5000985"><ele>804.3333333333334</ele><time>2026-03-22T09:39:58.201Z</time></trkpt><trkpt lat="44.4055994" lon="9.4999173"><ele>803.0</ele><time>2026-03-22T09:39:59.201Z</time></trkpt><trkpt lat="44.4054772" lon="9.4997489"><ele>803.0</ele><time>2026-03-22T09:40:00.201Z</time></trkpt><trkpt lat="44.4053668" lon="9.4995978"><ele>803.0</ele><time>2026-03-22T09:40:01.201Z</time></trkpt><trkpt lat="44.4052683" lon="9.4994985"><ele>803.0</ele><time>2026-03-22T09:40:02.201Z</time></trkpt><trkpt lat="44.4051916" lon="9.4993659"><ele>803.0</ele><time>2026-03-22T09:40:03.201Z</time></trkpt><trkpt lat="44.405123" lon="9.4992374"><ele>805.5</ele><time>2026-03-22T09:40:04.201Z</time></trkpt><trkpt lat="44.4051632" lon="9.4990452"><ele>808.0</ele><time>2026-03-22T09:40:05.201Z</time></trkpt><trkpt lat="44.4052128" lon="9.4988898"><ele>810.5</ele><time>2026-03-22T09:40:06.201Z</time></trkpt><trkpt lat="44.4053002" lon="9.4987342"><ele>813.0</ele><time>2026-03-22T09:40:07.201Z</time></trkpt><trkpt lat="44.405419" lon="9.4985769"><ele>821.0</ele><time>2026-03-22T09:40:08.201Z</time></trkpt><trkpt lat="44.4055305" lon="9.4984462"><ele>829.0</ele><time>2026-03-22T09:40:09.202Z</time></trkpt><trkpt lat="44.4056221" lon="9.4983202"><ele>837.0</ele><time>2026-03-22T09:40:10.201Z</time></trkpt><trkpt lat="44.4056719" lon="9.4981854"><ele>845.0</ele><time>2026-03-22T09:40:11.201Z</time></trkpt><trkpt lat="44.4056879" lon="9.4980315"><ele>847.3333333333334</ele><time>2026-03-22T09:40:12.202Z</time></trkpt><trkpt lat="44.4056784" lon="9.497862"><ele>849.6666666666667</ele><time>2026-03-22T09:40:13.201Z</time></trkpt><trkpt lat="44.405608" lon="9.497634"><ele>852.0</ele><time>2026-03-22T09:40:14.201Z</time></trkpt><trkpt lat="44.4055237" lon="9.4974533"><ele>848.25</ele><time>2026-03-22T09:40:15.201Z</time></trkpt><trkpt lat="44.4054362" lon="9.4972546"><ele>844.5</ele><time>2026-03-22T09:40:16.201Z</time></trkpt><trkpt lat="44.4053492" lon="9.4970875"><ele>840.75</ele><time>2026-03-22T09:40:17.201Z</time></trkpt><trkpt lat="44.4052699" lon="9.4969564"><ele>837.0</ele><time>2026-03-22T09:40:18.201Z</time></trkpt><trkpt lat="44.4052198" lon="9.4968201"><ele>837.0</ele><time>2026-03-22T09:40:19.201Z</time></trkpt><trkpt lat="44.4052112" lon="9.4966587"><ele>837.0</ele><time>2026-03-22T09:40:20.201Z</time></trkpt><trkpt lat="44.4052354" lon="9.4964744"><ele>837.0</ele><time>2026-03-22T09:40:21.201Z</time></trkpt><trkpt lat="44.4052677" lon="9.4963101"><ele>837.0</ele><time>2026-03-22T09:40:22.201Z</time></trkpt><trkpt lat="44.4052863" lon="9.4961621"><ele>836.1666666666666</ele><time>2026-03-22T09:40:23.201Z</time></trkpt><trkpt lat="44.4053207" lon="9.496037"><ele>835.3333333333333</ele><time>2026-03-22T09:40:24.201Z</time></trkpt><trkpt lat="44.40538" lon="9.4959468"><ele>834.5</ele><time>2026-03-22T09:40:25.201Z</time></trkpt><trkpt lat="44.4054543" lon="9.4959179"><ele>833.6666666666666</ele><time>2026-03-22T09:40:26.202Z</time></trkpt><trkpt lat="44.4055204" lon="9.4959453"><ele>832.8333333333333</ele><time>2026-03-22T09:40:27.202Z</time></trkpt><trkpt lat="44.4055802" lon="9.4959878"><ele>832.0</ele><time>2026-03-22T09:40:28.201Z</time></trkpt><trkpt lat="44.4056288" lon="9.496119"><ele>840.25</ele><time>2026-03-22T09:40:29.201Z</time></trkpt><trkpt lat="44.4056415" lon="9.4963262"><ele>848.5</ele><time>2026-03-22T09:40:30.201Z</time></trkpt><trkpt lat="44.4056166" lon="9.4964819"><ele>856.75</ele><time>2026-03-22T09:40:31.201Z</time></trkpt><trkpt lat="44.4056398" lon="9.4966743"><ele>865.0</ele><time>2026-03-22T09:40:32.201Z</time></trkpt><trkpt lat="44.4057178" lon="9.4968049"><ele>865.0</ele><time>2026-03-22T09:40:33.201Z</time></trkpt><trkpt lat="44.4057672" lon="9.4969602"><ele>865.0</ele><time>2026-03-22T09:40:34.201Z</time></trkpt><trkpt lat="44.4058379" lon="9.4971022"><ele>865.0</ele><time>2026-03-22T09:40:35.201Z</time></trkpt><trkpt lat="44.4059154" lon="9.4972469"><ele>865.0</ele><time>2026-03-22T09:40:36.201Z</time></trkpt><trkpt lat="44.4060138" lon="9.4974447"><ele>860.6666666666666</ele><time>2026-03-22T09:40:37.201Z</time></trkpt><trkpt lat="44.406106" lon="9.4976742"><ele>856.3333333333333</ele><time>2026-03-22T09:40:38.201Z</time></trkpt><trkpt lat="44.4061683" lon="9.4978692"><ele>852.0</ele><time>2026-03-22T09:40:39.201Z</time></trkpt><trkpt lat="44.406229" lon="9.4980621"><ele>850.6</ele><time>2026-03-22T09:40:40.202Z</time></trkpt><trkpt lat="44.4062079" lon="9.4982249"><ele>849.2</ele><time>2026-03-22T09:40:41.201Z</time></trkpt><trkpt lat="44.4061769" lon="9.4983923"><ele>847.8</ele><time>2026-03-22T09:40:42.201Z</time></trkpt><trkpt lat="44.4061471" lon="9.4985368"><ele>846.4</ele><time>2026-03-22T09:40:43.201Z</time></trkpt><trkpt lat="44.4061437" lon="9.4986721"><ele>845.0</ele><time>2026-03-22T09:40:44.201Z</time></trkpt><trkpt lat="44.4061658" lon="9.4987976"><ele>845.0000000000001</ele><time>2026-03-22T09:40:45.201Z</time></trkpt><trkpt lat="44.4062122" lon="9.4989016"><ele>845.0</ele><time>2026-03-22T09:40:46.202Z</time></trkpt><trkpt lat="44.4062793" lon="9.4989744"><ele>845.0</ele><time>2026-03-22T09:40:47.202Z</time></trkpt><trkpt lat="44.4063654" lon="9.4989996"><ele>845.0</ele><time>2026-03-22T09:40:48.202Z</time></trkpt><trkpt lat="44.4064339" lon="9.4990045"><ele>845.0000000000001</ele><time>2026-03-22T09:40:49.201Z</time></trkpt><trkpt lat="44.4065075" lon="9.4990009"><ele>845.0</ele><time>2026-03-22T09:40:50.201Z</time></trkpt><trkpt lat="44.4065095" lon="9.498748"><ele>854.25</ele><time>2026-03-22T09:40:51.202Z</time></trkpt><trkpt lat="44.4064883" lon="9.4986055"><ele>863.5</ele><time>2026-03-22T09:40:52.201Z</time></trkpt><trkpt lat="44.4064406" lon="9.4984133"><ele>872.75</ele><time>2026-03-22T09:40:53.201Z</time></trkpt><trkpt lat="44.4063878" lon="9.4981717"><ele>882.0</ele><time>2026-03-22T09:40:54.201Z</time></trkpt><trkpt lat="44.4063389" lon="9.4979159"><ele>872.0</ele><time>2026-03-22T09:40:55.201Z</time></trkpt><trkpt lat="44.4062995" lon="9.497675"><ele>862.0</ele><time>2026-03-22T09:40:56.201Z</time></trkpt><trkpt lat="44.4062704" lon="9.4974315"><ele>852.0</ele><time>2026-03-22T09:40:57.201Z</time></trkpt><trkpt lat="44.4062373" lon="9.4972233"><ele>855.25</ele><time>2026-03-22T09:40:58.201Z</time></trkpt><trkpt lat="44.4061798" lon="9.4970348"><ele>858.5</ele><time>2026-03-22T09:40:59.201Z</time></trkpt><trkpt lat="44.4061029" lon="9.4968659"><ele>861.75</ele><time>2026-03-22T09:41:00.202Z</time></trkpt><trkpt lat="44.4060326" lon="9.4967126"><ele>865.0</ele><time>2026-03-22T09:41:01.201Z</time></trkpt><trkpt lat="44.4059997" lon="9.4965574"><ele>865.0</ele><time>2026-03-22T09:41:02.201Z</time></trkpt><trkpt lat="44.4060053" lon="9.4963943"><ele>865.0</ele><time>2026-03-22T09:41:03.202Z</time></trkpt><trkpt lat="44.4060422" lon="9.4962096"><ele>865.0</ele><time>2026-03-22T09:41:04.202Z</time></trkpt><trkpt lat="44.4061009" lon="9.4960161"><ele>865.0</ele><time>2026-03-22T09:41:05.202Z</time></trkpt><trkpt lat="44.4061836" lon="9.4958092"><ele>865.3333333333333</ele><time>2026-03-22T09:41:06.202Z</time></trkpt><trkpt lat="44.4062967" lon="9.4955889"><ele>865.6666666666667</ele><time>2026-03-22T09:41:07.202Z</time></trkpt><trkpt lat="44.4064101" lon="9.4953897"><ele>866.0</ele><time>2026-03-22T09:41:08.201Z</time></trkpt><trkpt lat="44.4065238" lon="9.4952102"><ele>872.6666666666667</ele><time>2026-03-22T09:41:09.201Z</time></trkpt><trkpt lat="44.4066211" lon="9.4950224"><ele>879.3333333333333</ele><time>2026-03-22T09:41:10.201Z</time></trkpt><trkpt lat="44.406715" lon="9.4948481"><ele>886.0</ele><time>2026-03-22T09:41:11.201Z</time></trkpt><trkpt lat="44.4068094" lon="9.4946851"><ele>889.6666666666666</ele><time>2026-03-22T09:41:12.201Z</time></trkpt><trkpt lat="44.4069239" lon="9.4945256"><ele>893.3333333333333</ele><time>2026-03-22T09:41:13.201Z</time></trkpt><trkpt lat="44.4070509" lon="9.4943951"><ele>897.0</ele><time>2026-03-22T09:41:14.201Z</time></trkpt><trkpt lat="44.407194" lon="9.4942833"><ele>897.0</ele><time>2026-03-22T09:41:15.201Z</time></trkpt><trkpt lat="44.4073372" lon="9.4941733"><ele>897.0</ele><time>2026-03-22T09:41:16.201Z</time></trkpt><trkpt lat="44.4074671" lon="9.4940221"><ele>897.0</ele><time>2026-03-22T09:41:17.201Z</time></trkpt><trkpt lat="44.4075932" lon="9.493884"><ele>894.0</ele><time>2026-03-22T09:41:18.201Z</time></trkpt><trkpt lat="44.4076999" lon="9.4937252"><ele>891.0</ele><time>2026-03-22T09:41:19.201Z</time></trkpt><trkpt lat="44.4077729" lon="9.4935391"><ele>888.0</ele><time>2026-03-22T09:41:20.201Z</time></trkpt><trkpt lat="44.4078095" lon="9.4933021"><ele>888.0</ele><time>2026-03-22T09:41:21.201Z</time></trkpt><trkpt lat="44.4078497" lon="9.4930684"><ele>888.0</ele><time>2026-03-22T09:41:22.201Z</time></trkpt><trkpt lat="44.407862" lon="9.4928704"><ele>888.0</ele><time>2026-03-22T09:41:23.201Z</time></trkpt><trkpt lat="44.4079134" lon="9.4928072"><ele>888.0</ele><time>2026-03-22T09:41:24.202Z</time></trkpt><trkpt lat="44.407959" lon="9.4926684"><ele>890.0</ele><time>2026-03-22T09:41:25.202Z</time></trkpt><trkpt lat="44.4080103" lon="9.4925208"><ele>892.0</ele><time>2026-03-22T09:41:26.202Z</time></trkpt><trkpt lat="44.4080806" lon="9.4923736"><ele>894.0</ele><time>2026-03-22T09:41:27.202Z</time></trkpt><trkpt lat="44.4081457" lon="9.492222"><ele>896.0</ele><time>2026-03-22T09:41:28.202Z</time></trkpt><trkpt lat="44.4082165" lon="9.4920868"><ele>899.25</ele><time>2026-03-22T09:41:29.202Z</time></trkpt><trkpt lat="44.4083024" lon="9.4919714"><ele>902.5</ele><time>2026-03-22T09:41:30.201Z</time></trkpt><trkpt lat="44.4084142" lon="9.4918689"><ele>905.75</ele><time>2026-03-22T09:41:31.202Z</time></trkpt><trkpt lat="44.4085285" lon="9.4918068"><ele>909.0</ele><time>2026-03-22T09:41:32.201Z</time></trkpt><trkpt lat="44.4086462" lon="9.491809"><ele>909.0</ele><time>2026-03-22T09:41:33.201Z</time></trkpt><trkpt lat="44.408771" lon="9.4918693"><ele>909.0</ele><time>2026-03-22T09:41:34.201Z</time></trkpt><trkpt lat="44.4088849" lon="9.4919178"><ele>909.0</ele><time>2026-03-22T09:41:35.201Z</time></trkpt><trkpt lat="44.4090244" lon="9.4919055"><ele>909.0</ele><time>2026-03-22T09:41:36.202Z</time></trkpt><trkpt lat="44.4091482" lon="9.4918769"><ele>912.0</ele><time>2026-03-22T09:41:37.201Z</time></trkpt><trkpt lat="44.4092815" lon="9.4918361"><ele>915.0</ele><time>2026-03-22T09:41:38.202Z</time></trkpt><trkpt lat="44.4094182" lon="9.4918746"><ele>918.0</ele><time>2026-03-22T09:41:39.201Z</time></trkpt><trkpt lat="44.4095676" lon="9.4919641"><ele>921.0</ele><time>2026-03-22T09:41:40.201Z</time></trkpt><trkpt lat="44.4097258" lon="9.4920725"><ele>918.6666666666667</ele><time>2026-03-22T09:41:41.201Z</time></trkpt><trkpt lat="44.4098637" lon="9.4922048"><ele>916.3333333333334</ele><time>2026-03-22T09:41:42.201Z</time></trkpt><trkpt lat="44.4100063" lon="9.4923277"><ele>914.0</ele><time>2026-03-22T09:41:43.201Z</time></trkpt><trkpt lat="44.4100873" lon="9.4924729"><ele>914.0</ele><time>2026-03-22T09:41:44.201Z</time></trkpt><trkpt lat="44.4101973" lon="9.4925822"><ele>914.0</ele><time>2026-03-22T09:41:45.201Z</time></trkpt><trkpt lat="44.4103143" lon="9.4926088"><ele>914.0</ele><time>2026-03-22T09:41:46.201Z</time></trkpt><trkpt lat="44.4104288" lon="9.4926439"><ele>914.0</ele><time>2026-03-22T09:41:47.201Z</time></trkpt><trkpt lat="44.4105175" lon="9.4926166"><ele>914.5</ele><time>2026-03-22T09:41:48.201Z</time></trkpt><trkpt lat="44.4106175" lon="9.4924968"><ele>915.0</ele><time>2026-03-22T09:41:49.201Z</time></trkpt><trkpt lat="44.4106087" lon="9.4922518"><ele>915.5</ele><time>2026-03-22T09:41:50.201Z</time></trkpt><trkpt lat="44.4106573" lon="9.4921264"><ele>916.0</ele><time>2026-03-22T09:41:51.201Z</time></trkpt><trkpt lat="44.4106745" lon="9.491959"><ele>916.0</ele><time>2026-03-22T09:41:52.201Z</time></trkpt><trkpt lat="44.4105911" lon="9.4918169"><ele>916.0</ele><time>2026-03-22T09:41:53.201Z</time></trkpt><trkpt lat="44.4104999" lon="9.4916165"><ele>916.0</ele><time>2026-03-22T09:41:54.201Z</time></trkpt><trkpt lat="44.4103983" lon="9.4913095"><ele>923.6666666666666</ele><time>2026-03-22T09:41:55.201Z</time></trkpt><trkpt lat="44.4102998" lon="9.4910557"><ele>931.3333333333333</ele><time>2026-03-22T09:41:56.201Z</time></trkpt><trkpt lat="44.4101715" lon="9.490785"><ele>939.0</ele><time>2026-03-22T09:41:57.201Z</time></trkpt><trkpt lat="44.4100259" lon="9.4905592"><ele>936.6666666666667</ele><time>2026-03-22T09:41:58.202Z</time></trkpt><trkpt lat="44.409881" lon="9.4903055"><ele>934.3333333333334</ele><time>2026-03-22T09:41:59.202Z</time></trkpt><trkpt lat="44.40977" lon="9.4900694"><ele>932.0</ele><time>2026-03-22T09:42:00.202Z</time></trkpt><trkpt lat="44.4096739" lon="9.4898291"><ele>936.0</ele><time>2026-03-22T09:42:01.202Z</time></trkpt><trkpt lat="44.4095965" lon="9.489577"><ele>940.0</ele><time>2026-03-22T09:42:02.201Z</time></trkpt><trkpt lat="44.4095578" lon="9.4893314"><ele>944.0</ele><time>2026-03-22T09:42:03.202Z</time></trkpt><trkpt lat="44.4095153" lon="9.4891169"><ele>944.0</ele><time>2026-03-22T09:42:04.202Z</time></trkpt><trkpt lat="44.4094715" lon="9.4889126"><ele>944.0</ele><time>2026-03-22T09:42:05.201Z</time></trkpt><trkpt lat="44.4094386" lon="9.4887188"><ele>944.0</ele><time>2026-03-22T09:42:06.201Z</time></trkpt><trkpt lat="44.40943" lon="9.4885039"><ele>944.0</ele><time>2026-03-22T09:42:07.202Z</time></trkpt><trkpt lat="44.4094473" lon="9.4882712"><ele>944.5</ele><time>2026-03-22T09:42:08.202Z</time></trkpt><trkpt lat="44.4094772" lon="9.4880646"><ele>945.0</ele><time>2026-03-22T09:42:09.202Z</time></trkpt><trkpt lat="44.4095256" lon="9.4878715"><ele>945.5</ele><time>2026-03-22T09:42:10.201Z</time></trkpt><trkpt lat="44.4095968" lon="9.4877062"><ele>946.0</ele><time>2026-03-22T09:42:11.201Z</time></trkpt><trkpt lat="44.4096907" lon="9.4875759"><ele>946.0</ele><time>2026-03-22T09:42:12.202Z</time></trkpt><trkpt lat="44.4097812" lon="9.4874846"><ele>946.0</ele><time>2026-03-22T09:42:13.201Z</time></trkpt><trkpt lat="44.4098496" lon="9.4873738"><ele>946.0</ele><time>2026-03-22T09:42:14.202Z</time></trkpt><trkpt lat="44.4099042" lon="9.4872692"><ele>946.0</ele><time>2026-03-22T09:42:15.201Z</time></trkpt><trkpt lat="44.4099607" lon="9.4870642"><ele>949.6666666666666</ele><time>2026-03-22T09:42:16.201Z</time></trkpt><trkpt lat="44.4099263" lon="9.486809"><ele>953.3333333333333</ele><time>2026-03-22T09:42:17.201Z</time></trkpt><trkpt lat="44.4099318" lon="9.4865691"><ele>957.0</ele><time>2026-03-22T09:42:18.201Z</time></trkpt><trkpt lat="44.409924" lon="9.4863299"><ele>960.75</ele><time>2026-03-22T09:42:19.201Z</time></trkpt><trkpt lat="44.4099491" lon="9.4861503"><ele>964.5</ele><time>2026-03-22T09:42:20.201Z</time></trkpt><trkpt lat="44.4100012" lon="9.4859678"><ele>968.25</ele><time>2026-03-22T09:42:21.201Z</time></trkpt><trkpt lat="44.4100937" lon="9.4858299"><ele>972.0</ele><time>2026-03-22T09:42:22.202Z</time></trkpt><trkpt lat="44.4101789" lon="9.4857008"><ele>972.0</ele><time>2026-03-22T09:42:23.202Z</time></trkpt><trkpt lat="44.4102946" lon="9.4855792"><ele>972.0</ele><time>2026-03-22T09:42:24.202Z</time></trkpt><trkpt lat="44.4103867" lon="9.4854447"><ele>972.0</ele><time>2026-03-22T09:42:25.201Z</time></trkpt><trkpt lat="44.4104726" lon="9.4852389"><ele>972.0</ele><time>2026-03-22T09:42:26.201Z</time></trkpt><trkpt lat="44.4104765" lon="9.4850047"><ele>973.0</ele><time>2026-03-22T09:42:27.201Z</time></trkpt><trkpt lat="44.4105187" lon="9.4848191"><ele>974.0</ele><time>2026-03-22T09:42:28.202Z</time></trkpt><trkpt lat="44.410563" lon="9.4846684"><ele>975.0</ele><time>2026-03-22T09:42:29.201Z</time></trkpt><trkpt lat="44.4106235" lon="9.484521"><ele>976.0</ele><time>2026-03-22T09:42:30.202Z</time></trkpt><trkpt lat="44.410719" lon="9.4844215"><ele>986.3333333333333</ele><time>2026-03-22T09:42:31.201Z</time></trkpt><trkpt lat="44.4109488" lon="9.4845228"><ele>996.6666666666667</ele><time>2026-03-22T09:42:32.201Z</time></trkpt><trkpt lat="44.4110837" lon="9.4845592"><ele>1007.0</ele><time>2026-03-22T09:42:33.201Z</time></trkpt><trkpt lat="44.4111973" lon="9.4844629"><ele>1007.0</ele><time>2026-03-22T09:42:34.201Z</time></trkpt><trkpt lat="44.4113065" lon="9.4843926"><ele>1007.0</ele><time>2026-03-22T09:42:35.201Z</time></trkpt><trkpt lat="44.4114191" lon="9.4842897"><ele>1007.0</ele><time>2026-03-22T09:42:36.201Z</time></trkpt><trkpt lat="44.4115159" lon="9.4841488"><ele>1007.0</ele><time>2026-03-22T09:42:37.201Z</time></trkpt><trkpt lat="44.4114261" lon="9.4838735"><ele>1008.0</ele><time>2026-03-22T09:42:38.201Z</time></trkpt><trkpt lat="44.4115073" lon="9.4837373"><ele>1009.0</ele><time>2026-03-22T09:42:39.201Z</time></trkpt><trkpt lat="44.4116176" lon="9.483568"><ele>1010.0</ele><time>2026-03-22T09:42:40.201Z</time></trkpt><trkpt lat="44.4117105" lon="9.4833837"><ele>1010.0</ele><time>2026-03-22T09:42:41.201Z</time></trkpt><trkpt lat="44.4118394" lon="9.4831932"><ele>1010.0</ele><time>2026-03-22T09:42:42.201Z</time></trkpt><trkpt lat="44.4120074" lon="9.4830167"><ele>1010.0</ele><time>2026-03-22T09:42:43.201Z</time></trkpt><trkpt lat="44.4121286" lon="9.4828323"><ele>1007.0</ele><time>2026-03-22T09:42:44.201Z</time></trkpt><trkpt lat="44.4122549" lon="9.4826626"><ele>1004.0</ele><time>2026-03-22T09:42:45.201Z</time></trkpt><trkpt lat="44.412371" lon="9.4825169"><ele>1001.0</ele><time>2026-03-22T09:42:46.201Z</time></trkpt><trkpt lat="44.4124708" lon="9.4823753"><ele>1001.0</ele><time>2026-03-22T09:42:47.201Z</time></trkpt><trkpt lat="44.4125781" lon="9.482244"><ele>1000.9999999999999</ele><time>2026-03-22T09:42:48.201Z</time></trkpt><trkpt lat="44.4126615" lon="9.4821352"><ele>1000.9999999999999</ele><time>2026-03-22T09:42:49.201Z</time></trkpt><trkpt lat="44.4126941" lon="9.4820233"><ele>1001.0</ele><time>2026-03-22T09:42:50.202Z</time></trkpt><trkpt lat="44.4127393" lon="9.4819097"><ele>1001.0</ele><time>2026-03-22T09:42:51.202Z</time></trkpt><trkpt lat="44.4127513" lon="9.4817585"><ele>1005.0</ele><time>2026-03-22T09:42:52.201Z</time></trkpt><trkpt lat="44.4127501" lon="9.4816056"><ele>1009.0</ele><time>2026-03-22T09:42:53.201Z</time></trkpt><trkpt lat="44.4126967" lon="9.4814433"><ele>1013.0</ele><time>2026-03-22T09:42:54.201Z</time></trkpt><trkpt lat="44.4125804" lon="9.4812729"><ele>1017.0</ele><time>2026-03-22T09:42:55.201Z</time></trkpt><trkpt lat="44.4124928" lon="9.4811059"><ele>1017.0</ele><time>2026-03-22T09:42:56.201Z</time></trkpt><trkpt lat="44.4124276" lon="9.4809292"><ele>1017.0</ele><time>2026-03-22T09:42:57.201Z</time></trkpt><trkpt lat="44.4124355" lon="9.4807142"><ele>1017.0</ele><time>2026-03-22T09:42:58.201Z</time></trkpt><trkpt lat="44.412436" lon="9.4804966"><ele>1019.0</ele><time>2026-03-22T09:42:59.201Z</time></trkpt><trkpt lat="44.4124429" lon="9.4802627"><ele>1021.0</ele><time>2026-03-22T09:43:00.201Z</time></trkpt><trkpt lat="44.4125115" lon="9.480009"><ele>1023.0</ele><time>2026-03-22T09:43:01.201Z</time></trkpt><trkpt lat="44.412565" lon="9.4797661"><ele>1027.3333333333333</ele><time>2026-03-22T09:43:02.201Z</time></trkpt><trkpt lat="44.4126217" lon="9.4795457"><ele>1031.6666666666665</ele><time>2026-03-22T09:43:03.202Z</time></trkpt><trkpt lat="44.4126935" lon="9.4793018"><ele>1036.0</ele><time>2026-03-22T09:43:04.201Z</time></trkpt><trkpt lat="44.412757" lon="9.4790606"><ele>1036.0</ele><time>2026-03-22T09:43:05.202Z</time></trkpt><trkpt lat="44.4128142" lon="9.4788542"><ele>1036.0</ele><time>2026-03-22T09:43:06.202Z</time></trkpt><trkpt lat="44.4128688" lon="9.4786736"><ele>1036.0</ele><time>2026-03-22T09:43:07.202Z</time></trkpt><trkpt lat="44.4129025" lon="9.4784886"><ele>1036.0</ele><time>2026-03-22T09:43:08.202Z</time></trkpt><trkpt lat="44.412918" lon="9.4783302"><ele>1038.25</ele><time>2026-03-22T09:43:09.201Z</time></trkpt><trkpt lat="44.4128977" lon="9.4781924"><ele>1040.5</ele><time>2026-03-22T09:43:10.202Z</time></trkpt><trkpt lat="44.4127763" lon="9.4780636"><ele>1042.75</ele><time>2026-03-22T09:43:11.201Z</time></trkpt><trkpt lat="44.4126879" lon="9.477937"><ele>1045.0</ele><time>2026-03-22T09:43:12.201Z</time></trkpt><trkpt lat="44.4126304" lon="9.477782"><ele>1045.75</ele><time>2026-03-22T09:43:13.202Z</time></trkpt><trkpt lat="44.4126044" lon="9.4776116"><ele>1046.5</ele><time>2026-03-22T09:43:14.202Z</time></trkpt><trkpt lat="44.4126272" lon="9.4774412"><ele>1047.25</ele><time>2026-03-22T09:43:15.202Z</time></trkpt><trkpt lat="44.412695" lon="9.4772613"><ele>1048.0</ele><time>2026-03-22T09:43:16.202Z</time></trkpt><trkpt lat="44.412804" lon="9.4770794"><ele>1050.3333333333333</ele><time>2026-03-22T09:43:17.201Z</time></trkpt><trkpt lat="44.4129256" lon="9.4769063"><ele>1052.6666666666667</ele><time>2026-03-22T09:43:18.201Z</time></trkpt><trkpt lat="44.4130439" lon="9.4767486"><ele>1055.0</ele><time>2026-03-22T09:43:19.201Z</time></trkpt><trkpt lat="44.4131437" lon="9.4766121"><ele>1048.8</ele><time>2026-03-22T09:43:20.201Z</time></trkpt><trkpt lat="44.4131983" lon="9.4764698"><ele>1042.6</ele><time>2026-03-22T09:43:21.202Z</time></trkpt><trkpt lat="44.4132251" lon="9.4763286"><ele>1036.4</ele><time>2026-03-22T09:43:22.201Z</time></trkpt><trkpt lat="44.4131964" lon="9.4761922"><ele>1030.2</ele><time>2026-03-22T09:43:23.201Z</time></trkpt><trkpt lat="44.4131641" lon="9.4760656"><ele>1024.0</ele><time>2026-03-22T09:43:24.201Z</time></trkpt><trkpt lat="44.4131062" lon="9.4759262"><ele>1031.0</ele><time>2026-03-22T09:43:25.201Z</time></trkpt><trkpt lat="44.4129049" lon="9.4759559"><ele>1038.0</ele><time>2026-03-22T09:43:26.201Z</time></trkpt><trkpt lat="44.4127946" lon="9.4759008"><ele>1045.0</ele><time>2026-03-22T09:43:27.201Z</time></trkpt><trkpt lat="44.4126877" lon="9.4758363"><ele>1052.0</ele><time>2026-03-22T09:43:28.202Z</time></trkpt><trkpt lat="44.4125889" lon="9.475765"><ele>1052.0</ele><time>2026-03-22T09:43:29.202Z</time></trkpt><trkpt lat="44.4125082" lon="9.4756584"><ele>1052.0</ele><time>2026-03-22T09:43:30.202Z</time></trkpt><trkpt lat="44.4125202" lon="9.4754549"><ele>1052.0</ele><time>2026-03-22T09:43:31.202Z</time></trkpt><trkpt lat="44.4126055" lon="9.4752976"><ele>1052.0</ele><time>2026-03-22T09:43:32.201Z</time></trkpt><trkpt lat="44.4126407" lon="9.4751591"><ele>1049.75</ele><time>2026-03-22T09:43:33.201Z</time></trkpt><trkpt lat="44.4126704" lon="9.4750081"><ele>1047.5</ele><time>2026-03-22T09:43:34.201Z</time></trkpt><trkpt lat="44.4126143" lon="9.4749049"><ele>1045.25</ele><time>2026-03-22T09:43:35.201Z</time></trkpt><trkpt lat="44.4125716" lon="9.4747927"><ele>1043.0</ele><time>2026-03-22T09:43:36.201Z</time></trkpt><trkpt lat="44.4124047" lon="9.4748012"><ele>1043.0</ele><time>2026-03-22T09:43:37.202Z</time></trkpt><trkpt lat="44.4123007" lon="9.4747974"><ele>1043.0</ele><time>2026-03-22T09:43:38.202Z</time></trkpt><trkpt lat="44.4121959" lon="9.4748052"><ele>1043.0</ele><time>2026-03-22T09:43:39.202Z</time></trkpt><trkpt lat="44.4120833" lon="9.4748168"><ele>1043.0</ele><time>2026-03-22T09:43:40.201Z</time></trkpt><trkpt lat="44.4119834" lon="9.4748215"><ele>1043.0</ele><time>2026-03-22T09:43:41.201Z</time></trkpt><trkpt lat="44.4119073" lon="9.4747407"><ele>1046.0</ele><time>2026-03-22T09:43:42.201Z</time></trkpt><trkpt lat="44.4118492" lon="9.4746528"><ele>1049.0</ele><time>2026-03-22T09:43:43.201Z</time></trkpt><trkpt lat="44.411828" lon="9.4745188"><ele>1052.0</ele><time>2026-03-22T09:43:44.201Z</time></trkpt><trkpt lat="44.4118443" lon="9.4743622"><ele>1055.0</ele><time>2026-03-22T09:43:45.201Z</time></trkpt><trkpt lat="44.4118631" lon="9.4742247"><ele>1058.0</ele><time>2026-03-22T09:43:46.201Z</time></trkpt><trkpt lat="44.411903" lon="9.4740099"><ele>1058.0</ele><time>2026-03-22T09:43:47.202Z</time></trkpt><trkpt lat="44.411943" lon="9.4738007"><ele>1058.0</ele><time>2026-03-22T09:43:48.202Z</time></trkpt><trkpt lat="44.4119765" lon="9.4736027"><ele>1058.0</ele><time>2026-03-22T09:43:49.202Z</time></trkpt><trkpt lat="44.4119922" lon="9.4734054"><ele>1058.0</ele><time>2026-03-22T09:43:50.201Z</time></trkpt><trkpt lat="44.4119806" lon="9.4732298"><ele>1058.5</ele><time>2026-03-22T09:43:51.202Z</time></trkpt><trkpt lat="44.4119698" lon="9.4730396"><ele>1059.0</ele><time>2026-03-22T09:43:52.201Z</time></trkpt><trkpt lat="44.4119429" lon="9.4728512"><ele>1059.5</ele><time>2026-03-22T09:43:53.202Z</time></trkpt><trkpt lat="44.4118921" lon="9.472706"><ele>1060.0</ele><time>2026-03-22T09:43:54.202Z</time></trkpt><trkpt lat="44.4117985" lon="9.4725967"><ele>1063.5</ele><time>2026-03-22T09:43:55.202Z</time></trkpt><trkpt lat="44.4116833" lon="9.4724903"><ele>1067.0</ele><time>2026-03-22T09:43:56.201Z</time></trkpt><trkpt lat="44.4114992" lon="9.4724461"><ele>1070.5</ele><time>2026-03-22T09:43:57.201Z</time></trkpt><trkpt lat="44.4113956" lon="9.4723676"><ele>1074.0</ele><time>2026-03-22T09:43:58.202Z</time></trkpt><trkpt lat="44.4112898" lon="9.4722983"><ele>1074.0</ele><time>2026-03-22T09:43:59.202Z</time></trkpt><trkpt lat="44.4111963" lon="9.4722565"><ele>1074.0</ele><time>2026-03-22T09:44:00.201Z</time></trkpt><trkpt lat="44.4111072" lon="9.4722066"><ele>1074.0</ele><time>2026-03-22T09:44:01.202Z</time></trkpt><trkpt lat="44.411015" lon="9.4721515"><ele>1074.0</ele><time>2026-03-22T09:44:02.201Z</time></trkpt><trkpt lat="44.4109348" lon="9.4720676"><ele>1074.0</ele><time>2026-03-22T09:44:03.201Z</time></trkpt><trkpt lat="44.4109202" lon="9.4719664"><ele>1072.2</ele><time>2026-03-22T09:44:04.202Z</time></trkpt><trkpt lat="44.4108859" lon="9.4718902"><ele>1070.4</ele><time>2026-03-22T09:44:05.201Z</time></trkpt><trkpt lat="44.4109374" lon="9.471765"><ele>1068.6</ele><time>2026-03-22T09:44:06.202Z</time></trkpt><trkpt lat="44.4109689" lon="9.4716597"><ele>1066.8</ele><time>2026-03-22T09:44:07.201Z</time></trkpt><trkpt lat="44.4110377" lon="9.4715557"><ele>1065.0</ele><time>2026-03-22T09:44:08.201Z</time></trkpt><trkpt lat="44.4112213" lon="9.4714839"><ele>1059.75</ele><time>2026-03-22T09:44:09.202Z</time></trkpt><trkpt lat="44.4113632" lon="9.4714808"><ele>1054.5</ele><time>2026-03-22T09:44:10.201Z</time></trkpt><trkpt lat="44.4115181" lon="9.4715009"><ele>1049.25</ele><time>2026-03-22T09:44:11.201Z</time></trkpt><trkpt lat="44.4116456" lon="9.4715212"><ele>1044.0</ele><time>2026-03-22T09:44:12.202Z</time></trkpt><trkpt lat="44.4117705" lon="9.4715071"><ele>1044.0</ele><time>2026-03-22T09:44:13.202Z</time></trkpt><trkpt lat="44.4118897" lon="9.4714134"><ele>1044.0</ele><time>2026-03-22T09:44:14.201Z</time></trkpt><trkpt lat="44.4120108" lon="9.4713267"><ele>1044.0</ele><time>2026-03-22T09:44:15.201Z</time></trkpt><trkpt lat="44.4121432" lon="9.4712319"><ele>1044.0</ele><time>2026-03-22T09:44:16.201Z</time></trkpt><trkpt lat="44.4122547" lon="9.4711162"><ele>1043.25</ele><time>2026-03-22T09:44:17.201Z</time></trkpt><trkpt lat="44.4123585" lon="9.4709818"><ele>1042.5</ele><time>2026-03-22T09:44:18.201Z</time></trkpt><trkpt lat="44.4124536" lon="9.4708121"><ele>1041.75</ele><time>2026-03-22T09:44:19.202Z</time></trkpt><trkpt lat="44.4125422" lon="9.4706455"><ele>1041.0</ele><time>2026-03-22T09:44:20.202Z</time></trkpt><trkpt lat="44.4126403" lon="9.470494"><ele>1040.5</ele><time>2026-03-22T09:44:21.201Z</time></trkpt><trkpt lat="44.4127565" lon="9.4703715"><ele>1040.0</ele><time>2026-03-22T09:44:22.202Z</time></trkpt><trkpt lat="44.4128588" lon="9.47026"><ele>1039.5</ele><time>2026-03-22T09:44:23.203Z</time></trkpt><trkpt lat="44.4129614" lon="9.4701673"><ele>1039.0</ele><time>2026-03-22T09:44:24.201Z</time></trkpt><trkpt lat="44.4130737" lon="9.4700807"><ele>1039.0</ele><time>2026-03-22T09:44:25.201Z</time></trkpt><trkpt lat="44.4132522" lon="9.4700706"><ele>1039.0</ele><time>2026-03-22T09:44:26.202Z</time></trkpt><trkpt lat="44.4133948" lon="9.4699772"><ele>1039.0</ele><time>2026-03-22T09:44:27.202Z</time></trkpt><trkpt lat="44.4135151" lon="9.4698521"><ele>1039.0</ele><time>2026-03-22T09:44:28.202Z</time></trkpt><trkpt lat="44.4136373" lon="9.4697419"><ele>1039.0</ele><time>2026-03-22T09:44:29.202Z</time></trkpt><trkpt lat="44.4137511" lon="9.4696549"><ele>1039.0</ele><time>2026-03-22T09:44:30.201Z</time></trkpt><trkpt lat="44.4138506" lon="9.4695605"><ele>1039.0</ele><time>2026-03-22T09:44:31.201Z</time></trkpt><trkpt lat="44.4139468" lon="9.469478"><ele>1035.5</ele><time>2026-03-22T09:44:32.202Z</time></trkpt><trkpt lat="44.4140282" lon="9.4693977"><ele>1032.0</ele><time>2026-03-22T09:44:33.201Z</time></trkpt><trkpt lat="44.4140467" lon="9.4692387"><ele>1028.5</ele><time>2026-03-22T09:44:34.202Z</time></trkpt><trkpt lat="44.413994" lon="9.469028"><ele>1025.0</ele><time>2026-03-22T09:44:35.202Z</time></trkpt><trkpt lat="44.4139908" lon="9.4688464"><ele>1024.0</ele><time>2026-03-22T09:44:36.201Z</time></trkpt><trkpt lat="44.4139739" lon="9.4686827"><ele>1023.0</ele><time>2026-03-22T09:44:37.201Z</time></trkpt><trkpt lat="44.4139504" lon="9.468523"><ele>1022.0</ele><time>2026-03-22T09:44:38.201Z</time></trkpt><trkpt lat="44.4139346" lon="9.4683706"><ele>1021.0</ele><time>2026-03-22T09:44:39.201Z</time></trkpt><trkpt lat="44.4137797" lon="9.4682589"><ele>1027.0</ele><time>2026-03-22T09:44:40.202Z</time></trkpt><trkpt lat="44.4136989" lon="9.4681198"><ele>1033.0</ele><time>2026-03-22T09:44:41.201Z</time></trkpt><trkpt lat="44.4136051" lon="9.4679341"><ele>1039.0</ele><time>2026-03-22T09:44:42.201Z</time></trkpt><trkpt lat="44.4135241" lon="9.4677843"><ele>1045.0</ele><time>2026-03-22T09:44:43.201Z</time></trkpt><trkpt lat="44.4134687" lon="9.4676245"><ele>1045.0</ele><time>2026-03-22T09:44:44.202Z</time></trkpt><trkpt lat="44.4133928" lon="9.4674704"><ele>1045.0</ele><time>2026-03-22T09:44:45.201Z</time></trkpt><trkpt lat="44.4133411" lon="9.4672938"><ele>1045.0</ele><time>2026-03-22T09:44:46.201Z</time></trkpt><trkpt lat="44.4132777" lon="9.4671165"><ele>1045.0</ele><time>2026-03-22T09:44:47.201Z</time></trkpt><trkpt lat="44.4132495" lon="9.4669415"><ele>1042.75</ele><time>2026-03-22T09:44:48.201Z</time></trkpt><trkpt lat="44.4132446" lon="9.4667517"><ele>1040.5</ele><time>2026-03-22T09:44:49.201Z</time></trkpt><trkpt lat="44.4132169" lon="9.4665633"><ele>1038.25</ele><time>2026-03-22T09:44:50.201Z</time></trkpt><trkpt lat="44.4131495" lon="9.4664081"><ele>1036.0</ele><time>2026-03-22T09:44:51.202Z</time></trkpt><trkpt lat="44.4131127" lon="9.4662585"><ele>1033.75</ele><time>2026-03-22T09:44:52.201Z</time></trkpt><trkpt lat="44.4131091" lon="9.4660906"><ele>1031.5</ele><time>2026-03-22T09:44:53.201Z</time></trkpt><trkpt lat="44.4131127" lon="9.4659328"><ele>1029.25</ele><time>2026-03-22T09:44:54.201Z</time></trkpt><trkpt lat="44.4130847" lon="9.4657715"><ele>1027.0</ele><time>2026-03-22T09:44:55.201Z</time></trkpt><trkpt lat="44.4130704" lon="9.465615"><ele>1027.0</ele><time>2026-03-22T09:44:56.202Z</time></trkpt><trkpt lat="44.4130604" lon="9.4654593"><ele>1027.0</ele><time>2026-03-22T09:44:57.202Z</time></trkpt><trkpt lat="44.412966" lon="9.4653588"><ele>1027.0</ele><time>2026-03-22T09:44:58.202Z</time></trkpt><trkpt lat="44.4128839" lon="9.4652305"><ele>1027.0</ele><time>2026-03-22T09:44:59.201Z</time></trkpt><trkpt lat="44.4128199" lon="9.4651184"><ele>1029.0</ele><time>2026-03-22T09:45:00.202Z</time></trkpt><trkpt lat="44.4127669" lon="9.465006"><ele>1031.0</ele><time>2026-03-22T09:45:01.201Z</time></trkpt><trkpt lat="44.4128603" lon="9.4648607"><ele>1033.0</ele><time>2026-03-22T09:45:02.201Z</time></trkpt><trkpt lat="44.4128773" lon="9.4647531"><ele>1035.0</ele><time>2026-03-22T09:45:03.201Z</time></trkpt><trkpt lat="44.4129282" lon="9.4646195"><ele>1037.0</ele><time>2026-03-22T09:45:04.201Z</time></trkpt><trkpt lat="44.4130544" lon="9.4644584"><ele>1037.0</ele><time>2026-03-22T09:45:05.201Z</time></trkpt><trkpt lat="44.4131693" lon="9.4643811"><ele>1037.0</ele><time>2026-03-22T09:45:06.201Z</time></trkpt><trkpt lat="44.4133248" lon="9.4643473"><ele>1037.0</ele><time>2026-03-22T09:45:07.201Z</time></trkpt><trkpt lat="44.4134711" lon="9.4643347"><ele>1037.0</ele><time>2026-03-22T09:45:08.202Z</time></trkpt><trkpt lat="44.4136192" lon="9.4644867"><ele>1037.0</ele><time>2026-03-22T09:45:09.202Z</time></trkpt><trkpt lat="44.4136848" lon="9.464502"><ele>1037.0</ele><time>2026-03-22T09:45:10.202Z</time></trkpt><trkpt lat="44.4137794" lon="9.4644485"><ele>1037.0</ele><time>2026-03-22T09:45:12.202Z</time></trkpt><trkpt lat="44.4137778" lon="9.4643173"><ele>1037.0</ele><time>2026-03-22T09:45:13.201Z</time></trkpt><trkpt lat="44.4138213" lon="9.4641675"><ele>1037.0</ele><time>2026-03-22T09:45:14.201Z</time></trkpt><trkpt lat="44.4137877" lon="9.4638878"><ele>1039.3333333333335</ele><time>2026-03-22T09:45:15.201Z</time></trkpt><trkpt lat="44.4137881" lon="9.4637148"><ele>1041.6666666666667</ele><time>2026-03-22T09:45:16.202Z</time></trkpt><trkpt lat="44.413798" lon="9.4634784"><ele>1044.0</ele><time>2026-03-22T09:45:17.201Z</time></trkpt><trkpt lat="44.4138135" lon="9.4632471"><ele>1033.25</ele><time>2026-03-22T09:45:18.201Z</time></trkpt><trkpt lat="44.4138681" lon="9.4630363"><ele>1022.5</ele><time>2026-03-22T09:45:19.202Z</time></trkpt><trkpt lat="44.4139149" lon="9.4628482"><ele>1011.75</ele><time>2026-03-22T09:45:20.201Z</time></trkpt><trkpt lat="44.4139398" lon="9.462668"><ele>1001.0</ele><time>2026-03-22T09:45:21.202Z</time></trkpt><trkpt lat="44.4139765" lon="9.4624768"><ele>1001.0</ele><time>2026-03-22T09:45:22.202Z</time></trkpt><trkpt lat="44.4140121" lon="9.4623415"><ele>1001.0</ele><time>2026-03-22T09:45:23.201Z</time></trkpt><trkpt lat="44.4139879" lon="9.4622211"><ele>1001.0</ele><time>2026-03-22T09:45:24.202Z</time></trkpt><trkpt lat="44.4138357" lon="9.4620459"><ele>1001.0</ele><time>2026-03-22T09:45:25.202Z</time></trkpt><trkpt lat="44.413768" lon="9.4619139"><ele>1006.25</ele><time>2026-03-22T09:45:26.201Z</time></trkpt><trkpt lat="44.4136595" lon="9.4617759"><ele>1011.5</ele><time>2026-03-22T09:45:27.201Z</time></trkpt><trkpt lat="44.4135599" lon="9.4616566"><ele>1016.75</ele><time>2026-03-22T09:45:28.201Z</time></trkpt><trkpt lat="44.4134439" lon="9.4615426"><ele>1022.0</ele><time>2026-03-22T09:45:29.201Z</time></trkpt><trkpt lat="44.4133391" lon="9.461439"><ele>1022.0</ele><time>2026-03-22T09:45:30.201Z</time></trkpt><trkpt lat="44.4132464" lon="9.4613901"><ele>1022.0</ele><time>2026-03-22T09:45:31.201Z</time></trkpt><trkpt lat="44.4131525" lon="9.4613035"><ele>1022.0</ele><time>2026-03-22T09:45:32.201Z</time></trkpt><trkpt lat="44.4131112" lon="9.4611464"><ele>1022.0</ele><time>2026-03-22T09:45:33.201Z</time></trkpt><trkpt lat="44.4130634" lon="9.461012"><ele>1022.0</ele><time>2026-03-22T09:45:34.201Z</time></trkpt><trkpt lat="44.4130181" lon="9.4608481"><ele>1023.5</ele><time>2026-03-22T09:45:35.201Z</time></trkpt><trkpt lat="44.4129463" lon="9.4607334"><ele>1025.0</ele><time>2026-03-22T09:45:36.201Z</time></trkpt><trkpt lat="44.4128664" lon="9.4606206"><ele>1026.5</ele><time>2026-03-22T09:45:37.201Z</time></trkpt><trkpt lat="44.4127784" lon="9.4605063"><ele>1028.0</ele><time>2026-03-22T09:45:38.202Z</time></trkpt><trkpt lat="44.4126897" lon="9.4603957"><ele>1025.1666666666667</ele><time>2026-03-22T09:45:39.202Z</time></trkpt><trkpt lat="44.4126649" lon="9.4602832"><ele>1022.3333333333334</ele><time>2026-03-22T09:45:40.202Z</time></trkpt><trkpt lat="44.4126005" lon="9.4601682"><ele>1019.5</ele><time>2026-03-22T09:45:41.202Z</time></trkpt><trkpt lat="44.4125739" lon="9.4600644"><ele>1016.6666666666667</ele><time>2026-03-22T09:45:42.202Z</time></trkpt><trkpt lat="44.4125828" lon="9.4599566"><ele>1013.8333333333334</ele><time>2026-03-22T09:45:43.201Z</time></trkpt><trkpt lat="44.4125816" lon="9.4598604"><ele>1011.0</ele><time>2026-03-22T09:45:44.202Z</time></trkpt><trkpt lat="44.4127536" lon="9.4599042"><ele>1011.0</ele><time>2026-03-22T09:45:45.201Z</time></trkpt><trkpt lat="44.4128296" lon="9.4598972"><ele>1011.0</ele><time>2026-03-22T09:45:46.201Z</time></trkpt><trkpt lat="44.4128849" lon="9.4598202"><ele>1011.0</ele><time>2026-03-22T09:45:47.202Z</time></trkpt><trkpt lat="44.4129157" lon="9.4597226"><ele>1011.0</ele><time>2026-03-22T09:45:48.202Z</time></trkpt><trkpt lat="44.412932" lon="9.4595976"><ele>1011.0</ele><time>2026-03-22T09:45:49.201Z</time></trkpt><trkpt lat="44.4129425" lon="9.4594336"><ele>1011.0</ele><time>2026-03-22T09:45:50.201Z</time></trkpt><trkpt lat="44.4129582" lon="9.4591475"><ele>1010.6666666666667</ele><time>2026-03-22T09:45:51.201Z</time></trkpt><trkpt lat="44.4129454" lon="9.4588759"><ele>1010.3333333333334</ele><time>2026-03-22T09:45:52.201Z</time></trkpt><trkpt lat="44.4129571" lon="9.4586457"><ele>1010.0</ele><time>2026-03-22T09:45:53.201Z</time></trkpt><trkpt lat="44.4130157" lon="9.4584973"><ele>1005.25</ele><time>2026-03-22T09:45:54.201Z</time></trkpt><trkpt lat="44.4130105" lon="9.4583124"><ele>1000.5</ele><time>2026-03-22T09:45:55.201Z</time></trkpt><trkpt lat="44.4130366" lon="9.4581443"><ele>995.75</ele><time>2026-03-22T09:45:56.201Z</time></trkpt><trkpt lat="44.4130342" lon="9.4579672"><ele>991.0</ele><time>2026-03-22T09:45:57.201Z</time></trkpt><trkpt lat="44.412995" lon="9.4578521"><ele>991.25</ele><time>2026-03-22T09:45:58.202Z</time></trkpt><trkpt lat="44.4129344" lon="9.4577294"><ele>991.5</ele><time>2026-03-22T09:45:59.201Z</time></trkpt><trkpt lat="44.412865" lon="9.4576424"><ele>991.75</ele><time>2026-03-22T09:46:00.201Z</time></trkpt><trkpt lat="44.4127146" lon="9.4576258"><ele>992.0</ele><time>2026-03-22T09:46:01.201Z</time></trkpt><trkpt lat="44.4125881" lon="9.4575828"><ele>992.0</ele><time>2026-03-22T09:46:02.202Z</time></trkpt><trkpt lat="44.4125" lon="9.4575988"><ele>992.0</ele><time>2026-03-22T09:46:03.201Z</time></trkpt><trkpt lat="44.4123991" lon="9.4575925"><ele>992.0</ele><time>2026-03-22T09:46:04.201Z</time></trkpt><trkpt lat="44.4123063" lon="9.4575366"><ele>992.0</ele><time>2026-03-22T09:46:05.201Z</time></trkpt><trkpt lat="44.4122222" lon="9.4574727"><ele>992.0</ele><time>2026-03-22T09:46:06.201Z</time></trkpt><trkpt lat="44.4121635" lon="9.4574115"><ele>996.25</ele><time>2026-03-22T09:46:07.201Z</time></trkpt><trkpt lat="44.4121417" lon="9.4572364"><ele>1000.5</ele><time>2026-03-22T09:46:08.201Z</time></trkpt><trkpt lat="44.4120891" lon="9.4570854"><ele>1004.75</ele><time>2026-03-22T09:46:09.201Z</time></trkpt><trkpt lat="44.4120271" lon="9.4569238"><ele>1009.0</ele><time>2026-03-22T09:46:10.202Z</time></trkpt><trkpt lat="44.4119691" lon="9.4567561"><ele>1009.0</ele><time>2026-03-22T09:46:11.201Z</time></trkpt><trkpt lat="44.4119152" lon="9.456599"><ele>1009.0</ele><time>2026-03-22T09:46:12.202Z</time></trkpt><trkpt lat="44.4118666" lon="9.4564527"><ele>1009.0</ele><time>2026-03-22T09:46:13.201Z</time></trkpt><trkpt lat="44.4118323" lon="9.456309"><ele>1009.0</ele><time>2026-03-22T09:46:14.202Z</time></trkpt><trkpt lat="44.4117357" lon="9.4560192"><ele>1006.25</ele><time>2026-03-22T09:46:16.201Z</time></trkpt><trkpt lat="44.4117404" lon="9.4558381"><ele>1003.5</ele><time>2026-03-22T09:46:17.201Z</time></trkpt><trkpt lat="44.4117507" lon="9.4556865"><ele>1000.75</ele><time>2026-03-22T09:46:18.201Z</time></trkpt><trkpt lat="44.4118267" lon="9.4555402"><ele>998.0</ele><time>2026-03-22T09:46:19.202Z</time></trkpt><trkpt lat="44.4118535" lon="9.4553884"><ele>997.0</ele><time>2026-03-22T09:46:20.201Z</time></trkpt><trkpt lat="44.4118696" lon="9.4552101"><ele>996.0</ele><time>2026-03-22T09:46:21.201Z</time></trkpt><trkpt lat="44.4118825" lon="9.4550171"><ele>995.0</ele><time>2026-03-22T09:46:22.201Z</time></trkpt><trkpt lat="44.4119129" lon="9.45484"><ele>994.0</ele><time>2026-03-22T09:46:23.201Z</time></trkpt><trkpt lat="44.4119397" lon="9.4546528"><ele>992.0</ele><time>2026-03-22T09:46:24.201Z</time></trkpt><trkpt lat="44.4119174" lon="9.4544689"><ele>990.0</ele><time>2026-03-22T09:46:25.201Z</time></trkpt><trkpt lat="44.4119178" lon="9.4542865"><ele>988.0</ele><time>2026-03-22T09:46:26.201Z</time></trkpt><trkpt lat="44.4118831" lon="9.4540163"><ele>986.3333333333333</ele><time>2026-03-22T09:46:27.201Z</time></trkpt><trkpt lat="44.4118897" lon="9.4537436"><ele>984.6666666666667</ele><time>2026-03-22T09:46:28.201Z</time></trkpt><trkpt lat="44.4119014" lon="9.4534878"><ele>983.0</ele><time>2026-03-22T09:46:29.201Z</time></trkpt><trkpt lat="44.4119122" lon="9.4532584"><ele>983.0</ele><time>2026-03-22T09:46:30.201Z</time></trkpt><trkpt lat="44.4119149" lon="9.4530276"><ele>983.0</ele><time>2026-03-22T09:46:31.201Z</time></trkpt><trkpt lat="44.4119202" lon="9.4528211"><ele>983.0</ele><time>2026-03-22T09:46:32.201Z</time></trkpt><trkpt lat="44.4119137" lon="9.4526477"><ele>983.0</ele><time>2026-03-22T09:46:33.202Z</time></trkpt><trkpt lat="44.411892" lon="9.4524818"><ele>980.75</ele><time>2026-03-22T09:46:34.202Z</time></trkpt><trkpt lat="44.4118524" lon="9.4523252"><ele>978.5</ele><time>2026-03-22T09:46:35.202Z</time></trkpt><trkpt lat="44.4117939" lon="9.4521943"><ele>976.25</ele><time>2026-03-22T09:46:36.202Z</time></trkpt><trkpt lat="44.4117189" lon="9.452081"><ele>974.0</ele><time>2026-03-22T09:46:37.202Z</time></trkpt><trkpt lat="44.4116068" lon="9.4519965"><ele>975.0</ele><time>2026-03-22T09:46:38.202Z</time></trkpt><trkpt lat="44.4114904" lon="9.4519744"><ele>976.0000000000001</ele><time>2026-03-22T09:46:39.202Z</time></trkpt><trkpt lat="44.4113803" lon="9.4519288"><ele>977.0000000000001</ele><time>2026-03-22T09:46:40.202Z</time></trkpt><trkpt lat="44.4112793" lon="9.4518746"><ele>978.0</ele><time>2026-03-22T09:46:41.201Z</time></trkpt><trkpt lat="44.4112025" lon="9.4518007"><ele>979.0</ele><time>2026-03-22T09:46:42.201Z</time></trkpt><trkpt lat="44.411149" lon="9.4516892"><ele>979.0</ele><time>2026-03-22T09:46:43.202Z</time></trkpt><trkpt lat="44.4111282" lon="9.4515638"><ele>979.0000000000001</ele><time>2026-03-22T09:46:44.202Z</time></trkpt><trkpt lat="44.4111072" lon="9.4514494"><ele>979.0000000000001</ele><time>2026-03-22T09:46:45.202Z</time></trkpt><trkpt lat="44.4111102" lon="9.4513274"><ele>979.0</ele><time>2026-03-22T09:46:46.201Z</time></trkpt><trkpt lat="44.4112673" lon="9.4512771"><ele>979.0</ele><time>2026-03-22T09:46:47.201Z</time></trkpt><trkpt lat="44.4113707" lon="9.4512383"><ele>976.75</ele><time>2026-03-22T09:46:48.202Z</time></trkpt><trkpt lat="44.4115028" lon="9.4512321"><ele>974.5</ele><time>2026-03-22T09:46:49.202Z</time></trkpt><trkpt lat="44.4116405" lon="9.451239"><ele>972.25</ele><time>2026-03-22T09:46:50.202Z</time></trkpt><trkpt lat="44.4117749" lon="9.4512243"><ele>970.0</ele><time>2026-03-22T09:46:51.202Z</time></trkpt><trkpt lat="44.4119037" lon="9.4511878"><ele>970.0</ele><time>2026-03-22T09:46:52.202Z</time></trkpt><trkpt lat="44.4120296" lon="9.4511489"><ele>970.0</ele><time>2026-03-22T09:46:53.202Z</time></trkpt><trkpt lat="44.4121454" lon="9.4511067"><ele>970.0</ele><time>2026-03-22T09:46:54.201Z</time></trkpt><trkpt lat="44.4122483" lon="9.4510329"><ele>970.0</ele><time>2026-03-22T09:46:55.201Z</time></trkpt><trkpt lat="44.412322" lon="9.4509082"><ele>968.25</ele><time>2026-03-22T09:46:56.202Z</time></trkpt><trkpt lat="44.4123661" lon="9.450758"><ele>966.5</ele><time>2026-03-22T09:46:57.201Z</time></trkpt><trkpt lat="44.4123586" lon="9.4505907"><ele>964.75</ele><time>2026-03-22T09:46:58.202Z</time></trkpt><trkpt lat="44.4123471" lon="9.4504277"><ele>963.0</ele><time>2026-03-22T09:46:59.202Z</time></trkpt><trkpt lat="44.4122237" lon="9.4502955"><ele>965.5</ele><time>2026-03-22T09:47:00.202Z</time></trkpt><trkpt lat="44.4121493" lon="9.4501591"><ele>968.0</ele><time>2026-03-22T09:47:01.202Z</time></trkpt><trkpt lat="44.4120732" lon="9.4500328"><ele>970.5</ele><time>2026-03-22T09:47:02.202Z</time></trkpt><trkpt lat="44.4120164" lon="9.4498975"><ele>973.0</ele><time>2026-03-22T09:47:03.202Z</time></trkpt><trkpt lat="44.4119901" lon="9.4497441"><ele>969.6666666666666</ele><time>2026-03-22T09:47:04.202Z</time></trkpt><trkpt lat="44.4119824" lon="9.4495697"><ele>966.3333333333333</ele><time>2026-03-22T09:47:05.202Z</time></trkpt><trkpt lat="44.4119668" lon="9.4493669"><ele>963.0</ele><time>2026-03-22T09:47:06.202Z</time></trkpt><trkpt lat="44.411986" lon="9.4491162"><ele>963.0</ele><time>2026-03-22T09:47:07.202Z</time></trkpt><trkpt lat="44.412009" lon="9.4489"><ele>963.0</ele><time>2026-03-22T09:47:08.202Z</time></trkpt><trkpt lat="44.4120255" lon="9.4486905"><ele>963.0</ele><time>2026-03-22T09:47:09.202Z</time></trkpt><trkpt lat="44.4120351" lon="9.448497"><ele>963.0</ele><time>2026-03-22T09:47:10.203Z</time></trkpt><trkpt lat="44.412042" lon="9.4483222"><ele>961.5</ele><time>2026-03-22T09:47:11.201Z</time></trkpt><trkpt lat="44.4120494" lon="9.4481348"><ele>960.0</ele><time>2026-03-22T09:47:12.201Z</time></trkpt><trkpt lat="44.4120837" lon="9.4479693"><ele>958.5</ele><time>2026-03-22T09:47:13.201Z</time></trkpt><trkpt lat="44.4121306" lon="9.4478119"><ele>957.0</ele><time>2026-03-22T09:47:14.202Z</time></trkpt><trkpt lat="44.4121995" lon="9.4476428"><ele>954.25</ele><time>2026-03-22T09:47:15.201Z</time></trkpt><trkpt lat="44.4122906" lon="9.4474874"><ele>951.5</ele><time>2026-03-22T09:47:16.201Z</time></trkpt><trkpt lat="44.4123966" lon="9.447344"><ele>948.75</ele><time>2026-03-22T09:47:17.202Z</time></trkpt><trkpt lat="44.4125144" lon="9.447211"><ele>946.0</ele><time>2026-03-22T09:47:18.202Z</time></trkpt><trkpt lat="44.4126263" lon="9.4470934"><ele>946.0</ele><time>2026-03-22T09:47:19.201Z</time></trkpt><trkpt lat="44.4127298" lon="9.4469903"><ele>945.9999999999999</ele><time>2026-03-22T09:47:20.201Z</time></trkpt><trkpt lat="44.4128193" lon="9.446899"><ele>945.9999999999999</ele><time>2026-03-22T09:47:21.202Z</time></trkpt><trkpt lat="44.4128965" lon="9.4468265"><ele>946.0</ele><time>2026-03-22T09:47:22.202Z</time></trkpt><trkpt lat="44.4129743" lon="9.4467513"><ele>946.0</ele><time>2026-03-22T09:47:23.202Z</time></trkpt><trkpt lat="44.4130517" lon="9.4466902"><ele>945.4999999999999</ele><time>2026-03-22T09:47:24.201Z</time></trkpt><trkpt lat="44.4131269" lon="9.446635"><ele>945.0</ele><time>2026-03-22T09:47:25.202Z</time></trkpt><trkpt lat="44.4131958" lon="9.4465917"><ele>944.5</ele><time>2026-03-22T09:47:26.202Z</time></trkpt><trkpt lat="44.4132619" lon="9.446541"><ele>944.0</ele><time>2026-03-22T09:47:27.201Z</time></trkpt><trkpt lat="44.4133263" lon="9.4464969"><ele>943.4999999999999</ele><time>2026-03-22T09:47:28.201Z</time></trkpt><trkpt lat="44.4134109" lon="9.4464484"><ele>943.0</ele><time>2026-03-22T09:47:29.202Z</time></trkpt><trkpt lat="44.4135349" lon="9.4463484"><ele>944.0</ele><time>2026-03-22T09:47:30.202Z</time></trkpt><trkpt lat="44.4136539" lon="9.446229"><ele>945.0</ele><time>2026-03-22T09:47:31.201Z</time></trkpt><trkpt lat="44.4137705" lon="9.4460763"><ele>946.0</ele><time>2026-03-22T09:47:32.201Z</time></trkpt><trkpt lat="44.4138709" lon="9.4459145"><ele>947.5</ele><time>2026-03-22T09:47:33.202Z</time></trkpt><trkpt lat="44.4139572" lon="9.445752"><ele>949.0</ele><time>2026-03-22T09:47:34.201Z</time></trkpt><trkpt lat="44.4140387" lon="9.4455965"><ele>950.5</ele><time>2026-03-22T09:47:35.201Z</time></trkpt><trkpt lat="44.4141297" lon="9.4454502"><ele>952.0</ele><time>2026-03-22T09:47:36.202Z</time></trkpt><trkpt lat="44.4142298" lon="9.4453138"><ele>952.0</ele><time>2026-03-22T09:47:37.201Z</time></trkpt><trkpt lat="44.4143426" lon="9.4451939"><ele>952.0</ele><time>2026-03-22T09:47:38.201Z</time></trkpt><trkpt lat="44.4144648" lon="9.4450783"><ele>952.0</ele><time>2026-03-22T09:47:39.201Z</time></trkpt><trkpt lat="44.4145804" lon="9.4449567"><ele>952.0</ele><time>2026-03-22T09:47:40.201Z</time></trkpt><trkpt lat="44.4146857" lon="9.4448356"><ele>951.75</ele><time>2026-03-22T09:47:41.201Z</time></trkpt><trkpt lat="44.414775" lon="9.444708"><ele>951.5</ele><time>2026-03-22T09:47:42.202Z</time></trkpt><trkpt lat="44.4148513" lon="9.4445814"><ele>951.25</ele><time>2026-03-22T09:47:43.202Z</time></trkpt><trkpt lat="44.4149237" lon="9.4444508"><ele>951.0</ele><time>2026-03-22T09:47:44.201Z</time></trkpt><trkpt lat="44.414983" lon="9.4443203"><ele>951.0</ele><time>2026-03-22T09:47:45.201Z</time></trkpt><trkpt lat="44.4150329" lon="9.44419"><ele>950.9999999999999</ele><time>2026-03-22T09:47:46.201Z</time></trkpt><trkpt lat="44.4150799" lon="9.4440568"><ele>950.9999999999999</ele><time>2026-03-22T09:47:47.202Z</time></trkpt><trkpt lat="44.4151219" lon="9.4439274"><ele>951.0</ele><time>2026-03-22T09:47:48.202Z</time></trkpt><trkpt lat="44.4151635" lon="9.4438034"><ele>951.0</ele><time>2026-03-22T09:47:49.201Z</time></trkpt><trkpt lat="44.4151976" lon="9.4436863"><ele>952.3333333333334</ele><time>2026-03-22T09:47:50.202Z</time></trkpt><trkpt lat="44.4152229" lon="9.4435784"><ele>953.6666666666667</ele><time>2026-03-22T09:47:51.202Z</time></trkpt><trkpt lat="44.4152283" lon="9.4434871"><ele>955.0</ele><time>2026-03-22T09:47:52.202Z</time></trkpt><trkpt lat="44.4151843" lon="9.4433344"><ele>956.3333333333334</ele><time>2026-03-22T09:47:54.201Z</time></trkpt><trkpt lat="44.4151464" lon="9.4432502"><ele>957.6666666666667</ele><time>2026-03-22T09:47:55.201Z</time></trkpt><trkpt lat="44.4151219" lon="9.4431559"><ele>959.0</ele><time>2026-03-22T09:47:56.201Z</time></trkpt><trkpt lat="44.4151308" lon="9.443039"><ele>960.0</ele><time>2026-03-22T09:47:57.201Z</time></trkpt><trkpt lat="44.4151794" lon="9.442916"><ele>961.0000000000001</ele><time>2026-03-22T09:47:58.201Z</time></trkpt><trkpt lat="44.415266" lon="9.4428056"><ele>962.0000000000001</ele><time>2026-03-22T09:47:59.201Z</time></trkpt><trkpt lat="44.4153456" lon="9.4427208"><ele>963.0</ele><time>2026-03-22T09:48:00.201Z</time></trkpt><trkpt lat="44.4154337" lon="9.4426621"><ele>964.0</ele><time>2026-03-22T09:48:01.201Z</time></trkpt><trkpt lat="44.4155187" lon="9.4426043"><ele>964.0</ele><time>2026-03-22T09:48:02.201Z</time></trkpt><trkpt lat="44.415576" lon="9.442495"><ele>964.0000000000001</ele><time>2026-03-22T09:48:03.202Z</time></trkpt><trkpt lat="44.415639" lon="9.4423818"><ele>964.0000000000001</ele><time>2026-03-22T09:48:04.202Z</time></trkpt><trkpt lat="44.415705" lon="9.4422617"><ele>964.0</ele><time>2026-03-22T09:48:05.202Z</time></trkpt><trkpt lat="44.4157653" lon="9.4421543"><ele>964.0</ele><time>2026-03-22T09:48:06.202Z</time></trkpt><trkpt lat="44.415841" lon="9.4421258"><ele>964.0</ele><time>2026-03-22T09:48:07.202Z</time></trkpt><trkpt lat="44.4159183" lon="9.4420618"><ele>964.0000000000001</ele><time>2026-03-22T09:48:08.202Z</time></trkpt><trkpt lat="44.4159969" lon="9.4420208"><ele>964.0000000000001</ele><time>2026-03-22T09:48:09.202Z</time></trkpt><trkpt lat="44.4160959" lon="9.4420453"><ele>964.0</ele><time>2026-03-22T09:48:10.202Z</time></trkpt><trkpt lat="44.4162287" lon="9.442183"><ele>964.0</ele><time>2026-03-22T09:48:11.201Z</time></trkpt><trkpt lat="44.4162429" lon="9.4423353"><ele>965.25</ele><time>2026-03-22T09:48:12.202Z</time></trkpt><trkpt lat="44.4163202" lon="9.4423975"><ele>966.5</ele><time>2026-03-22T09:48:13.201Z</time></trkpt><trkpt lat="44.4164208" lon="9.4424596"><ele>967.75</ele><time>2026-03-22T09:48:14.201Z</time></trkpt><trkpt lat="44.4165135" lon="9.4424667"><ele>969.0</ele><time>2026-03-22T09:48:15.201Z</time></trkpt><trkpt lat="44.4166331" lon="9.4422028"><ele>968.25</ele><time>2026-03-22T09:48:16.201Z</time></trkpt><trkpt lat="44.4167304" lon="9.4421227"><ele>967.5</ele><time>2026-03-22T09:48:17.201Z</time></trkpt><trkpt lat="44.4168028" lon="9.4420465"><ele>966.75</ele><time>2026-03-22T09:48:18.201Z</time></trkpt><trkpt lat="44.4168914" lon="9.4419004"><ele>966.0</ele><time>2026-03-22T09:48:19.202Z</time></trkpt><trkpt lat="44.4169038" lon="9.4417289"><ele>966.0</ele><time>2026-03-22T09:48:20.202Z</time></trkpt><trkpt lat="44.4169512" lon="9.4415785"><ele>966.0</ele><time>2026-03-22T09:48:21.201Z</time></trkpt><trkpt lat="44.4169967" lon="9.4413994"><ele>966.0</ele><time>2026-03-22T09:48:22.202Z</time></trkpt><trkpt lat="44.4170467" lon="9.4412074"><ele>966.0</ele><time>2026-03-22T09:48:23.202Z</time></trkpt><trkpt lat="44.4170942" lon="9.4410298"><ele>967.25</ele><time>2026-03-22T09:48:24.202Z</time></trkpt><trkpt lat="44.4171605" lon="9.4408786"><ele>968.5</ele><time>2026-03-22T09:48:25.202Z</time></trkpt><trkpt lat="44.4172534" lon="9.4407572"><ele>969.75</ele><time>2026-03-22T09:48:26.202Z</time></trkpt><trkpt lat="44.4173725" lon="9.4407031"><ele>971.0</ele><time>2026-03-22T09:48:27.201Z</time></trkpt><trkpt lat="44.4175052" lon="9.4406527"><ele>971.0</ele><time>2026-03-22T09:48:28.202Z</time></trkpt><trkpt lat="44.4176363" lon="9.4405852"><ele>971.0</ele><time>2026-03-22T09:48:29.201Z</time></trkpt><trkpt lat="44.4178083" lon="9.4405219"><ele>971.0</ele><time>2026-03-22T09:48:30.202Z</time></trkpt><trkpt lat="44.4179501" lon="9.4404636"><ele>979.3333333333334</ele><time>2026-03-22T09:48:31.202Z</time></trkpt><trkpt lat="44.4181151" lon="9.4404396"><ele>987.6666666666667</ele><time>2026-03-22T09:48:32.202Z</time></trkpt><trkpt lat="44.4182674" lon="9.4404235"><ele>996.0</ele><time>2026-03-22T09:48:33.201Z</time></trkpt><trkpt lat="44.4184249" lon="9.4404118"><ele>996.0</ele><time>2026-03-22T09:48:34.201Z</time></trkpt><trkpt lat="44.4185779" lon="9.4403827"><ele>996.0</ele><time>2026-03-22T09:48:35.201Z</time></trkpt><trkpt lat="44.418714" lon="9.4403269"><ele>996.0</ele><time>2026-03-22T09:48:36.201Z</time></trkpt><trkpt lat="44.4188468" lon="9.4402744"><ele>996.0</ele><time>2026-03-22T09:48:37.202Z</time></trkpt><trkpt lat="44.4189755" lon="9.4402691"><ele>994.25</ele><time>2026-03-22T09:48:38.203Z</time></trkpt><trkpt lat="44.4191" lon="9.4402608"><ele>992.5</ele><time>2026-03-22T09:48:39.202Z</time></trkpt><trkpt lat="44.4192135" lon="9.4402618"><ele>990.75</ele><time>2026-03-22T09:48:40.202Z</time></trkpt><trkpt lat="44.4193419" lon="9.440137"><ele>989.0</ele><time>2026-03-22T09:48:41.202Z</time></trkpt><trkpt lat="44.4194546" lon="9.4400339"><ele>989.0</ele><time>2026-03-22T09:48:42.202Z</time></trkpt><trkpt lat="44.4195502" lon="9.4398532"><ele>989.0</ele><time>2026-03-22T09:48:43.202Z</time></trkpt><trkpt lat="44.4196666" lon="9.4397439"><ele>989.0</ele><time>2026-03-22T09:48:44.201Z</time></trkpt><trkpt lat="44.4198026" lon="9.4396822"><ele>989.0</ele><time>2026-03-22T09:48:45.201Z</time></trkpt><trkpt lat="44.4199562" lon="9.4396833"><ele>983.75</ele><time>2026-03-22T09:48:46.201Z</time></trkpt><trkpt lat="44.4201005" lon="9.4397271"><ele>978.5</ele><time>2026-03-22T09:48:47.201Z</time></trkpt><trkpt lat="44.4202323" lon="9.4397466"><ele>973.25</ele><time>2026-03-22T09:48:48.201Z</time></trkpt><trkpt lat="44.420377" lon="9.4397578"><ele>968.0</ele><time>2026-03-22T09:48:49.201Z</time></trkpt><trkpt lat="44.4205474" lon="9.4396999"><ele>979.0</ele><time>2026-03-22T09:48:50.201Z</time></trkpt><trkpt lat="44.4207654" lon="9.4396073"><ele>990.0</ele><time>2026-03-22T09:48:51.202Z</time></trkpt><trkpt lat="44.4209561" lon="9.4395509"><ele>1001.0</ele><time>2026-03-22T09:48:52.201Z</time></trkpt><trkpt lat="44.4211602" lon="9.4395445"><ele>1001.3333333333334</ele><time>2026-03-22T09:48:53.201Z</time></trkpt><trkpt lat="44.4213608" lon="9.4395715"><ele>1001.6666666666667</ele><time>2026-03-22T09:48:54.201Z</time></trkpt><trkpt lat="44.4215463" lon="9.4396019"><ele>1002.0</ele><time>2026-03-22T09:48:55.201Z</time></trkpt><trkpt lat="44.4217303" lon="9.4396131"><ele>1002.0</ele><time>2026-03-22T09:48:56.202Z</time></trkpt><trkpt lat="44.4219043" lon="9.4396073"><ele>1002.0</ele><time>2026-03-22T09:48:57.201Z</time></trkpt><trkpt lat="44.422036" lon="9.4395879"><ele>1002.0</ele><time>2026-03-22T09:48:58.201Z</time></trkpt><trkpt lat="44.4221767" lon="9.4396155"><ele>1002.0</ele><time>2026-03-22T09:48:59.201Z</time></trkpt><trkpt lat="44.4223017" lon="9.4396881"><ele>997.25</ele><time>2026-03-22T09:49:00.202Z</time></trkpt><trkpt lat="44.422418" lon="9.4397553"><ele>992.5</ele><time>2026-03-22T09:49:01.201Z</time></trkpt><trkpt lat="44.4225333" lon="9.4398194"><ele>987.75</ele><time>2026-03-22T09:49:02.201Z</time></trkpt><trkpt lat="44.4226847" lon="9.4397932"><ele>983.0</ele><time>2026-03-22T09:49:03.201Z</time></trkpt><trkpt lat="44.4228206" lon="9.4397898"><ele>985.0</ele><time>2026-03-22T09:49:04.201Z</time></trkpt><trkpt lat="44.4230113" lon="9.4397073"><ele>987.0</ele><time>2026-03-22T09:49:05.201Z</time></trkpt><trkpt lat="44.4231761" lon="9.4396728"><ele>989.0</ele><time>2026-03-22T09:49:06.201Z</time></trkpt><trkpt lat="44.4233395" lon="9.439648"><ele>989.0</ele><time>2026-03-22T09:49:07.201Z</time></trkpt><trkpt lat="44.4235081" lon="9.4396456"><ele>989.0</ele><time>2026-03-22T09:49:08.201Z</time></trkpt><trkpt lat="44.4236755" lon="9.4396405"><ele>989.0</ele><time>2026-03-22T09:49:09.201Z</time></trkpt><trkpt lat="44.4238637" lon="9.4397493"><ele>991.6666666666667</ele><time>2026-03-22T09:49:10.202Z</time></trkpt><trkpt lat="44.4240252" lon="9.4398155"><ele>994.3333333333333</ele><time>2026-03-22T09:49:11.202Z</time></trkpt><trkpt lat="44.4241708" lon="9.439877"><ele>997.0</ele><time>2026-03-22T09:49:12.201Z</time></trkpt><trkpt lat="44.424315" lon="9.4399098"><ele>997.0</ele><time>2026-03-22T09:49:13.202Z</time></trkpt><trkpt lat="44.4244517" lon="9.4399202"><ele>997.0</ele><time>2026-03-22T09:49:14.201Z</time></trkpt><trkpt lat="44.4245946" lon="9.4398705"><ele>997.0</ele><time>2026-03-22T09:49:15.201Z</time></trkpt><trkpt lat="44.4247222" lon="9.4397816"><ele>997.0</ele><time>2026-03-22T09:49:16.201Z</time></trkpt><trkpt lat="44.4248677" lon="9.4397503"><ele>999.0</ele><time>2026-03-22T09:49:17.201Z</time></trkpt><trkpt lat="44.425033" lon="9.4397481"><ele>1001.0</ele><time>2026-03-22T09:49:18.202Z</time></trkpt><trkpt lat="44.4252077" lon="9.4397653"><ele>1003.0</ele><time>2026-03-22T09:49:19.202Z</time></trkpt><trkpt lat="44.4254056" lon="9.439821"><ele>1007.6666666666666</ele><time>2026-03-22T09:49:20.201Z</time></trkpt><trkpt lat="44.4255939" lon="9.4399001"><ele>1012.3333333333333</ele><time>2026-03-22T09:49:21.202Z</time></trkpt><trkpt lat="44.4257846" lon="9.4399925"><ele>1017.0</ele><time>2026-03-22T09:49:22.201Z</time></trkpt><trkpt lat="44.4259171" lon="9.4401635"><ele>1017.0</ele><time>2026-03-22T09:49:23.202Z</time></trkpt><trkpt lat="44.4261013" lon="9.4402934"><ele>1017.0</ele><time>2026-03-22T09:49:24.201Z</time></trkpt><trkpt lat="44.4262411" lon="9.4403827"><ele>1017.0</ele><time>2026-03-22T09:49:25.201Z</time></trkpt><trkpt lat="44.4263963" lon="9.4404081"><ele>1014.75</ele><time>2026-03-22T09:49:26.201Z</time></trkpt><trkpt lat="44.4265383" lon="9.4404641"><ele>1012.5</ele><time>2026-03-22T09:49:27.201Z</time></trkpt><trkpt lat="44.426686" lon="9.4404922"><ele>1010.25</ele><time>2026-03-22T09:49:28.201Z</time></trkpt><trkpt lat="44.4268356" lon="9.4405221"><ele>1008.0</ele><time>2026-03-22T09:49:29.201Z</time></trkpt><trkpt lat="44.4269915" lon="9.4405332"><ele>1008.0</ele><time>2026-03-22T09:49:30.201Z</time></trkpt><trkpt lat="44.4271365" lon="9.4405672"><ele>1008.0</ele><time>2026-03-22T09:49:31.202Z</time></trkpt><trkpt lat="44.4272805" lon="9.4406379"><ele>1008.0</ele><time>2026-03-22T09:49:32.201Z</time></trkpt><trkpt lat="44.4274413" lon="9.4407318"><ele>1013.3333333333333</ele><time>2026-03-22T09:49:33.202Z</time></trkpt><trkpt lat="44.4276108" lon="9.4408912"><ele>1018.6666666666666</ele><time>2026-03-22T09:49:34.201Z</time></trkpt><trkpt lat="44.4277696" lon="9.4410134"><ele>1024.0</ele><time>2026-03-22T09:49:35.201Z</time></trkpt><trkpt lat="44.4279234" lon="9.4411236"><ele>1025.6666666666665</ele><time>2026-03-22T09:49:36.201Z</time></trkpt><trkpt lat="44.428078" lon="9.4412079"><ele>1027.3333333333333</ele><time>2026-03-22T09:49:37.201Z</time></trkpt><trkpt lat="44.4282141" lon="9.4412772"><ele>1029.0</ele><time>2026-03-22T09:49:38.201Z</time></trkpt><trkpt lat="44.4283465" lon="9.4413738"><ele>1029.0</ele><time>2026-03-22T09:49:39.201Z</time></trkpt><trkpt lat="44.4284242" lon="9.441595"><ele>1029.0</ele><time>2026-03-22T09:49:40.201Z</time></trkpt><trkpt lat="44.4285056" lon="9.4418057"><ele>1029.0</ele><time>2026-03-22T09:49:41.201Z</time></trkpt><trkpt lat="44.4285846" lon="9.4420006"><ele>1030.75</ele><time>2026-03-22T09:49:42.201Z</time></trkpt><trkpt lat="44.4286599" lon="9.4421719"><ele>1032.5</ele><time>2026-03-22T09:49:43.201Z</time></trkpt><trkpt lat="44.4287341" lon="9.4423414"><ele>1034.25</ele><time>2026-03-22T09:49:44.201Z</time></trkpt><trkpt lat="44.4288849" lon="9.4423947"><ele>1036.0</ele><time>2026-03-22T09:49:45.201Z</time></trkpt><trkpt lat="44.4290312" lon="9.4424416"><ele>1036.0</ele><time>2026-03-22T09:49:46.202Z</time></trkpt><trkpt lat="44.4291681" lon="9.4425098"><ele>1036.0</ele><time>2026-03-22T09:49:47.201Z</time></trkpt><trkpt lat="44.429361" lon="9.4425172"><ele>1036.0</ele><time>2026-03-22T09:49:48.201Z</time></trkpt><trkpt lat="44.4295318" lon="9.4426307"><ele>1042.0</ele><time>2026-03-22T09:49:49.201Z</time></trkpt><trkpt lat="44.4296937" lon="9.4427215"><ele>1048.0</ele><time>2026-03-22T09:49:50.201Z</time></trkpt><trkpt lat="44.4298715" lon="9.4428102"><ele>1054.0</ele><time>2026-03-22T09:49:51.201Z</time></trkpt><trkpt lat="44.4300356" lon="9.4429179"><ele>1047.25</ele><time>2026-03-22T09:49:52.202Z</time></trkpt><trkpt lat="44.4301729" lon="9.442983"><ele>1040.5</ele><time>2026-03-22T09:49:53.202Z</time></trkpt><trkpt lat="44.4302851" lon="9.4431355"><ele>1033.75</ele><time>2026-03-22T09:49:54.202Z</time></trkpt><trkpt lat="44.4303839" lon="9.4431872"><ele>1027.0</ele><time>2026-03-22T09:49:55.201Z</time></trkpt><trkpt lat="44.4304587" lon="9.4433007"><ele>1033.0</ele><time>2026-03-22T09:49:56.201Z</time></trkpt><trkpt lat="44.43055" lon="9.4433942"><ele>1039.0</ele><time>2026-03-22T09:49:57.201Z</time></trkpt><trkpt lat="44.4306761" lon="9.443476"><ele>1045.0</ele><time>2026-03-22T09:49:58.201Z</time></trkpt><trkpt lat="44.4308416" lon="9.4434813"><ele>1051.0</ele><time>2026-03-22T09:49:59.202Z</time></trkpt><trkpt lat="44.4309903" lon="9.4435509"><ele>1051.0</ele><time>2026-03-22T09:50:00.202Z</time></trkpt><trkpt lat="44.4311268" lon="9.4435353"><ele>1051.0</ele><time>2026-03-22T09:50:01.201Z</time></trkpt><trkpt lat="44.4313008" lon="9.4435952"><ele>1051.0</ele><time>2026-03-22T09:50:02.202Z</time></trkpt><trkpt lat="44.4314669" lon="9.4436598"><ele>1048.75</ele><time>2026-03-22T09:50:03.202Z</time></trkpt><trkpt lat="44.4315958" lon="9.4437604"><ele>1046.5</ele><time>2026-03-22T09:50:04.202Z</time></trkpt><trkpt lat="44.4317037" lon="9.4438978"><ele>1044.25</ele><time>2026-03-22T09:50:05.202Z</time></trkpt><trkpt lat="44.4317946" lon="9.4440204"><ele>1042.0</ele><time>2026-03-22T09:50:06.202Z</time></trkpt><trkpt lat="44.4318863" lon="9.4441473"><ele>1042.0</ele><time>2026-03-22T09:50:07.201Z</time></trkpt><trkpt lat="44.4320279" lon="9.4442165"><ele>1042.0</ele><time>2026-03-22T09:50:08.202Z</time></trkpt><trkpt lat="44.4322363" lon="9.4442385"><ele>1042.0</ele><time>2026-03-22T09:50:09.202Z</time></trkpt><trkpt lat="44.4324268" lon="9.4443076"><ele>1050.3333333333333</ele><time>2026-03-22T09:50:10.202Z</time></trkpt><trkpt lat="44.4326362" lon="9.4443813"><ele>1058.6666666666667</ele><time>2026-03-22T09:50:11.201Z</time></trkpt><trkpt lat="44.4328461" lon="9.4444478"><ele>1067.0</ele><time>2026-03-22T09:50:12.202Z</time></trkpt><trkpt lat="44.4330557" lon="9.4444973"><ele>1069.6666666666667</ele><time>2026-03-22T09:50:13.202Z</time></trkpt><trkpt lat="44.4332452" lon="9.4445501"><ele>1072.3333333333333</ele><time>2026-03-22T09:50:14.201Z</time></trkpt><trkpt lat="44.433413" lon="9.4445793"><ele>1075.0</ele><time>2026-03-22T09:50:15.202Z</time></trkpt><trkpt lat="44.4335861" lon="9.4445798"><ele>1075.0</ele><time>2026-03-22T09:50:16.201Z</time></trkpt><trkpt lat="44.4337654" lon="9.4445796"><ele>1075.0</ele><time>2026-03-22T09:50:17.202Z</time></trkpt><trkpt lat="44.4339456" lon="9.4445147"><ele>1075.0</ele><time>2026-03-22T09:50:18.202Z</time></trkpt><trkpt lat="44.434115" lon="9.4444835"><ele>1075.3333333333333</ele><time>2026-03-22T09:50:19.202Z</time></trkpt><trkpt lat="44.4342954" lon="9.4444601"><ele>1075.6666666666667</ele><time>2026-03-22T09:50:20.202Z</time></trkpt><trkpt lat="44.4344749" lon="9.4444472"><ele>1076.0</ele><time>2026-03-22T09:50:21.202Z</time></trkpt><trkpt lat="44.434658" lon="9.4444537"><ele>1076.6666666666667</ele><time>2026-03-22T09:50:22.201Z</time></trkpt><trkpt lat="44.4348402" lon="9.4444785"><ele>1077.3333333333333</ele><time>2026-03-22T09:50:23.202Z</time></trkpt><trkpt lat="44.4350339" lon="9.4445211"><ele>1078.0</ele><time>2026-03-22T09:50:24.201Z</time></trkpt><trkpt lat="44.4352343" lon="9.4445658"><ele>1078.0</ele><time>2026-03-22T09:50:25.202Z</time></trkpt><trkpt lat="44.4354295" lon="9.4446088"><ele>1078.0</ele><time>2026-03-22T09:50:26.201Z</time></trkpt><trkpt lat="44.4356153" lon="9.4446351"><ele>1078.0</ele><time>2026-03-22T09:50:27.201Z</time></trkpt><trkpt lat="44.4357986" lon="9.4446581"><ele>1069.6666666666665</ele><time>2026-03-22T09:50:28.201Z</time></trkpt><trkpt lat="44.4359801" lon="9.4446784"><ele>1061.3333333333333</ele><time>2026-03-22T09:50:29.201Z</time></trkpt><trkpt lat="44.436164" lon="9.4447044"><ele>1053.0</ele><time>2026-03-22T09:50:30.202Z</time></trkpt><trkpt lat="44.436347" lon="9.4447476"><ele>1053.0</ele><time>2026-03-22T09:50:31.202Z</time></trkpt><trkpt lat="44.436534" lon="9.4447977"><ele>1053.0</ele><time>2026-03-22T09:50:32.201Z</time></trkpt><trkpt lat="44.4367228" lon="9.4448628"><ele>1053.0</ele><time>2026-03-22T09:50:33.201Z</time></trkpt><trkpt lat="44.4369096" lon="9.4449446"><ele>1053.0</ele><time>2026-03-22T09:50:34.201Z</time></trkpt><trkpt lat="44.4370914" lon="9.4450368"><ele>1053.0</ele><time>2026-03-22T09:50:35.201Z</time></trkpt><trkpt lat="44.4372636" lon="9.4451272"><ele>1053.0</ele><time>2026-03-22T09:50:36.201Z</time></trkpt><trkpt lat="44.4374365" lon="9.445229"><ele>1050.6666666666667</ele><time>2026-03-22T09:50:37.201Z</time></trkpt><trkpt lat="44.4376144" lon="9.4453264"><ele>1048.3333333333335</ele><time>2026-03-22T09:50:38.202Z</time></trkpt><trkpt lat="44.437785" lon="9.4454185"><ele>1046.0</ele><time>2026-03-22T09:50:39.202Z</time></trkpt><trkpt lat="44.4379346" lon="9.4455106"><ele>1052.3333333333335</ele><time>2026-03-22T09:50:40.201Z</time></trkpt><trkpt lat="44.4380778" lon="9.4455964"><ele>1058.6666666666667</ele><time>2026-03-22T09:50:41.201Z</time></trkpt><trkpt lat="44.4382155" lon="9.44568"><ele>1065.0</ele><time>2026-03-22T09:50:42.202Z</time></trkpt><trkpt lat="44.4383546" lon="9.4457674"><ele>1065.0</ele><time>2026-03-22T09:50:43.201Z</time></trkpt><trkpt lat="44.438494" lon="9.4458495"><ele>1065.0</ele><time>2026-03-22T09:50:44.201Z</time></trkpt><trkpt lat="44.4386167" lon="9.4459444"><ele>1065.0</ele><time>2026-03-22T09:50:45.201Z</time></trkpt><trkpt lat="44.4387042" lon="9.4460465"><ele>1065.0</ele><time>2026-03-22T09:50:46.202Z</time></trkpt><trkpt lat="44.4387588" lon="9.4462036"><ele>1063.6666666666667</ele><time>2026-03-22T09:50:47.202Z</time></trkpt><trkpt lat="44.4388308" lon="9.4463798"><ele>1062.3333333333335</ele><time>2026-03-22T09:50:48.201Z</time></trkpt><trkpt lat="44.4388805" lon="9.4465961"><ele>1061.0</ele><time>2026-03-22T09:50:49.202Z</time></trkpt><trkpt lat="44.4389126" lon="9.446824"><ele>1061.0</ele><time>2026-03-22T09:50:50.202Z</time></trkpt><trkpt lat="44.4389542" lon="9.4470337"><ele>1061.0</ele><time>2026-03-22T09:50:51.202Z</time></trkpt><trkpt lat="44.43902" lon="9.4472509"><ele>1061.0</ele><time>2026-03-22T09:50:52.201Z</time></trkpt><trkpt lat="44.4391186" lon="9.4474563"><ele>1066.25</ele><time>2026-03-22T09:50:53.201Z</time></trkpt><trkpt lat="44.4392035" lon="9.4476204"><ele>1071.5</ele><time>2026-03-22T09:50:54.202Z</time></trkpt><trkpt lat="44.4392973" lon="9.4477739"><ele>1076.75</ele><time>2026-03-22T09:50:55.202Z</time></trkpt><trkpt lat="44.4394157" lon="9.4478697"><ele>1082.0</ele><time>2026-03-22T09:50:56.202Z</time></trkpt><trkpt lat="44.4395169" lon="9.4479873"><ele>1081.3333333333335</ele><time>2026-03-22T09:50:57.202Z</time></trkpt><trkpt lat="44.4396122" lon="9.4480951"><ele>1080.6666666666667</ele><time>2026-03-22T09:50:58.201Z</time></trkpt><trkpt lat="44.439738" lon="9.4481984"><ele>1080.0</ele><time>2026-03-22T09:50:59.202Z</time></trkpt><trkpt lat="44.4398039" lon="9.4484625"><ele>1080.0</ele><time>2026-03-22T09:51:00.202Z</time></trkpt><trkpt lat="44.4399158" lon="9.4486696"><ele>1080.0</ele><time>2026-03-22T09:51:01.201Z</time></trkpt><trkpt lat="44.4400221" lon="9.4488709"><ele>1080.0</ele><time>2026-03-22T09:51:02.201Z</time></trkpt><trkpt lat="44.4401314" lon="9.4490384"><ele>1086.0</ele><time>2026-03-22T09:51:03.201Z</time></trkpt><trkpt lat="44.4402166" lon="9.449226"><ele>1092.0</ele><time>2026-03-22T09:51:04.201Z</time></trkpt><trkpt lat="44.4402968" lon="9.4494206"><ele>1098.0</ele><time>2026-03-22T09:51:05.201Z</time></trkpt><trkpt lat="44.4403891" lon="9.449606"><ele>1095.0</ele><time>2026-03-22T09:51:06.201Z</time></trkpt><trkpt lat="44.4405041" lon="9.4497969"><ele>1092.0</ele><time>2026-03-22T09:51:07.201Z</time></trkpt><trkpt lat="44.4406109" lon="9.449934"><ele>1089.0</ele><time>2026-03-22T09:51:08.201Z</time></trkpt><trkpt lat="44.4407289" lon="9.4501315"><ele>1089.0</ele><time>2026-03-22T09:51:09.201Z</time></trkpt><trkpt lat="44.4408598" lon="9.4502518"><ele>1089.0</ele><time>2026-03-22T09:51:10.202Z</time></trkpt><trkpt lat="44.4409827" lon="9.4503831"><ele>1089.0</ele><time>2026-03-22T09:51:11.202Z</time></trkpt><trkpt lat="44.4411104" lon="9.4504125"><ele>1089.0</ele><time>2026-03-22T09:51:12.201Z</time></trkpt><trkpt lat="44.441221" lon="9.4505178"><ele>1087.6666666666667</ele><time>2026-03-22T09:51:13.202Z</time></trkpt><trkpt lat="44.4413212" lon="9.4506645"><ele>1086.3333333333335</ele><time>2026-03-22T09:51:14.202Z</time></trkpt><trkpt lat="44.4414216" lon="9.4508178"><ele>1085.0</ele><time>2026-03-22T09:51:15.202Z</time></trkpt><trkpt lat="44.4414825" lon="9.4510648"><ele>1085.0</ele><time>2026-03-22T09:51:16.202Z</time></trkpt><trkpt lat="44.4415549" lon="9.451263"><ele>1085.0</ele><time>2026-03-22T09:51:17.202Z</time></trkpt><trkpt lat="44.4416222" lon="9.4514512"><ele>1085.0</ele><time>2026-03-22T09:51:18.202Z</time></trkpt><trkpt lat="44.4416909" lon="9.4516259"><ele>1089.75</ele><time>2026-03-22T09:51:19.202Z</time></trkpt><trkpt lat="44.4417572" lon="9.4517984"><ele>1094.5</ele><time>2026-03-22T09:51:20.201Z</time></trkpt><trkpt lat="44.4418232" lon="9.4519543"><ele>1099.25</ele><time>2026-03-22T09:51:21.201Z</time></trkpt><trkpt lat="44.4418928" lon="9.4521035"><ele>1104.0</ele><time>2026-03-22T09:51:22.201Z</time></trkpt><trkpt lat="44.4419538" lon="9.452246"><ele>1110.0</ele><time>2026-03-22T09:51:23.202Z</time></trkpt><trkpt lat="44.4420042" lon="9.452392"><ele>1116.0</ele><time>2026-03-22T09:51:24.202Z</time></trkpt><trkpt lat="44.4420456" lon="9.4525409"><ele>1122.0</ele><time>2026-03-22T09:51:25.201Z</time></trkpt><trkpt lat="44.4421023" lon="9.452688"><ele>1128.0</ele><time>2026-03-22T09:51:26.201Z</time></trkpt><trkpt lat="44.442188" lon="9.4528268"><ele>1119.75</ele><time>2026-03-22T09:51:27.201Z</time></trkpt><trkpt lat="44.4422745" lon="9.4529581"><ele>1111.5</ele><time>2026-03-22T09:51:28.201Z</time></trkpt><trkpt lat="44.4423775" lon="9.4530855"><ele>1103.25</ele><time>2026-03-22T09:51:29.202Z</time></trkpt><trkpt lat="44.4424743" lon="9.4532022"><ele>1095.0</ele><time>2026-03-22T09:51:30.201Z</time></trkpt><trkpt lat="44.4425787" lon="9.4533303"><ele>1095.0</ele><time>2026-03-22T09:51:31.201Z</time></trkpt><trkpt lat="44.4426766" lon="9.4534487"><ele>1095.0</ele><time>2026-03-22T09:51:32.201Z</time></trkpt><trkpt lat="44.4427744" lon="9.4535466"><ele>1095.0</ele><time>2026-03-22T09:51:33.201Z</time></trkpt><trkpt lat="44.4428479" lon="9.4536614"><ele>1095.0</ele><time>2026-03-22T09:51:34.202Z</time></trkpt><trkpt lat="44.442921" lon="9.4537654"><ele>1091.8</ele><time>2026-03-22T09:51:35.201Z</time></trkpt><trkpt lat="44.4429924" lon="9.4538568"><ele>1088.6</ele><time>2026-03-22T09:51:36.201Z</time></trkpt><trkpt lat="44.4430679" lon="9.4539537"><ele>1085.4</ele><time>2026-03-22T09:51:37.202Z</time></trkpt><trkpt lat="44.443142" lon="9.4540617"><ele>1082.2</ele><time>2026-03-22T09:51:38.201Z</time></trkpt><trkpt lat="44.4432122" lon="9.4541441"><ele>1079.0</ele><time>2026-03-22T09:51:39.201Z</time></trkpt><trkpt lat="44.4432915" lon="9.4542258"><ele>1079.0</ele><time>2026-03-22T09:51:40.202Z</time></trkpt><trkpt lat="44.4433661" lon="9.4543051"><ele>1079.0</ele><time>2026-03-22T09:51:41.201Z</time></trkpt><trkpt lat="44.4434546" lon="9.4543978"><ele>1079.0</ele><time>2026-03-22T09:51:42.202Z</time></trkpt><trkpt lat="44.4435273" lon="9.4543507"><ele>1079.0</ele><time>2026-03-22T09:51:43.201Z</time></trkpt><trkpt lat="44.4436105" lon="9.4543725"><ele>1079.0</ele><time>2026-03-22T09:51:44.201Z</time></trkpt><trkpt lat="44.4437297" lon="9.4543193"><ele>1077.5</ele><time>2026-03-22T09:51:45.201Z</time></trkpt><trkpt lat="44.4438027" lon="9.4542034"><ele>1076.0</ele><time>2026-03-22T09:51:46.202Z</time></trkpt><trkpt lat="44.4438388" lon="9.4539571"><ele>1074.5</ele><time>2026-03-22T09:51:47.202Z</time></trkpt><trkpt lat="44.4439086" lon="9.4538257"><ele>1073.0</ele><time>2026-03-22T09:51:48.201Z</time></trkpt><trkpt lat="44.4439485" lon="9.4536461"><ele>1073.0</ele><time>2026-03-22T09:51:49.201Z</time></trkpt><trkpt lat="44.4439843" lon="9.4534614"><ele>1073.0</ele><time>2026-03-22T09:51:50.201Z</time></trkpt><trkpt lat="44.4440379" lon="9.453284"><ele>1073.0</ele><time>2026-03-22T09:51:51.202Z</time></trkpt><trkpt lat="44.4441145" lon="9.4531208"><ele>1073.0</ele><time>2026-03-22T09:51:52.201Z</time></trkpt><trkpt lat="44.4442069" lon="9.4529817"><ele>1067.75</ele><time>2026-03-22T09:51:53.201Z</time></trkpt><trkpt lat="44.4442953" lon="9.4528425"><ele>1062.5</ele><time>2026-03-22T09:51:54.201Z</time></trkpt><trkpt lat="44.4443813" lon="9.4526813"><ele>1057.25</ele><time>2026-03-22T09:51:55.201Z</time></trkpt><trkpt lat="44.444429" lon="9.4525283"><ele>1052.0</ele><time>2026-03-22T09:51:56.202Z</time></trkpt><trkpt lat="44.4444414" lon="9.4523246"><ele>1052.0</ele><time>2026-03-22T09:51:57.202Z</time></trkpt><trkpt lat="44.4444703" lon="9.452146"><ele>1052.0</ele><time>2026-03-22T09:51:58.202Z</time></trkpt><trkpt lat="44.4444928" lon="9.4519616"><ele>1052.0</ele><time>2026-03-22T09:51:59.201Z</time></trkpt><trkpt lat="44.4445116" lon="9.4517785"><ele>1052.0</ele><time>2026-03-22T09:52:00.201Z</time></trkpt><trkpt lat="44.4445204" lon="9.4516024"><ele>1048.75</ele><time>2026-03-22T09:52:01.201Z</time></trkpt><trkpt lat="44.4445218" lon="9.4514293"><ele>1045.5</ele><time>2026-03-22T09:52:02.201Z</time></trkpt><trkpt lat="44.4445401" lon="9.4512521"><ele>1042.25</ele><time>2026-03-22T09:52:03.202Z</time></trkpt><trkpt lat="44.4445833" lon="9.4510778"><ele>1039.0</ele><time>2026-03-22T09:52:04.202Z</time></trkpt><trkpt lat="44.4446363" lon="9.4509217"><ele>1039.0</ele><time>2026-03-22T09:52:05.202Z</time></trkpt><trkpt lat="44.4447286" lon="9.4507867"><ele>1039.0</ele><time>2026-03-22T09:52:06.201Z</time></trkpt><trkpt lat="44.4448303" lon="9.4506911"><ele>1039.0</ele><time>2026-03-22T09:52:07.202Z</time></trkpt><trkpt lat="44.4449367" lon="9.4505985"><ele>1039.0</ele><time>2026-03-22T09:52:08.201Z</time></trkpt><trkpt lat="44.4450628" lon="9.4505349"><ele>1037.0</ele><time>2026-03-22T09:52:09.201Z</time></trkpt><trkpt lat="44.4451911" lon="9.4504381"><ele>1035.0</ele><time>2026-03-22T09:52:10.202Z</time></trkpt><trkpt lat="44.4453415" lon="9.4503532"><ele>1033.0</ele><time>2026-03-22T09:52:11.202Z</time></trkpt><trkpt lat="44.4454204" lon="9.4503011"><ele>1031.0</ele><time>2026-03-22T09:52:12.202Z</time></trkpt><trkpt lat="44.4455439" lon="9.4502006"><ele>1031.0</ele><time>2026-03-22T09:52:13.203Z</time></trkpt><trkpt lat="44.4456573" lon="9.4500852"><ele>1031.0</ele><time>2026-03-22T09:52:14.202Z</time></trkpt><trkpt lat="44.4457636" lon="9.4499563"><ele>1031.0</ele><time>2026-03-22T09:52:15.202Z</time></trkpt><trkpt lat="44.4458692" lon="9.4498225"><ele>1031.0</ele><time>2026-03-22T09:52:16.202Z</time></trkpt><trkpt lat="44.4459653" lon="9.449694"><ele>1026.0</ele><time>2026-03-22T09:52:17.201Z</time></trkpt><trkpt lat="44.4460697" lon="9.4495728"><ele>1021.0</ele><time>2026-03-22T09:52:18.201Z</time></trkpt><trkpt lat="44.4461808" lon="9.4494491"><ele>1016.0</ele><time>2026-03-22T09:52:19.202Z</time></trkpt><trkpt lat="44.4463047" lon="9.449362"><ele>1011.0</ele><time>2026-03-22T09:52:20.202Z</time></trkpt><trkpt lat="44.4464224" lon="9.4492828"><ele>1011.0</ele><time>2026-03-22T09:52:21.202Z</time></trkpt><trkpt lat="44.4465395" lon="9.4491866"><ele>1011.0</ele><time>2026-03-22T09:52:22.202Z</time></trkpt><trkpt lat="44.4466581" lon="9.4491071"><ele>1011.0</ele><time>2026-03-22T09:52:23.202Z</time></trkpt><trkpt lat="44.4467708" lon="9.4490318"><ele>1011.0</ele><time>2026-03-22T09:52:24.202Z</time></trkpt><trkpt lat="44.4468736" lon="9.4489321"><ele>1011.0</ele><time>2026-03-22T09:52:25.202Z</time></trkpt><trkpt lat="44.4469697" lon="9.4488323"><ele>1011.0</ele><time>2026-03-22T09:52:26.202Z</time></trkpt><trkpt lat="44.4470633" lon="9.44865"><ele>1011.0</ele><time>2026-03-22T09:52:27.202Z</time></trkpt><trkpt lat="44.4471412" lon="9.4484519"><ele>1011.0</ele><time>2026-03-22T09:52:28.201Z</time></trkpt><trkpt lat="44.4471158" lon="9.4482586"><ele>1011.0</ele><time>2026-03-22T09:52:29.201Z</time></trkpt><trkpt lat="44.4471784" lon="9.4480951"><ele>1011.0</ele><time>2026-03-22T09:52:30.201Z</time></trkpt><trkpt lat="44.4472497" lon="9.4479566"><ele>1011.0</ele><time>2026-03-22T09:52:31.202Z</time></trkpt><trkpt lat="44.4473495" lon="9.4478422"><ele>1011.0</ele><time>2026-03-22T09:52:32.202Z</time></trkpt><trkpt lat="44.4474645" lon="9.4477403"><ele>1005.25</ele><time>2026-03-22T09:52:33.201Z</time></trkpt><trkpt lat="44.4475666" lon="9.4476427"><ele>999.5</ele><time>2026-03-22T09:52:34.201Z</time></trkpt><trkpt lat="44.4476609" lon="9.4475229"><ele>993.75</ele><time>2026-03-22T09:52:35.202Z</time></trkpt><trkpt lat="44.4477284" lon="9.447394"><ele>988.0</ele><time>2026-03-22T09:52:36.201Z</time></trkpt><trkpt lat="44.4477495" lon="9.4472457"><ele>983.8</ele><time>2026-03-22T09:52:37.201Z</time></trkpt><trkpt lat="44.4477983" lon="9.4470955"><ele>979.5999999999999</ele><time>2026-03-22T09:52:38.201Z</time></trkpt><trkpt lat="44.4478127" lon="9.4469444"><ele>975.4000000000001</ele><time>2026-03-22T09:52:39.201Z</time></trkpt><trkpt lat="44.4478649" lon="9.4467987"><ele>971.2</ele><time>2026-03-22T09:52:40.201Z</time></trkpt><trkpt lat="44.4478797" lon="9.4466844"><ele>967.0</ele><time>2026-03-22T09:52:41.202Z</time></trkpt><trkpt lat="44.4479589" lon="9.4465768"><ele>970.25</ele><time>2026-03-22T09:52:42.202Z</time></trkpt><trkpt lat="44.4480352" lon="9.4464538"><ele>973.5</ele><time>2026-03-22T09:52:43.202Z</time></trkpt><trkpt lat="44.4481243" lon="9.4463325"><ele>976.75</ele><time>2026-03-22T09:52:44.202Z</time></trkpt><trkpt lat="44.4482072" lon="9.4462034"><ele>980.0</ele><time>2026-03-22T09:52:45.202Z</time></trkpt><trkpt lat="44.4482857" lon="9.4460769"><ele>980.0</ele><time>2026-03-22T09:52:46.202Z</time></trkpt><trkpt lat="44.4483624" lon="9.4459619"><ele>980.0</ele><time>2026-03-22T09:52:47.201Z</time></trkpt><trkpt lat="44.448461" lon="9.4458484"><ele>980.0</ele><time>2026-03-22T09:52:48.201Z</time></trkpt><trkpt lat="44.4485107" lon="9.445736"><ele>980.0</ele><time>2026-03-22T09:52:49.201Z</time></trkpt><trkpt lat="44.448576" lon="9.4455994"><ele>980.0</ele><time>2026-03-22T09:52:50.202Z</time></trkpt><trkpt lat="44.4486276" lon="9.4454735"><ele>980.0</ele><time>2026-03-22T09:52:51.201Z</time></trkpt><trkpt lat="44.4487441" lon="9.4453582"><ele>980.0</ele><time>2026-03-22T09:52:52.201Z</time></trkpt><trkpt lat="44.4488238" lon="9.4452361"><ele>980.0</ele><time>2026-03-22T09:52:53.201Z</time></trkpt><trkpt lat="44.4489251" lon="9.4452035"><ele>976.0</ele><time>2026-03-22T09:52:54.201Z</time></trkpt><trkpt lat="44.4490096" lon="9.4452068"><ele>972.0</ele><time>2026-03-22T09:52:55.201Z</time></trkpt><trkpt lat="44.4491198" lon="9.4452373"><ele>968.0</ele><time>2026-03-22T09:52:56.201Z</time></trkpt><trkpt lat="44.4492323" lon="9.4452292"><ele>964.0</ele><time>2026-03-22T09:52:57.202Z</time></trkpt><trkpt lat="44.4493308" lon="9.4451858"><ele>960.0</ele><time>2026-03-22T09:52:58.201Z</time></trkpt><trkpt lat="44.4494395" lon="9.4451535"><ele>960.0</ele><time>2026-03-22T09:52:59.201Z</time></trkpt><trkpt lat="44.4495104" lon="9.444984"><ele>960.0</ele><time>2026-03-22T09:53:00.201Z</time></trkpt><trkpt lat="44.4495693" lon="9.4448439"><ele>960.0</ele><time>2026-03-22T09:53:01.202Z</time></trkpt><trkpt lat="44.4496407" lon="9.4447099"><ele>960.0</ele><time>2026-03-22T09:53:02.201Z</time></trkpt><trkpt lat="44.4497368" lon="9.444623"><ele>957.25</ele><time>2026-03-22T09:53:03.201Z</time></trkpt><trkpt lat="44.4498329" lon="9.4445277"><ele>954.5</ele><time>2026-03-22T09:53:04.202Z</time></trkpt><trkpt lat="44.4499253" lon="9.4444059"><ele>951.75</ele><time>2026-03-22T09:53:05.202Z</time></trkpt><trkpt lat="44.450007" lon="9.4442908"><ele>949.0</ele><time>2026-03-22T09:53:06.202Z</time></trkpt><trkpt lat="44.4500731" lon="9.4441414"><ele>949.0</ele><time>2026-03-22T09:53:07.202Z</time></trkpt><trkpt lat="44.450136" lon="9.443983"><ele>949.0</ele><time>2026-03-22T09:53:08.201Z</time></trkpt><trkpt lat="44.450201" lon="9.4438286"><ele>949.0</ele><time>2026-03-22T09:53:09.201Z</time></trkpt><trkpt lat="44.4502608" lon="9.44366"><ele>949.0</ele><time>2026-03-22T09:53:10.201Z</time></trkpt><trkpt lat="44.450308" lon="9.4435004"><ele>945.2</ele><time>2026-03-22T09:53:11.201Z</time></trkpt><trkpt lat="44.4503409" lon="9.4433379"><ele>941.4000000000001</ele><time>2026-03-22T09:53:12.202Z</time></trkpt><trkpt lat="44.4503716" lon="9.4431866"><ele>937.6</ele><time>2026-03-22T09:53:13.201Z</time></trkpt><trkpt lat="44.450398" lon="9.4430452"><ele>933.8</ele><time>2026-03-22T09:53:14.202Z</time></trkpt><trkpt lat="44.450426" lon="9.4429168"><ele>930.0</ele><time>2026-03-22T09:53:15.202Z</time></trkpt><trkpt lat="44.4504702" lon="9.4428123"><ele>928.1428571428571</ele><time>2026-03-22T09:53:16.201Z</time></trkpt><trkpt lat="44.4505434" lon="9.442749"><ele>926.2857142857143</ele><time>2026-03-22T09:53:17.201Z</time></trkpt><trkpt lat="44.4506068" lon="9.4426992"><ele>924.4285714285714</ele><time>2026-03-22T09:53:18.201Z</time></trkpt><trkpt lat="44.4506599" lon="9.4426348"><ele>922.5714285714286</ele><time>2026-03-22T09:53:19.201Z</time></trkpt><trkpt lat="44.4506889" lon="9.4425561"><ele>920.7142857142858</ele><time>2026-03-22T09:53:20.202Z</time></trkpt><trkpt lat="44.4506771" lon="9.4424659"><ele>918.8571428571429</ele><time>2026-03-22T09:53:21.202Z</time></trkpt><trkpt lat="44.4506346" lon="9.4423826"><ele>917.0</ele><time>2026-03-22T09:53:22.202Z</time></trkpt><trkpt lat="44.4505698" lon="9.4423144"><ele>917.0</ele><time>2026-03-22T09:53:23.201Z</time></trkpt><trkpt lat="44.4504901" lon="9.4422871"><ele>917.0</ele><time>2026-03-22T09:53:24.201Z</time></trkpt><trkpt lat="44.4504057" lon="9.4423247"><ele>917.0</ele><time>2026-03-22T09:53:25.201Z</time></trkpt><trkpt lat="44.4503296" lon="9.442387"><ele>917.0</ele><time>2026-03-22T09:53:26.201Z</time></trkpt><trkpt lat="44.4502347" lon="9.4424717"><ele>917.0</ele><time>2026-03-22T09:53:27.201Z</time></trkpt><trkpt lat="44.4501277" lon="9.4425513"><ele>916.4000000000001</ele><time>2026-03-22T09:53:28.201Z</time></trkpt><trkpt lat="44.4500225" lon="9.4426223"><ele>915.8000000000001</ele><time>2026-03-22T09:53:29.201Z</time></trkpt><trkpt lat="44.4499173" lon="9.4426836"><ele>915.2</ele><time>2026-03-22T09:53:30.201Z</time></trkpt><trkpt lat="44.4498163" lon="9.4427266"><ele>914.6</ele><time>2026-03-22T09:53:31.201Z</time></trkpt><trkpt lat="44.4497209" lon="9.4427613"><ele>914.0</ele><time>2026-03-22T09:53:32.201Z</time></trkpt><trkpt lat="44.4496486" lon="9.4428137"><ele>914.0</ele><time>2026-03-22T09:53:33.201Z</time></trkpt><trkpt lat="44.4495872" lon="9.4428991"><ele>914.0000000000001</ele><time>2026-03-22T09:53:34.202Z</time></trkpt><trkpt lat="44.4495541" lon="9.4429909"><ele>914.0000000000001</ele><time>2026-03-22T09:53:35.201Z</time></trkpt><trkpt lat="44.4494514" lon="9.4430625"><ele>914.0</ele><time>2026-03-22T09:53:37.201Z</time></trkpt><trkpt lat="44.4493331" lon="9.4430531"><ele>914.0</ele><time>2026-03-22T09:53:39.201Z</time></trkpt><trkpt lat="44.4492718" lon="9.4429931"><ele>914.0</ele><time>2026-03-22T09:53:40.201Z</time></trkpt><trkpt lat="44.4492265" lon="9.442871"><ele>914.0000000000001</ele><time>2026-03-22T09:53:41.202Z</time></trkpt><trkpt lat="44.4491543" lon="9.4428457"><ele>914.0000000000001</ele><time>2026-03-22T09:53:42.202Z</time></trkpt><trkpt lat="44.449092" lon="9.4428254"><ele>914.0</ele><time>2026-03-22T09:53:43.201Z</time></trkpt><trkpt lat="44.4489988" lon="9.4428936"><ele>914.0</ele><time>2026-03-22T09:53:44.201Z</time></trkpt><trkpt lat="44.4488954" lon="9.4429728"><ele>914.0000000000001</ele><time>2026-03-22T09:53:45.202Z</time></trkpt><trkpt lat="44.4488137" lon="9.4430091"><ele>914.0</ele><time>2026-03-22T09:53:46.202Z</time></trkpt><trkpt lat="44.4487349" lon="9.4430496"><ele>914.0</ele><time>2026-03-22T09:53:47.202Z</time></trkpt><trkpt lat="44.4486344" lon="9.4430711"><ele>914.0</ele><time>2026-03-22T09:53:48.202Z</time></trkpt><trkpt lat="44.4485525" lon="9.443047"><ele>914.0000000000001</ele><time>2026-03-22T09:53:49.202Z</time></trkpt><trkpt lat="44.4484837" lon="9.4430048"><ele>914.0</ele><time>2026-03-22T09:53:50.201Z</time></trkpt><trkpt lat="44.4484208" lon="9.4429659"><ele>910.1666666666667</ele><time>2026-03-22T09:53:51.201Z</time></trkpt><trkpt lat="44.4484155" lon="9.4428639"><ele>906.3333333333334</ele><time>2026-03-22T09:53:52.202Z</time></trkpt><trkpt lat="44.4484238" lon="9.4427537"><ele>902.5</ele><time>2026-03-22T09:53:53.201Z</time></trkpt><trkpt lat="44.4484037" lon="9.4426567"><ele>898.6666666666667</ele><time>2026-03-22T09:53:54.201Z</time></trkpt><trkpt lat="44.4483638" lon="9.442564"><ele>894.8333333333334</ele><time>2026-03-22T09:53:55.201Z</time></trkpt><trkpt lat="44.448266" lon="9.4424862"><ele>891.0</ele><time>2026-03-22T09:53:56.202Z</time></trkpt><trkpt lat="44.4481813" lon="9.4424309"><ele>891.0</ele><time>2026-03-22T09:53:57.202Z</time></trkpt><trkpt lat="44.4480894" lon="9.4423923"><ele>890.9999999999999</ele><time>2026-03-22T09:53:58.202Z</time></trkpt><trkpt lat="44.4479826" lon="9.4423746"><ele>890.9999999999999</ele><time>2026-03-22T09:53:59.202Z</time></trkpt><trkpt lat="44.4478894" lon="9.4423757"><ele>891.0</ele><time>2026-03-22T09:54:00.202Z</time></trkpt><trkpt lat="44.4477794" lon="9.4423957"><ele>891.0</ele><time>2026-03-22T09:54:01.201Z</time></trkpt><trkpt lat="44.4477065" lon="9.4423942"><ele>890.5</ele><time>2026-03-22T09:54:02.201Z</time></trkpt><trkpt lat="44.4476459" lon="9.4424187"><ele>890.0</ele><time>2026-03-22T09:54:03.201Z</time></trkpt><trkpt lat="44.4475432" lon="9.4423799"><ele>889.5</ele><time>2026-03-22T09:54:05.201Z</time></trkpt><trkpt lat="44.4474672" lon="9.4423449"><ele>889.0</ele><time>2026-03-22T09:54:06.203Z</time></trkpt><trkpt lat="44.44739" lon="9.4423012"><ele>888.5</ele><time>2026-03-22T09:54:07.201Z</time></trkpt><trkpt lat="44.447307" lon="9.4422349"><ele>888.0</ele><time>2026-03-22T09:54:08.201Z</time></trkpt><trkpt lat="44.4472025" lon="9.442161"><ele>883.6666666666666</ele><time>2026-03-22T09:54:09.201Z</time></trkpt><trkpt lat="44.4471227" lon="9.442116"><ele>879.3333333333333</ele><time>2026-03-22T09:54:10.201Z</time></trkpt><trkpt lat="44.4470529" lon="9.4420512"><ele>875.0</ele><time>2026-03-22T09:54:11.201Z</time></trkpt><trkpt lat="44.4469659" lon="9.4420472"><ele>870.6666666666666</ele><time>2026-03-22T09:54:12.201Z</time></trkpt><trkpt lat="44.4468733" lon="9.4420354"><ele>866.3333333333333</ele><time>2026-03-22T09:54:13.201Z</time></trkpt><trkpt lat="44.4468018" lon="9.4420566"><ele>862.0</ele><time>2026-03-22T09:54:14.201Z</time></trkpt><trkpt lat="44.4467098" lon="9.442062"><ele>862.0</ele><time>2026-03-22T09:54:15.201Z</time></trkpt><trkpt lat="44.446565" lon="9.4421128"><ele>862.0</ele><time>2026-03-22T09:54:17.201Z</time></trkpt><trkpt lat="44.4464895" lon="9.4421132"><ele>862.0</ele><time>2026-03-22T09:54:18.201Z</time></trkpt><trkpt lat="44.4464165" lon="9.4421368"><ele>862.0</ele><time>2026-03-22T09:54:19.201Z</time></trkpt><trkpt lat="44.4463027" lon="9.4421568"><ele>862.0</ele><time>2026-03-22T09:54:20.201Z</time></trkpt><trkpt lat="44.4462235" lon="9.44219"><ele>859.2</ele><time>2026-03-22T09:54:21.201Z</time></trkpt><trkpt lat="44.4461452" lon="9.4422429"><ele>856.4000000000001</ele><time>2026-03-22T09:54:22.201Z</time></trkpt><trkpt lat="44.4460867" lon="9.4423896"><ele>853.5999999999999</ele><time>2026-03-22T09:54:24.201Z</time></trkpt><trkpt lat="44.446093" lon="9.4425639"><ele>850.8</ele><time>2026-03-22T09:54:26.201Z</time></trkpt><trkpt lat="44.4461017" lon="9.4426702"><ele>848.0</ele><time>2026-03-22T09:54:27.202Z</time></trkpt><trkpt lat="44.4461244" lon="9.4427668"><ele>848.0000000000001</ele><time>2026-03-22T09:54:28.202Z</time></trkpt><trkpt lat="44.4461001" lon="9.4428691"><ele>848.0</ele><time>2026-03-22T09:54:29.201Z</time></trkpt><trkpt lat="44.4460284" lon="9.4429798"><ele>848.0</ele><time>2026-03-22T09:54:30.202Z</time></trkpt><trkpt lat="44.4460026" lon="9.4430805"><ele>848.0</ele><time>2026-03-22T09:54:31.202Z</time></trkpt><trkpt lat="44.4459593" lon="9.4431871"><ele>848.0000000000001</ele><time>2026-03-22T09:54:32.202Z</time></trkpt><trkpt lat="44.4459033" lon="9.4433042"><ele>848.0</ele><time>2026-03-22T09:54:33.202Z</time></trkpt><trkpt lat="44.4458694" lon="9.443408"><ele>848.8</ele><time>2026-03-22T09:54:34.201Z</time></trkpt><trkpt lat="44.4458061" lon="9.443548"><ele>849.5999999999999</ele><time>2026-03-22T09:54:35.202Z</time></trkpt><trkpt lat="44.4457794" lon="9.4436645"><ele>850.4000000000001</ele><time>2026-03-22T09:54:36.202Z</time></trkpt><trkpt lat="44.4457845" lon="9.4437964"><ele>851.2</ele><time>2026-03-22T09:54:37.202Z</time></trkpt><trkpt lat="44.4457738" lon="9.4439313"><ele>852.0</ele><time>2026-03-22T09:54:38.202Z</time></trkpt><trkpt lat="44.4457045" lon="9.4440989"><ele>854.5</ele><time>2026-03-22T09:54:40.202Z</time></trkpt><trkpt lat="44.4456704" lon="9.4441813"><ele>857.0</ele><time>2026-03-22T09:54:41.202Z</time></trkpt><trkpt lat="44.4456146" lon="9.4442482"><ele>859.5</ele><time>2026-03-22T09:54:42.202Z</time></trkpt><trkpt lat="44.4455444" lon="9.4443354"><ele>862.0</ele><time>2026-03-22T09:54:43.202Z</time></trkpt><trkpt lat="44.4454852" lon="9.4443865"><ele>864.5</ele><time>2026-03-22T09:54:44.201Z</time></trkpt><trkpt lat="44.4454236" lon="9.4444097"><ele>867.0</ele><time>2026-03-22T09:54:45.201Z</time></trkpt><trkpt lat="44.445329" lon="9.4444155"><ele>862.5714285714286</ele><time>2026-03-22T09:54:46.201Z</time></trkpt><trkpt lat="44.4452539" lon="9.4443999"><ele>858.1428571428572</ele><time>2026-03-22T09:54:47.202Z</time></trkpt><trkpt lat="44.4451847" lon="9.4443319"><ele>853.7142857142858</ele><time>2026-03-22T09:54:48.202Z</time></trkpt><trkpt lat="44.4451203" lon="9.4442734"><ele>849.2857142857142</ele><time>2026-03-22T09:54:49.201Z</time></trkpt><trkpt lat="44.4450527" lon="9.4442462"><ele>844.8571428571429</ele><time>2026-03-22T09:54:50.201Z</time></trkpt><trkpt lat="44.4450241" lon="9.4441507"><ele>840.4285714285714</ele><time>2026-03-22T09:54:51.201Z</time></trkpt><trkpt lat="44.4449614" lon="9.4441737"><ele>836.0</ele><time>2026-03-22T09:54:52.201Z</time></trkpt><trkpt lat="44.4449236" lon="9.4442547"><ele>836.0</ele><time>2026-03-22T09:54:53.201Z</time></trkpt><trkpt lat="44.4448298" lon="9.4443898"><ele>836.0</ele><time>2026-03-22T09:54:54.201Z</time></trkpt><trkpt lat="44.4447821" lon="9.4445112"><ele>836.0</ele><time>2026-03-22T09:54:55.202Z</time></trkpt><trkpt lat="44.4447311" lon="9.444616"><ele>836.0</ele><time>2026-03-22T09:54:56.202Z</time></trkpt><trkpt lat="44.444693" lon="9.444708"><ele>836.0</ele><time>2026-03-22T09:54:57.201Z</time></trkpt><trkpt lat="44.4446477" lon="9.4448015"><ele>837.3333333333334</ele><time>2026-03-22T09:54:58.202Z</time></trkpt><trkpt lat="44.4446104" lon="9.4449004"><ele>838.6666666666667</ele><time>2026-03-22T09:54:59.202Z</time></trkpt><trkpt lat="44.4446222" lon="9.4450336"><ele>840.0</ele><time>2026-03-22T09:55:00.202Z</time></trkpt><trkpt lat="44.4446443" lon="9.4451383"><ele>841.3333333333333</ele><time>2026-03-22T09:55:01.202Z</time></trkpt><trkpt lat="44.4446379" lon="9.4452555"><ele>842.6666666666666</ele><time>2026-03-22T09:55:02.202Z</time></trkpt><trkpt lat="44.4446642" lon="9.4453546"><ele>844.0</ele><time>2026-03-22T09:55:03.202Z</time></trkpt><trkpt lat="44.4446122" lon="9.4454404"><ele>845.5</ele><time>2026-03-22T09:55:05.202Z</time></trkpt><trkpt lat="44.4444727" lon="9.4454677"><ele>847.0</ele><time>2026-03-22T09:55:07.202Z</time></trkpt><trkpt lat="44.4444034" lon="9.4453301"><ele>848.5</ele><time>2026-03-22T09:55:08.202Z</time></trkpt><trkpt lat="44.4443343" lon="9.4452927"><ele>850.0</ele><time>2026-03-22T09:55:09.202Z</time></trkpt><trkpt lat="44.4443837" lon="9.4449869"><ele>842.5</ele><time>2026-03-22T09:55:10.202Z</time></trkpt><trkpt lat="44.4443517" lon="9.4448041"><ele>835.0</ele><time>2026-03-22T09:55:11.201Z</time></trkpt><trkpt lat="44.4443235" lon="9.4446302"><ele>827.5</ele><time>2026-03-22T09:55:12.201Z</time></trkpt><trkpt lat="44.4443101" lon="9.4444721"><ele>820.0</ele><time>2026-03-22T09:55:13.202Z</time></trkpt><trkpt lat="44.4443513" lon="9.4442719"><ele>816.6</ele><time>2026-03-22T09:55:14.201Z</time></trkpt><trkpt lat="44.4443659" lon="9.4441187"><ele>813.2</ele><time>2026-03-22T09:55:15.201Z</time></trkpt><trkpt lat="44.4443616" lon="9.443956"><ele>809.8</ele><time>2026-03-22T09:55:16.201Z</time></trkpt><trkpt lat="44.4443352" lon="9.4438035"><ele>806.4</ele><time>2026-03-22T09:55:17.202Z</time></trkpt><trkpt lat="44.4443652" lon="9.443657"><ele>803.0</ele><time>2026-03-22T09:55:18.202Z</time></trkpt><trkpt lat="44.4444387" lon="9.4435336"><ele>805.8</ele><time>2026-03-22T09:55:19.201Z</time></trkpt><trkpt lat="44.4445082" lon="9.4434215"><ele>808.5999999999999</ele><time>2026-03-22T09:55:20.201Z</time></trkpt><trkpt lat="44.4445817" lon="9.4433222"><ele>811.4000000000001</ele><time>2026-03-22T09:55:21.202Z</time></trkpt><trkpt lat="44.4446362" lon="9.4432217"><ele>814.2</ele><time>2026-03-22T09:55:22.202Z</time></trkpt><trkpt lat="44.444701" lon="9.4431472"><ele>817.0</ele><time>2026-03-22T09:55:23.201Z</time></trkpt><trkpt lat="44.4447564" lon="9.4430705"><ele>816.9999999999999</ele><time>2026-03-22T09:55:24.202Z</time></trkpt><trkpt lat="44.4447929" lon="9.4429956"><ele>817.0</ele><time>2026-03-22T09:55:25.202Z</time></trkpt><trkpt lat="44.4448057" lon="9.4428971"><ele>817.0</ele><time>2026-03-22T09:55:26.202Z</time></trkpt><trkpt lat="44.4448023" lon="9.4427875"><ele>817.0</ele><time>2026-03-22T09:55:27.201Z</time></trkpt><trkpt lat="44.4447857" lon="9.4426997"><ele>817.0</ele><time>2026-03-22T09:55:28.201Z</time></trkpt><trkpt lat="44.4447771" lon="9.4425793"><ele>816.9999999999999</ele><time>2026-03-22T09:55:29.201Z</time></trkpt><trkpt lat="44.4447947" lon="9.4424692"><ele>817.0</ele><time>2026-03-22T09:55:30.201Z</time></trkpt><trkpt lat="44.444806" lon="9.4423558"><ele>814.8</ele><time>2026-03-22T09:55:31.201Z</time></trkpt><trkpt lat="44.4448154" lon="9.4422415"><ele>812.6</ele><time>2026-03-22T09:55:32.201Z</time></trkpt><trkpt lat="44.44483" lon="9.4421163"><ele>810.4</ele><time>2026-03-22T09:55:33.201Z</time></trkpt><trkpt lat="44.4448441" lon="9.441993"><ele>808.1999999999999</ele><time>2026-03-22T09:55:34.201Z</time></trkpt><trkpt lat="44.4448578" lon="9.4418599"><ele>806.0</ele><time>2026-03-22T09:55:35.201Z</time></trkpt><trkpt lat="44.4448721" lon="9.4417312"><ele>804.0</ele><time>2026-03-22T09:55:36.201Z</time></trkpt><trkpt lat="44.4448844" lon="9.4416005"><ele>802.0</ele><time>2026-03-22T09:55:37.201Z</time></trkpt><trkpt lat="44.4449008" lon="9.4414693"><ele>800.0</ele><time>2026-03-22T09:55:38.201Z</time></trkpt><trkpt lat="44.4449203" lon="9.4413389"><ele>798.0</ele><time>2026-03-22T09:55:39.201Z</time></trkpt><trkpt lat="44.4449444" lon="9.4412051"><ele>796.0</ele><time>2026-03-22T09:55:40.201Z</time></trkpt><trkpt lat="44.4449678" lon="9.4410737"><ele>794.0</ele><time>2026-03-22T09:55:41.201Z</time></trkpt><trkpt lat="44.4449877" lon="9.4409448"><ele>792.0</ele><time>2026-03-22T09:55:42.201Z</time></trkpt><trkpt lat="44.445003" lon="9.4408139"><ele>790.0</ele><time>2026-03-22T09:55:43.201Z</time></trkpt><trkpt lat="44.4450113" lon="9.440683"><ele>788.0</ele><time>2026-03-22T09:55:44.201Z</time></trkpt><trkpt lat="44.4450136" lon="9.4405502"><ele>786.0</ele><time>2026-03-22T09:55:45.202Z</time></trkpt><trkpt lat="44.4450148" lon="9.4404196"><ele>784.0</ele><time>2026-03-22T09:55:46.201Z</time></trkpt><trkpt lat="44.44502" lon="9.4402946"><ele>782.0</ele><time>2026-03-22T09:55:47.202Z</time></trkpt><trkpt lat="44.445027" lon="9.4401701"><ele>780.0</ele><time>2026-03-22T09:55:48.202Z</time></trkpt><trkpt lat="44.4450482" lon="9.4400291"><ele>778.0</ele><time>2026-03-22T09:55:49.202Z</time></trkpt><trkpt lat="44.4450538" lon="9.4399127"><ele>776.0</ele><time>2026-03-22T09:55:50.201Z</time></trkpt><trkpt lat="44.4450833" lon="9.439811"><ele>774.0</ele><time>2026-03-22T09:55:51.201Z</time></trkpt><trkpt lat="44.4451049" lon="9.4396935"><ele>770.5</ele><time>2026-03-22T09:55:52.201Z</time></trkpt><trkpt lat="44.4451405" lon="9.4395928"><ele>767.0</ele><time>2026-03-22T09:55:53.201Z</time></trkpt><trkpt lat="44.4451693" lon="9.4394599"><ele>763.5</ele><time>2026-03-22T09:55:54.202Z</time></trkpt><trkpt lat="44.4452008" lon="9.4393582"><ele>760.0</ele><time>2026-03-22T09:55:55.201Z</time></trkpt><trkpt lat="44.4452526" lon="9.4392933"><ele>756.5</ele><time>2026-03-22T09:55:56.201Z</time></trkpt><trkpt lat="44.4453161" lon="9.4392007"><ele>753.0</ele><time>2026-03-22T09:55:57.201Z</time></trkpt><trkpt lat="44.4453758" lon="9.4390934"><ele>753.5999999999999</ele><time>2026-03-22T09:55:58.201Z</time></trkpt><trkpt lat="44.4454681" lon="9.4390069"><ele>754.1999999999999</ele><time>2026-03-22T09:55:59.202Z</time></trkpt><trkpt lat="44.4455435" lon="9.4389276"><ele>754.8</ele><time>2026-03-22T09:56:00.202Z</time></trkpt><trkpt lat="44.4455784" lon="9.4387947"><ele>755.4</ele><time>2026-03-22T09:56:01.202Z</time></trkpt><trkpt lat="44.4456394" lon="9.4386852"><ele>756.0</ele><time>2026-03-22T09:56:02.202Z</time></trkpt><trkpt lat="44.4457107" lon="9.438607"><ele>756.0</ele><time>2026-03-22T09:56:03.202Z</time></trkpt><trkpt lat="44.4457816" lon="9.4385305"><ele>756.0</ele><time>2026-03-22T09:56:04.202Z</time></trkpt><trkpt lat="44.4458576" lon="9.4384702"><ele>756.0</ele><time>2026-03-22T09:56:05.202Z</time></trkpt><trkpt lat="44.44594" lon="9.4383951"><ele>756.0</ele><time>2026-03-22T09:56:06.201Z</time></trkpt><trkpt lat="44.44601" lon="9.4383601"><ele>756.0</ele><time>2026-03-22T09:56:07.201Z</time></trkpt><trkpt lat="44.4460707" lon="9.4382832"><ele>756.0</ele><time>2026-03-22T09:56:08.202Z</time></trkpt><trkpt lat="44.446134" lon="9.438221"><ele>756.0</ele><time>2026-03-22T09:56:09.201Z</time></trkpt><trkpt lat="44.4462041" lon="9.4381637"><ele>756.0</ele><time>2026-03-22T09:56:10.202Z</time></trkpt><trkpt lat="44.4462687" lon="9.438095"><ele>756.0</ele><time>2026-03-22T09:56:11.202Z</time></trkpt><trkpt lat="44.4463193" lon="9.4380267"><ele>756.0</ele><time>2026-03-22T09:56:12.201Z</time></trkpt><trkpt lat="44.4463665" lon="9.437939"><ele>756.0</ele><time>2026-03-22T09:56:13.202Z</time></trkpt><trkpt lat="44.4464009" lon="9.4378466"><ele>756.0</ele><time>2026-03-22T09:56:14.202Z</time></trkpt><trkpt lat="44.4464324" lon="9.4377631"><ele>754.8</ele><time>2026-03-22T09:56:15.201Z</time></trkpt><trkpt lat="44.4464715" lon="9.4376642"><ele>753.5999999999999</ele><time>2026-03-22T09:56:16.202Z</time></trkpt><trkpt lat="44.4465516" lon="9.4376368"><ele>752.4</ele><time>2026-03-22T09:56:17.202Z</time></trkpt><trkpt lat="44.4466616" lon="9.437575"><ele>751.2</ele><time>2026-03-22T09:56:19.201Z</time></trkpt><trkpt lat="44.4467245" lon="9.4376224"><ele>750.0</ele><time>2026-03-22T09:56:20.202Z</time></trkpt><trkpt lat="44.4468056" lon="9.4377354"><ele>750.0</ele><time>2026-03-22T09:56:21.201Z</time></trkpt><trkpt lat="44.4469271" lon="9.4379132"><ele>750.0</ele><time>2026-03-22T09:56:22.201Z</time></trkpt><trkpt lat="44.447026" lon="9.4380171"><ele>750.0</ele><time>2026-03-22T09:56:23.201Z</time></trkpt><trkpt lat="44.4471321" lon="9.4380934"><ele>750.0</ele><time>2026-03-22T09:56:24.201Z</time></trkpt><trkpt lat="44.4472278" lon="9.4381826"><ele>750.4285714285714</ele><time>2026-03-22T09:56:25.201Z</time></trkpt><trkpt lat="44.4472968" lon="9.4381746"><ele>750.8571428571428</ele><time>2026-03-22T09:56:26.201Z</time></trkpt><trkpt lat="44.4473606" lon="9.4381443"><ele>751.2857142857142</ele><time>2026-03-22T09:56:27.201Z</time></trkpt><trkpt lat="44.447423" lon="9.4381704"><ele>751.7142857142858</ele><time>2026-03-22T09:56:28.201Z</time></trkpt><trkpt lat="44.4474768" lon="9.4382172"><ele>752.1428571428571</ele><time>2026-03-22T09:56:29.201Z</time></trkpt><trkpt lat="44.447522" lon="9.4382864"><ele>752.5714285714286</ele><time>2026-03-22T09:56:30.201Z</time></trkpt><trkpt lat="44.4475746" lon="9.4383574"><ele>753.0</ele><time>2026-03-22T09:56:31.202Z</time></trkpt><trkpt lat="44.4476372" lon="9.4384087"><ele>753.0</ele><time>2026-03-22T09:56:32.202Z</time></trkpt><trkpt lat="44.4477077" lon="9.4384691"><ele>753.0</ele><time>2026-03-22T09:56:33.202Z</time></trkpt><trkpt lat="44.4477742" lon="9.4385349"><ele>753.0</ele><time>2026-03-22T09:56:34.201Z</time></trkpt><trkpt lat="44.4478718" lon="9.4384352"><ele>753.0</ele><time>2026-03-22T09:56:35.201Z</time></trkpt><trkpt lat="44.4479458" lon="9.4383926"><ele>753.0</ele><time>2026-03-22T09:56:36.201Z</time></trkpt><trkpt lat="44.4480158" lon="9.4383468"><ele>753.0</ele><time>2026-03-22T09:56:37.202Z</time></trkpt><trkpt lat="44.4480935" lon="9.4383203"><ele>751.2</ele><time>2026-03-22T09:56:38.202Z</time></trkpt><trkpt lat="44.4481585" lon="9.438289"><ele>749.4</ele><time>2026-03-22T09:56:39.202Z</time></trkpt><trkpt lat="44.4482086" lon="9.438226"><ele>747.6</ele><time>2026-03-22T09:56:40.202Z</time></trkpt><trkpt lat="44.4482331" lon="9.4380785"><ele>745.8000000000001</ele><time>2026-03-22T09:56:42.201Z</time></trkpt><trkpt lat="44.4480915" lon="9.4380844"><ele>744.0</ele><time>2026-03-22T09:56:44.201Z</time></trkpt><trkpt lat="44.4480054" lon="9.4381536"><ele>745.5</ele><time>2026-03-22T09:56:45.201Z</time></trkpt><trkpt lat="44.4479327" lon="9.4381386"><ele>747.0</ele><time>2026-03-22T09:56:46.201Z</time></trkpt><trkpt lat="44.4478438" lon="9.4381091"><ele>748.5</ele><time>2026-03-22T09:56:47.202Z</time></trkpt><trkpt lat="44.4477708" lon="9.4380521"><ele>750.0</ele><time>2026-03-22T09:56:48.202Z</time></trkpt><trkpt lat="44.447683" lon="9.4380054"><ele>751.5</ele><time>2026-03-22T09:56:49.202Z</time></trkpt><trkpt lat="44.447625" lon="9.4379187"><ele>753.0</ele><time>2026-03-22T09:56:50.201Z</time></trkpt><trkpt lat="44.4475732" lon="9.4378254"><ele>748.8</ele><time>2026-03-22T09:56:51.201Z</time></trkpt><trkpt lat="44.4475254" lon="9.4377349"><ele>744.5999999999999</ele><time>2026-03-22T09:56:52.201Z</time></trkpt><trkpt lat="44.4474611" lon="9.4376324"><ele>740.4000000000001</ele><time>2026-03-22T09:56:53.202Z</time></trkpt><trkpt lat="44.4474049" lon="9.4375372"><ele>736.2</ele><time>2026-03-22T09:56:54.202Z</time></trkpt><trkpt lat="44.4473549" lon="9.4374286"><ele>732.0</ele><time>2026-03-22T09:56:55.201Z</time></trkpt><trkpt lat="44.4473296" lon="9.4373055"><ele>732.0</ele><time>2026-03-22T09:56:56.202Z</time></trkpt><trkpt lat="44.447299" lon="9.4372028"><ele>732.0</ele><time>2026-03-22T09:56:57.201Z</time></trkpt><trkpt lat="44.4472655" lon="9.4370923"><ele>732.0</ele><time>2026-03-22T09:56:58.201Z</time></trkpt><trkpt lat="44.447232" lon="9.4369815"><ele>732.0</ele><time>2026-03-22T09:56:59.202Z</time></trkpt><trkpt lat="44.4471902" lon="9.4368743"><ele>732.0</ele><time>2026-03-22T09:57:00.202Z</time></trkpt><trkpt lat="44.4471539" lon="9.4367613"><ele>732.0</ele><time>2026-03-22T09:57:01.201Z</time></trkpt><trkpt lat="44.4471236" lon="9.4366473"><ele>733.3333333333334</ele><time>2026-03-22T09:57:02.201Z</time></trkpt><trkpt lat="44.4470913" lon="9.4365408"><ele>734.6666666666666</ele><time>2026-03-22T09:57:03.201Z</time></trkpt><trkpt lat="44.447069" lon="9.4364158"><ele>736.0</ele><time>2026-03-22T09:57:04.202Z</time></trkpt><trkpt lat="44.4470418" lon="9.4362971"><ele>737.3333333333333</ele><time>2026-03-22T09:57:05.201Z</time></trkpt><trkpt lat="44.4469825" lon="9.4362135"><ele>738.6666666666666</ele><time>2026-03-22T09:57:06.201Z</time></trkpt><trkpt lat="44.4469329" lon="9.4360924"><ele>740.0</ele><time>2026-03-22T09:57:07.202Z</time></trkpt><trkpt lat="44.4468496" lon="9.436012"><ele>736.4</ele><time>2026-03-22T09:57:08.201Z</time></trkpt><trkpt lat="44.4467709" lon="9.4359295"><ele>732.8</ele><time>2026-03-22T09:57:09.201Z</time></trkpt><trkpt lat="44.4466795" lon="9.4358696"><ele>729.2</ele><time>2026-03-22T09:57:10.202Z</time></trkpt><trkpt lat="44.4465917" lon="9.4357853"><ele>725.6</ele><time>2026-03-22T09:57:11.202Z</time></trkpt><trkpt lat="44.4465025" lon="9.4357267"><ele>722.0</ele><time>2026-03-22T09:57:12.202Z</time></trkpt><trkpt lat="44.4464218" lon="9.4356559"><ele>722.0</ele><time>2026-03-22T09:57:13.202Z</time></trkpt><trkpt lat="44.4463408" lon="9.4355696"><ele>722.0</ele><time>2026-03-22T09:57:14.202Z</time></trkpt><trkpt lat="44.4462937" lon="9.4354467"><ele>722.0</ele><time>2026-03-22T09:57:15.202Z</time></trkpt><trkpt lat="44.4462293" lon="9.435348"><ele>722.0</ele><time>2026-03-22T09:57:16.201Z</time></trkpt><trkpt lat="44.4461475" lon="9.4352511"><ele>722.0</ele><time>2026-03-22T09:57:17.202Z</time></trkpt><trkpt lat="44.4460853" lon="9.4351727"><ele>718.8333333333333</ele><time>2026-03-22T09:57:18.201Z</time></trkpt><trkpt lat="44.4460231" lon="9.4350753"><ele>715.6666666666666</ele><time>2026-03-22T09:57:19.201Z</time></trkpt><trkpt lat="44.4459617" lon="9.4350019"><ele>712.5</ele><time>2026-03-22T09:57:20.201Z</time></trkpt><trkpt lat="44.4458844" lon="9.4349427"><ele>709.3333333333334</ele><time>2026-03-22T09:57:21.201Z</time></trkpt><trkpt lat="44.4458084" lon="9.4349839"><ele>706.1666666666667</ele><time>2026-03-22T09:57:22.201Z</time></trkpt><trkpt lat="44.4457395" lon="9.435031"><ele>703.0</ele><time>2026-03-22T09:57:23.201Z</time></trkpt><trkpt lat="44.4456821" lon="9.4351023"><ele>703.0</ele><time>2026-03-22T09:57:24.201Z</time></trkpt><trkpt lat="44.4456415" lon="9.4351789"><ele>703.0</ele><time>2026-03-22T09:57:25.201Z</time></trkpt><trkpt lat="44.4455904" lon="9.4352687"><ele>703.0</ele><time>2026-03-22T09:57:26.202Z</time></trkpt><trkpt lat="44.4455229" lon="9.4353674"><ele>703.0</ele><time>2026-03-22T09:57:27.202Z</time></trkpt><trkpt lat="44.4454862" lon="9.4354637"><ele>703.0</ele><time>2026-03-22T09:57:28.202Z</time></trkpt><trkpt lat="44.4454264" lon="9.4355701"><ele>703.0</ele><time>2026-03-22T09:57:29.202Z</time></trkpt><trkpt lat="44.4453693" lon="9.4356728"><ele>698.5999999999999</ele><time>2026-03-22T09:57:30.201Z</time></trkpt><trkpt lat="44.4453108" lon="9.4357725"><ele>694.1999999999999</ele><time>2026-03-22T09:57:31.201Z</time></trkpt><trkpt lat="44.4452604" lon="9.4358967"><ele>689.8</ele><time>2026-03-22T09:57:32.201Z</time></trkpt><trkpt lat="44.445213" lon="9.436009"><ele>685.4</ele><time>2026-03-22T09:57:33.202Z</time></trkpt><trkpt lat="44.4451668" lon="9.4361242"><ele>681.0</ele><time>2026-03-22T09:57:34.202Z</time></trkpt><trkpt lat="44.4451152" lon="9.4362374"><ele>683.5999999999999</ele><time>2026-03-22T09:57:35.201Z</time></trkpt><trkpt lat="44.4450502" lon="9.4363441"><ele>686.2</ele><time>2026-03-22T09:57:36.201Z</time></trkpt><trkpt lat="44.4449964" lon="9.4364547"><ele>688.8</ele><time>2026-03-22T09:57:37.202Z</time></trkpt><trkpt lat="44.444952" lon="9.4365722"><ele>691.4000000000001</ele><time>2026-03-22T09:57:38.202Z</time></trkpt><trkpt lat="44.4449083" lon="9.4366953"><ele>694.0</ele><time>2026-03-22T09:57:39.202Z</time></trkpt><trkpt lat="44.4448729" lon="9.4368125"><ele>694.0</ele><time>2026-03-22T09:57:40.201Z</time></trkpt><trkpt lat="44.4448461" lon="9.4369338"><ele>694.0</ele><time>2026-03-22T09:57:41.201Z</time></trkpt><trkpt lat="44.4448235" lon="9.4370705"><ele>694.0</ele><time>2026-03-22T09:57:42.201Z</time></trkpt><trkpt lat="44.4448582" lon="9.4372037"><ele>694.0</ele><time>2026-03-22T09:57:43.202Z</time></trkpt><trkpt lat="44.444854" lon="9.4373213"><ele>694.0</ele><time>2026-03-22T09:57:44.202Z</time></trkpt><trkpt lat="44.4447921" lon="9.437435"><ele>696.4000000000001</ele><time>2026-03-22T09:57:45.202Z</time></trkpt><trkpt lat="44.444727" lon="9.4375285"><ele>698.8</ele><time>2026-03-22T09:57:46.202Z</time></trkpt><trkpt lat="44.4446495" lon="9.4375998"><ele>701.2</ele><time>2026-03-22T09:57:47.202Z</time></trkpt><trkpt lat="44.4445756" lon="9.4376586"><ele>703.5999999999999</ele><time>2026-03-22T09:57:48.201Z</time></trkpt><trkpt lat="44.444506" lon="9.4377335"><ele>706.0</ele><time>2026-03-22T09:57:49.201Z</time></trkpt><trkpt lat="44.4444232" lon="9.4378239"><ele>701.1999999999999</ele><time>2026-03-22T09:57:50.201Z</time></trkpt><trkpt lat="44.4443523" lon="9.4379234"><ele>696.4</ele><time>2026-03-22T09:57:51.201Z</time></trkpt><trkpt lat="44.4442755" lon="9.4380057"><ele>691.6</ele><time>2026-03-22T09:57:52.202Z</time></trkpt><trkpt lat="44.4442128" lon="9.4380858"><ele>686.8</ele><time>2026-03-22T09:57:53.202Z</time></trkpt><trkpt lat="44.4441657" lon="9.4382072"><ele>682.0</ele><time>2026-03-22T09:57:54.202Z</time></trkpt><trkpt lat="44.4441337" lon="9.4383346"><ele>682.0</ele><time>2026-03-22T09:57:55.202Z</time></trkpt><trkpt lat="44.444093" lon="9.4384511"><ele>682.0</ele><time>2026-03-22T09:57:56.201Z</time></trkpt><trkpt lat="44.4440473" lon="9.4385471"><ele>682.0</ele><time>2026-03-22T09:57:57.201Z</time></trkpt><trkpt lat="44.4439438" lon="9.438612"><ele>682.0</ele><time>2026-03-22T09:57:58.201Z</time></trkpt><trkpt lat="44.4438868" lon="9.4387044"><ele>682.0</ele><time>2026-03-22T09:57:59.201Z</time></trkpt><trkpt lat="44.4438147" lon="9.4387816"><ele>679.6666666666667</ele><time>2026-03-22T09:58:00.201Z</time></trkpt><trkpt lat="44.4437471" lon="9.4388629"><ele>677.3333333333334</ele><time>2026-03-22T09:58:01.202Z</time></trkpt><trkpt lat="44.4436895" lon="9.4389383"><ele>675.0</ele><time>2026-03-22T09:58:02.202Z</time></trkpt><trkpt lat="44.4436488" lon="9.4390502"><ele>672.6666666666666</ele><time>2026-03-22T09:58:03.202Z</time></trkpt><trkpt lat="44.443602" lon="9.4391408"><ele>670.3333333333333</ele><time>2026-03-22T09:58:04.202Z</time></trkpt><trkpt lat="44.4435665" lon="9.4392484"><ele>668.0</ele><time>2026-03-22T09:58:05.202Z</time></trkpt><trkpt lat="44.443545" lon="9.4393453"><ele>668.0</ele><time>2026-03-22T09:58:06.201Z</time></trkpt><trkpt lat="44.4434207" lon="9.4394341"><ele>668.0</ele><time>2026-03-22T09:58:08.201Z</time></trkpt><trkpt lat="44.443358" lon="9.4394199"><ele>668.0</ele><time>2026-03-22T09:58:09.201Z</time></trkpt><trkpt lat="44.4433988" lon="9.4391815"><ele>668.0</ele><time>2026-03-22T09:58:10.202Z</time></trkpt><trkpt lat="44.4434162" lon="9.4390882"><ele>668.0</ele><time>2026-03-22T09:58:11.201Z</time></trkpt><trkpt lat="44.443474" lon="9.4389679"><ele>668.0</ele><time>2026-03-22T09:58:12.201Z</time></trkpt><trkpt lat="44.443557" lon="9.4388125"><ele>668.0</ele><time>2026-03-22T09:58:13.202Z</time></trkpt><trkpt lat="44.4436294" lon="9.4386749"><ele>668.0</ele><time>2026-03-22T09:58:14.202Z</time></trkpt><trkpt lat="44.4436863" lon="9.4385346"><ele>668.0</ele><time>2026-03-22T09:58:15.201Z</time></trkpt><trkpt lat="44.4437406" lon="9.4383877"><ele>667.2</ele><time>2026-03-22T09:58:16.202Z</time></trkpt><trkpt lat="44.4437814" lon="9.4382601"><ele>666.4</ele><time>2026-03-22T09:58:17.201Z</time></trkpt><trkpt lat="44.4438191" lon="9.4381403"><ele>665.6</ele><time>2026-03-22T09:58:18.201Z</time></trkpt><trkpt lat="44.4438586" lon="9.4380218"><ele>664.8000000000001</ele><time>2026-03-22T09:58:19.202Z</time></trkpt><trkpt lat="44.4438923" lon="9.4378902"><ele>664.0</ele><time>2026-03-22T09:58:20.201Z</time></trkpt><trkpt lat="44.4439324" lon="9.4377683"><ele>664.0</ele><time>2026-03-22T09:58:21.201Z</time></trkpt><trkpt lat="44.443977" lon="9.4376541"><ele>664.0</ele><time>2026-03-22T09:58:22.201Z</time></trkpt><trkpt lat="44.4440129" lon="9.4375347"><ele>664.0</ele><time>2026-03-22T09:58:23.202Z</time></trkpt><trkpt lat="44.4440263" lon="9.4373903"><ele>664.0</ele><time>2026-03-22T09:58:24.201Z</time></trkpt><trkpt lat="44.4440342" lon="9.4372519"><ele>664.0</ele><time>2026-03-22T09:58:25.201Z</time></trkpt><trkpt lat="44.4440465" lon="9.4371162"><ele>661.8000000000001</ele><time>2026-03-22T09:58:26.203Z</time></trkpt><trkpt lat="44.444054" lon="9.4369773"><ele>659.6</ele><time>2026-03-22T09:58:27.201Z</time></trkpt><trkpt lat="44.4440729" lon="9.4368325"><ele>657.4</ele><time>2026-03-22T09:58:28.202Z</time></trkpt><trkpt lat="44.444088" lon="9.4366938"><ele>655.2</ele><time>2026-03-22T09:58:29.202Z</time></trkpt><trkpt lat="44.4441057" lon="9.4365438"><ele>653.0</ele><time>2026-03-22T09:58:30.201Z</time></trkpt><trkpt lat="44.4441154" lon="9.4364013"><ele>651.0</ele><time>2026-03-22T09:58:31.201Z</time></trkpt><trkpt lat="44.444123" lon="9.4362592"><ele>649.0</ele><time>2026-03-22T09:58:32.201Z</time></trkpt><trkpt lat="44.4441305" lon="9.4361266"><ele>647.0</ele><time>2026-03-22T09:58:33.201Z</time></trkpt><trkpt lat="44.4441298" lon="9.4359864"><ele>645.0</ele><time>2026-03-22T09:58:34.201Z</time></trkpt><trkpt lat="44.4441191" lon="9.4358468"><ele>643.0</ele><time>2026-03-22T09:58:35.201Z</time></trkpt><trkpt lat="44.4441219" lon="9.4357146"><ele>643.0</ele><time>2026-03-22T09:58:36.201Z</time></trkpt><trkpt lat="44.4441496" lon="9.4355867"><ele>643.0</ele><time>2026-03-22T09:58:37.201Z</time></trkpt><trkpt lat="44.4441978" lon="9.4354717"><ele>643.0</ele><time>2026-03-22T09:58:38.201Z</time></trkpt><trkpt lat="44.4442718" lon="9.4353659"><ele>643.0</ele><time>2026-03-22T09:58:39.201Z</time></trkpt><trkpt lat="44.444345" lon="9.4352495"><ele>643.0</ele><time>2026-03-22T09:58:40.201Z</time></trkpt><trkpt lat="44.4444035" lon="9.4351196"><ele>639.4</ele><time>2026-03-22T09:58:41.201Z</time></trkpt><trkpt lat="44.4444613" lon="9.4349919"><ele>635.8</ele><time>2026-03-22T09:58:42.202Z</time></trkpt><trkpt lat="44.4444598" lon="9.4348226"><ele>632.2</ele><time>2026-03-22T09:58:43.201Z</time></trkpt><trkpt lat="44.4444785" lon="9.4346771"><ele>628.6</ele><time>2026-03-22T09:58:44.202Z</time></trkpt><trkpt lat="44.4445156" lon="9.4345366"><ele>625.0</ele><time>2026-03-22T09:58:45.202Z</time></trkpt><trkpt lat="44.444557" lon="9.4344083"><ele>627.4</ele><time>2026-03-22T09:58:46.202Z</time></trkpt><trkpt lat="44.4446002" lon="9.4342821"><ele>629.8</ele><time>2026-03-22T09:58:47.202Z</time></trkpt><trkpt lat="44.4446406" lon="9.4341489"><ele>632.2</ele><time>2026-03-22T09:58:48.202Z</time></trkpt><trkpt lat="44.444671" lon="9.4340179"><ele>634.6</ele><time>2026-03-22T09:58:49.202Z</time></trkpt><trkpt lat="44.4446962" lon="9.4338824"><ele>637.0</ele><time>2026-03-22T09:58:50.202Z</time></trkpt><trkpt lat="44.4446967" lon="9.4337231"><ele>637.0</ele><time>2026-03-22T09:58:51.202Z</time></trkpt><trkpt lat="44.4446679" lon="9.433604"><ele>637.0</ele><time>2026-03-22T09:58:52.202Z</time></trkpt><trkpt lat="44.4446432" lon="9.4334722"><ele>637.0</ele><time>2026-03-22T09:58:53.202Z</time></trkpt><trkpt lat="44.4446234" lon="9.4333402"><ele>637.0</ele><time>2026-03-22T09:58:54.202Z</time></trkpt><trkpt lat="44.4445951" lon="9.4332098"><ele>637.0</ele><time>2026-03-22T09:58:55.202Z</time></trkpt><trkpt lat="44.4445654" lon="9.433093"><ele>626.4</ele><time>2026-03-22T09:58:56.202Z</time></trkpt><trkpt lat="44.4445429" lon="9.4329625"><ele>615.8000000000001</ele><time>2026-03-22T09:58:57.202Z</time></trkpt><trkpt lat="44.4445401" lon="9.4328343"><ele>605.2</ele><time>2026-03-22T09:58:58.202Z</time></trkpt><trkpt lat="44.4445554" lon="9.4326946"><ele>594.6</ele><time>2026-03-22T09:58:59.202Z</time></trkpt><trkpt lat="44.4445772" lon="9.4325698"><ele>584.0</ele><time>2026-03-22T09:59:00.201Z</time></trkpt><trkpt lat="44.4445986" lon="9.4324448"><ele>584.0</ele><time>2026-03-22T09:59:01.202Z</time></trkpt><trkpt lat="44.4446146" lon="9.4323495"><ele>584.0</ele><time>2026-03-22T09:59:02.202Z</time></trkpt><trkpt lat="44.4446463" lon="9.4322694"><ele>584.0</ele><time>2026-03-22T09:59:03.201Z</time></trkpt><trkpt lat="44.4447404" lon="9.4321592"><ele>584.0</ele><time>2026-03-22T09:59:05.202Z</time></trkpt><trkpt lat="44.4448039" lon="9.4321591"><ele>584.0</ele><time>2026-03-22T09:59:06.201Z</time></trkpt><trkpt lat="44.4448809" lon="9.4321969"><ele>584.0</ele><time>2026-03-22T09:59:07.201Z</time></trkpt><trkpt lat="44.4449789" lon="9.4322557"><ele>588.2</ele><time>2026-03-22T09:59:08.201Z</time></trkpt><trkpt lat="44.4450721" lon="9.4323128"><ele>592.4</ele><time>2026-03-22T09:59:09.201Z</time></trkpt><trkpt lat="44.4451726" lon="9.4323293"><ele>596.6</ele><time>2026-03-22T09:59:10.201Z</time></trkpt><trkpt lat="44.4452771" lon="9.4323528"><ele>600.8</ele><time>2026-03-22T09:59:11.201Z</time></trkpt><trkpt lat="44.4453736" lon="9.432365"><ele>605.0</ele><time>2026-03-22T09:59:12.201Z</time></trkpt><trkpt lat="44.4454629" lon="9.4323826"><ele>605.0</ele><time>2026-03-22T09:59:13.202Z</time></trkpt><trkpt lat="44.4455512" lon="9.4324218"><ele>605.0</ele><time>2026-03-22T09:59:14.202Z</time></trkpt><trkpt lat="44.4456457" lon="9.4324725"><ele>605.0</ele><time>2026-03-22T09:59:15.202Z</time></trkpt><trkpt lat="44.4457345" lon="9.4325207"><ele>605.0</ele><time>2026-03-22T09:59:16.201Z</time></trkpt><trkpt lat="44.4458219" lon="9.4325537"><ele>605.0</ele><time>2026-03-22T09:59:17.201Z</time></trkpt><trkpt lat="44.445899" lon="9.4325509"><ele>605.0</ele><time>2026-03-22T09:59:18.201Z</time></trkpt><trkpt lat="44.4459887" lon="9.4325251"><ele>605.0</ele><time>2026-03-22T09:59:19.201Z</time></trkpt><trkpt lat="44.446073" lon="9.4325118"><ele>605.0</ele><time>2026-03-22T09:59:20.201Z</time></trkpt><trkpt lat="44.4461511" lon="9.4324656"><ele>605.0</ele><time>2026-03-22T09:59:21.201Z</time></trkpt><trkpt lat="44.4462312" lon="9.4324718"><ele>605.0</ele><time>2026-03-22T09:59:22.201Z</time></trkpt><trkpt lat="44.4463497" lon="9.4325438"><ele>602.0</ele><time>2026-03-22T09:59:24.201Z</time></trkpt><trkpt lat="44.4464075" lon="9.4326281"><ele>599.0</ele><time>2026-03-22T09:59:25.201Z</time></trkpt><trkpt lat="44.4464513" lon="9.4327076"><ele>596.0</ele><time>2026-03-22T09:59:26.201Z</time></trkpt><trkpt lat="44.446516" lon="9.4327647"><ele>593.0</ele><time>2026-03-22T09:59:27.201Z</time></trkpt><trkpt lat="44.446603" lon="9.432822"><ele>590.0</ele><time>2026-03-22T09:59:28.202Z</time></trkpt><trkpt lat="44.4466976" lon="9.4328739"><ele>587.0</ele><time>2026-03-22T09:59:29.202Z</time></trkpt><trkpt lat="44.4467975" lon="9.4329326"><ele>586.6</ele><time>2026-03-22T09:59:30.201Z</time></trkpt><trkpt lat="44.4468918" lon="9.4329868"><ele>586.2</ele><time>2026-03-22T09:59:31.201Z</time></trkpt><trkpt lat="44.4469944" lon="9.4330398"><ele>585.8</ele><time>2026-03-22T09:59:32.201Z</time></trkpt><trkpt lat="44.4470792" lon="9.4330881"><ele>585.4</ele><time>2026-03-22T09:59:33.201Z</time></trkpt><trkpt lat="44.4471589" lon="9.4331349"><ele>585.0</ele><time>2026-03-22T09:59:34.201Z</time></trkpt><trkpt lat="44.4472478" lon="9.4332479"><ele>585.0</ele><time>2026-03-22T09:59:35.201Z</time></trkpt><trkpt lat="44.4473169" lon="9.4333166"><ele>585.0</ele><time>2026-03-22T09:59:36.202Z</time></trkpt><trkpt lat="44.4473918" lon="9.4334027"><ele>585.0</ele><time>2026-03-22T09:59:37.202Z</time></trkpt><trkpt lat="44.4474571" lon="9.4334819"><ele>585.0</ele><time>2026-03-22T09:59:38.201Z</time></trkpt><trkpt lat="44.447515" lon="9.4335749"><ele>585.0</ele><time>2026-03-22T09:59:39.201Z</time></trkpt><trkpt lat="44.4475749" lon="9.4336551"><ele>585.0</ele><time>2026-03-22T09:59:40.201Z</time></trkpt><trkpt lat="44.4476305" lon="9.4337449"><ele>584.0</ele><time>2026-03-22T09:59:41.201Z</time></trkpt><trkpt lat="44.4477001" lon="9.433833"><ele>583.0</ele><time>2026-03-22T09:59:42.201Z</time></trkpt><trkpt lat="44.4477569" lon="9.4339026"><ele>582.0</ele><time>2026-03-22T09:59:43.201Z</time></trkpt><trkpt lat="44.4478198" lon="9.4339555"><ele>581.0</ele><time>2026-03-22T09:59:44.201Z</time></trkpt><trkpt lat="44.4478807" lon="9.4340189"><ele>580.0</ele><time>2026-03-22T09:59:45.202Z</time></trkpt><trkpt lat="44.4479516" lon="9.4340842"><ele>579.0</ele><time>2026-03-22T09:59:46.202Z</time></trkpt><trkpt lat="44.4480206" lon="9.4341456"><ele>579.0</ele><time>2026-03-22T09:59:47.202Z</time></trkpt><trkpt lat="44.4480938" lon="9.4342125"><ele>579.0</ele><time>2026-03-22T09:59:48.202Z</time></trkpt><trkpt lat="44.4481599" lon="9.4342734"><ele>579.0</ele><time>2026-03-22T09:59:49.201Z</time></trkpt><trkpt lat="44.4482324" lon="9.4343327"><ele>579.0</ele><time>2026-03-22T09:59:50.202Z</time></trkpt><trkpt lat="44.4483166" lon="9.4343723"><ele>579.0</ele><time>2026-03-22T09:59:51.201Z</time></trkpt><trkpt lat="44.4483872" lon="9.4343914"><ele>579.0</ele><time>2026-03-22T09:59:52.201Z</time></trkpt><trkpt lat="44.4484863" lon="9.4343796"><ele>579.0</ele><time>2026-03-22T09:59:53.201Z</time></trkpt><trkpt lat="44.4485526" lon="9.4343023"><ele>579.0</ele><time>2026-03-22T09:59:54.201Z</time></trkpt><trkpt lat="44.4486349" lon="9.4342727"><ele>579.0</ele><time>2026-03-22T09:59:55.202Z</time></trkpt><trkpt lat="44.4487162" lon="9.4342263"><ele>579.0</ele><time>2026-03-22T09:59:56.201Z</time></trkpt><trkpt lat="44.4487949" lon="9.434181"><ele>579.0</ele><time>2026-03-22T09:59:57.201Z</time></trkpt><trkpt lat="44.4488719" lon="9.434122"><ele>579.0</ele><time>2026-03-22T09:59:58.201Z</time></trkpt><trkpt lat="44.44889" lon="9.4340256"><ele>581.0</ele><time>2026-03-22T09:59:59.201Z</time></trkpt><trkpt lat="44.4489239" lon="9.4338305"><ele>583.0</ele><time>2026-03-22T10:00:01.201Z</time></trkpt><trkpt lat="44.4488194" lon="9.4337125"><ele>585.0</ele><time>2026-03-22T10:00:03.201Z</time></trkpt><trkpt lat="44.4487278" lon="9.4336511"><ele>587.0</ele><time>2026-03-22T10:00:04.201Z</time></trkpt><trkpt lat="44.4486155" lon="9.4336777"><ele>583.6666666666666</ele><time>2026-03-22T10:00:05.201Z</time></trkpt><trkpt lat="44.4485505" lon="9.4336028"><ele>580.3333333333333</ele><time>2026-03-22T10:00:06.202Z</time></trkpt><trkpt lat="44.4485022" lon="9.433494"><ele>577.0</ele><time>2026-03-22T10:00:07.202Z</time></trkpt><trkpt lat="44.4484933" lon="9.4333927"><ele>573.6666666666666</ele><time>2026-03-22T10:00:08.202Z</time></trkpt><trkpt lat="44.4485124" lon="9.4332897"><ele>570.3333333333334</ele><time>2026-03-22T10:00:09.202Z</time></trkpt><trkpt lat="44.4485482" lon="9.4331808"><ele>567.0</ele><time>2026-03-22T10:00:10.202Z</time></trkpt><trkpt lat="44.4485905" lon="9.4330575"><ele>564.4</ele><time>2026-03-22T10:00:11.202Z</time></trkpt><trkpt lat="44.4486321" lon="9.4329339"><ele>561.8000000000001</ele><time>2026-03-22T10:00:12.202Z</time></trkpt><trkpt lat="44.4486756" lon="9.4328065"><ele>559.2</ele><time>2026-03-22T10:00:13.202Z</time></trkpt><trkpt lat="44.4487161" lon="9.4326813"><ele>556.6</ele><time>2026-03-22T10:00:14.202Z</time></trkpt><trkpt lat="44.4487529" lon="9.4325604"><ele>554.0</ele><time>2026-03-22T10:00:15.202Z</time></trkpt><trkpt lat="44.4487831" lon="9.4324379"><ele>558.3333333333333</ele><time>2026-03-22T10:00:16.202Z</time></trkpt><trkpt lat="44.448799" lon="9.4323142"><ele>562.6666666666666</ele><time>2026-03-22T10:00:17.201Z</time></trkpt><trkpt lat="44.4488218" lon="9.4321953"><ele>567.0</ele><time>2026-03-22T10:00:18.202Z</time></trkpt><trkpt lat="44.4488556" lon="9.4320972"><ele>571.3333333333334</ele><time>2026-03-22T10:00:19.202Z</time></trkpt><trkpt lat="44.4488893" lon="9.4319931"><ele>575.6666666666667</ele><time>2026-03-22T10:00:20.202Z</time></trkpt><trkpt lat="44.448934" lon="9.4319035"><ele>580.0</ele><time>2026-03-22T10:00:21.201Z</time></trkpt><trkpt lat="44.4489709" lon="9.43181"><ele>580.0</ele><time>2026-03-22T10:00:22.201Z</time></trkpt><trkpt lat="44.4490026" lon="9.4317164"><ele>580.0</ele><time>2026-03-22T10:00:23.202Z</time></trkpt><trkpt lat="44.4490101" lon="9.4316124"><ele>580.0</ele><time>2026-03-22T10:00:24.202Z</time></trkpt><trkpt lat="44.4490071" lon="9.431508"><ele>580.0</ele><time>2026-03-22T10:00:25.201Z</time></trkpt><trkpt lat="44.4489551" lon="9.4314074"><ele>580.0</ele><time>2026-03-22T10:00:26.201Z</time></trkpt><trkpt lat="44.4488942" lon="9.4313485"><ele>580.0</ele><time>2026-03-22T10:00:27.201Z</time></trkpt><trkpt lat="44.4488161" lon="9.4312921"><ele>574.1666666666667</ele><time>2026-03-22T10:00:28.202Z</time></trkpt><trkpt lat="44.4487263" lon="9.4311655"><ele>568.3333333333334</ele><time>2026-03-22T10:00:30.201Z</time></trkpt><trkpt lat="44.4487055" lon="9.4310516"><ele>562.5</ele><time>2026-03-22T10:00:31.202Z</time></trkpt><trkpt lat="44.4486862" lon="9.4309671"><ele>556.6666666666666</ele><time>2026-03-22T10:00:32.202Z</time></trkpt><trkpt lat="44.4486813" lon="9.4308711"><ele>550.8333333333333</ele><time>2026-03-22T10:00:33.201Z</time></trkpt><trkpt lat="44.4486814" lon="9.430778"><ele>545.0</ele><time>2026-03-22T10:00:34.201Z</time></trkpt><trkpt lat="44.4486975" lon="9.4306835"><ele>545.0</ele><time>2026-03-22T10:00:35.201Z</time></trkpt><trkpt lat="44.4487296" lon="9.4305818"><ele>545.0</ele><time>2026-03-22T10:00:36.202Z</time></trkpt><trkpt lat="44.4487604" lon="9.4304815"><ele>545.0</ele><time>2026-03-22T10:00:37.201Z</time></trkpt><trkpt lat="44.4487768" lon="9.4303814"><ele>545.0</ele><time>2026-03-22T10:00:38.202Z</time></trkpt><trkpt lat="44.4487799" lon="9.4302877"><ele>545.0</ele><time>2026-03-22T10:00:39.202Z</time></trkpt><trkpt lat="44.448782" lon="9.4301829"><ele>545.0</ele><time>2026-03-22T10:00:40.201Z</time></trkpt><trkpt lat="44.4487961" lon="9.4300484"><ele>544.3333333333333</ele><time>2026-03-22T10:00:41.201Z</time></trkpt><trkpt lat="44.4487874" lon="9.4299316"><ele>543.6666666666666</ele><time>2026-03-22T10:00:42.201Z</time></trkpt><trkpt lat="44.4487739" lon="9.4297989"><ele>543.0</ele><time>2026-03-22T10:00:43.202Z</time></trkpt><trkpt lat="44.4487355" lon="9.4296728"><ele>542.3333333333334</ele><time>2026-03-22T10:00:44.202Z</time></trkpt><trkpt lat="44.4487064" lon="9.4295695"><ele>541.6666666666667</ele><time>2026-03-22T10:00:45.201Z</time></trkpt><trkpt lat="44.4486665" lon="9.4294689"><ele>541.0</ele><time>2026-03-22T10:00:46.201Z</time></trkpt><trkpt lat="44.4486373" lon="9.429369"><ele>541.0</ele><time>2026-03-22T10:00:47.201Z</time></trkpt><trkpt lat="44.4485995" lon="9.4292698"><ele>541.0</ele><time>2026-03-22T10:00:48.201Z</time></trkpt><trkpt lat="44.4485684" lon="9.4291708"><ele>541.0</ele><time>2026-03-22T10:00:49.201Z</time></trkpt><trkpt lat="44.4485605" lon="9.4290286"><ele>541.0</ele><time>2026-03-22T10:00:50.202Z</time></trkpt><trkpt lat="44.448543" lon="9.4289147"><ele>541.0</ele><time>2026-03-22T10:00:51.201Z</time></trkpt><trkpt lat="44.4485456" lon="9.4288104"><ele>541.0</ele><time>2026-03-22T10:00:52.201Z</time></trkpt><trkpt lat="44.4486193" lon="9.428661"><ele>540.1666666666667</ele><time>2026-03-22T10:00:54.201Z</time></trkpt><trkpt lat="44.448685" lon="9.4285859"><ele>539.3333333333334</ele><time>2026-03-22T10:00:55.201Z</time></trkpt><trkpt lat="44.4487603" lon="9.4285179"><ele>538.5</ele><time>2026-03-22T10:00:56.201Z</time></trkpt><trkpt lat="44.4488426" lon="9.4284696"><ele>537.6666666666666</ele><time>2026-03-22T10:00:57.201Z</time></trkpt><trkpt lat="44.4489271" lon="9.4284326"><ele>536.8333333333333</ele><time>2026-03-22T10:00:58.201Z</time></trkpt><trkpt lat="44.4489984" lon="9.4284052"><ele>536.0</ele><time>2026-03-22T10:00:59.202Z</time></trkpt><trkpt lat="44.4490774" lon="9.4283729"><ele>537.8</ele><time>2026-03-22T10:01:00.202Z</time></trkpt><trkpt lat="44.4491467" lon="9.4283147"><ele>539.6</ele><time>2026-03-22T10:01:01.202Z</time></trkpt><trkpt lat="44.449177" lon="9.4280896"><ele>541.4</ele><time>2026-03-22T10:01:02.202Z</time></trkpt><trkpt lat="44.4492081" lon="9.4279647"><ele>543.2</ele><time>2026-03-22T10:01:03.201Z</time></trkpt><trkpt lat="44.4492288" lon="9.4278221"><ele>545.0</ele><time>2026-03-22T10:01:04.202Z</time></trkpt><trkpt lat="44.4492648" lon="9.4276848"><ele>545.0</ele><time>2026-03-22T10:01:05.202Z</time></trkpt><trkpt lat="44.4493126" lon="9.4275537"><ele>545.0</ele><time>2026-03-22T10:01:06.202Z</time></trkpt><trkpt lat="44.4493645" lon="9.4274203"><ele>545.0</ele><time>2026-03-22T10:01:07.202Z</time></trkpt><trkpt lat="44.4494265" lon="9.4272764"><ele>545.0</ele><time>2026-03-22T10:01:08.202Z</time></trkpt><trkpt lat="44.4494991" lon="9.4271782"><ele>545.0</ele><time>2026-03-22T10:01:09.202Z</time></trkpt><trkpt lat="44.4495735" lon="9.4270651"><ele>546.8</ele><time>2026-03-22T10:01:10.202Z</time></trkpt><trkpt lat="44.4496193" lon="9.4269581"><ele>548.6</ele><time>2026-03-22T10:01:11.202Z</time></trkpt><trkpt lat="44.4496784" lon="9.4268482"><ele>550.4</ele><time>2026-03-22T10:01:12.202Z</time></trkpt><trkpt lat="44.4497537" lon="9.4267311"><ele>552.2</ele><time>2026-03-22T10:01:13.202Z</time></trkpt><trkpt lat="44.4498223" lon="9.4266237"><ele>554.0</ele><time>2026-03-22T10:01:14.201Z</time></trkpt><trkpt lat="44.4498923" lon="9.4265247"><ele>554.0</ele><time>2026-03-22T10:01:15.201Z</time></trkpt><trkpt lat="44.4499711" lon="9.4264443"><ele>554.0</ele><time>2026-03-22T10:01:16.202Z</time></trkpt><trkpt lat="44.4500596" lon="9.426386"><ele>554.0</ele><time>2026-03-22T10:01:17.201Z</time></trkpt><trkpt lat="44.4501373" lon="9.4263355"><ele>554.0</ele><time>2026-03-22T10:01:18.201Z</time></trkpt><trkpt lat="44.4502098" lon="9.4262816"><ele>554.0</ele><time>2026-03-22T10:01:19.202Z</time></trkpt><trkpt lat="44.4502658" lon="9.426235"><ele>554.0</ele><time>2026-03-22T10:01:20.201Z</time></trkpt><trkpt lat="44.4503642" lon="9.4261511"><ele>554.5</ele><time>2026-03-22T10:01:22.202Z</time></trkpt><trkpt lat="44.4504255" lon="9.4260823"><ele>555.0</ele><time>2026-03-22T10:01:24.201Z</time></trkpt><trkpt lat="44.4504783" lon="9.4260233"><ele>555.5</ele><time>2026-03-22T10:01:26.201Z</time></trkpt><trkpt lat="44.4505449" lon="9.425964"><ele>556.0</ele><time>2026-03-22T10:01:30.201Z</time></trkpt><trkpt lat="44.4495572" lon="9.4284354"><ele>557.4</ele><time>2026-03-22T10:10:22.685Z</time></trkpt><trkpt lat="44.4496163" lon="9.4283801"><ele>558.8</ele><time>2026-03-22T10:10:38.685Z</time></trkpt><trkpt lat="44.4496581" lon="9.4282505"><ele>560.1999999999999</ele><time>2026-03-22T10:10:40.685Z</time></trkpt><trkpt lat="44.4496996" lon="9.4281271"><ele>561.6</ele><time>2026-03-22T10:10:42.686Z</time></trkpt><trkpt lat="44.4497501" lon="9.4279832"><ele>563.0</ele><time>2026-03-22T10:10:44.685Z</time></trkpt><trkpt lat="44.449803" lon="9.4279056"><ele>566.0</ele><time>2026-03-22T10:10:45.685Z</time></trkpt><trkpt lat="44.4498869" lon="9.4277792"><ele>569.0</ele><time>2026-03-22T10:10:47.685Z</time></trkpt><trkpt lat="44.4499505" lon="9.4277333"><ele>572.0</ele><time>2026-03-22T10:10:48.685Z</time></trkpt><trkpt lat="44.4500098" lon="9.4276951"><ele>575.0</ele><time>2026-03-22T10:10:49.685Z</time></trkpt><trkpt lat="44.4500726" lon="9.4276617"><ele>578.0</ele><time>2026-03-22T10:10:50.685Z</time></trkpt><trkpt lat="44.4501453" lon="9.427644"><ele>581.0</ele><time>2026-03-22T10:10:51.685Z</time></trkpt><trkpt lat="44.4502234" lon="9.4276425"><ele>581.0</ele><time>2026-03-22T10:10:52.685Z</time></trkpt><trkpt lat="44.4502984" lon="9.427641"><ele>581.0</ele><time>2026-03-22T10:10:53.686Z</time></trkpt><trkpt lat="44.4504075" lon="9.4276587"><ele>581.0</ele><time>2026-03-22T10:10:55.685Z</time></trkpt><trkpt lat="44.4504821" lon="9.427692"><ele>581.0</ele><time>2026-03-22T10:10:57.685Z</time></trkpt><trkpt lat="44.4505311" lon="9.427782"><ele>581.0</ele><time>2026-03-22T10:10:59.685Z</time></trkpt><trkpt lat="44.4504535" lon="9.4278091"><ele>581.0</ele><time>2026-03-22T10:11:01.686Z</time></trkpt><trkpt lat="44.4504003" lon="9.4278908"><ele>584.2</ele><time>2026-03-22T10:11:03.685Z</time></trkpt><trkpt lat="44.4503311" lon="9.428033"><ele>587.4000000000001</ele><time>2026-03-22T10:11:05.685Z</time></trkpt><trkpt lat="44.4503081" lon="9.4281203"><ele>590.6</ele><time>2026-03-22T10:11:06.685Z</time></trkpt><trkpt lat="44.4502734" lon="9.4282696"><ele>593.8000000000001</ele><time>2026-03-22T10:11:08.685Z</time></trkpt><trkpt lat="44.4502635" lon="9.4283968"><ele>597.0</ele><time>2026-03-22T10:11:10.685Z</time></trkpt><trkpt lat="44.4502474" lon="9.4285366"><ele>597.0000000000001</ele><time>2026-03-22T10:11:12.686Z</time></trkpt><trkpt lat="44.4502338" lon="9.428624"><ele>597.0</ele><time>2026-03-22T10:11:13.685Z</time></trkpt><trkpt lat="44.4502402" lon="9.428712"><ele>597.0</ele><time>2026-03-22T10:11:14.686Z</time></trkpt><trkpt lat="44.4502311" lon="9.4288016"><ele>597.0</ele><time>2026-03-22T10:11:15.685Z</time></trkpt><trkpt lat="44.4502412" lon="9.4289181"><ele>597.0</ele><time>2026-03-22T10:11:17.686Z</time></trkpt><trkpt lat="44.4503385" lon="9.4289452"><ele>597.0000000000001</ele><time>2026-03-22T10:11:19.685Z</time></trkpt><trkpt lat="44.4504032" lon="9.4289245"><ele>597.0</ele><time>2026-03-22T10:11:20.685Z</time></trkpt><trkpt lat="44.450466" lon="9.4289056"><ele>600.6666666666666</ele><time>2026-03-22T10:11:21.685Z</time></trkpt><trkpt lat="44.4505358" lon="9.4288721"><ele>604.3333333333334</ele><time>2026-03-22T10:11:22.685Z</time></trkpt><trkpt lat="44.4505998" lon="9.4288529"><ele>608.0</ele><time>2026-03-22T10:11:23.685Z</time></trkpt><trkpt lat="44.4506633" lon="9.4288298"><ele>611.6666666666667</ele><time>2026-03-22T10:11:24.685Z</time></trkpt><trkpt lat="44.4507796" lon="9.4287831"><ele>615.3333333333334</ele><time>2026-03-22T10:11:26.685Z</time></trkpt><trkpt lat="44.4508715" lon="9.4286846"><ele>619.0</ele><time>2026-03-22T10:11:28.685Z</time></trkpt><trkpt lat="44.4509198" lon="9.428617"><ele>619.0</ele><time>2026-03-22T10:11:29.685Z</time></trkpt><trkpt lat="44.4509428" lon="9.4285337"><ele>619.0</ele><time>2026-03-22T10:11:30.685Z</time></trkpt><trkpt lat="44.4509734" lon="9.4284471"><ele>619.0</ele><time>2026-03-22T10:11:31.685Z</time></trkpt><trkpt lat="44.4509806" lon="9.428273"><ele>619.0</ele><time>2026-03-22T10:11:33.685Z</time></trkpt><trkpt lat="44.450969" lon="9.428124"><ele>619.0</ele><time>2026-03-22T10:11:35.685Z</time></trkpt><trkpt lat="44.4510055" lon="9.4280216"><ele>619.0</ele><time>2026-03-22T10:11:37.685Z</time></trkpt><trkpt lat="44.4510823" lon="9.4279919"><ele>619.0</ele><time>2026-03-22T10:11:39.685Z</time></trkpt><trkpt lat="44.4511902" lon="9.4280263"><ele>619.0</ele><time>2026-03-22T10:11:41.686Z</time></trkpt><trkpt lat="44.4512555" lon="9.428038"><ele>619.0</ele><time>2026-03-22T10:11:42.685Z</time></trkpt><trkpt lat="44.4513279" lon="9.4280562"><ele>619.0</ele><time>2026-03-22T10:11:43.686Z</time></trkpt><trkpt lat="44.4513939" lon="9.4280778"><ele>619.0</ele><time>2026-03-22T10:11:44.685Z</time></trkpt><trkpt lat="44.4514602" lon="9.4281203"><ele>619.0</ele><time>2026-03-22T10:11:45.686Z</time></trkpt><trkpt lat="44.4515178" lon="9.4281726"><ele>621.4</ele><time>2026-03-22T10:11:46.685Z</time></trkpt><trkpt lat="44.451571" lon="9.4282254"><ele>623.8</ele><time>2026-03-22T10:11:47.685Z</time></trkpt><trkpt lat="44.4516627" lon="9.4283326"><ele>626.2</ele><time>2026-03-22T10:11:49.685Z</time></trkpt><trkpt lat="44.4517488" lon="9.428421"><ele>628.6</ele><time>2026-03-22T10:11:51.685Z</time></trkpt><trkpt lat="44.4517896" lon="9.4285845"><ele>631.0</ele><time>2026-03-22T10:11:55.685Z</time></trkpt><trkpt lat="44.4518227" lon="9.4287522"><ele>635.0</ele><time>2026-03-22T10:11:57.686Z</time></trkpt><trkpt lat="44.451831" lon="9.4288507"><ele>639.0</ele><time>2026-03-22T10:11:58.685Z</time></trkpt><trkpt lat="44.4518397" lon="9.4289986"><ele>643.0</ele><time>2026-03-22T10:12:00.685Z</time></trkpt><trkpt lat="44.4519258" lon="9.4291732"><ele>647.0</ele><time>2026-03-22T10:12:02.685Z</time></trkpt><trkpt lat="44.4520462" lon="9.4292384"><ele>647.0</ele><time>2026-03-22T10:12:03.686Z</time></trkpt><trkpt lat="44.452121" lon="9.4293312"><ele>647.0</ele><time>2026-03-22T10:12:04.685Z</time></trkpt><trkpt lat="44.452203" lon="9.4294072"><ele>647.0</ele><time>2026-03-22T10:12:06.685Z</time></trkpt><trkpt lat="44.452153" lon="9.4295424"><ele>647.0</ele><time>2026-03-22T10:12:08.685Z</time></trkpt><trkpt lat="44.452063" lon="9.4295239"><ele>647.0</ele><time>2026-03-22T10:12:10.685Z</time></trkpt><trkpt lat="44.4519524" lon="9.4295388"><ele>647.0</ele><time>2026-03-22T10:12:11.685Z</time></trkpt><trkpt lat="44.4518615" lon="9.4295172"><ele>647.0</ele><time>2026-03-22T10:12:12.685Z</time></trkpt><trkpt lat="44.4517373" lon="9.4294724"><ele>647.0</ele><time>2026-03-22T10:12:13.685Z</time></trkpt><trkpt lat="44.4516518" lon="9.4294041"><ele>647.0</ele><time>2026-03-22T10:12:14.685Z</time></trkpt><trkpt lat="44.4515832" lon="9.4293802"><ele>647.0</ele><time>2026-03-22T10:12:15.685Z</time></trkpt><trkpt lat="44.4514827" lon="9.429371"><ele>647.0</ele><time>2026-03-22T10:12:17.685Z</time></trkpt><trkpt lat="44.451417" lon="9.4294465"><ele>647.0</ele><time>2026-03-22T10:12:20.685Z</time></trkpt><trkpt lat="44.4514751" lon="9.429498"><ele>647.0</ele><time>2026-03-22T10:12:22.686Z</time></trkpt><trkpt lat="44.4515439" lon="9.4295636"><ele>647.0</ele><time>2026-03-22T10:12:24.685Z</time></trkpt><trkpt lat="44.4516275" lon="9.4296534"><ele>647.0</ele><time>2026-03-22T10:12:26.685Z</time></trkpt><trkpt lat="44.4517179" lon="9.4297398"><ele>650.8</ele><time>2026-03-22T10:12:28.684Z</time></trkpt><trkpt lat="44.4518058" lon="9.4297912"><ele>654.6</ele><time>2026-03-22T10:12:30.685Z</time></trkpt><trkpt lat="44.4519458" lon="9.4298465"><ele>658.4</ele><time>2026-03-22T10:12:32.685Z</time></trkpt><trkpt lat="44.4520363" lon="9.4298629"><ele>662.1999999999999</ele><time>2026-03-22T10:12:34.684Z</time></trkpt><trkpt lat="44.4521081" lon="9.4298829"><ele>666.0</ele><time>2026-03-22T10:12:35.684Z</time></trkpt><trkpt lat="44.4521902" lon="9.4299653"><ele>666.0</ele><time>2026-03-22T10:12:37.684Z</time></trkpt><trkpt lat="44.452252" lon="9.4299285"><ele>666.0</ele><time>2026-03-22T10:16:24.684Z</time></trkpt><trkpt lat="44.4523259" lon="9.4299833"><ele>666.0</ele><time>2026-03-22T10:16:28.684Z</time></trkpt><trkpt lat="44.4523963" lon="9.4300494"><ele>666.0</ele><time>2026-03-22T10:16:33.684Z</time></trkpt><trkpt lat="44.4524753" lon="9.4301012"><ele>666.0</ele><time>2026-03-22T10:16:36.684Z</time></trkpt><trkpt lat="44.4525612" lon="9.4301324"><ele>666.0</ele><time>2026-03-22T10:16:39.684Z</time></trkpt><trkpt lat="44.4526279" lon="9.4301687"><ele>666.0</ele><time>2026-03-22T10:16:41.684Z</time></trkpt><trkpt lat="44.4527007" lon="9.4301747"><ele>666.0</ele><time>2026-03-22T10:16:43.684Z</time></trkpt><trkpt lat="44.452773" lon="9.4301777"><ele>666.0</ele><time>2026-03-22T10:16:45.684Z</time></trkpt><trkpt lat="44.45285" lon="9.4301818"><ele>666.0</ele><time>2026-03-22T10:16:47.684Z</time></trkpt><trkpt lat="44.4529145" lon="9.4301936"><ele>666.0</ele><time>2026-03-22T10:16:49.684Z</time></trkpt><trkpt lat="44.452984" lon="9.43021"><ele>666.0</ele><time>2026-03-22T10:16:52.684Z</time></trkpt><trkpt lat="44.4530309" lon="9.430314"><ele>666.0</ele><time>2026-03-22T10:16:55.684Z</time></trkpt><trkpt lat="44.4528669" lon="9.4304528"><ele>666.0</ele><time>2026-03-22T10:20:04.683Z</time></trkpt><trkpt lat="44.4528026" lon="9.4304688"><ele>666.0</ele><time>2026-03-22T10:20:05.683Z</time></trkpt><trkpt lat="44.4526988" lon="9.430523"><ele>666.0</ele><time>2026-03-22T10:20:07.684Z</time></trkpt><trkpt lat="44.4526338" lon="9.4305741"><ele>666.0</ele><time>2026-03-22T10:20:08.683Z</time></trkpt><trkpt lat="44.4525609" lon="9.4306052"><ele>666.0</ele><time>2026-03-22T10:20:09.683Z</time></trkpt><trkpt lat="44.4524849" lon="9.430635"><ele>666.0</ele><time>2026-03-22T10:20:10.683Z</time></trkpt><trkpt lat="44.4524081" lon="9.4306452"><ele>671.8</ele><time>2026-03-22T10:20:11.684Z</time></trkpt><trkpt lat="44.4523238" lon="9.4306591"><ele>677.5999999999999</ele><time>2026-03-22T10:20:12.683Z</time></trkpt><trkpt lat="44.4522244" lon="9.4306823"><ele>683.4</ele><time>2026-03-22T10:20:13.683Z</time></trkpt><trkpt lat="44.4521342" lon="9.4307067"><ele>689.2</ele><time>2026-03-22T10:20:14.683Z</time></trkpt><trkpt lat="44.4520537" lon="9.4307613"><ele>695.0</ele><time>2026-03-22T10:20:15.683Z</time></trkpt><trkpt lat="44.4519561" lon="9.4308345"><ele>695.0</ele><time>2026-03-22T10:20:16.683Z</time></trkpt><trkpt lat="44.4518541" lon="9.430893"><ele>695.0</ele><time>2026-03-22T10:20:17.683Z</time></trkpt><trkpt lat="44.4517711" lon="9.4309189"><ele>695.0</ele><time>2026-03-22T10:20:18.683Z</time></trkpt><trkpt lat="44.4516708" lon="9.4309417"><ele>695.0</ele><time>2026-03-22T10:20:19.682Z</time></trkpt><trkpt lat="44.4515732" lon="9.4309582"><ele>695.0</ele><time>2026-03-22T10:20:20.683Z</time></trkpt><trkpt lat="44.4515052" lon="9.4309522"><ele>695.0</ele><time>2026-03-22T10:20:21.683Z</time></trkpt><trkpt lat="44.4513913" lon="9.4309345"><ele>695.0</ele><time>2026-03-22T10:20:23.683Z</time></trkpt><trkpt lat="44.4513213" lon="9.4309898"><ele>695.0</ele><time>2026-03-22T10:20:25.682Z</time></trkpt><trkpt lat="44.451312" lon="9.4310883"><ele>695.0</ele><time>2026-03-22T10:20:27.684Z</time></trkpt><trkpt lat="44.4513957" lon="9.4311333"><ele>695.0</ele><time>2026-03-22T10:20:29.683Z</time></trkpt><trkpt lat="44.4515215" lon="9.4311124"><ele>695.0</ele><time>2026-03-22T10:20:31.683Z</time></trkpt><trkpt lat="44.4515915" lon="9.4311316"><ele>695.0</ele><time>2026-03-22T10:20:32.683Z</time></trkpt><trkpt lat="44.4516548" lon="9.4311624"><ele>695.0</ele><time>2026-03-22T10:20:33.683Z</time></trkpt><trkpt lat="44.4517638" lon="9.4312115"><ele>695.0</ele><time>2026-03-22T10:20:35.683Z</time></trkpt><trkpt lat="44.4518647" lon="9.431207"><ele>695.0</ele><time>2026-03-22T10:20:37.683Z</time></trkpt><trkpt lat="44.4519399" lon="9.431201"><ele>695.0</ele><time>2026-03-22T10:20:38.683Z</time></trkpt><trkpt lat="44.4520308" lon="9.4312063"><ele>695.0</ele><time>2026-03-22T10:20:39.683Z</time></trkpt><trkpt lat="44.452117" lon="9.4312176"><ele>695.0</ele><time>2026-03-22T10:20:40.683Z</time></trkpt><trkpt lat="44.4521953" lon="9.4312266"><ele>695.0</ele><time>2026-03-22T10:20:41.683Z</time></trkpt><trkpt lat="44.4522722" lon="9.43123"><ele>695.0</ele><time>2026-03-22T10:20:42.683Z</time></trkpt><trkpt lat="44.4523404" lon="9.4312351"><ele>695.0</ele><time>2026-03-22T10:20:43.683Z</time></trkpt><trkpt lat="44.452411" lon="9.431238"><ele>695.0</ele><time>2026-03-22T10:20:44.683Z</time></trkpt><trkpt lat="44.4524808" lon="9.4312478"><ele>695.8571428571429</ele><time>2026-03-22T10:20:45.683Z</time></trkpt><trkpt lat="44.4525432" lon="9.4312781"><ele>696.7142857142858</ele><time>2026-03-22T10:20:46.683Z</time></trkpt><trkpt lat="44.452604" lon="9.4313138"><ele>697.5714285714287</ele><time>2026-03-22T10:20:47.684Z</time></trkpt><trkpt lat="44.4526657" lon="9.431346"><ele>698.4285714285714</ele><time>2026-03-22T10:20:48.683Z</time></trkpt><trkpt lat="44.4527302" lon="9.4313705"><ele>699.2857142857142</ele><time>2026-03-22T10:20:49.684Z</time></trkpt><trkpt lat="44.4527955" lon="9.4313615"><ele>700.1428571428572</ele><time>2026-03-22T10:20:50.684Z</time></trkpt><trkpt lat="44.4528691" lon="9.4313364"><ele>701.0</ele><time>2026-03-22T10:20:51.683Z</time></trkpt><trkpt lat="44.4529488" lon="9.4312981"><ele>700.8333333333333</ele><time>2026-03-22T10:20:52.683Z</time></trkpt><trkpt lat="44.4530306" lon="9.4312786"><ele>700.6666666666666</ele><time>2026-03-22T10:20:53.683Z</time></trkpt><trkpt lat="44.453104" lon="9.4312721"><ele>700.5</ele><time>2026-03-22T10:20:54.683Z</time></trkpt><trkpt lat="44.4531907" lon="9.4312785"><ele>700.3333333333334</ele><time>2026-03-22T10:20:55.683Z</time></trkpt><trkpt lat="44.453284" lon="9.4312909"><ele>700.1666666666667</ele><time>2026-03-22T10:20:56.683Z</time></trkpt><trkpt lat="44.4533896" lon="9.4313104"><ele>700.0</ele><time>2026-03-22T10:20:57.683Z</time></trkpt><trkpt lat="44.4534854" lon="9.4313234"><ele>703.3333333333334</ele><time>2026-03-22T10:20:58.683Z</time></trkpt><trkpt lat="44.4535604" lon="9.4313275"><ele>706.6666666666667</ele><time>2026-03-22T10:20:59.683Z</time></trkpt><trkpt lat="44.4536693" lon="9.4313513"><ele>710.0</ele><time>2026-03-22T10:21:01.683Z</time></trkpt><trkpt lat="44.4537633" lon="9.4314553"><ele>713.3333333333334</ele><time>2026-03-22T10:21:03.683Z</time></trkpt><trkpt lat="44.4538184" lon="9.4315257"><ele>716.6666666666666</ele><time>2026-03-22T10:21:04.683Z</time></trkpt><trkpt lat="44.4538663" lon="9.4315871"><ele>720.0</ele><time>2026-03-22T10:21:05.683Z</time></trkpt><trkpt lat="44.4539153" lon="9.4316438"><ele>720.0</ele><time>2026-03-22T10:21:06.683Z</time></trkpt><trkpt lat="44.4539666" lon="9.4317039"><ele>720.0</ele><time>2026-03-22T10:21:07.683Z</time></trkpt><trkpt lat="44.4540091" lon="9.43177"><ele>720.0</ele><time>2026-03-22T10:21:08.683Z</time></trkpt><trkpt lat="44.4540756" lon="9.4319105"><ele>720.0</ele><time>2026-03-22T10:21:10.682Z</time></trkpt><trkpt lat="44.454132" lon="9.4320528"><ele>720.0</ele><time>2026-03-22T10:21:12.684Z</time></trkpt><trkpt lat="44.454214" lon="9.4321442"><ele>721.5</ele><time>2026-03-22T10:21:14.683Z</time></trkpt><trkpt lat="44.4542693" lon="9.4321948"><ele>723.0</ele><time>2026-03-22T10:21:15.683Z</time></trkpt><trkpt lat="44.454334" lon="9.4322354"><ele>724.5</ele><time>2026-03-22T10:21:16.683Z</time></trkpt><trkpt lat="44.4544206" lon="9.4323232"><ele>726.0</ele><time>2026-03-22T10:21:17.683Z</time></trkpt><trkpt lat="44.4544966" lon="9.4323913"><ele>727.5</ele><time>2026-03-22T10:21:18.684Z</time></trkpt><trkpt lat="44.4545651" lon="9.4324657"><ele>729.0</ele><time>2026-03-22T10:21:19.683Z</time></trkpt><trkpt lat="44.4546268" lon="9.4325546"><ele>729.0</ele><time>2026-03-22T10:21:20.683Z</time></trkpt><trkpt lat="44.4546867" lon="9.4326434"><ele>729.0</ele><time>2026-03-22T10:21:21.683Z</time></trkpt><trkpt lat="44.4547357" lon="9.4327276"><ele>729.0</ele><time>2026-03-22T10:21:22.683Z</time></trkpt><trkpt lat="44.4547718" lon="9.432828"><ele>729.0</ele><time>2026-03-22T10:21:23.684Z</time></trkpt><trkpt lat="44.4548188" lon="9.4330037"><ele>729.0</ele><time>2026-03-22T10:21:25.683Z</time></trkpt><trkpt lat="44.4548393" lon="9.4330979"><ele>729.0</ele><time>2026-03-22T10:21:26.683Z</time></trkpt><trkpt lat="44.4548462" lon="9.4332026"><ele>731.5</ele><time>2026-03-22T10:21:27.683Z</time></trkpt><trkpt lat="44.4548589" lon="9.4333375"><ele>734.0</ele><time>2026-03-22T10:21:28.683Z</time></trkpt><trkpt lat="44.4548587" lon="9.4334604"><ele>736.5</ele><time>2026-03-22T10:21:29.683Z</time></trkpt><trkpt lat="44.454857" lon="9.4335705"><ele>739.0</ele><time>2026-03-22T10:21:30.683Z</time></trkpt><trkpt lat="44.4548651" lon="9.433713"><ele>741.5</ele><time>2026-03-22T10:21:32.683Z</time></trkpt><trkpt lat="44.4548807" lon="9.4338056"><ele>744.0</ele><time>2026-03-22T10:21:34.684Z</time></trkpt><trkpt lat="44.4549072" lon="9.4338948"><ele>745.0</ele><time>2026-03-22T10:21:36.683Z</time></trkpt><trkpt lat="44.4549665" lon="9.4339794"><ele>746.0</ele><time>2026-03-22T10:21:38.683Z</time></trkpt><trkpt lat="44.4550566" lon="9.4340535"><ele>747.0</ele><time>2026-03-22T10:21:40.683Z</time></trkpt><trkpt lat="44.4551336" lon="9.4340848"><ele>748.0</ele><time>2026-03-22T10:21:42.683Z</time></trkpt><trkpt lat="44.4552231" lon="9.4340552"><ele>749.0</ele><time>2026-03-22T10:21:44.683Z</time></trkpt><trkpt lat="44.4553139" lon="9.4340155"><ele>749.0</ele><time>2026-03-22T10:21:46.683Z</time></trkpt><trkpt lat="44.4553924" lon="9.4340435"><ele>749.0</ele><time>2026-03-22T10:21:48.683Z</time></trkpt><trkpt lat="44.4554506" lon="9.4341254"><ele>749.0</ele><time>2026-03-22T10:21:50.683Z</time></trkpt><trkpt lat="44.4554663" lon="9.4342431"><ele>749.0</ele><time>2026-03-22T10:21:52.683Z</time></trkpt><trkpt lat="44.4554503" lon="9.4343498"><ele>749.0</ele><time>2026-03-22T10:21:54.683Z</time></trkpt><trkpt lat="44.4554368" lon="9.4344592"><ele>749.0</ele><time>2026-03-22T10:21:56.683Z</time></trkpt><trkpt lat="44.455439" lon="9.4346051"><ele>756.2</ele><time>2026-03-22T10:21:58.683Z</time></trkpt><trkpt lat="44.4554607" lon="9.4347511"><ele>763.4000000000001</ele><time>2026-03-22T10:22:00.683Z</time></trkpt><trkpt lat="44.4554954" lon="9.4348611"><ele>770.6</ele><time>2026-03-22T10:22:02.683Z</time></trkpt><trkpt lat="44.4555573" lon="9.4349788"><ele>777.8</ele><time>2026-03-22T10:22:04.683Z</time></trkpt><trkpt lat="44.4556281" lon="9.4350867"><ele>785.0</ele><time>2026-03-22T10:22:06.683Z</time></trkpt><trkpt lat="44.4556684" lon="9.435211"><ele>785.0</ele><time>2026-03-22T10:22:08.684Z</time></trkpt><trkpt lat="44.4557185" lon="9.4353867"><ele>785.0</ele><time>2026-03-22T10:22:11.683Z</time></trkpt><trkpt lat="44.4557811" lon="9.4355048"><ele>785.0</ele><time>2026-03-22T10:22:13.683Z</time></trkpt><trkpt lat="44.4558456" lon="9.4356376"><ele>785.0</ele><time>2026-03-22T10:22:15.683Z</time></trkpt><trkpt lat="44.4559014" lon="9.4357571"><ele>784.8</ele><time>2026-03-22T10:22:17.683Z</time></trkpt><trkpt lat="44.4559556" lon="9.435811"><ele>784.6</ele><time>2026-03-22T10:22:18.683Z</time></trkpt><trkpt lat="44.4560218" lon="9.4359128"><ele>784.4000000000001</ele><time>2026-03-22T10:22:20.683Z</time></trkpt><trkpt lat="44.4560715" lon="9.4360533"><ele>784.2</ele><time>2026-03-22T10:22:22.683Z</time></trkpt><trkpt lat="44.4560972" lon="9.4361888"><ele>784.0</ele><time>2026-03-22T10:22:24.683Z</time></trkpt><trkpt lat="44.4561042" lon="9.4363858"><ele>783.6666666666666</ele><time>2026-03-22T10:22:26.683Z</time></trkpt><trkpt lat="44.4561201" lon="9.4364883"><ele>783.3333333333333</ele><time>2026-03-22T10:22:27.683Z</time></trkpt><trkpt lat="44.4561296" lon="9.4365887"><ele>783.0</ele><time>2026-03-22T10:22:28.683Z</time></trkpt><trkpt lat="44.4561352" lon="9.4366897"><ele>782.6666666666667</ele><time>2026-03-22T10:22:29.684Z</time></trkpt><trkpt lat="44.4561504" lon="9.4367812"><ele>782.3333333333334</ele><time>2026-03-22T10:22:30.683Z</time></trkpt><trkpt lat="44.4561752" lon="9.4368825"><ele>782.0</ele><time>2026-03-22T10:22:31.683Z</time></trkpt><trkpt lat="44.4561951" lon="9.4370158"><ele>782.0</ele><time>2026-03-22T10:22:32.683Z</time></trkpt><trkpt lat="44.4562096" lon="9.4371427"><ele>782.0</ele><time>2026-03-22T10:22:33.683Z</time></trkpt><trkpt lat="44.4562232" lon="9.4372604"><ele>782.0</ele><time>2026-03-22T10:22:34.683Z</time></trkpt><trkpt lat="44.4562673" lon="9.4374133"><ele>782.0</ele><time>2026-03-22T10:22:36.682Z</time></trkpt><trkpt lat="44.4562957" lon="9.4376047"><ele>782.0</ele><time>2026-03-22T10:22:38.683Z</time></trkpt><trkpt lat="44.4563035" lon="9.4377125"><ele>791.8</ele><time>2026-03-22T10:22:39.683Z</time></trkpt><trkpt lat="44.4563082" lon="9.4378377"><ele>801.6</ele><time>2026-03-22T10:22:40.684Z</time></trkpt><trkpt lat="44.4563263" lon="9.4379538"><ele>811.4</ele><time>2026-03-22T10:22:41.683Z</time></trkpt><trkpt lat="44.4563492" lon="9.4380459"><ele>821.1999999999999</ele><time>2026-03-22T10:22:42.683Z</time></trkpt><trkpt lat="44.4563782" lon="9.4381991"><ele>831.0</ele><time>2026-03-22T10:22:44.683Z</time></trkpt><trkpt lat="44.4563489" lon="9.438346"><ele>831.0</ele><time>2026-03-22T10:22:46.683Z</time></trkpt><trkpt lat="44.4562932" lon="9.4384408"><ele>831.0</ele><time>2026-03-22T10:22:48.683Z</time></trkpt><trkpt lat="44.4561785" lon="9.4385368"><ele>831.0</ele><time>2026-03-22T10:22:50.683Z</time></trkpt><trkpt lat="44.4561055" lon="9.4385842"><ele>831.0</ele><time>2026-03-22T10:22:51.683Z</time></trkpt><trkpt lat="44.4560452" lon="9.4386348"><ele>831.0</ele><time>2026-03-22T10:22:52.683Z</time></trkpt><trkpt lat="44.4559804" lon="9.4386918"><ele>831.0</ele><time>2026-03-22T10:22:53.683Z</time></trkpt><trkpt lat="44.4559319" lon="9.438757"><ele>825.0</ele><time>2026-03-22T10:22:54.684Z</time></trkpt><trkpt lat="44.4559135" lon="9.4388778"><ele>819.0</ele><time>2026-03-22T10:22:56.683Z</time></trkpt><trkpt lat="44.4559009" lon="9.4389644"><ele>813.0</ele><time>2026-03-22T10:22:57.683Z</time></trkpt><trkpt lat="44.455875" lon="9.4391174"><ele>807.0</ele><time>2026-03-22T10:22:59.683Z</time></trkpt><trkpt lat="44.455887" lon="9.4392516"><ele>801.0</ele><time>2026-03-22T10:23:01.683Z</time></trkpt><trkpt lat="44.455926" lon="9.4393755"><ele>801.0</ele><time>2026-03-22T10:23:03.683Z</time></trkpt><trkpt lat="44.4559797" lon="9.4394481"><ele>801.0</ele><time>2026-03-22T10:23:05.683Z</time></trkpt><trkpt lat="44.456062" lon="9.4395205"><ele>801.0</ele><time>2026-03-22T10:23:08.684Z</time></trkpt><trkpt lat="44.4561141" lon="9.4396046"><ele>801.0</ele><time>2026-03-22T10:23:10.683Z</time></trkpt><trkpt lat="44.4561629" lon="9.439748"><ele>801.0</ele><time>2026-03-22T10:23:12.683Z</time></trkpt><trkpt lat="44.4561703" lon="9.4398516"><ele>801.0</ele><time>2026-03-22T10:23:13.683Z</time></trkpt><trkpt lat="44.4561836" lon="9.4399503"><ele>802.6666666666666</ele><time>2026-03-22T10:23:14.683Z</time></trkpt><trkpt lat="44.456196" lon="9.4400498"><ele>804.3333333333333</ele><time>2026-03-22T10:23:15.683Z</time></trkpt><trkpt lat="44.4562132" lon="9.4401387"><ele>806.0</ele><time>2026-03-22T10:23:16.684Z</time></trkpt><trkpt lat="44.4562336" lon="9.44028"><ele>807.6666666666666</ele><time>2026-03-22T10:23:18.683Z</time></trkpt><trkpt lat="44.4562084" lon="9.4403661"><ele>809.3333333333333</ele><time>2026-03-22T10:23:21.683Z</time></trkpt><trkpt lat="44.4561401" lon="9.4404076"><ele>811.0</ele><time>2026-03-22T10:23:23.683Z</time></trkpt><trkpt lat="44.4560774" lon="9.4404703"><ele>813.8</ele><time>2026-03-22T10:23:24.683Z</time></trkpt><trkpt lat="44.4559989" lon="9.4406087"><ele>816.5999999999999</ele><time>2026-03-22T10:23:26.683Z</time></trkpt><trkpt lat="44.4559489" lon="9.44077"><ele>819.4</ele><time>2026-03-22T10:23:28.683Z</time></trkpt><trkpt lat="44.4559225" lon="9.4408727"><ele>822.2</ele><time>2026-03-22T10:23:29.683Z</time></trkpt><trkpt lat="44.4558884" lon="9.4409666"><ele>825.0</ele><time>2026-03-22T10:23:30.683Z</time></trkpt><trkpt lat="44.4558489" lon="9.4410505"><ele>825.0</ele><time>2026-03-22T10:23:31.683Z</time></trkpt><trkpt lat="44.4558003" lon="9.4411419"><ele>825.0</ele><time>2026-03-22T10:23:32.683Z</time></trkpt><trkpt lat="44.455756" lon="9.4412415"><ele>825.0</ele><time>2026-03-22T10:23:33.683Z</time></trkpt><trkpt lat="44.4557222" lon="9.441344"><ele>825.0</ele><time>2026-03-22T10:23:34.683Z</time></trkpt><trkpt lat="44.4556841" lon="9.4414416"><ele>825.0</ele><time>2026-03-22T10:23:35.683Z</time></trkpt><trkpt lat="44.4556638" lon="9.4415445"><ele>825.0</ele><time>2026-03-22T10:23:36.684Z</time></trkpt><trkpt lat="44.4556415" lon="9.4416391"><ele>828.4</ele><time>2026-03-22T10:23:37.684Z</time></trkpt><trkpt lat="44.4556241" lon="9.4417916"><ele>831.8</ele><time>2026-03-22T10:23:39.683Z</time></trkpt><trkpt lat="44.4555966" lon="9.4419297"><ele>835.2</ele><time>2026-03-22T10:23:41.683Z</time></trkpt><trkpt lat="44.4555462" lon="9.4420432"><ele>838.6</ele><time>2026-03-22T10:23:43.683Z</time></trkpt><trkpt lat="44.4555222" lon="9.4421534"><ele>842.0</ele><time>2026-03-22T10:23:45.684Z</time></trkpt><trkpt lat="44.4554897" lon="9.4422713"><ele>844.6666666666667</ele><time>2026-03-22T10:23:47.683Z</time></trkpt><trkpt lat="44.4554552" lon="9.442369"><ele>847.3333333333334</ele><time>2026-03-22T10:23:49.683Z</time></trkpt><trkpt lat="44.4554182" lon="9.4424405"><ele>850.0</ele><time>2026-03-22T10:23:51.683Z</time></trkpt><trkpt lat="44.4553506" lon="9.4426164"><ele>852.6666666666667</ele><time>2026-03-22T10:23:54.683Z</time></trkpt><trkpt lat="44.4553206" lon="9.4427199"><ele>855.3333333333334</ele><time>2026-03-22T10:23:56.683Z</time></trkpt><trkpt lat="44.4553192" lon="9.442835"><ele>858.0</ele><time>2026-03-22T10:23:58.683Z</time></trkpt><trkpt lat="44.4553328" lon="9.4429753"><ele>853.2857142857143</ele><time>2026-03-22T10:24:00.684Z</time></trkpt><trkpt lat="44.4553543" lon="9.443114"><ele>848.5714285714287</ele><time>2026-03-22T10:24:02.683Z</time></trkpt><trkpt lat="44.4553552" lon="9.4432067"><ele>843.8571428571429</ele><time>2026-03-22T10:24:03.683Z</time></trkpt><trkpt lat="44.45536" lon="9.4432998"><ele>839.1428571428571</ele><time>2026-03-22T10:24:04.683Z</time></trkpt><trkpt lat="44.4553552" lon="9.4433937"><ele>834.4285714285714</ele><time>2026-03-22T10:24:05.683Z</time></trkpt><trkpt lat="44.4553513" lon="9.4434887"><ele>829.7142857142857</ele><time>2026-03-22T10:24:06.683Z</time></trkpt><trkpt lat="44.4553343" lon="9.4435937"><ele>825.0</ele><time>2026-03-22T10:24:07.684Z</time></trkpt><trkpt lat="44.4553192" lon="9.4437121"><ele>825.6666666666666</ele><time>2026-03-22T10:24:08.683Z</time></trkpt><trkpt lat="44.4553046" lon="9.4438047"><ele>826.3333333333333</ele><time>2026-03-22T10:24:09.684Z</time></trkpt><trkpt lat="44.4553103" lon="9.4439745"><ele>827.0</ele><time>2026-03-22T10:24:11.683Z</time></trkpt><trkpt lat="44.4553138" lon="9.4440671"><ele>827.6666666666666</ele><time>2026-03-22T10:24:12.683Z</time></trkpt><trkpt lat="44.4553378" lon="9.4441496"><ele>828.3333333333333</ele><time>2026-03-22T10:24:13.684Z</time></trkpt><trkpt lat="44.4553902" lon="9.4443106"><ele>829.0</ele><time>2026-03-22T10:24:15.683Z</time></trkpt><trkpt lat="44.4554246" lon="9.4444237"><ele>828.9999999999999</ele><time>2026-03-22T10:24:16.683Z</time></trkpt><trkpt lat="44.4554439" lon="9.4445275"><ele>829.0</ele><time>2026-03-22T10:24:17.683Z</time></trkpt><trkpt lat="44.4554741" lon="9.4446278"><ele>829.0</ele><time>2026-03-22T10:24:18.683Z</time></trkpt><trkpt lat="44.4555034" lon="9.4447289"><ele>829.0</ele><time>2026-03-22T10:24:19.683Z</time></trkpt><trkpt lat="44.455526" lon="9.4448229"><ele>828.9999999999999</ele><time>2026-03-22T10:24:20.683Z</time></trkpt><trkpt lat="44.4555445" lon="9.4449415"><ele>829.0</ele><time>2026-03-22T10:24:21.683Z</time></trkpt><trkpt lat="44.4555721" lon="9.4450499"><ele>837.1666666666666</ele><time>2026-03-22T10:24:22.683Z</time></trkpt><trkpt lat="44.4555928" lon="9.4451486"><ele>845.3333333333333</ele><time>2026-03-22T10:24:23.684Z</time></trkpt><trkpt lat="44.4555937" lon="9.4452482"><ele>853.5</ele><time>2026-03-22T10:24:24.683Z</time></trkpt><trkpt lat="44.4556268" lon="9.4453445"><ele>861.6666666666667</ele><time>2026-03-22T10:24:25.683Z</time></trkpt><trkpt lat="44.4556205" lon="9.4454904"><ele>869.8333333333334</ele><time>2026-03-22T10:24:27.683Z</time></trkpt><trkpt lat="44.4556489" lon="9.4455919"><ele>878.0</ele><time>2026-03-22T10:24:29.683Z</time></trkpt><trkpt lat="44.4556905" lon="9.4456623"><ele>878.0000000000001</ele><time>2026-03-22T10:24:31.683Z</time></trkpt><trkpt lat="44.4557136" lon="9.4455783"><ele>878.0</ele><time>2026-03-22T10:24:34.683Z</time></trkpt><trkpt lat="44.4556898" lon="9.4454539"><ele>878.0</ele><time>2026-03-22T10:24:36.683Z</time></trkpt><trkpt lat="44.4557197" lon="9.4453201"><ele>878.0</ele><time>2026-03-22T10:24:37.683Z</time></trkpt><trkpt lat="44.455733" lon="9.4452238"><ele>878.0000000000001</ele><time>2026-03-22T10:24:38.683Z</time></trkpt><trkpt lat="44.4557307" lon="9.4451322"><ele>878.0</ele><time>2026-03-22T10:24:39.683Z</time></trkpt><trkpt lat="44.4557002" lon="9.445052"><ele>878.1666666666667</ele><time>2026-03-22T10:24:40.683Z</time></trkpt><trkpt lat="44.4556701" lon="9.4449117"><ele>878.3333333333334</ele><time>2026-03-22T10:24:42.683Z</time></trkpt><trkpt lat="44.4556596" lon="9.4447471"><ele>878.5</ele><time>2026-03-22T10:24:44.684Z</time></trkpt><trkpt lat="44.4556501" lon="9.4446555"><ele>878.6666666666667</ele><time>2026-03-22T10:24:45.683Z</time></trkpt><trkpt lat="44.4556266" lon="9.4445727"><ele>878.8333333333334</ele><time>2026-03-22T10:24:46.683Z</time></trkpt><trkpt lat="44.455606" lon="9.4444712"><ele>879.0</ele><time>2026-03-22T10:25:02.683Z</time></trkpt><trkpt lat="44.4555785" lon="9.4443787"><ele>879.0</ele><time>2026-03-22T10:25:04.684Z</time></trkpt><trkpt lat="44.4555529" lon="9.4442312"><ele>879.0000000000001</ele><time>2026-03-22T10:25:06.683Z</time></trkpt><trkpt lat="44.4555159" lon="9.4441186"><ele>879.0000000000001</ele><time>2026-03-22T10:25:08.684Z</time></trkpt><trkpt lat="44.4554722" lon="9.4439928"><ele>879.0</ele><time>2026-03-22T10:25:10.683Z</time></trkpt><trkpt lat="44.4554883" lon="9.4438683"><ele>879.0</ele><time>2026-03-22T10:25:12.684Z</time></trkpt><trkpt lat="44.4555365" lon="9.4437036"><ele>877.7142857142858</ele><time>2026-03-22T10:25:14.683Z</time></trkpt><trkpt lat="44.4555736" lon="9.4436223"><ele>876.4285714285714</ele><time>2026-03-22T10:25:15.683Z</time></trkpt><trkpt lat="44.4556137" lon="9.4435418"><ele>875.1428571428571</ele><time>2026-03-22T10:25:16.683Z</time></trkpt><trkpt lat="44.4556486" lon="9.443452"><ele>873.8571428571429</ele><time>2026-03-22T10:25:17.683Z</time></trkpt><trkpt lat="44.4556782" lon="9.4433361"><ele>872.5714285714286</ele><time>2026-03-22T10:25:18.683Z</time></trkpt><trkpt lat="44.4556951" lon="9.4432198"><ele>871.2857142857143</ele><time>2026-03-22T10:25:19.683Z</time></trkpt><trkpt lat="44.4557065" lon="9.4431312"><ele>870.0</ele><time>2026-03-22T10:25:20.683Z</time></trkpt><trkpt lat="44.4557562" lon="9.4430002"><ele>868.0</ele><time>2026-03-22T10:25:22.683Z</time></trkpt><trkpt lat="44.4558537" lon="9.4428969"><ele>866.0</ele><time>2026-03-22T10:25:24.683Z</time></trkpt><trkpt lat="44.4559352" lon="9.4427698"><ele>864.0</ele><time>2026-03-22T10:25:26.683Z</time></trkpt><trkpt lat="44.4559811" lon="9.4427086"><ele>862.0</ele><time>2026-03-22T10:25:27.683Z</time></trkpt><trkpt lat="44.4560298" lon="9.4426524"><ele>860.0</ele><time>2026-03-22T10:25:28.683Z</time></trkpt><trkpt lat="44.4560851" lon="9.4425848"><ele>858.0</ele><time>2026-03-22T10:25:29.684Z</time></trkpt><trkpt lat="44.4561382" lon="9.4425113"><ele>858.0</ele><time>2026-03-22T10:25:30.683Z</time></trkpt><trkpt lat="44.456178" lon="9.4424339"><ele>858.0</ele><time>2026-03-22T10:25:31.683Z</time></trkpt><trkpt lat="44.4562169" lon="9.4423475"><ele>858.0</ele><time>2026-03-22T10:25:32.683Z</time></trkpt><trkpt lat="44.4562566" lon="9.4422661"><ele>858.0</ele><time>2026-03-22T10:25:33.683Z</time></trkpt><trkpt lat="44.4562938" lon="9.4421778"><ele>858.0</ele><time>2026-03-22T10:25:34.683Z</time></trkpt><trkpt lat="44.4563328" lon="9.4420826"><ele>858.0</ele><time>2026-03-22T10:25:35.683Z</time></trkpt><trkpt lat="44.4563719" lon="9.4420125"><ele>858.0</ele><time>2026-03-22T10:25:36.683Z</time></trkpt><trkpt lat="44.45642" lon="9.4419411"><ele>860.1666666666666</ele><time>2026-03-22T10:25:38.683Z</time></trkpt><trkpt lat="44.4564976" lon="9.4419283"><ele>862.3333333333333</ele><time>2026-03-22T10:25:40.683Z</time></trkpt><trkpt lat="44.4566086" lon="9.4419086"><ele>864.5</ele><time>2026-03-22T10:25:42.683Z</time></trkpt><trkpt lat="44.4567157" lon="9.4418833"><ele>866.6666666666666</ele><time>2026-03-22T10:25:44.683Z</time></trkpt><trkpt lat="44.4567923" lon="9.4418954"><ele>868.8333333333333</ele><time>2026-03-22T10:25:46.683Z</time></trkpt><trkpt lat="44.4568576" lon="9.4419408"><ele>871.0</ele><time>2026-03-22T10:25:49.683Z</time></trkpt><trkpt lat="44.4568287" lon="9.442053"><ele>870.9999999999999</ele><time>2026-03-22T10:25:53.683Z</time></trkpt><trkpt lat="44.4567299" lon="9.4420514"><ele>871.0</ele><time>2026-03-22T10:25:56.683Z</time></trkpt><trkpt lat="44.4566722" lon="9.4421345"><ele>871.0</ele><time>2026-03-22T10:25:58.684Z</time></trkpt><trkpt lat="44.4566892" lon="9.4422444"><ele>871.0</ele><time>2026-03-22T10:26:00.683Z</time></trkpt><trkpt lat="44.456807" lon="9.4422153"><ele>870.9999999999999</ele><time>2026-03-22T10:26:02.683Z</time></trkpt><trkpt lat="44.4568668" lon="9.4421793"><ele>871.0</ele><time>2026-03-22T10:26:03.684Z</time></trkpt><trkpt lat="44.4569646" lon="9.4421672"><ele>875.5999999999999</ele><time>2026-03-22T10:26:05.683Z</time></trkpt><trkpt lat="44.4570618" lon="9.4422022"><ele>880.1999999999999</ele><time>2026-03-22T10:26:07.683Z</time></trkpt><trkpt lat="44.4571436" lon="9.4422775"><ele>884.8000000000001</ele><time>2026-03-22T10:26:09.683Z</time></trkpt><trkpt lat="44.4572081" lon="9.4423582"><ele>889.4000000000001</ele><time>2026-03-22T10:26:12.683Z</time></trkpt><trkpt lat="44.4572884" lon="9.442345"><ele>894.0</ele><time>2026-03-22T10:26:14.683Z</time></trkpt><trkpt lat="44.4573677" lon="9.4424147"><ele>898.0</ele><time>2026-03-22T10:26:17.683Z</time></trkpt><trkpt lat="44.457407" lon="9.4425209"><ele>902.0</ele><time>2026-03-22T10:26:19.684Z</time></trkpt><trkpt lat="44.457451" lon="9.442635"><ele>906.0</ele><time>2026-03-22T10:26:21.684Z</time></trkpt><trkpt lat="44.4575041" lon="9.4427729"><ele>910.0</ele><time>2026-03-22T10:26:23.683Z</time></trkpt><trkpt lat="44.4575339" lon="9.4428669"><ele>914.0</ele><time>2026-03-22T10:26:24.683Z</time></trkpt><trkpt lat="44.4575718" lon="9.4429433"><ele>918.0</ele><time>2026-03-22T10:26:25.683Z</time></trkpt><trkpt lat="44.4576233" lon="9.4430243"><ele>920.2</ele><time>2026-03-22T10:26:26.683Z</time></trkpt><trkpt lat="44.4576621" lon="9.4431313"><ele>922.4</ele><time>2026-03-22T10:26:27.683Z</time></trkpt><trkpt lat="44.4577035" lon="9.4432323"><ele>924.6000000000001</ele><time>2026-03-22T10:26:28.683Z</time></trkpt><trkpt lat="44.4577516" lon="9.4433844"><ele>926.8000000000001</ele><time>2026-03-22T10:26:30.683Z</time></trkpt><trkpt lat="44.4577876" lon="9.4435011"><ele>929.0</ele><time>2026-03-22T10:26:32.683Z</time></trkpt><trkpt lat="44.4578234" lon="9.4435951"><ele>929.0</ele><time>2026-03-22T10:26:34.683Z</time></trkpt><trkpt lat="44.457883" lon="9.4435532"><ele>929.0000000000001</ele><time>2026-03-22T10:26:39.684Z</time></trkpt><trkpt lat="44.4579437" lon="9.443342"><ele>929.0000000000001</ele><time>2026-03-22T10:26:42.683Z</time></trkpt><trkpt lat="44.4578914" lon="9.4432275"><ele>929.0</ele><time>2026-03-22T10:26:44.683Z</time></trkpt><trkpt lat="44.4578632" lon="9.4430846"><ele>929.0</ele><time>2026-03-22T10:26:46.683Z</time></trkpt><trkpt lat="44.4578976" lon="9.442956"><ele>926.8000000000001</ele><time>2026-03-22T10:26:48.683Z</time></trkpt><trkpt lat="44.4579395" lon="9.4428021"><ele>924.6000000000001</ele><time>2026-03-22T10:26:50.683Z</time></trkpt><trkpt lat="44.4579878" lon="9.4426393"><ele>922.4</ele><time>2026-03-22T10:26:52.683Z</time></trkpt><trkpt lat="44.4580234" lon="9.4424821"><ele>920.2</ele><time>2026-03-22T10:26:54.684Z</time></trkpt><trkpt lat="44.4580589" lon="9.4423813"><ele>918.0</ele><time>2026-03-22T10:26:56.683Z</time></trkpt><trkpt lat="44.4581181" lon="9.4422776"><ele>922.5</ele><time>2026-03-22T10:26:58.683Z</time></trkpt><trkpt lat="44.458193" lon="9.4421771"><ele>927.0</ele><time>2026-03-22T10:27:00.684Z</time></trkpt><trkpt lat="44.4582474" lon="9.4420602"><ele>931.5</ele><time>2026-03-22T10:27:02.683Z</time></trkpt><trkpt lat="44.4582777" lon="9.44198"><ele>936.0</ele><time>2026-03-22T10:27:03.684Z</time></trkpt><trkpt lat="44.4583096" lon="9.4418874"><ele>940.5</ele><time>2026-03-22T10:27:04.684Z</time></trkpt><trkpt lat="44.458345" lon="9.4417573"><ele>945.0</ele><time>2026-03-22T10:27:06.683Z</time></trkpt><trkpt lat="44.4584182" lon="9.4416315"><ele>945.0</ele><time>2026-03-22T10:27:09.661Z</time></trkpt><trkpt lat="44.4585012" lon="9.4415811"><ele>945.0</ele><time>2026-03-22T10:27:11.688Z</time></trkpt><trkpt lat="44.4585842" lon="9.4415969"><ele>945.0</ele><time>2026-03-22T10:27:13.683Z</time></trkpt><trkpt lat="44.4586137" lon="9.4417193"><ele>945.0</ele><time>2026-03-22T10:27:15.683Z</time></trkpt><trkpt lat="44.4585879" lon="9.4418231"><ele>945.0</ele><time>2026-03-22T10:27:16.683Z</time></trkpt><trkpt lat="44.4585734" lon="9.441923"><ele>945.0</ele><time>2026-03-22T10:27:17.683Z</time></trkpt><trkpt lat="44.4585748" lon="9.4420962"><ele>945.7142857142858</ele><time>2026-03-22T10:27:19.683Z</time></trkpt><trkpt lat="44.4585625" lon="9.4421835"><ele>946.4285714285714</ele><time>2026-03-22T10:27:20.683Z</time></trkpt><trkpt lat="44.4585712" lon="9.4422841"><ele>947.1428571428571</ele><time>2026-03-22T10:27:21.684Z</time></trkpt><trkpt lat="44.4585724" lon="9.4423861"><ele>947.8571428571429</ele><time>2026-03-22T10:27:22.684Z</time></trkpt><trkpt lat="44.4585715" lon="9.4424835"><ele>948.5714285714287</ele><time>2026-03-22T10:27:23.684Z</time></trkpt><trkpt lat="44.4585762" lon="9.442575"><ele>949.2857142857143</ele><time>2026-03-22T10:27:24.683Z</time></trkpt><trkpt lat="44.4585903" lon="9.4426629"><ele>950.0</ele><time>2026-03-22T10:27:25.683Z</time></trkpt><trkpt lat="44.4586244" lon="9.4428313"><ele>950.2</ele><time>2026-03-22T10:27:27.684Z</time></trkpt><trkpt lat="44.4586708" lon="9.4429965"><ele>950.4</ele><time>2026-03-22T10:27:29.683Z</time></trkpt><trkpt lat="44.4587009" lon="9.4430807"><ele>950.5999999999999</ele><time>2026-03-22T10:27:30.683Z</time></trkpt><trkpt lat="44.4587491" lon="9.4432311"><ele>950.8</ele><time>2026-03-22T10:27:32.683Z</time></trkpt><trkpt lat="44.4587693" lon="9.4433743"><ele>951.0</ele><time>2026-03-22T10:27:34.683Z</time></trkpt><trkpt lat="44.4587454" lon="9.4435344"><ele>951.0</ele><time>2026-03-22T10:27:36.683Z</time></trkpt><trkpt lat="44.4586753" lon="9.4436825"><ele>950.9999999999999</ele><time>2026-03-22T10:27:38.684Z</time></trkpt><trkpt lat="44.4586011" lon="9.4438025"><ele>950.9999999999999</ele><time>2026-03-22T10:27:40.683Z</time></trkpt><trkpt lat="44.4585742" lon="9.4439346"><ele>951.0</ele><time>2026-03-22T10:27:42.683Z</time></trkpt><trkpt lat="44.4585799" lon="9.4440896"><ele>951.0</ele><time>2026-03-22T10:27:44.683Z</time></trkpt><trkpt lat="44.4585641" lon="9.444244"><ele>954.5999999999999</ele><time>2026-03-22T10:27:46.683Z</time></trkpt><trkpt lat="44.4585194" lon="9.4443798"><ele>958.1999999999999</ele><time>2026-03-22T10:27:48.683Z</time></trkpt><trkpt lat="44.4584527" lon="9.4444999"><ele>961.8000000000001</ele><time>2026-03-22T10:27:50.683Z</time></trkpt><trkpt lat="44.4584354" lon="9.4446348"><ele>965.4000000000001</ele><time>2026-03-22T10:27:52.683Z</time></trkpt><trkpt lat="44.4584625" lon="9.4447944"><ele>969.0</ele><time>2026-03-22T10:27:54.683Z</time></trkpt><trkpt lat="44.4584534" lon="9.4449151"><ele>973.0</ele><time>2026-03-22T10:27:56.683Z</time></trkpt><trkpt lat="44.4583965" lon="9.4450249"><ele>977.0000000000001</ele><time>2026-03-22T10:27:58.684Z</time></trkpt><trkpt lat="44.4583715" lon="9.4451756"><ele>981.0000000000001</ele><time>2026-03-22T10:28:00.683Z</time></trkpt><trkpt lat="44.4583858" lon="9.4453634"><ele>985.0</ele><time>2026-03-22T10:28:02.683Z</time></trkpt><trkpt lat="44.4584001" lon="9.4454659"><ele>989.0</ele><time>2026-03-22T10:28:03.683Z</time></trkpt><trkpt lat="44.4584132" lon="9.4456092"><ele>992.0000000000001</ele><time>2026-03-22T10:28:05.683Z</time></trkpt><trkpt lat="44.4583981" lon="9.445703"><ele>995.0</ele><time>2026-03-22T10:28:07.683Z</time></trkpt><trkpt lat="44.4583576" lon="9.4457719"><ele>998.0</ele><time>2026-03-22T10:28:09.683Z</time></trkpt><trkpt lat="44.4582762" lon="9.4457878"><ele>1001.0</ele><time>2026-03-22T10:28:11.683Z</time></trkpt><trkpt lat="44.4581778" lon="9.4458175"><ele>1004.0000000000001</ele><time>2026-03-22T10:28:13.683Z</time></trkpt><trkpt lat="44.4580973" lon="9.4458953"><ele>1007.0</ele><time>2026-03-22T10:28:15.683Z</time></trkpt><trkpt lat="44.4580417" lon="9.4459488"><ele>1007.0000000000001</ele><time>2026-03-22T10:28:16.683Z</time></trkpt><trkpt lat="44.4579789" lon="9.4460031"><ele>1007.0</ele><time>2026-03-22T10:28:17.683Z</time></trkpt><trkpt lat="44.4579235" lon="9.4460485"><ele>1007.0</ele><time>2026-03-22T10:28:18.683Z</time></trkpt><trkpt lat="44.4578516" lon="9.4461376"><ele>1007.0</ele><time>2026-03-22T10:28:20.684Z</time></trkpt><trkpt lat="44.4578189" lon="9.4462574"><ele>1007.0000000000001</ele><time>2026-03-22T10:28:23.683Z</time></trkpt><trkpt lat="44.4578339" lon="9.446386"><ele>1007.0</ele><time>2026-03-22T10:28:25.683Z</time></trkpt><trkpt lat="44.4578912" lon="9.4464605"><ele>1007.0000000000001</ele><time>2026-03-22T10:28:27.683Z</time></trkpt><trkpt lat="44.4579629" lon="9.4464909"><ele>1007.0</ele><time>2026-03-22T10:28:29.683Z</time></trkpt><trkpt lat="44.4580244" lon="9.4464308"><ele>1007.0</ele><time>2026-03-22T10:28:31.683Z</time></trkpt><trkpt lat="44.4581066" lon="9.4463545"><ele>1007.0</ele><time>2026-03-22T10:28:33.683Z</time></trkpt><trkpt lat="44.4581991" lon="9.4463033"><ele>1007.0000000000001</ele><time>2026-03-22T10:28:35.683Z</time></trkpt><trkpt lat="44.4582847" lon="9.4462794"><ele>1007.0</ele><time>2026-03-22T10:28:37.684Z</time></trkpt><trkpt lat="44.458381" lon="9.446289"><ele>1009.6</ele><time>2026-03-22T10:28:39.684Z</time></trkpt><trkpt lat="44.4584826" lon="9.4463338"><ele>1012.2</ele><time>2026-03-22T10:28:41.683Z</time></trkpt><trkpt lat="44.4585763" lon="9.4463644"><ele>1014.8</ele><time>2026-03-22T10:28:43.683Z</time></trkpt><trkpt lat="44.4586896" lon="9.4463132"><ele>1017.4</ele><time>2026-03-22T10:28:45.684Z</time></trkpt><trkpt lat="44.4587591" lon="9.4462959"><ele>1020.0</ele><time>2026-03-22T10:28:46.682Z</time></trkpt><trkpt lat="44.4588391" lon="9.4462914"><ele>1023.0</ele><time>2026-03-22T10:28:47.683Z</time></trkpt><trkpt lat="44.4589032" lon="9.4462901"><ele>1026.0</ele><time>2026-03-22T10:28:48.683Z</time></trkpt><trkpt lat="44.4589751" lon="9.4462795"><ele>1029.0</ele><time>2026-03-22T10:28:50.684Z</time></trkpt><trkpt lat="44.4590335" lon="9.4462198"><ele>1032.0</ele><time>2026-03-22T10:29:01.683Z</time></trkpt><trkpt lat="44.4591039" lon="9.4461493"><ele>1035.0</ele><time>2026-03-22T10:29:04.683Z</time></trkpt><trkpt lat="44.4591753" lon="9.4461628"><ele>1038.0</ele><time>2026-03-22T10:29:07.646Z</time></trkpt><trkpt lat="44.4591724" lon="9.4462976"><ele>1038.0</ele><time>2026-03-22T10:29:09.683Z</time></trkpt><trkpt lat="44.4591576" lon="9.4464028"><ele>1038.0</ele><time>2026-03-22T10:29:10.683Z</time></trkpt><trkpt lat="44.4591365" lon="9.4464969"><ele>1038.0</ele><time>2026-03-22T10:29:11.683Z</time></trkpt><trkpt lat="44.4591157" lon="9.4466158"><ele>1038.0</ele><time>2026-03-22T10:29:13.683Z</time></trkpt><trkpt lat="44.4591773" lon="9.4467082"><ele>1038.0</ele><time>2026-03-22T10:29:16.683Z</time></trkpt><trkpt lat="44.4592458" lon="9.446681"><ele>1038.0</ele><time>2026-03-22T10:29:18.683Z</time></trkpt><trkpt lat="44.4593019" lon="9.4466171"><ele>1038.0</ele><time>2026-03-22T10:29:20.683Z</time></trkpt><trkpt lat="44.4593697" lon="9.4466018"><ele>1038.0</ele><time>2026-03-22T10:29:22.683Z</time></trkpt><trkpt lat="44.4594382" lon="9.4466373"><ele>1038.0</ele><time>2026-03-22T10:29:24.585Z</time></trkpt><trkpt lat="44.4595116" lon="9.4466633"><ele>1038.0</ele><time>2026-03-22T10:29:25.683Z</time></trkpt><trkpt lat="44.4596103" lon="9.4467002"><ele>1038.0</ele><time>2026-03-22T10:29:27.683Z</time></trkpt><trkpt lat="44.4597229" lon="9.4467271"><ele>1038.0</ele><time>2026-03-22T10:29:29.683Z</time></trkpt><trkpt lat="44.4597918" lon="9.4467353"><ele>1042.8</ele><time>2026-03-22T10:29:30.683Z</time></trkpt><trkpt lat="44.4598548" lon="9.4467426"><ele>1047.6</ele><time>2026-03-22T10:29:31.683Z</time></trkpt><trkpt lat="44.4599538" lon="9.4467381"><ele>1052.4</ele><time>2026-03-22T10:29:33.683Z</time></trkpt><trkpt lat="44.46006" lon="9.4467327"><ele>1057.2</ele><time>2026-03-22T10:29:35.683Z</time></trkpt><trkpt lat="44.4601725" lon="9.4467698"><ele>1062.0</ele><time>2026-03-22T10:29:37.683Z</time></trkpt><trkpt lat="44.4602712" lon="9.4468701"><ele>1062.0</ele><time>2026-03-22T10:29:39.683Z</time></trkpt><trkpt lat="44.4603641" lon="9.4469785"><ele>1062.0</ele><time>2026-03-22T10:29:41.683Z</time></trkpt><trkpt lat="44.4604382" lon="9.4470956"><ele>1062.0</ele><time>2026-03-22T10:29:43.683Z</time></trkpt><trkpt lat="44.4605131" lon="9.4472204"><ele>1062.0</ele><time>2026-03-22T10:29:45.683Z</time></trkpt><trkpt lat="44.4605618" lon="9.4473253"><ele>1062.0</ele><time>2026-03-22T10:29:47.683Z</time></trkpt><trkpt lat="44.4605879" lon="9.4474276"><ele>1060.8333333333333</ele><time>2026-03-22T10:29:49.683Z</time></trkpt><trkpt lat="44.460587" lon="9.4475299"><ele>1059.6666666666667</ele><time>2026-03-22T10:29:51.683Z</time></trkpt><trkpt lat="44.460555" lon="9.4476484"><ele>1058.5</ele><time>2026-03-22T10:29:53.683Z</time></trkpt><trkpt lat="44.4605187" lon="9.4477282"><ele>1057.3333333333335</ele><time>2026-03-22T10:29:55.683Z</time></trkpt><trkpt lat="44.4604648" lon="9.4478099"><ele>1056.1666666666667</ele><time>2026-03-22T10:29:57.683Z</time></trkpt><trkpt lat="44.4604264" lon="9.4479198"><ele>1055.0</ele><time>2026-03-22T10:29:59.683Z</time></trkpt><trkpt lat="44.4604381" lon="9.4480519"><ele>1060.8333333333335</ele><time>2026-03-22T10:30:01.683Z</time></trkpt><trkpt lat="44.4604524" lon="9.4481648"><ele>1066.6666666666667</ele><time>2026-03-22T10:30:03.65Z</time></trkpt><trkpt lat="44.4604926" lon="9.4482362"><ele>1072.5</ele><time>2026-03-22T10:30:07.683Z</time></trkpt><trkpt lat="44.4605053" lon="9.4483676"><ele>1078.3333333333333</ele><time>2026-03-22T10:30:33.683Z</time></trkpt><trkpt lat="44.4605361" lon="9.4484785"><ele>1084.1666666666665</ele><time>2026-03-22T10:30:35.683Z</time></trkpt><trkpt lat="44.460551" lon="9.4485926"><ele>1090.0</ele><time>2026-03-22T10:30:37.683Z</time></trkpt><trkpt lat="44.4605432" lon="9.4487063"><ele>1090.0</ele><time>2026-03-22T10:30:39.683Z</time></trkpt><trkpt lat="44.4605431" lon="9.4488076"><ele>1090.0</ele><time>2026-03-22T10:30:46.683Z</time></trkpt><trkpt lat="44.4605198" lon="9.4487192"><ele>1090.0</ele><time>2026-03-22T10:35:18.683Z</time></trkpt><trkpt lat="44.460534" lon="9.448632"><ele>1090.0</ele><time>2026-03-22T10:35:21.682Z</time></trkpt><trkpt lat="44.4605387" lon="9.4485108"><ele>1090.0</ele><time>2026-03-22T10:35:24.682Z</time></trkpt><trkpt lat="44.4605192" lon="9.4484244"><ele>1090.0</ele><time>2026-03-22T10:35:26.682Z</time></trkpt><trkpt lat="44.460489" lon="9.4483357"><ele>1090.0</ele><time>2026-03-22T10:35:28.682Z</time></trkpt><trkpt lat="44.4604515" lon="9.4482597"><ele>1090.0</ele><time>2026-03-22T10:35:32.683Z</time></trkpt><trkpt lat="44.4604526" lon="9.4481678"><ele>1090.0</ele><time>2026-03-22T10:41:22.682Z</time></trkpt><trkpt lat="44.4604476" lon="9.4480729"><ele>1090.0</ele><time>2026-03-22T10:41:25.682Z</time></trkpt><trkpt lat="44.4604445" lon="9.4479748"><ele>1090.0</ele><time>2026-03-22T10:41:27.682Z</time></trkpt><trkpt lat="44.4604567" lon="9.4478625"><ele>1090.0</ele><time>2026-03-22T10:41:29.682Z</time></trkpt><trkpt lat="44.4604913" lon="9.4477697"><ele>1090.0</ele><time>2026-03-22T10:41:31.682Z</time></trkpt><trkpt lat="44.4605411" lon="9.4476702"><ele>1090.0</ele><time>2026-03-22T10:41:33.683Z</time></trkpt><trkpt lat="44.4605784" lon="9.4475602"><ele>1091.0</ele><time>2026-03-22T10:41:35.682Z</time></trkpt><trkpt lat="44.4605844" lon="9.4474458"><ele>1092.0</ele><time>2026-03-22T10:41:37.682Z</time></trkpt><trkpt lat="44.4605512" lon="9.4473074"><ele>1093.0</ele><time>2026-03-22T10:41:39.682Z</time></trkpt><trkpt lat="44.4604938" lon="9.4471948"><ele>1094.0</ele><time>2026-03-22T10:41:41.682Z</time></trkpt><trkpt lat="44.460453" lon="9.4471191"><ele>1095.0</ele><time>2026-03-22T10:41:42.683Z</time></trkpt><trkpt lat="44.4604132" lon="9.44704"><ele>1096.0</ele><time>2026-03-22T10:41:43.682Z</time></trkpt><trkpt lat="44.4603361" lon="9.4469241"><ele>1089.2</ele><time>2026-03-22T10:41:45.682Z</time></trkpt><trkpt lat="44.4602554" lon="9.4468457"><ele>1082.3999999999999</ele><time>2026-03-22T10:41:47.682Z</time></trkpt><trkpt lat="44.4601812" lon="9.4467856"><ele>1075.6</ele><time>2026-03-22T10:41:49.682Z</time></trkpt><trkpt lat="44.4601097" lon="9.4467533"><ele>1068.8</ele><time>2026-03-22T10:41:51.682Z</time></trkpt><trkpt lat="44.4600199" lon="9.4467487"><ele>1062.0</ele><time>2026-03-22T10:41:54.682Z</time></trkpt><trkpt lat="44.459837" lon="9.4467787"><ele>1062.0</ele><time>2026-03-22T10:42:00.682Z</time></trkpt><trkpt lat="44.459762" lon="9.4467574"><ele>1062.0</ele><time>2026-03-22T10:42:02.683Z</time></trkpt><trkpt lat="44.4596985" lon="9.4467373"><ele>1062.0</ele><time>2026-03-22T10:42:04.682Z</time></trkpt><trkpt lat="44.459615" lon="9.4467198"><ele>1062.0</ele><time>2026-03-22T10:42:07.682Z</time></trkpt><trkpt lat="44.4595455" lon="9.4466789"><ele>1062.0</ele><time>2026-03-22T10:42:10.682Z</time></trkpt><trkpt lat="44.4594786" lon="9.4466461"><ele>1062.0</ele><time>2026-03-22T10:42:15.682Z</time></trkpt><trkpt lat="44.4594064" lon="9.4466548"><ele>1062.0</ele><time>2026-03-22T10:42:19.682Z</time></trkpt><trkpt lat="44.4593276" lon="9.4466633"><ele>1058.0</ele><time>2026-03-22T10:42:22.662Z</time></trkpt><trkpt lat="44.4592599" lon="9.4466907"><ele>1054.0</ele><time>2026-03-22T10:42:24.682Z</time></trkpt><trkpt lat="44.4592033" lon="9.4467413"><ele>1050.0</ele><time>2026-03-22T10:42:26.683Z</time></trkpt><trkpt lat="44.4591228" lon="9.4466927"><ele>1046.0</ele><time>2026-03-22T10:42:29.682Z</time></trkpt><trkpt lat="44.4591165" lon="9.4465824"><ele>1042.0</ele><time>2026-03-22T10:42:31.682Z</time></trkpt><trkpt lat="44.4591508" lon="9.446467"><ele>1038.0</ele><time>2026-03-22T10:42:33.682Z</time></trkpt><trkpt lat="44.4591871" lon="9.4463589"><ele>1038.0</ele><time>2026-03-22T10:42:35.682Z</time></trkpt><trkpt lat="44.4591983" lon="9.4462506"><ele>1038.0</ele><time>2026-03-22T10:42:37.683Z</time></trkpt><trkpt lat="44.4592099" lon="9.4461247"><ele>1038.0</ele><time>2026-03-22T10:42:40.682Z</time></trkpt><trkpt lat="44.4591806" lon="9.4460446"><ele>1038.0</ele><time>2026-03-22T10:42:43.682Z</time></trkpt><trkpt lat="44.4591163" lon="9.446047"><ele>1038.0</ele><time>2026-03-22T10:42:48.61Z</time></trkpt><trkpt lat="44.4590841" lon="9.4461235"><ele>1038.0</ele><time>2026-03-22T10:42:50.682Z</time></trkpt><trkpt lat="44.4590533" lon="9.4462274"><ele>1038.0</ele><time>2026-03-22T10:42:52.682Z</time></trkpt><trkpt lat="44.4589889" lon="9.4463141"><ele>1038.0</ele><time>2026-03-22T10:42:54.682Z</time></trkpt><trkpt lat="44.4589064" lon="9.4463393"><ele>1038.0</ele><time>2026-03-22T10:42:56.682Z</time></trkpt><trkpt lat="44.4588134" lon="9.4463435"><ele>1038.0</ele><time>2026-03-22T10:42:58.682Z</time></trkpt><trkpt lat="44.4587219" lon="9.4463401"><ele>1038.0</ele><time>2026-03-22T10:43:00.682Z</time></trkpt><trkpt lat="44.4586375" lon="9.4463527"><ele>1038.0</ele><time>2026-03-22T10:43:02.682Z</time></trkpt><trkpt lat="44.4585678" lon="9.4463668"><ele>1038.0</ele><time>2026-03-22T10:43:04.682Z</time></trkpt><trkpt lat="44.4585015" lon="9.4463712"><ele>1035.0</ele><time>2026-03-22T10:43:06.631Z</time></trkpt><trkpt lat="44.4584263" lon="9.4463169"><ele>1032.0</ele><time>2026-03-22T10:43:09.682Z</time></trkpt><trkpt lat="44.4583694" lon="9.4462754"><ele>1029.0</ele><time>2026-03-22T10:43:12.683Z</time></trkpt><trkpt lat="44.4582998" lon="9.446283"><ele>1026.0</ele><time>2026-03-22T10:43:15.682Z</time></trkpt><trkpt lat="44.458212" lon="9.4463226"><ele>1023.0</ele><time>2026-03-22T10:43:18.682Z</time></trkpt><trkpt lat="44.4581405" lon="9.4463584"><ele>1020.0</ele><time>2026-03-22T10:43:20.682Z</time></trkpt><trkpt lat="44.4580684" lon="9.4463967"><ele>1020.0</ele><time>2026-03-22T10:43:22.683Z</time></trkpt><trkpt lat="44.4580158" lon="9.4464655"><ele>1020.0000000000001</ele><time>2026-03-22T10:43:24.682Z</time></trkpt><trkpt lat="44.4579716" lon="9.4465357"><ele>1020.0</ele><time>2026-03-22T10:43:26.682Z</time></trkpt><trkpt lat="44.4578999" lon="9.4465423"><ele>1020.0</ele><time>2026-03-22T10:43:28.682Z</time></trkpt><trkpt lat="44.4578396" lon="9.4464577"><ele>1020.0000000000001</ele><time>2026-03-22T10:43:30.682Z</time></trkpt><trkpt lat="44.4578071" lon="9.4463619"><ele>1020.0</ele><time>2026-03-22T10:43:32.682Z</time></trkpt><trkpt lat="44.457795" lon="9.4462706"><ele>1020.0</ele><time>2026-03-22T10:43:34.683Z</time></trkpt><trkpt lat="44.4578215" lon="9.4461903"><ele>1017.4</ele><time>2026-03-22T10:43:36.682Z</time></trkpt><trkpt lat="44.4578804" lon="9.4461171"><ele>1014.8</ele><time>2026-03-22T10:43:38.682Z</time></trkpt><trkpt lat="44.4579527" lon="9.4460483"><ele>1012.2</ele><time>2026-03-22T10:43:40.682Z</time></trkpt><trkpt lat="44.4580488" lon="9.4459614"><ele>1009.6</ele><time>2026-03-22T10:43:42.682Z</time></trkpt><trkpt lat="44.4581093" lon="9.4459056"><ele>1007.0</ele><time>2026-03-22T10:43:43.682Z</time></trkpt><trkpt lat="44.4582118" lon="9.4458286"><ele>1007.0000000000001</ele><time>2026-03-22T10:43:45.682Z</time></trkpt><trkpt lat="44.4583052" lon="9.4458089"><ele>1007.0</ele><time>2026-03-22T10:43:47.682Z</time></trkpt><trkpt lat="44.45837" lon="9.4457713"><ele>1007.0</ele><time>2026-03-22T10:43:49.682Z</time></trkpt><trkpt lat="44.458391" lon="9.4456707"><ele>1007.0</ele><time>2026-03-22T10:43:51.682Z</time></trkpt><trkpt lat="44.4583967" lon="9.4455377"><ele>1007.0000000000001</ele><time>2026-03-22T10:43:53.682Z</time></trkpt><trkpt lat="44.4583711" lon="9.4454278"><ele>1007.0</ele><time>2026-03-22T10:43:56.682Z</time></trkpt><trkpt lat="44.4583026" lon="9.4453452"><ele>1004.0000000000001</ele><time>2026-03-22T10:43:57.682Z</time></trkpt><trkpt lat="44.4583518" lon="9.4451938"><ele>1001.0</ele><time>2026-03-22T10:44:00.682Z</time></trkpt><trkpt lat="44.4583664" lon="9.4450787"><ele>998.0</ele><time>2026-03-22T10:44:02.682Z</time></trkpt><trkpt lat="44.4584196" lon="9.4449912"><ele>995.0</ele><time>2026-03-22T10:44:05.682Z</time></trkpt><trkpt lat="44.4584571" lon="9.4448937"><ele>992.0000000000001</ele><time>2026-03-22T10:44:08.682Z</time></trkpt><trkpt lat="44.4584717" lon="9.4448066"><ele>989.0</ele><time>2026-03-22T10:44:10.682Z</time></trkpt><trkpt lat="44.4584552" lon="9.4446895"><ele>985.6666666666667</ele><time>2026-03-22T10:44:12.682Z</time></trkpt><trkpt lat="44.4584161" lon="9.444574"><ele>982.3333333333334</ele><time>2026-03-22T10:44:14.682Z</time></trkpt><trkpt lat="44.4584299" lon="9.4444563"><ele>979.0</ele><time>2026-03-22T10:44:16.6Z</time></trkpt><trkpt lat="44.4585024" lon="9.4443664"><ele>975.6666666666667</ele><time>2026-03-22T10:44:18.682Z</time></trkpt><trkpt lat="44.4585525" lon="9.4442884"><ele>972.3333333333334</ele><time>2026-03-22T10:44:20.683Z</time></trkpt><trkpt lat="44.4585689" lon="9.4441739"><ele>969.0</ele><time>2026-03-22T10:44:22.683Z</time></trkpt><trkpt lat="44.4585561" lon="9.4440351"><ele>969.0</ele><time>2026-03-22T10:44:24.682Z</time></trkpt><trkpt lat="44.4585575" lon="9.4439048"><ele>969.0</ele><time>2026-03-22T10:44:26.683Z</time></trkpt><trkpt lat="44.458595" lon="9.4438061"><ele>969.0</ele><time>2026-03-22T10:44:28.682Z</time></trkpt><trkpt lat="44.4586432" lon="9.443735"><ele>969.0</ele><time>2026-03-22T10:44:30.682Z</time></trkpt><trkpt lat="44.4586976" lon="9.4436721"><ele>969.0</ele><time>2026-03-22T10:44:32.682Z</time></trkpt><trkpt lat="44.4587484" lon="9.4435931"><ele>969.0</ele><time>2026-03-22T10:44:34.682Z</time></trkpt><trkpt lat="44.4587858" lon="9.4433972"><ele>965.4000000000001</ele><time>2026-03-22T10:44:38.682Z</time></trkpt><trkpt lat="44.4587585" lon="9.4432451"><ele>961.8000000000001</ele><time>2026-03-22T10:44:40.682Z</time></trkpt><trkpt lat="44.4587088" lon="9.4431133"><ele>958.1999999999999</ele><time>2026-03-22T10:44:42.682Z</time></trkpt><trkpt lat="44.4586668" lon="9.4429931"><ele>954.5999999999999</ele><time>2026-03-22T10:44:44.682Z</time></trkpt><trkpt lat="44.4586212" lon="9.4428572"><ele>951.0</ele><time>2026-03-22T10:44:46.682Z</time></trkpt><trkpt lat="44.4585876" lon="9.4427006"><ele>950.8571428571429</ele><time>2026-03-22T10:44:48.684Z</time></trkpt><trkpt lat="44.4585777" lon="9.4426071"><ele>950.7142857142858</ele><time>2026-03-22T10:44:49.682Z</time></trkpt><trkpt lat="44.4585671" lon="9.4424876"><ele>950.5714285714287</ele><time>2026-03-22T10:44:50.682Z</time></trkpt><trkpt lat="44.4585649" lon="9.4423834"><ele>950.4285714285714</ele><time>2026-03-22T10:44:51.683Z</time></trkpt><trkpt lat="44.4585686" lon="9.4422755"><ele>950.2857142857144</ele><time>2026-03-22T10:44:52.683Z</time></trkpt><trkpt lat="44.4585669" lon="9.4421761"><ele>950.1428571428572</ele><time>2026-03-22T10:44:53.682Z</time></trkpt><trkpt lat="44.4585717" lon="9.4420786"><ele>950.0</ele><time>2026-03-22T10:44:54.682Z</time></trkpt><trkpt lat="44.4585666" lon="9.4419406"><ele>949.1666666666667</ele><time>2026-03-22T10:44:56.682Z</time></trkpt><trkpt lat="44.4585725" lon="9.4418352"><ele>948.3333333333334</ele><time>2026-03-22T10:44:58.682Z</time></trkpt><trkpt lat="44.4585882" lon="9.4417378"><ele>947.5</ele><time>2026-03-22T10:45:00.682Z</time></trkpt><trkpt lat="44.4585741" lon="9.4416381"><ele>946.6666666666667</ele><time>2026-03-22T10:45:03.682Z</time></trkpt><trkpt lat="44.458485" lon="9.4416587"><ele>945.8333333333334</ele><time>2026-03-22T10:45:06.685Z</time></trkpt><trkpt lat="44.4583887" lon="9.441749"><ele>945.0</ele><time>2026-03-22T10:45:08.682Z</time></trkpt><trkpt lat="44.4583214" lon="9.4418939"><ele>945.0</ele><time>2026-03-22T10:45:10.682Z</time></trkpt><trkpt lat="44.458267" lon="9.4420355"><ele>945.0</ele><time>2026-03-22T10:45:12.682Z</time></trkpt><trkpt lat="44.4582141" lon="9.4421582"><ele>945.0</ele><time>2026-03-22T10:45:14.682Z</time></trkpt><trkpt lat="44.4581779" lon="9.442238"><ele>945.0</ele><time>2026-03-22T10:45:16.682Z</time></trkpt><trkpt lat="44.4581166" lon="9.4423179"><ele>945.0</ele><time>2026-03-22T10:45:18.682Z</time></trkpt><trkpt lat="44.4580627" lon="9.442428"><ele>946.0</ele><time>2026-03-22T10:45:20.682Z</time></trkpt><trkpt lat="44.4580312" lon="9.4425236"><ele>947.0</ele><time>2026-03-22T10:45:21.683Z</time></trkpt><trkpt lat="44.4579935" lon="9.4426872"><ele>948.0</ele><time>2026-03-22T10:45:23.682Z</time></trkpt><trkpt lat="44.45795" lon="9.4428308"><ele>949.0</ele><time>2026-03-22T10:45:25.682Z</time></trkpt><trkpt lat="44.4579053" lon="9.4429572"><ele>950.0</ele><time>2026-03-22T10:45:27.682Z</time></trkpt><trkpt lat="44.4578719" lon="9.4430822"><ele>946.5000000000001</ele><time>2026-03-22T10:45:29.682Z</time></trkpt><trkpt lat="44.457889" lon="9.443198"><ele>943.0</ele><time>2026-03-22T10:45:31.682Z</time></trkpt><trkpt lat="44.457922" lon="9.4432908"><ele>939.5</ele><time>2026-03-22T10:45:33.682Z</time></trkpt><trkpt lat="44.4579414" lon="9.4433981"><ele>936.0</ele><time>2026-03-22T10:45:35.682Z</time></trkpt><trkpt lat="44.457934" lon="9.4435169"><ele>932.5000000000001</ele><time>2026-03-22T10:45:37.682Z</time></trkpt><trkpt lat="44.4578837" lon="9.4435806"><ele>929.0</ele><time>2026-03-22T10:45:39.682Z</time></trkpt><trkpt lat="44.4578106" lon="9.4435926"><ele>929.0</ele><time>2026-03-22T10:45:41.683Z</time></trkpt><trkpt lat="44.4577538" lon="9.4435021"><ele>929.0000000000001</ele><time>2026-03-22T10:45:43.683Z</time></trkpt><trkpt lat="44.4577264" lon="9.4434014"><ele>929.0000000000001</ele><time>2026-03-22T10:45:45.682Z</time></trkpt><trkpt lat="44.4576755" lon="9.4433064"><ele>929.0</ele><time>2026-03-22T10:45:47.682Z</time></trkpt><trkpt lat="44.4576107" lon="9.4431647"><ele>929.0</ele><time>2026-03-22T10:45:49.682Z</time></trkpt><trkpt lat="44.4575584" lon="9.4430333"><ele>927.1666666666667</ele><time>2026-03-22T10:45:51.682Z</time></trkpt><trkpt lat="44.4575" lon="9.4429209"><ele>925.3333333333334</ele><time>2026-03-22T10:45:53.683Z</time></trkpt><trkpt lat="44.4574485" lon="9.4427976"><ele>923.5</ele><time>2026-03-22T10:45:55.682Z</time></trkpt><trkpt lat="44.4574235" lon="9.4426683"><ele>921.6666666666667</ele><time>2026-03-22T10:45:57.682Z</time></trkpt><trkpt lat="44.4573873" lon="9.4425623"><ele>919.8333333333334</ele><time>2026-03-22T10:45:59.682Z</time></trkpt><trkpt lat="44.4573651" lon="9.4424712"><ele>918.0</ele><time>2026-03-22T10:46:01.682Z</time></trkpt><trkpt lat="44.457299" lon="9.4424131"><ele>918.0</ele><time>2026-03-22T10:46:04.682Z</time></trkpt><trkpt lat="44.4571941" lon="9.4424301"><ele>918.0</ele><time>2026-03-22T10:46:07.682Z</time></trkpt><trkpt lat="44.4571299" lon="9.4423935"><ele>918.0</ele><time>2026-03-22T10:46:10.623Z</time></trkpt><trkpt lat="44.457076" lon="9.4422705"><ele>918.0</ele><time>2026-03-22T10:46:12.682Z</time></trkpt><trkpt lat="44.4570191" lon="9.4422238"><ele>918.0</ele><time>2026-03-22T10:46:13.682Z</time></trkpt><trkpt lat="44.4569109" lon="9.4422049"><ele>913.2</ele><time>2026-03-22T10:46:15.682Z</time></trkpt><trkpt lat="44.4568249" lon="9.4422119"><ele>908.4</ele><time>2026-03-22T10:46:17.682Z</time></trkpt><trkpt lat="44.4567511" lon="9.4422451"><ele>903.6000000000001</ele><time>2026-03-22T10:46:20.682Z</time></trkpt><trkpt lat="44.4566697" lon="9.4422082"><ele>898.8000000000001</ele><time>2026-03-22T10:46:23.682Z</time></trkpt><trkpt lat="44.4567602" lon="9.4420519"><ele>894.0</ele><time>2026-03-22T10:46:30.637Z</time></trkpt><trkpt lat="44.4568257" lon="9.4420044"><ele>890.1666666666666</ele><time>2026-03-22T10:46:33.651Z</time></trkpt><trkpt lat="44.4568831" lon="9.4419351"><ele>886.3333333333333</ele><time>2026-03-22T10:46:37.682Z</time></trkpt><trkpt lat="44.4568292" lon="9.4418849"><ele>882.5</ele><time>2026-03-22T10:46:40.682Z</time></trkpt><trkpt lat="44.4567596" lon="9.441886"><ele>878.6666666666666</ele><time>2026-03-22T10:46:42.688Z</time></trkpt><trkpt lat="44.4566544" lon="9.4419107"><ele>874.8333333333333</ele><time>2026-03-22T10:46:44.682Z</time></trkpt><trkpt lat="44.4565721" lon="9.4419524"><ele>871.0</ele><time>2026-03-22T10:46:46.613Z</time></trkpt><trkpt lat="44.4564691" lon="9.4419402"><ele>871.0</ele><time>2026-03-22T10:46:48.683Z</time></trkpt><trkpt lat="44.4564007" lon="9.4419766"><ele>871.0</ele><time>2026-03-22T10:46:50.682Z</time></trkpt><trkpt lat="44.4563601" lon="9.4420697"><ele>871.0</ele><time>2026-03-22T10:46:52.595Z</time></trkpt><trkpt lat="44.4563149" lon="9.4421681"><ele>871.0</ele><time>2026-03-22T10:46:53.682Z</time></trkpt><trkpt lat="44.4562911" lon="9.4422556"><ele>871.0</ele><time>2026-03-22T10:46:54.682Z</time></trkpt><trkpt lat="44.456252" lon="9.4423352"><ele>871.0</ele><time>2026-03-22T10:46:55.682Z</time></trkpt><trkpt lat="44.4562138" lon="9.4424208"><ele>871.0</ele><time>2026-03-22T10:46:56.682Z</time></trkpt><trkpt lat="44.4561732" lon="9.4425044"><ele>870.8571428571429</ele><time>2026-03-22T10:46:57.682Z</time></trkpt><trkpt lat="44.4561236" lon="9.4425876"><ele>870.7142857142857</ele><time>2026-03-22T10:46:58.682Z</time></trkpt><trkpt lat="44.4560686" lon="9.4426595"><ele>870.5714285714287</ele><time>2026-03-22T10:46:59.682Z</time></trkpt><trkpt lat="44.4560142" lon="9.4427352"><ele>870.4285714285714</ele><time>2026-03-22T10:47:00.683Z</time></trkpt><trkpt lat="44.4559557" lon="9.4428006"><ele>870.2857142857143</ele><time>2026-03-22T10:47:01.682Z</time></trkpt><trkpt lat="44.4559034" lon="9.4428653"><ele>870.1428571428572</ele><time>2026-03-22T10:47:02.682Z</time></trkpt><trkpt lat="44.4558526" lon="9.4429246"><ele>870.0</ele><time>2026-03-22T10:47:03.683Z</time></trkpt><trkpt lat="44.4558015" lon="9.4429882"><ele>870.0</ele><time>2026-03-22T10:47:04.682Z</time></trkpt><trkpt lat="44.4557404" lon="9.4430976"><ele>870.0</ele><time>2026-03-22T10:47:07.682Z</time></trkpt><trkpt lat="44.4557279" lon="9.4431854"><ele>870.0</ele><time>2026-03-22T10:47:10.682Z</time></trkpt><trkpt lat="44.4557241" lon="9.4432773"><ele>870.0</ele><time>2026-03-22T10:47:12.682Z</time></trkpt><trkpt lat="44.4556995" lon="9.4433936"><ele>870.0</ele><time>2026-03-22T10:47:13.682Z</time></trkpt><trkpt lat="44.4556543" lon="9.4435182"><ele>870.0</ele><time>2026-03-22T10:47:14.682Z</time></trkpt><trkpt lat="44.4556056" lon="9.443635"><ele>870.0</ele><time>2026-03-22T10:47:15.683Z</time></trkpt><trkpt lat="44.4555574" lon="9.4437485"><ele>870.0</ele><time>2026-03-22T10:47:16.682Z</time></trkpt><trkpt lat="44.4555076" lon="9.443881"><ele>870.0</ele><time>2026-03-22T10:47:18.683Z</time></trkpt><trkpt lat="44.4555063" lon="9.4439722"><ele>870.0</ele><time>2026-03-22T10:47:19.682Z</time></trkpt><trkpt lat="44.4555266" lon="9.4440631"><ele>870.0</ele><time>2026-03-22T10:47:21.682Z</time></trkpt><trkpt lat="44.4555719" lon="9.4441963"><ele>870.0</ele><time>2026-03-22T10:47:22.682Z</time></trkpt><trkpt lat="44.4556148" lon="9.4443162"><ele>871.8</ele><time>2026-03-22T10:47:23.682Z</time></trkpt><trkpt lat="44.4556488" lon="9.4444482"><ele>873.6</ele><time>2026-03-22T10:47:24.682Z</time></trkpt><trkpt lat="44.4556805" lon="9.4445968"><ele>875.4000000000001</ele><time>2026-03-22T10:47:25.682Z</time></trkpt><trkpt lat="44.4556935" lon="9.4447384"><ele>877.2</ele><time>2026-03-22T10:47:26.682Z</time></trkpt><trkpt lat="44.4557136" lon="9.4448759"><ele>879.0</ele><time>2026-03-22T10:47:27.682Z</time></trkpt><trkpt lat="44.4557289" lon="9.4449741"><ele>878.8333333333334</ele><time>2026-03-22T10:47:28.682Z</time></trkpt><trkpt lat="44.4557368" lon="9.4450648"><ele>878.6666666666667</ele><time>2026-03-22T10:47:29.682Z</time></trkpt><trkpt lat="44.455767" lon="9.4452176"><ele>878.5</ele><time>2026-03-22T10:47:31.682Z</time></trkpt><trkpt lat="44.4557681" lon="9.4453202"><ele>878.3333333333334</ele><time>2026-03-22T10:47:33.682Z</time></trkpt><trkpt lat="44.4557293" lon="9.4454375"><ele>878.1666666666667</ele><time>2026-03-22T10:47:36.682Z</time></trkpt><trkpt lat="44.4557139" lon="9.44553"><ele>878.0</ele><time>2026-03-22T10:47:41.682Z</time></trkpt><trkpt lat="44.4556743" lon="9.445602"><ele>878.0</ele><time>2026-03-22T10:48:07.682Z</time></trkpt><trkpt lat="44.4556306" lon="9.4454998"><ele>878.0</ele><time>2026-03-22T10:48:10.682Z</time></trkpt><trkpt lat="44.4555963" lon="9.4452931"><ele>878.0</ele><time>2026-03-22T10:48:14.682Z</time></trkpt><trkpt lat="44.4555772" lon="9.4451993"><ele>878.0</ele><time>2026-03-22T10:48:15.682Z</time></trkpt><trkpt lat="44.455557" lon="9.4450151"><ele>878.0</ele><time>2026-03-22T10:48:17.682Z</time></trkpt><trkpt lat="44.4555229" lon="9.4448711"><ele>878.8</ele><time>2026-03-22T10:48:19.682Z</time></trkpt><trkpt lat="44.4554929" lon="9.4447243"><ele>879.5999999999999</ele><time>2026-03-22T10:48:21.682Z</time></trkpt><trkpt lat="44.455451" lon="9.4445869"><ele>880.4000000000001</ele><time>2026-03-22T10:48:23.682Z</time></trkpt><trkpt lat="44.4553985" lon="9.4444742"><ele>881.2</ele><time>2026-03-22T10:48:25.682Z</time></trkpt><trkpt lat="44.4553526" lon="9.4443444"><ele>882.0</ele><time>2026-03-22T10:48:27.682Z</time></trkpt><trkpt lat="44.4553288" lon="9.4442228"><ele>873.1666666666666</ele><time>2026-03-22T10:48:29.683Z</time></trkpt><trkpt lat="44.4552927" lon="9.4441062"><ele>864.3333333333333</ele><time>2026-03-22T10:48:32.682Z</time></trkpt><trkpt lat="44.4552786" lon="9.4439644"><ele>855.5</ele><time>2026-03-22T10:48:34.682Z</time></trkpt><trkpt lat="44.4552826" lon="9.4438624"><ele>846.6666666666666</ele><time>2026-03-22T10:48:36.683Z</time></trkpt><trkpt lat="44.4553058" lon="9.443755"><ele>837.8333333333333</ele><time>2026-03-22T10:48:38.683Z</time></trkpt><trkpt lat="44.4553244" lon="9.4436325"><ele>829.0</ele><time>2026-03-22T10:48:40.682Z</time></trkpt><trkpt lat="44.455342" lon="9.4435122"><ele>828.3333333333333</ele><time>2026-03-22T10:48:42.683Z</time></trkpt><trkpt lat="44.4553479" lon="9.4433781"><ele>827.6666666666666</ele><time>2026-03-22T10:48:44.682Z</time></trkpt><trkpt lat="44.4553408" lon="9.4432375"><ele>827.0</ele><time>2026-03-22T10:48:46.682Z</time></trkpt><trkpt lat="44.4553219" lon="9.4431024"><ele>826.3333333333333</ele><time>2026-03-22T10:48:48.682Z</time></trkpt><trkpt lat="44.4553073" lon="9.4429907"><ele>825.6666666666666</ele><time>2026-03-22T10:48:50.682Z</time></trkpt><trkpt lat="44.4553081" lon="9.4428941"><ele>825.0</ele><time>2026-03-22T10:48:52.682Z</time></trkpt><trkpt lat="44.4553131" lon="9.442753"><ele>823.6</ele><time>2026-03-22T10:48:54.682Z</time></trkpt><trkpt lat="44.4553417" lon="9.4426096"><ele>822.2</ele><time>2026-03-22T10:48:56.683Z</time></trkpt><trkpt lat="44.4553896" lon="9.4424957"><ele>820.8</ele><time>2026-03-22T10:48:58.682Z</time></trkpt><trkpt lat="44.4554205" lon="9.4424111"><ele>819.4</ele><time>2026-03-22T10:49:00.682Z</time></trkpt><trkpt lat="44.455438" lon="9.4423027"><ele>818.0</ele><time>2026-03-22T10:49:02.682Z</time></trkpt><trkpt lat="44.4554784" lon="9.4421401"><ele>822.8</ele><time>2026-03-22T10:49:04.682Z</time></trkpt><trkpt lat="44.4555068" lon="9.4420536"><ele>827.5999999999999</ele><time>2026-03-22T10:49:05.683Z</time></trkpt><trkpt lat="44.4555615" lon="9.4419155"><ele>832.4000000000001</ele><time>2026-03-22T10:49:07.682Z</time></trkpt><trkpt lat="44.4556094" lon="9.4417813"><ele>837.2</ele><time>2026-03-22T10:49:09.682Z</time></trkpt><trkpt lat="44.4556406" lon="9.441631"><ele>842.0</ele><time>2026-03-22T10:49:11.682Z</time></trkpt><trkpt lat="44.4556749" lon="9.4414755"><ele>842.0</ele><time>2026-03-22T10:49:13.682Z</time></trkpt><trkpt lat="44.4556955" lon="9.4413858"><ele>842.0</ele><time>2026-03-22T10:49:14.682Z</time></trkpt><trkpt lat="44.455746" lon="9.441244"><ele>842.0</ele><time>2026-03-22T10:49:16.682Z</time></trkpt><trkpt lat="44.4558045" lon="9.4410942"><ele>842.0</ele><time>2026-03-22T10:49:18.682Z</time></trkpt><trkpt lat="44.4558359" lon="9.4409752"><ele>842.0</ele><time>2026-03-22T10:49:19.682Z</time></trkpt><trkpt lat="44.4558815" lon="9.4408624"><ele>839.1666666666667</ele><time>2026-03-22T10:49:20.682Z</time></trkpt><trkpt lat="44.4559208" lon="9.4407727"><ele>836.3333333333334</ele><time>2026-03-22T10:49:21.683Z</time></trkpt><trkpt lat="44.4559483" lon="9.4406927"><ele>833.5</ele><time>2026-03-22T10:49:22.682Z</time></trkpt><trkpt lat="44.4559853" lon="9.4405618"><ele>830.6666666666667</ele><time>2026-03-22T10:49:24.682Z</time></trkpt><trkpt lat="44.4560357" lon="9.4404764"><ele>827.8333333333334</ele><time>2026-03-22T10:49:26.682Z</time></trkpt><trkpt lat="44.4560952" lon="9.4404142"><ele>825.0</ele><time>2026-03-22T10:49:28.682Z</time></trkpt><trkpt lat="44.456167" lon="9.4403361"><ele>822.6666666666666</ele><time>2026-03-22T10:49:31.682Z</time></trkpt><trkpt lat="44.4562053" lon="9.4402522"><ele>820.3333333333333</ele><time>2026-03-22T10:49:33.683Z</time></trkpt><trkpt lat="44.4561884" lon="9.4401333"><ele>818.0</ele><time>2026-03-22T10:49:35.682Z</time></trkpt><trkpt lat="44.4561641" lon="9.4400418"><ele>815.6666666666666</ele><time>2026-03-22T10:49:36.682Z</time></trkpt><trkpt lat="44.4561552" lon="9.4399504"><ele>813.3333333333333</ele><time>2026-03-22T10:49:37.682Z</time></trkpt><trkpt lat="44.4561439" lon="9.4397916"><ele>811.0</ele><time>2026-03-22T10:49:39.682Z</time></trkpt><trkpt lat="44.4561083" lon="9.4396577"><ele>809.0</ele><time>2026-03-22T10:49:41.682Z</time></trkpt><trkpt lat="44.4560417" lon="9.4395644"><ele>807.0</ele><time>2026-03-22T10:49:43.682Z</time></trkpt><trkpt lat="44.4559647" lon="9.4395076"><ele>805.0</ele><time>2026-03-22T10:49:45.682Z</time></trkpt><trkpt lat="44.4558866" lon="9.4394008"><ele>803.0</ele><time>2026-03-22T10:49:47.682Z</time></trkpt><trkpt lat="44.4558517" lon="9.4392571"><ele>801.0</ele><time>2026-03-22T10:49:49.682Z</time></trkpt><trkpt lat="44.4558438" lon="9.4390937"><ele>801.0</ele><time>2026-03-22T10:49:51.682Z</time></trkpt><trkpt lat="44.4558624" lon="9.4389508"><ele>801.0</ele><time>2026-03-22T10:49:53.682Z</time></trkpt><trkpt lat="44.4558892" lon="9.4388413"><ele>801.0</ele><time>2026-03-22T10:49:55.682Z</time></trkpt><trkpt lat="44.4559472" lon="9.4387165"><ele>801.0</ele><time>2026-03-22T10:49:58.683Z</time></trkpt><trkpt lat="44.4560107" lon="9.4386386"><ele>801.0</ele><time>2026-03-22T10:50:00.682Z</time></trkpt><trkpt lat="44.4560813" lon="9.4385613"><ele>798.5</ele><time>2026-03-22T10:50:02.682Z</time></trkpt><trkpt lat="44.4561692" lon="9.438491"><ele>796.0</ele><time>2026-03-22T10:50:04.682Z</time></trkpt><trkpt lat="44.45625" lon="9.4384404"><ele>793.5</ele><time>2026-03-22T10:50:06.682Z</time></trkpt><trkpt lat="44.4563191" lon="9.4383696"><ele>791.0</ele><time>2026-03-22T10:50:08.682Z</time></trkpt><trkpt lat="44.4563573" lon="9.4382807"><ele>788.5</ele><time>2026-03-22T10:50:10.682Z</time></trkpt><trkpt lat="44.4563558" lon="9.4381621"><ele>786.0</ele><time>2026-03-22T10:50:12.682Z</time></trkpt><trkpt lat="44.456341" lon="9.4380485"><ele>785.1999999999999</ele><time>2026-03-22T10:50:14.682Z</time></trkpt><trkpt lat="44.4563138" lon="9.4379137"><ele>784.4</ele><time>2026-03-22T10:50:16.682Z</time></trkpt><trkpt lat="44.4562948" lon="9.4377962"><ele>783.6</ele><time>2026-03-22T10:50:18.682Z</time></trkpt><trkpt lat="44.4562623" lon="9.4376721"><ele>782.8</ele><time>2026-03-22T10:50:20.682Z</time></trkpt><trkpt lat="44.4562204" lon="9.437539"><ele>782.0</ele><time>2026-03-22T10:50:22.682Z</time></trkpt><trkpt lat="44.4561854" lon="9.4374234"><ele>782.0</ele><time>2026-03-22T10:50:24.682Z</time></trkpt><trkpt lat="44.4561695" lon="9.4373204"><ele>782.0</ele><time>2026-03-22T10:50:26.682Z</time></trkpt><trkpt lat="44.4561475" lon="9.437174"><ele>782.0</ele><time>2026-03-22T10:50:29.683Z</time></trkpt><trkpt lat="44.4561417" lon="9.4370564"><ele>782.0</ele><time>2026-03-22T10:50:31.682Z</time></trkpt><trkpt lat="44.4561346" lon="9.4369286"><ele>782.0</ele><time>2026-03-22T10:50:33.682Z</time></trkpt><trkpt lat="44.4561118" lon="9.4367955"><ele>782.0</ele><time>2026-03-22T10:50:35.683Z</time></trkpt><trkpt lat="44.4560853" lon="9.4366623"><ele>782.0</ele><time>2026-03-22T10:50:37.683Z</time></trkpt><trkpt lat="44.4560843" lon="9.4365484"><ele>782.0</ele><time>2026-03-22T10:50:39.682Z</time></trkpt><trkpt lat="44.4560851" lon="9.43643"><ele>782.0</ele><time>2026-03-22T10:50:41.682Z</time></trkpt><trkpt lat="44.4560801" lon="9.4363007"><ele>782.0</ele><time>2026-03-22T10:50:43.682Z</time></trkpt><trkpt lat="44.4561486" lon="9.4362124"><ele>782.4000000000001</ele><time>2026-03-22T10:50:48.683Z</time></trkpt><trkpt lat="44.4560102" lon="9.4359623"><ele>782.8000000000001</ele><time>2026-03-22T10:50:49.682Z</time></trkpt><trkpt lat="44.4559642" lon="9.4358663"><ele>783.2</ele><time>2026-03-22T10:50:50.683Z</time></trkpt><trkpt lat="44.4559233" lon="9.4357868"><ele>783.6</ele><time>2026-03-22T10:50:51.682Z</time></trkpt><trkpt lat="44.4558804" lon="9.4357111"><ele>784.0</ele><time>2026-03-22T10:50:52.683Z</time></trkpt><trkpt lat="44.4558012" lon="9.4356222"><ele>784.0</ele><time>2026-03-22T10:50:54.682Z</time></trkpt><trkpt lat="44.4557265" lon="9.4355216"><ele>784.0</ele><time>2026-03-22T10:50:56.682Z</time></trkpt><trkpt lat="44.4556556" lon="9.4354019"><ele>784.0</ele><time>2026-03-22T10:50:58.682Z</time></trkpt><trkpt lat="44.455622" lon="9.4352775"><ele>784.0</ele><time>2026-03-22T10:51:00.682Z</time></trkpt><trkpt lat="44.4555902" lon="9.4351303"><ele>784.0</ele><time>2026-03-22T10:51:02.682Z</time></trkpt><trkpt lat="44.4555372" lon="9.434995"><ele>784.2</ele><time>2026-03-22T10:51:04.682Z</time></trkpt><trkpt lat="44.4554781" lon="9.434874"><ele>784.4000000000001</ele><time>2026-03-22T10:51:06.683Z</time></trkpt><trkpt lat="44.4554515" lon="9.4347344"><ele>784.6</ele><time>2026-03-22T10:51:08.682Z</time></trkpt><trkpt lat="44.4554485" lon="9.4345841"><ele>784.8</ele><time>2026-03-22T10:51:10.682Z</time></trkpt><trkpt lat="44.4554501" lon="9.4344398"><ele>785.0</ele><time>2026-03-22T10:51:12.682Z</time></trkpt><trkpt lat="44.4554493" lon="9.4343002"><ele>777.8</ele><time>2026-03-22T10:51:14.682Z</time></trkpt><trkpt lat="44.4554434" lon="9.4341805"><ele>770.6</ele><time>2026-03-22T10:51:16.683Z</time></trkpt><trkpt lat="44.4554068" lon="9.4340936"><ele>763.4000000000001</ele><time>2026-03-22T10:51:18.682Z</time></trkpt><trkpt lat="44.455298" lon="9.4340876"><ele>756.2</ele><time>2026-03-22T10:51:20.682Z</time></trkpt><trkpt lat="44.4551956" lon="9.4341236"><ele>749.0</ele><time>2026-03-22T10:51:22.682Z</time></trkpt><trkpt lat="44.4551054" lon="9.4341545"><ele>749.0</ele><time>2026-03-22T10:51:24.682Z</time></trkpt><trkpt lat="44.4550363" lon="9.4341167"><ele>749.0</ele><time>2026-03-22T10:51:27.682Z</time></trkpt><trkpt lat="44.4549602" lon="9.4340703"><ele>749.0</ele><time>2026-03-22T10:51:29.682Z</time></trkpt><trkpt lat="44.454893" lon="9.4339935"><ele>749.0</ele><time>2026-03-22T10:51:31.654Z</time></trkpt><trkpt lat="44.4548551" lon="9.4338855"><ele>749.0</ele><time>2026-03-22T10:51:33.682Z</time></trkpt><trkpt lat="44.4548598" lon="9.4337671"><ele>749.0</ele><time>2026-03-22T10:51:36.683Z</time></trkpt><trkpt lat="44.454857" lon="9.4336422"><ele>748.1666666666666</ele><time>2026-03-22T10:51:39.682Z</time></trkpt><trkpt lat="44.454851" lon="9.4335347"><ele>747.3333333333333</ele><time>2026-03-22T10:51:41.682Z</time></trkpt><trkpt lat="44.4548607" lon="9.4333902"><ele>746.5</ele><time>2026-03-22T10:51:43.682Z</time></trkpt><trkpt lat="44.4548525" lon="9.4332569"><ele>745.6666666666666</ele><time>2026-03-22T10:51:45.683Z</time></trkpt><trkpt lat="44.4548349" lon="9.433141"><ele>744.8333333333334</ele><time>2026-03-22T10:51:47.682Z</time></trkpt><trkpt lat="44.4548349" lon="9.433031"><ele>744.0</ele><time>2026-03-22T10:51:49.682Z</time></trkpt><trkpt lat="44.4548211" lon="9.4329172"><ele>745.0</ele><time>2026-03-22T10:51:51.682Z</time></trkpt><trkpt lat="44.4547718" lon="9.4328245"><ele>746.0</ele><time>2026-03-22T10:51:53.682Z</time></trkpt><trkpt lat="44.4547366" lon="9.4327479"><ele>747.0</ele><time>2026-03-22T10:51:54.682Z</time></trkpt><trkpt lat="44.4546947" lon="9.4326637"><ele>748.0</ele><time>2026-03-22T10:51:55.682Z</time></trkpt><trkpt lat="44.4546586" lon="9.4325844"><ele>749.0</ele><time>2026-03-22T10:51:56.682Z</time></trkpt><trkpt lat="44.454576" lon="9.4324669"><ele>750.0</ele><time>2026-03-22T10:51:58.682Z</time></trkpt><trkpt lat="44.4544885" lon="9.4323849"><ele>750.0</ele><time>2026-03-22T10:52:00.682Z</time></trkpt><trkpt lat="44.4543975" lon="9.432312"><ele>750.0</ele><time>2026-03-22T10:52:02.682Z</time></trkpt><trkpt lat="44.4543117" lon="9.4322335"><ele>750.0</ele><time>2026-03-22T10:52:04.682Z</time></trkpt><trkpt lat="44.4542197" lon="9.4321754"><ele>750.0</ele><time>2026-03-22T10:52:06.682Z</time></trkpt><trkpt lat="44.4541429" lon="9.4320961"><ele>750.0</ele><time>2026-03-22T10:52:08.682Z</time></trkpt><trkpt lat="44.4540846" lon="9.4319657"><ele>747.0</ele><time>2026-03-22T10:52:10.684Z</time></trkpt><trkpt lat="44.4540319" lon="9.4318291"><ele>744.0</ele><time>2026-03-22T10:52:12.682Z</time></trkpt><trkpt lat="44.4539632" lon="9.4317189"><ele>741.0</ele><time>2026-03-22T10:52:14.682Z</time></trkpt><trkpt lat="44.4538857" lon="9.4316284"><ele>738.0</ele><time>2026-03-22T10:52:16.682Z</time></trkpt><trkpt lat="44.4538012" lon="9.4315615"><ele>735.0</ele><time>2026-03-22T10:52:18.682Z</time></trkpt><trkpt lat="44.4537453" lon="9.4314551"><ele>735.0</ele><time>2026-03-22T10:52:20.682Z</time></trkpt><trkpt lat="44.4536679" lon="9.4313718"><ele>735.0</ele><time>2026-03-22T10:52:22.682Z</time></trkpt><trkpt lat="44.4535625" lon="9.4313335"><ele>735.0</ele><time>2026-03-22T10:52:24.682Z</time></trkpt><trkpt lat="44.4534484" lon="9.4313293"><ele>735.0</ele><time>2026-03-22T10:52:26.683Z</time></trkpt><trkpt lat="44.4533478" lon="9.4313064"><ele>735.0</ele><time>2026-03-22T10:52:28.682Z</time></trkpt><trkpt lat="44.453254" lon="9.431281"><ele>734.6</ele><time>2026-03-22T10:52:30.682Z</time></trkpt><trkpt lat="44.4531617" lon="9.4312595"><ele>734.2</ele><time>2026-03-22T10:52:32.682Z</time></trkpt><trkpt lat="44.4530589" lon="9.4312459"><ele>733.8</ele><time>2026-03-22T10:52:34.682Z</time></trkpt><trkpt lat="44.4529587" lon="9.4312769"><ele>733.4</ele><time>2026-03-22T10:52:36.682Z</time></trkpt><trkpt lat="44.4528579" lon="9.4313277"><ele>733.0</ele><time>2026-03-22T10:52:38.682Z</time></trkpt><trkpt lat="44.4527529" lon="9.4313719"><ele>733.0</ele><time>2026-03-22T10:52:40.682Z</time></trkpt><trkpt lat="44.4526619" lon="9.431371"><ele>733.0</ele><time>2026-03-22T10:52:42.682Z</time></trkpt><trkpt lat="44.4525588" lon="9.431288"><ele>733.0</ele><time>2026-03-22T10:52:44.682Z</time></trkpt><trkpt lat="44.4524509" lon="9.4312424"><ele>733.0</ele><time>2026-03-22T10:52:46.682Z</time></trkpt><trkpt lat="44.4523477" lon="9.431237"><ele>733.0</ele><time>2026-03-22T10:52:48.682Z</time></trkpt><trkpt lat="44.4522644" lon="9.4312271"><ele>727.6666666666667</ele><time>2026-03-22T10:52:50.682Z</time></trkpt><trkpt lat="44.4521982" lon="9.4312286"><ele>722.3333333333334</ele><time>2026-03-22T10:52:52.682Z</time></trkpt><trkpt lat="44.4521204" lon="9.4312321"><ele>717.0</ele><time>2026-03-22T10:52:54.682Z</time></trkpt><trkpt lat="44.4520474" lon="9.4312123"><ele>711.6666666666666</ele><time>2026-03-22T10:52:56.682Z</time></trkpt><trkpt lat="44.4519544" lon="9.4312181"><ele>706.3333333333333</ele><time>2026-03-22T10:52:59.682Z</time></trkpt><trkpt lat="44.4518771" lon="9.4312284"><ele>701.0</ele><time>2026-03-22T10:53:01.684Z</time></trkpt><trkpt lat="44.4517757" lon="9.431209"><ele>699.8</ele><time>2026-03-22T10:53:03.682Z</time></trkpt><trkpt lat="44.4516884" lon="9.4311845"><ele>698.5999999999999</ele><time>2026-03-22T10:53:05.682Z</time></trkpt><trkpt lat="44.4515975" lon="9.4311432"><ele>697.4</ele><time>2026-03-22T10:53:07.683Z</time></trkpt><trkpt lat="44.4514923" lon="9.431111"><ele>696.2</ele><time>2026-03-22T10:53:09.682Z</time></trkpt><trkpt lat="44.4514002" lon="9.4311431"><ele>695.0</ele><time>2026-03-22T10:53:11.682Z</time></trkpt><trkpt lat="44.4513455" lon="9.4310726"><ele>695.0</ele><time>2026-03-22T10:53:13.682Z</time></trkpt><trkpt lat="44.4513447" lon="9.4309474"><ele>695.0</ele><time>2026-03-22T10:53:15.682Z</time></trkpt><trkpt lat="44.451471" lon="9.4309276"><ele>695.0</ele><time>2026-03-22T10:53:17.682Z</time></trkpt><trkpt lat="44.4515685" lon="9.4309301"><ele>695.0</ele><time>2026-03-22T10:53:18.682Z</time></trkpt><trkpt lat="44.4516512" lon="9.4309279"><ele>695.0</ele><time>2026-03-22T10:53:19.682Z</time></trkpt><trkpt lat="44.4517216" lon="9.4309133"><ele>695.0</ele><time>2026-03-22T10:53:20.682Z</time></trkpt><trkpt lat="44.4517823" lon="9.4308878"><ele>695.0</ele><time>2026-03-22T10:53:21.682Z</time></trkpt><trkpt lat="44.4518692" lon="9.4308548"><ele>695.0</ele><time>2026-03-22T10:53:23.682Z</time></trkpt><trkpt lat="44.4519534" lon="9.4308163"><ele>695.0</ele><time>2026-03-22T10:53:26.682Z</time></trkpt><trkpt lat="44.4520641" lon="9.4307384"><ele>695.0</ele><time>2026-03-22T10:53:29.682Z</time></trkpt><trkpt lat="44.4521438" lon="9.4306785"><ele>696.0</ele><time>2026-03-22T10:53:31.682Z</time></trkpt><trkpt lat="44.4522308" lon="9.4306268"><ele>697.0</ele><time>2026-03-22T10:53:33.682Z</time></trkpt><trkpt lat="44.4522982" lon="9.430612"><ele>698.0</ele><time>2026-03-22T10:53:36.682Z</time></trkpt><trkpt lat="44.452393" lon="9.4305819"><ele>699.0</ele><time>2026-03-22T10:53:38.682Z</time></trkpt><trkpt lat="44.4524744" lon="9.430563"><ele>700.0</ele><time>2026-03-22T10:53:40.682Z</time></trkpt><trkpt lat="44.452547" lon="9.4305315"><ele>701.0</ele><time>2026-03-22T10:53:42.682Z</time></trkpt><trkpt lat="44.4526388" lon="9.4304741"><ele>695.1666666666666</ele><time>2026-03-22T10:53:44.682Z</time></trkpt><trkpt lat="44.4527165" lon="9.4304261"><ele>689.3333333333333</ele><time>2026-03-22T10:53:46.682Z</time></trkpt><trkpt lat="44.452779" lon="9.4303888"><ele>683.5</ele><time>2026-03-22T10:53:47.682Z</time></trkpt><trkpt lat="44.4528702" lon="9.43035"><ele>677.6666666666666</ele><time>2026-03-22T10:53:49.682Z</time></trkpt><trkpt lat="44.452963" lon="9.4303265"><ele>671.8333333333334</ele><time>2026-03-22T10:53:51.683Z</time></trkpt><trkpt lat="44.4530119" lon="9.430252"><ele>666.0</ele><time>2026-03-22T10:53:55.682Z</time></trkpt><trkpt lat="44.4528945" lon="9.4302757"><ele>666.0</ele><time>2026-03-22T10:53:58.682Z</time></trkpt><trkpt lat="44.4527842" lon="9.4302696"><ele>666.0</ele><time>2026-03-22T10:54:01.682Z</time></trkpt><trkpt lat="44.4526984" lon="9.4302763"><ele>666.0</ele><time>2026-03-22T10:54:02.682Z</time></trkpt><trkpt lat="44.4526288" lon="9.4302792"><ele>666.0</ele><time>2026-03-22T10:54:03.682Z</time></trkpt><trkpt lat="44.4525288" lon="9.4302609"><ele>666.0</ele><time>2026-03-22T10:54:05.682Z</time></trkpt><trkpt lat="44.4524448" lon="9.4302392"><ele>666.0</ele><time>2026-03-22T10:54:07.682Z</time></trkpt><trkpt lat="44.4523968" lon="9.4301697"><ele>666.0</ele><time>2026-03-22T10:54:08.682Z</time></trkpt><trkpt lat="44.4523442" lon="9.4300897"><ele>666.0</ele><time>2026-03-22T10:54:09.682Z</time></trkpt><trkpt lat="44.4522776" lon="9.4299783"><ele>666.0</ele><time>2026-03-22T10:54:11.682Z</time></trkpt><trkpt lat="44.4520335" lon="9.4297815"><ele>667.0</ele><time>2026-03-22T10:54:14.683Z</time></trkpt><trkpt lat="44.4518062" lon="9.429775"><ele>668.0</ele><time>2026-03-22T10:54:19.681Z</time></trkpt><trkpt lat="44.4517451" lon="9.4297423"><ele>669.0</ele><time>2026-03-22T10:54:20.68Z</time></trkpt><trkpt lat="44.4516362" lon="9.4296773"><ele>670.0</ele><time>2026-03-22T10:54:22.682Z</time></trkpt><trkpt lat="44.4515624" lon="9.4296337"><ele>666.7142857142857</ele><time>2026-03-22T10:54:23.681Z</time></trkpt><trkpt lat="44.4515167" lon="9.4295714"><ele>663.4285714285714</ele><time>2026-03-22T10:54:24.681Z</time></trkpt><trkpt lat="44.4514494" lon="9.429489"><ele>660.1428571428571</ele><time>2026-03-22T10:54:26.681Z</time></trkpt><trkpt lat="44.4513911" lon="9.4294401"><ele>656.8571428571429</ele><time>2026-03-22T10:54:28.681Z</time></trkpt><trkpt lat="44.4514567" lon="9.4293659"><ele>653.5714285714286</ele><time>2026-03-22T10:54:30.681Z</time></trkpt><trkpt lat="44.4515209" lon="9.4293635"><ele>650.2857142857142</ele><time>2026-03-22T10:54:31.681Z</time></trkpt><trkpt lat="44.4515971" lon="9.4293826"><ele>647.0</ele><time>2026-03-22T10:54:32.681Z</time></trkpt><trkpt lat="44.4516686" lon="9.4294073"><ele>647.0</ele><time>2026-03-22T10:54:33.681Z</time></trkpt><trkpt lat="44.4517355" lon="9.4294221"><ele>647.0</ele><time>2026-03-22T10:54:34.681Z</time></trkpt><trkpt lat="44.4518033" lon="9.429435"><ele>647.0</ele><time>2026-03-22T10:54:35.681Z</time></trkpt><trkpt lat="44.4518673" lon="9.4294508"><ele>647.0</ele><time>2026-03-22T10:54:36.681Z</time></trkpt><trkpt lat="44.4519604" lon="9.429479"><ele>647.0</ele><time>2026-03-22T10:54:38.681Z</time></trkpt><trkpt lat="44.4520404" lon="9.4295036"><ele>647.0</ele><time>2026-03-22T10:54:40.681Z</time></trkpt><trkpt lat="44.4521132" lon="9.4295137"><ele>647.0</ele><time>2026-03-22T10:54:42.681Z</time></trkpt><trkpt lat="44.4521603" lon="9.4294466"><ele>647.0</ele><time>2026-03-22T10:54:44.682Z</time></trkpt><trkpt lat="44.452072" lon="9.4293818"><ele>647.0</ele><time>2026-03-22T10:54:47.681Z</time></trkpt><trkpt lat="44.4519852" lon="9.4292728"><ele>647.0</ele><time>2026-03-22T10:54:49.681Z</time></trkpt><trkpt lat="44.4518944" lon="9.429152"><ele>647.0</ele><time>2026-03-22T10:54:51.682Z</time></trkpt><trkpt lat="44.4518533" lon="9.4290837"><ele>647.0</ele><time>2026-03-22T10:54:52.681Z</time></trkpt><trkpt lat="44.4518198" lon="9.4290015"><ele>647.0</ele><time>2026-03-22T10:54:53.681Z</time></trkpt><trkpt lat="44.4518093" lon="9.4288955"><ele>647.0</ele><time>2026-03-22T10:54:54.681Z</time></trkpt><trkpt lat="44.4517737" lon="9.4287237"><ele>647.0</ele><time>2026-03-22T10:54:56.681Z</time></trkpt><trkpt lat="44.4517393" lon="9.42858"><ele>647.0</ele><time>2026-03-22T10:54:58.681Z</time></trkpt><trkpt lat="44.4516886" lon="9.4284452"><ele>643.8000000000001</ele><time>2026-03-22T10:55:00.681Z</time></trkpt><trkpt lat="44.4516435" lon="9.4283375"><ele>640.6</ele><time>2026-03-22T10:55:02.681Z</time></trkpt><trkpt lat="44.4515868" lon="9.428231"><ele>637.4000000000001</ele><time>2026-03-22T10:55:04.682Z</time></trkpt><trkpt lat="44.4514823" lon="9.4281511"><ele>634.2</ele><time>2026-03-22T10:55:06.681Z</time></trkpt><trkpt lat="44.4514246" lon="9.4281146"><ele>631.0</ele><time>2026-03-22T10:55:07.681Z</time></trkpt><trkpt lat="44.4513299" lon="9.4280708"><ele>629.0</ele><time>2026-03-22T10:55:09.681Z</time></trkpt><trkpt lat="44.4512456" lon="9.4280461"><ele>627.0</ele><time>2026-03-22T10:55:11.681Z</time></trkpt><trkpt lat="44.4511641" lon="9.4280023"><ele>625.0</ele><time>2026-03-22T10:55:13.681Z</time></trkpt><trkpt lat="44.4510706" lon="9.4279866"><ele>623.0</ele><time>2026-03-22T10:55:15.681Z</time></trkpt><trkpt lat="44.4510001" lon="9.4280655"><ele>621.0</ele><time>2026-03-22T10:55:17.681Z</time></trkpt><trkpt lat="44.4510003" lon="9.428189"><ele>619.0</ele><time>2026-03-22T10:55:19.681Z</time></trkpt><trkpt lat="44.451013" lon="9.4283064"><ele>619.0</ele><time>2026-03-22T10:55:21.681Z</time></trkpt><trkpt lat="44.4510152" lon="9.4284204"><ele>619.0</ele><time>2026-03-22T10:55:23.681Z</time></trkpt><trkpt lat="44.4509906" lon="9.4285304"><ele>619.0</ele><time>2026-03-22T10:55:25.681Z</time></trkpt><trkpt lat="44.45094" lon="9.4286228"><ele>619.0</ele><time>2026-03-22T10:55:27.682Z</time></trkpt><trkpt lat="44.4508797" lon="9.4287058"><ele>619.0</ele><time>2026-03-22T10:55:29.681Z</time></trkpt><trkpt lat="44.4508111" lon="9.4287631"><ele>619.0</ele><time>2026-03-22T10:55:31.681Z</time></trkpt><trkpt lat="44.4507288" lon="9.4288144"><ele>617.2</ele><time>2026-03-22T10:55:33.682Z</time></trkpt><trkpt lat="44.4506312" lon="9.4288706"><ele>615.4</ele><time>2026-03-22T10:55:35.681Z</time></trkpt><trkpt lat="44.4505328" lon="9.428894"><ele>613.6</ele><time>2026-03-22T10:55:37.681Z</time></trkpt><trkpt lat="44.4504358" lon="9.4289213"><ele>611.8</ele><time>2026-03-22T10:55:39.68Z</time></trkpt><trkpt lat="44.4503412" lon="9.4289305"><ele>610.0</ele><time>2026-03-22T10:55:41.681Z</time></trkpt><trkpt lat="44.4502441" lon="9.4289273"><ele>607.4</ele><time>2026-03-22T10:55:43.681Z</time></trkpt><trkpt lat="44.4502017" lon="9.4288059"><ele>604.8</ele><time>2026-03-22T10:55:45.681Z</time></trkpt><trkpt lat="44.4502115" lon="9.4286396"><ele>602.2</ele><time>2026-03-22T10:55:47.681Z</time></trkpt><trkpt lat="44.4502188" lon="9.428471"><ele>599.6</ele><time>2026-03-22T10:55:49.68Z</time></trkpt><trkpt lat="44.4502381" lon="9.4283404"><ele>597.0</ele><time>2026-03-22T10:55:51.681Z</time></trkpt><trkpt lat="44.450269" lon="9.4281967"><ele>597.0</ele><time>2026-03-22T10:55:53.681Z</time></trkpt><trkpt lat="44.4503007" lon="9.4280852"><ele>597.0</ele><time>2026-03-22T10:55:55.681Z</time></trkpt><trkpt lat="44.4503521" lon="9.4279511"><ele>597.0</ele><time>2026-03-22T10:55:57.681Z</time></trkpt><trkpt lat="44.4504172" lon="9.4278799"><ele>597.0</ele><time>2026-03-22T10:55:59.681Z</time></trkpt><trkpt lat="44.4504886" lon="9.4278107"><ele>597.0</ele><time>2026-03-22T10:56:01.682Z</time></trkpt><trkpt lat="44.4505124" lon="9.4277017"><ele>597.0</ele><time>2026-03-22T10:56:03.681Z</time></trkpt><trkpt lat="44.4504474" lon="9.427679"><ele>593.8000000000001</ele><time>2026-03-22T10:56:04.681Z</time></trkpt><trkpt lat="44.4503845" lon="9.4276383"><ele>590.6</ele><time>2026-03-22T10:56:06.681Z</time></trkpt><trkpt lat="44.4502651" lon="9.4276462"><ele>587.4000000000001</ele><time>2026-03-22T10:56:08.681Z</time></trkpt><trkpt lat="44.4501476" lon="9.427669"><ele>584.2</ele><time>2026-03-22T10:56:10.681Z</time></trkpt><trkpt lat="44.4500557" lon="9.4277105"><ele>581.0</ele><time>2026-03-22T10:56:12.681Z</time></trkpt><trkpt lat="44.4499723" lon="9.4277891"><ele>581.0</ele><time>2026-03-22T10:56:14.681Z</time></trkpt><trkpt lat="44.4499048" lon="9.4278629"><ele>581.0</ele><time>2026-03-22T10:56:16.681Z</time></trkpt><trkpt lat="44.4498329" lon="9.4279665"><ele>581.0</ele><time>2026-03-22T10:56:18.681Z</time></trkpt><trkpt lat="44.4497685" lon="9.4280927"><ele>581.0</ele><time>2026-03-22T10:56:21.681Z</time></trkpt><trkpt lat="44.4497134" lon="9.4282019"><ele>581.0</ele><time>2026-03-22T10:56:23.681Z</time></trkpt><trkpt lat="44.4496843" lon="9.4283147"><ele>583.6666666666666</ele><time>2026-03-22T10:56:25.681Z</time></trkpt><trkpt lat="44.449644" lon="9.4284208"><ele>586.3333333333333</ele><time>2026-03-22T10:56:27.681Z</time></trkpt><trkpt lat="44.4495701" lon="9.4283669"><ele>589.0</ele><time>2026-03-22T10:56:30.682Z</time></trkpt><trkpt lat="44.4495668" lon="9.4282678"><ele>591.6666666666666</ele><time>2026-03-22T10:56:31.681Z</time></trkpt><trkpt lat="44.4495779" lon="9.4281591"><ele>594.3333333333334</ele><time>2026-03-22T10:56:32.681Z</time></trkpt><trkpt lat="44.4495808" lon="9.4280378"><ele>597.0</ele><time>2026-03-22T10:56:33.682Z</time></trkpt><trkpt lat="44.4495818" lon="9.4279212"><ele>593.8000000000001</ele><time>2026-03-22T10:56:34.681Z</time></trkpt><trkpt lat="44.4495838" lon="9.4278313"><ele>590.6</ele><time>2026-03-22T10:56:35.681Z</time></trkpt><trkpt lat="44.4496189" lon="9.4276813"><ele>587.4000000000001</ele><time>2026-03-22T10:56:37.68Z</time></trkpt><trkpt lat="44.4496918" lon="9.4275651"><ele>584.2</ele><time>2026-03-22T10:56:39.681Z</time></trkpt><trkpt lat="44.4497534" lon="9.4274499"><ele>581.0</ele><time>2026-03-22T10:56:41.681Z</time></trkpt><trkpt lat="44.4498243" lon="9.4273138"><ele>581.0</ele><time>2026-03-22T10:56:43.681Z</time></trkpt><trkpt lat="44.4498571" lon="9.4272371"><ele>581.0</ele><time>2026-03-22T10:56:44.681Z</time></trkpt><trkpt lat="44.449884" lon="9.42715"><ele>581.0</ele><time>2026-03-22T10:56:45.681Z</time></trkpt><trkpt lat="44.4499108" lon="9.4270442"><ele>581.0</ele><time>2026-03-22T10:56:46.681Z</time></trkpt><trkpt lat="44.4499443" lon="9.4269469"><ele>581.0</ele><time>2026-03-22T10:56:47.681Z</time></trkpt><trkpt lat="44.4499782" lon="9.4268603"><ele>581.0</ele><time>2026-03-22T10:56:48.68Z</time></trkpt><trkpt lat="44.4500383" lon="9.4267966"><ele>581.0</ele><time>2026-03-22T10:56:49.681Z</time></trkpt><trkpt lat="44.4501039" lon="9.4267415"><ele>580.3333333333333</ele><time>2026-03-22T10:56:50.681Z</time></trkpt><trkpt lat="44.450176" lon="9.4266967"><ele>579.6666666666666</ele><time>2026-03-22T10:56:51.682Z</time></trkpt><trkpt lat="44.4502538" lon="9.426657"><ele>579.0</ele><time>2026-03-22T10:56:52.681Z</time></trkpt><trkpt lat="44.4503209" lon="9.4266103"><ele>578.3333333333334</ele><time>2026-03-22T10:56:53.681Z</time></trkpt><trkpt lat="44.4503781" lon="9.4265619"><ele>577.6666666666667</ele><time>2026-03-22T10:56:54.681Z</time></trkpt><trkpt lat="44.4504551" lon="9.4264668"><ele>577.0</ele><time>2026-03-22T10:56:56.682Z</time></trkpt><trkpt lat="44.450479" lon="9.4263684"><ele>572.8000000000001</ele><time>2026-03-22T10:56:59.681Z</time></trkpt><trkpt lat="44.4504847" lon="9.4262722"><ele>568.6</ele><time>2026-03-22T10:57:02.681Z</time></trkpt><trkpt lat="44.4505137" lon="9.426159"><ele>564.4000000000001</ele><time>2026-03-22T10:57:05.681Z</time></trkpt><trkpt lat="44.4505616" lon="9.4260395"><ele>560.2</ele><time>2026-03-22T10:57:07.681Z</time></trkpt><trkpt lat="44.4506377" lon="9.4259038"><ele>556.0</ele><time>2026-03-22T10:57:09.681Z</time></trkpt><trkpt lat="44.4507014" lon="9.4258293"><ele>556.0</ele><time>2026-03-22T10:57:10.681Z</time></trkpt><trkpt lat="44.4507629" lon="9.4257689"><ele>556.0</ele><time>2026-03-22T10:57:11.681Z</time></trkpt><trkpt lat="44.4508166" lon="9.4257187"><ele>556.0</ele><time>2026-03-22T10:57:12.681Z</time></trkpt><trkpt lat="44.4509266" lon="9.4257224"><ele>556.0</ele><time>2026-03-22T10:57:14.681Z</time></trkpt><trkpt lat="44.4509922" lon="9.4257595"><ele>556.0</ele><time>2026-03-22T10:57:15.681Z</time></trkpt><trkpt lat="44.4510753" lon="9.4257993"><ele>556.0</ele><time>2026-03-22T10:57:16.681Z</time></trkpt><trkpt lat="44.4511696" lon="9.4258405"><ele>556.0</ele><time>2026-03-22T10:57:17.681Z</time></trkpt><trkpt lat="44.4512588" lon="9.4258727"><ele>556.0</ele><time>2026-03-22T10:57:18.681Z</time></trkpt><trkpt lat="44.4513375" lon="9.4259035"><ele>556.0</ele><time>2026-03-22T10:57:19.681Z</time></trkpt><trkpt lat="44.4514093" lon="9.4259228"><ele>556.0</ele><time>2026-03-22T10:57:20.681Z</time></trkpt><trkpt lat="44.4514806" lon="9.4259346"><ele>556.0</ele><time>2026-03-22T10:57:21.681Z</time></trkpt><trkpt lat="44.4515552" lon="9.4259401"><ele>556.0</ele><time>2026-03-22T10:57:22.681Z</time></trkpt><trkpt lat="44.4516301" lon="9.4259539"><ele>556.3333333333334</ele><time>2026-03-22T10:57:23.681Z</time></trkpt><trkpt lat="44.4517013" lon="9.4259701"><ele>556.6666666666667</ele><time>2026-03-22T10:57:24.681Z</time></trkpt><trkpt lat="44.4517738" lon="9.4259832"><ele>557.0</ele><time>2026-03-22T10:57:25.681Z</time></trkpt><trkpt lat="44.4518496" lon="9.4259943"><ele>557.3333333333334</ele><time>2026-03-22T10:57:26.681Z</time></trkpt><trkpt lat="44.4519278" lon="9.4259947"><ele>557.6666666666666</ele><time>2026-03-22T10:57:27.681Z</time></trkpt><trkpt lat="44.4520056" lon="9.4259708"><ele>558.0</ele><time>2026-03-22T10:57:28.681Z</time></trkpt><trkpt lat="44.4520869" lon="9.425944"><ele>559.3333333333334</ele><time>2026-03-22T10:57:29.681Z</time></trkpt><trkpt lat="44.4521728" lon="9.4259047"><ele>560.6666666666666</ele><time>2026-03-22T10:57:30.681Z</time></trkpt><trkpt lat="44.4522664" lon="9.4258695"><ele>562.0</ele><time>2026-03-22T10:57:31.681Z</time></trkpt><trkpt lat="44.4523479" lon="9.4258409"><ele>563.3333333333333</ele><time>2026-03-22T10:57:32.681Z</time></trkpt><trkpt lat="44.4524335" lon="9.4258237"><ele>564.6666666666666</ele><time>2026-03-22T10:57:33.681Z</time></trkpt><trkpt lat="44.4525139" lon="9.4258218"><ele>566.0</ele><time>2026-03-22T10:57:34.681Z</time></trkpt><trkpt lat="44.4525821" lon="9.425806"><ele>566.0</ele><time>2026-03-22T10:57:35.681Z</time></trkpt><trkpt lat="44.4526988" lon="9.4257715"><ele>566.0</ele><time>2026-03-22T10:57:37.681Z</time></trkpt><trkpt lat="44.4527849" lon="9.4256983"><ele>566.0</ele><time>2026-03-22T10:57:39.681Z</time></trkpt><trkpt lat="44.4528746" lon="9.42564"><ele>566.0</ele><time>2026-03-22T10:57:41.681Z</time></trkpt><trkpt lat="44.4529577" lon="9.4256936"><ele>566.0</ele><time>2026-03-22T10:57:43.681Z</time></trkpt><trkpt lat="44.4530149" lon="9.4257546"><ele>566.0</ele><time>2026-03-22T10:57:45.681Z</time></trkpt><trkpt lat="44.4529023" lon="9.42583"><ele>566.0</ele><time>2026-03-22T10:57:46.681Z</time></trkpt><trkpt lat="44.4528386" lon="9.4259303"><ele>566.0</ele><time>2026-03-22T10:57:48.681Z</time></trkpt><trkpt lat="44.4528684" lon="9.4260457"><ele>566.0</ele><time>2026-03-22T10:57:51.681Z</time></trkpt><trkpt lat="44.4529329" lon="9.4260224"><ele>566.0</ele><time>2026-03-22T10:57:53.681Z</time></trkpt><trkpt lat="44.4530395" lon="9.4259805"><ele>567.8571428571429</ele><time>2026-03-22T10:57:54.681Z</time></trkpt><trkpt lat="44.4531033" lon="9.425965"><ele>569.7142857142858</ele><time>2026-03-22T10:57:55.681Z</time></trkpt><trkpt lat="44.4531668" lon="9.4259571"><ele>571.5714285714286</ele><time>2026-03-22T10:57:56.681Z</time></trkpt><trkpt lat="44.4532346" lon="9.4259486"><ele>573.4285714285714</ele><time>2026-03-22T10:57:57.681Z</time></trkpt><trkpt lat="44.4533001" lon="9.4259446"><ele>575.2857142857142</ele><time>2026-03-22T10:57:58.681Z</time></trkpt><trkpt lat="44.4534217" lon="9.4259342"><ele>577.1428571428571</ele><time>2026-03-22T10:58:00.681Z</time></trkpt><trkpt lat="44.4534872" lon="9.4259317"><ele>579.0</ele><time>2026-03-22T10:58:01.681Z</time></trkpt><trkpt lat="44.453604" lon="9.4258771"><ele>579.0</ele><time>2026-03-22T10:58:03.681Z</time></trkpt><trkpt lat="44.4536929" lon="9.4258047"><ele>579.0</ele><time>2026-03-22T10:58:04.681Z</time></trkpt><trkpt lat="44.4537592" lon="9.4257578"><ele>579.0</ele><time>2026-03-22T10:58:05.681Z</time></trkpt><trkpt lat="44.4538238" lon="9.4257234"><ele>579.0</ele><time>2026-03-22T10:58:06.681Z</time></trkpt><trkpt lat="44.4538896" lon="9.4256775"><ele>579.0</ele><time>2026-03-22T10:58:07.681Z</time></trkpt><trkpt lat="44.4539558" lon="9.4256261"><ele>579.0</ele><time>2026-03-22T10:58:08.681Z</time></trkpt><trkpt lat="44.4540217" lon="9.4255835"><ele>580.2857142857142</ele><time>2026-03-22T10:58:09.681Z</time></trkpt><trkpt lat="44.4540846" lon="9.4255476"><ele>581.5714285714286</ele><time>2026-03-22T10:58:10.681Z</time></trkpt><trkpt lat="44.4541522" lon="9.4255075"><ele>582.8571428571429</ele><time>2026-03-22T10:58:11.681Z</time></trkpt><trkpt lat="44.4542118" lon="9.4254703"><ele>584.1428571428571</ele><time>2026-03-22T10:58:12.681Z</time></trkpt><trkpt lat="44.4542708" lon="9.4254358"><ele>585.4285714285714</ele><time>2026-03-22T10:58:13.681Z</time></trkpt><trkpt lat="44.4543289" lon="9.4254005"><ele>586.7142857142857</ele><time>2026-03-22T10:58:14.682Z</time></trkpt><trkpt lat="44.4543877" lon="9.4253666"><ele>588.0</ele><time>2026-03-22T10:58:15.681Z</time></trkpt><trkpt lat="44.4545029" lon="9.4253138"><ele>588.0</ele><time>2026-03-22T10:58:17.681Z</time></trkpt><trkpt lat="44.4546198" lon="9.4253399"><ele>588.0</ele><time>2026-03-22T10:58:19.681Z</time></trkpt><trkpt lat="44.4547219" lon="9.42542"><ele>588.0</ele><time>2026-03-22T10:58:21.68Z</time></trkpt><trkpt lat="44.4547902" lon="9.4254458"><ele>588.0</ele><time>2026-03-22T10:58:23.681Z</time></trkpt><trkpt lat="44.4548552" lon="9.42531"><ele>588.0</ele><time>2026-03-22T10:58:25.681Z</time></trkpt><trkpt lat="44.4548521" lon="9.4250791"><ele>592.6666666666666</ele><time>2026-03-22T10:58:27.681Z</time></trkpt><trkpt lat="44.4548587" lon="9.4249913"><ele>597.3333333333334</ele><time>2026-03-22T10:58:28.681Z</time></trkpt><trkpt lat="44.4548431" lon="9.424807"><ele>602.0</ele><time>2026-03-22T10:58:30.681Z</time></trkpt><trkpt lat="44.4548249" lon="9.4247194"><ele>606.6666666666667</ele><time>2026-03-22T10:58:31.681Z</time></trkpt><trkpt lat="44.4547936" lon="9.4246373"><ele>611.3333333333334</ele><time>2026-03-22T10:58:32.681Z</time></trkpt><trkpt lat="44.454781" lon="9.4245455"><ele>616.0</ele><time>2026-03-22T10:58:33.681Z</time></trkpt><trkpt lat="44.4547978" lon="9.4243747"><ele>616.0</ele><time>2026-03-22T10:58:35.681Z</time></trkpt><trkpt lat="44.4548178" lon="9.424291"><ele>616.0</ele><time>2026-03-22T10:58:36.682Z</time></trkpt><trkpt lat="44.4548395" lon="9.424203"><ele>616.0</ele><time>2026-03-22T10:58:37.681Z</time></trkpt><trkpt lat="44.4548784" lon="9.424047"><ele>616.0</ele><time>2026-03-22T10:58:39.681Z</time></trkpt><trkpt lat="44.4549282" lon="9.4239761"><ele>616.0</ele><time>2026-03-22T10:58:40.681Z</time></trkpt><trkpt lat="44.4549928" lon="9.4239237"><ele>616.0</ele><time>2026-03-22T10:58:41.681Z</time></trkpt><trkpt lat="44.4550569" lon="9.4238801"><ele>616.0</ele><time>2026-03-22T10:58:42.681Z</time></trkpt><trkpt lat="44.4551189" lon="9.4238543"><ele>616.0</ele><time>2026-03-22T10:58:43.681Z</time></trkpt><trkpt lat="44.4552344" lon="9.4238115"><ele>616.0</ele><time>2026-03-22T10:58:45.681Z</time></trkpt><trkpt lat="44.4553313" lon="9.423717"><ele>616.0</ele><time>2026-03-22T10:58:47.681Z</time></trkpt><trkpt lat="44.4554057" lon="9.4236492"><ele>616.0</ele><time>2026-03-22T10:58:49.681Z</time></trkpt><trkpt lat="44.4554769" lon="9.4237144"><ele>616.0</ele><time>2026-03-22T10:58:52.681Z</time></trkpt><trkpt lat="44.4554344" lon="9.4238088"><ele>616.0</ele><time>2026-03-22T10:58:54.681Z</time></trkpt><trkpt lat="44.455366" lon="9.4238839"><ele>616.0</ele><time>2026-03-22T10:58:56.681Z</time></trkpt><trkpt lat="44.4553767" lon="9.4239789"><ele>616.0</ele><time>2026-03-22T10:58:58.681Z</time></trkpt><trkpt lat="44.455509" lon="9.4238718"><ele>616.0</ele><time>2026-03-22T10:59:00.681Z</time></trkpt><trkpt lat="44.4555731" lon="9.4238383"><ele>618.6666666666667</ele><time>2026-03-22T10:59:01.681Z</time></trkpt><trkpt lat="44.4556524" lon="9.4238293"><ele>621.3333333333334</ele><time>2026-03-22T10:59:02.681Z</time></trkpt><trkpt lat="44.4557244" lon="9.4238504"><ele>624.0</ele><time>2026-03-22T10:59:03.681Z</time></trkpt><trkpt lat="44.4558016" lon="9.423879"><ele>626.6666666666666</ele><time>2026-03-22T10:59:04.682Z</time></trkpt><trkpt lat="44.45588" lon="9.4238829"><ele>629.3333333333333</ele><time>2026-03-22T10:59:05.681Z</time></trkpt><trkpt lat="44.4559972" lon="9.4238954"><ele>632.0</ele><time>2026-03-22T10:59:07.681Z</time></trkpt><trkpt lat="44.4560719" lon="9.4240225"><ele>632.0000000000001</ele><time>2026-03-22T10:59:09.68Z</time></trkpt><trkpt lat="44.4560575" lon="9.4241114"><ele>632.0</ele><time>2026-03-22T10:59:10.681Z</time></trkpt><trkpt lat="44.4560194" lon="9.4242124"><ele>632.0</ele><time>2026-03-22T10:59:11.681Z</time></trkpt><trkpt lat="44.4559682" lon="9.4242939"><ele>632.0</ele><time>2026-03-22T10:59:12.682Z</time></trkpt><trkpt lat="44.4559099" lon="9.4243834"><ele>632.0</ele><time>2026-03-22T10:59:13.681Z</time></trkpt><trkpt lat="44.4558626" lon="9.4244563"><ele>632.0000000000001</ele><time>2026-03-22T10:59:14.681Z</time></trkpt><trkpt lat="44.4558149" lon="9.4245201"><ele>632.0</ele><time>2026-03-22T10:59:15.681Z</time></trkpt><trkpt lat="44.4557288" lon="9.424636"><ele>637.75</ele><time>2026-03-22T10:59:17.681Z</time></trkpt><trkpt lat="44.4556512" lon="9.4247614"><ele>643.5</ele><time>2026-03-22T10:59:19.682Z</time></trkpt><trkpt lat="44.4555914" lon="9.4249011"><ele>649.25</ele><time>2026-03-22T10:59:21.681Z</time></trkpt><trkpt lat="44.4555907" lon="9.4250312"><ele>655.0</ele><time>2026-03-22T10:59:23.682Z</time></trkpt><trkpt lat="44.4557337" lon="9.4250027"><ele>655.0</ele><time>2026-03-22T10:59:26.681Z</time></trkpt><trkpt lat="44.455798" lon="9.4249629"><ele>655.0</ele><time>2026-03-22T10:59:27.681Z</time></trkpt><trkpt lat="44.4558614" lon="9.4249324"><ele>655.0</ele><time>2026-03-22T10:59:28.681Z</time></trkpt><trkpt lat="44.455929" lon="9.424912"><ele>655.0</ele><time>2026-03-22T10:59:29.681Z</time></trkpt><trkpt lat="44.455997" lon="9.4248863"><ele>655.0</ele><time>2026-03-22T10:59:30.682Z</time></trkpt><trkpt lat="44.456058" lon="9.4248609"><ele>655.0</ele><time>2026-03-22T10:59:31.682Z</time></trkpt><trkpt lat="44.4561178" lon="9.4248139"><ele>655.0</ele><time>2026-03-22T10:59:32.68Z</time></trkpt><trkpt lat="44.4561748" lon="9.4247544"><ele>655.0</ele><time>2026-03-22T10:59:33.681Z</time></trkpt><trkpt lat="44.4562248" lon="9.4246829"><ele>655.0</ele><time>2026-03-22T10:59:34.681Z</time></trkpt><trkpt lat="44.4562796" lon="9.4246174"><ele>655.0</ele><time>2026-03-22T10:59:35.681Z</time></trkpt><trkpt lat="44.4563356" lon="9.4245576"><ele>655.0</ele><time>2026-03-22T10:59:36.681Z</time></trkpt><trkpt lat="44.4563967" lon="9.424507"><ele>655.0</ele><time>2026-03-22T10:59:37.681Z</time></trkpt><trkpt lat="44.4564578" lon="9.4244607"><ele>655.0</ele><time>2026-03-22T10:59:38.681Z</time></trkpt><trkpt lat="44.4565262" lon="9.4244161"><ele>655.0</ele><time>2026-03-22T10:59:39.682Z</time></trkpt><trkpt lat="44.4565975" lon="9.4243758"><ele>655.8333333333334</ele><time>2026-03-22T10:59:40.681Z</time></trkpt><trkpt lat="44.4566562" lon="9.4243252"><ele>656.6666666666667</ele><time>2026-03-22T10:59:41.681Z</time></trkpt><trkpt lat="44.4567146" lon="9.4242655"><ele>657.5</ele><time>2026-03-22T10:59:42.681Z</time></trkpt><trkpt lat="44.4567712" lon="9.4242023"><ele>658.3333333333334</ele><time>2026-03-22T10:59:43.682Z</time></trkpt><trkpt lat="44.4568332" lon="9.4241348"><ele>659.1666666666666</ele><time>2026-03-22T10:59:44.681Z</time></trkpt><trkpt lat="44.456888" lon="9.4240562"><ele>660.0</ele><time>2026-03-22T10:59:45.681Z</time></trkpt><trkpt lat="44.4569435" lon="9.4239692"><ele>660.0</ele><time>2026-03-22T10:59:46.681Z</time></trkpt><trkpt lat="44.4569971" lon="9.4238883"><ele>660.0</ele><time>2026-03-22T10:59:47.681Z</time></trkpt><trkpt lat="44.4570463" lon="9.4238166"><ele>660.0</ele><time>2026-03-22T10:59:48.682Z</time></trkpt><trkpt lat="44.4570929" lon="9.4237467"><ele>660.0</ele><time>2026-03-22T10:59:49.681Z</time></trkpt><trkpt lat="44.4571754" lon="9.4236428"><ele>660.0</ele><time>2026-03-22T10:59:51.681Z</time></trkpt><trkpt lat="44.4572628" lon="9.4235323"><ele>660.0</ele><time>2026-03-22T10:59:53.681Z</time></trkpt><trkpt lat="44.457308" lon="9.4234674"><ele>662.1666666666666</ele><time>2026-03-22T10:59:54.681Z</time></trkpt><trkpt lat="44.4573498" lon="9.4233949"><ele>664.3333333333334</ele><time>2026-03-22T10:59:55.682Z</time></trkpt><trkpt lat="44.457391" lon="9.4233195"><ele>666.5</ele><time>2026-03-22T10:59:56.682Z</time></trkpt><trkpt lat="44.4574364" lon="9.4232447"><ele>668.6666666666667</ele><time>2026-03-22T10:59:57.681Z</time></trkpt><trkpt lat="44.4574788" lon="9.423166"><ele>670.8333333333334</ele><time>2026-03-22T10:59:58.681Z</time></trkpt><trkpt lat="44.4575207" lon="9.4230931"><ele>673.0</ele><time>2026-03-22T10:59:59.681Z</time></trkpt><trkpt lat="44.4575988" lon="9.4229858"><ele>673.0</ele><time>2026-03-22T11:00:01.681Z</time></trkpt><trkpt lat="44.4576905" lon="9.4230126"><ele>673.0</ele><time>2026-03-22T11:00:04.681Z</time></trkpt><trkpt lat="44.4577173" lon="9.4230957"><ele>673.0</ele><time>2026-03-22T11:00:06.681Z</time></trkpt><trkpt lat="44.4576759" lon="9.4231663"><ele>673.0</ele><time>2026-03-22T11:00:07.681Z</time></trkpt><trkpt lat="44.4576328" lon="9.4233965"><ele>673.0</ele><time>2026-03-22T11:00:08.681Z</time></trkpt><trkpt lat="44.4575933" lon="9.4234965"><ele>673.0</ele><time>2026-03-22T11:00:09.681Z</time></trkpt><trkpt lat="44.4575451" lon="9.4235905"><ele>673.0</ele><time>2026-03-22T11:00:10.681Z</time></trkpt><trkpt lat="44.4574981" lon="9.4236942"><ele>673.0</ele><time>2026-03-22T11:00:11.681Z</time></trkpt><trkpt lat="44.4574398" lon="9.423797"><ele>673.0</ele><time>2026-03-22T11:00:12.681Z</time></trkpt><trkpt lat="44.4573921" lon="9.4238789"><ele>673.0</ele><time>2026-03-22T11:00:13.681Z</time></trkpt><trkpt lat="44.4573373" lon="9.4239423"><ele>673.0</ele><time>2026-03-22T11:00:14.681Z</time></trkpt><trkpt lat="44.4572887" lon="9.4240139"><ele>671.1428571428572</ele><time>2026-03-22T11:00:15.681Z</time></trkpt><trkpt lat="44.4572415" lon="9.4240965"><ele>669.2857142857142</ele><time>2026-03-22T11:00:16.681Z</time></trkpt><trkpt lat="44.4571959" lon="9.4241745"><ele>667.4285714285714</ele><time>2026-03-22T11:00:17.681Z</time></trkpt><trkpt lat="44.457163" lon="9.4242571"><ele>665.5714285714287</ele><time>2026-03-22T11:00:18.681Z</time></trkpt><trkpt lat="44.4571268" lon="9.4243546"><ele>663.7142857142858</ele><time>2026-03-22T11:00:19.681Z</time></trkpt><trkpt lat="44.4570858" lon="9.4244492"><ele>661.8571428571429</ele><time>2026-03-22T11:00:20.681Z</time></trkpt><trkpt lat="44.4570493" lon="9.4245414"><ele>660.0</ele><time>2026-03-22T11:00:21.681Z</time></trkpt><trkpt lat="44.4570111" lon="9.4246215"><ele>664.1666666666666</ele><time>2026-03-22T11:00:22.681Z</time></trkpt><trkpt lat="44.4569756" lon="9.4246944"><ele>668.3333333333334</ele><time>2026-03-22T11:00:23.681Z</time></trkpt><trkpt lat="44.4569158" lon="9.4248249"><ele>672.5</ele><time>2026-03-22T11:00:25.682Z</time></trkpt><trkpt lat="44.4568791" lon="9.4249154"><ele>676.6666666666667</ele><time>2026-03-22T11:00:27.681Z</time></trkpt><trkpt lat="44.4569277" lon="9.4249781"><ele>680.8333333333334</ele><time>2026-03-22T11:00:31.681Z</time></trkpt><trkpt lat="44.4569849" lon="9.4248482"><ele>685.0</ele><time>2026-03-22T11:00:32.682Z</time></trkpt><trkpt lat="44.4570653" lon="9.4247364"><ele>685.0</ele><time>2026-03-22T11:00:34.682Z</time></trkpt><trkpt lat="44.4571067" lon="9.4246627"><ele>685.0</ele><time>2026-03-22T11:00:35.681Z</time></trkpt><trkpt lat="44.4571628" lon="9.4245762"><ele>685.0</ele><time>2026-03-22T11:00:36.681Z</time></trkpt><trkpt lat="44.4572186" lon="9.4244843"><ele>685.0</ele><time>2026-03-22T11:00:37.682Z</time></trkpt><trkpt lat="44.457274" lon="9.4243969"><ele>685.0</ele><time>2026-03-22T11:00:38.681Z</time></trkpt><trkpt lat="44.4573315" lon="9.424323"><ele>685.0</ele><time>2026-03-22T11:00:39.681Z</time></trkpt><trkpt lat="44.4574067" lon="9.4242813"><ele>687.2</ele><time>2026-03-22T11:00:40.681Z</time></trkpt><trkpt lat="44.4574938" lon="9.4242667"><ele>689.4</ele><time>2026-03-22T11:00:41.681Z</time></trkpt><trkpt lat="44.4575814" lon="9.4242733"><ele>691.5999999999999</ele><time>2026-03-22T11:00:42.682Z</time></trkpt><trkpt lat="44.4576696" lon="9.4242836"><ele>693.8</ele><time>2026-03-22T11:00:43.682Z</time></trkpt><trkpt lat="44.4577646" lon="9.4242911"><ele>696.0</ele><time>2026-03-22T11:00:44.681Z</time></trkpt><trkpt lat="44.4578554" lon="9.4242632"><ele>696.0</ele><time>2026-03-22T11:00:45.681Z</time></trkpt><trkpt lat="44.4579394" lon="9.4242034"><ele>696.0</ele><time>2026-03-22T11:00:46.682Z</time></trkpt><trkpt lat="44.4580112" lon="9.4241253"><ele>696.0</ele><time>2026-03-22T11:00:47.681Z</time></trkpt><trkpt lat="44.4580789" lon="9.4240444"><ele>696.0</ele><time>2026-03-22T11:00:48.681Z</time></trkpt><trkpt lat="44.4581484" lon="9.423972"><ele>696.0</ele><time>2026-03-22T11:00:49.682Z</time></trkpt><trkpt lat="44.4582243" lon="9.4239251"><ele>696.0</ele><time>2026-03-22T11:00:50.681Z</time></trkpt><trkpt lat="44.4583032" lon="9.4238863"><ele>699.3333333333334</ele><time>2026-03-22T11:00:51.681Z</time></trkpt><trkpt lat="44.4583771" lon="9.4238619"><ele>702.6666666666666</ele><time>2026-03-22T11:00:52.681Z</time></trkpt><trkpt lat="44.4584618" lon="9.4238353"><ele>706.0</ele><time>2026-03-22T11:00:54.682Z</time></trkpt><trkpt lat="44.4585288" lon="9.423859"><ele>709.3333333333333</ele><time>2026-03-22T11:00:56.681Z</time></trkpt><trkpt lat="44.4585052" lon="9.4239891"><ele>712.6666666666666</ele><time>2026-03-22T11:00:58.682Z</time></trkpt><trkpt lat="44.4583959" lon="9.4240376"><ele>716.0</ele><time>2026-03-22T11:01:00.681Z</time></trkpt><trkpt lat="44.4582954" lon="9.4241684"><ele>716.0</ele><time>2026-03-22T11:01:02.682Z</time></trkpt><trkpt lat="44.4582402" lon="9.4242465"><ele>716.0</ele><time>2026-03-22T11:01:03.681Z</time></trkpt><trkpt lat="44.4582025" lon="9.4243329"><ele>716.0</ele><time>2026-03-22T11:01:04.682Z</time></trkpt><trkpt lat="44.4581592" lon="9.4244071"><ele>716.0</ele><time>2026-03-22T11:01:05.681Z</time></trkpt><trkpt lat="44.4581091" lon="9.4244826"><ele>716.0</ele><time>2026-03-22T11:01:06.681Z</time></trkpt><trkpt lat="44.4580481" lon="9.4245615"><ele>716.0</ele><time>2026-03-22T11:01:07.682Z</time></trkpt><trkpt lat="44.4579681" lon="9.42463"><ele>715.8333333333333</ele><time>2026-03-22T11:01:08.681Z</time></trkpt><trkpt lat="44.4579053" lon="9.4246784"><ele>715.6666666666666</ele><time>2026-03-22T11:01:09.68Z</time></trkpt><trkpt lat="44.4578386" lon="9.4247202"><ele>715.5</ele><time>2026-03-22T11:01:10.681Z</time></trkpt><trkpt lat="44.4577725" lon="9.4247557"><ele>715.3333333333334</ele><time>2026-03-22T11:01:11.681Z</time></trkpt><trkpt lat="44.4577156" lon="9.4248023"><ele>715.1666666666667</ele><time>2026-03-22T11:01:12.681Z</time></trkpt><trkpt lat="44.4576652" lon="9.4248565"><ele>715.0</ele><time>2026-03-22T11:01:13.681Z</time></trkpt><trkpt lat="44.4575794" lon="9.4249768"><ele>715.0</ele><time>2026-03-22T11:01:15.681Z</time></trkpt><trkpt lat="44.4575503" lon="9.4250552"><ele>715.0</ele><time>2026-03-22T11:01:16.681Z</time></trkpt><trkpt lat="44.4575686" lon="9.4251619"><ele>715.0</ele><time>2026-03-22T11:01:17.681Z</time></trkpt><trkpt lat="44.4575759" lon="9.42527"><ele>715.0</ele><time>2026-03-22T11:01:18.681Z</time></trkpt><trkpt lat="44.4575828" lon="9.4253807"><ele>715.0</ele><time>2026-03-22T11:01:19.681Z</time></trkpt><trkpt lat="44.4575937" lon="9.4254904"><ele>715.0</ele><time>2026-03-22T11:01:20.68Z</time></trkpt><trkpt lat="44.4576034" lon="9.4255889"><ele>715.0</ele><time>2026-03-22T11:01:21.681Z</time></trkpt><trkpt lat="44.4576349" lon="9.4257356"><ele>717.0</ele><time>2026-03-22T11:01:23.681Z</time></trkpt><trkpt lat="44.4576675" lon="9.4258811"><ele>719.0</ele><time>2026-03-22T11:01:25.681Z</time></trkpt><trkpt lat="44.4577014" lon="9.4260369"><ele>721.0</ele><time>2026-03-22T11:01:27.681Z</time></trkpt><trkpt lat="44.4577461" lon="9.426176"><ele>723.0</ele><time>2026-03-22T11:01:29.68Z</time></trkpt><trkpt lat="44.4577829" lon="9.4262534"><ele>725.0</ele><time>2026-03-22T11:01:30.681Z</time></trkpt><trkpt lat="44.457824" lon="9.426343"><ele>725.0</ele><time>2026-03-22T11:01:31.681Z</time></trkpt><trkpt lat="44.4578542" lon="9.4264267"><ele>725.0</ele><time>2026-03-22T11:01:32.681Z</time></trkpt><trkpt lat="44.4579118" lon="9.4265967"><ele>725.0</ele><time>2026-03-22T11:01:34.681Z</time></trkpt><trkpt lat="44.4579542" lon="9.4266862"><ele>725.0</ele><time>2026-03-22T11:01:35.681Z</time></trkpt><trkpt lat="44.4579815" lon="9.4267736"><ele>725.0</ele><time>2026-03-22T11:01:36.681Z</time></trkpt><trkpt lat="44.4580077" lon="9.42686"><ele>725.0</ele><time>2026-03-22T11:01:37.681Z</time></trkpt><trkpt lat="44.4580276" lon="9.4269516"><ele>727.6666666666666</ele><time>2026-03-22T11:01:38.681Z</time></trkpt><trkpt lat="44.4580577" lon="9.4270355"><ele>730.3333333333333</ele><time>2026-03-22T11:01:39.68Z</time></trkpt><trkpt lat="44.4580798" lon="9.4271181"><ele>733.0</ele><time>2026-03-22T11:01:40.682Z</time></trkpt><trkpt lat="44.4580921" lon="9.4272089"><ele>735.6666666666666</ele><time>2026-03-22T11:01:41.681Z</time></trkpt><trkpt lat="44.4581381" lon="9.4273204"><ele>738.3333333333334</ele><time>2026-03-22T11:01:43.681Z</time></trkpt><trkpt lat="44.4582398" lon="9.427228"><ele>741.0</ele><time>2026-03-22T11:01:45.681Z</time></trkpt><trkpt lat="44.4583378" lon="9.4270885"><ele>741.6666666666666</ele><time>2026-03-22T11:01:47.681Z</time></trkpt><trkpt lat="44.458373" lon="9.4269355"><ele>742.3333333333334</ele><time>2026-03-22T11:01:48.681Z</time></trkpt><trkpt lat="44.4584049" lon="9.4268292"><ele>743.0</ele><time>2026-03-22T11:01:49.681Z</time></trkpt><trkpt lat="44.4584347" lon="9.4267225"><ele>743.6666666666667</ele><time>2026-03-22T11:01:50.681Z</time></trkpt><trkpt lat="44.4584571" lon="9.426616"><ele>744.3333333333334</ele><time>2026-03-22T11:01:51.681Z</time></trkpt><trkpt lat="44.458492" lon="9.4265231"><ele>745.0</ele><time>2026-03-22T11:01:52.681Z</time></trkpt><trkpt lat="44.4585207" lon="9.4264324"><ele>744.1666666666667</ele><time>2026-03-22T11:01:53.681Z</time></trkpt><trkpt lat="44.4585971" lon="9.4262945"><ele>743.3333333333334</ele><time>2026-03-22T11:01:55.682Z</time></trkpt><trkpt lat="44.4586533" lon="9.4262483"><ele>742.5</ele><time>2026-03-22T11:01:56.681Z</time></trkpt><trkpt lat="44.4587119" lon="9.4262055"><ele>741.6666666666666</ele><time>2026-03-22T11:01:57.681Z</time></trkpt><trkpt lat="44.4587706" lon="9.4261668"><ele>740.8333333333333</ele><time>2026-03-22T11:01:58.681Z</time></trkpt><trkpt lat="44.4588291" lon="9.4261146"><ele>740.0</ele><time>2026-03-22T11:01:59.681Z</time></trkpt><trkpt lat="44.4588816" lon="9.4260518"><ele>742.5</ele><time>2026-03-22T11:02:00.681Z</time></trkpt><trkpt lat="44.4589257" lon="9.4259785"><ele>745.0</ele><time>2026-03-22T11:02:01.681Z</time></trkpt><trkpt lat="44.4589671" lon="9.425906"><ele>747.5</ele><time>2026-03-22T11:02:02.681Z</time></trkpt><trkpt lat="44.4590273" lon="9.4257946"><ele>750.0</ele><time>2026-03-22T11:02:04.681Z</time></trkpt><trkpt lat="44.4591092" lon="9.4257652"><ele>752.5</ele><time>2026-03-22T11:02:07.682Z</time></trkpt><trkpt lat="44.4591441" lon="9.4258515"><ele>755.0</ele><time>2026-03-22T11:02:09.681Z</time></trkpt><trkpt lat="44.4591032" lon="9.4260384"><ele>755.0</ele><time>2026-03-22T11:02:12.681Z</time></trkpt><trkpt lat="44.4590898" lon="9.4261301"><ele>755.0</ele><time>2026-03-22T11:02:13.681Z</time></trkpt><trkpt lat="44.4590675" lon="9.4262274"><ele>755.0</ele><time>2026-03-22T11:02:14.682Z</time></trkpt><trkpt lat="44.4590527" lon="9.4263184"><ele>755.0</ele><time>2026-03-22T11:02:15.681Z</time></trkpt><trkpt lat="44.4590352" lon="9.426458"><ele>755.0</ele><time>2026-03-22T11:02:17.681Z</time></trkpt><trkpt lat="44.4590647" lon="9.4265636"><ele>755.0</ele><time>2026-03-22T11:02:19.682Z</time></trkpt><trkpt lat="44.459161" lon="9.4265008"><ele>755.0</ele><time>2026-03-22T11:02:21.682Z</time></trkpt><trkpt lat="44.4592343" lon="9.4263721"><ele>755.0</ele><time>2026-03-22T11:02:23.681Z</time></trkpt><trkpt lat="44.4593143" lon="9.4262922"><ele>755.0</ele><time>2026-03-22T11:02:25.681Z</time></trkpt><trkpt lat="44.4594239" lon="9.4262826"><ele>755.0</ele><time>2026-03-22T11:02:27.681Z</time></trkpt><trkpt lat="44.459566" lon="9.4263216"><ele>758.8333333333333</ele><time>2026-03-22T11:02:29.681Z</time></trkpt><trkpt lat="44.4596496" lon="9.4263593"><ele>762.6666666666666</ele><time>2026-03-22T11:02:30.681Z</time></trkpt><trkpt lat="44.4597339" lon="9.4264014"><ele>766.5</ele><time>2026-03-22T11:02:31.681Z</time></trkpt><trkpt lat="44.459811" lon="9.4264208"><ele>770.3333333333333</ele><time>2026-03-22T11:02:32.681Z</time></trkpt><trkpt lat="44.4598873" lon="9.4264407"><ele>774.1666666666666</ele><time>2026-03-22T11:02:33.681Z</time></trkpt><trkpt lat="44.4599659" lon="9.4264723"><ele>778.0</ele><time>2026-03-22T11:02:34.681Z</time></trkpt><trkpt lat="44.4600252" lon="9.42643"><ele>778.0</ele><time>2026-03-22T11:02:35.681Z</time></trkpt><trkpt lat="44.4601509" lon="9.4263814"><ele>778.0</ele><time>2026-03-22T11:02:37.681Z</time></trkpt><trkpt lat="44.4602073" lon="9.4263074"><ele>778.0</ele><time>2026-03-22T11:02:39.681Z</time></trkpt><trkpt lat="44.4602857" lon="9.4263075"><ele>778.0</ele><time>2026-03-22T11:02:42.682Z</time></trkpt><trkpt lat="44.4603052" lon="9.4264001"><ele>778.0</ele><time>2026-03-22T11:02:44.681Z</time></trkpt><trkpt lat="44.4602389" lon="9.4265513"><ele>777.9999999999999</ele><time>2026-03-22T11:02:46.681Z</time></trkpt><trkpt lat="44.4602108" lon="9.4266327"><ele>778.0</ele><time>2026-03-22T11:02:47.681Z</time></trkpt><trkpt lat="44.4601663" lon="9.4266958"><ele>778.0</ele><time>2026-03-22T11:02:48.681Z</time></trkpt><trkpt lat="44.460115" lon="9.4267805"><ele>778.0</ele><time>2026-03-22T11:02:49.681Z</time></trkpt><trkpt lat="44.4600698" lon="9.4268552"><ele>777.9999999999999</ele><time>2026-03-22T11:02:50.681Z</time></trkpt><trkpt lat="44.4600041" lon="9.4269811"><ele>778.0</ele><time>2026-03-22T11:02:52.681Z</time></trkpt><trkpt lat="44.4599385" lon="9.427103"><ele>778.0</ele><time>2026-03-22T11:02:54.681Z</time></trkpt><trkpt lat="44.4598861" lon="9.42721"><ele>778.0</ele><time>2026-03-22T11:02:56.681Z</time></trkpt><trkpt lat="44.4599884" lon="9.4271994"><ele>778.0</ele><time>2026-03-22T11:03:00.681Z</time></trkpt><trkpt lat="44.4601012" lon="9.4271124"><ele>778.0</ele><time>2026-03-22T11:03:01.682Z</time></trkpt><trkpt lat="44.4601805" lon="9.4270373"><ele>778.0</ele><time>2026-03-22T11:03:02.681Z</time></trkpt><trkpt lat="44.4602538" lon="9.4269723"><ele>777.9999999999999</ele><time>2026-03-22T11:03:03.681Z</time></trkpt><trkpt lat="44.4603106" lon="9.426911"><ele>778.0</ele><time>2026-03-22T11:03:04.681Z</time></trkpt><trkpt lat="44.460377" lon="9.4268382"><ele>778.0</ele><time>2026-03-22T11:03:05.68Z</time></trkpt><trkpt lat="44.4604447" lon="9.4267675"><ele>778.0</ele><time>2026-03-22T11:03:06.681Z</time></trkpt><trkpt lat="44.4605133" lon="9.4266982"><ele>777.9999999999999</ele><time>2026-03-22T11:03:07.681Z</time></trkpt><trkpt lat="44.4605791" lon="9.4266409"><ele>778.0</ele><time>2026-03-22T11:03:08.681Z</time></trkpt><trkpt lat="44.4606646" lon="9.4265643"><ele>780.1428571428572</ele><time>2026-03-22T11:03:10.681Z</time></trkpt><trkpt lat="44.4607388" lon="9.4264807"><ele>782.2857142857142</ele><time>2026-03-22T11:03:12.681Z</time></trkpt><trkpt lat="44.4607892" lon="9.4264259"><ele>784.4285714285714</ele><time>2026-03-22T11:03:13.68Z</time></trkpt><trkpt lat="44.460838" lon="9.4263699"><ele>786.5714285714287</ele><time>2026-03-22T11:03:14.681Z</time></trkpt><trkpt lat="44.4609006" lon="9.4263169"><ele>788.7142857142858</ele><time>2026-03-22T11:03:15.681Z</time></trkpt><trkpt lat="44.4609521" lon="9.4262642"><ele>790.8571428571429</ele><time>2026-03-22T11:03:16.682Z</time></trkpt><trkpt lat="44.4610175" lon="9.4262293"><ele>793.0</ele><time>2026-03-22T11:03:17.682Z</time></trkpt><trkpt lat="44.461101" lon="9.4261497"><ele>793.0</ele><time>2026-03-22T11:03:19.682Z</time></trkpt><trkpt lat="44.4611296" lon="9.4260407"><ele>793.0</ele><time>2026-03-22T11:03:21.681Z</time></trkpt><trkpt lat="44.4611168" lon="9.4259245"><ele>793.0</ele><time>2026-03-22T11:03:23.681Z</time></trkpt><trkpt lat="44.4611048" lon="9.4257459"><ele>793.0</ele><time>2026-03-22T11:03:25.681Z</time></trkpt><trkpt lat="44.4611083" lon="9.4255927"><ele>793.0</ele><time>2026-03-22T11:03:27.681Z</time></trkpt><trkpt lat="44.461156" lon="9.4254422"><ele>792.3333333333333</ele><time>2026-03-22T11:03:29.681Z</time></trkpt><trkpt lat="44.4611924" lon="9.4253557"><ele>791.6666666666666</ele><time>2026-03-22T11:03:30.681Z</time></trkpt><trkpt lat="44.4612402" lon="9.4252958"><ele>791.0</ele><time>2026-03-22T11:03:31.681Z</time></trkpt><trkpt lat="44.4613058" lon="9.4251644"><ele>790.3333333333333</ele><time>2026-03-22T11:03:33.682Z</time></trkpt><trkpt lat="44.4613382" lon="9.4250183"><ele>789.6666666666666</ele><time>2026-03-22T11:03:35.68Z</time></trkpt><trkpt lat="44.4613412" lon="9.4249078"><ele>789.0</ele><time>2026-03-22T11:03:37.681Z</time></trkpt><trkpt lat="44.4614077" lon="9.424821"><ele>793.9999999999999</ele><time>2026-03-22T11:03:40.681Z</time></trkpt><trkpt lat="44.4614801" lon="9.4248292"><ele>799.0</ele><time>2026-03-22T11:03:42.681Z</time></trkpt><trkpt lat="44.4614864" lon="9.424937"><ele>804.0</ele><time>2026-03-22T11:03:43.681Z</time></trkpt><trkpt lat="44.4614635" lon="9.425052"><ele>809.0</ele><time>2026-03-22T11:03:44.681Z</time></trkpt><trkpt lat="44.4614501" lon="9.4251498"><ele>814.0</ele><time>2026-03-22T11:03:45.681Z</time></trkpt><trkpt lat="44.4614477" lon="9.4252396"><ele>818.9999999999999</ele><time>2026-03-22T11:03:46.681Z</time></trkpt><trkpt lat="44.4614305" lon="9.425327"><ele>824.0</ele><time>2026-03-22T11:03:47.681Z</time></trkpt><trkpt lat="44.4614072" lon="9.4254139"><ele>825.3333333333334</ele><time>2026-03-22T11:03:48.681Z</time></trkpt><trkpt lat="44.4613977" lon="9.4255759"><ele>826.6666666666667</ele><time>2026-03-22T11:03:50.681Z</time></trkpt><trkpt lat="44.4614063" lon="9.4256645"><ele>828.0</ele><time>2026-03-22T11:03:51.681Z</time></trkpt><trkpt lat="44.4614722" lon="9.4258022"><ele>829.3333333333333</ele><time>2026-03-22T11:03:53.681Z</time></trkpt><trkpt lat="44.4614982" lon="9.425886"><ele>830.6666666666666</ele><time>2026-03-22T11:03:56.596Z</time></trkpt><trkpt lat="44.4615191" lon="9.4259985"><ele>832.0</ele><time>2026-03-22T11:03:57.681Z</time></trkpt><trkpt lat="44.4615914" lon="9.4260476"><ele>831.9999999999999</ele><time>2026-03-22T11:04:00.681Z</time></trkpt><trkpt lat="44.4616193" lon="9.4259531"><ele>832.0</ele><time>2026-03-22T11:04:02.681Z</time></trkpt><trkpt lat="44.4615551" lon="9.4258141"><ele>832.0</ele><time>2026-03-22T11:04:03.681Z</time></trkpt><trkpt lat="44.461514" lon="9.4257067"><ele>832.0</ele><time>2026-03-22T11:04:04.682Z</time></trkpt><trkpt lat="44.4614907" lon="9.4256097"><ele>831.9999999999999</ele><time>2026-03-22T11:04:05.681Z</time></trkpt><trkpt lat="44.4614926" lon="9.4255155"><ele>832.0</ele><time>2026-03-22T11:04:06.681Z</time></trkpt><trkpt lat="44.4615599" lon="9.4254407"><ele>830.6666666666666</ele><time>2026-03-22T11:04:07.681Z</time></trkpt><trkpt lat="44.4616131" lon="9.4253545"><ele>829.3333333333333</ele><time>2026-03-22T11:04:08.681Z</time></trkpt><trkpt lat="44.4616431" lon="9.4252303"><ele>828.0</ele><time>2026-03-22T11:04:09.683Z</time></trkpt><trkpt lat="44.4616823" lon="9.425109"><ele>826.6666666666667</ele><time>2026-03-22T11:04:10.681Z</time></trkpt><trkpt lat="44.4617271" lon="9.4250074"><ele>825.3333333333334</ele><time>2026-03-22T11:04:11.68Z</time></trkpt><trkpt lat="44.4617836" lon="9.424918"><ele>824.0</ele><time>2026-03-22T11:04:12.681Z</time></trkpt><trkpt lat="44.461851" lon="9.4248095"><ele>824.0000000000001</ele><time>2026-03-22T11:04:13.681Z</time></trkpt><trkpt lat="44.4619266" lon="9.4247122"><ele>824.0</ele><time>2026-03-22T11:04:14.681Z</time></trkpt><trkpt lat="44.4620074" lon="9.4246241"><ele>824.0</ele><time>2026-03-22T11:04:15.681Z</time></trkpt><trkpt lat="44.4620852" lon="9.4245666"><ele>824.0</ele><time>2026-03-22T11:04:16.681Z</time></trkpt><trkpt lat="44.4621434" lon="9.4245094"><ele>824.0000000000001</ele><time>2026-03-22T11:04:17.681Z</time></trkpt><trkpt lat="44.4622053" lon="9.4244561"><ele>824.0</ele><time>2026-03-22T11:04:18.681Z</time></trkpt><trkpt lat="44.4622682" lon="9.4243842"><ele>826.3333333333334</ele><time>2026-03-22T11:04:19.681Z</time></trkpt><trkpt lat="44.4623322" lon="9.4243346"><ele>828.6666666666667</ele><time>2026-03-22T11:04:20.681Z</time></trkpt><trkpt lat="44.4624036" lon="9.4243057"><ele>831.0</ele><time>2026-03-22T11:04:21.681Z</time></trkpt><trkpt lat="44.4624748" lon="9.4242764"><ele>833.3333333333333</ele><time>2026-03-22T11:04:22.681Z</time></trkpt><trkpt lat="44.4625481" lon="9.42423"><ele>835.6666666666666</ele><time>2026-03-22T11:04:23.681Z</time></trkpt><trkpt lat="44.4626219" lon="9.4241687"><ele>838.0</ele><time>2026-03-22T11:04:24.681Z</time></trkpt><trkpt lat="44.4626969" lon="9.4241204"><ele>837.9999999999999</ele><time>2026-03-22T11:04:25.682Z</time></trkpt><trkpt lat="44.4627576" lon="9.4240563"><ele>838.0</ele><time>2026-03-22T11:04:26.681Z</time></trkpt><trkpt lat="44.4628171" lon="9.4239997"><ele>838.0</ele><time>2026-03-22T11:04:27.682Z</time></trkpt><trkpt lat="44.4628785" lon="9.4239551"><ele>838.0</ele><time>2026-03-22T11:04:28.681Z</time></trkpt><trkpt lat="44.4629447" lon="9.4239126"><ele>837.9999999999999</ele><time>2026-03-22T11:04:29.681Z</time></trkpt><trkpt lat="44.4630269" lon="9.4238761"><ele>838.0</ele><time>2026-03-22T11:04:30.681Z</time></trkpt><trkpt lat="44.463128" lon="9.4238422"><ele>837.4999999999999</ele><time>2026-03-22T11:04:31.681Z</time></trkpt><trkpt lat="44.463233" lon="9.4238402"><ele>837.0</ele><time>2026-03-22T11:04:32.681Z</time></trkpt><trkpt lat="44.4633239" lon="9.4238288"><ele>836.5</ele><time>2026-03-22T11:04:33.681Z</time></trkpt><trkpt lat="44.4634077" lon="9.4238188"><ele>836.0</ele><time>2026-03-22T11:04:34.681Z</time></trkpt><trkpt lat="44.4634838" lon="9.4238081"><ele>835.4999999999999</ele><time>2026-03-22T11:04:35.681Z</time></trkpt><trkpt lat="44.4635521" lon="9.4237827"><ele>835.0</ele><time>2026-03-22T11:04:36.681Z</time></trkpt><trkpt lat="44.4636226" lon="9.423738"><ele>834.9999999999999</ele><time>2026-03-22T11:04:37.681Z</time></trkpt><trkpt lat="44.4636892" lon="9.4237009"><ele>835.0</ele><time>2026-03-22T11:04:38.681Z</time></trkpt><trkpt lat="44.4637254" lon="9.4236075"><ele>835.0</ele><time>2026-03-22T11:04:40.681Z</time></trkpt><trkpt lat="44.4637842" lon="9.4235758"><ele>835.0</ele><time>2026-03-22T11:04:42.681Z</time></trkpt><trkpt lat="44.4638584" lon="9.4235715"><ele>834.9999999999999</ele><time>2026-03-22T11:04:45.681Z</time></trkpt><trkpt lat="44.4638832" lon="9.4236559"><ele>835.0</ele><time>2026-03-22T11:04:47.681Z</time></trkpt><trkpt lat="44.4637845" lon="9.4237367"><ele>838.9999999999999</ele><time>2026-03-22T11:04:49.681Z</time></trkpt><trkpt lat="44.4636914" lon="9.4238313"><ele>843.0</ele><time>2026-03-22T11:04:51.682Z</time></trkpt><trkpt lat="44.4636402" lon="9.4238911"><ele>847.0</ele><time>2026-03-22T11:04:52.681Z</time></trkpt><trkpt lat="44.4635867" lon="9.4239425"><ele>851.0</ele><time>2026-03-22T11:04:53.681Z</time></trkpt><trkpt lat="44.4635328" lon="9.4239928"><ele>854.9999999999999</ele><time>2026-03-22T11:04:54.681Z</time></trkpt><trkpt lat="44.4634777" lon="9.4240476"><ele>859.0</ele><time>2026-03-22T11:04:55.682Z</time></trkpt><trkpt lat="44.463409" lon="9.4241271"><ele>858.9999999999999</ele><time>2026-03-22T11:04:56.681Z</time></trkpt><trkpt lat="44.4633328" lon="9.4241933"><ele>859.0</ele><time>2026-03-22T11:04:57.681Z</time></trkpt><trkpt lat="44.4632514" lon="9.4242488"><ele>859.0</ele><time>2026-03-22T11:04:58.681Z</time></trkpt><trkpt lat="44.4631815" lon="9.4242929"><ele>859.0</ele><time>2026-03-22T11:04:59.681Z</time></trkpt><trkpt lat="44.4631244" lon="9.4243448"><ele>858.9999999999999</ele><time>2026-03-22T11:05:00.681Z</time></trkpt><trkpt lat="44.4630769" lon="9.4244043"><ele>859.0</ele><time>2026-03-22T11:05:01.682Z</time></trkpt><trkpt lat="44.4630324" lon="9.4244683"><ele>859.6666666666666</ele><time>2026-03-22T11:05:02.681Z</time></trkpt><trkpt lat="44.4629441" lon="9.4245988"><ele>860.3333333333333</ele><time>2026-03-22T11:05:04.682Z</time></trkpt><trkpt lat="44.4628971" lon="9.4246609"><ele>861.0</ele><time>2026-03-22T11:05:05.681Z</time></trkpt><trkpt lat="44.4628312" lon="9.4247312"><ele>861.6666666666667</ele><time>2026-03-22T11:05:06.681Z</time></trkpt><trkpt lat="44.4627584" lon="9.4247725"><ele>862.3333333333334</ele><time>2026-03-22T11:05:07.68Z</time></trkpt><trkpt lat="44.4626896" lon="9.4248093"><ele>863.0</ele><time>2026-03-22T11:05:08.681Z</time></trkpt><trkpt lat="44.462627" lon="9.4248498"><ele>863.0</ele><time>2026-03-22T11:05:09.681Z</time></trkpt><trkpt lat="44.4625659" lon="9.4249071"><ele>863.0</ele><time>2026-03-22T11:05:11.681Z</time></trkpt><trkpt lat="44.4625485" lon="9.4250019"><ele>863.0</ele><time>2026-03-22T11:05:14.681Z</time></trkpt><trkpt lat="44.4626213" lon="9.4250263"><ele>863.0</ele><time>2026-03-22T11:05:18.681Z</time></trkpt><trkpt lat="44.4627001" lon="9.4249847"><ele>863.0</ele><time>2026-03-22T11:05:20.681Z</time></trkpt><trkpt lat="44.4628503" lon="9.4249226"><ele>867.3333333333334</ele><time>2026-03-22T11:05:21.681Z</time></trkpt><trkpt lat="44.4629484" lon="9.4248943"><ele>871.6666666666667</ele><time>2026-03-22T11:05:22.681Z</time></trkpt><trkpt lat="44.4630324" lon="9.4248734"><ele>876.0</ele><time>2026-03-22T11:05:23.681Z</time></trkpt><trkpt lat="44.4631043" lon="9.4248536"><ele>880.3333333333333</ele><time>2026-03-22T11:05:24.681Z</time></trkpt><trkpt lat="44.4631904" lon="9.4248139"><ele>884.6666666666666</ele><time>2026-03-22T11:05:25.681Z</time></trkpt><trkpt lat="44.4632777" lon="9.4247969"><ele>889.0</ele><time>2026-03-22T11:05:26.681Z</time></trkpt><trkpt lat="44.4633601" lon="9.4247719"><ele>888.9999999999999</ele><time>2026-03-22T11:05:27.682Z</time></trkpt><trkpt lat="44.4634429" lon="9.4247515"><ele>889.0</ele><time>2026-03-22T11:05:28.682Z</time></trkpt><trkpt lat="44.4635371" lon="9.4247267"><ele>889.0</ele><time>2026-03-22T11:05:29.682Z</time></trkpt><trkpt lat="44.463635" lon="9.4247059"><ele>889.0</ele><time>2026-03-22T11:05:30.681Z</time></trkpt><trkpt lat="44.4637052" lon="9.4246747"><ele>888.9999999999999</ele><time>2026-03-22T11:05:31.681Z</time></trkpt><trkpt lat="44.4637816" lon="9.4246563"><ele>889.0</ele><time>2026-03-22T11:05:32.681Z</time></trkpt><trkpt lat="44.4638519" lon="9.4246315"><ele>887.1666666666666</ele><time>2026-03-22T11:05:33.681Z</time></trkpt><trkpt lat="44.4639329" lon="9.4245975"><ele>885.3333333333333</ele><time>2026-03-22T11:05:34.681Z</time></trkpt><trkpt lat="44.4640069" lon="9.4245669"><ele>883.5</ele><time>2026-03-22T11:05:35.68Z</time></trkpt><trkpt lat="44.4640891" lon="9.4245531"><ele>881.6666666666667</ele><time>2026-03-22T11:05:36.681Z</time></trkpt><trkpt lat="44.4641733" lon="9.424543"><ele>879.8333333333334</ele><time>2026-03-22T11:05:37.682Z</time></trkpt><trkpt lat="44.4642622" lon="9.4245289"><ele>878.0</ele><time>2026-03-22T11:05:38.682Z</time></trkpt><trkpt lat="44.4643368" lon="9.4244996"><ele>878.0000000000001</ele><time>2026-03-22T11:05:39.681Z</time></trkpt><trkpt lat="44.4644496" lon="9.4245092"><ele>878.0</ele><time>2026-03-22T11:05:41.681Z</time></trkpt><trkpt lat="44.4645143" lon="9.4245364"><ele>878.0</ele><time>2026-03-22T11:05:42.681Z</time></trkpt><trkpt lat="44.4645814" lon="9.4245781"><ele>878.0</ele><time>2026-03-22T11:05:43.681Z</time></trkpt><trkpt lat="44.4646494" lon="9.4246207"><ele>878.0000000000001</ele><time>2026-03-22T11:05:44.681Z</time></trkpt><trkpt lat="44.4647351" lon="9.4246691"><ele>878.0</ele><time>2026-03-22T11:05:45.681Z</time></trkpt><trkpt lat="44.4647745" lon="9.424766"><ele>882.8333333333334</ele><time>2026-03-22T11:05:46.681Z</time></trkpt><trkpt lat="44.4648326" lon="9.424836"><ele>887.6666666666667</ele><time>2026-03-22T11:05:47.681Z</time></trkpt><trkpt lat="44.4648886" lon="9.4248998"><ele>892.5</ele><time>2026-03-22T11:05:48.682Z</time></trkpt><trkpt lat="44.4649751" lon="9.4249851"><ele>897.3333333333333</ele><time>2026-03-22T11:05:50.681Z</time></trkpt><trkpt lat="44.4649821" lon="9.4250996"><ele>902.1666666666666</ele><time>2026-03-22T11:05:53.682Z</time></trkpt><trkpt lat="44.4649313" lon="9.4251929"><ele>907.0</ele><time>2026-03-22T11:05:55.681Z</time></trkpt><trkpt lat="44.4648061" lon="9.4252169"><ele>906.9999999999999</ele><time>2026-03-22T11:05:57.681Z</time></trkpt><trkpt lat="44.4647343" lon="9.4252202"><ele>907.0</ele><time>2026-03-22T11:05:58.681Z</time></trkpt><trkpt lat="44.4646631" lon="9.4252125"><ele>907.0</ele><time>2026-03-22T11:05:59.681Z</time></trkpt><trkpt lat="44.4645873" lon="9.4252262"><ele>907.0</ele><time>2026-03-22T11:06:00.681Z</time></trkpt><trkpt lat="44.4645103" lon="9.4252403"><ele>906.9999999999999</ele><time>2026-03-22T11:06:01.681Z</time></trkpt><trkpt lat="44.4644342" lon="9.4252607"><ele>907.0</ele><time>2026-03-22T11:06:02.681Z</time></trkpt><trkpt lat="44.4643558" lon="9.4252761"><ele>906.2</ele><time>2026-03-22T11:06:03.681Z</time></trkpt><trkpt lat="44.4642719" lon="9.4253099"><ele>905.4000000000001</ele><time>2026-03-22T11:06:04.682Z</time></trkpt><trkpt lat="44.4641781" lon="9.4253155"><ele>904.5999999999999</ele><time>2026-03-22T11:06:05.682Z</time></trkpt><trkpt lat="44.4640907" lon="9.4253422"><ele>903.8</ele><time>2026-03-22T11:06:06.681Z</time></trkpt><trkpt lat="44.4640002" lon="9.4253654"><ele>903.0</ele><time>2026-03-22T11:06:07.681Z</time></trkpt><trkpt lat="44.4639099" lon="9.4253955"><ele>903.0</ele><time>2026-03-22T11:06:08.681Z</time></trkpt><trkpt lat="44.4638188" lon="9.4254388"><ele>903.0</ele><time>2026-03-22T11:06:09.682Z</time></trkpt><trkpt lat="44.4637193" lon="9.4254902"><ele>903.0</ele><time>2026-03-22T11:06:10.682Z</time></trkpt><trkpt lat="44.4636386" lon="9.4255319"><ele>903.0</ele><time>2026-03-22T11:06:11.68Z</time></trkpt><trkpt lat="44.4635722" lon="9.4255509"><ele>903.0</ele><time>2026-03-22T11:06:12.681Z</time></trkpt><trkpt lat="44.4635083" lon="9.4255798"><ele>903.0</ele><time>2026-03-22T11:06:13.681Z</time></trkpt><trkpt lat="44.4634496" lon="9.4256295"><ele>905.2857142857142</ele><time>2026-03-22T11:06:14.681Z</time></trkpt><trkpt lat="44.4633899" lon="9.4256883"><ele>907.5714285714286</ele><time>2026-03-22T11:06:15.681Z</time></trkpt><trkpt lat="44.4633279" lon="9.4257519"><ele>909.8571428571429</ele><time>2026-03-22T11:06:16.682Z</time></trkpt><trkpt lat="44.4632756" lon="9.4258281"><ele>912.1428571428571</ele><time>2026-03-22T11:06:17.681Z</time></trkpt><trkpt lat="44.4632321" lon="9.4259152"><ele>914.4285714285713</ele><time>2026-03-22T11:06:18.681Z</time></trkpt><trkpt lat="44.4631914" lon="9.4259939"><ele>916.7142857142857</ele><time>2026-03-22T11:06:19.681Z</time></trkpt><trkpt lat="44.4631598" lon="9.4260757"><ele>919.0</ele><time>2026-03-22T11:06:20.682Z</time></trkpt><trkpt lat="44.4631373" lon="9.4261694"><ele>918.9999999999999</ele><time>2026-03-22T11:06:21.682Z</time></trkpt><trkpt lat="44.4631309" lon="9.4262638"><ele>919.0</ele><time>2026-03-22T11:06:22.681Z</time></trkpt><trkpt lat="44.4631337" lon="9.4263628"><ele>919.0</ele><time>2026-03-22T11:06:23.681Z</time></trkpt><trkpt lat="44.4631436" lon="9.4264568"><ele>919.0</ele><time>2026-03-22T11:06:24.681Z</time></trkpt><trkpt lat="44.4631792" lon="9.4266017"><ele>918.9999999999999</ele><time>2026-03-22T11:06:26.681Z</time></trkpt><trkpt lat="44.4632378" lon="9.4266885"><ele>919.0</ele><time>2026-03-22T11:06:28.681Z</time></trkpt><trkpt lat="44.4633536" lon="9.4266881"><ele>921.6666666666666</ele><time>2026-03-22T11:06:30.681Z</time></trkpt><trkpt lat="44.4634306" lon="9.4266309"><ele>924.3333333333333</ele><time>2026-03-22T11:06:31.681Z</time></trkpt><trkpt lat="44.4634971" lon="9.4265615"><ele>927.0</ele><time>2026-03-22T11:06:32.681Z</time></trkpt><trkpt lat="44.4635703" lon="9.4265024"><ele>929.6666666666667</ele><time>2026-03-22T11:06:33.681Z</time></trkpt><trkpt lat="44.4636582" lon="9.4264423"><ele>932.3333333333334</ele><time>2026-03-22T11:06:34.681Z</time></trkpt><trkpt lat="44.4637411" lon="9.4263858"><ele>935.0</ele><time>2026-03-22T11:06:35.681Z</time></trkpt><trkpt lat="44.4638162" lon="9.426349"><ele>933.8</ele><time>2026-03-22T11:06:36.681Z</time></trkpt><trkpt lat="44.4638985" lon="9.4263294"><ele>932.6</ele><time>2026-03-22T11:06:37.682Z</time></trkpt><trkpt lat="44.4639877" lon="9.4263134"><ele>931.4000000000001</ele><time>2026-03-22T11:06:38.681Z</time></trkpt><trkpt lat="44.464086" lon="9.4262898"><ele>930.2</ele><time>2026-03-22T11:06:39.681Z</time></trkpt><trkpt lat="44.4641778" lon="9.4262808"><ele>929.0</ele><time>2026-03-22T11:06:40.681Z</time></trkpt><trkpt lat="44.4642882" lon="9.4262778"><ele>929.0</ele><time>2026-03-22T11:06:41.681Z</time></trkpt><trkpt lat="44.4643955" lon="9.426297"><ele>929.0000000000001</ele><time>2026-03-22T11:06:42.681Z</time></trkpt><trkpt lat="44.4644842" lon="9.4263275"><ele>929.0000000000001</ele><time>2026-03-22T11:06:43.683Z</time></trkpt><trkpt lat="44.464563" lon="9.4263541"><ele>929.0</ele><time>2026-03-22T11:06:44.681Z</time></trkpt><trkpt lat="44.4646477" lon="9.4263686"><ele>929.0</ele><time>2026-03-22T11:06:45.681Z</time></trkpt><trkpt lat="44.4647325" lon="9.4263821"><ele>934.8333333333334</ele><time>2026-03-22T11:06:46.681Z</time></trkpt><trkpt lat="44.4648271" lon="9.4263785"><ele>940.6666666666667</ele><time>2026-03-22T11:06:48.681Z</time></trkpt><trkpt lat="44.4648909" lon="9.42641"><ele>946.5</ele><time>2026-03-22T11:06:50.681Z</time></trkpt><trkpt lat="44.4649294" lon="9.4265184"><ele>952.3333333333333</ele><time>2026-03-22T11:06:53.681Z</time></trkpt><trkpt lat="44.4648782" lon="9.4265925"><ele>958.1666666666666</ele><time>2026-03-22T11:06:55.681Z</time></trkpt><trkpt lat="44.4648071" lon="9.4265982"><ele>964.0</ele><time>2026-03-22T11:06:56.681Z</time></trkpt><trkpt lat="44.4647117" lon="9.4265917"><ele>963.9999999999999</ele><time>2026-03-22T11:06:57.681Z</time></trkpt><trkpt lat="44.464624" lon="9.4265867"><ele>964.0</ele><time>2026-03-22T11:06:58.681Z</time></trkpt><trkpt lat="44.4645435" lon="9.4265842"><ele>964.0</ele><time>2026-03-22T11:06:59.681Z</time></trkpt><trkpt lat="44.464466" lon="9.4266052"><ele>964.0</ele><time>2026-03-22T11:07:00.681Z</time></trkpt><trkpt lat="44.4643916" lon="9.4266386"><ele>963.9999999999999</ele><time>2026-03-22T11:07:01.681Z</time></trkpt><trkpt lat="44.4643142" lon="9.4266728"><ele>964.0</ele><time>2026-03-22T11:07:02.682Z</time></trkpt><trkpt lat="44.4642293" lon="9.4267189"><ele>962.8333333333333</ele><time>2026-03-22T11:07:03.681Z</time></trkpt><trkpt lat="44.4641453" lon="9.4267678"><ele>961.6666666666666</ele><time>2026-03-22T11:07:04.68Z</time></trkpt><trkpt lat="44.4640649" lon="9.4268408"><ele>960.5</ele><time>2026-03-22T11:07:05.681Z</time></trkpt><trkpt lat="44.4639905" lon="9.4269121"><ele>959.3333333333333</ele><time>2026-03-22T11:07:06.681Z</time></trkpt><trkpt lat="44.4639104" lon="9.426971"><ele>958.1666666666666</ele><time>2026-03-22T11:07:07.681Z</time></trkpt><trkpt lat="44.4638443" lon="9.4270096"><ele>957.0</ele><time>2026-03-22T11:07:08.681Z</time></trkpt><trkpt lat="44.4637366" lon="9.4270746"><ele>954.4000000000001</ele><time>2026-03-22T11:07:10.681Z</time></trkpt><trkpt lat="44.4636942" lon="9.4272026"><ele>951.8000000000001</ele><time>2026-03-22T11:07:12.681Z</time></trkpt><trkpt lat="44.4637235" lon="9.4273202"><ele>949.2</ele><time>2026-03-22T11:07:13.681Z</time></trkpt><trkpt lat="44.4637529" lon="9.4274357"><ele>946.6</ele><time>2026-03-22T11:07:14.682Z</time></trkpt><trkpt lat="44.4637744" lon="9.4275441"><ele>944.0</ele><time>2026-03-22T11:07:15.681Z</time></trkpt><trkpt lat="44.4638011" lon="9.4276778"><ele>952.0</ele><time>2026-03-22T11:07:16.681Z</time></trkpt><trkpt lat="44.4638251" lon="9.4278054"><ele>960.0000000000001</ele><time>2026-03-22T11:07:17.681Z</time></trkpt><trkpt lat="44.4638597" lon="9.4279363"><ele>968.0000000000001</ele><time>2026-03-22T11:07:18.681Z</time></trkpt><trkpt lat="44.4639031" lon="9.4280514"><ele>976.0</ele><time>2026-03-22T11:07:19.681Z</time></trkpt><trkpt lat="44.4639388" lon="9.428156"><ele>984.0</ele><time>2026-03-22T11:07:20.681Z</time></trkpt><trkpt lat="44.4639643" lon="9.4282639"><ele>987.0</ele><time>2026-03-22T11:07:21.681Z</time></trkpt><trkpt lat="44.463985" lon="9.4283981"><ele>990.0000000000001</ele><time>2026-03-22T11:07:22.681Z</time></trkpt><trkpt lat="44.463992" lon="9.4285355"><ele>993.0000000000001</ele><time>2026-03-22T11:07:23.681Z</time></trkpt><trkpt lat="44.4639982" lon="9.4286611"><ele>996.0</ele><time>2026-03-22T11:07:24.681Z</time></trkpt><trkpt lat="44.4640263" lon="9.428779"><ele>999.0</ele><time>2026-03-22T11:07:25.681Z</time></trkpt><trkpt lat="44.4640589" lon="9.4288962"><ele>999.0</ele><time>2026-03-22T11:07:26.681Z</time></trkpt><trkpt lat="44.4640781" lon="9.4290135"><ele>999.0</ele><time>2026-03-22T11:07:27.681Z</time></trkpt><trkpt lat="44.4640847" lon="9.4291287"><ele>999.0</ele><time>2026-03-22T11:07:28.682Z</time></trkpt><trkpt lat="44.4640722" lon="9.429243"><ele>999.0</ele><time>2026-03-22T11:07:29.681Z</time></trkpt><trkpt lat="44.4640556" lon="9.4293595"><ele>999.0</ele><time>2026-03-22T11:07:30.681Z</time></trkpt><trkpt lat="44.4640512" lon="9.4294854"><ele>999.0</ele><time>2026-03-22T11:07:31.682Z</time></trkpt><trkpt lat="44.4640554" lon="9.4296253"><ele>999.1666666666666</ele><time>2026-03-22T11:07:32.681Z</time></trkpt><trkpt lat="44.4640654" lon="9.4297618"><ele>999.3333333333333</ele><time>2026-03-22T11:07:33.681Z</time></trkpt><trkpt lat="44.4640743" lon="9.4298876"><ele>999.5</ele><time>2026-03-22T11:07:34.68Z</time></trkpt><trkpt lat="44.4640716" lon="9.4300049"><ele>999.6666666666666</ele><time>2026-03-22T11:07:35.681Z</time></trkpt><trkpt lat="44.4640649" lon="9.430098"><ele>999.8333333333333</ele><time>2026-03-22T11:07:36.681Z</time></trkpt><trkpt lat="44.4640648" lon="9.430234"><ele>1000.0</ele><time>2026-03-22T11:07:38.681Z</time></trkpt><trkpt lat="44.4641285" lon="9.4303644"><ele>999.9999999999999</ele><time>2026-03-22T11:07:40.682Z</time></trkpt><trkpt lat="44.4641809" lon="9.4304279"><ele>1000.0</ele><time>2026-03-22T11:07:41.681Z</time></trkpt><trkpt lat="44.4642438" lon="9.4304826"><ele>1000.0</ele><time>2026-03-22T11:07:42.681Z</time></trkpt><trkpt lat="44.4643116" lon="9.4305247"><ele>1000.0</ele><time>2026-03-22T11:07:43.681Z</time></trkpt><trkpt lat="44.4643899" lon="9.4305601"><ele>999.9999999999999</ele><time>2026-03-22T11:07:44.681Z</time></trkpt><trkpt lat="44.4644688" lon="9.4305862"><ele>1000.0</ele><time>2026-03-22T11:07:45.681Z</time></trkpt><trkpt lat="44.4645365" lon="9.4306061"><ele>999.8333333333333</ele><time>2026-03-22T11:07:46.681Z</time></trkpt><trkpt lat="44.4645983" lon="9.4306419"><ele>999.6666666666666</ele><time>2026-03-22T11:07:47.681Z</time></trkpt><trkpt lat="44.4646619" lon="9.4306992"><ele>999.5</ele><time>2026-03-22T11:07:48.681Z</time></trkpt><trkpt lat="44.4647266" lon="9.4307711"><ele>999.3333333333333</ele><time>2026-03-22T11:07:49.681Z</time></trkpt><trkpt lat="44.4647803" lon="9.4308414"><ele>999.1666666666666</ele><time>2026-03-22T11:07:50.681Z</time></trkpt><trkpt lat="44.4648417" lon="9.4309493"><ele>999.0</ele><time>2026-03-22T11:07:52.681Z</time></trkpt><trkpt lat="44.4648342" lon="9.4310939"><ele>999.0</ele><time>2026-03-22T11:07:54.682Z</time></trkpt><trkpt lat="44.4647279" lon="9.4312035"><ele>999.0000000000001</ele><time>2026-03-22T11:07:56.681Z</time></trkpt><trkpt lat="44.4646342" lon="9.4312515"><ele>999.0000000000001</ele><time>2026-03-22T11:07:57.681Z</time></trkpt><trkpt lat="44.4645447" lon="9.4312996"><ele>999.0</ele><time>2026-03-22T11:07:58.681Z</time></trkpt><trkpt lat="44.464454" lon="9.4313744"><ele>999.0</ele><time>2026-03-22T11:08:00.681Z</time></trkpt><trkpt lat="44.4644319" lon="9.4314974"><ele>999.6</ele><time>2026-03-22T11:08:02.681Z</time></trkpt><trkpt lat="44.4644913" lon="9.4316182"><ele>1000.2</ele><time>2026-03-22T11:08:04.681Z</time></trkpt><trkpt lat="44.4645437" lon="9.4316936"><ele>1000.8000000000001</ele><time>2026-03-22T11:08:05.681Z</time></trkpt><trkpt lat="44.4645894" lon="9.4317669"><ele>1001.4000000000001</ele><time>2026-03-22T11:08:06.681Z</time></trkpt><trkpt lat="44.4646509" lon="9.4319054"><ele>1002.0</ele><time>2026-03-22T11:08:08.681Z</time></trkpt><trkpt lat="44.4646749" lon="9.4320473"><ele>1003.3333333333334</ele><time>2026-03-22T11:08:10.681Z</time></trkpt><trkpt lat="44.4646224" lon="9.4321779"><ele>1004.6666666666667</ele><time>2026-03-22T11:08:12.682Z</time></trkpt><trkpt lat="44.4645652" lon="9.4322304"><ele>1006.0</ele><time>2026-03-22T11:08:13.681Z</time></trkpt><trkpt lat="44.4645034" lon="9.4322917"><ele>1007.3333333333334</ele><time>2026-03-22T11:08:14.681Z</time></trkpt><trkpt lat="44.4644566" lon="9.4323688"><ele>1008.6666666666667</ele><time>2026-03-22T11:08:15.681Z</time></trkpt><trkpt lat="44.4644288" lon="9.432475"><ele>1010.0</ele><time>2026-03-22T11:08:16.681Z</time></trkpt><trkpt lat="44.4644131" lon="9.4326143"><ele>1010.0</ele><time>2026-03-22T11:08:17.681Z</time></trkpt><trkpt lat="44.4644088" lon="9.4327677"><ele>1010.0</ele><time>2026-03-22T11:08:18.682Z</time></trkpt><trkpt lat="44.4644064" lon="9.4329027"><ele>1010.0</ele><time>2026-03-22T11:08:19.681Z</time></trkpt><trkpt lat="44.4644105" lon="9.4330238"><ele>1010.0</ele><time>2026-03-22T11:08:20.681Z</time></trkpt><trkpt lat="44.4644275" lon="9.4331575"><ele>1010.0</ele><time>2026-03-22T11:08:21.682Z</time></trkpt><trkpt lat="44.4644451" lon="9.4333077"><ele>1012.4</ele><time>2026-03-22T11:08:22.681Z</time></trkpt><trkpt lat="44.4644567" lon="9.4334543"><ele>1014.8</ele><time>2026-03-22T11:08:23.681Z</time></trkpt><trkpt lat="44.4644684" lon="9.4335904"><ele>1017.2</ele><time>2026-03-22T11:08:24.681Z</time></trkpt><trkpt lat="44.4644896" lon="9.433725"><ele>1019.6</ele><time>2026-03-22T11:08:25.682Z</time></trkpt><trkpt lat="44.4645125" lon="9.4338466"><ele>1022.0</ele><time>2026-03-22T11:08:26.681Z</time></trkpt><trkpt lat="44.4645249" lon="9.433958"><ele>1024.4</ele><time>2026-03-22T11:08:27.681Z</time></trkpt><trkpt lat="44.4645146" lon="9.4340739"><ele>1026.8000000000002</ele><time>2026-03-22T11:08:28.682Z</time></trkpt><trkpt lat="44.4644859" lon="9.4342117"><ele>1029.2</ele><time>2026-03-22T11:08:29.681Z</time></trkpt><trkpt lat="44.4644518" lon="9.4343761"><ele>1031.6000000000001</ele><time>2026-03-22T11:08:30.681Z</time></trkpt><trkpt lat="44.4644204" lon="9.4345259"><ele>1034.0</ele><time>2026-03-22T11:08:31.681Z</time></trkpt><trkpt lat="44.4643893" lon="9.4346491"><ele>1035.0</ele><time>2026-03-22T11:08:32.681Z</time></trkpt><trkpt lat="44.4643502" lon="9.4347678"><ele>1036.0</ele><time>2026-03-22T11:08:33.681Z</time></trkpt><trkpt lat="44.4642984" lon="9.4348753"><ele>1037.0</ele><time>2026-03-22T11:08:34.681Z</time></trkpt><trkpt lat="44.4642401" lon="9.4349709"><ele>1038.0</ele><time>2026-03-22T11:08:35.681Z</time></trkpt><trkpt lat="44.4641811" lon="9.435048"><ele>1039.0</ele><time>2026-03-22T11:08:36.681Z</time></trkpt><trkpt lat="44.4641324" lon="9.435114"><ele>1040.0</ele><time>2026-03-22T11:08:37.681Z</time></trkpt><trkpt lat="44.4640875" lon="9.435229"><ele>1040.0</ele><time>2026-03-22T11:08:39.681Z</time></trkpt><trkpt lat="44.4641304" lon="9.4353399"><ele>1040.0</ele><time>2026-03-22T11:08:41.681Z</time></trkpt><trkpt lat="44.4642217" lon="9.4353719"><ele>1040.0</ele><time>2026-03-22T11:08:43.681Z</time></trkpt><trkpt lat="44.4643196" lon="9.4352863"><ele>1040.0</ele><time>2026-03-22T11:08:45.681Z</time></trkpt><trkpt lat="44.464361" lon="9.4352188"><ele>1040.0</ele><time>2026-03-22T11:08:46.681Z</time></trkpt><trkpt lat="44.4644228" lon="9.4351468"><ele>1040.0</ele><time>2026-03-22T11:08:47.681Z</time></trkpt><trkpt lat="44.4645057" lon="9.4350759"><ele>1040.0</ele><time>2026-03-22T11:08:48.682Z</time></trkpt><trkpt lat="44.4645927" lon="9.4350012"><ele>1040.0</ele><time>2026-03-22T11:08:49.681Z</time></trkpt><trkpt lat="44.4646832" lon="9.434902"><ele>1040.0</ele><time>2026-03-22T11:08:50.681Z</time></trkpt><trkpt lat="44.4647667" lon="9.4347997"><ele>1040.0</ele><time>2026-03-22T11:08:51.68Z</time></trkpt><trkpt lat="44.4648351" lon="9.4347281"><ele>1040.0</ele><time>2026-03-22T11:08:52.681Z</time></trkpt><trkpt lat="44.4648901" lon="9.4346606"><ele>1043.3333333333335</ele><time>2026-03-22T11:08:53.681Z</time></trkpt><trkpt lat="44.4649351" lon="9.4345794"><ele>1046.6666666666667</ele><time>2026-03-22T11:08:54.681Z</time></trkpt><trkpt lat="44.4649651" lon="9.4344978"><ele>1050.0</ele><time>2026-03-22T11:08:55.681Z</time></trkpt><trkpt lat="44.4649876" lon="9.4344126"><ele>1053.3333333333333</ele><time>2026-03-22T11:08:56.681Z</time></trkpt><trkpt lat="44.4650047" lon="9.4342996"><ele>1056.6666666666665</ele><time>2026-03-22T11:08:57.681Z</time></trkpt><trkpt lat="44.4650247" lon="9.4341519"><ele>1060.0</ele><time>2026-03-22T11:08:58.681Z</time></trkpt><trkpt lat="44.4650447" lon="9.4340027"><ele>1059.9999999999998</ele><time>2026-03-22T11:08:59.681Z</time></trkpt><trkpt lat="44.4650533" lon="9.4338881"><ele>1060.0</ele><time>2026-03-22T11:09:00.681Z</time></trkpt><trkpt lat="44.4650624" lon="9.4337958"><ele>1060.0</ele><time>2026-03-22T11:09:01.681Z</time></trkpt><trkpt lat="44.4650884" lon="9.433715"><ele>1060.0</ele><time>2026-03-22T11:09:02.681Z</time></trkpt><trkpt lat="44.465133" lon="9.4336461"><ele>1060.0</ele><time>2026-03-22T11:09:03.681Z</time></trkpt><trkpt lat="44.4651915" lon="9.4335921"><ele>1059.9999999999998</ele><time>2026-03-22T11:09:04.68Z</time></trkpt><trkpt lat="44.4652589" lon="9.4335574"><ele>1060.0</ele><time>2026-03-22T11:09:05.682Z</time></trkpt><trkpt lat="44.4653333" lon="9.4335351"><ele>1059.0</ele><time>2026-03-22T11:09:06.681Z</time></trkpt><trkpt lat="44.4654118" lon="9.4335221"><ele>1058.0</ele><time>2026-03-22T11:09:07.681Z</time></trkpt><trkpt lat="44.4654953" lon="9.4335194"><ele>1057.0</ele><time>2026-03-22T11:09:08.681Z</time></trkpt><trkpt lat="44.4655826" lon="9.4335316"><ele>1056.0</ele><time>2026-03-22T11:09:09.681Z</time></trkpt><trkpt lat="44.4656677" lon="9.4335662"><ele>1055.0</ele><time>2026-03-22T11:09:10.681Z</time></trkpt><trkpt lat="44.4657432" lon="9.433619"><ele>1054.0</ele><time>2026-03-22T11:09:11.681Z</time></trkpt><trkpt lat="44.4658129" lon="9.4336782"><ele>1057.3333333333333</ele><time>2026-03-22T11:09:12.681Z</time></trkpt><trkpt lat="44.4658666" lon="9.4337312"><ele>1060.6666666666665</ele><time>2026-03-22T11:09:13.681Z</time></trkpt><trkpt lat="44.4659357" lon="9.4338039"><ele>1064.0</ele><time>2026-03-22T11:09:15.681Z</time></trkpt><trkpt lat="44.466023" lon="9.4337782"><ele>1067.3333333333333</ele><time>2026-03-22T11:09:17.681Z</time></trkpt><trkpt lat="44.4660824" lon="9.4336511"><ele>1070.6666666666667</ele><time>2026-03-22T11:09:19.681Z</time></trkpt><trkpt lat="44.4660721" lon="9.4335379"><ele>1074.0</ele><time>2026-03-22T11:09:20.681Z</time></trkpt><trkpt lat="44.4660765" lon="9.4334239"><ele>1074.0</ele><time>2026-03-22T11:09:21.681Z</time></trkpt><trkpt lat="44.4661126" lon="9.4333311"><ele>1074.0</ele><time>2026-03-22T11:09:22.681Z</time></trkpt><trkpt lat="44.4661703" lon="9.433264"><ele>1074.0</ele><time>2026-03-22T11:09:23.681Z</time></trkpt><trkpt lat="44.466251" lon="9.4332092"><ele>1074.0</ele><time>2026-03-22T11:09:24.681Z</time></trkpt><trkpt lat="44.4663493" lon="9.433165"><ele>1074.0</ele><time>2026-03-22T11:09:25.681Z</time></trkpt><trkpt lat="44.4664475" lon="9.4331306"><ele>1074.0</ele><time>2026-03-22T11:09:26.68Z</time></trkpt><trkpt lat="44.4665365" lon="9.4330902"><ele>1074.8</ele><time>2026-03-22T11:09:27.68Z</time></trkpt><trkpt lat="44.4666199" lon="9.4330414"><ele>1075.6000000000001</ele><time>2026-03-22T11:09:28.682Z</time></trkpt><trkpt lat="44.4667106" lon="9.432998"><ele>1076.4</ele><time>2026-03-22T11:09:29.681Z</time></trkpt><trkpt lat="44.4668074" lon="9.4329675"><ele>1077.2</ele><time>2026-03-22T11:09:30.681Z</time></trkpt><trkpt lat="44.4668982" lon="9.432954"><ele>1078.0</ele><time>2026-03-22T11:09:31.681Z</time></trkpt><trkpt lat="44.4670068" lon="9.432953"><ele>1082.8</ele><time>2026-03-22T11:09:32.681Z</time></trkpt><trkpt lat="44.4671184" lon="9.4329527"><ele>1087.6</ele><time>2026-03-22T11:09:33.681Z</time></trkpt><trkpt lat="44.4671978" lon="9.4329612"><ele>1092.4</ele><time>2026-03-22T11:09:34.681Z</time></trkpt><trkpt lat="44.4673022" lon="9.4329849"><ele>1097.2</ele><time>2026-03-22T11:09:36.681Z</time></trkpt><trkpt lat="44.4674114" lon="9.4329052"><ele>1102.0</ele><time>2026-03-22T11:09:38.681Z</time></trkpt><trkpt lat="44.4674634" lon="9.432845"><ele>1102.0</ele><time>2026-03-22T11:09:39.681Z</time></trkpt><trkpt lat="44.4675178" lon="9.4327638"><ele>1102.0</ele><time>2026-03-22T11:09:40.681Z</time></trkpt><trkpt lat="44.4675717" lon="9.4326668"><ele>1102.0</ele><time>2026-03-22T11:09:41.681Z</time></trkpt><trkpt lat="44.467621" lon="9.4325771"><ele>1102.0</ele><time>2026-03-22T11:09:42.681Z</time></trkpt><trkpt lat="44.4676772" lon="9.4325039"><ele>1102.0</ele><time>2026-03-22T11:09:43.681Z</time></trkpt><trkpt lat="44.4677399" lon="9.4324533"><ele>1102.0</ele><time>2026-03-22T11:09:44.68Z</time></trkpt><trkpt lat="44.4678077" lon="9.4324219"><ele>1102.0</ele><time>2026-03-22T11:09:45.682Z</time></trkpt><trkpt lat="44.4678906" lon="9.4323968"><ele>1102.0</ele><time>2026-03-22T11:09:46.681Z</time></trkpt><trkpt lat="44.4679731" lon="9.432365"><ele>1102.0</ele><time>2026-03-22T11:09:47.681Z</time></trkpt><trkpt lat="44.4680569" lon="9.432326"><ele>1102.0</ele><time>2026-03-22T11:09:48.681Z</time></trkpt><trkpt lat="44.4681405" lon="9.4322729"><ele>1102.0</ele><time>2026-03-22T11:09:49.681Z</time></trkpt><trkpt lat="44.4682205" lon="9.4322115"><ele>1102.0</ele><time>2026-03-22T11:09:50.681Z</time></trkpt><trkpt lat="44.4683081" lon="9.4321369"><ele>1102.8</ele><time>2026-03-22T11:09:51.682Z</time></trkpt><trkpt lat="44.4684074" lon="9.4320446"><ele>1103.6</ele><time>2026-03-22T11:09:52.682Z</time></trkpt><trkpt lat="44.4685058" lon="9.4319438"><ele>1104.3999999999999</ele><time>2026-03-22T11:09:53.681Z</time></trkpt><trkpt lat="44.4685913" lon="9.4318515"><ele>1105.2</ele><time>2026-03-22T11:09:54.681Z</time></trkpt><trkpt lat="44.4686649" lon="9.4317733"><ele>1106.0</ele><time>2026-03-22T11:09:55.681Z</time></trkpt><trkpt lat="44.4687248" lon="9.4317124"><ele>1110.5</ele><time>2026-03-22T11:09:56.682Z</time></trkpt><trkpt lat="44.4687777" lon="9.4316596"><ele>1115.0</ele><time>2026-03-22T11:09:57.682Z</time></trkpt><trkpt lat="44.4688328" lon="9.4316165"><ele>1119.5</ele><time>2026-03-22T11:09:58.681Z</time></trkpt><trkpt lat="44.4689595" lon="9.431596"><ele>1124.0</ele><time>2026-03-22T11:10:00.681Z</time></trkpt><trkpt lat="44.4690267" lon="9.4316106"><ele>1128.5</ele><time>2026-03-22T11:10:01.681Z</time></trkpt><trkpt lat="44.469137" lon="9.431663"><ele>1133.0</ele><time>2026-03-22T11:10:03.681Z</time></trkpt><trkpt lat="44.4692459" lon="9.431598"><ele>1133.0</ele><time>2026-03-22T11:10:05.681Z</time></trkpt><trkpt lat="44.4692933" lon="9.431521"><ele>1133.0</ele><time>2026-03-22T11:10:06.681Z</time></trkpt><trkpt lat="44.4693612" lon="9.4314325"><ele>1133.0</ele><time>2026-03-22T11:10:07.681Z</time></trkpt><trkpt lat="44.4694423" lon="9.431351"><ele>1133.0</ele><time>2026-03-22T11:10:08.682Z</time></trkpt><trkpt lat="44.4695229" lon="9.4312634"><ele>1133.0</ele><time>2026-03-22T11:10:09.681Z</time></trkpt><trkpt lat="44.4695973" lon="9.4311667"><ele>1134.8</ele><time>2026-03-22T11:10:10.681Z</time></trkpt><trkpt lat="44.4696653" lon="9.4310702"><ele>1136.6</ele><time>2026-03-22T11:10:11.681Z</time></trkpt><trkpt lat="44.4697321" lon="9.4309858"><ele>1138.4</ele><time>2026-03-22T11:10:12.681Z</time></trkpt><trkpt lat="44.4698057" lon="9.4309173"><ele>1140.2</ele><time>2026-03-22T11:10:13.681Z</time></trkpt><trkpt lat="44.4698953" lon="9.4308655"><ele>1142.0</ele><time>2026-03-22T11:10:14.681Z</time></trkpt><trkpt lat="44.4699832" lon="9.4308133"><ele>1142.0</ele><time>2026-03-22T11:10:15.681Z</time></trkpt><trkpt lat="44.4700579" lon="9.4307583"><ele>1142.0</ele><time>2026-03-22T11:10:16.682Z</time></trkpt><trkpt lat="44.4701255" lon="9.4307124"><ele>1142.0</ele><time>2026-03-22T11:10:17.681Z</time></trkpt><trkpt lat="44.4701867" lon="9.4306624"><ele>1142.0</ele><time>2026-03-22T11:10:18.681Z</time></trkpt><trkpt lat="44.4702364" lon="9.4305972"><ele>1142.0</ele><time>2026-03-22T11:10:19.681Z</time></trkpt><trkpt lat="44.4702966" lon="9.4304542"><ele>1142.0</ele><time>2026-03-22T11:10:21.682Z</time></trkpt><trkpt lat="44.4702823" lon="9.4302766"><ele>1142.0</ele><time>2026-03-22T11:10:23.682Z</time></trkpt><trkpt lat="44.4702398" lon="9.4301717"><ele>1142.0</ele><time>2026-03-22T11:10:24.681Z</time></trkpt><trkpt lat="44.470202" lon="9.4300526"><ele>1142.0</ele><time>2026-03-22T11:10:25.681Z</time></trkpt><trkpt lat="44.4701917" lon="9.429934"><ele>1142.0</ele><time>2026-03-22T11:10:26.681Z</time></trkpt><trkpt lat="44.4702057" lon="9.4298145"><ele>1142.0</ele><time>2026-03-22T11:10:27.681Z</time></trkpt><trkpt lat="44.4702434" lon="9.4297004"><ele>1142.0</ele><time>2026-03-22T11:10:28.681Z</time></trkpt><trkpt lat="44.4702877" lon="9.4296007"><ele>1141.5</ele><time>2026-03-22T11:10:29.681Z</time></trkpt><trkpt lat="44.4703209" lon="9.4295183"><ele>1141.0</ele><time>2026-03-22T11:10:30.681Z</time></trkpt><trkpt lat="44.4703515" lon="9.429371"><ele>1140.5</ele><time>2026-03-22T11:10:32.681Z</time></trkpt><trkpt lat="44.4704226" lon="9.4292969"><ele>1140.0</ele><time>2026-03-22T11:10:34.681Z</time></trkpt><trkpt lat="44.4705178" lon="9.4293332"><ele>1139.5</ele><time>2026-03-22T11:10:36.681Z</time></trkpt><trkpt lat="44.4705587" lon="9.4294037"><ele>1139.0</ele><time>2026-03-22T11:10:37.681Z</time></trkpt><trkpt lat="44.4705937" lon="9.4294919"><ele>1145.8</ele><time>2026-03-22T11:10:38.681Z</time></trkpt><trkpt lat="44.4706167" lon="9.4295922"><ele>1152.6000000000001</ele><time>2026-03-22T11:10:39.681Z</time></trkpt><trkpt lat="44.4706387" lon="9.4297072"><ele>1159.4</ele><time>2026-03-22T11:10:40.681Z</time></trkpt><trkpt lat="44.4706572" lon="9.4298561"><ele>1166.2</ele><time>2026-03-22T11:10:41.681Z</time></trkpt><trkpt lat="44.4706702" lon="9.4300088"><ele>1173.0</ele><time>2026-03-22T11:10:42.682Z</time></trkpt><trkpt lat="44.4706796" lon="9.4301748"><ele>1173.0</ele><time>2026-03-22T11:10:43.681Z</time></trkpt><trkpt lat="44.47069" lon="9.4303107"><ele>1173.0</ele><time>2026-03-22T11:10:44.681Z</time></trkpt><trkpt lat="44.4707027" lon="9.4304084"><ele>1173.0</ele><time>2026-03-22T11:10:45.681Z</time></trkpt><trkpt lat="44.4707267" lon="9.4305118"><ele>1173.0</ele><time>2026-03-22T11:10:46.681Z</time></trkpt><trkpt lat="44.4707613" lon="9.4306"><ele>1173.0</ele><time>2026-03-22T11:10:47.681Z</time></trkpt><trkpt lat="44.4708095" lon="9.4307405"><ele>1173.0</ele><time>2026-03-22T11:10:49.681Z</time></trkpt><trkpt lat="44.4708232" lon="9.4308284"><ele>1174.0</ele><time>2026-03-22T11:10:50.681Z</time></trkpt><trkpt lat="44.4707817" lon="9.4309382"><ele>1175.0</ele><time>2026-03-22T11:10:51.681Z</time></trkpt><trkpt lat="44.4707378" lon="9.4310462"><ele>1176.0</ele><time>2026-03-22T11:10:52.681Z</time></trkpt><trkpt lat="44.4707033" lon="9.4311653"><ele>1177.0</ele><time>2026-03-22T11:10:53.681Z</time></trkpt><trkpt lat="44.4706756" lon="9.4312838"><ele>1178.0</ele><time>2026-03-22T11:10:54.681Z</time></trkpt><trkpt lat="44.4706416" lon="9.4313903"><ele>1179.0</ele><time>2026-03-22T11:10:55.681Z</time></trkpt><trkpt lat="44.4705961" lon="9.4314786"><ele>1182.2</ele><time>2026-03-22T11:10:56.681Z</time></trkpt><trkpt lat="44.4705349" lon="9.4315444"><ele>1185.4</ele><time>2026-03-22T11:10:57.681Z</time></trkpt><trkpt lat="44.4704675" lon="9.4316"><ele>1188.6</ele><time>2026-03-22T11:10:58.681Z</time></trkpt><trkpt lat="44.470364" lon="9.4316748"><ele>1191.8</ele><time>2026-03-22T11:11:00.681Z</time></trkpt><trkpt lat="44.470301" lon="9.4318214"><ele>1195.0</ele><time>2026-03-22T11:11:02.681Z</time></trkpt><trkpt lat="44.4702741" lon="9.4319168"><ele>1194.0</ele><time>2026-03-22T11:11:03.681Z</time></trkpt><trkpt lat="44.4702514" lon="9.4320207"><ele>1193.0</ele><time>2026-03-22T11:11:04.681Z</time></trkpt><trkpt lat="44.4702289" lon="9.4321153"><ele>1192.0</ele><time>2026-03-22T11:11:05.681Z</time></trkpt><trkpt lat="44.4702036" lon="9.4322011"><ele>1191.0</ele><time>2026-03-22T11:11:06.681Z</time></trkpt><trkpt lat="44.4701031" lon="9.4323364"><ele>1190.0</ele><time>2026-03-22T11:11:08.681Z</time></trkpt><trkpt lat="44.4700381" lon="9.4324045"><ele>1189.0</ele><time>2026-03-22T11:11:09.681Z</time></trkpt><trkpt lat="44.4699714" lon="9.4324735"><ele>1189.0</ele><time>2026-03-22T11:11:10.681Z</time></trkpt><trkpt lat="44.4699098" lon="9.4325384"><ele>1189.0</ele><time>2026-03-22T11:11:11.681Z</time></trkpt><trkpt lat="44.4698505" lon="9.4326054"><ele>1189.0</ele><time>2026-03-22T11:11:12.682Z</time></trkpt><trkpt lat="44.4698011" lon="9.4326835"><ele>1189.0</ele><time>2026-03-22T11:11:13.681Z</time></trkpt><trkpt lat="44.4697545" lon="9.4327771"><ele>1189.0</ele><time>2026-03-22T11:11:14.681Z</time></trkpt><trkpt lat="44.4697246" lon="9.4328774"><ele>1189.0</ele><time>2026-03-22T11:11:15.681Z</time></trkpt><trkpt lat="44.4697085" lon="9.4329654"><ele>1187.8333333333333</ele><time>2026-03-22T11:11:16.681Z</time></trkpt><trkpt lat="44.4696589" lon="9.4330786"><ele>1186.6666666666665</ele><time>2026-03-22T11:11:18.682Z</time></trkpt><trkpt lat="44.4695429" lon="9.4331345"><ele>1185.5</ele><time>2026-03-22T11:11:20.681Z</time></trkpt><trkpt lat="44.4694902" lon="9.4331938"><ele>1184.3333333333333</ele><time>2026-03-22T11:11:21.681Z</time></trkpt><trkpt lat="44.4694575" lon="9.4332871"><ele>1183.1666666666667</ele><time>2026-03-22T11:11:22.682Z</time></trkpt><trkpt lat="44.4694464" lon="9.4333984"><ele>1182.0</ele><time>2026-03-22T11:11:23.681Z</time></trkpt><trkpt lat="44.4694471" lon="9.4335226"><ele>1182.0</ele><time>2026-03-22T11:11:24.681Z</time></trkpt><trkpt lat="44.4694576" lon="9.4336517"><ele>1182.0</ele><time>2026-03-22T11:11:25.681Z</time></trkpt><trkpt lat="44.4694785" lon="9.4338012"><ele>1182.0</ele><time>2026-03-22T11:11:26.681Z</time></trkpt><trkpt lat="44.4695044" lon="9.4339514"><ele>1182.0</ele><time>2026-03-22T11:11:27.681Z</time></trkpt><trkpt lat="44.4695219" lon="9.434092"><ele>1182.0</ele><time>2026-03-22T11:11:28.681Z</time></trkpt><trkpt lat="44.4695293" lon="9.4342308"><ele>1183.3333333333333</ele><time>2026-03-22T11:11:29.682Z</time></trkpt><trkpt lat="44.4694992" lon="9.4343664"><ele>1184.6666666666667</ele><time>2026-03-22T11:11:30.682Z</time></trkpt><trkpt lat="44.4694804" lon="9.4344956"><ele>1186.0</ele><time>2026-03-22T11:11:31.681Z</time></trkpt><trkpt lat="44.4694739" lon="9.4346195"><ele>1187.3333333333335</ele><time>2026-03-22T11:11:32.681Z</time></trkpt><trkpt lat="44.4694786" lon="9.4347323"><ele>1188.6666666666667</ele><time>2026-03-22T11:11:33.682Z</time></trkpt><trkpt lat="44.4694736" lon="9.4348334"><ele>1190.0</ele><time>2026-03-22T11:11:34.681Z</time></trkpt><trkpt lat="44.4694462" lon="9.4349129"><ele>1192.5</ele><time>2026-03-22T11:11:35.683Z</time></trkpt><trkpt lat="44.4693961" lon="9.4349849"><ele>1195.0</ele><time>2026-03-22T11:11:36.682Z</time></trkpt><trkpt lat="44.46934" lon="9.4350611"><ele>1197.5</ele><time>2026-03-22T11:11:37.682Z</time></trkpt><trkpt lat="44.4692784" lon="9.4351536"><ele>1200.0</ele><time>2026-03-22T11:11:38.682Z</time></trkpt><trkpt lat="44.4692232" lon="9.4352536"><ele>1202.5</ele><time>2026-03-22T11:11:39.681Z</time></trkpt><trkpt lat="44.4691879" lon="9.4353302"><ele>1205.0</ele><time>2026-03-22T11:11:40.681Z</time></trkpt><trkpt lat="44.4691722" lon="9.4354748"><ele>1209.0</ele><time>2026-03-22T11:11:42.681Z</time></trkpt><trkpt lat="44.4692272" lon="9.4356394"><ele>1213.0</ele><time>2026-03-22T11:11:44.681Z</time></trkpt><trkpt lat="44.4692657" lon="9.4357205"><ele>1217.0</ele><time>2026-03-22T11:11:45.681Z</time></trkpt><trkpt lat="44.4692992" lon="9.4358508"><ele>1221.0</ele><time>2026-03-22T11:11:47.681Z</time></trkpt><trkpt lat="44.4692349" lon="9.4359905"><ele>1225.0</ele><time>2026-03-22T11:11:49.682Z</time></trkpt><trkpt lat="44.4691739" lon="9.4360569"><ele>1225.0</ele><time>2026-03-22T11:11:50.681Z</time></trkpt><trkpt lat="44.4691167" lon="9.4361412"><ele>1225.0</ele><time>2026-03-22T11:11:51.681Z</time></trkpt><trkpt lat="44.4690739" lon="9.4362492"><ele>1225.0</ele><time>2026-03-22T11:11:52.681Z</time></trkpt><trkpt lat="44.46904" lon="9.4363678"><ele>1225.0</ele><time>2026-03-22T11:11:53.682Z</time></trkpt><trkpt lat="44.4690053" lon="9.4364897"><ele>1225.0</ele><time>2026-03-22T11:11:54.681Z</time></trkpt><trkpt lat="44.4689761" lon="9.4366038"><ele>1225.0</ele><time>2026-03-22T11:11:55.681Z</time></trkpt><trkpt lat="44.4689535" lon="9.4366922"><ele>1228.4</ele><time>2026-03-22T11:11:56.681Z</time></trkpt><trkpt lat="44.4688758" lon="9.4367866"><ele>1231.8</ele><time>2026-03-22T11:11:58.681Z</time></trkpt><trkpt lat="44.4688026" lon="9.4368049"><ele>1235.2</ele><time>2026-03-22T11:11:59.68Z</time></trkpt><trkpt lat="44.4687349" lon="9.4368284"><ele>1238.6</ele><time>2026-03-22T11:12:00.681Z</time></trkpt><trkpt lat="44.4686528" lon="9.4369556"><ele>1242.0</ele><time>2026-03-22T11:12:02.681Z</time></trkpt><trkpt lat="44.4686211" lon="9.4370635"><ele>1240.5</ele><time>2026-03-22T11:12:03.682Z</time></trkpt><trkpt lat="44.4686117" lon="9.4371865"><ele>1239.0</ele><time>2026-03-22T11:12:04.681Z</time></trkpt><trkpt lat="44.468603" lon="9.4373016"><ele>1237.5</ele><time>2026-03-22T11:12:05.681Z</time></trkpt><trkpt lat="44.4685825" lon="9.4374015"><ele>1236.0</ele><time>2026-03-22T11:12:06.682Z</time></trkpt><trkpt lat="44.4685491" lon="9.4374887"><ele>1234.5</ele><time>2026-03-22T11:12:07.681Z</time></trkpt><trkpt lat="44.4685044" lon="9.4375717"><ele>1233.0</ele><time>2026-03-22T11:12:08.681Z</time></trkpt><trkpt lat="44.468448" lon="9.4376658"><ele>1233.0</ele><time>2026-03-22T11:12:09.682Z</time></trkpt><trkpt lat="44.4683866" lon="9.4377796"><ele>1233.0</ele><time>2026-03-22T11:12:10.681Z</time></trkpt><trkpt lat="44.4683291" lon="9.4379065"><ele>1233.0</ele><time>2026-03-22T11:12:11.681Z</time></trkpt><trkpt lat="44.4682682" lon="9.4380451"><ele>1233.0</ele><time>2026-03-22T11:12:12.681Z</time></trkpt><trkpt lat="44.4682084" lon="9.4381674"><ele>1233.0</ele><time>2026-03-22T11:12:13.681Z</time></trkpt><trkpt lat="44.468157" lon="9.4382698"><ele>1236.2857142857142</ele><time>2026-03-22T11:12:14.681Z</time></trkpt><trkpt lat="44.4681078" lon="9.4383702"><ele>1239.5714285714284</ele><time>2026-03-22T11:12:15.681Z</time></trkpt><trkpt lat="44.4680633" lon="9.4384612"><ele>1242.8571428571427</ele><time>2026-03-22T11:12:16.681Z</time></trkpt><trkpt lat="44.4680245" lon="9.4385453"><ele>1246.142857142857</ele><time>2026-03-22T11:12:17.681Z</time></trkpt><trkpt lat="44.4679959" lon="9.4386295"><ele>1249.4285714285713</ele><time>2026-03-22T11:12:18.681Z</time></trkpt><trkpt lat="44.4679835" lon="9.4387193"><ele>1252.7142857142856</ele><time>2026-03-22T11:12:19.681Z</time></trkpt><trkpt lat="44.46799" lon="9.4388141"><ele>1256.0</ele><time>2026-03-22T11:12:20.682Z</time></trkpt><trkpt lat="44.4680087" lon="9.4389141"><ele>1257.8333333333335</ele><time>2026-03-22T11:12:21.682Z</time></trkpt><trkpt lat="44.468036" lon="9.4390169"><ele>1259.6666666666667</ele><time>2026-03-22T11:12:22.681Z</time></trkpt><trkpt lat="44.468072" lon="9.4391219"><ele>1261.5</ele><time>2026-03-22T11:12:23.681Z</time></trkpt><trkpt lat="44.4681118" lon="9.4392314"><ele>1263.3333333333333</ele><time>2026-03-22T11:12:24.681Z</time></trkpt><trkpt lat="44.4681488" lon="9.4393531"><ele>1265.1666666666665</ele><time>2026-03-22T11:12:25.681Z</time></trkpt><trkpt lat="44.4681854" lon="9.439473"><ele>1267.0</ele><time>2026-03-22T11:12:26.681Z</time></trkpt><trkpt lat="44.4682185" lon="9.4395867"><ele>1267.0</ele><time>2026-03-22T11:12:27.681Z</time></trkpt><trkpt lat="44.4682491" lon="9.4396921"><ele>1267.0</ele><time>2026-03-22T11:12:28.681Z</time></trkpt><trkpt lat="44.4682836" lon="9.4397827"><ele>1267.0</ele><time>2026-03-22T11:12:29.681Z</time></trkpt><trkpt lat="44.4683258" lon="9.4398694"><ele>1267.0</ele><time>2026-03-22T11:12:30.681Z</time></trkpt><trkpt lat="44.4683633" lon="9.4399722"><ele>1267.0</ele><time>2026-03-22T11:12:31.681Z</time></trkpt><trkpt lat="44.4683879" lon="9.4400829"><ele>1267.0</ele><time>2026-03-22T11:12:32.682Z</time></trkpt><trkpt lat="44.4684141" lon="9.4401884"><ele>1267.0</ele><time>2026-03-22T11:12:33.682Z</time></trkpt><trkpt lat="44.4684583" lon="9.4402857"><ele>1267.0</ele><time>2026-03-22T11:12:34.681Z</time></trkpt><trkpt lat="44.4684992" lon="9.4403726"><ele>1267.0</ele><time>2026-03-22T11:12:35.681Z</time></trkpt><trkpt lat="44.4685253" lon="9.4405306"><ele>1267.0</ele><time>2026-03-22T11:12:37.682Z</time></trkpt><trkpt lat="44.4685102" lon="9.4406199"><ele>1267.0</ele><time>2026-03-22T11:12:38.681Z</time></trkpt><trkpt lat="44.4685082" lon="9.4407178"><ele>1267.0</ele><time>2026-03-22T11:12:40.681Z</time></trkpt><trkpt lat="44.4685791" lon="9.4407544"><ele>1267.0</ele><time>2026-03-22T11:12:43.681Z</time></trkpt><trkpt lat="44.4686169" lon="9.4405573"><ele>1267.0</ele><time>2026-03-22T11:12:45.681Z</time></trkpt><trkpt lat="44.4686443" lon="9.4404232"><ele>1267.0</ele><time>2026-03-22T11:12:46.681Z</time></trkpt><trkpt lat="44.4686725" lon="9.4402965"><ele>1267.0</ele><time>2026-03-22T11:12:47.681Z</time></trkpt><trkpt lat="44.4686901" lon="9.4401766"><ele>1267.0</ele><time>2026-03-22T11:12:48.681Z</time></trkpt><trkpt lat="44.4686951" lon="9.440047"><ele>1267.0</ele><time>2026-03-22T11:12:49.681Z</time></trkpt><trkpt lat="44.4686871" lon="9.4398962"><ele>1267.0</ele><time>2026-03-22T11:12:50.681Z</time></trkpt><trkpt lat="44.4686856" lon="9.4397463"><ele>1267.0</ele><time>2026-03-22T11:12:51.68Z</time></trkpt><trkpt lat="44.4686979" lon="9.4396177"><ele>1267.0</ele><time>2026-03-22T11:12:52.682Z</time></trkpt><trkpt lat="44.4687032" lon="9.4395135"><ele>1267.0</ele><time>2026-03-22T11:12:53.681Z</time></trkpt><trkpt lat="44.4686873" lon="9.43942"><ele>1267.0</ele><time>2026-03-22T11:12:54.681Z</time></trkpt><trkpt lat="44.4686574" lon="9.4393263"><ele>1267.0</ele><time>2026-03-22T11:12:55.681Z</time></trkpt><trkpt lat="44.4686402" lon="9.4392288"><ele>1267.0</ele><time>2026-03-22T11:12:56.681Z</time></trkpt><trkpt lat="44.4686378" lon="9.4391199"><ele>1267.0</ele><time>2026-03-22T11:12:57.681Z</time></trkpt><trkpt lat="44.4686431" lon="9.4389974"><ele>1267.0</ele><time>2026-03-22T11:12:58.681Z</time></trkpt><trkpt lat="44.468655" lon="9.4388681"><ele>1267.0</ele><time>2026-03-22T11:12:59.681Z</time></trkpt><trkpt lat="44.4686766" lon="9.4387323"><ele>1264.8</ele><time>2026-03-22T11:13:00.681Z</time></trkpt><trkpt lat="44.4687086" lon="9.4386138"><ele>1262.6</ele><time>2026-03-22T11:13:01.681Z</time></trkpt><trkpt lat="44.4687483" lon="9.4385016"><ele>1260.3999999999999</ele><time>2026-03-22T11:13:02.681Z</time></trkpt><trkpt lat="44.4687964" lon="9.4383888"><ele>1258.2</ele><time>2026-03-22T11:13:03.682Z</time></trkpt><trkpt lat="44.4688491" lon="9.4382792"><ele>1256.0</ele><time>2026-03-22T11:13:04.68Z</time></trkpt><trkpt lat="44.4688953" lon="9.4381848"><ele>1258.0</ele><time>2026-03-22T11:13:05.68Z</time></trkpt><trkpt lat="44.4689399" lon="9.4380829"><ele>1260.0</ele><time>2026-03-22T11:13:06.681Z</time></trkpt><trkpt lat="44.4689723" lon="9.437985"><ele>1262.0</ele><time>2026-03-22T11:13:07.681Z</time></trkpt><trkpt lat="44.4690139" lon="9.4378951"><ele>1264.0</ele><time>2026-03-22T11:13:08.681Z</time></trkpt><trkpt lat="44.4690651" lon="9.4378236"><ele>1266.0</ele><time>2026-03-22T11:13:09.681Z</time></trkpt><trkpt lat="44.4691122" lon="9.4377482"><ele>1268.0</ele><time>2026-03-22T11:13:10.681Z</time></trkpt><trkpt lat="44.4691976" lon="9.4376401"><ele>1268.0</ele><time>2026-03-22T11:13:12.681Z</time></trkpt><trkpt lat="44.4692621" lon="9.4376163"><ele>1268.0</ele><time>2026-03-22T11:13:13.681Z</time></trkpt><trkpt lat="44.469393" lon="9.4375903"><ele>1268.0</ele><time>2026-03-22T11:13:15.682Z</time></trkpt><trkpt lat="44.4694602" lon="9.4375716"><ele>1268.0</ele><time>2026-03-22T11:13:16.681Z</time></trkpt><trkpt lat="44.4695187" lon="9.4375048"><ele>1268.0</ele><time>2026-03-22T11:13:17.681Z</time></trkpt><trkpt lat="44.4695709" lon="9.4374213"><ele>1268.0</ele><time>2026-03-22T11:13:18.681Z</time></trkpt><trkpt lat="44.4696237" lon="9.4373217"><ele>1269.4</ele><time>2026-03-22T11:13:19.682Z</time></trkpt><trkpt lat="44.4696857" lon="9.4372193"><ele>1270.8</ele><time>2026-03-22T11:13:20.68Z</time></trkpt><trkpt lat="44.4697573" lon="9.4371033"><ele>1272.2</ele><time>2026-03-22T11:13:21.681Z</time></trkpt><trkpt lat="44.4698303" lon="9.4369907"><ele>1273.6</ele><time>2026-03-22T11:13:22.681Z</time></trkpt><trkpt lat="44.4698995" lon="9.4368915"><ele>1275.0</ele><time>2026-03-22T11:13:23.681Z</time></trkpt><trkpt lat="44.4699891" lon="9.436783"><ele>1275.0</ele><time>2026-03-22T11:13:24.681Z</time></trkpt><trkpt lat="44.470066" lon="9.4367017"><ele>1275.0</ele><time>2026-03-22T11:13:25.681Z</time></trkpt><trkpt lat="44.470142" lon="9.4366327"><ele>1275.0</ele><time>2026-03-22T11:13:26.681Z</time></trkpt><trkpt lat="44.4702083" lon="9.4365815"><ele>1275.0</ele><time>2026-03-22T11:13:27.681Z</time></trkpt><trkpt lat="44.4703111" lon="9.4365162"><ele>1275.0</ele><time>2026-03-22T11:13:29.681Z</time></trkpt><trkpt lat="44.470372" lon="9.4364222"><ele>1272.4</ele><time>2026-03-22T11:13:31.681Z</time></trkpt><trkpt lat="44.4703545" lon="9.4362534"><ele>1269.8</ele><time>2026-03-22T11:13:33.681Z</time></trkpt><trkpt lat="44.4703339" lon="9.4361173"><ele>1267.2</ele><time>2026-03-22T11:13:34.682Z</time></trkpt><trkpt lat="44.4703198" lon="9.4359707"><ele>1264.6</ele><time>2026-03-22T11:13:35.681Z</time></trkpt><trkpt lat="44.4703232" lon="9.4358661"><ele>1262.0</ele><time>2026-03-22T11:13:36.681Z</time></trkpt><trkpt lat="44.470354" lon="9.4357316"><ele>1262.0</ele><time>2026-03-22T11:13:38.681Z</time></trkpt><trkpt lat="44.4703851" lon="9.4356409"><ele>1262.0</ele><time>2026-03-22T11:13:41.681Z</time></trkpt><trkpt lat="44.4704149" lon="9.4355335"><ele>1262.0</ele><time>2026-03-22T11:13:45.681Z</time></trkpt><trkpt lat="44.4704239" lon="9.4354237"><ele>1262.0</ele><time>2026-03-22T11:13:47.681Z</time></trkpt><trkpt lat="44.4704151" lon="9.4353265"><ele>1262.0</ele><time>2026-03-22T11:13:49.681Z</time></trkpt><trkpt lat="44.4704073" lon="9.4352191"><ele>1262.0</ele><time>2026-03-22T11:13:51.681Z</time></trkpt><trkpt lat="44.470449" lon="9.4350808"><ele>1267.8</ele><time>2026-03-22T11:13:53.681Z</time></trkpt><trkpt lat="44.4705101" lon="9.4349323"><ele>1273.6</ele><time>2026-03-22T11:13:55.681Z</time></trkpt><trkpt lat="44.4705803" lon="9.4348138"><ele>1279.3999999999999</ele><time>2026-03-22T11:13:57.681Z</time></trkpt><trkpt lat="44.4706631" lon="9.4347502"><ele>1285.2</ele><time>2026-03-22T11:13:59.681Z</time></trkpt><trkpt lat="44.4707814" lon="9.4347258"><ele>1291.0</ele><time>2026-03-22T11:14:01.681Z</time></trkpt><trkpt lat="44.4708882" lon="9.4347102"><ele>1289.1666666666665</ele><time>2026-03-22T11:14:03.681Z</time></trkpt><trkpt lat="44.4709634" lon="9.4346265"><ele>1287.3333333333333</ele><time>2026-03-22T11:14:05.681Z</time></trkpt><trkpt lat="44.4709865" lon="9.4344768"><ele>1285.5</ele><time>2026-03-22T11:14:07.681Z</time></trkpt><trkpt lat="44.4709917" lon="9.4343779"><ele>1283.6666666666667</ele><time>2026-03-22T11:14:08.682Z</time></trkpt><trkpt lat="44.4710092" lon="9.4342683"><ele>1281.8333333333335</ele><time>2026-03-22T11:14:09.681Z</time></trkpt><trkpt lat="44.4710344" lon="9.4341623"><ele>1280.0</ele><time>2026-03-22T11:14:10.681Z</time></trkpt><trkpt lat="44.4710615" lon="9.434062"><ele>1280.0</ele><time>2026-03-22T11:14:11.681Z</time></trkpt><trkpt lat="44.4710914" lon="9.4339639"><ele>1280.0</ele><time>2026-03-22T11:14:12.681Z</time></trkpt><trkpt lat="44.4711307" lon="9.4338708"><ele>1280.0</ele><time>2026-03-22T11:14:13.682Z</time></trkpt><trkpt lat="44.4711787" lon="9.433789"><ele>1280.0</ele><time>2026-03-22T11:14:14.681Z</time></trkpt><trkpt lat="44.4712358" lon="9.4337181"><ele>1280.0</ele><time>2026-03-22T11:14:15.681Z</time></trkpt><trkpt lat="44.471297" lon="9.4336642"><ele>1280.0</ele><time>2026-03-22T11:14:16.681Z</time></trkpt><trkpt lat="44.4713619" lon="9.4336271"><ele>1280.0</ele><time>2026-03-22T11:14:17.681Z</time></trkpt><trkpt lat="44.4714287" lon="9.433588"><ele>1282.0</ele><time>2026-03-22T11:14:18.681Z</time></trkpt><trkpt lat="44.4714823" lon="9.4335414"><ele>1284.0</ele><time>2026-03-22T11:14:19.68Z</time></trkpt><trkpt lat="44.4715541" lon="9.4333992"><ele>1286.0</ele><time>2026-03-22T11:14:21.681Z</time></trkpt><trkpt lat="44.4716042" lon="9.4332517"><ele>1288.0</ele><time>2026-03-22T11:14:23.681Z</time></trkpt><trkpt lat="44.4716965" lon="9.4331499"><ele>1290.0</ele><time>2026-03-22T11:14:25.681Z</time></trkpt><trkpt lat="44.471763" lon="9.4330959"><ele>1290.0</ele><time>2026-03-22T11:14:26.682Z</time></trkpt><trkpt lat="44.4718288" lon="9.4330267"><ele>1290.0</ele><time>2026-03-22T11:14:27.681Z</time></trkpt><trkpt lat="44.4718838" lon="9.4329369"><ele>1290.0</ele><time>2026-03-22T11:14:28.681Z</time></trkpt><trkpt lat="44.4719298" lon="9.4328483"><ele>1290.0</ele><time>2026-03-22T11:14:29.681Z</time></trkpt><trkpt lat="44.4719797" lon="9.432765"><ele>1290.0</ele><time>2026-03-22T11:14:30.681Z</time></trkpt><trkpt lat="44.4720293" lon="9.4326842"><ele>1290.0</ele><time>2026-03-22T11:14:31.681Z</time></trkpt><trkpt lat="44.4720694" lon="9.4326048"><ele>1284.4</ele><time>2026-03-22T11:14:32.681Z</time></trkpt><trkpt lat="44.4721047" lon="9.4324431"><ele>1278.8</ele><time>2026-03-22T11:14:34.681Z</time></trkpt><trkpt lat="44.4721153" lon="9.4322996"><ele>1273.2</ele><time>2026-03-22T11:14:36.681Z</time></trkpt><trkpt lat="44.4721894" lon="9.4322198"><ele>1267.6</ele><time>2026-03-22T11:14:38.681Z</time></trkpt><trkpt lat="44.4722991" lon="9.4321723"><ele>1262.0</ele><time>2026-03-22T11:14:40.681Z</time></trkpt><trkpt lat="44.4723676" lon="9.4321445"><ele>1268.2</ele><time>2026-03-22T11:14:41.681Z</time></trkpt><trkpt lat="44.4724274" lon="9.4319906"><ele>1274.4</ele><time>2026-03-22T11:14:43.681Z</time></trkpt><trkpt lat="44.472463" lon="9.4319125"><ele>1280.6000000000001</ele><time>2026-03-22T11:14:44.681Z</time></trkpt><trkpt lat="44.4724829" lon="9.4317637"><ele>1286.8000000000002</ele><time>2026-03-22T11:14:46.681Z</time></trkpt><trkpt lat="44.4724663" lon="9.4316197"><ele>1293.0</ele><time>2026-03-22T11:14:48.681Z</time></trkpt><trkpt lat="44.4724982" lon="9.4314406"><ele>1290.0</ele><time>2026-03-22T11:14:50.681Z</time></trkpt><trkpt lat="44.4725567" lon="9.4313033"><ele>1287.0</ele><time>2026-03-22T11:14:52.681Z</time></trkpt><trkpt lat="44.4726057" lon="9.4311896"><ele>1284.0</ele><time>2026-03-22T11:14:54.681Z</time></trkpt><trkpt lat="44.4726475" lon="9.4310722"><ele>1281.0</ele><time>2026-03-22T11:14:56.681Z</time></trkpt><trkpt lat="44.4727321" lon="9.4309638"><ele>1278.0</ele><time>2026-03-22T11:14:58.681Z</time></trkpt><trkpt lat="44.4728072" lon="9.4308765"><ele>1278.0</ele><time>2026-03-22T11:15:00.682Z</time></trkpt><trkpt lat="44.4728251" lon="9.430749"><ele>1278.0</ele><time>2026-03-22T11:15:02.681Z</time></trkpt><trkpt lat="44.4727949" lon="9.4306681"><ele>1278.0</ele><time>2026-03-22T11:15:03.681Z</time></trkpt><trkpt lat="44.4727412" lon="9.4305923"><ele>1278.0</ele><time>2026-03-22T11:15:04.681Z</time></trkpt><trkpt lat="44.4727133" lon="9.4304527"><ele>1278.0</ele><time>2026-03-22T11:15:06.681Z</time></trkpt><trkpt lat="44.4727614" lon="9.4303363"><ele>1278.0</ele><time>2026-03-22T11:15:08.682Z</time></trkpt><trkpt lat="44.4728669" lon="9.4303042"><ele>1281.2</ele><time>2026-03-22T11:15:10.681Z</time></trkpt><trkpt lat="44.472975" lon="9.4303433"><ele>1284.4</ele><time>2026-03-22T11:15:12.681Z</time></trkpt><trkpt lat="44.4730427" lon="9.430357"><ele>1287.6000000000001</ele><time>2026-03-22T11:15:13.681Z</time></trkpt><trkpt lat="44.4731088" lon="9.430363"><ele>1290.8</ele><time>2026-03-22T11:15:14.68Z</time></trkpt><trkpt lat="44.4731997" lon="9.430342"><ele>1294.0</ele><time>2026-03-22T11:15:16.681Z</time></trkpt><trkpt lat="44.4733179" lon="9.4302724"><ele>1294.0</ele><time>2026-03-22T11:15:18.681Z</time></trkpt><trkpt lat="44.4733869" lon="9.4302106"><ele>1294.0</ele><time>2026-03-22T11:15:19.681Z</time></trkpt><trkpt lat="44.4734332" lon="9.4301474"><ele>1294.0</ele><time>2026-03-22T11:15:20.681Z</time></trkpt><trkpt lat="44.4735176" lon="9.4300337"><ele>1294.0</ele><time>2026-03-22T11:15:22.681Z</time></trkpt><trkpt lat="44.4735902" lon="9.4299168"><ele>1294.0</ele><time>2026-03-22T11:15:24.681Z</time></trkpt><trkpt lat="44.473649" lon="9.4297951"><ele>1294.0</ele><time>2026-03-22T11:15:26.681Z</time></trkpt><trkpt lat="44.4736884" lon="9.4296447"><ele>1294.0</ele><time>2026-03-22T11:15:28.682Z</time></trkpt><trkpt lat="44.47367" lon="9.4295503"><ele>1294.0</ele><time>2026-03-22T11:15:29.683Z</time></trkpt><trkpt lat="44.4736488" lon="9.4294637"><ele>1294.0</ele><time>2026-03-22T11:15:30.681Z</time></trkpt><trkpt lat="44.473617" lon="9.4293371"><ele>1294.0</ele><time>2026-03-22T11:15:31.681Z</time></trkpt><trkpt lat="44.4736007" lon="9.4292161"><ele>1294.0</ele><time>2026-03-22T11:15:32.681Z</time></trkpt><trkpt lat="44.4735918" lon="9.4291092"><ele>1293.5</ele><time>2026-03-22T11:15:33.681Z</time></trkpt><trkpt lat="44.4735975" lon="9.4289975"><ele>1293.0</ele><time>2026-03-22T11:15:34.681Z</time></trkpt><trkpt lat="44.4736018" lon="9.4288858"><ele>1292.5</ele><time>2026-03-22T11:15:35.681Z</time></trkpt><trkpt lat="44.4735972" lon="9.428778"><ele>1292.0</ele><time>2026-03-22T11:15:36.681Z</time></trkpt><trkpt lat="44.4735838" lon="9.4286491"><ele>1291.5</ele><time>2026-03-22T11:15:37.681Z</time></trkpt><trkpt lat="44.4735647" lon="9.4285073"><ele>1291.0</ele><time>2026-03-22T11:15:38.681Z</time></trkpt><trkpt lat="44.4735422" lon="9.4283938"><ele>1291.0</ele><time>2026-03-22T11:15:39.682Z</time></trkpt><trkpt lat="44.4735236" lon="9.4283046"><ele>1291.0</ele><time>2026-03-22T11:15:40.682Z</time></trkpt><trkpt lat="44.4735096" lon="9.4282156"><ele>1291.0</ele><time>2026-03-22T11:15:41.681Z</time></trkpt><trkpt lat="44.4735148" lon="9.4280549"><ele>1291.0</ele><time>2026-03-22T11:15:43.681Z</time></trkpt><trkpt lat="44.4735745" lon="9.4279189"><ele>1291.0</ele><time>2026-03-22T11:15:45.681Z</time></trkpt><trkpt lat="44.4736445" lon="9.4278535"><ele>1291.0</ele><time>2026-03-22T11:15:46.682Z</time></trkpt><trkpt lat="44.4737377" lon="9.4277916"><ele>1294.8333333333333</ele><time>2026-03-22T11:15:47.681Z</time></trkpt><trkpt lat="44.4738222" lon="9.4277343"><ele>1298.6666666666665</ele><time>2026-03-22T11:15:48.681Z</time></trkpt><trkpt lat="44.4738824" lon="9.4276732"><ele>1302.5</ele><time>2026-03-22T11:15:49.681Z</time></trkpt><trkpt lat="44.4739606" lon="9.4275381"><ele>1306.3333333333333</ele><time>2026-03-22T11:15:51.681Z</time></trkpt><trkpt lat="44.4739915" lon="9.4274425"><ele>1310.1666666666667</ele><time>2026-03-22T11:15:52.681Z</time></trkpt><trkpt lat="44.4740297" lon="9.4273451"><ele>1314.0</ele><time>2026-03-22T11:15:53.681Z</time></trkpt><trkpt lat="44.4740665" lon="9.427243"><ele>1314.0</ele><time>2026-03-22T11:15:54.681Z</time></trkpt><trkpt lat="44.4741071" lon="9.4271476"><ele>1314.0</ele><time>2026-03-22T11:15:55.681Z</time></trkpt><trkpt lat="44.4742126" lon="9.4270264"><ele>1314.0</ele><time>2026-03-22T11:15:57.681Z</time></trkpt><trkpt lat="44.474278" lon="9.4269703"><ele>1314.0</ele><time>2026-03-22T11:15:58.681Z</time></trkpt><trkpt lat="44.4743342" lon="9.4269099"><ele>1314.0</ele><time>2026-03-22T11:15:59.681Z</time></trkpt><trkpt lat="44.4744153" lon="9.4267968"><ele>1312.8000000000002</ele><time>2026-03-22T11:16:01.681Z</time></trkpt><trkpt lat="44.4744557" lon="9.4266553"><ele>1311.6000000000001</ele><time>2026-03-22T11:16:03.681Z</time></trkpt><trkpt lat="44.4744709" lon="9.4265418"><ele>1310.4</ele><time>2026-03-22T11:16:05.681Z</time></trkpt><trkpt lat="44.4744169" lon="9.4264017"><ele>1309.2</ele><time>2026-03-22T11:16:07.681Z</time></trkpt><trkpt lat="44.4743622" lon="9.4263489"><ele>1308.0</ele><time>2026-03-22T11:16:08.681Z</time></trkpt><trkpt lat="44.4742968" lon="9.4262865"><ele>1308.0</ele><time>2026-03-22T11:16:09.682Z</time></trkpt><trkpt lat="44.4742337" lon="9.4262197"><ele>1308.0</ele><time>2026-03-22T11:16:10.681Z</time></trkpt><trkpt lat="44.4741819" lon="9.4261611"><ele>1308.0</ele><time>2026-03-22T11:16:11.682Z</time></trkpt><trkpt lat="44.4741046" lon="9.4260231"><ele>1308.0</ele><time>2026-03-22T11:16:13.681Z</time></trkpt><trkpt lat="44.4740765" lon="9.425838"><ele>1308.0</ele><time>2026-03-22T11:16:15.681Z</time></trkpt><trkpt lat="44.4740857" lon="9.4257507"><ele>1308.0</ele><time>2026-03-22T11:16:16.681Z</time></trkpt><trkpt lat="44.4741067" lon="9.4256605"><ele>1308.0</ele><time>2026-03-22T11:16:17.681Z</time></trkpt><trkpt lat="44.4741253" lon="9.4255652"><ele>1308.0</ele><time>2026-03-22T11:16:18.682Z</time></trkpt><trkpt lat="44.47421" lon="9.4254307"><ele>1308.0</ele><time>2026-03-22T11:16:20.681Z</time></trkpt><trkpt lat="44.4742694" lon="9.4253825"><ele>1308.0</ele><time>2026-03-22T11:16:21.681Z</time></trkpt><trkpt lat="44.4743366" lon="9.4253443"><ele>1308.0</ele><time>2026-03-22T11:16:22.681Z</time></trkpt><trkpt lat="44.4744097" lon="9.4253057"><ele>1308.0</ele><time>2026-03-22T11:16:23.681Z</time></trkpt><trkpt lat="44.4744682" lon="9.4252664"><ele>1308.0</ele><time>2026-03-22T11:16:24.681Z</time></trkpt><trkpt lat="44.4745241" lon="9.4252126"><ele>1308.0</ele><time>2026-03-22T11:16:25.681Z</time></trkpt><trkpt lat="44.4745777" lon="9.4251578"><ele>1308.0</ele><time>2026-03-22T11:16:26.681Z</time></trkpt><trkpt lat="44.4746431" lon="9.425076"><ele>1308.0</ele><time>2026-03-22T11:16:27.681Z</time></trkpt><trkpt lat="44.4747165" lon="9.4250054"><ele>1308.0</ele><time>2026-03-22T11:16:28.681Z</time></trkpt><trkpt lat="44.4747832" lon="9.4249516"><ele>1308.5714285714284</ele><time>2026-03-22T11:16:29.682Z</time></trkpt><trkpt lat="44.4748453" lon="9.4248917"><ele>1309.142857142857</ele><time>2026-03-22T11:16:30.681Z</time></trkpt><trkpt lat="44.4749036" lon="9.4248297"><ele>1309.7142857142858</ele><time>2026-03-22T11:16:31.681Z</time></trkpt><trkpt lat="44.4749571" lon="9.424778"><ele>1310.2857142857142</ele><time>2026-03-22T11:16:32.682Z</time></trkpt><trkpt lat="44.4750136" lon="9.4247089"><ele>1310.857142857143</ele><time>2026-03-22T11:16:33.681Z</time></trkpt><trkpt lat="44.4750723" lon="9.4246383"><ele>1311.4285714285713</ele><time>2026-03-22T11:16:34.681Z</time></trkpt><trkpt lat="44.475128" lon="9.4245775"><ele>1312.0</ele><time>2026-03-22T11:16:35.681Z</time></trkpt><trkpt lat="44.4751965" lon="9.4245178"><ele>1312.0</ele><time>2026-03-22T11:16:36.681Z</time></trkpt><trkpt lat="44.4752624" lon="9.424471"><ele>1312.0</ele><time>2026-03-22T11:16:37.681Z</time></trkpt><trkpt lat="44.4753554" lon="9.4244389"><ele>1312.0</ele><time>2026-03-22T11:16:39.681Z</time></trkpt><trkpt lat="44.4754127" lon="9.4244981"><ele>1312.0</ele><time>2026-03-22T11:16:42.681Z</time></trkpt><trkpt lat="44.4753992" lon="9.4246415"><ele>1312.0</ele><time>2026-03-22T11:16:44.681Z</time></trkpt><trkpt lat="44.4753868" lon="9.4247358"><ele>1312.0</ele><time>2026-03-22T11:16:45.681Z</time></trkpt><trkpt lat="44.4753827" lon="9.4248375"><ele>1313.7142857142856</ele><time>2026-03-22T11:16:46.681Z</time></trkpt><trkpt lat="44.4753865" lon="9.4249503"><ele>1315.4285714285713</ele><time>2026-03-22T11:16:47.681Z</time></trkpt><trkpt lat="44.4753919" lon="9.4250719"><ele>1317.142857142857</ele><time>2026-03-22T11:16:48.681Z</time></trkpt><trkpt lat="44.4754041" lon="9.4251722"><ele>1318.8571428571427</ele><time>2026-03-22T11:16:49.681Z</time></trkpt><trkpt lat="44.4754173" lon="9.4252669"><ele>1320.5714285714284</ele><time>2026-03-22T11:16:50.681Z</time></trkpt><trkpt lat="44.4754371" lon="9.4253574"><ele>1322.2857142857142</ele><time>2026-03-22T11:16:51.681Z</time></trkpt><trkpt lat="44.475477" lon="9.4254385"><ele>1324.0</ele><time>2026-03-22T11:16:53.681Z</time></trkpt><trkpt lat="44.475455" lon="9.4255525"><ele>1325.0</ele><time>2026-03-22T11:16:55.681Z</time></trkpt><trkpt lat="44.475414" lon="9.4256904"><ele>1326.0</ele><time>2026-03-22T11:16:57.681Z</time></trkpt><trkpt lat="44.4754198" lon="9.4258085"><ele>1327.0</ele><time>2026-03-22T11:16:59.681Z</time></trkpt><trkpt lat="44.4754594" lon="9.425963"><ele>1328.0</ele><time>2026-03-22T11:17:01.681Z</time></trkpt><trkpt lat="44.4755009" lon="9.4260411"><ele>1329.0</ele><time>2026-03-22T11:17:02.681Z</time></trkpt><trkpt lat="44.4755497" lon="9.4261464"><ele>1333.3333333333333</ele><time>2026-03-22T11:17:03.681Z</time></trkpt><trkpt lat="44.475575" lon="9.4262323"><ele>1337.6666666666667</ele><time>2026-03-22T11:17:04.681Z</time></trkpt><trkpt lat="44.4756186" lon="9.4263556"><ele>1342.0</ele><time>2026-03-22T11:17:06.681Z</time></trkpt><trkpt lat="44.475659" lon="9.4264309"><ele>1346.3333333333335</ele><time>2026-03-22T11:17:08.681Z</time></trkpt><trkpt lat="44.4757173" lon="9.4263845"><ele>1350.6666666666667</ele><time>2026-03-22T11:17:14.681Z</time></trkpt><trkpt lat="44.4757026" lon="9.4261901"><ele>1355.0</ele><time>2026-03-22T11:17:17.682Z</time></trkpt><trkpt lat="44.4757289" lon="9.4260762"><ele>1355.0</ele><time>2026-03-22T11:17:18.681Z</time></trkpt><trkpt lat="44.4757558" lon="9.425955"><ele>1355.0</ele><time>2026-03-22T11:17:19.681Z</time></trkpt><trkpt lat="44.4757717" lon="9.4258312"><ele>1355.0</ele><time>2026-03-22T11:17:20.681Z</time></trkpt><trkpt lat="44.4757843" lon="9.4256913"><ele>1355.0</ele><time>2026-03-22T11:17:21.681Z</time></trkpt><trkpt lat="44.4758131" lon="9.4255525"><ele>1355.0</ele><time>2026-03-22T11:17:22.681Z</time></trkpt><trkpt lat="44.4758256" lon="9.4254254"><ele>1354.0</ele><time>2026-03-22T11:17:23.681Z</time></trkpt><trkpt lat="44.4758413" lon="9.4253037"><ele>1353.0</ele><time>2026-03-22T11:17:24.681Z</time></trkpt><trkpt lat="44.47586" lon="9.4251754"><ele>1352.0</ele><time>2026-03-22T11:17:25.682Z</time></trkpt><trkpt lat="44.4758932" lon="9.4250481"><ele>1351.0</ele><time>2026-03-22T11:17:26.681Z</time></trkpt><trkpt lat="44.4759765" lon="9.4249474"><ele>1350.0</ele><time>2026-03-22T11:17:28.682Z</time></trkpt><trkpt lat="44.4760549" lon="9.4248975"><ele>1350.0</ele><time>2026-03-22T11:17:30.681Z</time></trkpt><trkpt lat="44.4761278" lon="9.4248288"><ele>1350.0</ele><time>2026-03-22T11:17:32.681Z</time></trkpt><trkpt lat="44.4761507" lon="9.4247292"><ele>1350.0</ele><time>2026-03-22T11:17:34.682Z</time></trkpt><trkpt lat="44.4761372" lon="9.4246278"><ele>1350.0</ele><time>2026-03-22T11:17:35.681Z</time></trkpt><trkpt lat="44.4761182" lon="9.424514"><ele>1350.0</ele><time>2026-03-22T11:17:36.681Z</time></trkpt><trkpt lat="44.4761017" lon="9.4243783"><ele>1350.0</ele><time>2026-03-22T11:17:37.681Z</time></trkpt><trkpt lat="44.476097" lon="9.424266"><ele>1349.6</ele><time>2026-03-22T11:17:38.681Z</time></trkpt><trkpt lat="44.4761181" lon="9.4241402"><ele>1349.2</ele><time>2026-03-22T11:17:39.681Z</time></trkpt><trkpt lat="44.4762012" lon="9.4240094"><ele>1348.8000000000002</ele><time>2026-03-22T11:17:41.681Z</time></trkpt><trkpt lat="44.4762912" lon="9.423894"><ele>1348.4</ele><time>2026-03-22T11:17:43.681Z</time></trkpt><trkpt lat="44.4763512" lon="9.4238415"><ele>1348.0</ele><time>2026-03-22T11:17:44.681Z</time></trkpt><trkpt lat="44.4764192" lon="9.4237978"><ele>1348.0</ele><time>2026-03-22T11:17:45.681Z</time></trkpt><trkpt lat="44.4764934" lon="9.4237964"><ele>1348.0</ele><time>2026-03-22T11:17:46.681Z</time></trkpt><trkpt lat="44.4765769" lon="9.423809"><ele>1348.0</ele><time>2026-03-22T11:17:47.681Z</time></trkpt><trkpt lat="44.4766596" lon="9.4238051"><ele>1348.0</ele><time>2026-03-22T11:17:48.681Z</time></trkpt><trkpt lat="44.4767404" lon="9.4237849"><ele>1348.0</ele><time>2026-03-22T11:17:49.681Z</time></trkpt><trkpt lat="44.4768107" lon="9.423752"><ele>1348.0</ele><time>2026-03-22T11:17:50.681Z</time></trkpt><trkpt lat="44.4768854" lon="9.4237234"><ele>1348.0</ele><time>2026-03-22T11:17:51.681Z</time></trkpt><trkpt lat="44.476968" lon="9.4236974"><ele>1348.0</ele><time>2026-03-22T11:17:52.681Z</time></trkpt><trkpt lat="44.4770583" lon="9.4236729"><ele>1348.0</ele><time>2026-03-22T11:17:53.681Z</time></trkpt><trkpt lat="44.4771441" lon="9.4236441"><ele>1348.0</ele><time>2026-03-22T11:17:54.681Z</time></trkpt><trkpt lat="44.4772145" lon="9.4236176"><ele>1348.0</ele><time>2026-03-22T11:17:55.681Z</time></trkpt><trkpt lat="44.4773259" lon="9.4235728"><ele>1350.8333333333333</ele><time>2026-03-22T11:17:57.681Z</time></trkpt><trkpt lat="44.4773894" lon="9.4235618"><ele>1353.6666666666665</ele><time>2026-03-22T11:17:58.681Z</time></trkpt><trkpt lat="44.4774623" lon="9.423542"><ele>1356.5</ele><time>2026-03-22T11:17:59.681Z</time></trkpt><trkpt lat="44.4775503" lon="9.4235101"><ele>1359.3333333333333</ele><time>2026-03-22T11:18:00.682Z</time></trkpt><trkpt lat="44.4776334" lon="9.4234757"><ele>1362.1666666666667</ele><time>2026-03-22T11:18:01.681Z</time></trkpt><trkpt lat="44.4777098" lon="9.423428"><ele>1365.0</ele><time>2026-03-22T11:18:02.681Z</time></trkpt><trkpt lat="44.4777857" lon="9.4233748"><ele>1365.0</ele><time>2026-03-22T11:18:03.681Z</time></trkpt><trkpt lat="44.4778599" lon="9.4233278"><ele>1365.0</ele><time>2026-03-22T11:18:04.681Z</time></trkpt><trkpt lat="44.4779271" lon="9.4232955"><ele>1365.0</ele><time>2026-03-22T11:18:05.681Z</time></trkpt><trkpt lat="44.4779869" lon="9.4232652"><ele>1365.0</ele><time>2026-03-22T11:18:06.681Z</time></trkpt><trkpt lat="44.4780903" lon="9.4232677"><ele>1365.0</ele><time>2026-03-22T11:18:08.681Z</time></trkpt><trkpt lat="44.4781918" lon="9.4232489"><ele>1365.0</ele><time>2026-03-22T11:18:10.681Z</time></trkpt><trkpt lat="44.4782626" lon="9.4231072"><ele>1366.6</ele><time>2026-03-22T11:18:12.682Z</time></trkpt><trkpt lat="44.4782853" lon="9.4229912"><ele>1368.2</ele><time>2026-03-22T11:18:14.681Z</time></trkpt><trkpt lat="44.4782241" lon="9.4228926"><ele>1369.8000000000002</ele><time>2026-03-22T11:18:16.681Z</time></trkpt><trkpt lat="44.478193" lon="9.4227669"><ele>1371.4</ele><time>2026-03-22T11:18:18.681Z</time></trkpt><trkpt lat="44.4782309" lon="9.4226772"><ele>1373.0</ele><time>2026-03-22T11:18:19.681Z</time></trkpt><trkpt lat="44.478275" lon="9.4225349"><ele>1373.0</ele><time>2026-03-22T11:18:21.681Z</time></trkpt><trkpt lat="44.4782733" lon="9.42237"><ele>1373.0</ele><time>2026-03-22T11:18:23.681Z</time></trkpt><trkpt lat="44.4782629" lon="9.4222621"><ele>1373.0</ele><time>2026-03-22T11:18:24.681Z</time></trkpt><trkpt lat="44.4782536" lon="9.4221425"><ele>1373.0</ele><time>2026-03-22T11:18:25.681Z</time></trkpt><trkpt lat="44.4782323" lon="9.4220521"><ele>1373.0</ele><time>2026-03-22T11:18:26.681Z</time></trkpt><trkpt lat="44.4782131" lon="9.4219593"><ele>1373.0</ele><time>2026-03-22T11:18:27.681Z</time></trkpt><trkpt lat="44.4781611" lon="9.421899"><ele>1372.8333333333335</ele><time>2026-03-22T11:18:28.681Z</time></trkpt><trkpt lat="44.4781011" lon="9.4218211"><ele>1372.6666666666667</ele><time>2026-03-22T11:18:29.681Z</time></trkpt><trkpt lat="44.4780291" lon="9.4217457"><ele>1372.5</ele><time>2026-03-22T11:18:30.681Z</time></trkpt><trkpt lat="44.4779416" lon="9.421727"><ele>1372.3333333333333</ele><time>2026-03-22T11:18:31.681Z</time></trkpt><trkpt lat="44.4778625" lon="9.4217056"><ele>1372.1666666666665</ele><time>2026-03-22T11:18:32.681Z</time></trkpt><trkpt lat="44.4777867" lon="9.4216775"><ele>1372.0</ele><time>2026-03-22T11:18:33.681Z</time></trkpt><trkpt lat="44.4776993" lon="9.4216672"><ele>1372.0</ele><time>2026-03-22T11:18:34.681Z</time></trkpt><trkpt lat="44.4776107" lon="9.4216331"><ele>1372.0</ele><time>2026-03-22T11:18:35.681Z</time></trkpt><trkpt lat="44.4775321" lon="9.4216223"><ele>1372.0</ele><time>2026-03-22T11:18:36.681Z</time></trkpt><trkpt lat="44.4774337" lon="9.4215931"><ele>1372.0</ele><time>2026-03-22T11:18:37.681Z</time></trkpt><trkpt lat="44.4773395" lon="9.4215521"><ele>1372.0</ele><time>2026-03-22T11:18:38.681Z</time></trkpt><trkpt lat="44.4772529" lon="9.4215293"><ele>1372.0</ele><time>2026-03-22T11:18:39.681Z</time></trkpt><trkpt lat="44.4771844" lon="9.4215129"><ele>1372.0</ele><time>2026-03-22T11:18:40.682Z</time></trkpt><trkpt lat="44.4770761" lon="9.4214839"><ele>1372.0</ele><time>2026-03-22T11:18:42.682Z</time></trkpt><trkpt lat="44.4770056" lon="9.4213652"><ele>1372.0</ele><time>2026-03-22T11:18:44.681Z</time></trkpt><trkpt lat="44.4770125" lon="9.4212187"><ele>1372.0</ele><time>2026-03-22T11:18:46.681Z</time></trkpt><trkpt lat="44.4770457" lon="9.4210275"><ele>1370.1999999999998</ele><time>2026-03-22T11:18:48.681Z</time></trkpt><trkpt lat="44.4770878" lon="9.4209037"><ele>1368.4</ele><time>2026-03-22T11:18:49.681Z</time></trkpt><trkpt lat="44.4771294" lon="9.4207926"><ele>1366.6</ele><time>2026-03-22T11:18:50.681Z</time></trkpt><trkpt lat="44.4771752" lon="9.4206841"><ele>1364.8000000000002</ele><time>2026-03-22T11:18:51.681Z</time></trkpt><trkpt lat="44.4772164" lon="9.4205745"><ele>1363.0</ele><time>2026-03-22T11:18:52.681Z</time></trkpt><trkpt lat="44.4772547" lon="9.4204606"><ele>1367.0</ele><time>2026-03-22T11:18:53.682Z</time></trkpt><trkpt lat="44.4772937" lon="9.4203485"><ele>1371.0</ele><time>2026-03-22T11:18:54.681Z</time></trkpt><trkpt lat="44.477334" lon="9.4202438"><ele>1375.0</ele><time>2026-03-22T11:18:55.682Z</time></trkpt><trkpt lat="44.4773795" lon="9.4201369"><ele>1379.0</ele><time>2026-03-22T11:18:56.681Z</time></trkpt><trkpt lat="44.4774241" lon="9.4200323"><ele>1383.0</ele><time>2026-03-22T11:18:57.681Z</time></trkpt><trkpt lat="44.477489" lon="9.419896"><ele>1383.0</ele><time>2026-03-22T11:18:58.681Z</time></trkpt><trkpt lat="44.4775454" lon="9.4197354"><ele>1383.0</ele><time>2026-03-22T11:18:59.681Z</time></trkpt><trkpt lat="44.4776038" lon="9.4195874"><ele>1383.0</ele><time>2026-03-22T11:19:00.681Z</time></trkpt><trkpt lat="44.4776594" lon="9.4194409"><ele>1383.0</ele><time>2026-03-22T11:19:01.681Z</time></trkpt><trkpt lat="44.477703" lon="9.4192971"><ele>1381.1666666666667</ele><time>2026-03-22T11:19:02.681Z</time></trkpt><trkpt lat="44.4777396" lon="9.4191838"><ele>1379.3333333333333</ele><time>2026-03-22T11:19:03.681Z</time></trkpt><trkpt lat="44.4777882" lon="9.4190936"><ele>1377.5</ele><time>2026-03-22T11:19:04.681Z</time></trkpt><trkpt lat="44.4778357" lon="9.4190126"><ele>1375.6666666666665</ele><time>2026-03-22T11:19:05.681Z</time></trkpt><trkpt lat="44.477879" lon="9.4189317"><ele>1373.8333333333333</ele><time>2026-03-22T11:19:06.682Z</time></trkpt><trkpt lat="44.4779211" lon="9.4187579"><ele>1372.0</ele><time>2026-03-22T11:19:08.681Z</time></trkpt><trkpt lat="44.4779346" lon="9.4185959"><ele>1373.6666666666665</ele><time>2026-03-22T11:19:10.681Z</time></trkpt><trkpt lat="44.477955" lon="9.4184594"><ele>1375.3333333333333</ele><time>2026-03-22T11:19:12.681Z</time></trkpt><trkpt lat="44.4780092" lon="9.4183606"><ele>1377.0</ele><time>2026-03-22T11:19:14.681Z</time></trkpt><trkpt lat="44.4780632" lon="9.4182722"><ele>1378.6666666666667</ele><time>2026-03-22T11:19:16.682Z</time></trkpt><trkpt lat="44.4780826" lon="9.4181775"><ele>1380.3333333333335</ele><time>2026-03-22T11:19:18.681Z</time></trkpt><trkpt lat="44.478036" lon="9.4181153"><ele>1382.0</ele><time>2026-03-22T11:19:19.681Z</time></trkpt><trkpt lat="44.4780024" lon="9.4180349"><ele>1382.0</ele><time>2026-03-22T11:19:20.681Z</time></trkpt><trkpt lat="44.477963" lon="9.4179527"><ele>1382.0</ele><time>2026-03-22T11:19:21.681Z</time></trkpt><trkpt lat="44.4779676" lon="9.4178628"><ele>1382.0</ele><time>2026-03-22T11:19:22.681Z</time></trkpt><trkpt lat="44.4779428" lon="9.4176944"><ele>1382.0</ele><time>2026-03-22T11:19:24.681Z</time></trkpt><trkpt lat="44.4779487" lon="9.4176028"><ele>1382.0</ele><time>2026-03-22T11:19:25.681Z</time></trkpt><trkpt lat="44.4779287" lon="9.4174342"><ele>1382.0</ele><time>2026-03-22T11:19:27.681Z</time></trkpt><trkpt lat="44.4779196" lon="9.4173433"><ele>1379.0</ele><time>2026-03-22T11:19:28.681Z</time></trkpt><trkpt lat="44.4778898" lon="9.4172061"><ele>1376.0</ele><time>2026-03-22T11:19:30.681Z</time></trkpt><trkpt lat="44.4778487" lon="9.4171384"><ele>1373.0</ele><time>2026-03-22T11:19:32.681Z</time></trkpt><trkpt lat="44.4777822" lon="9.4171088"><ele>1370.0</ele><time>2026-03-22T11:19:33.681Z</time></trkpt><trkpt lat="44.4776545" lon="9.4170638"><ele>1367.0</ele><time>2026-03-22T11:19:35.681Z</time></trkpt><trkpt lat="44.4775837" lon="9.4170251"><ele>1364.0</ele><time>2026-03-22T11:19:36.681Z</time></trkpt><trkpt lat="44.4775232" lon="9.4169839"><ele>1364.0</ele><time>2026-03-22T11:19:37.682Z</time></trkpt><trkpt lat="44.4774675" lon="9.4169194"><ele>1364.0</ele><time>2026-03-22T11:19:38.681Z</time></trkpt><trkpt lat="44.477405" lon="9.4167819"><ele>1364.0</ele><time>2026-03-22T11:19:40.681Z</time></trkpt><trkpt lat="44.4773863" lon="9.4166201"><ele>1364.0</ele><time>2026-03-22T11:19:42.681Z</time></trkpt><trkpt lat="44.4773626" lon="9.4165264"><ele>1364.0</ele><time>2026-03-22T11:19:43.681Z</time></trkpt><trkpt lat="44.4773015" lon="9.4163875"><ele>1365.0</ele><time>2026-03-22T11:19:45.681Z</time></trkpt><trkpt lat="44.4772028" lon="9.4162617"><ele>1366.0</ele><time>2026-03-22T11:19:47.681Z</time></trkpt><trkpt lat="44.4771473" lon="9.4162034"><ele>1367.0</ele><time>2026-03-22T11:19:48.681Z</time></trkpt><trkpt lat="44.4770666" lon="9.4160926"><ele>1368.0</ele><time>2026-03-22T11:19:50.682Z</time></trkpt><trkpt lat="44.4770225" lon="9.4160185"><ele>1369.0</ele><time>2026-03-22T11:19:51.682Z</time></trkpt><trkpt lat="44.4769848" lon="9.4159462"><ele>1370.0</ele><time>2026-03-22T11:19:52.681Z</time></trkpt><trkpt lat="44.4769142" lon="9.4158198"><ele>1368.0</ele><time>2026-03-22T11:19:54.681Z</time></trkpt><trkpt lat="44.4768566" lon="9.4157165"><ele>1366.0</ele><time>2026-03-22T11:19:56.681Z</time></trkpt><trkpt lat="44.4768148" lon="9.4156138"><ele>1364.0</ele><time>2026-03-22T11:19:58.681Z</time></trkpt><trkpt lat="44.476806" lon="9.415517"><ele>1362.0</ele><time>2026-03-22T11:20:00.681Z</time></trkpt><trkpt lat="44.4767783" lon="9.4153869"><ele>1360.0</ele><time>2026-03-22T11:20:03.681Z</time></trkpt><trkpt lat="44.4767744" lon="9.4152988"><ele>1358.0</ele><time>2026-03-22T11:20:05.681Z</time></trkpt><trkpt lat="44.4767682" lon="9.4151711"><ele>1358.0</ele><time>2026-03-22T11:20:33.681Z</time></trkpt><trkpt lat="44.4767665" lon="9.415027"><ele>1358.0</ele><time>2026-03-22T11:20:35.681Z</time></trkpt><trkpt lat="44.4767776" lon="9.4148841"><ele>1358.0</ele><time>2026-03-22T11:20:37.681Z</time></trkpt><trkpt lat="44.4767845" lon="9.4147307"><ele>1358.0</ele><time>2026-03-22T11:20:39.681Z</time></trkpt><trkpt lat="44.4767691" lon="9.4145746"><ele>1358.0</ele><time>2026-03-22T11:20:41.681Z</time></trkpt><trkpt lat="44.4767143" lon="9.4144162"><ele>1358.2</ele><time>2026-03-22T11:20:43.681Z</time></trkpt><trkpt lat="44.4766501" lon="9.4142644"><ele>1358.4</ele><time>2026-03-22T11:20:45.681Z</time></trkpt><trkpt lat="44.4766064" lon="9.4141814"><ele>1358.6000000000001</ele><time>2026-03-22T11:20:46.681Z</time></trkpt><trkpt lat="44.4765623" lon="9.4140895"><ele>1358.8000000000002</ele><time>2026-03-22T11:20:47.681Z</time></trkpt><trkpt lat="44.4765227" lon="9.413983"><ele>1359.0</ele><time>2026-03-22T11:20:48.681Z</time></trkpt><trkpt lat="44.4764849" lon="9.4138751"><ele>1360.4</ele><time>2026-03-22T11:20:49.681Z</time></trkpt><trkpt lat="44.4764564" lon="9.4137507"><ele>1361.8000000000002</ele><time>2026-03-22T11:20:50.681Z</time></trkpt><trkpt lat="44.4764338" lon="9.4136283"><ele>1363.1999999999998</ele><time>2026-03-22T11:20:51.681Z</time></trkpt><trkpt lat="44.4764107" lon="9.4134982"><ele>1364.6</ele><time>2026-03-22T11:20:52.682Z</time></trkpt><trkpt lat="44.4763977" lon="9.4133733"><ele>1366.0</ele><time>2026-03-22T11:20:53.681Z</time></trkpt><trkpt lat="44.4763834" lon="9.4132547"><ele>1366.0</ele><time>2026-03-22T11:20:54.681Z</time></trkpt><trkpt lat="44.4763688" lon="9.4131456"><ele>1366.0</ele><time>2026-03-22T11:20:55.681Z</time></trkpt><trkpt lat="44.4763653" lon="9.4130575"><ele>1366.0</ele><time>2026-03-22T11:20:56.681Z</time></trkpt><trkpt lat="44.4763112" lon="9.4129143"><ele>1366.0</ele><time>2026-03-22T11:20:58.681Z</time></trkpt><trkpt lat="44.4762528" lon="9.4128607"><ele>1366.0</ele><time>2026-03-22T11:20:59.681Z</time></trkpt><trkpt lat="44.4761833" lon="9.4127229"><ele>1366.0</ele><time>2026-03-22T11:21:01.681Z</time></trkpt><trkpt lat="44.4761645" lon="9.4125721"><ele>1366.3333333333333</ele><time>2026-03-22T11:21:03.681Z</time></trkpt><trkpt lat="44.4762025" lon="9.4124198"><ele>1366.6666666666665</ele><time>2026-03-22T11:21:05.681Z</time></trkpt><trkpt lat="44.4762376" lon="9.4123439"><ele>1367.0</ele><time>2026-03-22T11:21:06.682Z</time></trkpt><trkpt lat="44.4762864" lon="9.4122738"><ele>1367.3333333333333</ele><time>2026-03-22T11:21:07.681Z</time></trkpt><trkpt lat="44.4763463" lon="9.4122208"><ele>1367.6666666666667</ele><time>2026-03-22T11:21:08.681Z</time></trkpt><trkpt lat="44.4764034" lon="9.412162"><ele>1368.0</ele><time>2026-03-22T11:21:09.681Z</time></trkpt><trkpt lat="44.4764583" lon="9.412091"><ele>1367.3333333333333</ele><time>2026-03-22T11:21:10.681Z</time></trkpt><trkpt lat="44.4765078" lon="9.4120209"><ele>1366.6666666666667</ele><time>2026-03-22T11:21:11.681Z</time></trkpt><trkpt lat="44.4764992" lon="9.4119151"><ele>1366.0</ele><time>2026-03-22T11:21:12.681Z</time></trkpt><trkpt lat="44.4765206" lon="9.4118164"><ele>1365.3333333333335</ele><time>2026-03-22T11:21:13.681Z</time></trkpt><trkpt lat="44.4765399" lon="9.4116818"><ele>1364.6666666666667</ele><time>2026-03-22T11:21:15.681Z</time></trkpt><trkpt lat="44.476583" lon="9.4115945"><ele>1364.0</ele><time>2026-03-22T11:21:17.681Z</time></trkpt><trkpt lat="44.476668" lon="9.4115073"><ele>1364.0</ele><time>2026-03-22T11:21:19.681Z</time></trkpt><trkpt lat="44.4767806" lon="9.411439"><ele>1364.0</ele><time>2026-03-22T11:21:21.681Z</time></trkpt><trkpt lat="44.4768397" lon="9.4113989"><ele>1364.0</ele><time>2026-03-22T11:21:22.681Z</time></trkpt><trkpt lat="44.4768988" lon="9.4113545"><ele>1364.0</ele><time>2026-03-22T11:21:23.681Z</time></trkpt><trkpt lat="44.476961" lon="9.4112793"><ele>1364.0</ele><time>2026-03-22T11:21:25.681Z</time></trkpt><trkpt lat="44.4770402" lon="9.4111364"><ele>1363.8333333333335</ele><time>2026-03-22T11:21:27.681Z</time></trkpt><trkpt lat="44.4770823" lon="9.4110504"><ele>1363.6666666666667</ele><time>2026-03-22T11:21:28.681Z</time></trkpt><trkpt lat="44.4771223" lon="9.4109643"><ele>1363.5</ele><time>2026-03-22T11:21:29.681Z</time></trkpt><trkpt lat="44.4771737" lon="9.4108882"><ele>1363.3333333333333</ele><time>2026-03-22T11:21:30.681Z</time></trkpt><trkpt lat="44.4772208" lon="9.4108081"><ele>1363.1666666666665</ele><time>2026-03-22T11:21:31.681Z</time></trkpt><trkpt lat="44.4772976" lon="9.4107229"><ele>1363.0</ele><time>2026-03-22T11:21:32.682Z</time></trkpt><trkpt lat="44.4773474" lon="9.4106493"><ele>1365.8333333333333</ele><time>2026-03-22T11:21:33.681Z</time></trkpt><trkpt lat="44.4773973" lon="9.4105954"><ele>1368.6666666666665</ele><time>2026-03-22T11:21:34.681Z</time></trkpt><trkpt lat="44.4774422" lon="9.410516"><ele>1371.5</ele><time>2026-03-22T11:21:36.681Z</time></trkpt><trkpt lat="44.4774597" lon="9.4103995"><ele>1374.3333333333333</ele><time>2026-03-22T11:21:38.681Z</time></trkpt><trkpt lat="44.4774926" lon="9.4103055"><ele>1377.1666666666667</ele><time>2026-03-22T11:21:39.681Z</time></trkpt><trkpt lat="44.4775319" lon="9.410206"><ele>1380.0</ele><time>2026-03-22T11:21:40.681Z</time></trkpt><trkpt lat="44.4775568" lon="9.4100472"><ele>1380.0</ele><time>2026-03-22T11:21:42.681Z</time></trkpt><trkpt lat="44.4775817" lon="9.4099481"><ele>1380.0</ele><time>2026-03-22T11:21:43.681Z</time></trkpt><trkpt lat="44.4776119" lon="9.409852"><ele>1380.0</ele><time>2026-03-22T11:21:44.681Z</time></trkpt><trkpt lat="44.4776417" lon="9.4097609"><ele>1380.0</ele><time>2026-03-22T11:21:45.682Z</time></trkpt><trkpt lat="44.4776741" lon="9.4096681"><ele>1380.0</ele><time>2026-03-22T11:21:47.681Z</time></trkpt><trkpt lat="44.4777187" lon="9.4095996"><ele>1380.0</ele><time>2026-03-22T11:21:48.681Z</time></trkpt><trkpt lat="44.4777667" lon="9.4095106"><ele>1380.0</ele><time>2026-03-22T11:21:49.681Z</time></trkpt><trkpt lat="44.4778136" lon="9.4094408"><ele>1378.8333333333333</ele><time>2026-03-22T11:21:50.681Z</time></trkpt><trkpt lat="44.4778554" lon="9.4093503"><ele>1377.6666666666667</ele><time>2026-03-22T11:21:51.681Z</time></trkpt><trkpt lat="44.477895" lon="9.4092489"><ele>1376.5</ele><time>2026-03-22T11:21:52.681Z</time></trkpt><trkpt lat="44.4779506" lon="9.4091439"><ele>1375.3333333333335</ele><time>2026-03-22T11:21:53.681Z</time></trkpt><trkpt lat="44.478007" lon="9.4090605"><ele>1374.1666666666667</ele><time>2026-03-22T11:21:54.681Z</time></trkpt><trkpt lat="44.4780728" lon="9.4089725"><ele>1373.0</ele><time>2026-03-22T11:21:55.681Z</time></trkpt><trkpt lat="44.4781269" lon="9.40891"><ele>1373.2</ele><time>2026-03-22T11:21:56.681Z</time></trkpt><trkpt lat="44.4781731" lon="9.4088363"><ele>1373.4</ele><time>2026-03-22T11:21:57.681Z</time></trkpt><trkpt lat="44.4782575" lon="9.4087142"><ele>1373.6000000000001</ele><time>2026-03-22T11:21:59.681Z</time></trkpt><trkpt lat="44.4783532" lon="9.4086475"><ele>1373.8000000000002</ele><time>2026-03-22T11:22:01.681Z</time></trkpt><trkpt lat="44.4784591" lon="9.4085799"><ele>1374.0</ele><time>2026-03-22T11:22:03.683Z</time></trkpt><trkpt lat="44.4785587" lon="9.4085316"><ele>1374.0</ele><time>2026-03-22T11:22:05.681Z</time></trkpt><trkpt lat="44.478675" lon="9.408484"><ele>1374.0</ele><time>2026-03-22T11:22:07.681Z</time></trkpt><trkpt lat="44.4787704" lon="9.4084502"><ele>1374.0</ele><time>2026-03-22T11:22:09.682Z</time></trkpt><trkpt lat="44.4788756" lon="9.4084327"><ele>1374.0</ele><time>2026-03-22T11:22:11.681Z</time></trkpt><trkpt lat="44.4789657" lon="9.4083887"><ele>1374.0</ele><time>2026-03-22T11:22:13.681Z</time></trkpt><trkpt lat="44.4790811" lon="9.4083679"><ele>1375.5714285714287</ele><time>2026-03-22T11:22:15.681Z</time></trkpt><trkpt lat="44.4791497" lon="9.408331"><ele>1377.142857142857</ele><time>2026-03-22T11:22:16.682Z</time></trkpt><trkpt lat="44.4792122" lon="9.4083063"><ele>1378.7142857142858</ele><time>2026-03-22T11:22:17.681Z</time></trkpt><trkpt lat="44.4792708" lon="9.40827"><ele>1380.2857142857142</ele><time>2026-03-22T11:22:18.681Z</time></trkpt><trkpt lat="44.4793399" lon="9.4082267"><ele>1381.857142857143</ele><time>2026-03-22T11:22:19.681Z</time></trkpt><trkpt lat="44.4794119" lon="9.4081563"><ele>1383.4285714285713</ele><time>2026-03-22T11:22:21.681Z</time></trkpt><trkpt lat="44.4794707" lon="9.4081239"><ele>1385.0</ele><time>2026-03-22T11:22:22.681Z</time></trkpt><trkpt lat="44.4795467" lon="9.4080959"><ele>1384.3333333333335</ele><time>2026-03-22T11:22:23.681Z</time></trkpt><trkpt lat="44.4796182" lon="9.4080629"><ele>1383.6666666666667</ele><time>2026-03-22T11:22:24.681Z</time></trkpt><trkpt lat="44.479682" lon="9.4080241"><ele>1383.0</ele><time>2026-03-22T11:22:25.681Z</time></trkpt><trkpt lat="44.4797697" lon="9.4078961"><ele>1382.3333333333333</ele><time>2026-03-22T11:22:27.681Z</time></trkpt><trkpt lat="44.479817" lon="9.4078179"><ele>1381.6666666666665</ele><time>2026-03-22T11:22:28.681Z</time></trkpt><trkpt lat="44.4798622" lon="9.4077477"><ele>1381.0</ele><time>2026-03-22T11:22:29.681Z</time></trkpt><trkpt lat="44.4799573" lon="9.407628"><ele>1381.0</ele><time>2026-03-22T11:22:31.681Z</time></trkpt><trkpt lat="44.4800053" lon="9.4075694"><ele>1381.0</ele><time>2026-03-22T11:22:32.681Z</time></trkpt><trkpt lat="44.4800778" lon="9.407464"><ele>1381.0</ele><time>2026-03-22T11:22:34.681Z</time></trkpt><trkpt lat="44.480146" lon="9.4073716"><ele>1381.0</ele><time>2026-03-22T11:22:36.681Z</time></trkpt><trkpt lat="44.4802365" lon="9.4072994"><ele>1381.0</ele><time>2026-03-22T11:22:38.681Z</time></trkpt><trkpt lat="44.4803306" lon="9.4072467"><ele>1381.0</ele><time>2026-03-22T11:22:40.682Z</time></trkpt><trkpt lat="44.4803956" lon="9.4072364"><ele>1381.0</ele><time>2026-03-22T11:22:41.681Z</time></trkpt><trkpt lat="44.4804602" lon="9.4072291"><ele>1381.0</ele><time>2026-03-22T11:22:42.681Z</time></trkpt><trkpt lat="44.4805752" lon="9.4072265"><ele>1381.0</ele><time>2026-03-22T11:22:44.681Z</time></trkpt><trkpt lat="44.4806588" lon="9.407225"><ele>1381.0</ele><time>2026-03-22T11:22:45.681Z</time></trkpt><trkpt lat="44.4807776" lon="9.4072387"><ele>1381.0</ele><time>2026-03-22T11:22:47.681Z</time></trkpt><trkpt lat="44.4808529" lon="9.4072214"><ele>1380.3333333333333</ele><time>2026-03-22T11:22:49.681Z</time></trkpt><trkpt lat="44.4809446" lon="9.4072063"><ele>1379.6666666666665</ele><time>2026-03-22T11:22:51.681Z</time></trkpt><trkpt lat="44.4810358" lon="9.4072048"><ele>1379.0</ele><time>2026-03-22T11:22:53.681Z</time></trkpt><trkpt lat="44.4811018" lon="9.4071925"><ele>1378.3333333333333</ele><time>2026-03-22T11:22:55.681Z</time></trkpt><trkpt lat="44.4811673" lon="9.4071786"><ele>1377.6666666666667</ele><time>2026-03-22T11:22:58.681Z</time></trkpt><trkpt lat="44.4812387" lon="9.4071613"><ele>1377.0</ele><time>2026-03-22T11:23:01.603Z</time></trkpt><trkpt lat="44.4813058" lon="9.4071166"><ele>1377.0</ele><time>2026-03-22T11:23:03.682Z</time></trkpt><trkpt lat="44.4813764" lon="9.4070561"><ele>1377.0</ele><time>2026-03-22T11:23:04.681Z</time></trkpt><trkpt lat="44.4815703" lon="9.4069237"><ele>1377.0</ele><time>2026-03-22T11:23:07.682Z</time></trkpt><trkpt lat="44.4816583" lon="9.4068723"><ele>1377.0</ele><time>2026-03-22T11:23:09.681Z</time></trkpt><trkpt lat="44.4817848" lon="9.4068507"><ele>1377.0</ele><time>2026-03-22T11:23:11.681Z</time></trkpt><trkpt lat="44.4818876" lon="9.406823"><ele>1377.0</ele><time>2026-03-22T11:23:12.681Z</time></trkpt><trkpt lat="44.4819471" lon="9.4067603"><ele>1377.0</ele><time>2026-03-22T11:23:13.681Z</time></trkpt><trkpt lat="44.4820049" lon="9.4067043"><ele>1377.0</ele><time>2026-03-22T11:23:14.681Z</time></trkpt><trkpt lat="44.4821167" lon="9.4066277"><ele>1377.0</ele><time>2026-03-22T11:23:16.682Z</time></trkpt><trkpt lat="44.4822198" lon="9.406545"><ele>1376.6</ele><time>2026-03-22T11:23:18.681Z</time></trkpt><trkpt lat="44.4823171" lon="9.4064349"><ele>1376.1999999999998</ele><time>2026-03-22T11:23:20.681Z</time></trkpt><trkpt lat="44.4823645" lon="9.4063524"><ele>1375.8</ele><time>2026-03-22T11:23:22.681Z</time></trkpt><trkpt lat="44.4823922" lon="9.4061506"><ele>1375.4</ele><time>2026-03-22T11:23:24.681Z</time></trkpt><trkpt lat="44.4824208" lon="9.4060572"><ele>1375.0</ele><time>2026-03-22T11:23:25.681Z</time></trkpt><trkpt lat="44.4824513" lon="9.4059104"><ele>1375.0</ele><time>2026-03-22T11:23:27.681Z</time></trkpt><trkpt lat="44.4824823" lon="9.4057837"><ele>1375.0</ele><time>2026-03-22T11:23:29.682Z</time></trkpt><trkpt lat="44.4825282" lon="9.4056849"><ele>1375.0</ele><time>2026-03-22T11:23:31.681Z</time></trkpt><trkpt lat="44.4825714" lon="9.4055923"><ele>1375.0</ele><time>2026-03-22T11:23:33.681Z</time></trkpt><trkpt lat="44.4825736" lon="9.4054857"><ele>1375.0</ele><time>2026-03-22T11:23:35.681Z</time></trkpt><trkpt lat="44.4825571" lon="9.405281"><ele>1373.6666666666665</ele><time>2026-03-22T11:23:39.681Z</time></trkpt><trkpt lat="44.4825779" lon="9.4051938"><ele>1372.3333333333333</ele><time>2026-03-22T11:23:41.681Z</time></trkpt><trkpt lat="44.4826184" lon="9.405073"><ele>1371.0</ele><time>2026-03-22T11:23:43.681Z</time></trkpt><trkpt lat="44.4826535" lon="9.4049702"><ele>1369.6666666666667</ele><time>2026-03-22T11:23:45.681Z</time></trkpt><trkpt lat="44.482632" lon="9.404876"><ele>1368.3333333333335</ele><time>2026-03-22T11:23:47.647Z</time></trkpt><trkpt lat="44.482543" lon="9.4048325"><ele>1367.0</ele><time>2026-03-22T11:23:49.681Z</time></trkpt><trkpt lat="44.4824801" lon="9.4047647"><ele>1367.0</ele><time>2026-03-22T11:23:51.681Z</time></trkpt><trkpt lat="44.482418" lon="9.4046779"><ele>1367.0</ele><time>2026-03-22T11:23:53.681Z</time></trkpt><trkpt lat="44.4823673" lon="9.404564"><ele>1367.0</ele><time>2026-03-22T11:23:55.681Z</time></trkpt><trkpt lat="44.4823492" lon="9.4044262"><ele>1367.0</ele><time>2026-03-22T11:23:57.681Z</time></trkpt><trkpt lat="44.4823436" lon="9.4042943"><ele>1367.0</ele><time>2026-03-22T11:23:59.681Z</time></trkpt><trkpt lat="44.4823332" lon="9.404187"><ele>1367.8</ele><time>2026-03-22T11:24:01.681Z</time></trkpt><trkpt lat="44.4823483" lon="9.4040294"><ele>1368.6</ele><time>2026-03-22T11:24:03.681Z</time></trkpt><trkpt lat="44.4823473" lon="9.4038908"><ele>1369.3999999999999</ele><time>2026-03-22T11:24:05.681Z</time></trkpt><trkpt lat="44.4823618" lon="9.4037412"><ele>1370.1999999999998</ele><time>2026-03-22T11:24:07.681Z</time></trkpt><trkpt lat="44.4824583" lon="9.4036304"><ele>1371.0</ele><time>2026-03-22T11:24:09.681Z</time></trkpt><trkpt lat="44.4825169" lon="9.403568"><ele>1369.4</ele><time>2026-03-22T11:24:10.681Z</time></trkpt><trkpt lat="44.4826102" lon="9.4034385"><ele>1367.8</ele><time>2026-03-22T11:24:12.682Z</time></trkpt><trkpt lat="44.4826778" lon="9.4033444"><ele>1366.2</ele><time>2026-03-22T11:24:14.681Z</time></trkpt><trkpt lat="44.4827353" lon="9.4032522"><ele>1364.6000000000001</ele><time>2026-03-22T11:24:16.681Z</time></trkpt><trkpt lat="44.4828099" lon="9.4031752"><ele>1363.0</ele><time>2026-03-22T11:24:19.681Z</time></trkpt><trkpt lat="44.4828813" lon="9.4030765"><ele>1361.6000000000001</ele><time>2026-03-22T11:24:21.682Z</time></trkpt><trkpt lat="44.482852" lon="9.4028722"><ele>1360.2</ele><time>2026-03-22T11:24:27.682Z</time></trkpt><trkpt lat="44.482809" lon="9.4027692"><ele>1358.8</ele><time>2026-03-22T11:24:28.681Z</time></trkpt><trkpt lat="44.4827652" lon="9.4026843"><ele>1357.4</ele><time>2026-03-22T11:24:29.682Z</time></trkpt><trkpt lat="44.482739" lon="9.4025956"><ele>1356.0</ele><time>2026-03-22T11:24:30.681Z</time></trkpt><trkpt lat="44.4826701" lon="9.4024592"><ele>1356.0</ele><time>2026-03-22T11:24:32.681Z</time></trkpt><trkpt lat="44.4826476" lon="9.4023594"><ele>1356.0</ele><time>2026-03-22T11:24:33.682Z</time></trkpt><trkpt lat="44.4826457" lon="9.4022111"><ele>1356.0</ele><time>2026-03-22T11:24:35.681Z</time></trkpt><trkpt lat="44.4826926" lon="9.4020669"><ele>1356.0</ele><time>2026-03-22T11:24:37.681Z</time></trkpt><trkpt lat="44.4827402" lon="9.4019707"><ele>1356.0</ele><time>2026-03-22T11:24:38.682Z</time></trkpt><trkpt lat="44.4827757" lon="9.4018937"><ele>1356.0</ele><time>2026-03-22T11:24:39.681Z</time></trkpt><trkpt lat="44.4828193" lon="9.4018253"><ele>1355.4</ele><time>2026-03-22T11:24:40.681Z</time></trkpt><trkpt lat="44.4829004" lon="9.4017347"><ele>1354.8</ele><time>2026-03-22T11:24:42.681Z</time></trkpt><trkpt lat="44.482961" lon="9.4016667"><ele>1354.2</ele><time>2026-03-22T11:24:44.682Z</time></trkpt><trkpt lat="44.4830034" lon="9.4015466"><ele>1353.6000000000001</ele><time>2026-03-22T11:24:46.681Z</time></trkpt><trkpt lat="44.4830496" lon="9.4014133"><ele>1353.0</ele><time>2026-03-22T11:24:48.681Z</time></trkpt><trkpt lat="44.483087" lon="9.4012895"><ele>1358.4</ele><time>2026-03-22T11:24:50.681Z</time></trkpt><trkpt lat="44.4830709" lon="9.4011608"><ele>1363.8000000000002</ele><time>2026-03-22T11:24:52.681Z</time></trkpt><trkpt lat="44.4830334" lon="9.4010411"><ele>1369.2</ele><time>2026-03-22T11:24:54.681Z</time></trkpt><trkpt lat="44.4830281" lon="9.4009432"><ele>1374.6</ele><time>2026-03-22T11:24:55.681Z</time></trkpt><trkpt lat="44.4830132" lon="9.400838"><ele>1380.0</ele><time>2026-03-22T11:24:56.681Z</time></trkpt><trkpt lat="44.4829795" lon="9.4006751"><ele>1380.0</ele><time>2026-03-22T11:24:58.681Z</time></trkpt><trkpt lat="44.4829675" lon="9.4005842"><ele>1380.0</ele><time>2026-03-22T11:24:59.681Z</time></trkpt><trkpt lat="44.482956" lon="9.4004897"><ele>1380.0</ele><time>2026-03-22T11:25:00.681Z</time></trkpt><trkpt lat="44.482918" lon="9.4003223"><ele>1380.0</ele><time>2026-03-22T11:25:02.681Z</time></trkpt><trkpt lat="44.4828827" lon="9.4001889"><ele>1380.0</ele><time>2026-03-22T11:25:04.681Z</time></trkpt><trkpt lat="44.4828731" lon="9.4000884"><ele>1380.0</ele><time>2026-03-22T11:25:05.681Z</time></trkpt><trkpt lat="44.4828292" lon="9.3999585"><ele>1375.8333333333333</ele><time>2026-03-22T11:25:07.681Z</time></trkpt><trkpt lat="44.4828009" lon="9.3998155"><ele>1371.6666666666667</ele><time>2026-03-22T11:25:09.681Z</time></trkpt><trkpt lat="44.4827791" lon="9.3997181"><ele>1367.5</ele><time>2026-03-22T11:25:10.681Z</time></trkpt><trkpt lat="44.4827639" lon="9.3996028"><ele>1363.3333333333335</ele><time>2026-03-22T11:25:11.681Z</time></trkpt><trkpt lat="44.4827552" lon="9.3994867"><ele>1359.1666666666667</ele><time>2026-03-22T11:25:12.681Z</time></trkpt><trkpt lat="44.4827432" lon="9.3993601"><ele>1355.0</ele><time>2026-03-22T11:25:13.681Z</time></trkpt><trkpt lat="44.4827363" lon="9.3992369"><ele>1355.0</ele><time>2026-03-22T11:25:14.681Z</time></trkpt><trkpt lat="44.4827276" lon="9.3991291"><ele>1355.0</ele><time>2026-03-22T11:25:15.681Z</time></trkpt><trkpt lat="44.4827213" lon="9.3990326"><ele>1355.0</ele><time>2026-03-22T11:25:16.682Z</time></trkpt><trkpt lat="44.4827059" lon="9.3988919"><ele>1355.0</ele><time>2026-03-22T11:25:18.681Z</time></trkpt><trkpt lat="44.4827006" lon="9.3987446"><ele>1355.0</ele><time>2026-03-22T11:25:20.681Z</time></trkpt><trkpt lat="44.4826874" lon="9.3986084"><ele>1355.0</ele><time>2026-03-22T11:25:22.681Z</time></trkpt><trkpt lat="44.4826958" lon="9.3984231"><ele>1355.0</ele><time>2026-03-22T11:25:24.681Z</time></trkpt><trkpt lat="44.4827049" lon="9.3983235"><ele>1355.0</ele><time>2026-03-22T11:25:25.682Z</time></trkpt><trkpt lat="44.4827087" lon="9.398171"><ele>1355.0</ele><time>2026-03-22T11:25:27.682Z</time></trkpt><trkpt lat="44.48271" lon="9.3980424"><ele>1355.0</ele><time>2026-03-22T11:25:29.681Z</time></trkpt><trkpt lat="44.4827246" lon="9.3979077"><ele>1355.8</ele><time>2026-03-22T11:25:31.681Z</time></trkpt><trkpt lat="44.4827572" lon="9.3977998"><ele>1356.6</ele><time>2026-03-22T11:25:33.681Z</time></trkpt><trkpt lat="44.482793" lon="9.3977113"><ele>1357.4</ele><time>2026-03-22T11:25:35.681Z</time></trkpt><trkpt lat="44.4828664" lon="9.3976142"><ele>1358.2</ele><time>2026-03-22T11:25:37.681Z</time></trkpt><trkpt lat="44.4829476" lon="9.3975337"><ele>1359.0</ele><time>2026-03-22T11:25:39.681Z</time></trkpt><trkpt lat="44.4830301" lon="9.3974697"><ele>1359.0</ele><time>2026-03-22T11:25:41.681Z</time></trkpt><trkpt lat="44.4831166" lon="9.3974239"><ele>1359.0</ele><time>2026-03-22T11:25:43.681Z</time></trkpt><trkpt lat="44.4832345" lon="9.397403"><ele>1359.0</ele><time>2026-03-22T11:25:45.681Z</time></trkpt><trkpt lat="44.4832994" lon="9.3973942"><ele>1359.0</ele><time>2026-03-22T11:25:46.681Z</time></trkpt><trkpt lat="44.4833692" lon="9.3973918"><ele>1359.0</ele><time>2026-03-22T11:25:47.681Z</time></trkpt><trkpt lat="44.4834924" lon="9.3973966"><ele>1359.0</ele><time>2026-03-22T11:25:49.681Z</time></trkpt><trkpt lat="44.4835587" lon="9.3974014"><ele>1359.0</ele><time>2026-03-22T11:25:50.681Z</time></trkpt><trkpt lat="44.4836691" lon="9.3973888"><ele>1359.0</ele><time>2026-03-22T11:25:52.682Z</time></trkpt><trkpt lat="44.4837769" lon="9.3973845"><ele>1359.0</ele><time>2026-03-22T11:25:54.681Z</time></trkpt><trkpt lat="44.4838805" lon="9.3973792"><ele>1359.0</ele><time>2026-03-22T11:25:56.681Z</time></trkpt><trkpt lat="44.4839693" lon="9.3974133"><ele>1358.2</ele><time>2026-03-22T11:25:58.681Z</time></trkpt><trkpt lat="44.4840277" lon="9.3974568"><ele>1357.4</ele><time>2026-03-22T11:26:00.681Z</time></trkpt><trkpt lat="44.4841056" lon="9.3975136"><ele>1356.6</ele><time>2026-03-22T11:26:02.594Z</time></trkpt><trkpt lat="44.4841869" lon="9.3975483"><ele>1355.8</ele><time>2026-03-22T11:26:04.681Z</time></trkpt><trkpt lat="44.484286" lon="9.3974627"><ele>1355.0</ele><time>2026-03-22T11:26:06.681Z</time></trkpt><trkpt lat="44.484389" lon="9.3973931"><ele>1355.0000000000002</ele><time>2026-03-22T11:26:08.681Z</time></trkpt><trkpt lat="44.4844518" lon="9.397377"><ele>1355.0</ele><time>2026-03-22T11:26:09.682Z</time></trkpt><trkpt lat="44.4845224" lon="9.3973604"><ele>1355.0</ele><time>2026-03-22T11:26:11.681Z</time></trkpt><trkpt lat="44.4846047" lon="9.3973435"><ele>1355.0</ele><time>2026-03-22T11:26:14.681Z</time></trkpt><trkpt lat="44.484671" lon="9.3973284"><ele>1355.0</ele><time>2026-03-22T11:26:16.681Z</time></trkpt><trkpt lat="44.4847547" lon="9.3972944"><ele>1355.0000000000002</ele><time>2026-03-22T11:26:19.681Z</time></trkpt><trkpt lat="44.4848219" lon="9.3972504"><ele>1355.0</ele><time>2026-03-22T11:26:21.681Z</time></trkpt><trkpt lat="44.4849013" lon="9.3971953"><ele>1352.8</ele><time>2026-03-22T11:26:23.681Z</time></trkpt><trkpt lat="44.4849802" lon="9.3971289"><ele>1350.6</ele><time>2026-03-22T11:26:25.681Z</time></trkpt><trkpt lat="44.4850541" lon="9.3970456"><ele>1348.4</ele><time>2026-03-22T11:26:27.681Z</time></trkpt><trkpt lat="44.4850894" lon="9.3969706"><ele>1346.2</ele><time>2026-03-22T11:26:30.681Z</time></trkpt><trkpt lat="44.4851693" lon="9.3968323"><ele>1344.0</ele><time>2026-03-22T11:26:31.681Z</time></trkpt><trkpt lat="44.4852457" lon="9.3965856"><ele>1344.0</ele><time>2026-03-22T11:26:35.681Z</time></trkpt><trkpt lat="44.4852667" lon="9.3964347"><ele>1344.0</ele><time>2026-03-22T11:26:37.682Z</time></trkpt><trkpt lat="44.4852773" lon="9.396332"><ele>1344.0</ele><time>2026-03-22T11:26:39.681Z</time></trkpt><trkpt lat="44.4853113" lon="9.396214"><ele>1344.0</ele><time>2026-03-22T11:26:41.682Z</time></trkpt><trkpt lat="44.4853883" lon="9.3960996"><ele>1344.0</ele><time>2026-03-22T11:26:43.681Z</time></trkpt><trkpt lat="44.4854452" lon="9.3960355"><ele>1344.8333333333333</ele><time>2026-03-22T11:26:44.682Z</time></trkpt><trkpt lat="44.4854921" lon="9.3959757"><ele>1345.6666666666667</ele><time>2026-03-22T11:26:45.681Z</time></trkpt><trkpt lat="44.4855525" lon="9.3959194"><ele>1346.5</ele><time>2026-03-22T11:26:46.681Z</time></trkpt><trkpt lat="44.4856239" lon="9.3958199"><ele>1347.3333333333335</ele><time>2026-03-22T11:26:48.681Z</time></trkpt><trkpt lat="44.4856873" lon="9.3956923"><ele>1348.1666666666667</ele><time>2026-03-22T11:26:50.681Z</time></trkpt><trkpt lat="44.4857354" lon="9.3955735"><ele>1349.0</ele><time>2026-03-22T11:26:52.682Z</time></trkpt><trkpt lat="44.485753" lon="9.3954764"><ele>1346.4</ele><time>2026-03-22T11:26:54.681Z</time></trkpt><trkpt lat="44.4858349" lon="9.3953552"><ele>1343.8000000000002</ele><time>2026-03-22T11:26:56.681Z</time></trkpt><trkpt lat="44.4858922" lon="9.3952417"><ele>1341.1999999999998</ele><time>2026-03-22T11:26:58.681Z</time></trkpt><trkpt lat="44.4859495" lon="9.3951302"><ele>1338.6</ele><time>2026-03-22T11:27:00.681Z</time></trkpt><trkpt lat="44.4860053" lon="9.3950328"><ele>1336.0</ele><time>2026-03-22T11:27:02.681Z</time></trkpt><trkpt lat="44.4860605" lon="9.3949264"><ele>1336.0</ele><time>2026-03-22T11:27:05.681Z</time></trkpt><trkpt lat="44.4861826" lon="9.3948543"><ele>1336.0</ele><time>2026-03-22T11:27:07.681Z</time></trkpt><trkpt lat="44.4862707" lon="9.394761"><ele>1336.0</ele><time>2026-03-22T11:27:09.681Z</time></trkpt><trkpt lat="44.4863094" lon="9.3946861"><ele>1336.0</ele><time>2026-03-22T11:27:10.681Z</time></trkpt><trkpt lat="44.4863599" lon="9.3945612"><ele>1336.0</ele><time>2026-03-22T11:27:12.681Z</time></trkpt><trkpt lat="44.4864068" lon="9.3944325"><ele>1336.1666666666665</ele><time>2026-03-22T11:27:14.682Z</time></trkpt><trkpt lat="44.4864451" lon="9.3943206"><ele>1336.3333333333333</ele><time>2026-03-22T11:27:16.681Z</time></trkpt><trkpt lat="44.4864889" lon="9.3942038"><ele>1336.5</ele><time>2026-03-22T11:27:18.681Z</time></trkpt><trkpt lat="44.4865305" lon="9.394114"><ele>1336.6666666666667</ele><time>2026-03-22T11:27:20.681Z</time></trkpt><trkpt lat="44.4865733" lon="9.3940087"><ele>1336.8333333333335</ele><time>2026-03-22T11:27:22.681Z</time></trkpt><trkpt lat="44.486635" lon="9.3939068"><ele>1337.0</ele><time>2026-03-22T11:27:24.681Z</time></trkpt><trkpt lat="44.486698" lon="9.3938188"><ele>1334.6666666666667</ele><time>2026-03-22T11:27:26.681Z</time></trkpt><trkpt lat="44.4867522" lon="9.3937626"><ele>1332.3333333333335</ele><time>2026-03-22T11:27:28.681Z</time></trkpt><trkpt lat="44.4868214" lon="9.3937311"><ele>1330.0</ele><time>2026-03-22T11:27:30.681Z</time></trkpt><trkpt lat="44.4868877" lon="9.3936739"><ele>1327.6666666666667</ele><time>2026-03-22T11:27:32.681Z</time></trkpt><trkpt lat="44.4869775" lon="9.3936144"><ele>1325.3333333333333</ele><time>2026-03-22T11:27:34.682Z</time></trkpt><trkpt lat="44.4870841" lon="9.3935923"><ele>1323.0</ele><time>2026-03-22T11:27:37.681Z</time></trkpt><trkpt lat="44.4873709" lon="9.393535"><ele>1322.2</ele><time>2026-03-22T11:27:43.681Z</time></trkpt><trkpt lat="44.4874998" lon="9.3934926"><ele>1321.4</ele><time>2026-03-22T11:27:45.681Z</time></trkpt><trkpt lat="44.4876085" lon="9.3934444"><ele>1320.6000000000001</ele><time>2026-03-22T11:27:47.681Z</time></trkpt><trkpt lat="44.4877073" lon="9.3934166"><ele>1319.8000000000002</ele><time>2026-03-22T11:27:49.681Z</time></trkpt><trkpt lat="44.48779" lon="9.3933851"><ele>1319.0</ele><time>2026-03-22T11:27:51.681Z</time></trkpt><trkpt lat="44.4878622" lon="9.3934"><ele>1320.2</ele><time>2026-03-22T11:27:53.681Z</time></trkpt><trkpt lat="44.4879766" lon="9.3933811"><ele>1321.4</ele><time>2026-03-22T11:27:56.681Z</time></trkpt><trkpt lat="44.488073" lon="9.3933779"><ele>1322.6</ele><time>2026-03-22T11:27:58.673Z</time></trkpt><trkpt lat="44.4881506" lon="9.3932694"><ele>1323.8</ele><time>2026-03-22T11:28:00.681Z</time></trkpt><trkpt lat="44.4882378" lon="9.3931495"><ele>1325.0</ele><time>2026-03-22T11:28:02.682Z</time></trkpt><trkpt lat="44.4883256" lon="9.393057"><ele>1325.0</ele><time>2026-03-22T11:28:04.681Z</time></trkpt><trkpt lat="44.4884173" lon="9.3930536"><ele>1325.0</ele><time>2026-03-22T11:28:06.681Z</time></trkpt><trkpt lat="44.4885152" lon="9.3930368"><ele>1325.0</ele><time>2026-03-22T11:28:08.681Z</time></trkpt><trkpt lat="44.4885835" lon="9.3929999"><ele>1325.0</ele><time>2026-03-22T11:28:10.681Z</time></trkpt><trkpt lat="44.4886684" lon="9.3930041"><ele>1325.0</ele><time>2026-03-22T11:28:12.681Z</time></trkpt><trkpt lat="44.4887329" lon="9.3929961"><ele>1325.0</ele><time>2026-03-22T11:28:13.681Z</time></trkpt><trkpt lat="44.4888472" lon="9.3929704"><ele>1323.5714285714287</ele><time>2026-03-22T11:28:15.681Z</time></trkpt><trkpt lat="44.4889196" lon="9.3929508"><ele>1322.142857142857</ele><time>2026-03-22T11:28:17.682Z</time></trkpt><trkpt lat="44.488985" lon="9.3929081"><ele>1320.7142857142858</ele><time>2026-03-22T11:28:19.681Z</time></trkpt><trkpt lat="44.4890533" lon="9.3928775"><ele>1319.2857142857142</ele><time>2026-03-22T11:28:21.681Z</time></trkpt><trkpt lat="44.4891161" lon="9.3928259"><ele>1317.857142857143</ele><time>2026-03-22T11:28:23.681Z</time></trkpt><trkpt lat="44.4891768" lon="9.3927737"><ele>1316.4285714285713</ele><time>2026-03-22T11:28:25.682Z</time></trkpt><trkpt lat="44.4892346" lon="9.3927016"><ele>1315.0</ele><time>2026-03-22T11:28:28.681Z</time></trkpt><trkpt lat="44.4892648" lon="9.3926239"><ele>1315.0</ele><time>2026-03-22T11:33:15.681Z</time></trkpt><trkpt lat="44.4893161" lon="9.3925569"><ele>1315.0</ele><time>2026-03-22T11:33:30.681Z</time></trkpt><trkpt lat="44.489363" lon="9.3924852"><ele>1315.0</ele><time>2026-03-22T11:33:58.681Z</time></trkpt><trkpt lat="44.4893984" lon="9.3923891"><ele>1315.0</ele><time>2026-03-22T11:34:00.681Z</time></trkpt><trkpt lat="44.4894351" lon="9.3922871"><ele>1315.0</ele><time>2026-03-22T11:34:02.681Z</time></trkpt><trkpt lat="44.489483" lon="9.3921698"><ele>1315.0</ele><time>2026-03-22T11:34:04.681Z</time></trkpt><trkpt lat="44.489489" lon="9.3920633"><ele>1314.2857142857142</ele><time>2026-03-22T11:34:07.682Z</time></trkpt><trkpt lat="44.4894605" lon="9.3919703"><ele>1313.5714285714287</ele><time>2026-03-22T11:34:09.629Z</time></trkpt><trkpt lat="44.4894165" lon="9.3918847"><ele>1312.857142857143</ele><time>2026-03-22T11:34:11.681Z</time></trkpt><trkpt lat="44.4893697" lon="9.391804"><ele>1312.142857142857</ele><time>2026-03-22T11:34:13.691Z</time></trkpt><trkpt lat="44.4893355" lon="9.3917179"><ele>1311.4285714285713</ele><time>2026-03-22T11:34:15.681Z</time></trkpt><trkpt lat="44.4893013" lon="9.3916214"><ele>1310.7142857142858</ele><time>2026-03-22T11:34:17.681Z</time></trkpt><trkpt lat="44.4892748" lon="9.3915344"><ele>1310.0</ele><time>2026-03-22T11:34:19.681Z</time></trkpt><trkpt lat="44.4892534" lon="9.3914435"><ele>1310.0</ele><time>2026-03-22T11:34:21.681Z</time></trkpt><trkpt lat="44.489219" lon="9.3913576"><ele>1310.0</ele><time>2026-03-22T11:34:23.681Z</time></trkpt><trkpt lat="44.4891823" lon="9.3912716"><ele>1310.0</ele><time>2026-03-22T11:34:25.683Z</time></trkpt><trkpt lat="44.4891481" lon="9.3911901"><ele>1310.0</ele><time>2026-03-22T11:34:27.681Z</time></trkpt><trkpt lat="44.4890968" lon="9.3910887"><ele>1310.0</ele><time>2026-03-22T11:34:30.682Z</time></trkpt><trkpt lat="44.4890712" lon="9.3909812"><ele>1310.0</ele><time>2026-03-22T11:34:34.647Z</time></trkpt><trkpt lat="44.4891305" lon="9.3908955"><ele>1309.8333333333335</ele><time>2026-03-22T11:34:37.681Z</time></trkpt><trkpt lat="44.4891969" lon="9.3908886"><ele>1309.6666666666667</ele><time>2026-03-22T11:34:40.681Z</time></trkpt><trkpt lat="44.4892774" lon="9.3908873"><ele>1309.5</ele><time>2026-03-22T11:34:43.684Z</time></trkpt><trkpt lat="44.4893567" lon="9.3908711"><ele>1309.3333333333333</ele><time>2026-03-22T11:34:45.681Z</time></trkpt><trkpt lat="44.489436" lon="9.3908562"><ele>1309.1666666666665</ele><time>2026-03-22T11:34:48.681Z</time></trkpt><trkpt lat="44.4895144" lon="9.3908477"><ele>1309.0</ele><time>2026-03-22T11:34:50.681Z</time></trkpt><trkpt lat="44.489597" lon="9.3908515"><ele>1308.6666666666665</ele><time>2026-03-22T11:34:52.682Z</time></trkpt><trkpt lat="44.4896787" lon="9.390858"><ele>1308.3333333333333</ele><time>2026-03-22T11:34:54.681Z</time></trkpt><trkpt lat="44.4897708" lon="9.3908562"><ele>1308.0</ele><time>2026-03-22T11:34:56.681Z</time></trkpt><trkpt lat="44.4898571" lon="9.3908638"><ele>1307.6666666666667</ele><time>2026-03-22T11:34:58.689Z</time></trkpt><trkpt lat="44.4899536" lon="9.3908961"><ele>1307.3333333333335</ele><time>2026-03-22T11:35:00.681Z</time></trkpt><trkpt lat="44.4900225" lon="9.3909105"><ele>1307.0</ele><time>2026-03-22T11:35:01.681Z</time></trkpt><trkpt lat="44.4900982" lon="9.3909297"><ele>1307.0</ele><time>2026-03-22T11:35:02.681Z</time></trkpt><trkpt lat="44.4901709" lon="9.3909493"><ele>1307.0</ele><time>2026-03-22T11:35:03.681Z</time></trkpt><trkpt lat="44.4902372" lon="9.3909776"><ele>1307.0</ele><time>2026-03-22T11:35:04.681Z</time></trkpt><trkpt lat="44.490299" lon="9.391005"><ele>1307.0</ele><time>2026-03-22T11:35:05.682Z</time></trkpt><trkpt lat="44.4903623" lon="9.3910291"><ele>1307.0</ele><time>2026-03-22T11:35:06.681Z</time></trkpt><trkpt lat="44.4904251" lon="9.3910516"><ele>1307.0</ele><time>2026-03-22T11:35:07.681Z</time></trkpt><trkpt lat="44.4905445" lon="9.3911042"><ele>1307.1999999999998</ele><time>2026-03-22T11:35:09.681Z</time></trkpt><trkpt lat="44.4906026" lon="9.3911385"><ele>1307.4</ele><time>2026-03-22T11:35:10.681Z</time></trkpt><trkpt lat="44.490714" lon="9.3911811"><ele>1307.6</ele><time>2026-03-22T11:35:12.681Z</time></trkpt><trkpt lat="44.4908465" lon="9.3912347"><ele>1307.8000000000002</ele><time>2026-03-22T11:35:14.681Z</time></trkpt><trkpt lat="44.4909145" lon="9.3912666"><ele>1308.0</ele><time>2026-03-22T11:35:15.681Z</time></trkpt><trkpt lat="44.4909831" lon="9.3912956"><ele>1308.0</ele><time>2026-03-22T11:35:16.681Z</time></trkpt><trkpt lat="44.4910557" lon="9.3913159"><ele>1308.0</ele><time>2026-03-22T11:35:17.681Z</time></trkpt><trkpt lat="44.4911274" lon="9.3913056"><ele>1308.0</ele><time>2026-03-22T11:35:18.681Z</time></trkpt><trkpt lat="44.4911928" lon="9.3912994"><ele>1308.0</ele><time>2026-03-22T11:35:19.681Z</time></trkpt><trkpt lat="44.4912585" lon="9.3913004"><ele>1308.0</ele><time>2026-03-22T11:35:20.682Z</time></trkpt><trkpt lat="44.4913262" lon="9.3913064"><ele>1308.0</ele><time>2026-03-22T11:35:21.681Z</time></trkpt><trkpt lat="44.4913973" lon="9.3913143"><ele>1308.0</ele><time>2026-03-22T11:35:22.681Z</time></trkpt><trkpt lat="44.4914746" lon="9.3913218"><ele>1308.8333333333333</ele><time>2026-03-22T11:35:23.681Z</time></trkpt><trkpt lat="44.491558" lon="9.3913336"><ele>1309.6666666666667</ele><time>2026-03-22T11:35:24.681Z</time></trkpt><trkpt lat="44.4916421" lon="9.3913505"><ele>1310.5</ele><time>2026-03-22T11:35:25.681Z</time></trkpt><trkpt lat="44.4917284" lon="9.391367"><ele>1311.3333333333335</ele><time>2026-03-22T11:35:26.682Z</time></trkpt><trkpt lat="44.4918069" lon="9.3913866"><ele>1312.1666666666667</ele><time>2026-03-22T11:35:27.681Z</time></trkpt><trkpt lat="44.4918771" lon="9.3913977"><ele>1313.0</ele><time>2026-03-22T11:35:28.681Z</time></trkpt><trkpt lat="44.4919738" lon="9.3914278"><ele>1312.4</ele><time>2026-03-22T11:35:30.681Z</time></trkpt><trkpt lat="44.4920408" lon="9.3915076"><ele>1311.8000000000002</ele><time>2026-03-22T11:35:32.681Z</time></trkpt><trkpt lat="44.4921079" lon="9.3916131"><ele>1311.2</ele><time>2026-03-22T11:35:34.681Z</time></trkpt><trkpt lat="44.4922006" lon="9.3917005"><ele>1310.6</ele><time>2026-03-22T11:35:36.682Z</time></trkpt><trkpt lat="44.4923197" lon="9.3917422"><ele>1310.0</ele><time>2026-03-22T11:35:38.681Z</time></trkpt><trkpt lat="44.4923841" lon="9.3917482"><ele>1310.0</ele><time>2026-03-22T11:35:39.681Z</time></trkpt><trkpt lat="44.4924484" lon="9.391746"><ele>1310.0</ele><time>2026-03-22T11:35:40.681Z</time></trkpt><trkpt lat="44.4925607" lon="9.3917598"><ele>1310.0</ele><time>2026-03-22T11:35:42.681Z</time></trkpt><trkpt lat="44.4926482" lon="9.3917973"><ele>1310.0</ele><time>2026-03-22T11:35:44.681Z</time></trkpt><trkpt lat="44.4927056" lon="9.3918867"><ele>1310.0</ele><time>2026-03-22T11:35:46.681Z</time></trkpt><trkpt lat="44.492743" lon="9.3920141"><ele>1310.0</ele><time>2026-03-22T11:35:48.681Z</time></trkpt><trkpt lat="44.4927804" lon="9.392157"><ele>1310.0</ele><time>2026-03-22T11:35:50.681Z</time></trkpt><trkpt lat="44.4928201" lon="9.3922822"><ele>1310.0</ele><time>2026-03-22T11:35:52.681Z</time></trkpt><trkpt lat="44.4928873" lon="9.3923549"><ele>1310.0</ele><time>2026-03-22T11:35:54.682Z</time></trkpt><trkpt lat="44.4929796" lon="9.3922968"><ele>1310.0</ele><time>2026-03-22T11:35:56.681Z</time></trkpt><trkpt lat="44.4930952" lon="9.3923164"><ele>1310.6666666666667</ele><time>2026-03-22T11:35:58.681Z</time></trkpt><trkpt lat="44.4931687" lon="9.39229"><ele>1311.3333333333335</ele><time>2026-03-22T11:35:59.681Z</time></trkpt><trkpt lat="44.4932369" lon="9.392261"><ele>1312.0</ele><time>2026-03-22T11:36:00.681Z</time></trkpt><trkpt lat="44.4933275" lon="9.3922587"><ele>1312.6666666666667</ele><time>2026-03-22T11:36:02.681Z</time></trkpt><trkpt lat="44.493403" lon="9.3922963"><ele>1313.3333333333333</ele><time>2026-03-22T11:36:04.682Z</time></trkpt><trkpt lat="44.4934805" lon="9.3923844"><ele>1314.0</ele><time>2026-03-22T11:36:06.681Z</time></trkpt><trkpt lat="44.4935291" lon="9.3924486"><ele>1314.0</ele><time>2026-03-22T11:36:07.681Z</time></trkpt><trkpt lat="44.4935688" lon="9.3925287"><ele>1314.0</ele><time>2026-03-22T11:36:08.681Z</time></trkpt><trkpt lat="44.4936134" lon="9.3926648"><ele>1314.0</ele><time>2026-03-22T11:36:10.681Z</time></trkpt><trkpt lat="44.4936853" lon="9.3928092"><ele>1314.0</ele><time>2026-03-22T11:36:12.681Z</time></trkpt><trkpt lat="44.4937284" lon="9.392898"><ele>1314.0</ele><time>2026-03-22T11:36:13.681Z</time></trkpt><trkpt lat="44.4937762" lon="9.3929776"><ele>1313.6666666666667</ele><time>2026-03-22T11:36:14.681Z</time></trkpt><trkpt lat="44.4938332" lon="9.3930496"><ele>1313.3333333333333</ele><time>2026-03-22T11:36:15.681Z</time></trkpt><trkpt lat="44.4938784" lon="9.3931376"><ele>1313.0</ele><time>2026-03-22T11:36:16.681Z</time></trkpt><trkpt lat="44.4939287" lon="9.3932263"><ele>1312.6666666666665</ele><time>2026-03-22T11:36:17.681Z</time></trkpt><trkpt lat="44.4939965" lon="9.3933668"><ele>1312.3333333333333</ele><time>2026-03-22T11:36:19.681Z</time></trkpt><trkpt lat="44.4940124" lon="9.3934777"><ele>1312.0</ele><time>2026-03-22T11:36:21.681Z</time></trkpt><trkpt lat="44.4939936" lon="9.3935744"><ele>1312.0</ele><time>2026-03-22T11:36:22.681Z</time></trkpt><trkpt lat="44.4939603" lon="9.3936539"><ele>1312.0</ele><time>2026-03-22T11:36:23.681Z</time></trkpt><trkpt lat="44.4938691" lon="9.3937878"><ele>1312.0</ele><time>2026-03-22T11:36:25.681Z</time></trkpt><trkpt lat="44.4937745" lon="9.3938945"><ele>1312.0</ele><time>2026-03-22T11:36:27.681Z</time></trkpt><trkpt lat="44.4937018" lon="9.3939875"><ele>1312.0</ele><time>2026-03-22T11:36:29.681Z</time></trkpt><trkpt lat="44.4936169" lon="9.3941004"><ele>1313.1999999999998</ele><time>2026-03-22T11:36:32.681Z</time></trkpt><trkpt lat="44.4935565" lon="9.3941995"><ele>1314.4</ele><time>2026-03-22T11:36:34.682Z</time></trkpt><trkpt lat="44.4935173" lon="9.3943226"><ele>1315.6</ele><time>2026-03-22T11:36:36.681Z</time></trkpt><trkpt lat="44.493489" lon="9.3944124"><ele>1316.8000000000002</ele><time>2026-03-22T11:36:37.681Z</time></trkpt><trkpt lat="44.4934694" lon="9.394553"><ele>1318.0</ele><time>2026-03-22T11:36:40.681Z</time></trkpt><trkpt lat="44.4934512" lon="9.3947388"><ele>1318.0</ele><time>2026-03-22T11:36:42.682Z</time></trkpt><trkpt lat="44.4934366" lon="9.3948407"><ele>1318.0</ele><time>2026-03-22T11:36:44.681Z</time></trkpt><trkpt lat="44.4934094" lon="9.3949844"><ele>1318.0</ele><time>2026-03-22T11:36:46.682Z</time></trkpt><trkpt lat="44.4933724" lon="9.395187"><ele>1318.0</ele><time>2026-03-22T11:36:48.681Z</time></trkpt><trkpt lat="44.4933474" lon="9.3953431"><ele>1318.0</ele><time>2026-03-22T11:36:49.682Z</time></trkpt><trkpt lat="44.4933328" lon="9.3954371"><ele>1318.5714285714287</ele><time>2026-03-22T11:36:52.682Z</time></trkpt><trkpt lat="44.493327" lon="9.3955423"><ele>1319.142857142857</ele><time>2026-03-22T11:36:56.681Z</time></trkpt><trkpt lat="44.493325" lon="9.3956646"><ele>1319.7142857142858</ele><time>2026-03-22T11:36:59.681Z</time></trkpt><trkpt lat="44.4933306" lon="9.3957607"><ele>1320.2857142857142</ele><time>2026-03-22T11:37:01.681Z</time></trkpt><trkpt lat="44.4933422" lon="9.3958499"><ele>1320.857142857143</ele><time>2026-03-22T11:37:04.681Z</time></trkpt><trkpt lat="44.4933718" lon="9.3959568"><ele>1321.4285714285713</ele><time>2026-03-22T11:37:07.681Z</time></trkpt><trkpt lat="44.4934064" lon="9.3960354"><ele>1322.0</ele><time>2026-03-22T11:37:09.681Z</time></trkpt><trkpt lat="44.4934424" lon="9.3961511"><ele>1322.0</ele><time>2026-03-22T11:37:12.681Z</time></trkpt><trkpt lat="44.4934632" lon="9.3962436"><ele>1322.0</ele><time>2026-03-22T11:37:14.681Z</time></trkpt><trkpt lat="44.4935025" lon="9.3963948"><ele>1322.0</ele><time>2026-03-22T11:37:16.681Z</time></trkpt><trkpt lat="44.4935063" lon="9.3965422"><ele>1322.0</ele><time>2026-03-22T11:37:18.681Z</time></trkpt><trkpt lat="44.4935011" lon="9.3966484"><ele>1322.0</ele><time>2026-03-22T11:37:20.681Z</time></trkpt><trkpt lat="44.4935036" lon="9.3967686"><ele>1324.8333333333335</ele><time>2026-03-22T11:37:22.681Z</time></trkpt><trkpt lat="44.4935098" lon="9.3968829"><ele>1327.6666666666667</ele><time>2026-03-22T11:37:24.681Z</time></trkpt><trkpt lat="44.4935301" lon="9.3969845"><ele>1330.5</ele><time>2026-03-22T11:37:26.656Z</time></trkpt><trkpt lat="44.493564" lon="9.3970721"><ele>1333.3333333333333</ele><time>2026-03-22T11:37:28.598Z</time></trkpt><trkpt lat="44.4936184" lon="9.3972349"><ele>1336.1666666666665</ele><time>2026-03-22T11:37:30.682Z</time></trkpt><trkpt lat="44.4936443" lon="9.397322"><ele>1339.0</ele><time>2026-03-22T11:37:31.681Z</time></trkpt><trkpt lat="44.4936726" lon="9.3974012"><ele>1339.6666666666665</ele><time>2026-03-22T11:37:32.681Z</time></trkpt><trkpt lat="44.4937269" lon="9.3975134"><ele>1340.3333333333333</ele><time>2026-03-22T11:37:34.681Z</time></trkpt><trkpt lat="44.4937585" lon="9.39762"><ele>1341.0</ele><time>2026-03-22T11:37:36.681Z</time></trkpt><trkpt lat="44.4937533" lon="9.397776"><ele>1341.6666666666667</ele><time>2026-03-22T11:37:38.681Z</time></trkpt><trkpt lat="44.4937377" lon="9.3978754"><ele>1342.3333333333335</ele><time>2026-03-22T11:37:39.681Z</time></trkpt><trkpt lat="44.4937129" lon="9.3979708"><ele>1343.0</ele><time>2026-03-22T11:37:40.681Z</time></trkpt><trkpt lat="44.4936793" lon="9.398064"><ele>1343.0</ele><time>2026-03-22T11:37:41.681Z</time></trkpt><trkpt lat="44.4936472" lon="9.3981586"><ele>1343.0</ele><time>2026-03-22T11:37:42.681Z</time></trkpt><trkpt lat="44.4936337" lon="9.3982978"><ele>1343.0</ele><time>2026-03-22T11:37:44.681Z</time></trkpt><trkpt lat="44.4936551" lon="9.3984169"><ele>1343.0</ele><time>2026-03-22T11:37:46.681Z</time></trkpt><trkpt lat="44.4936781" lon="9.3985104"><ele>1343.0</ele><time>2026-03-22T11:37:47.681Z</time></trkpt><trkpt lat="44.4936804" lon="9.3986254"><ele>1343.0</ele><time>2026-03-22T11:37:48.681Z</time></trkpt><trkpt lat="44.4936809" lon="9.398743"><ele>1341.857142857143</ele><time>2026-03-22T11:37:49.682Z</time></trkpt><trkpt lat="44.4936814" lon="9.3988575"><ele>1340.7142857142858</ele><time>2026-03-22T11:37:50.681Z</time></trkpt><trkpt lat="44.493681" lon="9.3989751"><ele>1339.5714285714284</ele><time>2026-03-22T11:37:51.681Z</time></trkpt><trkpt lat="44.4936734" lon="9.399071"><ele>1338.4285714285716</ele><time>2026-03-22T11:37:52.681Z</time></trkpt><trkpt lat="44.4936603" lon="9.3991659"><ele>1337.2857142857144</ele><time>2026-03-22T11:37:53.681Z</time></trkpt><trkpt lat="44.4936553" lon="9.3992623"><ele>1336.142857142857</ele><time>2026-03-22T11:37:54.681Z</time></trkpt><trkpt lat="44.4936507" lon="9.3993533"><ele>1335.0</ele><time>2026-03-22T11:37:55.681Z</time></trkpt><trkpt lat="44.4936436" lon="9.3994427"><ele>1335.0</ele><time>2026-03-22T11:37:56.681Z</time></trkpt><trkpt lat="44.4936432" lon="9.3995377"><ele>1335.0</ele><time>2026-03-22T11:37:57.681Z</time></trkpt><trkpt lat="44.4936093" lon="9.3996265"><ele>1335.0</ele><time>2026-03-22T11:37:58.681Z</time></trkpt><trkpt lat="44.4935736" lon="9.3997674"><ele>1335.0</ele><time>2026-03-22T11:38:00.681Z</time></trkpt><trkpt lat="44.4935412" lon="9.3999138"><ele>1335.0</ele><time>2026-03-22T11:38:02.681Z</time></trkpt><trkpt lat="44.4935139" lon="9.4000494"><ele>1334.6666666666667</ele><time>2026-03-22T11:38:04.681Z</time></trkpt><trkpt lat="44.4934691" lon="9.400156"><ele>1334.3333333333333</ele><time>2026-03-22T11:38:06.682Z</time></trkpt><trkpt lat="44.4934565" lon="9.4002728"><ele>1334.0</ele><time>2026-03-22T11:38:08.681Z</time></trkpt><trkpt lat="44.4934422" lon="9.4003659"><ele>1333.6666666666665</ele><time>2026-03-22T11:38:09.681Z</time></trkpt><trkpt lat="44.4934294" lon="9.4004636"><ele>1333.3333333333333</ele><time>2026-03-22T11:38:10.681Z</time></trkpt><trkpt lat="44.493402" lon="9.4006015"><ele>1333.0</ele><time>2026-03-22T11:38:12.681Z</time></trkpt><trkpt lat="44.4933963" lon="9.4007348"><ele>1333.0</ele><time>2026-03-22T11:38:14.681Z</time></trkpt><trkpt lat="44.4934016" lon="9.4008647"><ele>1333.0</ele><time>2026-03-22T11:38:16.681Z</time></trkpt><trkpt lat="44.4934008" lon="9.400955"><ele>1333.0</ele><time>2026-03-22T11:38:19.681Z</time></trkpt><trkpt lat="44.4933637" lon="9.4012436"><ele>1333.0</ele><time>2026-03-22T11:38:22.681Z</time></trkpt><trkpt lat="44.4933676" lon="9.4013412"><ele>1333.0</ele><time>2026-03-22T11:38:23.681Z</time></trkpt><trkpt lat="44.4933697" lon="9.4014348"><ele>1333.6666666666665</ele><time>2026-03-22T11:38:24.682Z</time></trkpt><trkpt lat="44.4933743" lon="9.4015433"><ele>1334.3333333333333</ele><time>2026-03-22T11:38:25.681Z</time></trkpt><trkpt lat="44.4933597" lon="9.4016556"><ele>1335.0</ele><time>2026-03-22T11:38:26.681Z</time></trkpt><trkpt lat="44.4933393" lon="9.4017561"><ele>1335.6666666666667</ele><time>2026-03-22T11:38:27.681Z</time></trkpt><trkpt lat="44.493316" lon="9.4018608"><ele>1336.3333333333335</ele><time>2026-03-22T11:38:28.681Z</time></trkpt><trkpt lat="44.4932976" lon="9.4019647"><ele>1337.0</ele><time>2026-03-22T11:38:29.681Z</time></trkpt><trkpt lat="44.4932806" lon="9.4020508"><ele>1338.75</ele><time>2026-03-22T11:38:30.682Z</time></trkpt><trkpt lat="44.4932597" lon="9.4022216"><ele>1340.5</ele><time>2026-03-22T11:38:32.681Z</time></trkpt><trkpt lat="44.4932441" lon="9.4023935"><ele>1342.25</ele><time>2026-03-22T11:38:34.681Z</time></trkpt><trkpt lat="44.4932157" lon="9.4025815"><ele>1344.0</ele><time>2026-03-22T11:38:36.681Z</time></trkpt><trkpt lat="44.4931793" lon="9.4026961"><ele>1344.0</ele><time>2026-03-22T11:38:37.681Z</time></trkpt><trkpt lat="44.4931528" lon="9.4027967"><ele>1344.0</ele><time>2026-03-22T11:38:38.681Z</time></trkpt><trkpt lat="44.4931339" lon="9.4028866"><ele>1344.0</ele><time>2026-03-22T11:38:39.681Z</time></trkpt><trkpt lat="44.493117" lon="9.4030209"><ele>1344.0</ele><time>2026-03-22T11:38:41.681Z</time></trkpt><trkpt lat="44.493086" lon="9.4031535"><ele>1344.0</ele><time>2026-03-22T11:38:43.681Z</time></trkpt><trkpt lat="44.4930705" lon="9.4032586"><ele>1344.0</ele><time>2026-03-22T11:38:46.681Z</time></trkpt><trkpt lat="44.4930696" lon="9.4033609"><ele>1344.1666666666667</ele><time>2026-03-22T11:38:49.641Z</time></trkpt><trkpt lat="44.4930533" lon="9.4034736"><ele>1344.3333333333333</ele><time>2026-03-22T11:38:51.681Z</time></trkpt><trkpt lat="44.4930647" lon="9.4035645"><ele>1344.5</ele><time>2026-03-22T11:38:54.681Z</time></trkpt><trkpt lat="44.4930486" lon="9.4036993"><ele>1344.6666666666665</ele><time>2026-03-22T11:38:57.682Z</time></trkpt><trkpt lat="44.4930331" lon="9.4037886"><ele>1344.8333333333333</ele><time>2026-03-22T11:38:59.563Z</time></trkpt><trkpt lat="44.4930189" lon="9.4038778"><ele>1345.0</ele><time>2026-03-22T11:39:00.681Z</time></trkpt><trkpt lat="44.4930007" lon="9.4039973"><ele>1344.6</ele><time>2026-03-22T11:39:02.681Z</time></trkpt><trkpt lat="44.4929974" lon="9.4041003"><ele>1344.2</ele><time>2026-03-22T11:39:04.681Z</time></trkpt><trkpt lat="44.4929887" lon="9.4041953"><ele>1343.8000000000002</ele><time>2026-03-22T11:39:06.681Z</time></trkpt><trkpt lat="44.4929632" lon="9.4042806"><ele>1343.4</ele><time>2026-03-22T11:39:08.681Z</time></trkpt><trkpt lat="44.4929758" lon="9.4043671"><ele>1343.0</ele><time>2026-03-22T11:39:11.538Z</time></trkpt><trkpt lat="44.4930648" lon="9.4048021"><ele>1343.0</ele><time>2026-03-22T11:39:12.681Z</time></trkpt><trkpt lat="44.4930812" lon="9.4049165"><ele>1343.0</ele><time>2026-03-22T11:39:13.681Z</time></trkpt><trkpt lat="44.4930718" lon="9.4051072"><ele>1343.0</ele><time>2026-03-22T11:39:15.681Z</time></trkpt><trkpt lat="44.4930564" lon="9.405243"><ele>1343.0</ele><time>2026-03-22T11:39:16.681Z</time></trkpt><trkpt lat="44.4930378" lon="9.4053651"><ele>1343.0</ele><time>2026-03-22T11:39:17.681Z</time></trkpt><trkpt lat="44.493021" lon="9.4054654"><ele>1343.1666666666667</ele><time>2026-03-22T11:39:18.681Z</time></trkpt><trkpt lat="44.4930059" lon="9.4055593"><ele>1343.3333333333335</ele><time>2026-03-22T11:39:19.682Z</time></trkpt><trkpt lat="44.4929926" lon="9.4056504"><ele>1343.5</ele><time>2026-03-22T11:39:20.681Z</time></trkpt><trkpt lat="44.4929829" lon="9.4057467"><ele>1343.6666666666667</ele><time>2026-03-22T11:39:21.681Z</time></trkpt><trkpt lat="44.4929519" lon="9.4058983"><ele>1343.8333333333333</ele><time>2026-03-22T11:39:23.682Z</time></trkpt><trkpt lat="44.49288" lon="9.4060209"><ele>1344.0</ele><time>2026-03-22T11:39:25.681Z</time></trkpt><trkpt lat="44.4928012" lon="9.4060705"><ele>1344.0</ele><time>2026-03-22T11:39:27.681Z</time></trkpt><trkpt lat="44.4927031" lon="9.4061084"><ele>1344.0</ele><time>2026-03-22T11:39:30.681Z</time></trkpt><trkpt lat="44.492626" lon="9.4061242"><ele>1344.0</ele><time>2026-03-22T11:39:31.681Z</time></trkpt><trkpt lat="44.4925534" lon="9.4061305"><ele>1344.0</ele><time>2026-03-22T11:39:32.681Z</time></trkpt><trkpt lat="44.4924443" lon="9.4061428"><ele>1344.0</ele><time>2026-03-22T11:39:34.681Z</time></trkpt><trkpt lat="44.4923211" lon="9.4061511"><ele>1344.0</ele><time>2026-03-22T11:39:36.681Z</time></trkpt><trkpt lat="44.4922543" lon="9.4061608"><ele>1344.0</ele><time>2026-03-22T11:39:37.681Z</time></trkpt><trkpt lat="44.4921821" lon="9.4061648"><ele>1344.0</ele><time>2026-03-22T11:39:38.681Z</time></trkpt><trkpt lat="44.4921119" lon="9.4061829"><ele>1344.0</ele><time>2026-03-22T11:39:39.681Z</time></trkpt><trkpt lat="44.492046" lon="9.4062079"><ele>1344.0</ele><time>2026-03-22T11:39:40.681Z</time></trkpt><trkpt lat="44.4919846" lon="9.406249"><ele>1344.0</ele><time>2026-03-22T11:39:41.681Z</time></trkpt><trkpt lat="44.4918945" lon="9.4063607"><ele>1344.5714285714287</ele><time>2026-03-22T11:39:43.681Z</time></trkpt><trkpt lat="44.4918541" lon="9.4064403"><ele>1345.142857142857</ele><time>2026-03-22T11:39:44.682Z</time></trkpt><trkpt lat="44.4918253" lon="9.4065348"><ele>1345.7142857142858</ele><time>2026-03-22T11:39:45.681Z</time></trkpt><trkpt lat="44.4917931" lon="9.4066316"><ele>1346.2857142857142</ele><time>2026-03-22T11:39:46.681Z</time></trkpt><trkpt lat="44.4917532" lon="9.4067298"><ele>1346.857142857143</ele><time>2026-03-22T11:39:47.681Z</time></trkpt><trkpt lat="44.4917204" lon="9.4068262"><ele>1347.4285714285716</ele><time>2026-03-22T11:39:48.681Z</time></trkpt><trkpt lat="44.4916957" lon="9.4069168"><ele>1348.0</ele><time>2026-03-22T11:39:49.681Z</time></trkpt><trkpt lat="44.4916751" lon="9.4070024"><ele>1348.0</ele><time>2026-03-22T11:39:50.681Z</time></trkpt><trkpt lat="44.4916361" lon="9.4071371"><ele>1348.0</ele><time>2026-03-22T11:39:52.682Z</time></trkpt><trkpt lat="44.4916111" lon="9.4072253"><ele>1348.0</ele><time>2026-03-22T11:39:54.681Z</time></trkpt><trkpt lat="44.491609" lon="9.4073198"><ele>1348.0</ele><time>2026-03-22T11:39:57.682Z</time></trkpt><trkpt lat="44.4916028" lon="9.4074404"><ele>1348.0</ele><time>2026-03-22T11:40:00.681Z</time></trkpt><trkpt lat="44.4915924" lon="9.4075461"><ele>1348.0</ele><time>2026-03-22T11:44:25.681Z</time></trkpt><trkpt lat="44.4916209" lon="9.4076251"><ele>1347.5</ele><time>2026-03-22T11:44:29.681Z</time></trkpt><trkpt lat="44.4916346" lon="9.4077355"><ele>1347.0</ele><time>2026-03-22T11:44:32.681Z</time></trkpt><trkpt lat="44.491621" lon="9.4078271"><ele>1346.5</ele><time>2026-03-22T11:44:36.681Z</time></trkpt><trkpt lat="44.491626" lon="9.4079346"><ele>1346.0</ele><time>2026-03-22T11:44:41.597Z</time></trkpt><trkpt lat="44.4916594" lon="9.4080491"><ele>1345.5</ele><time>2026-03-22T11:44:44.633Z</time></trkpt><trkpt lat="44.4916731" lon="9.4081489"><ele>1345.0</ele><time>2026-03-22T11:44:47.682Z</time></trkpt><trkpt lat="44.4916714" lon="9.4082558"><ele>1345.0</ele><time>2026-03-22T11:44:50.681Z</time></trkpt><trkpt lat="44.4916623" lon="9.4083533"><ele>1345.0</ele><time>2026-03-22T11:47:06.681Z</time></trkpt><trkpt lat="44.4916807" lon="9.4084759"><ele>1345.0</ele><time>2026-03-22T11:47:08.681Z</time></trkpt><trkpt lat="44.491691" lon="9.4085763"><ele>1345.0</ele><time>2026-03-22T11:47:09.682Z</time></trkpt><trkpt lat="44.4916807" lon="9.4087009"><ele>1345.0</ele><time>2026-03-22T11:47:11.682Z</time></trkpt><trkpt lat="44.4916604" lon="9.40886"><ele>1345.0</ele><time>2026-03-22T11:47:14.681Z</time></trkpt><trkpt lat="44.4916587" lon="9.4089544"><ele>1345.6</ele><time>2026-03-22T11:47:15.681Z</time></trkpt><trkpt lat="44.4916537" lon="9.4090448"><ele>1346.2</ele><time>2026-03-22T11:47:16.681Z</time></trkpt><trkpt lat="44.4916478" lon="9.4091776"><ele>1346.8000000000002</ele><time>2026-03-22T11:47:18.681Z</time></trkpt><trkpt lat="44.4916496" lon="9.4093147"><ele>1347.4</ele><time>2026-03-22T11:47:20.681Z</time></trkpt><trkpt lat="44.4916455" lon="9.4094579"><ele>1348.0</ele><time>2026-03-22T11:47:22.681Z</time></trkpt><trkpt lat="44.4916403" lon="9.4095943"><ele>1347.6666666666665</ele><time>2026-03-22T11:47:24.681Z</time></trkpt><trkpt lat="44.4916295" lon="9.4097131"><ele>1347.3333333333333</ele><time>2026-03-22T11:47:26.681Z</time></trkpt><trkpt lat="44.4916005" lon="9.4098333"><ele>1347.0</ele><time>2026-03-22T11:47:28.682Z</time></trkpt><trkpt lat="44.4915852" lon="9.4099488"><ele>1346.6666666666667</ele><time>2026-03-22T11:47:30.682Z</time></trkpt><trkpt lat="44.4915727" lon="9.4100617"><ele>1346.3333333333335</ele><time>2026-03-22T11:47:32.681Z</time></trkpt><trkpt lat="44.491554" lon="9.4101508"><ele>1346.0</ele><time>2026-03-22T11:47:34.681Z</time></trkpt><trkpt lat="44.4915351" lon="9.4102486"><ele>1346.0</ele><time>2026-03-22T11:47:36.681Z</time></trkpt><trkpt lat="44.4915107" lon="9.4103534"><ele>1346.0</ele><time>2026-03-22T11:47:38.681Z</time></trkpt><trkpt lat="44.4914875" lon="9.4104477"><ele>1346.0</ele><time>2026-03-22T11:47:40.681Z</time></trkpt><trkpt lat="44.4914635" lon="9.4105637"><ele>1346.0</ele><time>2026-03-22T11:47:42.682Z</time></trkpt><trkpt lat="44.4914445" lon="9.4106853"><ele>1346.0</ele><time>2026-03-22T11:47:44.681Z</time></trkpt><trkpt lat="44.4914471" lon="9.4107806"><ele>1346.0</ele><time>2026-03-22T11:47:47.681Z</time></trkpt><trkpt lat="44.4914473" lon="9.4108856"><ele>1346.5714285714287</ele><time>2026-03-22T11:48:04.68Z</time></trkpt><trkpt lat="44.4914432" lon="9.4109909"><ele>1347.142857142857</ele><time>2026-03-22T11:48:09.681Z</time></trkpt><trkpt lat="44.4914357" lon="9.4111009"><ele>1347.7142857142858</ele><time>2026-03-22T11:48:16.68Z</time></trkpt><trkpt lat="44.4914489" lon="9.4111943"><ele>1348.2857142857142</ele><time>2026-03-22T11:48:19.681Z</time></trkpt><trkpt lat="44.4914829" lon="9.4113118"><ele>1348.857142857143</ele><time>2026-03-22T11:48:22.68Z</time></trkpt><trkpt lat="44.4915247" lon="9.4113805"><ele>1349.4285714285713</ele><time>2026-03-22T11:48:25.682Z</time></trkpt><trkpt lat="44.4915651" lon="9.4114604"><ele>1350.0</ele><time>2026-03-22T11:48:30.681Z</time></trkpt><trkpt lat="44.491585" lon="9.4115539"><ele>1351.3333333333333</ele><time>2026-03-22T11:48:35.681Z</time></trkpt><trkpt lat="44.4915908" lon="9.4116525"><ele>1352.6666666666667</ele><time>2026-03-22T11:48:39.681Z</time></trkpt><trkpt lat="44.4915855" lon="9.4117789"><ele>1354.0</ele><time>2026-03-22T11:48:43.681Z</time></trkpt><trkpt lat="44.491567" lon="9.4118728"><ele>1355.3333333333335</ele><time>2026-03-22T11:50:09.682Z</time></trkpt><trkpt lat="44.4915628" lon="9.4117824"><ele>1356.6666666666667</ele><time>2026-03-22T11:50:48.681Z</time></trkpt><trkpt lat="44.4915159" lon="9.4118808"><ele>1358.0</ele><time>2026-03-22T11:55:18.681Z</time></trkpt><trkpt lat="44.491481" lon="9.4120014"><ele>1358.0</ele><time>2026-03-22T11:55:21.681Z</time></trkpt><trkpt lat="44.4914642" lon="9.4121481"><ele>1358.0</ele><time>2026-03-22T11:55:24.681Z</time></trkpt><trkpt lat="44.4914421" lon="9.4123184"><ele>1358.0</ele><time>2026-03-22T11:55:26.681Z</time></trkpt><trkpt lat="44.4914079" lon="9.4124894"><ele>1358.0</ele><time>2026-03-22T11:55:28.681Z</time></trkpt><trkpt lat="44.4913839" lon="9.41258"><ele>1358.0</ele><time>2026-03-22T11:55:29.681Z</time></trkpt><trkpt lat="44.4913629" lon="9.4126679"><ele>1358.4285714285713</ele><time>2026-03-22T11:55:30.681Z</time></trkpt><trkpt lat="44.4913389" lon="9.4127632"><ele>1358.857142857143</ele><time>2026-03-22T11:55:31.681Z</time></trkpt><trkpt lat="44.4913286" lon="9.4128568"><ele>1359.2857142857142</ele><time>2026-03-22T11:55:32.681Z</time></trkpt><trkpt lat="44.4913182" lon="9.4129452"><ele>1359.7142857142858</ele><time>2026-03-22T11:55:33.681Z</time></trkpt><trkpt lat="44.4913043" lon="9.4130334"><ele>1360.142857142857</ele><time>2026-03-22T11:55:34.681Z</time></trkpt><trkpt lat="44.4912888" lon="9.4131405"><ele>1360.5714285714284</ele><time>2026-03-22T11:55:35.682Z</time></trkpt><trkpt lat="44.4912556" lon="9.4132486"><ele>1361.0</ele><time>2026-03-22T11:55:36.681Z</time></trkpt><trkpt lat="44.491219" lon="9.4133548"><ele>1363.4</ele><time>2026-03-22T11:55:37.682Z</time></trkpt><trkpt lat="44.4911929" lon="9.413471"><ele>1365.8</ele><time>2026-03-22T11:55:38.682Z</time></trkpt><trkpt lat="44.4911718" lon="9.4135903"><ele>1368.2</ele><time>2026-03-22T11:55:39.681Z</time></trkpt><trkpt lat="44.4911604" lon="9.4137214"><ele>1370.6000000000001</ele><time>2026-03-22T11:55:41.681Z</time></trkpt><trkpt lat="44.4911541" lon="9.4138655"><ele>1373.0</ele><time>2026-03-22T11:55:44.681Z</time></trkpt><trkpt lat="44.4911374" lon="9.4139789"><ele>1373.0</ele><time>2026-03-22T11:55:46.681Z</time></trkpt><trkpt lat="44.4911291" lon="9.4140827"><ele>1373.0</ele><time>2026-03-22T11:55:49.663Z</time></trkpt><trkpt lat="44.4911229" lon="9.4141794"><ele>1373.0</ele><time>2026-03-22T11:55:51.681Z</time></trkpt><trkpt lat="44.4911274" lon="9.4142773"><ele>1373.0</ele><time>2026-03-22T11:55:54.683Z</time></trkpt><trkpt lat="44.4911584" lon="9.4143906"><ele>1373.0</ele><time>2026-03-22T12:00:31.682Z</time></trkpt><trkpt lat="44.4912054" lon="9.414459"><ele>1373.0</ele><time>2026-03-22T12:00:35.681Z</time></trkpt><trkpt lat="44.4912548" lon="9.4145465"><ele>1373.0</ele><time>2026-03-22T12:00:39.681Z</time></trkpt><trkpt lat="44.4913071" lon="9.414602"><ele>1372.142857142857</ele><time>2026-03-22T12:00:42.681Z</time></trkpt><trkpt lat="44.491362" lon="9.4146631"><ele>1371.2857142857142</ele><time>2026-03-22T12:00:45.681Z</time></trkpt><trkpt lat="44.4914137" lon="9.4147534"><ele>1370.4285714285716</ele><time>2026-03-22T12:00:49.681Z</time></trkpt><trkpt lat="44.491449" lon="9.4148371"><ele>1369.5714285714284</ele><time>2026-03-22T12:00:52.681Z</time></trkpt><trkpt lat="44.4915009" lon="9.4149276"><ele>1368.7142857142856</ele><time>2026-03-22T12:00:55.681Z</time></trkpt><trkpt lat="44.4915373" lon="9.4149997"><ele>1367.857142857143</ele><time>2026-03-22T12:00:58.681Z</time></trkpt><trkpt lat="44.491571" lon="9.4150752"><ele>1367.0</ele><time>2026-03-22T12:01:01.681Z</time></trkpt><trkpt lat="44.4916101" lon="9.4151483"><ele>1367.0</ele><time>2026-03-22T12:01:04.682Z</time></trkpt><trkpt lat="44.4916672" lon="9.4152363"><ele>1367.0</ele><time>2026-03-22T12:01:07.681Z</time></trkpt><trkpt lat="44.4917109" lon="9.4153078"><ele>1367.0</ele><time>2026-03-22T12:01:10.681Z</time></trkpt><trkpt lat="44.4917497" lon="9.4153995"><ele>1367.0</ele><time>2026-03-22T12:01:15.68Z</time></trkpt><trkpt lat="44.4917808" lon="9.4155154"><ele>1367.0</ele><time>2026-03-22T12:01:26.682Z</time></trkpt><trkpt lat="44.4918122" lon="9.4156019"><ele>1367.0</ele><time>2026-03-22T12:01:30.681Z</time></trkpt><trkpt lat="44.4918499" lon="9.4156763"><ele>1367.5714285714287</ele><time>2026-03-22T12:01:35.681Z</time></trkpt><trkpt lat="44.4918959" lon="9.415737"><ele>1368.142857142857</ele><time>2026-03-22T12:01:39.681Z</time></trkpt><trkpt lat="44.4919428" lon="9.4157962"><ele>1368.7142857142858</ele><time>2026-03-22T12:01:43.681Z</time></trkpt><trkpt lat="44.4919856" lon="9.4158696"><ele>1369.2857142857142</ele><time>2026-03-22T12:01:47.663Z</time></trkpt><trkpt lat="44.4920258" lon="9.4159692"><ele>1369.857142857143</ele><time>2026-03-22T12:01:51.681Z</time></trkpt><trkpt lat="44.4920792" lon="9.4160692"><ele>1370.4285714285713</ele><time>2026-03-22T12:01:55.681Z</time></trkpt><trkpt lat="44.4921271" lon="9.4161656"><ele>1371.0</ele><time>2026-03-22T12:01:59.681Z</time></trkpt><trkpt lat="44.4921571" lon="9.4162595"><ele>1370.0</ele><time>2026-03-22T12:02:03.681Z</time></trkpt><trkpt lat="44.4921846" lon="9.416349"><ele>1369.0</ele><time>2026-03-22T12:02:07.681Z</time></trkpt><trkpt lat="44.492239" lon="9.4164513"><ele>1368.0</ele><time>2026-03-22T12:02:25.681Z</time></trkpt><trkpt lat="44.4922671" lon="9.4165319"><ele>1367.0</ele><time>2026-03-22T12:02:31.681Z</time></trkpt><trkpt lat="44.4923099" lon="9.4166039"><ele>1366.0</ele><time>2026-03-22T12:02:36.681Z</time></trkpt><trkpt lat="44.4923445" lon="9.4166836"><ele>1365.0</ele><time>2026-03-22T12:02:40.682Z</time></trkpt><trkpt lat="44.4923837" lon="9.4167606"><ele>1364.0</ele><time>2026-03-22T12:02:45.681Z</time></trkpt><trkpt lat="44.4924146" lon="9.4168396"><ele>1364.0</ele><time>2026-03-22T12:02:50.681Z</time></trkpt><trkpt lat="44.4924439" lon="9.4169181"><ele>1364.0</ele><time>2026-03-22T12:02:55.681Z</time></trkpt><trkpt lat="44.4924846" lon="9.4169954"><ele>1364.0</ele><time>2026-03-22T12:03:00.681Z</time></trkpt><trkpt lat="44.4925177" lon="9.4170737"><ele>1364.0</ele><time>2026-03-22T12:03:08.681Z</time></trkpt><trkpt lat="44.4925521" lon="9.4171609"><ele>1364.0</ele><time>2026-03-22T12:03:18.681Z</time></trkpt><trkpt lat="44.4926004" lon="9.4172214"><ele>1364.0</ele><time>2026-03-22T12:03:24.681Z</time></trkpt><trkpt lat="44.4926505" lon="9.4172767"><ele>1364.0</ele><time>2026-03-22T12:03:31.681Z</time></trkpt><trkpt lat="44.4927031" lon="9.4173294"><ele>1363.5</ele><time>2026-03-22T12:03:37.681Z</time></trkpt><trkpt lat="44.4927639" lon="9.4173749"><ele>1363.0</ele><time>2026-03-22T12:03:42.681Z</time></trkpt><trkpt lat="44.4928288" lon="9.4174016"><ele>1362.5</ele><time>2026-03-22T12:03:48.681Z</time></trkpt><trkpt lat="44.4929027" lon="9.4174314"><ele>1362.0</ele><time>2026-03-22T12:03:53.681Z</time></trkpt><trkpt lat="44.4929608" lon="9.4174659"><ele>1361.5</ele><time>2026-03-22T12:03:57.681Z</time></trkpt><trkpt lat="44.4930273" lon="9.4175112"><ele>1361.0</ele><time>2026-03-22T12:04:02.681Z</time></trkpt><trkpt lat="44.4931341" lon="9.4175423"><ele>1360.9999999999998</ele><time>2026-03-22T12:04:28.682Z</time></trkpt><trkpt lat="44.4932035" lon="9.4175806"><ele>1361.0</ele><time>2026-03-22T12:04:32.681Z</time></trkpt><trkpt lat="44.4932769" lon="9.4175914"><ele>1361.0</ele><time>2026-03-22T12:04:36.681Z</time></trkpt><trkpt lat="44.4933401" lon="9.4176235"><ele>1361.0</ele><time>2026-03-22T12:04:40.681Z</time></trkpt><trkpt lat="44.4934043" lon="9.4176563"><ele>1361.0</ele><time>2026-03-22T12:04:45.681Z</time></trkpt><trkpt lat="44.4934691" lon="9.4176829"><ele>1360.9999999999998</ele><time>2026-03-22T12:04:50.682Z</time></trkpt><trkpt lat="44.4935446" lon="9.4177219"><ele>1361.0</ele><time>2026-03-22T12:08:47.681Z</time></trkpt><trkpt lat="44.4936064" lon="9.4176933"><ele>1361.0</ele><time>2026-03-22T12:08:51.681Z</time></trkpt><trkpt lat="44.4936726" lon="9.4176657"><ele>1361.0</ele><time>2026-03-22T12:08:54.681Z</time></trkpt><trkpt lat="44.4937525" lon="9.4176546"><ele>1361.0</ele><time>2026-03-22T12:08:57.681Z</time></trkpt><trkpt lat="44.4938316" lon="9.4176696"><ele>1361.0</ele><time>2026-03-22T12:09:00.682Z</time></trkpt><trkpt lat="44.4939097" lon="9.4176817"><ele>1361.0</ele><time>2026-03-22T12:09:03.681Z</time></trkpt><trkpt lat="44.4939912" lon="9.4176409"><ele>1361.0</ele><time>2026-03-22T12:09:06.681Z</time></trkpt><trkpt lat="44.494052" lon="9.4175741"><ele>1359.6</ele><time>2026-03-22T12:09:09.681Z</time></trkpt><trkpt lat="44.4941217" lon="9.4175288"><ele>1358.1999999999998</ele><time>2026-03-22T12:09:12.66Z</time></trkpt><trkpt lat="44.4941937" lon="9.4175153"><ele>1356.8000000000002</ele><time>2026-03-22T12:09:15.676Z</time></trkpt><trkpt lat="44.4942703" lon="9.4175344"><ele>1355.4</ele><time>2026-03-22T12:09:20.681Z</time></trkpt><trkpt lat="44.4943321" lon="9.4175143"><ele>1354.0</ele><time>2026-03-22T12:09:24.682Z</time></trkpt><trkpt lat="44.4945105" lon="9.4173994"><ele>1352.5</ele><time>2026-03-22T12:09:25.681Z</time></trkpt><trkpt lat="44.4946874" lon="9.417294"><ele>1351.0</ele><time>2026-03-22T12:09:26.681Z</time></trkpt><trkpt lat="44.494794" lon="9.4171973"><ele>1349.5</ele><time>2026-03-22T12:09:27.681Z</time></trkpt><trkpt lat="44.4948609" lon="9.4171161"><ele>1348.0</ele><time>2026-03-22T12:09:29.681Z</time></trkpt><trkpt lat="44.4949106" lon="9.4170086"><ele>1348.0</ele><time>2026-03-22T12:09:31.682Z</time></trkpt><trkpt lat="44.4949343" lon="9.4168787"><ele>1348.0</ele><time>2026-03-22T12:09:33.682Z</time></trkpt><trkpt lat="44.494959" lon="9.4167863"><ele>1348.0</ele><time>2026-03-22T12:09:35.681Z</time></trkpt><trkpt lat="44.4950143" lon="9.4166618"><ele>1348.0</ele><time>2026-03-22T12:09:38.682Z</time></trkpt><trkpt lat="44.4950653" lon="9.4165645"><ele>1348.0</ele><time>2026-03-22T12:09:40.681Z</time></trkpt><trkpt lat="44.49511" lon="9.4164942"><ele>1348.0</ele><time>2026-03-22T12:09:41.681Z</time></trkpt><trkpt lat="44.4951573" lon="9.4164306"><ele>1348.0</ele><time>2026-03-22T12:09:43.681Z</time></trkpt><trkpt lat="44.4952112" lon="9.4163683"><ele>1348.0</ele><time>2026-03-22T12:09:45.634Z</time></trkpt><trkpt lat="44.495292" lon="9.416312"><ele>1348.0</ele><time>2026-03-22T12:09:47.681Z</time></trkpt><trkpt lat="44.4953748" lon="9.416284"><ele>1348.0</ele><time>2026-03-22T12:09:49.681Z</time></trkpt><trkpt lat="44.4954533" lon="9.4162639"><ele>1348.0</ele><time>2026-03-22T12:09:51.681Z</time></trkpt><trkpt lat="44.4955548" lon="9.416257"><ele>1348.0</ele><time>2026-03-22T12:09:53.681Z</time></trkpt><trkpt lat="44.4956239" lon="9.4162509"><ele>1347.2857142857144</ele><time>2026-03-22T12:09:55.681Z</time></trkpt><trkpt lat="44.4956881" lon="9.4162628"><ele>1346.5714285714287</ele><time>2026-03-22T12:09:57.681Z</time></trkpt><trkpt lat="44.4957516" lon="9.4162766"><ele>1345.857142857143</ele><time>2026-03-22T12:09:59.681Z</time></trkpt><trkpt lat="44.4958257" lon="9.416281"><ele>1345.1428571428573</ele><time>2026-03-22T12:10:01.681Z</time></trkpt><trkpt lat="44.4959182" lon="9.4163063"><ele>1344.4285714285716</ele><time>2026-03-22T12:10:03.681Z</time></trkpt><trkpt lat="44.4959901" lon="9.4163183"><ele>1343.7142857142858</ele><time>2026-03-22T12:10:05.682Z</time></trkpt><trkpt lat="44.4960679" lon="9.4163372"><ele>1343.0</ele><time>2026-03-22T12:10:07.681Z</time></trkpt><trkpt lat="44.4961434" lon="9.4162788"><ele>1340.8333333333335</ele><time>2026-03-22T12:10:10.681Z</time></trkpt><trkpt lat="44.4961689" lon="9.416183"><ele>1338.6666666666667</ele><time>2026-03-22T12:10:14.681Z</time></trkpt><trkpt lat="44.4961158" lon="9.4161058"><ele>1336.5</ele><time>2026-03-22T12:10:19.681Z</time></trkpt><trkpt lat="44.4960151" lon="9.415952"><ele>1334.3333333333333</ele><time>2026-03-22T12:10:23.681Z</time></trkpt><trkpt lat="44.4959803" lon="9.4158569"><ele>1332.1666666666665</ele><time>2026-03-22T12:10:26.681Z</time></trkpt><trkpt lat="44.4959795" lon="9.4157684"><ele>1330.0</ele><time>2026-03-22T12:10:31.681Z</time></trkpt><trkpt lat="44.4959239" lon="9.4156793"><ele>1330.0</ele><time>2026-03-22T12:10:34.681Z</time></trkpt><trkpt lat="44.4958675" lon="9.4155769"><ele>1330.0</ele><time>2026-03-22T12:10:37.681Z</time></trkpt><trkpt lat="44.4958321" lon="9.4154963"><ele>1330.0</ele><time>2026-03-22T12:10:39.681Z</time></trkpt><trkpt lat="44.495799" lon="9.4154197"><ele>1330.0</ele><time>2026-03-22T12:10:41.654Z</time></trkpt><trkpt lat="44.4957544" lon="9.4153475"><ele>1330.0</ele><time>2026-03-22T12:10:42.699Z</time></trkpt><trkpt lat="44.4956978" lon="9.4152494"><ele>1330.0</ele><time>2026-03-22T12:10:44.681Z</time></trkpt><trkpt lat="44.49565" lon="9.4151697"><ele>1330.0</ele><time>2026-03-22T12:10:46.681Z</time></trkpt><trkpt lat="44.4956064" lon="9.4150938"><ele>1330.0</ele><time>2026-03-22T12:10:48.681Z</time></trkpt><trkpt lat="44.4955399" lon="9.4150626"><ele>1330.0</ele><time>2026-03-22T12:10:51.681Z</time></trkpt><trkpt lat="44.4954929" lon="9.4151353"><ele>1330.0</ele><time>2026-03-22T12:10:55.682Z</time></trkpt><trkpt lat="44.4953481" lon="9.4149631"><ele>1330.0</ele><time>2026-03-22T12:10:57.681Z</time></trkpt><trkpt lat="44.4952791" lon="9.4148736"><ele>1326.5</ele><time>2026-03-22T12:10:58.619Z</time></trkpt><trkpt lat="44.4951495" lon="9.4146247"><ele>1323.0</ele><time>2026-03-22T12:10:59.681Z</time></trkpt><trkpt lat="44.4950867" lon="9.4144924"><ele>1319.5</ele><time>2026-03-22T12:11:01.681Z</time></trkpt><trkpt lat="44.4950581" lon="9.4144104"><ele>1316.0</ele><time>2026-03-22T12:11:03.681Z</time></trkpt><trkpt lat="44.4950327" lon="9.4143056"><ele>1316.0</ele><time>2026-03-22T12:11:06.681Z</time></trkpt><trkpt lat="44.4950249" lon="9.4142079"><ele>1316.0</ele><time>2026-03-22T12:11:09.681Z</time></trkpt><trkpt lat="44.4950295" lon="9.414097"><ele>1316.0</ele><time>2026-03-22T12:11:12.682Z</time></trkpt><trkpt lat="44.4950305" lon="9.4139566"><ele>1316.0</ele><time>2026-03-22T12:11:14.681Z</time></trkpt><trkpt lat="44.4949725" lon="9.413765"><ele>1316.0</ele><time>2026-03-22T12:11:20.682Z</time></trkpt><trkpt lat="44.4949327" lon="9.413659"><ele>1313.1999999999998</ele><time>2026-03-22T12:11:21.645Z</time></trkpt><trkpt lat="44.4948554" lon="9.4134021"><ele>1310.3999999999999</ele><time>2026-03-22T12:11:22.681Z</time></trkpt><trkpt lat="44.4948277" lon="9.4133161"><ele>1307.6</ele><time>2026-03-22T12:11:23.681Z</time></trkpt><trkpt lat="44.4947909" lon="9.4132149"><ele>1304.8</ele><time>2026-03-22T12:11:25.681Z</time></trkpt><trkpt lat="44.494769" lon="9.4131321"><ele>1302.0</ele><time>2026-03-22T12:11:27.681Z</time></trkpt><trkpt lat="44.494761" lon="9.4130259"><ele>1300.3333333333333</ele><time>2026-03-22T12:11:29.619Z</time></trkpt><trkpt lat="44.4947455" lon="9.4129347"><ele>1298.6666666666667</ele><time>2026-03-22T12:11:31.681Z</time></trkpt><trkpt lat="44.4947455" lon="9.4128137"><ele>1297.0</ele><time>2026-03-22T12:11:34.681Z</time></trkpt><trkpt lat="44.4947603" lon="9.412697"><ele>1295.3333333333335</ele><time>2026-03-22T12:11:37.642Z</time></trkpt><trkpt lat="44.4947715" lon="9.4125783"><ele>1293.6666666666667</ele><time>2026-03-22T12:11:39.681Z</time></trkpt><trkpt lat="44.4947951" lon="9.4124594"><ele>1292.0</ele><time>2026-03-22T12:11:41.681Z</time></trkpt><trkpt lat="44.4948469" lon="9.4123459"><ele>1292.0</ele><time>2026-03-22T12:11:44.681Z</time></trkpt><trkpt lat="44.494885" lon="9.4122465"><ele>1292.0</ele><time>2026-03-22T12:11:46.681Z</time></trkpt><trkpt lat="44.4949188" lon="9.4121329"><ele>1292.0</ele><time>2026-03-22T12:11:48.681Z</time></trkpt><trkpt lat="44.4949848" lon="9.412012"><ele>1292.0</ele><time>2026-03-22T12:11:51.681Z</time></trkpt><trkpt lat="44.4950432" lon="9.4119401"><ele>1292.0</ele><time>2026-03-22T12:11:53.681Z</time></trkpt><trkpt lat="44.4951076" lon="9.4118699"><ele>1292.0</ele><time>2026-03-22T12:11:55.626Z</time></trkpt><trkpt lat="44.4951742" lon="9.411789"><ele>1291.3333333333335</ele><time>2026-03-22T12:11:57.681Z</time></trkpt><trkpt lat="44.4952006" lon="9.4116988"><ele>1290.6666666666667</ele><time>2026-03-22T12:11:59.681Z</time></trkpt><trkpt lat="44.4952111" lon="9.4116004"><ele>1290.0</ele><time>2026-03-22T12:12:02.682Z</time></trkpt><trkpt lat="44.4952352" lon="9.4114796"><ele>1289.3333333333333</ele><time>2026-03-22T12:12:05.596Z</time></trkpt><trkpt lat="44.4952458" lon="9.4113667"><ele>1288.6666666666665</ele><time>2026-03-22T12:12:07.681Z</time></trkpt><trkpt lat="44.4952384" lon="9.4112425"><ele>1288.0</ele><time>2026-03-22T12:12:10.681Z</time></trkpt><trkpt lat="44.495238" lon="9.4110638"><ele>1287.1666666666665</ele><time>2026-03-22T12:12:13.681Z</time></trkpt><trkpt lat="44.4952393" lon="9.4109487"><ele>1286.3333333333333</ele><time>2026-03-22T12:12:15.681Z</time></trkpt><trkpt lat="44.4952656" lon="9.410835"><ele>1285.5</ele><time>2026-03-22T12:12:18.681Z</time></trkpt><trkpt lat="44.4953216" lon="9.4107935"><ele>1284.6666666666667</ele><time>2026-03-22T12:12:23.682Z</time></trkpt><trkpt lat="44.4953752" lon="9.4107403"><ele>1283.8333333333335</ele><time>2026-03-22T12:12:26.643Z</time></trkpt><trkpt lat="44.4954253" lon="9.4106741"><ele>1283.0</ele><time>2026-03-22T12:12:28.681Z</time></trkpt><trkpt lat="44.4955185" lon="9.4105854"><ele>1282.0</ele><time>2026-03-22T12:12:31.681Z</time></trkpt><trkpt lat="44.4956207" lon="9.4105598"><ele>1281.0</ele><time>2026-03-22T12:12:32.681Z</time></trkpt><trkpt lat="44.4957243" lon="9.4105481"><ele>1280.0</ele><time>2026-03-22T12:12:33.681Z</time></trkpt><trkpt lat="44.4958055" lon="9.4105551"><ele>1279.0</ele><time>2026-03-22T12:12:34.681Z</time></trkpt><trkpt lat="44.4959011" lon="9.4105956"><ele>1278.0</ele><time>2026-03-22T12:12:36.681Z</time></trkpt><trkpt lat="44.4959909" lon="9.410636"><ele>1278.0</ele><time>2026-03-22T12:12:38.681Z</time></trkpt><trkpt lat="44.4960781" lon="9.4106619"><ele>1278.0</ele><time>2026-03-22T12:12:40.681Z</time></trkpt><trkpt lat="44.4961593" lon="9.410723"><ele>1278.0</ele><time>2026-03-22T12:12:43.681Z</time></trkpt><trkpt lat="44.496205" lon="9.4107914"><ele>1278.0</ele><time>2026-03-22T12:12:45.681Z</time></trkpt><trkpt lat="44.496259" lon="9.4109026"><ele>1278.0</ele><time>2026-03-22T12:12:47.681Z</time></trkpt><trkpt lat="44.496308" lon="9.411003"><ele>1278.0</ele><time>2026-03-22T12:12:50.681Z</time></trkpt><trkpt lat="44.4963568" lon="9.4110872"><ele>1275.8333333333333</ele><time>2026-03-22T12:12:53.691Z</time></trkpt><trkpt lat="44.4964128" lon="9.4112207"><ele>1273.6666666666667</ele><time>2026-03-22T12:12:55.682Z</time></trkpt><trkpt lat="44.4964591" lon="9.4113169"><ele>1271.5</ele><time>2026-03-22T12:12:57.681Z</time></trkpt><trkpt lat="44.4965116" lon="9.4113959"><ele>1269.3333333333335</ele><time>2026-03-22T12:12:59.681Z</time></trkpt><trkpt lat="44.4965661" lon="9.4114887"><ele>1267.1666666666667</ele><time>2026-03-22T12:13:01.681Z</time></trkpt><trkpt lat="44.4966192" lon="9.4115802"><ele>1265.0</ele><time>2026-03-22T12:13:03.681Z</time></trkpt><trkpt lat="44.4966909" lon="9.4116918"><ele>1265.0</ele><time>2026-03-22T12:13:05.681Z</time></trkpt><trkpt lat="44.4967379" lon="9.4117971"><ele>1265.0</ele><time>2026-03-22T12:13:07.681Z</time></trkpt><trkpt lat="44.4967761" lon="9.411899"><ele>1265.0</ele><time>2026-03-22T12:13:09.681Z</time></trkpt><trkpt lat="44.4968126" lon="9.4119923"><ele>1265.0</ele><time>2026-03-22T12:13:11.681Z</time></trkpt><trkpt lat="44.4968475" lon="9.4120749"><ele>1265.0</ele><time>2026-03-22T12:13:13.603Z</time></trkpt><trkpt lat="44.4968865" lon="9.4122037"><ele>1265.0</ele><time>2026-03-22T12:13:15.681Z</time></trkpt><trkpt lat="44.4969093" lon="9.4122926"><ele>1266.0</ele><time>2026-03-22T12:13:17.681Z</time></trkpt><trkpt lat="44.4969297" lon="9.4123898"><ele>1267.0</ele><time>2026-03-22T12:13:19.681Z</time></trkpt><trkpt lat="44.4969614" lon="9.4125045"><ele>1268.0</ele><time>2026-03-22T12:13:21.681Z</time></trkpt><trkpt lat="44.4969953" lon="9.4126381"><ele>1269.0</ele><time>2026-03-22T12:13:23.681Z</time></trkpt><trkpt lat="44.4970419" lon="9.412752"><ele>1270.0</ele><time>2026-03-22T12:13:26.666Z</time></trkpt><trkpt lat="44.4970888" lon="9.4128334"><ele>1271.0</ele><time>2026-03-22T12:13:28.646Z</time></trkpt><trkpt lat="44.4971664" lon="9.4129428"><ele>1268.3333333333335</ele><time>2026-03-22T12:13:30.681Z</time></trkpt><trkpt lat="44.4972209" lon="9.4130263"><ele>1265.6666666666667</ele><time>2026-03-22T12:13:32.681Z</time></trkpt><trkpt lat="44.4972543" lon="9.4131025"><ele>1263.0</ele><time>2026-03-22T12:13:34.581Z</time></trkpt><trkpt lat="44.4973178" lon="9.4132098"><ele>1260.3333333333333</ele><time>2026-03-22T12:13:36.681Z</time></trkpt><trkpt lat="44.4973914" lon="9.4132847"><ele>1257.6666666666665</ele><time>2026-03-22T12:13:38.681Z</time></trkpt><trkpt lat="44.4974611" lon="9.4133043"><ele>1255.0</ele><time>2026-03-22T12:13:40.681Z</time></trkpt><trkpt lat="44.4975366" lon="9.4133018"><ele>1255.0</ele><time>2026-03-22T12:13:42.681Z</time></trkpt><trkpt lat="44.4976164" lon="9.4132996"><ele>1255.0</ele><time>2026-03-22T12:13:44.606Z</time></trkpt><trkpt lat="44.4976878" lon="9.4132706"><ele>1255.0</ele><time>2026-03-22T12:13:46.683Z</time></trkpt><trkpt lat="44.497735" lon="9.4131795"><ele>1255.0</ele><time>2026-03-22T12:13:49.681Z</time></trkpt><trkpt lat="44.4977559" lon="9.4130696"><ele>1255.0</ele><time>2026-03-22T12:13:52.681Z</time></trkpt><trkpt lat="44.4977476" lon="9.4129429"><ele>1255.0</ele><time>2026-03-22T12:13:55.681Z</time></trkpt><trkpt lat="44.4977337" lon="9.4128173"><ele>1253.0</ele><time>2026-03-22T12:13:58.682Z</time></trkpt><trkpt lat="44.4977306" lon="9.4126957"><ele>1251.0</ele><time>2026-03-22T12:14:00.681Z</time></trkpt><trkpt lat="44.4977473" lon="9.4125702"><ele>1249.0</ele><time>2026-03-22T12:14:03.681Z</time></trkpt><trkpt lat="44.4977569" lon="9.4124515"><ele>1247.0</ele><time>2026-03-22T12:14:06.681Z</time></trkpt><trkpt lat="44.4977203" lon="9.4122656"><ele>1245.0</ele><time>2026-03-22T12:14:09.681Z</time></trkpt><trkpt lat="44.4977131" lon="9.4121339"><ele>1243.2</ele><time>2026-03-22T12:14:10.681Z</time></trkpt><trkpt lat="44.497701" lon="9.4119926"><ele>1241.4</ele><time>2026-03-22T12:14:11.681Z</time></trkpt><trkpt lat="44.497698" lon="9.4118392"><ele>1239.6</ele><time>2026-03-22T12:14:12.681Z</time></trkpt><trkpt lat="44.497709" lon="9.4117106"><ele>1237.8</ele><time>2026-03-22T12:14:13.681Z</time></trkpt><trkpt lat="44.4977465" lon="9.4116215"><ele>1236.0</ele><time>2026-03-22T12:14:14.681Z</time></trkpt><trkpt lat="44.4978003" lon="9.4114721"><ele>1236.0</ele><time>2026-03-22T12:14:16.681Z</time></trkpt><trkpt lat="44.4978468" lon="9.411338"><ele>1236.0</ele><time>2026-03-22T12:14:18.682Z</time></trkpt><trkpt lat="44.4978955" lon="9.4112177"><ele>1236.0</ele><time>2026-03-22T12:14:20.682Z</time></trkpt><trkpt lat="44.4979448" lon="9.4110596"><ele>1236.0</ele><time>2026-03-22T12:14:23.681Z</time></trkpt><trkpt lat="44.4980017" lon="9.4109799"><ele>1236.0</ele><time>2026-03-22T12:14:26.681Z</time></trkpt><trkpt lat="44.4980677" lon="9.4109956"><ele>1231.3333333333333</ele><time>2026-03-22T12:14:29.681Z</time></trkpt><trkpt lat="44.4981218" lon="9.4110514"><ele>1226.6666666666667</ele><time>2026-03-22T12:14:31.681Z</time></trkpt><trkpt lat="44.4981904" lon="9.411156"><ele>1222.0</ele><time>2026-03-22T12:14:34.681Z</time></trkpt><trkpt lat="44.4982422" lon="9.4112582"><ele>1217.3333333333335</ele><time>2026-03-22T12:14:36.681Z</time></trkpt><trkpt lat="44.4982814" lon="9.4113275"><ele>1212.6666666666667</ele><time>2026-03-22T12:14:38.663Z</time></trkpt><trkpt lat="44.4983306" lon="9.4114263"><ele>1208.0</ele><time>2026-03-22T12:14:41.679Z</time></trkpt><trkpt lat="44.498377" lon="9.4115143"><ele>1208.0</ele><time>2026-03-22T12:14:43.681Z</time></trkpt><trkpt lat="44.4984276" lon="9.4115867"><ele>1208.0</ele><time>2026-03-22T12:14:45.681Z</time></trkpt><trkpt lat="44.4985007" lon="9.4115899"><ele>1208.0</ele><time>2026-03-22T12:14:48.681Z</time></trkpt><trkpt lat="44.4984842" lon="9.4115047"><ele>1208.0</ele><time>2026-03-22T12:14:52.681Z</time></trkpt><trkpt lat="44.4984668" lon="9.4114113"><ele>1208.0</ele><time>2026-03-22T12:14:55.681Z</time></trkpt><trkpt lat="44.4984816" lon="9.4112688"><ele>1208.0</ele><time>2026-03-22T12:14:58.681Z</time></trkpt><trkpt lat="44.4985077" lon="9.4111431"><ele>1206.6666666666667</ele><time>2026-03-22T12:15:00.681Z</time></trkpt><trkpt lat="44.4985251" lon="9.4110394"><ele>1205.3333333333335</ele><time>2026-03-22T12:15:02.681Z</time></trkpt><trkpt lat="44.4985542" lon="9.4109387"><ele>1204.0</ele><time>2026-03-22T12:15:04.681Z</time></trkpt><trkpt lat="44.498602" lon="9.4108233"><ele>1202.6666666666667</ele><time>2026-03-22T12:15:06.681Z</time></trkpt><trkpt lat="44.4986375" lon="9.4106834"><ele>1201.3333333333333</ele><time>2026-03-22T12:15:08.681Z</time></trkpt><trkpt lat="44.4986519" lon="9.4105824"><ele>1200.0</ele><time>2026-03-22T12:15:10.658Z</time></trkpt><trkpt lat="44.4986653" lon="9.4104366"><ele>1198.6</ele><time>2026-03-22T12:15:12.681Z</time></trkpt><trkpt lat="44.4986875" lon="9.4102712"><ele>1197.2</ele><time>2026-03-22T12:15:14.681Z</time></trkpt><trkpt lat="44.4986969" lon="9.4101299"><ele>1195.8</ele><time>2026-03-22T12:15:15.681Z</time></trkpt><trkpt lat="44.4987025" lon="9.4099951"><ele>1194.4</ele><time>2026-03-22T12:15:16.681Z</time></trkpt><trkpt lat="44.4987076" lon="9.4098681"><ele>1193.0</ele><time>2026-03-22T12:15:17.681Z</time></trkpt><trkpt lat="44.498708" lon="9.4097616"><ele>1193.0</ele><time>2026-03-22T12:15:18.681Z</time></trkpt><trkpt lat="44.4986836" lon="9.409654"><ele>1193.0</ele><time>2026-03-22T12:15:19.681Z</time></trkpt><trkpt lat="44.4986525" lon="9.4095456"><ele>1193.0</ele><time>2026-03-22T12:15:21.681Z</time></trkpt><trkpt lat="44.4986686" lon="9.4094188"><ele>1193.0</ele><time>2026-03-22T12:15:23.681Z</time></trkpt><trkpt lat="44.4986677" lon="9.4092985"><ele>1193.0</ele><time>2026-03-22T12:15:25.681Z</time></trkpt><trkpt lat="44.4986739" lon="9.4091703"><ele>1193.0</ele><time>2026-03-22T12:15:27.681Z</time></trkpt><trkpt lat="44.4986833" lon="9.4090402"><ele>1193.0</ele><time>2026-03-22T12:15:29.681Z</time></trkpt><trkpt lat="44.4986817" lon="9.4089341"><ele>1193.0</ele><time>2026-03-22T12:15:31.681Z</time></trkpt><trkpt lat="44.4986874" lon="9.4088218"><ele>1193.0</ele><time>2026-03-22T12:15:33.681Z</time></trkpt><trkpt lat="44.4986961" lon="9.4086978"><ele>1193.0</ele><time>2026-03-22T12:15:35.681Z</time></trkpt><trkpt lat="44.4987021" lon="9.4085875"><ele>1193.0</ele><time>2026-03-22T12:15:37.681Z</time></trkpt><trkpt lat="44.4986997" lon="9.4084975"><ele>1193.0</ele><time>2026-03-22T12:15:39.681Z</time></trkpt><trkpt lat="44.4986893" lon="9.4084067"><ele>1193.0</ele><time>2026-03-22T12:15:41.682Z</time></trkpt><trkpt lat="44.4986664" lon="9.4083194"><ele>1193.0</ele><time>2026-03-22T12:15:43.682Z</time></trkpt><trkpt lat="44.4986828" lon="9.4082332"><ele>1193.0</ele><time>2026-03-22T12:15:46.681Z</time></trkpt><trkpt lat="44.4987491" lon="9.4083612"><ele>1193.0</ele><time>2026-03-22T12:15:50.686Z</time></trkpt><trkpt lat="44.4987971" lon="9.4084396"><ele>1193.0</ele><time>2026-03-22T12:15:54.681Z</time></trkpt><trkpt lat="44.4988617" lon="9.4085082"><ele>1193.0</ele><time>2026-03-22T12:15:57.681Z</time></trkpt><trkpt lat="44.4989217" lon="9.4085892"><ele>1186.5</ele><time>2026-03-22T12:16:00.681Z</time></trkpt><trkpt lat="44.49897" lon="9.4086707"><ele>1180.0</ele><time>2026-03-22T12:16:03.681Z</time></trkpt><trkpt lat="44.4990283" lon="9.4086072"><ele>1173.5</ele><time>2026-03-22T12:16:09.682Z</time></trkpt><trkpt lat="44.4990542" lon="9.4085024"><ele>1167.0</ele><time>2026-03-22T12:16:13.585Z</time></trkpt><trkpt lat="44.4990737" lon="9.408378"><ele>1160.5</ele><time>2026-03-22T12:16:16.681Z</time></trkpt><trkpt lat="44.4990706" lon="9.408286"><ele>1154.0</ele><time>2026-03-22T12:16:18.681Z</time></trkpt><trkpt lat="44.4990713" lon="9.4081898"><ele>1154.0</ele><time>2026-03-22T12:16:20.681Z</time></trkpt><trkpt lat="44.4990735" lon="9.4080965"><ele>1154.0</ele><time>2026-03-22T12:16:22.681Z</time></trkpt><trkpt lat="44.4990757" lon="9.4079936"><ele>1154.0</ele><time>2026-03-22T12:16:24.681Z</time></trkpt><trkpt lat="44.4990635" lon="9.4078705"><ele>1154.0</ele><time>2026-03-22T12:16:27.681Z</time></trkpt><trkpt lat="44.4990656" lon="9.4077523"><ele>1154.0</ele><time>2026-03-22T12:16:30.681Z</time></trkpt><trkpt lat="44.4991304" lon="9.407734"><ele>1154.0</ele><time>2026-03-22T12:16:33.682Z</time></trkpt><trkpt lat="44.4992021" lon="9.4077319"><ele>1152.8</ele><time>2026-03-22T12:16:37.681Z</time></trkpt><trkpt lat="44.4992699" lon="9.4077281"><ele>1151.6000000000001</ele><time>2026-03-22T12:16:40.681Z</time></trkpt><trkpt lat="44.4993667" lon="9.4077576"><ele>1150.4</ele><time>2026-03-22T12:16:43.681Z</time></trkpt><trkpt lat="44.4994511" lon="9.4078336"><ele>1149.2</ele><time>2026-03-22T12:16:45.681Z</time></trkpt><trkpt lat="44.4995247" lon="9.4079115"><ele>1148.0</ele><time>2026-03-22T12:16:48.681Z</time></trkpt><trkpt lat="44.4996161" lon="9.407974"><ele>1145.2</ele><time>2026-03-22T12:16:50.681Z</time></trkpt><trkpt lat="44.4997138" lon="9.4080122"><ele>1142.4</ele><time>2026-03-22T12:16:52.681Z</time></trkpt><trkpt lat="44.4998027" lon="9.408055"><ele>1139.6000000000001</ele><time>2026-03-22T12:16:54.588Z</time></trkpt><trkpt lat="44.4999108" lon="9.4081043"><ele>1136.8</ele><time>2026-03-22T12:16:56.67Z</time></trkpt><trkpt lat="44.4999938" lon="9.4081618"><ele>1134.0</ele><time>2026-03-22T12:16:58.681Z</time></trkpt><trkpt lat="44.5000676" lon="9.4082266"><ele>1134.0</ele><time>2026-03-22T12:17:00.681Z</time></trkpt><trkpt lat="44.500158" lon="9.4082577"><ele>1134.0</ele><time>2026-03-22T12:17:02.682Z</time></trkpt><trkpt lat="44.500244" lon="9.4082338"><ele>1134.0</ele><time>2026-03-22T12:17:04.603Z</time></trkpt><trkpt lat="44.5003189" lon="9.4081833"><ele>1134.0</ele><time>2026-03-22T12:17:06.681Z</time></trkpt><trkpt lat="44.5003706" lon="9.4081127"><ele>1134.0</ele><time>2026-03-22T12:17:08.681Z</time></trkpt><trkpt lat="44.5004125" lon="9.4080266"><ele>1134.0</ele><time>2026-03-22T12:17:10.681Z</time></trkpt><trkpt lat="44.5004633" lon="9.4079044"><ele>1128.8333333333333</ele><time>2026-03-22T12:17:13.681Z</time></trkpt><trkpt lat="44.5004909" lon="9.4078152"><ele>1123.6666666666667</ele><time>2026-03-22T12:17:15.681Z</time></trkpt><trkpt lat="44.5005151" lon="9.4077175"><ele>1118.5</ele><time>2026-03-22T12:17:17.681Z</time></trkpt><trkpt lat="44.5005416" lon="9.4075884"><ele>1113.3333333333335</ele><time>2026-03-22T12:17:20.622Z</time></trkpt><trkpt lat="44.5005644" lon="9.407489"><ele>1108.1666666666667</ele><time>2026-03-22T12:17:22.681Z</time></trkpt><trkpt lat="44.5005798" lon="9.4073904"><ele>1103.0</ele><time>2026-03-22T12:17:25.681Z</time></trkpt><trkpt lat="44.5005723" lon="9.4072937"><ele>1103.0</ele><time>2026-03-22T12:17:29.681Z</time></trkpt><trkpt lat="44.500541" lon="9.4072158"><ele>1103.0</ele><time>2026-03-22T12:17:34.681Z</time></trkpt><trkpt lat="44.5005603" lon="9.4071208"><ele>1103.0</ele><time>2026-03-22T12:18:24.681Z</time></trkpt><trkpt lat="44.5006359" lon="9.4071016"><ele>1103.0</ele><time>2026-03-22T12:18:28.682Z</time></trkpt><trkpt lat="44.5006844" lon="9.4071909"><ele>1103.0</ele><time>2026-03-22T12:18:32.681Z</time></trkpt><trkpt lat="44.5007113" lon="9.4073173"><ele>1103.0</ele><time>2026-03-22T12:18:35.681Z</time></trkpt><trkpt lat="44.5007334" lon="9.407407"><ele>1103.0</ele><time>2026-03-22T12:18:38.681Z</time></trkpt><trkpt lat="44.5007534" lon="9.4075095"><ele>1103.0</ele><time>2026-03-22T12:18:40.681Z</time></trkpt><trkpt lat="44.5007986" lon="9.4076132"><ele>1103.0</ele><time>2026-03-22T12:18:46.681Z</time></trkpt><trkpt lat="44.5008283" lon="9.4077225"><ele>1103.0</ele><time>2026-03-22T12:18:49.682Z</time></trkpt><trkpt lat="44.5008271" lon="9.4078365"><ele>1103.0</ele><time>2026-03-22T12:18:52.681Z</time></trkpt><trkpt lat="44.5008244" lon="9.4079271"><ele>1103.0</ele><time>2026-03-22T12:18:54.681Z</time></trkpt><trkpt lat="44.5008279" lon="9.4080414"><ele>1103.5</ele><time>2026-03-22T12:18:57.681Z</time></trkpt><trkpt lat="44.5008348" lon="9.4081388"><ele>1104.0</ele><time>2026-03-22T12:19:00.681Z</time></trkpt><trkpt lat="44.50087" lon="9.4082238"><ele>1104.5</ele><time>2026-03-22T12:19:03.681Z</time></trkpt><trkpt lat="44.5009432" lon="9.408297"><ele>1105.0</ele><time>2026-03-22T12:19:06.681Z</time></trkpt><trkpt lat="44.5009998" lon="9.4083551"><ele>1105.5</ele><time>2026-03-22T12:19:09.681Z</time></trkpt><trkpt lat="44.5010576" lon="9.4084366"><ele>1106.0</ele><time>2026-03-22T12:19:12.681Z</time></trkpt><trkpt lat="44.501123" lon="9.408501"><ele>1106.0</ele><time>2026-03-22T12:19:15.681Z</time></trkpt><trkpt lat="44.5012033" lon="9.4085429"><ele>1106.0</ele><time>2026-03-22T12:19:18.681Z</time></trkpt><trkpt lat="44.5012801" lon="9.4085313"><ele>1106.0</ele><time>2026-03-22T12:19:21.681Z</time></trkpt><trkpt lat="44.5013405" lon="9.4084934"><ele>1106.0</ele><time>2026-03-22T12:19:24.682Z</time></trkpt><trkpt lat="44.5014077" lon="9.4085185"><ele>1106.0</ele><time>2026-03-22T12:19:27.681Z</time></trkpt><trkpt lat="44.5014641" lon="9.4085977"><ele>1106.0</ele><time>2026-03-22T12:19:30.681Z</time></trkpt><trkpt lat="44.5015085" lon="9.4086674"><ele>1106.0</ele><time>2026-03-22T12:19:32.681Z</time></trkpt><trkpt lat="44.5015382" lon="9.4087506"><ele>1102.0</ele><time>2026-03-22T12:19:34.681Z</time></trkpt><trkpt lat="44.5015554" lon="9.4088786"><ele>1098.0</ele><time>2026-03-22T12:19:37.681Z</time></trkpt><trkpt lat="44.5015504" lon="9.4089779"><ele>1094.0</ele><time>2026-03-22T12:19:40.61Z</time></trkpt><trkpt lat="44.5015533" lon="9.4090892"><ele>1090.0</ele><time>2026-03-22T12:19:43.681Z</time></trkpt><trkpt lat="44.501563" lon="9.4091808"><ele>1086.0</ele><time>2026-03-22T12:19:46.63Z</time></trkpt><trkpt lat="44.5016096" lon="9.4092478"><ele>1082.0</ele><time>2026-03-22T12:19:48.681Z</time></trkpt><trkpt lat="44.5016762" lon="9.4092016"><ele>1082.0</ele><time>2026-03-22T12:19:52.682Z</time></trkpt><trkpt lat="44.5017543" lon="9.4091465"><ele>1082.0</ele><time>2026-03-22T12:19:56.627Z</time></trkpt><trkpt lat="44.5018374" lon="9.4092005"><ele>1082.0</ele><time>2026-03-22T12:19:59.682Z</time></trkpt><trkpt lat="44.5019073" lon="9.4092239"><ele>1082.0</ele><time>2026-03-22T12:20:02.609Z</time></trkpt><trkpt lat="44.5019895" lon="9.4091905"><ele>1082.0</ele><time>2026-03-22T12:20:05.681Z</time></trkpt><trkpt lat="44.5020539" lon="9.4091197"><ele>1082.0</ele><time>2026-03-22T12:20:08.682Z</time></trkpt><trkpt lat="44.5021184" lon="9.4090545"><ele>1079.5</ele><time>2026-03-22T12:20:11.682Z</time></trkpt><trkpt lat="44.5021768" lon="9.4089781"><ele>1077.0</ele><time>2026-03-22T12:20:14.685Z</time></trkpt><trkpt lat="44.5022481" lon="9.4088999"><ele>1074.5</ele><time>2026-03-22T12:20:17.682Z</time></trkpt><trkpt lat="44.5022939" lon="9.4088323"><ele>1072.0</ele><time>2026-03-22T12:20:19.681Z</time></trkpt><trkpt lat="44.5023515" lon="9.4087506"><ele>1069.5</ele><time>2026-03-22T12:20:21.681Z</time></trkpt><trkpt lat="44.502399" lon="9.4086809"><ele>1067.0</ele><time>2026-03-22T12:20:22.681Z</time></trkpt><trkpt lat="44.5024691" lon="9.4085857"><ele>1066.8333333333335</ele><time>2026-03-22T12:20:23.681Z</time></trkpt><trkpt lat="44.5025374" lon="9.4084907"><ele>1066.6666666666667</ele><time>2026-03-22T12:20:24.681Z</time></trkpt><trkpt lat="44.5026076" lon="9.4084151"><ele>1066.5</ele><time>2026-03-22T12:20:25.681Z</time></trkpt><trkpt lat="44.5026642" lon="9.4083587"><ele>1066.3333333333333</ele><time>2026-03-22T12:20:26.681Z</time></trkpt><trkpt lat="44.502754" lon="9.4082987"><ele>1066.1666666666665</ele><time>2026-03-22T12:20:28.681Z</time></trkpt><trkpt lat="44.5028268" lon="9.4082592"><ele>1066.0</ele><time>2026-03-22T12:20:30.681Z</time></trkpt><trkpt lat="44.5028918" lon="9.4082454"><ele>1063.0</ele><time>2026-03-22T12:20:32.681Z</time></trkpt><trkpt lat="44.5029578" lon="9.4082513"><ele>1060.0</ele><time>2026-03-22T12:20:34.681Z</time></trkpt><trkpt lat="44.5030218" lon="9.408225"><ele>1057.0</ele><time>2026-03-22T12:20:37.681Z</time></trkpt><trkpt lat="44.50301" lon="9.4081193"><ele>1054.0</ele><time>2026-03-22T12:20:41.681Z</time></trkpt><trkpt lat="44.5030423" lon="9.408022"><ele>1051.0</ele><time>2026-03-22T12:34:24.682Z</time></trkpt><trkpt lat="44.5030046" lon="9.4077704"><ele>1051.0</ele><time>2026-03-22T12:34:26.682Z</time></trkpt><trkpt lat="44.5030091" lon="9.4076488"><ele>1051.0</ele><time>2026-03-22T12:34:28.683Z</time></trkpt><trkpt lat="44.5030688" lon="9.4075997"><ele>1051.0</ele><time>2026-03-22T12:34:31.683Z</time></trkpt><trkpt lat="44.5031113" lon="9.4077156"><ele>1051.0</ele><time>2026-03-22T12:34:35.683Z</time></trkpt><trkpt lat="44.5031713" lon="9.4078226"><ele>1051.0</ele><time>2026-03-22T12:34:36.682Z</time></trkpt><trkpt lat="44.5032359" lon="9.4078913"><ele>1051.0</ele><time>2026-03-22T12:34:37.682Z</time></trkpt><trkpt lat="44.503276" lon="9.4079813"><ele>1051.0</ele><time>2026-03-22T12:34:38.683Z</time></trkpt><trkpt lat="44.50331" lon="9.4080828"><ele>1051.0</ele><time>2026-03-22T12:34:39.683Z</time></trkpt><trkpt lat="44.5033682" lon="9.4081657"><ele>1051.0</ele><time>2026-03-22T12:34:40.682Z</time></trkpt><trkpt lat="44.5034313" lon="9.4082215"><ele>1051.0</ele><time>2026-03-22T12:34:41.682Z</time></trkpt><trkpt lat="44.5034953" lon="9.4082751"><ele>1051.0</ele><time>2026-03-22T12:34:42.682Z</time></trkpt><trkpt lat="44.5035579" lon="9.4083353"><ele>1051.0</ele><time>2026-03-22T12:34:43.682Z</time></trkpt><trkpt lat="44.5036293" lon="9.4083899"><ele>1051.0</ele><time>2026-03-22T12:34:44.682Z</time></trkpt><trkpt lat="44.5036987" lon="9.4084252"><ele>1051.0</ele><time>2026-03-22T12:34:45.682Z</time></trkpt><trkpt lat="44.503771" lon="9.4084473"><ele>1051.0</ele><time>2026-03-22T12:34:46.682Z</time></trkpt><trkpt lat="44.5038537" lon="9.4084552"><ele>1051.0</ele><time>2026-03-22T12:34:47.682Z</time></trkpt><trkpt lat="44.5039248" lon="9.408449"><ele>1051.0</ele><time>2026-03-22T12:34:48.682Z</time></trkpt><trkpt lat="44.5039979" lon="9.4084294"><ele>1051.0</ele><time>2026-03-22T12:34:49.682Z</time></trkpt><trkpt lat="44.5040719" lon="9.4084054"><ele>1050.0</ele><time>2026-03-22T12:34:50.682Z</time></trkpt><trkpt lat="44.5041461" lon="9.4083799"><ele>1049.0</ele><time>2026-03-22T12:34:51.682Z</time></trkpt><trkpt lat="44.5042233" lon="9.4083484"><ele>1048.0</ele><time>2026-03-22T12:34:52.682Z</time></trkpt><trkpt lat="44.5043045" lon="9.4083271"><ele>1047.0</ele><time>2026-03-22T12:34:53.682Z</time></trkpt><trkpt lat="44.5044466" lon="9.4082585"><ele>1046.0</ele><time>2026-03-22T12:34:54.682Z</time></trkpt><trkpt lat="44.5045878" lon="9.4081584"><ele>1046.0</ele><time>2026-03-22T12:34:55.682Z</time></trkpt><trkpt lat="44.5047063" lon="9.4080622"><ele>1046.0</ele><time>2026-03-22T12:34:56.682Z</time></trkpt><trkpt lat="44.5048144" lon="9.4079446"><ele>1046.0</ele><time>2026-03-22T12:34:57.682Z</time></trkpt><trkpt lat="44.504939" lon="9.4079487"><ele>1046.0</ele><time>2026-03-22T12:34:58.682Z</time></trkpt><trkpt lat="44.505045" lon="9.4079176"><ele>1046.0</ele><time>2026-03-22T12:34:59.682Z</time></trkpt><trkpt lat="44.5051808" lon="9.4080127"><ele>1046.0</ele><time>2026-03-22T12:35:00.682Z</time></trkpt><trkpt lat="44.5053182" lon="9.4080612"><ele>1046.0</ele><time>2026-03-22T12:35:01.682Z</time></trkpt><trkpt lat="44.5054381" lon="9.4081357"><ele>1046.0</ele><time>2026-03-22T12:35:02.682Z</time></trkpt><trkpt lat="44.505555" lon="9.4082495"><ele>1044.2</ele><time>2026-03-22T12:35:03.682Z</time></trkpt><trkpt lat="44.5056464" lon="9.4083304"><ele>1042.3999999999999</ele><time>2026-03-22T12:35:04.682Z</time></trkpt><trkpt lat="44.5057571" lon="9.4083851"><ele>1040.6</ele><time>2026-03-22T12:35:05.682Z</time></trkpt><trkpt lat="44.5058119" lon="9.4084621"><ele>1038.8</ele><time>2026-03-22T12:35:06.682Z</time></trkpt><trkpt lat="44.5058793" lon="9.4085271"><ele>1037.0</ele><time>2026-03-22T12:35:07.682Z</time></trkpt><trkpt lat="44.5059608" lon="9.408584"><ele>1037.0</ele><time>2026-03-22T12:35:08.682Z</time></trkpt><trkpt lat="44.5060304" lon="9.4086515"><ele>1037.0</ele><time>2026-03-22T12:35:09.682Z</time></trkpt><trkpt lat="44.5061484" lon="9.4087381"><ele>1037.0</ele><time>2026-03-22T12:35:11.682Z</time></trkpt><trkpt lat="44.5062478" lon="9.4087083"><ele>1037.0</ele><time>2026-03-22T12:35:12.683Z</time></trkpt><trkpt lat="44.506342" lon="9.4087018"><ele>1037.0</ele><time>2026-03-22T12:35:13.683Z</time></trkpt><trkpt lat="44.5064304" lon="9.4086661"><ele>1034.6</ele><time>2026-03-22T12:35:14.682Z</time></trkpt><trkpt lat="44.5064762" lon="9.4086045"><ele>1032.2</ele><time>2026-03-22T12:35:15.682Z</time></trkpt><trkpt lat="44.5065352" lon="9.4085668"><ele>1029.8</ele><time>2026-03-22T12:35:16.682Z</time></trkpt><trkpt lat="44.506627" lon="9.4085414"><ele>1027.4</ele><time>2026-03-22T12:35:17.682Z</time></trkpt><trkpt lat="44.5067391" lon="9.4084838"><ele>1025.0</ele><time>2026-03-22T12:35:19.682Z</time></trkpt><trkpt lat="44.5068427" lon="9.4084133"><ele>1025.0</ele><time>2026-03-22T12:35:21.682Z</time></trkpt><trkpt lat="44.5068432" lon="9.4083161"><ele>1025.0</ele><time>2026-03-22T12:35:22.682Z</time></trkpt><trkpt lat="44.5068551" lon="9.4081322"><ele>1025.0</ele><time>2026-03-22T12:35:24.682Z</time></trkpt><trkpt lat="44.5068755" lon="9.4080465"><ele>1025.0</ele><time>2026-03-22T12:35:25.682Z</time></trkpt><trkpt lat="44.5069421" lon="9.4079848"><ele>1025.0</ele><time>2026-03-22T12:35:26.682Z</time></trkpt><trkpt lat="44.507006" lon="9.4079882"><ele>1025.0</ele><time>2026-03-22T12:35:27.682Z</time></trkpt><trkpt lat="44.5071035" lon="9.4080108"><ele>1022.3333333333334</ele><time>2026-03-22T12:35:29.682Z</time></trkpt><trkpt lat="44.5071718" lon="9.4080261"><ele>1019.6666666666667</ele><time>2026-03-22T12:35:30.683Z</time></trkpt><trkpt lat="44.5072415" lon="9.4080341"><ele>1017.0</ele><time>2026-03-22T12:35:31.682Z</time></trkpt><trkpt lat="44.5073012" lon="9.4079655"><ele>1014.3333333333333</ele><time>2026-03-22T12:35:32.682Z</time></trkpt><trkpt lat="44.5073748" lon="9.4079239"><ele>1011.6666666666666</ele><time>2026-03-22T12:35:33.682Z</time></trkpt><trkpt lat="44.5074334" lon="9.4078223"><ele>1009.0</ele><time>2026-03-22T12:35:34.682Z</time></trkpt><trkpt lat="44.5074959" lon="9.4077159"><ele>1009.0</ele><time>2026-03-22T12:35:35.682Z</time></trkpt><trkpt lat="44.5075429" lon="9.407604"><ele>1009.0000000000001</ele><time>2026-03-22T12:35:36.682Z</time></trkpt><trkpt lat="44.5075806" lon="9.4074852"><ele>1009.0000000000001</ele><time>2026-03-22T12:35:37.682Z</time></trkpt><trkpt lat="44.5076213" lon="9.4073721"><ele>1009.0</ele><time>2026-03-22T12:35:38.682Z</time></trkpt><trkpt lat="44.5076695" lon="9.4072613"><ele>1009.0</ele><time>2026-03-22T12:35:39.682Z</time></trkpt><trkpt lat="44.5077006" lon="9.4071525"><ele>1008.0</ele><time>2026-03-22T12:35:40.682Z</time></trkpt><trkpt lat="44.5077047" lon="9.4070323"><ele>1007.0000000000001</ele><time>2026-03-22T12:35:41.682Z</time></trkpt><trkpt lat="44.507684" lon="9.40689"><ele>1006.0000000000001</ele><time>2026-03-22T12:35:42.682Z</time></trkpt><trkpt lat="44.5076804" lon="9.4067464"><ele>1005.0</ele><time>2026-03-22T12:35:43.682Z</time></trkpt><trkpt lat="44.5076838" lon="9.4066021"><ele>1004.0</ele><time>2026-03-22T12:35:44.682Z</time></trkpt><trkpt lat="44.5076839" lon="9.4064572"><ele>1004.1666666666667</ele><time>2026-03-22T12:35:45.682Z</time></trkpt><trkpt lat="44.5076948" lon="9.4063248"><ele>1004.3333333333334</ele><time>2026-03-22T12:35:46.682Z</time></trkpt><trkpt lat="44.5077062" lon="9.406204"><ele>1004.5</ele><time>2026-03-22T12:35:47.682Z</time></trkpt><trkpt lat="44.5077142" lon="9.4060889"><ele>1004.6666666666667</ele><time>2026-03-22T12:35:48.682Z</time></trkpt><trkpt lat="44.5077172" lon="9.4059727"><ele>1004.8333333333334</ele><time>2026-03-22T12:35:49.682Z</time></trkpt><trkpt lat="44.5077248" lon="9.4058715"><ele>1005.0</ele><time>2026-03-22T12:35:50.682Z</time></trkpt><trkpt lat="44.5077425" lon="9.4057678"><ele>1005.0</ele><time>2026-03-22T12:35:51.682Z</time></trkpt><trkpt lat="44.5077603" lon="9.4056679"><ele>1005.0</ele><time>2026-03-22T12:35:52.682Z</time></trkpt><trkpt lat="44.507774" lon="9.4055655"><ele>1005.0</ele><time>2026-03-22T12:35:53.682Z</time></trkpt><trkpt lat="44.5077724" lon="9.4054539"><ele>1005.0</ele><time>2026-03-22T12:35:54.682Z</time></trkpt><trkpt lat="44.5077528" lon="9.4052586"><ele>1005.0</ele><time>2026-03-22T12:35:56.682Z</time></trkpt><trkpt lat="44.5077356" lon="9.4051525"><ele>1005.0</ele><time>2026-03-22T12:35:57.682Z</time></trkpt><trkpt lat="44.5077219" lon="9.4050316"><ele>1004.8333333333334</ele><time>2026-03-22T12:35:58.682Z</time></trkpt><trkpt lat="44.5076884" lon="9.4049106"><ele>1004.6666666666667</ele><time>2026-03-22T12:35:59.682Z</time></trkpt><trkpt lat="44.507733" lon="9.404789"><ele>1004.5</ele><time>2026-03-22T12:36:00.682Z</time></trkpt><trkpt lat="44.5077976" lon="9.4047098"><ele>1004.3333333333334</ele><time>2026-03-22T12:36:01.682Z</time></trkpt><trkpt lat="44.5078478" lon="9.4046393"><ele>1004.1666666666667</ele><time>2026-03-22T12:36:02.682Z</time></trkpt><trkpt lat="44.5079048" lon="9.404584"><ele>1004.0</ele><time>2026-03-22T12:36:03.683Z</time></trkpt><trkpt lat="44.507983" lon="9.4045962"><ele>1001.8000000000001</ele><time>2026-03-22T12:36:04.683Z</time></trkpt><trkpt lat="44.5081148" lon="9.4047232"><ele>999.6000000000001</ele><time>2026-03-22T12:36:06.682Z</time></trkpt><trkpt lat="44.5081942" lon="9.4048036"><ele>997.4</ele><time>2026-03-22T12:36:07.682Z</time></trkpt><trkpt lat="44.5082773" lon="9.4048347"><ele>995.2</ele><time>2026-03-22T12:36:08.682Z</time></trkpt><trkpt lat="44.5083572" lon="9.4048661"><ele>993.0</ele><time>2026-03-22T12:36:09.682Z</time></trkpt><trkpt lat="44.5084457" lon="9.4049039"><ele>993.0</ele><time>2026-03-22T12:36:10.682Z</time></trkpt><trkpt lat="44.5085273" lon="9.4049265"><ele>993.0</ele><time>2026-03-22T12:36:11.682Z</time></trkpt><trkpt lat="44.5086173" lon="9.4049537"><ele>993.0</ele><time>2026-03-22T12:36:12.682Z</time></trkpt><trkpt lat="44.5087175" lon="9.4049718"><ele>993.0</ele><time>2026-03-22T12:36:13.683Z</time></trkpt><trkpt lat="44.508837" lon="9.4049717"><ele>993.0</ele><time>2026-03-22T12:36:14.682Z</time></trkpt><trkpt lat="44.5089209" lon="9.4049489"><ele>991.0</ele><time>2026-03-22T12:36:15.682Z</time></trkpt><trkpt lat="44.5090088" lon="9.4049082"><ele>989.0</ele><time>2026-03-22T12:36:16.682Z</time></trkpt><trkpt lat="44.509105" lon="9.4048362"><ele>987.0</ele><time>2026-03-22T12:36:17.682Z</time></trkpt><trkpt lat="44.5091864" lon="9.404764"><ele>985.0</ele><time>2026-03-22T12:36:18.682Z</time></trkpt><trkpt lat="44.5092397" lon="9.4046428"><ele>983.0</ele><time>2026-03-22T12:36:19.682Z</time></trkpt><trkpt lat="44.5092823" lon="9.4045315"><ele>983.0000000000001</ele><time>2026-03-22T12:36:20.682Z</time></trkpt><trkpt lat="44.5093057" lon="9.4044277"><ele>983.0</ele><time>2026-03-22T12:36:21.682Z</time></trkpt><trkpt lat="44.5093026" lon="9.4043034"><ele>983.0</ele><time>2026-03-22T12:36:22.682Z</time></trkpt><trkpt lat="44.5093043" lon="9.4041923"><ele>983.0</ele><time>2026-03-22T12:36:23.682Z</time></trkpt><trkpt lat="44.5092841" lon="9.4040579"><ele>983.0000000000001</ele><time>2026-03-22T12:36:24.682Z</time></trkpt><trkpt lat="44.509268" lon="9.4039166"><ele>983.0</ele><time>2026-03-22T12:36:25.682Z</time></trkpt><trkpt lat="44.5092359" lon="9.4037758"><ele>980.4</ele><time>2026-03-22T12:36:26.682Z</time></trkpt><trkpt lat="44.5091884" lon="9.4036492"><ele>977.8</ele><time>2026-03-22T12:36:27.682Z</time></trkpt><trkpt lat="44.5091412" lon="9.4035385"><ele>975.2</ele><time>2026-03-22T12:36:28.682Z</time></trkpt><trkpt lat="44.5090879" lon="9.4034377"><ele>972.6</ele><time>2026-03-22T12:36:29.682Z</time></trkpt><trkpt lat="44.5090113" lon="9.4033288"><ele>970.0</ele><time>2026-03-22T12:36:30.682Z</time></trkpt><trkpt lat="44.5089489" lon="9.4032409"><ele>970.0</ele><time>2026-03-22T12:36:31.683Z</time></trkpt><trkpt lat="44.5088755" lon="9.4031517"><ele>970.0</ele><time>2026-03-22T12:36:32.682Z</time></trkpt><trkpt lat="44.5087978" lon="9.4030548"><ele>970.0</ele><time>2026-03-22T12:36:33.682Z</time></trkpt><trkpt lat="44.5087223" lon="9.4029771"><ele>970.0</ele><time>2026-03-22T12:36:34.683Z</time></trkpt><trkpt lat="44.5086267" lon="9.4029097"><ele>970.0</ele><time>2026-03-22T12:36:35.682Z</time></trkpt><trkpt lat="44.5085456" lon="9.4028382"><ele>968.6</ele><time>2026-03-22T12:36:36.683Z</time></trkpt><trkpt lat="44.5084639" lon="9.4027908"><ele>967.2</ele><time>2026-03-22T12:36:37.682Z</time></trkpt><trkpt lat="44.5083846" lon="9.4027677"><ele>965.8</ele><time>2026-03-22T12:36:38.682Z</time></trkpt><trkpt lat="44.5082489" lon="9.402759"><ele>964.4</ele><time>2026-03-22T12:36:40.682Z</time></trkpt><trkpt lat="44.5081566" lon="9.402744"><ele>963.0</ele><time>2026-03-22T12:36:41.682Z</time></trkpt><trkpt lat="44.5080871" lon="9.4027022"><ele>963.0</ele><time>2026-03-22T12:36:42.682Z</time></trkpt><trkpt lat="44.5081134" lon="9.4025014"><ele>963.0</ele><time>2026-03-22T12:36:44.682Z</time></trkpt><trkpt lat="44.5081342" lon="9.4024048"><ele>963.0</ele><time>2026-03-22T12:36:45.682Z</time></trkpt><trkpt lat="44.5082543" lon="9.4024166"><ele>963.0</ele><time>2026-03-22T12:36:46.682Z</time></trkpt><trkpt lat="44.5083235" lon="9.4023344"><ele>963.0</ele><time>2026-03-22T12:36:47.682Z</time></trkpt><trkpt lat="44.5084059" lon="9.4022969"><ele>963.0</ele><time>2026-03-22T12:36:48.682Z</time></trkpt><trkpt lat="44.5085007" lon="9.4023274"><ele>963.0</ele><time>2026-03-22T12:36:49.683Z</time></trkpt><trkpt lat="44.5085679" lon="9.4023862"><ele>963.0</ele><time>2026-03-22T12:36:50.682Z</time></trkpt><trkpt lat="44.5086065" lon="9.4024731"><ele>963.0</ele><time>2026-03-22T12:36:51.682Z</time></trkpt><trkpt lat="44.5086527" lon="9.4025633"><ele>963.0</ele><time>2026-03-22T12:36:52.682Z</time></trkpt><trkpt lat="44.5087092" lon="9.4026559"><ele>963.0</ele><time>2026-03-22T12:36:53.682Z</time></trkpt><trkpt lat="44.50881" lon="9.4027314"><ele>964.4</ele><time>2026-03-22T12:36:54.682Z</time></trkpt><trkpt lat="44.508905" lon="9.4027814"><ele>965.8</ele><time>2026-03-22T12:36:55.682Z</time></trkpt><trkpt lat="44.5089933" lon="9.4028593"><ele>967.2</ele><time>2026-03-22T12:36:56.682Z</time></trkpt><trkpt lat="44.5090815" lon="9.4029103"><ele>968.6</ele><time>2026-03-22T12:36:57.682Z</time></trkpt><trkpt lat="44.5091669" lon="9.402956"><ele>970.0</ele><time>2026-03-22T12:36:58.682Z</time></trkpt><trkpt lat="44.5092486" lon="9.4030306"><ele>970.0</ele><time>2026-03-22T12:36:59.682Z</time></trkpt><trkpt lat="44.5093328" lon="9.4030892"><ele>970.0</ele><time>2026-03-22T12:37:00.682Z</time></trkpt><trkpt lat="44.5094245" lon="9.403179"><ele>970.0</ele><time>2026-03-22T12:37:01.682Z</time></trkpt><trkpt lat="44.5095085" lon="9.4032395"><ele>970.0</ele><time>2026-03-22T12:37:02.682Z</time></trkpt><trkpt lat="44.5096053" lon="9.4033059"><ele>970.0</ele><time>2026-03-22T12:37:03.682Z</time></trkpt><trkpt lat="44.5097015" lon="9.4033693"><ele>964.2</ele><time>2026-03-22T12:37:04.682Z</time></trkpt><trkpt lat="44.5098027" lon="9.4034187"><ele>958.4</ele><time>2026-03-22T12:37:05.682Z</time></trkpt><trkpt lat="44.5098969" lon="9.4034548"><ele>952.5999999999999</ele><time>2026-03-22T12:37:06.682Z</time></trkpt><trkpt lat="44.5099961" lon="9.4035279"><ele>946.8</ele><time>2026-03-22T12:37:07.682Z</time></trkpt><trkpt lat="44.510085" lon="9.4035948"><ele>941.0</ele><time>2026-03-22T12:37:08.682Z</time></trkpt><trkpt lat="44.5101787" lon="9.4036767"><ele>941.0</ele><time>2026-03-22T12:37:09.682Z</time></trkpt><trkpt lat="44.5102703" lon="9.4037671"><ele>940.9999999999999</ele><time>2026-03-22T12:37:10.682Z</time></trkpt><trkpt lat="44.5103176" lon="9.4039418"><ele>940.9999999999999</ele><time>2026-03-22T12:37:11.682Z</time></trkpt><trkpt lat="44.5103489" lon="9.404073"><ele>941.0</ele><time>2026-03-22T12:37:12.683Z</time></trkpt><trkpt lat="44.5103791" lon="9.4042044"><ele>941.0</ele><time>2026-03-22T12:37:13.682Z</time></trkpt><trkpt lat="44.5103879" lon="9.4043617"><ele>938.5999999999999</ele><time>2026-03-22T12:37:14.682Z</time></trkpt><trkpt lat="44.5104224" lon="9.4045044"><ele>936.1999999999999</ele><time>2026-03-22T12:37:15.682Z</time></trkpt><trkpt lat="44.5104469" lon="9.4046643"><ele>933.8000000000001</ele><time>2026-03-22T12:37:16.682Z</time></trkpt><trkpt lat="44.5104707" lon="9.4048103"><ele>931.4000000000001</ele><time>2026-03-22T12:37:17.683Z</time></trkpt><trkpt lat="44.5104866" lon="9.4049556"><ele>929.0</ele><time>2026-03-22T12:37:18.682Z</time></trkpt><trkpt lat="44.5105113" lon="9.4051007"><ele>929.0</ele><time>2026-03-22T12:37:19.682Z</time></trkpt><trkpt lat="44.5105121" lon="9.4052434"><ele>929.0000000000001</ele><time>2026-03-22T12:37:20.682Z</time></trkpt><trkpt lat="44.5105549" lon="9.4053592"><ele>929.0000000000001</ele><time>2026-03-22T12:37:21.683Z</time></trkpt><trkpt lat="44.510591" lon="9.405495"><ele>929.0</ele><time>2026-03-22T12:37:22.682Z</time></trkpt><trkpt lat="44.5106723" lon="9.4056208"><ele>929.0</ele><time>2026-03-22T12:37:24.683Z</time></trkpt><trkpt lat="44.5108031" lon="9.4057115"><ele>929.3333333333334</ele><time>2026-03-22T12:37:26.682Z</time></trkpt><trkpt lat="44.5108632" lon="9.4057912"><ele>929.6666666666667</ele><time>2026-03-22T12:37:27.682Z</time></trkpt><trkpt lat="44.510934" lon="9.4058702"><ele>930.0</ele><time>2026-03-22T12:37:28.682Z</time></trkpt><trkpt lat="44.5109142" lon="9.4060246"><ele>930.3333333333333</ele><time>2026-03-22T12:37:29.682Z</time></trkpt><trkpt lat="44.5109165" lon="9.4061468"><ele>930.6666666666666</ele><time>2026-03-22T12:37:30.682Z</time></trkpt><trkpt lat="44.5109332" lon="9.406248"><ele>931.0</ele><time>2026-03-22T12:37:31.684Z</time></trkpt><trkpt lat="44.5109803" lon="9.4063145"><ele>929.5</ele><time>2026-03-22T12:37:32.682Z</time></trkpt><trkpt lat="44.511034" lon="9.4064392"><ele>928.0</ele><time>2026-03-22T12:37:34.682Z</time></trkpt><trkpt lat="44.5111892" lon="9.4064328"><ele>926.5</ele><time>2026-03-22T12:37:35.682Z</time></trkpt><trkpt lat="44.5112849" lon="9.4064688"><ele>925.0</ele><time>2026-03-22T12:37:36.682Z</time></trkpt><trkpt lat="44.5113829" lon="9.4064842"><ele>923.6666666666666</ele><time>2026-03-22T12:37:37.682Z</time></trkpt><trkpt lat="44.5114817" lon="9.406494"><ele>922.3333333333333</ele><time>2026-03-22T12:37:38.682Z</time></trkpt><trkpt lat="44.5115673" lon="9.4064879"><ele>921.0</ele><time>2026-03-22T12:37:39.682Z</time></trkpt><trkpt lat="44.5116512" lon="9.4064785"><ele>919.6666666666667</ele><time>2026-03-22T12:37:40.683Z</time></trkpt><trkpt lat="44.5117314" lon="9.4064639"><ele>918.3333333333334</ele><time>2026-03-22T12:37:41.683Z</time></trkpt><trkpt lat="44.5118141" lon="9.4064254"><ele>917.0</ele><time>2026-03-22T12:37:42.682Z</time></trkpt><trkpt lat="44.5118926" lon="9.4063743"><ele>916.6666666666667</ele><time>2026-03-22T12:37:43.682Z</time></trkpt><trkpt lat="44.5119725" lon="9.4063241"><ele>916.3333333333334</ele><time>2026-03-22T12:37:44.682Z</time></trkpt><trkpt lat="44.5120459" lon="9.4062797"><ele>916.0</ele><time>2026-03-22T12:37:45.682Z</time></trkpt><trkpt lat="44.5121204" lon="9.406228"><ele>915.6666666666667</ele><time>2026-03-22T12:37:46.682Z</time></trkpt><trkpt lat="44.512183" lon="9.4061554"><ele>915.3333333333334</ele><time>2026-03-22T12:37:47.682Z</time></trkpt><trkpt lat="44.5122323" lon="9.4060698"><ele>915.0</ele><time>2026-03-22T12:37:48.682Z</time></trkpt><trkpt lat="44.5122861" lon="9.4059946"><ele>913.8333333333334</ele><time>2026-03-22T12:37:49.682Z</time></trkpt><trkpt lat="44.512336" lon="9.4059187"><ele>912.6666666666667</ele><time>2026-03-22T12:37:50.682Z</time></trkpt><trkpt lat="44.5123942" lon="9.4058441"><ele>911.5</ele><time>2026-03-22T12:37:51.682Z</time></trkpt><trkpt lat="44.5124636" lon="9.4057831"><ele>910.3333333333334</ele><time>2026-03-22T12:37:52.682Z</time></trkpt><trkpt lat="44.5125393" lon="9.4057412"><ele>909.1666666666667</ele><time>2026-03-22T12:37:53.682Z</time></trkpt><trkpt lat="44.5126196" lon="9.4057228"><ele>908.0</ele><time>2026-03-22T12:37:54.682Z</time></trkpt><trkpt lat="44.5127003" lon="9.4057005"><ele>908.0000000000001</ele><time>2026-03-22T12:37:55.682Z</time></trkpt><trkpt lat="44.5127778" lon="9.4056728"><ele>908.0</ele><time>2026-03-22T12:37:56.683Z</time></trkpt><trkpt lat="44.5128512" lon="9.4056469"><ele>908.0</ele><time>2026-03-22T12:37:57.682Z</time></trkpt><trkpt lat="44.5129289" lon="9.4056801"><ele>908.0</ele><time>2026-03-22T12:37:58.682Z</time></trkpt><trkpt lat="44.5129655" lon="9.4057744"><ele>908.0000000000001</ele><time>2026-03-22T12:37:59.683Z</time></trkpt><trkpt lat="44.512955" lon="9.4058721"><ele>908.0</ele><time>2026-03-22T12:38:00.682Z</time></trkpt><trkpt lat="44.5129481" lon="9.4060444"><ele>905.25</ele><time>2026-03-22T12:38:02.682Z</time></trkpt><trkpt lat="44.5129643" lon="9.4061439"><ele>902.5</ele><time>2026-03-22T12:38:03.682Z</time></trkpt><trkpt lat="44.5130091" lon="9.4062289"><ele>899.75</ele><time>2026-03-22T12:38:04.682Z</time></trkpt><trkpt lat="44.5131372" lon="9.4061205"><ele>897.0</ele><time>2026-03-22T12:38:05.682Z</time></trkpt><trkpt lat="44.5132517" lon="9.4062712"><ele>897.0</ele><time>2026-03-22T12:38:07.683Z</time></trkpt><trkpt lat="44.5133039" lon="9.4063665"><ele>897.0</ele><time>2026-03-22T12:38:08.682Z</time></trkpt><trkpt lat="44.5133671" lon="9.4064086"><ele>897.0</ele><time>2026-03-22T12:38:09.682Z</time></trkpt><trkpt lat="44.5134533" lon="9.4063811"><ele>897.0</ele><time>2026-03-22T12:38:10.682Z</time></trkpt><trkpt lat="44.5135376" lon="9.4063347"><ele>897.0</ele><time>2026-03-22T12:38:11.682Z</time></trkpt><trkpt lat="44.5136017" lon="9.4062786"><ele>897.0</ele><time>2026-03-22T12:38:12.682Z</time></trkpt><trkpt lat="44.5136692" lon="9.4061915"><ele>897.0</ele><time>2026-03-22T12:38:13.682Z</time></trkpt><trkpt lat="44.5137212" lon="9.4060967"><ele>897.0</ele><time>2026-03-22T12:38:14.682Z</time></trkpt><trkpt lat="44.513688" lon="9.4059887"><ele>897.0</ele><time>2026-03-22T12:38:15.682Z</time></trkpt><trkpt lat="44.5137377" lon="9.405904"><ele>897.0</ele><time>2026-03-22T12:38:16.682Z</time></trkpt><trkpt lat="44.5138044" lon="9.4058414"><ele>897.0</ele><time>2026-03-22T12:38:17.682Z</time></trkpt><trkpt lat="44.5138771" lon="9.4057799"><ele>897.0</ele><time>2026-03-22T12:38:18.682Z</time></trkpt><trkpt lat="44.5139692" lon="9.4057467"><ele>894.1666666666666</ele><time>2026-03-22T12:38:19.682Z</time></trkpt><trkpt lat="44.5140419" lon="9.4056893"><ele>891.3333333333333</ele><time>2026-03-22T12:38:20.682Z</time></trkpt><trkpt lat="44.5141284" lon="9.405674"><ele>888.5</ele><time>2026-03-22T12:38:21.682Z</time></trkpt><trkpt lat="44.5142131" lon="9.4056814"><ele>885.6666666666666</ele><time>2026-03-22T12:38:22.682Z</time></trkpt><trkpt lat="44.5142911" lon="9.4057099"><ele>882.8333333333333</ele><time>2026-03-22T12:38:23.682Z</time></trkpt><trkpt lat="44.5143404" lon="9.4057906"><ele>880.0</ele><time>2026-03-22T12:38:24.682Z</time></trkpt><trkpt lat="44.5143686" lon="9.4058933"><ele>880.0</ele><time>2026-03-22T12:38:25.682Z</time></trkpt><trkpt lat="44.5144055" lon="9.4059728"><ele>880.0</ele><time>2026-03-22T12:38:26.682Z</time></trkpt><trkpt lat="44.5145066" lon="9.4060067"><ele>880.0</ele><time>2026-03-22T12:38:27.682Z</time></trkpt><trkpt lat="44.5145668" lon="9.4060577"><ele>880.0</ele><time>2026-03-22T12:38:28.682Z</time></trkpt><trkpt lat="44.5146282" lon="9.4061973"><ele>880.0</ele><time>2026-03-22T12:38:30.682Z</time></trkpt><trkpt lat="44.5145505" lon="9.4063014"><ele>880.0</ele><time>2026-03-22T12:38:32.682Z</time></trkpt><trkpt lat="44.5144624" lon="9.4062691"><ele>880.0</ele><time>2026-03-22T12:38:33.682Z</time></trkpt><trkpt lat="44.5143602" lon="9.4063071"><ele>880.0</ele><time>2026-03-22T12:38:35.682Z</time></trkpt><trkpt lat="44.5142964" lon="9.4064254"><ele>880.0</ele><time>2026-03-22T12:38:37.682Z</time></trkpt><trkpt lat="44.5143754" lon="9.4064853"><ele>880.0</ele><time>2026-03-22T12:38:38.682Z</time></trkpt><trkpt lat="44.5144451" lon="9.4066437"><ele>879.2</ele><time>2026-03-22T12:38:40.682Z</time></trkpt><trkpt lat="44.5144437" lon="9.4067466"><ele>878.4</ele><time>2026-03-22T12:38:41.682Z</time></trkpt><trkpt lat="44.514391" lon="9.4068963"><ele>877.5999999999999</ele><time>2026-03-22T12:38:43.682Z</time></trkpt><trkpt lat="44.5143525" lon="9.4069985"><ele>876.8</ele><time>2026-03-22T12:38:44.682Z</time></trkpt><trkpt lat="44.5143158" lon="9.4071145"><ele>876.0</ele><time>2026-03-22T12:38:45.682Z</time></trkpt><trkpt lat="44.5142888" lon="9.407233"><ele>872.8333333333334</ele><time>2026-03-22T12:38:46.682Z</time></trkpt><trkpt lat="44.5142445" lon="9.4073311"><ele>869.6666666666667</ele><time>2026-03-22T12:38:47.682Z</time></trkpt><trkpt lat="44.5141947" lon="9.4074207"><ele>866.5</ele><time>2026-03-22T12:38:48.682Z</time></trkpt><trkpt lat="44.514163" lon="9.4075098"><ele>863.3333333333334</ele><time>2026-03-22T12:38:49.682Z</time></trkpt><trkpt lat="44.5141052" lon="9.4075936"><ele>860.1666666666667</ele><time>2026-03-22T12:38:50.682Z</time></trkpt><trkpt lat="44.5140481" lon="9.4076751"><ele>857.0</ele><time>2026-03-22T12:38:51.682Z</time></trkpt><trkpt lat="44.513986" lon="9.407758"><ele>857.0000000000001</ele><time>2026-03-22T12:38:52.682Z</time></trkpt><trkpt lat="44.5139142" lon="9.4078234"><ele>857.0</ele><time>2026-03-22T12:38:53.682Z</time></trkpt><trkpt lat="44.5138596" lon="9.4078828"><ele>857.0</ele><time>2026-03-22T12:38:54.682Z</time></trkpt><trkpt lat="44.5138037" lon="9.4079532"><ele>857.0</ele><time>2026-03-22T12:38:55.682Z</time></trkpt><trkpt lat="44.5137094" lon="9.4080626"><ele>857.0000000000001</ele><time>2026-03-22T12:38:57.682Z</time></trkpt><trkpt lat="44.5136974" lon="9.4081612"><ele>857.0</ele><time>2026-03-22T12:38:59.682Z</time></trkpt><trkpt lat="44.5137664" lon="9.4081824"><ele>857.0</ele><time>2026-03-22T12:39:00.682Z</time></trkpt><trkpt lat="44.5138335" lon="9.408127"><ele>857.0</ele><time>2026-03-22T12:39:02.682Z</time></trkpt><trkpt lat="44.5139059" lon="9.4080566"><ele>857.0</ele><time>2026-03-22T12:39:03.682Z</time></trkpt><trkpt lat="44.5139993" lon="9.4079536"><ele>857.0</ele><time>2026-03-22T12:39:04.682Z</time></trkpt><trkpt lat="44.5140835" lon="9.4078735"><ele>857.0</ele><time>2026-03-22T12:39:05.682Z</time></trkpt><trkpt lat="44.5141934" lon="9.4078053"><ele>857.0</ele><time>2026-03-22T12:39:06.682Z</time></trkpt><trkpt lat="44.5142854" lon="9.4077407"><ele>857.0</ele><time>2026-03-22T12:39:07.682Z</time></trkpt><trkpt lat="44.5143756" lon="9.4076736"><ele>857.0</ele><time>2026-03-22T12:39:08.682Z</time></trkpt><trkpt lat="44.5144664" lon="9.4076083"><ele>857.0</ele><time>2026-03-22T12:39:09.682Z</time></trkpt><trkpt lat="44.514549" lon="9.4075482"><ele>857.0</ele><time>2026-03-22T12:39:10.682Z</time></trkpt><trkpt lat="44.5146242" lon="9.4074939"><ele>853.6666666666667</ele><time>2026-03-22T12:39:11.683Z</time></trkpt><trkpt lat="44.5146853" lon="9.407442"><ele>850.3333333333334</ele><time>2026-03-22T12:39:12.682Z</time></trkpt><trkpt lat="44.5147797" lon="9.4073698"><ele>847.0</ele><time>2026-03-22T12:39:14.683Z</time></trkpt><trkpt lat="44.514839" lon="9.4073333"><ele>843.6666666666667</ele><time>2026-03-22T12:39:16.682Z</time></trkpt><trkpt lat="44.5149276" lon="9.4073308"><ele>840.3333333333334</ele><time>2026-03-22T12:39:20.683Z</time></trkpt><trkpt lat="44.5150014" lon="9.4073182"><ele>837.0</ele><time>2026-03-22T12:39:22.682Z</time></trkpt><trkpt lat="44.5150912" lon="9.407237"><ele>837.0</ele><time>2026-03-22T12:39:24.682Z</time></trkpt><trkpt lat="44.5151404" lon="9.4071762"><ele>837.0</ele><time>2026-03-22T12:39:25.682Z</time></trkpt><trkpt lat="44.5151904" lon="9.4071085"><ele>837.0</ele><time>2026-03-22T12:39:26.682Z</time></trkpt><trkpt lat="44.5152427" lon="9.4070314"><ele>837.0</ele><time>2026-03-22T12:39:27.682Z</time></trkpt><trkpt lat="44.5153116" lon="9.4069199"><ele>837.0</ele><time>2026-03-22T12:39:28.682Z</time></trkpt><trkpt lat="44.515371" lon="9.4068189"><ele>837.0</ele><time>2026-03-22T12:39:29.682Z</time></trkpt><trkpt lat="44.5154757" lon="9.4066841"><ele>837.2</ele><time>2026-03-22T12:39:30.682Z</time></trkpt><trkpt lat="44.5155614" lon="9.4065695"><ele>837.4000000000001</ele><time>2026-03-22T12:39:31.682Z</time></trkpt><trkpt lat="44.5156402" lon="9.4064652"><ele>837.5999999999999</ele><time>2026-03-22T12:39:32.682Z</time></trkpt><trkpt lat="44.5157135" lon="9.4063652"><ele>837.8</ele><time>2026-03-22T12:39:33.682Z</time></trkpt><trkpt lat="44.5157811" lon="9.4062734"><ele>838.0</ele><time>2026-03-22T12:39:34.682Z</time></trkpt><trkpt lat="44.5158487" lon="9.4061799"><ele>838.0</ele><time>2026-03-22T12:39:35.682Z</time></trkpt><trkpt lat="44.5159162" lon="9.4060844"><ele>838.0</ele><time>2026-03-22T12:39:36.682Z</time></trkpt><trkpt lat="44.5159951" lon="9.4059817"><ele>838.0</ele><time>2026-03-22T12:39:37.682Z</time></trkpt><trkpt lat="44.5160766" lon="9.405877"><ele>838.0</ele><time>2026-03-22T12:39:38.682Z</time></trkpt><trkpt lat="44.5161696" lon="9.4057678"><ele>838.0</ele><time>2026-03-22T12:39:39.682Z</time></trkpt><trkpt lat="44.5162687" lon="9.4056874"><ele>835.25</ele><time>2026-03-22T12:39:40.683Z</time></trkpt><trkpt lat="44.516382" lon="9.4056249"><ele>832.5</ele><time>2026-03-22T12:39:41.683Z</time></trkpt><trkpt lat="44.5164964" lon="9.4055781"><ele>829.75</ele><time>2026-03-22T12:39:42.682Z</time></trkpt><trkpt lat="44.5166127" lon="9.4055193"><ele>827.0</ele><time>2026-03-22T12:39:43.682Z</time></trkpt><trkpt lat="44.516709" lon="9.4054351"><ele>827.0</ele><time>2026-03-22T12:39:44.683Z</time></trkpt><trkpt lat="44.5168002" lon="9.4053256"><ele>827.0</ele><time>2026-03-22T12:39:45.682Z</time></trkpt><trkpt lat="44.5168851" lon="9.4052107"><ele>827.0</ele><time>2026-03-22T12:39:46.683Z</time></trkpt><trkpt lat="44.5169087" lon="9.4050044"><ele>827.0</ele><time>2026-03-22T12:39:47.682Z</time></trkpt><trkpt lat="44.5169227" lon="9.4048362"><ele>826.75</ele><time>2026-03-22T12:39:48.682Z</time></trkpt><trkpt lat="44.5169176" lon="9.4046537"><ele>826.5</ele><time>2026-03-22T12:39:49.682Z</time></trkpt><trkpt lat="44.516872" lon="9.4044708"><ele>826.25</ele><time>2026-03-22T12:39:50.682Z</time></trkpt><trkpt lat="44.5168017" lon="9.4042819"><ele>826.0</ele><time>2026-03-22T12:39:51.682Z</time></trkpt><trkpt lat="44.5167309" lon="9.4041111"><ele>826.0</ele><time>2026-03-22T12:39:52.682Z</time></trkpt><trkpt lat="44.5166595" lon="9.4039383"><ele>826.0</ele><time>2026-03-22T12:39:53.682Z</time></trkpt><trkpt lat="44.5165903" lon="9.403772"><ele>826.0</ele><time>2026-03-22T12:39:54.682Z</time></trkpt><trkpt lat="44.5165244" lon="9.4035964"><ele>826.0</ele><time>2026-03-22T12:39:55.683Z</time></trkpt><trkpt lat="44.5164704" lon="9.403403"><ele>823.6666666666666</ele><time>2026-03-22T12:39:56.682Z</time></trkpt><trkpt lat="44.5164409" lon="9.4031881"><ele>821.3333333333333</ele><time>2026-03-22T12:39:57.682Z</time></trkpt><trkpt lat="44.5164125" lon="9.4029845"><ele>819.0</ele><time>2026-03-22T12:39:58.682Z</time></trkpt><trkpt lat="44.5164092" lon="9.402768"><ele>817.6666666666667</ele><time>2026-03-22T12:39:59.682Z</time></trkpt><trkpt lat="44.5163904" lon="9.4025367"><ele>816.3333333333334</ele><time>2026-03-22T12:40:00.682Z</time></trkpt><trkpt lat="44.51635" lon="9.4023047"><ele>815.0</ele><time>2026-03-22T12:40:01.682Z</time></trkpt><trkpt lat="44.5163065" lon="9.4021021"><ele>814.0</ele><time>2026-03-22T12:40:02.682Z</time></trkpt><trkpt lat="44.5162643" lon="9.40192"><ele>813.0</ele><time>2026-03-22T12:40:03.682Z</time></trkpt><trkpt lat="44.5162026" lon="9.4017679"><ele>812.0</ele><time>2026-03-22T12:40:04.682Z</time></trkpt><trkpt lat="44.5161142" lon="9.4016282"><ele>811.0</ele><time>2026-03-22T12:40:05.682Z</time></trkpt><trkpt lat="44.5159918" lon="9.4015067"><ele>812.0</ele><time>2026-03-22T12:40:06.682Z</time></trkpt><trkpt lat="44.5158598" lon="9.4014116"><ele>813.0</ele><time>2026-03-22T12:40:07.682Z</time></trkpt><trkpt lat="44.5157315" lon="9.4013184"><ele>814.0</ele><time>2026-03-22T12:40:08.683Z</time></trkpt><trkpt lat="44.5156028" lon="9.4012298"><ele>815.0</ele><time>2026-03-22T12:40:09.683Z</time></trkpt><trkpt lat="44.5154763" lon="9.4011432"><ele>816.5</ele><time>2026-03-22T12:40:10.682Z</time></trkpt><trkpt lat="44.5153592" lon="9.4010185"><ele>818.0</ele><time>2026-03-22T12:40:11.682Z</time></trkpt><trkpt lat="44.5152668" lon="9.4008607"><ele>819.5</ele><time>2026-03-22T12:40:12.682Z</time></trkpt><trkpt lat="44.5151846" lon="9.4006995"><ele>821.0</ele><time>2026-03-22T12:40:13.682Z</time></trkpt><trkpt lat="44.5150991" lon="9.4005613"><ele>819.0</ele><time>2026-03-22T12:40:14.683Z</time></trkpt><trkpt lat="44.5150105" lon="9.4004102"><ele>817.0</ele><time>2026-03-22T12:40:15.683Z</time></trkpt><trkpt lat="44.5149242" lon="9.4003398"><ele>815.0</ele><time>2026-03-22T12:40:16.683Z</time></trkpt><trkpt lat="44.5148254" lon="9.4002436"><ele>813.0</ele><time>2026-03-22T12:40:17.682Z</time></trkpt><trkpt lat="44.5145659" lon="9.4003326"><ele>813.0</ele><time>2026-03-22T12:40:18.682Z</time></trkpt><trkpt lat="44.5144314" lon="9.4002796"><ele>813.0</ele><time>2026-03-22T12:40:19.682Z</time></trkpt><trkpt lat="44.5143058" lon="9.4002601"><ele>813.0</ele><time>2026-03-22T12:40:20.682Z</time></trkpt><trkpt lat="44.5141737" lon="9.4001952"><ele>813.0</ele><time>2026-03-22T12:40:21.682Z</time></trkpt><trkpt lat="44.5140718" lon="9.4001143"><ele>813.0</ele><time>2026-03-22T12:40:22.682Z</time></trkpt><trkpt lat="44.51399" lon="9.4000452"><ele>813.0</ele><time>2026-03-22T12:40:23.682Z</time></trkpt><trkpt lat="44.5139123" lon="9.3999456"><ele>813.0</ele><time>2026-03-22T12:40:24.682Z</time></trkpt><trkpt lat="44.5138527" lon="9.3997758"><ele>813.0</ele><time>2026-03-22T12:40:25.682Z</time></trkpt><trkpt lat="44.5138323" lon="9.3996141"><ele>809.4</ele><time>2026-03-22T12:40:26.683Z</time></trkpt><trkpt lat="44.5138114" lon="9.3994591"><ele>805.8</ele><time>2026-03-22T12:40:27.682Z</time></trkpt><trkpt lat="44.5137859" lon="9.3993163"><ele>802.2</ele><time>2026-03-22T12:40:28.682Z</time></trkpt><trkpt lat="44.5137612" lon="9.3991734"><ele>798.6</ele><time>2026-03-22T12:40:29.682Z</time></trkpt><trkpt lat="44.5138049" lon="9.3990204"><ele>795.0</ele><time>2026-03-22T12:40:30.682Z</time></trkpt><trkpt lat="44.5138683" lon="9.3988755"><ele>793.6666666666667</ele><time>2026-03-22T12:40:31.682Z</time></trkpt><trkpt lat="44.5139677" lon="9.3987204"><ele>792.3333333333334</ele><time>2026-03-22T12:40:32.682Z</time></trkpt><trkpt lat="44.5141023" lon="9.3985603"><ele>791.0</ele><time>2026-03-22T12:40:33.682Z</time></trkpt><trkpt lat="44.5142624" lon="9.3983899"><ele>791.0</ele><time>2026-03-22T12:40:34.682Z</time></trkpt><trkpt lat="44.5144357" lon="9.3982098"><ele>791.0</ele><time>2026-03-22T12:40:35.682Z</time></trkpt><trkpt lat="44.5146046" lon="9.3980444"><ele>791.0</ele><time>2026-03-22T12:40:36.682Z</time></trkpt><trkpt lat="44.5147711" lon="9.3978902"><ele>796.6666666666667</ele><time>2026-03-22T12:40:37.682Z</time></trkpt><trkpt lat="44.514935" lon="9.3977704"><ele>802.3333333333333</ele><time>2026-03-22T12:40:38.682Z</time></trkpt><trkpt lat="44.515108" lon="9.3976986"><ele>808.0</ele><time>2026-03-22T12:40:39.682Z</time></trkpt><trkpt lat="44.5152734" lon="9.3976432"><ele>806.6666666666666</ele><time>2026-03-22T12:40:40.682Z</time></trkpt><trkpt lat="44.5154327" lon="9.3975963"><ele>805.3333333333333</ele><time>2026-03-22T12:40:41.682Z</time></trkpt><trkpt lat="44.5155835" lon="9.397558"><ele>804.0</ele><time>2026-03-22T12:40:42.682Z</time></trkpt><trkpt lat="44.5157313" lon="9.3975273"><ele>804.0</ele><time>2026-03-22T12:40:43.682Z</time></trkpt><trkpt lat="44.5158886" lon="9.3974686"><ele>804.0</ele><time>2026-03-22T12:40:44.682Z</time></trkpt><trkpt lat="44.516051" lon="9.3974107"><ele>804.0</ele><time>2026-03-22T12:40:45.682Z</time></trkpt><trkpt lat="44.5162204" lon="9.3973514"><ele>801.0</ele><time>2026-03-22T12:40:46.682Z</time></trkpt><trkpt lat="44.5163882" lon="9.3972997"><ele>798.0</ele><time>2026-03-22T12:40:47.682Z</time></trkpt><trkpt lat="44.5165472" lon="9.3972589"><ele>795.0</ele><time>2026-03-22T12:40:48.682Z</time></trkpt><trkpt lat="44.5167054" lon="9.3972025"><ele>799.6666666666667</ele><time>2026-03-22T12:40:49.682Z</time></trkpt><trkpt lat="44.5168614" lon="9.3971482"><ele>804.3333333333334</ele><time>2026-03-22T12:40:50.682Z</time></trkpt><trkpt lat="44.5170162" lon="9.397089"><ele>809.0</ele><time>2026-03-22T12:40:51.682Z</time></trkpt><trkpt lat="44.517177" lon="9.397042"><ele>809.0</ele><time>2026-03-22T12:40:52.682Z</time></trkpt><trkpt lat="44.5173537" lon="9.3969971"><ele>809.0</ele><time>2026-03-22T12:40:53.682Z</time></trkpt><trkpt lat="44.517521" lon="9.3969562"><ele>809.0</ele><time>2026-03-22T12:40:54.682Z</time></trkpt><trkpt lat="44.5176839" lon="9.3969088"><ele>809.0</ele><time>2026-03-22T12:40:55.682Z</time></trkpt><trkpt lat="44.5178512" lon="9.3968743"><ele>809.0</ele><time>2026-03-22T12:40:56.682Z</time></trkpt><trkpt lat="44.5180247" lon="9.3968225"><ele>809.0</ele><time>2026-03-22T12:40:57.682Z</time></trkpt><trkpt lat="44.5182026" lon="9.3967709"><ele>805.6666666666667</ele><time>2026-03-22T12:40:58.683Z</time></trkpt><trkpt lat="44.518376" lon="9.3967195"><ele>802.3333333333333</ele><time>2026-03-22T12:40:59.682Z</time></trkpt><trkpt lat="44.518545" lon="9.3966673"><ele>799.0</ele><time>2026-03-22T12:41:00.682Z</time></trkpt><trkpt lat="44.5186989" lon="9.3965945"><ele>799.3333333333333</ele><time>2026-03-22T12:41:01.682Z</time></trkpt><trkpt lat="44.5188454" lon="9.396487"><ele>799.6666666666667</ele><time>2026-03-22T12:41:02.682Z</time></trkpt><trkpt lat="44.5189618" lon="9.3963464"><ele>800.0</ele><time>2026-03-22T12:41:03.682Z</time></trkpt><trkpt lat="44.5190838" lon="9.3962277"><ele>800.0</ele><time>2026-03-22T12:41:04.682Z</time></trkpt><trkpt lat="44.519198" lon="9.3961243"><ele>800.0</ele><time>2026-03-22T12:41:05.683Z</time></trkpt><trkpt lat="44.5194047" lon="9.3961621"><ele>800.0</ele><time>2026-03-22T12:41:06.682Z</time></trkpt><trkpt lat="44.5195636" lon="9.396145"><ele>795.0</ele><time>2026-03-22T12:41:07.682Z</time></trkpt><trkpt lat="44.519716" lon="9.3961144"><ele>790.0</ele><time>2026-03-22T12:41:08.682Z</time></trkpt><trkpt lat="44.51987" lon="9.3960622"><ele>785.0</ele><time>2026-03-22T12:41:09.682Z</time></trkpt><trkpt lat="44.5200256" lon="9.3960006"><ele>785.0</ele><time>2026-03-22T12:41:10.683Z</time></trkpt><trkpt lat="44.520177" lon="9.3958633"><ele>785.0</ele><time>2026-03-22T12:41:11.683Z</time></trkpt><trkpt lat="44.5202956" lon="9.3957278"><ele>785.0</ele><time>2026-03-22T12:41:12.682Z</time></trkpt><trkpt lat="44.5204335" lon="9.3956064"><ele>784.6666666666667</ele><time>2026-03-22T12:41:13.682Z</time></trkpt><trkpt lat="44.5205501" lon="9.3954718"><ele>784.3333333333333</ele><time>2026-03-22T12:41:14.682Z</time></trkpt><trkpt lat="44.5206714" lon="9.3953469"><ele>784.0</ele><time>2026-03-22T12:41:15.682Z</time></trkpt><trkpt lat="44.5208085" lon="9.3952619"><ele>784.0</ele><time>2026-03-22T12:41:16.682Z</time></trkpt><trkpt lat="44.5209475" lon="9.3952106"><ele>784.0</ele><time>2026-03-22T12:41:17.682Z</time></trkpt><trkpt lat="44.5210793" lon="9.3951938"><ele>784.0</ele><time>2026-03-22T12:41:18.682Z</time></trkpt><trkpt lat="44.5212271" lon="9.3952527"><ele>784.0</ele><time>2026-03-22T12:41:19.682Z</time></trkpt><trkpt lat="44.5213514" lon="9.3953548"><ele>781.6666666666666</ele><time>2026-03-22T12:41:20.682Z</time></trkpt><trkpt lat="44.5214547" lon="9.3954948"><ele>779.3333333333333</ele><time>2026-03-22T12:41:21.682Z</time></trkpt><trkpt lat="44.5215283" lon="9.3956896"><ele>777.0</ele><time>2026-03-22T12:41:22.682Z</time></trkpt><trkpt lat="44.5215808" lon="9.3959052"><ele>775.3333333333333</ele><time>2026-03-22T12:41:23.682Z</time></trkpt><trkpt lat="44.521629" lon="9.3961133"><ele>773.6666666666666</ele><time>2026-03-22T12:41:24.683Z</time></trkpt><trkpt lat="44.5216742" lon="9.3963154"><ele>772.0</ele><time>2026-03-22T12:41:25.682Z</time></trkpt><trkpt lat="44.5217221" lon="9.3965161"><ele>769.75</ele><time>2026-03-22T12:41:26.682Z</time></trkpt><trkpt lat="44.5217999" lon="9.3966846"><ele>767.5</ele><time>2026-03-22T12:41:27.682Z</time></trkpt><trkpt lat="44.5218876" lon="9.3968274"><ele>765.25</ele><time>2026-03-22T12:41:28.682Z</time></trkpt><trkpt lat="44.521981" lon="9.3969487"><ele>763.0</ele><time>2026-03-22T12:41:29.682Z</time></trkpt><trkpt lat="44.5221417" lon="9.3969887"><ele>763.0</ele><time>2026-03-22T12:41:30.682Z</time></trkpt><trkpt lat="44.5222916" lon="9.3969877"><ele>763.0</ele><time>2026-03-22T12:41:31.682Z</time></trkpt><trkpt lat="44.5224312" lon="9.3969352"><ele>763.0</ele><time>2026-03-22T12:41:32.682Z</time></trkpt><trkpt lat="44.5225773" lon="9.396827"><ele>763.0</ele><time>2026-03-22T12:41:33.682Z</time></trkpt><trkpt lat="44.5226974" lon="9.3966902"><ele>763.0</ele><time>2026-03-22T12:41:34.682Z</time></trkpt><trkpt lat="44.5227737" lon="9.3964662"><ele>763.0</ele><time>2026-03-22T12:41:35.682Z</time></trkpt><trkpt lat="44.5227877" lon="9.3962637"><ele>763.75</ele><time>2026-03-22T12:41:36.682Z</time></trkpt><trkpt lat="44.5227497" lon="9.3960503"><ele>764.5</ele><time>2026-03-22T12:41:37.682Z</time></trkpt><trkpt lat="44.5227263" lon="9.3958691"><ele>765.25</ele><time>2026-03-22T12:41:38.682Z</time></trkpt><trkpt lat="44.5227314" lon="9.3956936"><ele>766.0</ele><time>2026-03-22T12:41:39.682Z</time></trkpt><trkpt lat="44.5227659" lon="9.395535"><ele>764.75</ele><time>2026-03-22T12:41:40.682Z</time></trkpt><trkpt lat="44.5228428" lon="9.3954027"><ele>763.5</ele><time>2026-03-22T12:41:41.682Z</time></trkpt><trkpt lat="44.5229322" lon="9.3952594"><ele>762.25</ele><time>2026-03-22T12:41:42.682Z</time></trkpt><trkpt lat="44.523065" lon="9.3951983"><ele>761.0</ele><time>2026-03-22T12:41:43.682Z</time></trkpt><trkpt lat="44.5232054" lon="9.395155"><ele>760.75</ele><time>2026-03-22T12:41:44.682Z</time></trkpt><trkpt lat="44.5233445" lon="9.3951448"><ele>760.5</ele><time>2026-03-22T12:41:45.682Z</time></trkpt><trkpt lat="44.523478" lon="9.3951489"><ele>760.25</ele><time>2026-03-22T12:41:46.682Z</time></trkpt><trkpt lat="44.5236143" lon="9.3951734"><ele>760.0</ele><time>2026-03-22T12:41:47.682Z</time></trkpt><trkpt lat="44.5237438" lon="9.3951767"><ele>757.25</ele><time>2026-03-22T12:41:48.682Z</time></trkpt><trkpt lat="44.5238751" lon="9.3951699"><ele>754.5</ele><time>2026-03-22T12:41:49.682Z</time></trkpt><trkpt lat="44.5240166" lon="9.3951156"><ele>751.75</ele><time>2026-03-22T12:41:50.682Z</time></trkpt><trkpt lat="44.5241594" lon="9.3950275"><ele>749.0</ele><time>2026-03-22T12:41:51.682Z</time></trkpt><trkpt lat="44.5242837" lon="9.3948963"><ele>749.0</ele><time>2026-03-22T12:41:52.682Z</time></trkpt><trkpt lat="44.5243932" lon="9.3947441"><ele>749.0</ele><time>2026-03-22T12:41:53.683Z</time></trkpt><trkpt lat="44.5244596" lon="9.394558"><ele>749.0</ele><time>2026-03-22T12:41:54.682Z</time></trkpt><trkpt lat="44.5244998" lon="9.3943334"><ele>750.6666666666666</ele><time>2026-03-22T12:41:55.682Z</time></trkpt><trkpt lat="44.5244927" lon="9.3940994"><ele>752.3333333333334</ele><time>2026-03-22T12:41:56.682Z</time></trkpt><trkpt lat="44.524492" lon="9.3938781"><ele>754.0</ele><time>2026-03-22T12:41:57.682Z</time></trkpt><trkpt lat="44.5244583" lon="9.3936765"><ele>754.0</ele><time>2026-03-22T12:41:58.682Z</time></trkpt><trkpt lat="44.5243535" lon="9.3935014"><ele>754.0</ele><time>2026-03-22T12:41:59.682Z</time></trkpt><trkpt lat="44.5242544" lon="9.3933546"><ele>754.0</ele><time>2026-03-22T12:42:00.682Z</time></trkpt><trkpt lat="44.5240891" lon="9.3932386"><ele>754.0</ele><time>2026-03-22T12:42:01.682Z</time></trkpt><trkpt lat="44.524032" lon="9.393073"><ele>754.0</ele><time>2026-03-22T12:42:02.682Z</time></trkpt><trkpt lat="44.5239414" lon="9.3929368"><ele>754.0</ele><time>2026-03-22T12:42:03.682Z</time></trkpt><trkpt lat="44.5238786" lon="9.3927919"><ele>754.0</ele><time>2026-03-22T12:42:04.682Z</time></trkpt><trkpt lat="44.5238218" lon="9.3926188"><ele>755.3333333333334</ele><time>2026-03-22T12:42:05.683Z</time></trkpt><trkpt lat="44.5238418" lon="9.3924418"><ele>756.6666666666666</ele><time>2026-03-22T12:42:06.683Z</time></trkpt><trkpt lat="44.5239264" lon="9.392215"><ele>758.0</ele><time>2026-03-22T12:42:07.682Z</time></trkpt><trkpt lat="44.524026" lon="9.3919558"><ele>749.0</ele><time>2026-03-22T12:42:08.682Z</time></trkpt><trkpt lat="44.5244425" lon="9.3922712"><ele>744.6666666666666</ele><time>2026-03-22T12:42:09.682Z</time></trkpt><trkpt lat="44.5245919" lon="9.3922287"><ele>740.3333333333334</ele><time>2026-03-22T12:42:10.682Z</time></trkpt><trkpt lat="44.5247502" lon="9.3921878"><ele>736.0</ele><time>2026-03-22T12:42:11.682Z</time></trkpt><trkpt lat="44.5248479" lon="9.3920089"><ele>736.0</ele><time>2026-03-22T12:42:12.682Z</time></trkpt><trkpt lat="44.5249542" lon="9.3918667"><ele>736.0</ele><time>2026-03-22T12:42:13.682Z</time></trkpt><trkpt lat="44.5250485" lon="9.3917082"><ele>736.0</ele><time>2026-03-22T12:42:14.682Z</time></trkpt><trkpt lat="44.5249765" lon="9.3914631"><ele>737.5</ele><time>2026-03-22T12:42:15.683Z</time></trkpt><trkpt lat="44.5250634" lon="9.3913202"><ele>739.0</ele><time>2026-03-22T12:42:16.682Z</time></trkpt><trkpt lat="44.525179" lon="9.3911917"><ele>740.5</ele><time>2026-03-22T12:42:17.682Z</time></trkpt><trkpt lat="44.5252936" lon="9.3910621"><ele>742.0</ele><time>2026-03-22T12:42:18.682Z</time></trkpt><trkpt lat="44.5254185" lon="9.3909401"><ele>738.5</ele><time>2026-03-22T12:42:19.682Z</time></trkpt><trkpt lat="44.5255374" lon="9.3908287"><ele>735.0</ele><time>2026-03-22T12:42:20.682Z</time></trkpt><trkpt lat="44.5256556" lon="9.3907183"><ele>731.5</ele><time>2026-03-22T12:42:21.682Z</time></trkpt><trkpt lat="44.5257739" lon="9.3906171"><ele>728.0</ele><time>2026-03-22T12:42:22.682Z</time></trkpt><trkpt lat="44.5258896" lon="9.3905207"><ele>730.0</ele><time>2026-03-22T12:42:23.682Z</time></trkpt><trkpt lat="44.5259992" lon="9.3904346"><ele>732.0</ele><time>2026-03-22T12:42:24.682Z</time></trkpt><trkpt lat="44.5260996" lon="9.3903559"><ele>734.0</ele><time>2026-03-22T12:42:25.683Z</time></trkpt><trkpt lat="44.5261934" lon="9.3902721"><ele>736.0</ele><time>2026-03-22T12:42:26.682Z</time></trkpt><trkpt lat="44.52628" lon="9.3901616"><ele>732.4</ele><time>2026-03-22T12:42:27.682Z</time></trkpt><trkpt lat="44.5263492" lon="9.3900443"><ele>728.8</ele><time>2026-03-22T12:42:28.682Z</time></trkpt><trkpt lat="44.5263939" lon="9.3899005"><ele>725.1999999999999</ele><time>2026-03-22T12:42:29.682Z</time></trkpt><trkpt lat="44.5264306" lon="9.3897603"><ele>721.5999999999999</ele><time>2026-03-22T12:42:30.682Z</time></trkpt><trkpt lat="44.5264283" lon="9.3895963"><ele>718.0</ele><time>2026-03-22T12:42:31.682Z</time></trkpt><trkpt lat="44.5264292" lon="9.3894484"><ele>715.5</ele><time>2026-03-22T12:42:32.682Z</time></trkpt><trkpt lat="44.5263888" lon="9.3893302"><ele>713.0</ele><time>2026-03-22T12:42:33.682Z</time></trkpt><trkpt lat="44.5263343" lon="9.3892064"><ele>710.5</ele><time>2026-03-22T12:42:34.682Z</time></trkpt><trkpt lat="44.5262579" lon="9.3890885"><ele>708.0</ele><time>2026-03-22T12:42:35.682Z</time></trkpt><trkpt lat="44.5261501" lon="9.3889529"><ele>710.5999999999999</ele><time>2026-03-22T12:42:36.683Z</time></trkpt><trkpt lat="44.5260673" lon="9.3888282"><ele>713.1999999999999</ele><time>2026-03-22T12:42:37.682Z</time></trkpt><trkpt lat="44.5259928" lon="9.3887213"><ele>715.8</ele><time>2026-03-22T12:42:38.682Z</time></trkpt><trkpt lat="44.5259182" lon="9.3886187"><ele>718.4</ele><time>2026-03-22T12:42:39.682Z</time></trkpt><trkpt lat="44.5258471" lon="9.3885194"><ele>721.0</ele><time>2026-03-22T12:42:40.682Z</time></trkpt><trkpt lat="44.5257895" lon="9.3884065"><ele>721.0</ele><time>2026-03-22T12:42:41.683Z</time></trkpt><trkpt lat="44.525743" lon="9.388283"><ele>721.0</ele><time>2026-03-22T12:42:42.682Z</time></trkpt><trkpt lat="44.5257081" lon="9.3881522"><ele>721.0</ele><time>2026-03-22T12:42:43.682Z</time></trkpt><trkpt lat="44.5256711" lon="9.388013"><ele>721.0</ele><time>2026-03-22T12:42:44.682Z</time></trkpt><trkpt lat="44.5256474" lon="9.3878557"><ele>721.0</ele><time>2026-03-22T12:42:45.682Z</time></trkpt><trkpt lat="44.5256203" lon="9.3876976"><ele>719.25</ele><time>2026-03-22T12:42:46.682Z</time></trkpt><trkpt lat="44.5255989" lon="9.3875169"><ele>717.5</ele><time>2026-03-22T12:42:47.682Z</time></trkpt><trkpt lat="44.5255878" lon="9.3873358"><ele>715.75</ele><time>2026-03-22T12:42:48.682Z</time></trkpt><trkpt lat="44.5255891" lon="9.3871554"><ele>714.0</ele><time>2026-03-22T12:42:49.683Z</time></trkpt><trkpt lat="44.5255974" lon="9.3869799"><ele>714.0</ele><time>2026-03-22T12:42:50.682Z</time></trkpt><trkpt lat="44.5256305" lon="9.3867998"><ele>714.0</ele><time>2026-03-22T12:42:51.682Z</time></trkpt><trkpt lat="44.5256711" lon="9.3866235"><ele>714.0</ele><time>2026-03-22T12:42:52.682Z</time></trkpt><trkpt lat="44.5257646" lon="9.3864944"><ele>714.0</ele><time>2026-03-22T12:42:53.682Z</time></trkpt><trkpt lat="44.5258358" lon="9.3863673"><ele>715.2</ele><time>2026-03-22T12:42:54.682Z</time></trkpt><trkpt lat="44.5259024" lon="9.3862454"><ele>716.4000000000001</ele><time>2026-03-22T12:42:55.682Z</time></trkpt><trkpt lat="44.5259538" lon="9.3861299"><ele>717.6</ele><time>2026-03-22T12:42:56.683Z</time></trkpt><trkpt lat="44.5259975" lon="9.386012"><ele>718.8</ele><time>2026-03-22T12:42:57.682Z</time></trkpt><trkpt lat="44.5260225" lon="9.3858845"><ele>720.0</ele><time>2026-03-22T12:42:58.682Z</time></trkpt><trkpt lat="44.5260447" lon="9.3857752"><ele>720.0</ele><time>2026-03-22T12:42:59.683Z</time></trkpt><trkpt lat="44.5260641" lon="9.3856665"><ele>720.0</ele><time>2026-03-22T12:43:00.682Z</time></trkpt><trkpt lat="44.5260628" lon="9.385533"><ele>720.0</ele><time>2026-03-22T12:43:01.683Z</time></trkpt><trkpt lat="44.5260301" lon="9.3853873"><ele>720.0</ele><time>2026-03-22T12:43:02.683Z</time></trkpt><trkpt lat="44.525976" lon="9.3852593"><ele>720.0</ele><time>2026-03-22T12:43:03.682Z</time></trkpt><trkpt lat="44.5259039" lon="9.3851617"><ele>717.6</ele><time>2026-03-22T12:43:04.682Z</time></trkpt><trkpt lat="44.5258168" lon="9.3850987"><ele>715.2</ele><time>2026-03-22T12:43:05.682Z</time></trkpt><trkpt lat="44.5257293" lon="9.3850717"><ele>712.8</ele><time>2026-03-22T12:43:06.682Z</time></trkpt><trkpt lat="44.525625" lon="9.3850628"><ele>710.4</ele><time>2026-03-22T12:43:07.682Z</time></trkpt><trkpt lat="44.525524" lon="9.385082"><ele>708.0</ele><time>2026-03-22T12:43:08.682Z</time></trkpt><trkpt lat="44.525415" lon="9.3850494"><ele>708.3333333333334</ele><time>2026-03-22T12:43:09.682Z</time></trkpt><trkpt lat="44.5252177" lon="9.3851719"><ele>708.6666666666667</ele><time>2026-03-22T12:43:10.682Z</time></trkpt><trkpt lat="44.5250693" lon="9.3851969"><ele>709.0</ele><time>2026-03-22T12:43:11.682Z</time></trkpt><trkpt lat="44.5249308" lon="9.3852034"><ele>709.0</ele><time>2026-03-22T12:43:12.682Z</time></trkpt><trkpt lat="44.5247852" lon="9.3851307"><ele>709.0</ele><time>2026-03-22T12:43:13.682Z</time></trkpt><trkpt lat="44.5246478" lon="9.3850834"><ele>709.0</ele><time>2026-03-22T12:43:14.682Z</time></trkpt><trkpt lat="44.5245103" lon="9.3850281"><ele>709.0</ele><time>2026-03-22T12:43:15.682Z</time></trkpt><trkpt lat="44.5243685" lon="9.3849601"><ele>706.25</ele><time>2026-03-22T12:43:16.682Z</time></trkpt><trkpt lat="44.524254" lon="9.3848591"><ele>703.5</ele><time>2026-03-22T12:43:17.682Z</time></trkpt><trkpt lat="44.5241367" lon="9.3847477"><ele>700.75</ele><time>2026-03-22T12:43:18.682Z</time></trkpt><trkpt lat="44.5240239" lon="9.3846457"><ele>698.0</ele><time>2026-03-22T12:43:19.682Z</time></trkpt><trkpt lat="44.5239311" lon="9.3845097"><ele>698.0</ele><time>2026-03-22T12:43:20.683Z</time></trkpt><trkpt lat="44.5238373" lon="9.3843559"><ele>698.0</ele><time>2026-03-22T12:43:21.682Z</time></trkpt><trkpt lat="44.5237465" lon="9.3842016"><ele>698.0</ele><time>2026-03-22T12:43:22.682Z</time></trkpt><trkpt lat="44.5236541" lon="9.3840459"><ele>698.0</ele><time>2026-03-22T12:43:23.682Z</time></trkpt><trkpt lat="44.5235752" lon="9.3838929"><ele>700.5</ele><time>2026-03-22T12:43:24.682Z</time></trkpt><trkpt lat="44.5235046" lon="9.3837468"><ele>703.0</ele><time>2026-03-22T12:43:25.683Z</time></trkpt><trkpt lat="44.5234407" lon="9.3836109"><ele>705.5</ele><time>2026-03-22T12:43:26.682Z</time></trkpt><trkpt lat="44.5233803" lon="9.3834786"><ele>708.0</ele><time>2026-03-22T12:43:27.683Z</time></trkpt><trkpt lat="44.5233292" lon="9.3833382"><ele>708.0</ele><time>2026-03-22T12:43:28.682Z</time></trkpt><trkpt lat="44.5232976" lon="9.3831978"><ele>708.0</ele><time>2026-03-22T12:43:29.682Z</time></trkpt><trkpt lat="44.5233014" lon="9.3830569"><ele>708.0</ele><time>2026-03-22T12:43:30.682Z</time></trkpt><trkpt lat="44.5233434" lon="9.3829034"><ele>708.0</ele><time>2026-03-22T12:43:31.682Z</time></trkpt><trkpt lat="44.5234178" lon="9.3827613"><ele>708.0</ele><time>2026-03-22T12:43:32.682Z</time></trkpt><trkpt lat="44.5235156" lon="9.3826122"><ele>707.25</ele><time>2026-03-22T12:43:33.683Z</time></trkpt><trkpt lat="44.5236093" lon="9.382465"><ele>706.5</ele><time>2026-03-22T12:43:34.683Z</time></trkpt><trkpt lat="44.523705" lon="9.3823189"><ele>705.75</ele><time>2026-03-22T12:43:35.682Z</time></trkpt><trkpt lat="44.5238086" lon="9.3821674"><ele>705.0</ele><time>2026-03-22T12:43:36.683Z</time></trkpt><trkpt lat="44.52391" lon="9.3820132"><ele>703.5</ele><time>2026-03-22T12:43:37.682Z</time></trkpt><trkpt lat="44.5240129" lon="9.381864"><ele>702.0</ele><time>2026-03-22T12:43:38.682Z</time></trkpt><trkpt lat="44.5241118" lon="9.3817151"><ele>700.5</ele><time>2026-03-22T12:43:39.683Z</time></trkpt><trkpt lat="44.5242059" lon="9.3815672"><ele>699.0</ele><time>2026-03-22T12:43:40.682Z</time></trkpt><trkpt lat="44.5243023" lon="9.3814191"><ele>699.0</ele><time>2026-03-22T12:43:41.683Z</time></trkpt><trkpt lat="44.5243996" lon="9.3812727"><ele>699.0</ele><time>2026-03-22T12:43:42.682Z</time></trkpt><trkpt lat="44.5244935" lon="9.3811273"><ele>699.0</ele><time>2026-03-22T12:43:43.683Z</time></trkpt><trkpt lat="44.5245835" lon="9.3809789"><ele>699.0</ele><time>2026-03-22T12:43:44.682Z</time></trkpt><trkpt lat="44.5246667" lon="9.3808263"><ele>699.0</ele><time>2026-03-22T12:43:45.682Z</time></trkpt><trkpt lat="44.5247705" lon="9.3806908"><ele>699.0</ele><time>2026-03-22T12:43:46.682Z</time></trkpt><trkpt lat="44.5248699" lon="9.3805394"><ele>699.0</ele><time>2026-03-22T12:43:47.682Z</time></trkpt><trkpt lat="44.5249697" lon="9.3804033"><ele>699.0</ele><time>2026-03-22T12:43:48.682Z</time></trkpt><trkpt lat="44.5250766" lon="9.3802527"><ele>702.3333333333334</ele><time>2026-03-22T12:43:49.683Z</time></trkpt><trkpt lat="44.5251814" lon="9.3800825"><ele>705.6666666666667</ele><time>2026-03-22T12:43:50.682Z</time></trkpt><trkpt lat="44.5252718" lon="9.3799124"><ele>709.0</ele><time>2026-03-22T12:43:51.683Z</time></trkpt><trkpt lat="44.5253522" lon="9.3797274"><ele>707.75</ele><time>2026-03-22T12:43:52.682Z</time></trkpt><trkpt lat="44.5254138" lon="9.37955"><ele>706.5</ele><time>2026-03-22T12:43:53.682Z</time></trkpt><trkpt lat="44.5254671" lon="9.379373"><ele>705.25</ele><time>2026-03-22T12:43:54.682Z</time></trkpt><trkpt lat="44.5255105" lon="9.3792087"><ele>704.0</ele><time>2026-03-22T12:43:55.682Z</time></trkpt><trkpt lat="44.5255608" lon="9.3790588"><ele>704.0</ele><time>2026-03-22T12:43:56.683Z</time></trkpt><trkpt lat="44.5255855" lon="9.3789097"><ele>704.0</ele><time>2026-03-22T12:43:57.682Z</time></trkpt><trkpt lat="44.5256005" lon="9.3787541"><ele>704.0</ele><time>2026-03-22T12:43:58.682Z</time></trkpt><trkpt lat="44.525575" lon="9.3785897"><ele>704.0</ele><time>2026-03-22T12:43:59.682Z</time></trkpt><trkpt lat="44.5255249" lon="9.3784851"><ele>704.0</ele><time>2026-03-22T12:44:00.682Z</time></trkpt><trkpt lat="44.525364" lon="9.3784152"><ele>705.0</ele><time>2026-03-22T12:44:01.682Z</time></trkpt><trkpt lat="44.5252096" lon="9.3783142"><ele>706.0</ele><time>2026-03-22T12:44:02.682Z</time></trkpt><trkpt lat="44.5250763" lon="9.3782171"><ele>707.0</ele><time>2026-03-22T12:44:03.682Z</time></trkpt><trkpt lat="44.5249394" lon="9.3781164"><ele>708.3333333333333</ele><time>2026-03-22T12:44:04.682Z</time></trkpt><trkpt lat="44.5247917" lon="9.3780118"><ele>709.6666666666666</ele><time>2026-03-22T12:44:05.682Z</time></trkpt><trkpt lat="44.5246448" lon="9.3779049"><ele>711.0</ele><time>2026-03-22T12:44:06.682Z</time></trkpt><trkpt lat="44.5245089" lon="9.3777994"><ele>711.0</ele><time>2026-03-22T12:44:07.682Z</time></trkpt><trkpt lat="44.5243787" lon="9.3776811"><ele>711.0</ele><time>2026-03-22T12:44:08.682Z</time></trkpt><trkpt lat="44.5242562" lon="9.3775621"><ele>711.0</ele><time>2026-03-22T12:44:09.682Z</time></trkpt><trkpt lat="44.5241339" lon="9.3774455"><ele>711.0</ele><time>2026-03-22T12:44:10.682Z</time></trkpt><trkpt lat="44.5240036" lon="9.3773336"><ele>711.0</ele><time>2026-03-22T12:44:11.683Z</time></trkpt><trkpt lat="44.5238574" lon="9.377245"><ele>711.0</ele><time>2026-03-22T12:44:12.682Z</time></trkpt><trkpt lat="44.5237006" lon="9.3771412"><ele>715.3333333333334</ele><time>2026-03-22T12:44:13.682Z</time></trkpt><trkpt lat="44.5235493" lon="9.3770496"><ele>719.6666666666667</ele><time>2026-03-22T12:44:14.682Z</time></trkpt><trkpt lat="44.5233984" lon="9.3769481"><ele>724.0</ele><time>2026-03-22T12:44:15.682Z</time></trkpt><trkpt lat="44.5232509" lon="9.3768594"><ele>724.0</ele><time>2026-03-22T12:44:16.682Z</time></trkpt><trkpt lat="44.5230957" lon="9.3767653"><ele>724.0</ele><time>2026-03-22T12:44:17.682Z</time></trkpt><trkpt lat="44.5229466" lon="9.3766651"><ele>724.0</ele><time>2026-03-22T12:44:18.682Z</time></trkpt><trkpt lat="44.5227888" lon="9.3765645"><ele>721.0</ele><time>2026-03-22T12:44:19.682Z</time></trkpt><trkpt lat="44.5226472" lon="9.3764595"><ele>718.0</ele><time>2026-03-22T12:44:20.682Z</time></trkpt><trkpt lat="44.5224354" lon="9.3764915"><ele>715.0</ele><time>2026-03-22T12:44:21.682Z</time></trkpt><trkpt lat="44.5222691" lon="9.3764545"><ele>715.0</ele><time>2026-03-22T12:44:22.683Z</time></trkpt><trkpt lat="44.5220925" lon="9.3764117"><ele>715.0</ele><time>2026-03-22T12:44:23.682Z</time></trkpt><trkpt lat="44.5219095" lon="9.3763851"><ele>715.0</ele><time>2026-03-22T12:44:24.682Z</time></trkpt><trkpt lat="44.5217398" lon="9.3763491"><ele>721.3333333333334</ele><time>2026-03-22T12:44:25.682Z</time></trkpt><trkpt lat="44.5215932" lon="9.3763201"><ele>727.6666666666666</ele><time>2026-03-22T12:44:26.682Z</time></trkpt><trkpt lat="44.5214349" lon="9.3762716"><ele>734.0</ele><time>2026-03-22T12:44:27.683Z</time></trkpt><trkpt lat="44.521276" lon="9.3762229"><ele>731.3333333333333</ele><time>2026-03-22T12:44:28.682Z</time></trkpt><trkpt lat="44.5211157" lon="9.3761694"><ele>728.6666666666666</ele><time>2026-03-22T12:44:29.683Z</time></trkpt><trkpt lat="44.5209557" lon="9.3761064"><ele>726.0</ele><time>2026-03-22T12:44:30.682Z</time></trkpt><trkpt lat="44.5208075" lon="9.3760504"><ele>726.0</ele><time>2026-03-22T12:44:31.682Z</time></trkpt><trkpt lat="44.5206665" lon="9.3759942"><ele>726.0</ele><time>2026-03-22T12:44:32.683Z</time></trkpt><trkpt lat="44.5205325" lon="9.3759468"><ele>726.0</ele><time>2026-03-22T12:44:33.682Z</time></trkpt><trkpt lat="44.5204131" lon="9.375891"><ele>726.0</ele><time>2026-03-22T12:44:34.682Z</time></trkpt><trkpt lat="44.5203219" lon="9.3757841"><ele>723.0</ele><time>2026-03-22T12:44:35.682Z</time></trkpt><trkpt lat="44.520275" lon="9.3756502"><ele>720.0</ele><time>2026-03-22T12:44:36.682Z</time></trkpt><trkpt lat="44.5202747" lon="9.3754892"><ele>717.0</ele><time>2026-03-22T12:44:37.683Z</time></trkpt><trkpt lat="44.5202759" lon="9.3753315"><ele>714.0</ele><time>2026-03-22T12:44:38.682Z</time></trkpt><trkpt lat="44.5203162" lon="9.3751364"><ele>714.0</ele><time>2026-03-22T12:44:39.683Z</time></trkpt><trkpt lat="44.5203788" lon="9.3750097"><ele>714.0</ele><time>2026-03-22T12:44:40.682Z</time></trkpt><trkpt lat="44.5203938" lon="9.3748408"><ele>714.0</ele><time>2026-03-22T12:44:41.682Z</time></trkpt><trkpt lat="44.5203992" lon="9.3746904"><ele>714.0</ele><time>2026-03-22T12:44:42.682Z</time></trkpt><trkpt lat="44.5203798" lon="9.3744719"><ele>717.0</ele><time>2026-03-22T12:44:43.682Z</time></trkpt><trkpt lat="44.5203287" lon="9.3742647"><ele>720.0</ele><time>2026-03-22T12:44:44.682Z</time></trkpt><trkpt lat="44.5202695" lon="9.3740874"><ele>723.0</ele><time>2026-03-22T12:44:45.682Z</time></trkpt><trkpt lat="44.520147" lon="9.3739147"><ele>731.0</ele><time>2026-03-22T12:44:46.682Z</time></trkpt><trkpt lat="44.519973" lon="9.3737442"><ele>739.0</ele><time>2026-03-22T12:44:47.683Z</time></trkpt><trkpt lat="44.5198393" lon="9.3735473"><ele>747.0</ele><time>2026-03-22T12:44:48.682Z</time></trkpt><trkpt lat="44.5197134" lon="9.3734371"><ele>737.3333333333334</ele><time>2026-03-22T12:44:49.682Z</time></trkpt><trkpt lat="44.5195646" lon="9.3733477"><ele>727.6666666666667</ele><time>2026-03-22T12:44:50.682Z</time></trkpt><trkpt lat="44.5194356" lon="9.3732358"><ele>718.0</ele><time>2026-03-22T12:44:51.682Z</time></trkpt><trkpt lat="44.5193284" lon="9.3730889"><ele>724.0</ele><time>2026-03-22T12:44:52.682Z</time></trkpt><trkpt lat="44.5192297" lon="9.372921"><ele>730.0</ele><time>2026-03-22T12:44:53.682Z</time></trkpt><trkpt lat="44.5191379" lon="9.3727539"><ele>736.0</ele><time>2026-03-22T12:44:54.682Z</time></trkpt><trkpt lat="44.5190604" lon="9.3725837"><ele>736.0</ele><time>2026-03-22T12:44:55.682Z</time></trkpt><trkpt lat="44.5189755" lon="9.3724367"><ele>736.0</ele><time>2026-03-22T12:44:56.682Z</time></trkpt><trkpt lat="44.5188629" lon="9.3723247"><ele>736.0</ele><time>2026-03-22T12:44:57.682Z</time></trkpt><trkpt lat="44.5187287" lon="9.3722328"><ele>736.0</ele><time>2026-03-22T12:44:58.682Z</time></trkpt><trkpt lat="44.5185656" lon="9.3721873"><ele>731.6666666666667</ele><time>2026-03-22T12:44:59.682Z</time></trkpt><trkpt lat="44.5183897" lon="9.3721633"><ele>727.3333333333334</ele><time>2026-03-22T12:45:00.683Z</time></trkpt><trkpt lat="44.5181477" lon="9.3721062"><ele>723.0</ele><time>2026-03-22T12:45:01.682Z</time></trkpt><trkpt lat="44.5179251" lon="9.372047"><ele>721.3333333333334</ele><time>2026-03-22T12:45:02.682Z</time></trkpt><trkpt lat="44.517709" lon="9.3720195"><ele>719.6666666666667</ele><time>2026-03-22T12:45:03.682Z</time></trkpt><trkpt lat="44.5175087" lon="9.3719783"><ele>718.0</ele><time>2026-03-22T12:45:04.682Z</time></trkpt><trkpt lat="44.5173092" lon="9.3719387"><ele>718.0</ele><time>2026-03-22T12:45:05.682Z</time></trkpt><trkpt lat="44.5171126" lon="9.3718981"><ele>718.0</ele><time>2026-03-22T12:45:06.683Z</time></trkpt><trkpt lat="44.5169318" lon="9.3718623"><ele>718.0</ele><time>2026-03-22T12:45:07.682Z</time></trkpt><trkpt lat="44.5167699" lon="9.3718324"><ele>719.0</ele><time>2026-03-22T12:45:08.682Z</time></trkpt><trkpt lat="44.5166138" lon="9.3717836"><ele>720.0</ele><time>2026-03-22T12:45:09.682Z</time></trkpt><trkpt lat="44.5164582" lon="9.3716872"><ele>721.0</ele><time>2026-03-22T12:45:10.683Z</time></trkpt><trkpt lat="44.5162998" lon="9.3715481"><ele>724.3333333333334</ele><time>2026-03-22T12:45:11.682Z</time></trkpt><trkpt lat="44.5161446" lon="9.3713699"><ele>727.6666666666666</ele><time>2026-03-22T12:45:12.682Z</time></trkpt><trkpt lat="44.5159971" lon="9.3711514"><ele>731.0</ele><time>2026-03-22T12:45:13.682Z</time></trkpt><trkpt lat="44.5158588" lon="9.3708966"><ele>731.0</ele><time>2026-03-22T12:45:14.682Z</time></trkpt><trkpt lat="44.5157298" lon="9.3706271"><ele>731.0</ele><time>2026-03-22T12:45:15.682Z</time></trkpt><trkpt lat="44.5155947" lon="9.3703577"><ele>731.6666666666666</ele><time>2026-03-22T12:45:16.682Z</time></trkpt><trkpt lat="44.5154623" lon="9.3701005"><ele>732.3333333333334</ele><time>2026-03-22T12:45:17.682Z</time></trkpt><trkpt lat="44.5153293" lon="9.3698564"><ele>733.0</ele><time>2026-03-22T12:45:18.682Z</time></trkpt><trkpt lat="44.5152211" lon="9.3696297"><ele>733.0</ele><time>2026-03-22T12:45:19.682Z</time></trkpt><trkpt lat="44.5151118" lon="9.3694006"><ele>733.0</ele><time>2026-03-22T12:45:20.682Z</time></trkpt><trkpt lat="44.5149932" lon="9.3692147"><ele>733.0</ele><time>2026-03-22T12:45:21.682Z</time></trkpt><trkpt lat="44.5148635" lon="9.3690154"><ele>735.3333333333334</ele><time>2026-03-22T12:45:22.682Z</time></trkpt><trkpt lat="44.5147198" lon="9.3688288"><ele>737.6666666666666</ele><time>2026-03-22T12:45:23.682Z</time></trkpt><trkpt lat="44.5145304" lon="9.368654"><ele>740.0</ele><time>2026-03-22T12:45:24.682Z</time></trkpt><trkpt lat="44.5143386" lon="9.3684928"><ele>740.0</ele><time>2026-03-22T12:45:25.683Z</time></trkpt><trkpt lat="44.514152" lon="9.368339"><ele>740.0</ele><time>2026-03-22T12:45:26.682Z</time></trkpt><trkpt lat="44.5139672" lon="9.3681697"><ele>740.0</ele><time>2026-03-22T12:45:27.682Z</time></trkpt><trkpt lat="44.513805" lon="9.368039"><ele>741.3333333333333</ele><time>2026-03-22T12:45:28.682Z</time></trkpt><trkpt lat="44.5136536" lon="9.3678869"><ele>742.6666666666666</ele><time>2026-03-22T12:45:29.682Z</time></trkpt><trkpt lat="44.5135043" lon="9.3677563"><ele>744.0</ele><time>2026-03-22T12:45:30.683Z</time></trkpt><trkpt lat="44.5133752" lon="9.3676504"><ele>744.0</ele><time>2026-03-22T12:45:31.682Z</time></trkpt><trkpt lat="44.5132551" lon="9.3675439"><ele>744.0</ele><time>2026-03-22T12:45:32.682Z</time></trkpt><trkpt lat="44.5131686" lon="9.3674217"><ele>744.0</ele><time>2026-03-22T12:45:33.682Z</time></trkpt><trkpt lat="44.5130771" lon="9.3672809"><ele>744.0</ele><time>2026-03-22T12:45:34.682Z</time></trkpt><trkpt lat="44.5130208" lon="9.3670865"><ele>739.3333333333334</ele><time>2026-03-22T12:45:35.682Z</time></trkpt><trkpt lat="44.5129642" lon="9.366901"><ele>734.6666666666667</ele><time>2026-03-22T12:45:36.682Z</time></trkpt><trkpt lat="44.51289" lon="9.3667109"><ele>730.0</ele><time>2026-03-22T12:45:37.682Z</time></trkpt><trkpt lat="44.5127857" lon="9.3665192"><ele>735.0</ele><time>2026-03-22T12:45:38.682Z</time></trkpt><trkpt lat="44.5126433" lon="9.3662927"><ele>740.0</ele><time>2026-03-22T12:45:39.682Z</time></trkpt><trkpt lat="44.5125109" lon="9.3660883"><ele>745.0</ele><time>2026-03-22T12:45:40.682Z</time></trkpt><trkpt lat="44.5124017" lon="9.3658701"><ele>745.0</ele><time>2026-03-22T12:45:41.682Z</time></trkpt><trkpt lat="44.5122961" lon="9.3656639"><ele>745.0</ele><time>2026-03-22T12:45:42.683Z</time></trkpt><trkpt lat="44.5122436" lon="9.3654649"><ele>745.0</ele><time>2026-03-22T12:45:43.682Z</time></trkpt><trkpt lat="44.5121997" lon="9.3652675"><ele>742.6666666666667</ele><time>2026-03-22T12:45:44.682Z</time></trkpt><trkpt lat="44.5121744" lon="9.3650567"><ele>740.3333333333334</ele><time>2026-03-22T12:45:45.682Z</time></trkpt><trkpt lat="44.5122065" lon="9.3648101"><ele>738.0</ele><time>2026-03-22T12:45:46.682Z</time></trkpt><trkpt lat="44.512221" lon="9.3645724"><ele>738.0</ele><time>2026-03-22T12:45:47.682Z</time></trkpt><trkpt lat="44.5122109" lon="9.3643484"><ele>738.0</ele><time>2026-03-22T12:45:48.683Z</time></trkpt><trkpt lat="44.5122044" lon="9.3641348"><ele>738.0</ele><time>2026-03-22T12:45:49.682Z</time></trkpt><trkpt lat="44.5121929" lon="9.3639173"><ele>737.6666666666666</ele><time>2026-03-22T12:45:50.682Z</time></trkpt><trkpt lat="44.5121799" lon="9.3637088"><ele>737.3333333333333</ele><time>2026-03-22T12:45:51.682Z</time></trkpt><trkpt lat="44.5120197" lon="9.363514"><ele>737.0</ele><time>2026-03-22T12:45:52.682Z</time></trkpt><trkpt lat="44.5119441" lon="9.3633764"><ele>748.6666666666666</ele><time>2026-03-22T12:45:53.682Z</time></trkpt><trkpt lat="44.5118941" lon="9.3632056"><ele>760.3333333333333</ele><time>2026-03-22T12:45:54.682Z</time></trkpt><trkpt lat="44.5118825" lon="9.3630195"><ele>772.0</ele><time>2026-03-22T12:45:55.682Z</time></trkpt><trkpt lat="44.5119322" lon="9.3627248"><ele>773.3333333333333</ele><time>2026-03-22T12:45:56.682Z</time></trkpt><trkpt lat="44.5120158" lon="9.3625324"><ele>774.6666666666667</ele><time>2026-03-22T12:45:57.682Z</time></trkpt><trkpt lat="44.5120783" lon="9.3623575"><ele>776.0</ele><time>2026-03-22T12:45:58.682Z</time></trkpt><trkpt lat="44.5120582" lon="9.3621397"><ele>779.6666666666667</ele><time>2026-03-22T12:45:59.682Z</time></trkpt><trkpt lat="44.5120444" lon="9.3619269"><ele>783.3333333333333</ele><time>2026-03-22T12:46:00.682Z</time></trkpt><trkpt lat="44.5119851" lon="9.361678"><ele>787.0</ele><time>2026-03-22T12:46:01.683Z</time></trkpt><trkpt lat="44.5119927" lon="9.3614369"><ele>783.0</ele><time>2026-03-22T12:46:02.682Z</time></trkpt><trkpt lat="44.5119757" lon="9.3611993"><ele>779.0</ele><time>2026-03-22T12:46:03.682Z</time></trkpt><trkpt lat="44.5119775" lon="9.3609808"><ele>775.0</ele><time>2026-03-22T12:46:04.682Z</time></trkpt><trkpt lat="44.5118975" lon="9.3608148"><ele>775.0</ele><time>2026-03-22T12:46:05.683Z</time></trkpt><trkpt lat="44.5118144" lon="9.360672"><ele>775.0</ele><time>2026-03-22T12:46:06.682Z</time></trkpt><trkpt lat="44.5117247" lon="9.360532"><ele>775.0</ele><time>2026-03-22T12:46:07.682Z</time></trkpt><trkpt lat="44.5116276" lon="9.3604776"><ele>775.0</ele><time>2026-03-22T12:46:08.682Z</time></trkpt><trkpt lat="44.5115543" lon="9.3603921"><ele>772.75</ele><time>2026-03-22T12:46:09.682Z</time></trkpt><trkpt lat="44.5114816" lon="9.3602907"><ele>770.5</ele><time>2026-03-22T12:46:10.682Z</time></trkpt><trkpt lat="44.5115162" lon="9.3601024"><ele>768.25</ele><time>2026-03-22T12:46:11.682Z</time></trkpt><trkpt lat="44.511525" lon="9.359942"><ele>766.0</ele><time>2026-03-22T12:46:12.682Z</time></trkpt><trkpt lat="44.5115823" lon="9.3597687"><ele>768.6666666666667</ele><time>2026-03-22T12:46:13.682Z</time></trkpt><trkpt lat="44.5116906" lon="9.3595416"><ele>771.3333333333334</ele><time>2026-03-22T12:46:14.682Z</time></trkpt><trkpt lat="44.511729" lon="9.3593244"><ele>774.0</ele><time>2026-03-22T12:46:15.682Z</time></trkpt><trkpt lat="44.5117729" lon="9.3590746"><ele>777.6666666666667</ele><time>2026-03-22T12:46:16.682Z</time></trkpt><trkpt lat="44.5117968" lon="9.3588409"><ele>781.3333333333334</ele><time>2026-03-22T12:46:17.682Z</time></trkpt><trkpt lat="44.5118203" lon="9.3586142"><ele>785.0</ele><time>2026-03-22T12:46:18.682Z</time></trkpt><trkpt lat="44.5118725" lon="9.3583857"><ele>785.0</ele><time>2026-03-22T12:46:19.682Z</time></trkpt><trkpt lat="44.5119531" lon="9.3581068"><ele>785.0</ele><time>2026-03-22T12:46:20.682Z</time></trkpt><trkpt lat="44.5119899" lon="9.3578075"><ele>785.0</ele><time>2026-03-22T12:46:21.682Z</time></trkpt><trkpt lat="44.5119756" lon="9.3575091"><ele>785.3333333333334</ele><time>2026-03-22T12:46:22.682Z</time></trkpt><trkpt lat="44.5120048" lon="9.3572789"><ele>785.6666666666667</ele><time>2026-03-22T12:46:23.682Z</time></trkpt><trkpt lat="44.5119965" lon="9.3570753"><ele>786.0</ele><time>2026-03-22T12:46:24.682Z</time></trkpt><trkpt lat="44.5119934" lon="9.3568667"><ele>786.0</ele><time>2026-03-22T12:46:25.682Z</time></trkpt><trkpt lat="44.5118627" lon="9.3566435"><ele>786.0</ele><time>2026-03-22T12:46:26.683Z</time></trkpt><trkpt lat="44.5117352" lon="9.3564196"><ele>786.0</ele><time>2026-03-22T12:46:27.682Z</time></trkpt><trkpt lat="44.5116235" lon="9.3561981"><ele>782.0</ele><time>2026-03-22T12:46:28.682Z</time></trkpt><trkpt lat="44.5115272" lon="9.3560058"><ele>778.0</ele><time>2026-03-22T12:46:29.682Z</time></trkpt><trkpt lat="44.5114245" lon="9.355853"><ele>774.0</ele><time>2026-03-22T12:46:30.682Z</time></trkpt><trkpt lat="44.5113169" lon="9.3556845"><ele>788.0</ele><time>2026-03-22T12:46:31.682Z</time></trkpt><trkpt lat="44.5111461" lon="9.355547"><ele>802.0</ele><time>2026-03-22T12:46:32.682Z</time></trkpt><trkpt lat="44.5108772" lon="9.3556128"><ele>802.0</ele><time>2026-03-22T12:46:33.682Z</time></trkpt><trkpt lat="44.5106974" lon="9.3555475"><ele>802.0</ele><time>2026-03-22T12:46:34.683Z</time></trkpt><trkpt lat="44.5105573" lon="9.3554641"><ele>802.0</ele><time>2026-03-22T12:46:35.682Z</time></trkpt><trkpt lat="44.5103856" lon="9.355435"><ele>802.75</ele><time>2026-03-22T12:46:36.682Z</time></trkpt><trkpt lat="44.5102792" lon="9.3553653"><ele>803.5</ele><time>2026-03-22T12:46:37.682Z</time></trkpt><trkpt lat="44.5101423" lon="9.3552227"><ele>804.25</ele><time>2026-03-22T12:46:38.682Z</time></trkpt><trkpt lat="44.5100574" lon="9.3550323"><ele>805.0</ele><time>2026-03-22T12:46:39.682Z</time></trkpt><trkpt lat="44.5099958" lon="9.3548343"><ele>801.3333333333333</ele><time>2026-03-22T12:46:40.682Z</time></trkpt><trkpt lat="44.5099831" lon="9.3545789"><ele>797.6666666666667</ele><time>2026-03-22T12:46:41.682Z</time></trkpt><trkpt lat="44.5098621" lon="9.3544362"><ele>794.0</ele><time>2026-03-22T12:46:42.682Z</time></trkpt><trkpt lat="44.5097432" lon="9.3542784"><ele>794.0</ele><time>2026-03-22T12:46:43.682Z</time></trkpt><trkpt lat="44.5096304" lon="9.3541588"><ele>794.0</ele><time>2026-03-22T12:46:44.682Z</time></trkpt><trkpt lat="44.5094296" lon="9.3541264"><ele>794.0</ele><time>2026-03-22T12:46:45.683Z</time></trkpt><trkpt lat="44.5092151" lon="9.3540967"><ele>797.6666666666667</ele><time>2026-03-22T12:46:46.682Z</time></trkpt><trkpt lat="44.5089768" lon="9.3541594"><ele>801.3333333333333</ele><time>2026-03-22T12:46:47.682Z</time></trkpt><trkpt lat="44.508796" lon="9.3541554"><ele>805.0</ele><time>2026-03-22T12:46:48.682Z</time></trkpt><trkpt lat="44.5086169" lon="9.3541832"><ele>806.3333333333333</ele><time>2026-03-22T12:46:49.682Z</time></trkpt><trkpt lat="44.5084309" lon="9.3542476"><ele>807.6666666666667</ele><time>2026-03-22T12:46:50.682Z</time></trkpt><trkpt lat="44.5082757" lon="9.3543766"><ele>809.0</ele><time>2026-03-22T12:46:51.683Z</time></trkpt><trkpt lat="44.508095" lon="9.3546796"><ele>810.5</ele><time>2026-03-22T12:46:52.682Z</time></trkpt><trkpt lat="44.5079048" lon="9.3548876"><ele>812.0</ele><time>2026-03-22T12:46:53.683Z</time></trkpt><trkpt lat="44.5076116" lon="9.3549934"><ele>812.0</ele><time>2026-03-22T12:46:54.682Z</time></trkpt><trkpt lat="44.5073893" lon="9.3550912"><ele>812.0</ele><time>2026-03-22T12:46:55.682Z</time></trkpt><trkpt lat="44.50717" lon="9.3551273"><ele>812.6666666666667</ele><time>2026-03-22T12:46:56.682Z</time></trkpt><trkpt lat="44.5069526" lon="9.3551361"><ele>813.3333333333333</ele><time>2026-03-22T12:46:57.682Z</time></trkpt><trkpt lat="44.5067527" lon="9.3551355"><ele>814.0</ele><time>2026-03-22T12:46:58.682Z</time></trkpt><trkpt lat="44.5065935" lon="9.3550811"><ele>814.0</ele><time>2026-03-22T12:46:59.682Z</time></trkpt><trkpt lat="44.5064214" lon="9.3550568"><ele>814.0</ele><time>2026-03-22T12:47:00.682Z</time></trkpt><trkpt lat="44.5062908" lon="9.3548426"><ele>814.0</ele><time>2026-03-22T12:47:01.683Z</time></trkpt><trkpt lat="44.5061606" lon="9.3546953"><ele>813.3333333333333</ele><time>2026-03-22T12:47:02.682Z</time></trkpt><trkpt lat="44.5060484" lon="9.3545379"><ele>812.6666666666667</ele><time>2026-03-22T12:47:03.682Z</time></trkpt><trkpt lat="44.5059874" lon="9.3543612"><ele>812.0</ele><time>2026-03-22T12:47:04.682Z</time></trkpt><trkpt lat="44.5058754" lon="9.3541942"><ele>812.0</ele><time>2026-03-22T12:47:05.682Z</time></trkpt><trkpt lat="44.5057591" lon="9.3540336"><ele>812.0</ele><time>2026-03-22T12:47:06.682Z</time></trkpt><trkpt lat="44.5056538" lon="9.3538962"><ele>812.0</ele><time>2026-03-22T12:47:07.682Z</time></trkpt><trkpt lat="44.5054308" lon="9.3537764"><ele>811.0</ele><time>2026-03-22T12:47:08.682Z</time></trkpt><trkpt lat="44.5051603" lon="9.3537062"><ele>810.0</ele><time>2026-03-22T12:47:09.682Z</time></trkpt><trkpt lat="44.5049525" lon="9.3535693"><ele>810.0</ele><time>2026-03-22T12:47:10.682Z</time></trkpt><trkpt lat="44.5047267" lon="9.353452"><ele>810.0</ele><time>2026-03-22T12:47:11.682Z</time></trkpt><trkpt lat="44.50448" lon="9.3533584"><ele>810.0</ele><time>2026-03-22T12:47:12.682Z</time></trkpt><trkpt lat="44.5042403" lon="9.3532437"><ele>810.0</ele><time>2026-03-22T12:47:13.682Z</time></trkpt><trkpt lat="44.5040187" lon="9.3531451"><ele>810.0</ele><time>2026-03-22T12:47:14.682Z</time></trkpt><trkpt lat="44.5038036" lon="9.3530402"><ele>810.0</ele><time>2026-03-22T12:47:15.682Z</time></trkpt><trkpt lat="44.5035925" lon="9.3529581"><ele>810.0</ele><time>2026-03-22T12:47:16.682Z</time></trkpt><trkpt lat="44.5034124" lon="9.3528791"><ele>809.3333333333333</ele><time>2026-03-22T12:47:17.682Z</time></trkpt><trkpt lat="44.5032167" lon="9.3527966"><ele>808.6666666666666</ele><time>2026-03-22T12:47:18.682Z</time></trkpt><trkpt lat="44.5030207" lon="9.3527125"><ele>808.0</ele><time>2026-03-22T12:47:19.682Z</time></trkpt><trkpt lat="44.5028314" lon="9.3526341"><ele>810.3333333333333</ele><time>2026-03-22T12:47:20.683Z</time></trkpt><trkpt lat="44.5026531" lon="9.3525624"><ele>812.6666666666667</ele><time>2026-03-22T12:47:21.682Z</time></trkpt><trkpt lat="44.5024787" lon="9.3524945"><ele>815.0</ele><time>2026-03-22T12:47:22.682Z</time></trkpt><trkpt lat="44.5022888" lon="9.3524159"><ele>815.0</ele><time>2026-03-22T12:47:23.683Z</time></trkpt><trkpt lat="44.5020989" lon="9.3522967"><ele>815.0</ele><time>2026-03-22T12:47:24.682Z</time></trkpt><trkpt lat="44.5019291" lon="9.3521517"><ele>815.0</ele><time>2026-03-22T12:47:25.682Z</time></trkpt><trkpt lat="44.5017685" lon="9.351963"><ele>815.3333333333334</ele><time>2026-03-22T12:47:26.682Z</time></trkpt><trkpt lat="44.5016148" lon="9.3517469"><ele>815.6666666666667</ele><time>2026-03-22T12:47:27.683Z</time></trkpt><trkpt lat="44.5014708" lon="9.35153"><ele>816.0</ele><time>2026-03-22T12:47:28.682Z</time></trkpt><trkpt lat="44.5013354" lon="9.3513244"><ele>814.6666666666667</ele><time>2026-03-22T12:47:29.682Z</time></trkpt><trkpt lat="44.5012194" lon="9.3511271"><ele>813.3333333333334</ele><time>2026-03-22T12:47:30.683Z</time></trkpt><trkpt lat="44.5011071" lon="9.3509176"><ele>812.0</ele><time>2026-03-22T12:47:31.682Z</time></trkpt><trkpt lat="44.5010591" lon="9.3507706"><ele>812.0</ele><time>2026-03-22T12:47:32.682Z</time></trkpt><trkpt lat="44.5009819" lon="9.3505978"><ele>812.0</ele><time>2026-03-22T12:47:33.682Z</time></trkpt><trkpt lat="44.5008957" lon="9.3504449"><ele>812.0</ele><time>2026-03-22T12:47:34.682Z</time></trkpt><trkpt lat="44.5006614" lon="9.3505461"><ele>812.0</ele><time>2026-03-22T12:47:35.683Z</time></trkpt><trkpt lat="44.5004576" lon="9.3505456"><ele>812.0</ele><time>2026-03-22T12:47:36.682Z</time></trkpt><trkpt lat="44.5002888" lon="9.3505606"><ele>812.0</ele><time>2026-03-22T12:47:37.683Z</time></trkpt><trkpt lat="44.5001168" lon="9.3505812"><ele>812.0</ele><time>2026-03-22T12:47:38.682Z</time></trkpt><trkpt lat="44.4999142" lon="9.3507411"><ele>812.0</ele><time>2026-03-22T12:47:39.682Z</time></trkpt><trkpt lat="44.4996996" lon="9.3508551"><ele>808.5</ele><time>2026-03-22T12:47:40.682Z</time></trkpt><trkpt lat="44.499492" lon="9.351066"><ele>805.0</ele><time>2026-03-22T12:47:41.682Z</time></trkpt><trkpt lat="44.499305" lon="9.3512153"><ele>805.0</ele><time>2026-03-22T12:47:42.683Z</time></trkpt><trkpt lat="44.4991426" lon="9.3513646"><ele>805.0</ele><time>2026-03-22T12:47:43.682Z</time></trkpt><trkpt lat="44.4989974" lon="9.3514799"><ele>805.0</ele><time>2026-03-22T12:47:44.682Z</time></trkpt><trkpt lat="44.4988559" lon="9.3515728"><ele>808.25</ele><time>2026-03-22T12:47:45.682Z</time></trkpt><trkpt lat="44.4987175" lon="9.3516353"><ele>811.5</ele><time>2026-03-22T12:47:46.682Z</time></trkpt><trkpt lat="44.4985705" lon="9.3516406"><ele>814.75</ele><time>2026-03-22T12:47:47.682Z</time></trkpt><trkpt lat="44.4984384" lon="9.3516216"><ele>818.0</ele><time>2026-03-22T12:47:48.682Z</time></trkpt><trkpt lat="44.4982714" lon="9.3515166"><ele>820.0</ele><time>2026-03-22T12:47:49.682Z</time></trkpt><trkpt lat="44.4981723" lon="9.3512845"><ele>822.0</ele><time>2026-03-22T12:47:50.682Z</time></trkpt><trkpt lat="44.4980219" lon="9.3510829"><ele>824.0</ele><time>2026-03-22T12:47:51.683Z</time></trkpt><trkpt lat="44.4978567" lon="9.3508924"><ele>824.0</ele><time>2026-03-22T12:47:52.682Z</time></trkpt><trkpt lat="44.4977094" lon="9.3507082"><ele>824.0</ele><time>2026-03-22T12:47:53.683Z</time></trkpt><trkpt lat="44.4975668" lon="9.350535"><ele>824.0</ele><time>2026-03-22T12:47:54.682Z</time></trkpt><trkpt lat="44.4974248" lon="9.3503765"><ele>823.6666666666667</ele><time>2026-03-22T12:47:55.682Z</time></trkpt><trkpt lat="44.4972927" lon="9.3502112"><ele>823.3333333333333</ele><time>2026-03-22T12:47:56.683Z</time></trkpt><trkpt lat="44.4971608" lon="9.3500674"><ele>823.0</ele><time>2026-03-22T12:47:57.682Z</time></trkpt><trkpt lat="44.497041" lon="9.3499267"><ele>823.0</ele><time>2026-03-22T12:47:58.682Z</time></trkpt><trkpt lat="44.4969426" lon="9.3497411"><ele>823.0</ele><time>2026-03-22T12:47:59.682Z</time></trkpt><trkpt lat="44.4968573" lon="9.3495306"><ele>823.0</ele><time>2026-03-22T12:48:00.682Z</time></trkpt><trkpt lat="44.496795" lon="9.3492539"><ele>822.3333333333333</ele><time>2026-03-22T12:48:01.682Z</time></trkpt><trkpt lat="44.4967312" lon="9.3489818"><ele>821.6666666666667</ele><time>2026-03-22T12:48:02.682Z</time></trkpt><trkpt lat="44.4966749" lon="9.3487194"><ele>821.0</ele><time>2026-03-22T12:48:03.682Z</time></trkpt><trkpt lat="44.4966088" lon="9.3484659"><ele>819.3333333333334</ele><time>2026-03-22T12:48:04.682Z</time></trkpt><trkpt lat="44.4965689" lon="9.3482001"><ele>817.6666666666667</ele><time>2026-03-22T12:48:05.682Z</time></trkpt><trkpt lat="44.4965307" lon="9.3479493"><ele>816.0</ele><time>2026-03-22T12:48:06.682Z</time></trkpt><trkpt lat="44.4964859" lon="9.3477236"><ele>814.6666666666667</ele><time>2026-03-22T12:48:07.682Z</time></trkpt><trkpt lat="44.4963954" lon="9.3475155"><ele>813.3333333333334</ele><time>2026-03-22T12:48:08.682Z</time></trkpt><trkpt lat="44.4963073" lon="9.3473012"><ele>812.0</ele><time>2026-03-22T12:48:09.683Z</time></trkpt><trkpt lat="44.496203" lon="9.3471143"><ele>812.0</ele><time>2026-03-22T12:48:10.682Z</time></trkpt><trkpt lat="44.4960682" lon="9.3469593"><ele>812.0</ele><time>2026-03-22T12:48:11.682Z</time></trkpt><trkpt lat="44.4958954" lon="9.3468924"><ele>812.0</ele><time>2026-03-22T12:48:12.682Z</time></trkpt><trkpt lat="44.4957397" lon="9.34688"><ele>812.0</ele><time>2026-03-22T12:48:13.682Z</time></trkpt><trkpt lat="44.4955853" lon="9.3469071"><ele>812.0</ele><time>2026-03-22T12:48:14.683Z</time></trkpt><trkpt lat="44.4954736" lon="9.346849"><ele>812.0</ele><time>2026-03-22T12:48:15.682Z</time></trkpt><trkpt lat="44.4953872" lon="9.3467589"><ele>812.0</ele><time>2026-03-22T12:48:16.683Z</time></trkpt><trkpt lat="44.4953153" lon="9.3466046"><ele>812.3333333333334</ele><time>2026-03-22T12:48:17.682Z</time></trkpt><trkpt lat="44.4952459" lon="9.3463994"><ele>812.6666666666667</ele><time>2026-03-22T12:48:18.682Z</time></trkpt><trkpt lat="44.4951778" lon="9.3461768"><ele>813.0</ele><time>2026-03-22T12:48:19.682Z</time></trkpt><trkpt lat="44.4951037" lon="9.3459775"><ele>812.0</ele><time>2026-03-22T12:48:20.682Z</time></trkpt><trkpt lat="44.4950047" lon="9.3457774"><ele>811.0</ele><time>2026-03-22T12:48:21.682Z</time></trkpt><trkpt lat="44.4948662" lon="9.3455541"><ele>810.0</ele><time>2026-03-22T12:48:22.682Z</time></trkpt><trkpt lat="44.4947263" lon="9.3453265"><ele>812.3333333333333</ele><time>2026-03-22T12:48:23.682Z</time></trkpt><trkpt lat="44.4946115" lon="9.3451054"><ele>814.6666666666666</ele><time>2026-03-22T12:48:24.682Z</time></trkpt><trkpt lat="44.4944926" lon="9.3448941"><ele>817.0</ele><time>2026-03-22T12:48:25.682Z</time></trkpt><trkpt lat="44.494374" lon="9.3447484"><ele>821.6666666666666</ele><time>2026-03-22T12:48:26.682Z</time></trkpt><trkpt lat="44.4942502" lon="9.3446054"><ele>826.3333333333333</ele><time>2026-03-22T12:48:27.682Z</time></trkpt><trkpt lat="44.4941294" lon="9.3444613"><ele>831.0</ele><time>2026-03-22T12:48:28.682Z</time></trkpt><trkpt lat="44.4939965" lon="9.344397"><ele>831.0</ele><time>2026-03-22T12:48:29.682Z</time></trkpt><trkpt lat="44.4938796" lon="9.3442991"><ele>831.0</ele><time>2026-03-22T12:48:30.682Z</time></trkpt><trkpt lat="44.4937745" lon="9.344214"><ele>831.0</ele><time>2026-03-22T12:48:31.682Z</time></trkpt><trkpt lat="44.4936663" lon="9.3441316"><ele>831.0</ele><time>2026-03-22T12:48:32.682Z</time></trkpt><trkpt lat="44.4935482" lon="9.3440416"><ele>829.25</ele><time>2026-03-22T12:48:33.683Z</time></trkpt><trkpt lat="44.4934391" lon="9.3439476"><ele>827.5</ele><time>2026-03-22T12:48:34.683Z</time></trkpt><trkpt lat="44.4933461" lon="9.3438161"><ele>825.75</ele><time>2026-03-22T12:48:35.682Z</time></trkpt><trkpt lat="44.4932512" lon="9.3436985"><ele>824.0</ele><time>2026-03-22T12:48:36.683Z</time></trkpt><trkpt lat="44.4932175" lon="9.3434878"><ele>824.0</ele><time>2026-03-22T12:48:37.682Z</time></trkpt><trkpt lat="44.4931877" lon="9.3432692"><ele>824.0</ele><time>2026-03-22T12:48:38.682Z</time></trkpt><trkpt lat="44.4931623" lon="9.3430619"><ele>824.0</ele><time>2026-03-22T12:48:39.682Z</time></trkpt><trkpt lat="44.4931345" lon="9.342869"><ele>824.0</ele><time>2026-03-22T12:48:40.682Z</time></trkpt><trkpt lat="44.4931085" lon="9.3426843"><ele>823.25</ele><time>2026-03-22T12:48:41.682Z</time></trkpt><trkpt lat="44.4930844" lon="9.3425011"><ele>822.5</ele><time>2026-03-22T12:48:42.682Z</time></trkpt><trkpt lat="44.4930574" lon="9.3423117"><ele>821.75</ele><time>2026-03-22T12:48:43.682Z</time></trkpt><trkpt lat="44.4930323" lon="9.342132"><ele>821.0</ele><time>2026-03-22T12:48:44.683Z</time></trkpt><trkpt lat="44.4930078" lon="9.3419589"><ele>820.0</ele><time>2026-03-22T12:48:45.682Z</time></trkpt><trkpt lat="44.492983" lon="9.3418015"><ele>819.0</ele><time>2026-03-22T12:48:46.682Z</time></trkpt><trkpt lat="44.4929578" lon="9.3416509"><ele>818.0</ele><time>2026-03-22T12:48:47.682Z</time></trkpt><trkpt lat="44.4929187" lon="9.3415074"><ele>817.0</ele><time>2026-03-22T12:48:48.682Z</time></trkpt><trkpt lat="44.4928668" lon="9.3413641"><ele>816.75</ele><time>2026-03-22T12:48:49.682Z</time></trkpt><trkpt lat="44.4928064" lon="9.3412241"><ele>816.5</ele><time>2026-03-22T12:48:50.682Z</time></trkpt><trkpt lat="44.4927381" lon="9.3410789"><ele>816.25</ele><time>2026-03-22T12:48:51.682Z</time></trkpt><trkpt lat="44.4926633" lon="9.3409322"><ele>816.0</ele><time>2026-03-22T12:48:52.682Z</time></trkpt><trkpt lat="44.4925918" lon="9.3407916"><ele>816.0</ele><time>2026-03-22T12:48:53.682Z</time></trkpt><trkpt lat="44.4925291" lon="9.3406656"><ele>816.0</ele><time>2026-03-22T12:48:54.682Z</time></trkpt><trkpt lat="44.4924664" lon="9.3405497"><ele>816.0</ele><time>2026-03-22T12:48:55.682Z</time></trkpt><trkpt lat="44.4923993" lon="9.3404461"><ele>816.0</ele><time>2026-03-22T12:48:56.682Z</time></trkpt><trkpt lat="44.4923238" lon="9.3403472"><ele>816.0</ele><time>2026-03-22T12:48:57.682Z</time></trkpt><trkpt lat="44.4922422" lon="9.340254"><ele>816.0</ele><time>2026-03-22T12:48:58.682Z</time></trkpt><trkpt lat="44.4921614" lon="9.3401608"><ele>816.0</ele><time>2026-03-22T12:48:59.682Z</time></trkpt><trkpt lat="44.4920757" lon="9.340079"><ele>816.0</ele><time>2026-03-22T12:49:00.682Z</time></trkpt><trkpt lat="44.4919833" lon="9.3399845"><ele>816.0</ele><time>2026-03-22T12:49:01.682Z</time></trkpt><trkpt lat="44.4918931" lon="9.3398898"><ele>816.0</ele><time>2026-03-22T12:49:02.682Z</time></trkpt><trkpt lat="44.4917632" lon="9.3397551"><ele>817.0</ele><time>2026-03-22T12:49:03.682Z</time></trkpt><trkpt lat="44.4916048" lon="9.3396301"><ele>818.0</ele><time>2026-03-22T12:49:04.682Z</time></trkpt><trkpt lat="44.4914207" lon="9.3395601"><ele>819.0</ele><time>2026-03-22T12:49:05.682Z</time></trkpt><trkpt lat="44.4912417" lon="9.3395073"><ele>819.0</ele><time>2026-03-22T12:49:06.682Z</time></trkpt><trkpt lat="44.4910678" lon="9.3394314"><ele>819.0</ele><time>2026-03-22T12:49:07.682Z</time></trkpt><trkpt lat="44.4908711" lon="9.3393164"><ele>819.0</ele><time>2026-03-22T12:49:08.682Z</time></trkpt><trkpt lat="44.490685" lon="9.3391931"><ele>819.0</ele><time>2026-03-22T12:49:09.682Z</time></trkpt><trkpt lat="44.4905147" lon="9.3390695"><ele>819.0</ele><time>2026-03-22T12:49:10.682Z</time></trkpt><trkpt lat="44.4903654" lon="9.3388956"><ele>819.0</ele><time>2026-03-22T12:49:11.682Z</time></trkpt><trkpt lat="44.4902164" lon="9.3386754"><ele>819.6666666666667</ele><time>2026-03-22T12:49:12.682Z</time></trkpt><trkpt lat="44.4900797" lon="9.338466"><ele>820.3333333333334</ele><time>2026-03-22T12:49:13.683Z</time></trkpt><trkpt lat="44.4899489" lon="9.3382639"><ele>821.0</ele><time>2026-03-22T12:49:14.683Z</time></trkpt><trkpt lat="44.4898223" lon="9.3380692"><ele>821.0</ele><time>2026-03-22T12:49:15.682Z</time></trkpt><trkpt lat="44.4896906" lon="9.3378813"><ele>821.0</ele><time>2026-03-22T12:49:16.683Z</time></trkpt><trkpt lat="44.4895601" lon="9.3376855"><ele>821.0</ele><time>2026-03-22T12:49:17.682Z</time></trkpt><trkpt lat="44.4894111" lon="9.3374827"><ele>821.0</ele><time>2026-03-22T12:49:18.682Z</time></trkpt><trkpt lat="44.4892671" lon="9.3372816"><ele>821.0</ele><time>2026-03-22T12:49:19.682Z</time></trkpt><trkpt lat="44.4891268" lon="9.3370984"><ele>821.0</ele><time>2026-03-22T12:49:20.682Z</time></trkpt><trkpt lat="44.4889911" lon="9.3369143"><ele>820.6666666666667</ele><time>2026-03-22T12:49:21.682Z</time></trkpt><trkpt lat="44.4888582" lon="9.3367231"><ele>820.3333333333333</ele><time>2026-03-22T12:49:22.682Z</time></trkpt><trkpt lat="44.488724" lon="9.3365303"><ele>820.0</ele><time>2026-03-22T12:49:23.682Z</time></trkpt><trkpt lat="44.4885846" lon="9.3363382"><ele>827.3333333333333</ele><time>2026-03-22T12:49:24.682Z</time></trkpt><trkpt lat="44.4884223" lon="9.3361614"><ele>834.6666666666667</ele><time>2026-03-22T12:49:25.683Z</time></trkpt><trkpt lat="44.4882446" lon="9.3360127"><ele>842.0</ele><time>2026-03-22T12:49:26.682Z</time></trkpt><trkpt lat="44.4880644" lon="9.3358875"><ele>842.0</ele><time>2026-03-22T12:49:27.683Z</time></trkpt><trkpt lat="44.4878819" lon="9.3357645"><ele>842.0</ele><time>2026-03-22T12:49:28.682Z</time></trkpt><trkpt lat="44.4877013" lon="9.3356463"><ele>842.0</ele><time>2026-03-22T12:49:29.682Z</time></trkpt><trkpt lat="44.4875232" lon="9.335537"><ele>842.0</ele><time>2026-03-22T12:49:30.682Z</time></trkpt><trkpt lat="44.4873475" lon="9.3354201"><ele>842.0</ele><time>2026-03-22T12:49:31.682Z</time></trkpt><trkpt lat="44.4871806" lon="9.3352992"><ele>842.0</ele><time>2026-03-22T12:49:32.682Z</time></trkpt><trkpt lat="44.4870145" lon="9.3351775"><ele>838.0</ele><time>2026-03-22T12:49:33.682Z</time></trkpt><trkpt lat="44.4868454" lon="9.3350401"><ele>834.0</ele><time>2026-03-22T12:49:34.683Z</time></trkpt><trkpt lat="44.4866752" lon="9.3349163"><ele>830.0</ele><time>2026-03-22T12:49:35.683Z</time></trkpt><trkpt lat="44.4865671" lon="9.3346947"><ele>830.0</ele><time>2026-03-22T12:49:36.682Z</time></trkpt><trkpt lat="44.4864312" lon="9.3345521"><ele>830.0</ele><time>2026-03-22T12:49:37.682Z</time></trkpt><trkpt lat="44.4863115" lon="9.3343975"><ele>830.0</ele><time>2026-03-22T12:49:38.683Z</time></trkpt><trkpt lat="44.4862164" lon="9.3341799"><ele>829.3333333333334</ele><time>2026-03-22T12:49:39.682Z</time></trkpt><trkpt lat="44.4861074" lon="9.3339725"><ele>828.6666666666667</ele><time>2026-03-22T12:49:40.682Z</time></trkpt><trkpt lat="44.4860137" lon="9.3337489"><ele>828.0</ele><time>2026-03-22T12:49:41.682Z</time></trkpt><trkpt lat="44.4859428" lon="9.3335074"><ele>828.0</ele><time>2026-03-22T12:49:42.682Z</time></trkpt><trkpt lat="44.4858558" lon="9.3332934"><ele>828.0</ele><time>2026-03-22T12:49:43.682Z</time></trkpt><trkpt lat="44.4857787" lon="9.3330712"><ele>828.0</ele><time>2026-03-22T12:49:44.682Z</time></trkpt><trkpt lat="44.4857017" lon="9.3328777"><ele>831.6666666666667</ele><time>2026-03-22T12:49:45.683Z</time></trkpt><trkpt lat="44.4856311" lon="9.3326617"><ele>835.3333333333334</ele><time>2026-03-22T12:49:46.682Z</time></trkpt><trkpt lat="44.485535" lon="9.3324934"><ele>839.0</ele><time>2026-03-22T12:49:47.682Z</time></trkpt><trkpt lat="44.4854338" lon="9.3323233"><ele>838.3333333333334</ele><time>2026-03-22T12:49:48.682Z</time></trkpt><trkpt lat="44.4853331" lon="9.3321454"><ele>837.6666666666667</ele><time>2026-03-22T12:49:49.682Z</time></trkpt><trkpt lat="44.4852311" lon="9.331973"><ele>837.0</ele><time>2026-03-22T12:49:50.682Z</time></trkpt><trkpt lat="44.4851209" lon="9.3317979"><ele>837.0</ele><time>2026-03-22T12:49:51.682Z</time></trkpt><trkpt lat="44.484993" lon="9.3316202"><ele>837.0</ele><time>2026-03-22T12:49:52.682Z</time></trkpt><trkpt lat="44.4848637" lon="9.3314664"><ele>837.0</ele><time>2026-03-22T12:49:53.682Z</time></trkpt><trkpt lat="44.484728" lon="9.331312"><ele>835.6666666666667</ele><time>2026-03-22T12:49:54.682Z</time></trkpt><trkpt lat="44.4845964" lon="9.3311405"><ele>834.3333333333334</ele><time>2026-03-22T12:49:55.682Z</time></trkpt><trkpt lat="44.4844672" lon="9.3309853"><ele>833.0</ele><time>2026-03-22T12:49:56.682Z</time></trkpt><trkpt lat="44.4843368" lon="9.3308317"><ele>833.0</ele><time>2026-03-22T12:49:57.683Z</time></trkpt><trkpt lat="44.4841997" lon="9.3306751"><ele>833.0</ele><time>2026-03-22T12:49:58.682Z</time></trkpt><trkpt lat="44.4840642" lon="9.3305589"><ele>833.0</ele><time>2026-03-22T12:49:59.682Z</time></trkpt><trkpt lat="44.4839175" lon="9.3303957"><ele>831.3333333333334</ele><time>2026-03-22T12:50:00.682Z</time></trkpt><trkpt lat="44.4837964" lon="9.3302174"><ele>829.6666666666667</ele><time>2026-03-22T12:50:01.682Z</time></trkpt><trkpt lat="44.4836689" lon="9.3300454"><ele>828.0</ele><time>2026-03-22T12:50:02.682Z</time></trkpt><trkpt lat="44.4835435" lon="9.3298835"><ele>832.3333333333333</ele><time>2026-03-22T12:50:03.682Z</time></trkpt><trkpt lat="44.4834096" lon="9.3297166"><ele>836.6666666666666</ele><time>2026-03-22T12:50:04.682Z</time></trkpt><trkpt lat="44.4832774" lon="9.3295373"><ele>841.0</ele><time>2026-03-22T12:50:05.682Z</time></trkpt><trkpt lat="44.4831169" lon="9.3293996"><ele>841.0</ele><time>2026-03-22T12:50:06.682Z</time></trkpt><trkpt lat="44.4829945" lon="9.3292127"><ele>841.0</ele><time>2026-03-22T12:50:07.682Z</time></trkpt><trkpt lat="44.4828389" lon="9.3290407"><ele>841.0</ele><time>2026-03-22T12:50:08.682Z</time></trkpt><trkpt lat="44.4826725" lon="9.3289034"><ele>840.3333333333333</ele><time>2026-03-22T12:50:09.682Z</time></trkpt><trkpt lat="44.4825121" lon="9.3288123"><ele>839.6666666666667</ele><time>2026-03-22T12:50:10.682Z</time></trkpt><trkpt lat="44.4823557" lon="9.3286943"><ele>839.0</ele><time>2026-03-22T12:50:11.682Z</time></trkpt><trkpt lat="44.4821873" lon="9.3285881"><ele>836.0</ele><time>2026-03-22T12:50:12.682Z</time></trkpt><trkpt lat="44.4820325" lon="9.3284971"><ele>833.0</ele><time>2026-03-22T12:50:13.682Z</time></trkpt><trkpt lat="44.4818742" lon="9.3283746"><ele>830.0</ele><time>2026-03-22T12:50:14.682Z</time></trkpt><trkpt lat="44.4817323" lon="9.3282595"><ele>830.0</ele><time>2026-03-22T12:50:15.683Z</time></trkpt><trkpt lat="44.481575" lon="9.328118"><ele>830.0</ele><time>2026-03-22T12:50:16.682Z</time></trkpt><trkpt lat="44.4814453" lon="9.3279574"><ele>830.0</ele><time>2026-03-22T12:50:17.682Z</time></trkpt><trkpt lat="44.4813069" lon="9.3278085"><ele>830.0</ele><time>2026-03-22T12:50:18.682Z</time></trkpt><trkpt lat="44.4811776" lon="9.3276561"><ele>830.0</ele><time>2026-03-22T12:50:19.683Z</time></trkpt><trkpt lat="44.4810483" lon="9.3275067"><ele>830.0</ele><time>2026-03-22T12:50:20.682Z</time></trkpt><trkpt lat="44.4809193" lon="9.3273494"><ele>831.3333333333334</ele><time>2026-03-22T12:50:21.682Z</time></trkpt><trkpt lat="44.4807642" lon="9.327211"><ele>832.6666666666667</ele><time>2026-03-22T12:50:22.682Z</time></trkpt><trkpt lat="44.480622" lon="9.3270575"><ele>834.0</ele><time>2026-03-22T12:50:23.682Z</time></trkpt><trkpt lat="44.480481" lon="9.3269024"><ele>830.6666666666667</ele><time>2026-03-22T12:50:24.683Z</time></trkpt><trkpt lat="44.4803283" lon="9.3267642"><ele>827.3333333333334</ele><time>2026-03-22T12:50:25.682Z</time></trkpt><trkpt lat="44.4801724" lon="9.326639"><ele>824.0</ele><time>2026-03-22T12:50:26.682Z</time></trkpt><trkpt lat="44.4800095" lon="9.3265397"><ele>824.0</ele><time>2026-03-22T12:50:27.683Z</time></trkpt><trkpt lat="44.4798426" lon="9.3264592"><ele>824.0</ele><time>2026-03-22T12:50:28.682Z</time></trkpt><trkpt lat="44.4796711" lon="9.326388"><ele>824.0</ele><time>2026-03-22T12:50:29.683Z</time></trkpt><trkpt lat="44.4794946" lon="9.3263191"><ele>823.3333333333334</ele><time>2026-03-22T12:50:30.683Z</time></trkpt><trkpt lat="44.4793113" lon="9.3262471"><ele>822.6666666666667</ele><time>2026-03-22T12:50:31.683Z</time></trkpt><trkpt lat="44.4791264" lon="9.3261805"><ele>822.0</ele><time>2026-03-22T12:50:32.682Z</time></trkpt><trkpt lat="44.4789418" lon="9.3261186"><ele>822.0</ele><time>2026-03-22T12:50:33.683Z</time></trkpt><trkpt lat="44.4787729" lon="9.3260501"><ele>822.0</ele><time>2026-03-22T12:50:34.682Z</time></trkpt><trkpt lat="44.4786227" lon="9.3259502"><ele>822.0</ele><time>2026-03-22T12:50:35.682Z</time></trkpt><trkpt lat="44.478473" lon="9.3258114"><ele>822.3333333333333</ele><time>2026-03-22T12:50:36.682Z</time></trkpt><trkpt lat="44.4783539" lon="9.3256062"><ele>822.6666666666666</ele><time>2026-03-22T12:50:37.682Z</time></trkpt><trkpt lat="44.4782572" lon="9.3254041"><ele>823.0</ele><time>2026-03-22T12:50:38.682Z</time></trkpt><trkpt lat="44.478156" lon="9.3252312"><ele>823.0</ele><time>2026-03-22T12:50:39.682Z</time></trkpt><trkpt lat="44.4780296" lon="9.3250905"><ele>823.0</ele><time>2026-03-22T12:50:40.682Z</time></trkpt><trkpt lat="44.4778775" lon="9.3249665"><ele>823.0</ele><time>2026-03-22T12:50:41.682Z</time></trkpt><trkpt lat="44.4777034" lon="9.3248491"><ele>824.3333333333333</ele><time>2026-03-22T12:50:42.682Z</time></trkpt><trkpt lat="44.4775163" lon="9.3247417"><ele>825.6666666666667</ele><time>2026-03-22T12:50:43.682Z</time></trkpt><trkpt lat="44.477324" lon="9.324647"><ele>827.0</ele><time>2026-03-22T12:50:44.683Z</time></trkpt><trkpt lat="44.4771443" lon="9.3245464"><ele>828.3333333333334</ele><time>2026-03-22T12:50:45.682Z</time></trkpt><trkpt lat="44.4769892" lon="9.3244616"><ele>829.6666666666667</ele><time>2026-03-22T12:50:46.682Z</time></trkpt><trkpt lat="44.4768482" lon="9.3243826"><ele>831.0</ele><time>2026-03-22T12:50:47.682Z</time></trkpt><trkpt lat="44.476723" lon="9.3243128"><ele>831.0</ele><time>2026-03-22T12:50:48.682Z</time></trkpt><trkpt lat="44.4765966" lon="9.3242416"><ele>831.0</ele><time>2026-03-22T12:50:49.683Z</time></trkpt><trkpt lat="44.4764673" lon="9.3242369"><ele>831.0</ele><time>2026-03-22T12:50:50.683Z</time></trkpt><trkpt lat="44.4763097" lon="9.3243003"><ele>831.0</ele><time>2026-03-22T12:50:51.682Z</time></trkpt><trkpt lat="44.4761682" lon="9.3243624"><ele>829.0</ele><time>2026-03-22T12:50:52.682Z</time></trkpt><trkpt lat="44.4760305" lon="9.3244552"><ele>827.0</ele><time>2026-03-22T12:50:53.682Z</time></trkpt><trkpt lat="44.4758951" lon="9.3245708"><ele>825.0</ele><time>2026-03-22T12:50:54.682Z</time></trkpt><trkpt lat="44.4757589" lon="9.3246758"><ele>825.6666666666667</ele><time>2026-03-22T12:50:55.682Z</time></trkpt><trkpt lat="44.4756224" lon="9.3247864"><ele>826.3333333333334</ele><time>2026-03-22T12:50:56.682Z</time></trkpt><trkpt lat="44.4754855" lon="9.3248776"><ele>827.0</ele><time>2026-03-22T12:50:57.682Z</time></trkpt><trkpt lat="44.4753292" lon="9.3249115"><ele>826.3333333333334</ele><time>2026-03-22T12:50:58.682Z</time></trkpt><trkpt lat="44.4751501" lon="9.324903"><ele>825.6666666666667</ele><time>2026-03-22T12:50:59.682Z</time></trkpt><trkpt lat="44.4749638" lon="9.3248249"><ele>825.0</ele><time>2026-03-22T12:51:00.682Z</time></trkpt><trkpt lat="44.4747927" lon="9.3247176"><ele>825.0</ele><time>2026-03-22T12:51:01.682Z</time></trkpt><trkpt lat="44.4746285" lon="9.324607"><ele>825.0</ele><time>2026-03-22T12:51:02.682Z</time></trkpt><trkpt lat="44.474468" lon="9.3245006"><ele>825.0</ele><time>2026-03-22T12:51:03.682Z</time></trkpt><trkpt lat="44.4743074" lon="9.324395"><ele>827.6666666666667</ele><time>2026-03-22T12:51:04.682Z</time></trkpt><trkpt lat="44.474152" lon="9.3243001"><ele>830.3333333333334</ele><time>2026-03-22T12:51:05.682Z</time></trkpt><trkpt lat="44.4740107" lon="9.3242058"><ele>833.0</ele><time>2026-03-22T12:51:06.682Z</time></trkpt><trkpt lat="44.4738693" lon="9.3241225"><ele>834.0</ele><time>2026-03-22T12:51:07.682Z</time></trkpt><trkpt lat="44.4737291" lon="9.3240385"><ele>835.0</ele><time>2026-03-22T12:51:08.682Z</time></trkpt><trkpt lat="44.4735849" lon="9.3239856"><ele>836.0</ele><time>2026-03-22T12:51:09.683Z</time></trkpt><trkpt lat="44.4734066" lon="9.3240025"><ele>836.0</ele><time>2026-03-22T12:51:10.682Z</time></trkpt><trkpt lat="44.4731872" lon="9.3240967"><ele>836.0</ele><time>2026-03-22T12:51:11.682Z</time></trkpt><trkpt lat="44.4730033" lon="9.3241697"><ele>836.0</ele><time>2026-03-22T12:51:12.683Z</time></trkpt><trkpt lat="44.4728201" lon="9.3242612"><ele>835.3333333333334</ele><time>2026-03-22T12:51:13.682Z</time></trkpt><trkpt lat="44.4726465" lon="9.3243573"><ele>834.6666666666667</ele><time>2026-03-22T12:51:14.682Z</time></trkpt><trkpt lat="44.4724727" lon="9.324458"><ele>834.0</ele><time>2026-03-22T12:51:15.682Z</time></trkpt><trkpt lat="44.4722981" lon="9.3245354"><ele>834.0</ele><time>2026-03-22T12:51:16.682Z</time></trkpt><trkpt lat="44.4721315" lon="9.3245671"><ele>834.0</ele><time>2026-03-22T12:51:17.682Z</time></trkpt><trkpt lat="44.4719707" lon="9.3245726"><ele>834.0</ele><time>2026-03-22T12:51:18.682Z</time></trkpt><trkpt lat="44.4718212" lon="9.3245916"><ele>833.75</ele><time>2026-03-22T12:51:19.682Z</time></trkpt><trkpt lat="44.4716797" lon="9.3246347"><ele>833.5</ele><time>2026-03-22T12:51:20.682Z</time></trkpt><trkpt lat="44.471547" lon="9.3246818"><ele>833.25</ele><time>2026-03-22T12:51:21.682Z</time></trkpt><trkpt lat="44.4714264" lon="9.3247721"><ele>833.0</ele><time>2026-03-22T12:51:22.682Z</time></trkpt><trkpt lat="44.4713451" lon="9.3249747"><ele>836.3333333333334</ele><time>2026-03-22T12:51:23.682Z</time></trkpt><trkpt lat="44.471346" lon="9.3253099"><ele>839.6666666666667</ele><time>2026-03-22T12:51:24.682Z</time></trkpt><trkpt lat="44.4713154" lon="9.3255941"><ele>843.0</ele><time>2026-03-22T12:51:25.682Z</time></trkpt><trkpt lat="44.4712903" lon="9.3258197"><ele>839.6666666666667</ele><time>2026-03-22T12:51:26.682Z</time></trkpt><trkpt lat="44.471217" lon="9.3260232"><ele>836.3333333333334</ele><time>2026-03-22T12:51:27.682Z</time></trkpt><trkpt lat="44.4711456" lon="9.3262074"><ele>833.0</ele><time>2026-03-22T12:51:28.682Z</time></trkpt><trkpt lat="44.47106" lon="9.3263806"><ele>836.5</ele><time>2026-03-22T12:51:29.682Z</time></trkpt><trkpt lat="44.4709341" lon="9.3265079"><ele>840.0</ele><time>2026-03-22T12:51:30.683Z</time></trkpt><trkpt lat="44.4708187" lon="9.3266027"><ele>843.5</ele><time>2026-03-22T12:51:31.682Z</time></trkpt><trkpt lat="44.4706718" lon="9.326686"><ele>847.0</ele><time>2026-03-22T12:51:32.682Z</time></trkpt><trkpt lat="44.4705216" lon="9.3266269"><ele>846.3333333333333</ele><time>2026-03-22T12:51:33.682Z</time></trkpt><trkpt lat="44.4702846" lon="9.3264897"><ele>845.6666666666667</ele><time>2026-03-22T12:51:34.682Z</time></trkpt><trkpt lat="44.4701146" lon="9.326391"><ele>845.0</ele><time>2026-03-22T12:51:35.682Z</time></trkpt><trkpt lat="44.469934" lon="9.3263905"><ele>845.0</ele><time>2026-03-22T12:51:36.682Z</time></trkpt><trkpt lat="44.4697924" lon="9.3264391"><ele>845.0</ele><time>2026-03-22T12:51:37.682Z</time></trkpt><trkpt lat="44.4696327" lon="9.3265278"><ele>845.0</ele><time>2026-03-22T12:51:38.682Z</time></trkpt><trkpt lat="44.4694899" lon="9.3266207"><ele>842.0</ele><time>2026-03-22T12:51:39.682Z</time></trkpt><trkpt lat="44.4693293" lon="9.326848"><ele>839.0</ele><time>2026-03-22T12:51:40.682Z</time></trkpt><trkpt lat="44.4692114" lon="9.3271178"><ele>840.6666666666667</ele><time>2026-03-22T12:51:41.682Z</time></trkpt><trkpt lat="44.4690814" lon="9.3273293"><ele>842.3333333333333</ele><time>2026-03-22T12:51:42.682Z</time></trkpt><trkpt lat="44.4689652" lon="9.3275244"><ele>844.0</ele><time>2026-03-22T12:51:43.682Z</time></trkpt><trkpt lat="44.4688479" lon="9.3277091"><ele>843.3333333333333</ele><time>2026-03-22T12:51:44.682Z</time></trkpt><trkpt lat="44.4686692" lon="9.327771"><ele>842.6666666666667</ele><time>2026-03-22T12:51:45.682Z</time></trkpt><trkpt lat="44.4685158" lon="9.3278856"><ele>842.0</ele><time>2026-03-22T12:51:46.683Z</time></trkpt><trkpt lat="44.4683498" lon="9.3279246"><ele>842.0</ele><time>2026-03-22T12:51:47.682Z</time></trkpt><trkpt lat="44.4681879" lon="9.3278917"><ele>842.0</ele><time>2026-03-22T12:51:48.682Z</time></trkpt><trkpt lat="44.468027" lon="9.3278286"><ele>842.0</ele><time>2026-03-22T12:51:49.682Z</time></trkpt><trkpt lat="44.4678654" lon="9.3277374"><ele>842.25</ele><time>2026-03-22T12:51:50.683Z</time></trkpt><trkpt lat="44.4677724" lon="9.3275724"><ele>842.5</ele><time>2026-03-22T12:51:51.682Z</time></trkpt><trkpt lat="44.467656" lon="9.3275048"><ele>842.75</ele><time>2026-03-22T12:51:52.682Z</time></trkpt><trkpt lat="44.4675431" lon="9.3275018"><ele>843.0</ele><time>2026-03-22T12:51:53.682Z</time></trkpt><trkpt lat="44.4674569" lon="9.3275059"><ele>843.0</ele><time>2026-03-22T12:51:54.682Z</time></trkpt><trkpt lat="44.4673824" lon="9.3275553"><ele>843.0</ele><time>2026-03-22T12:51:55.682Z</time></trkpt><trkpt lat="44.4673087" lon="9.3276788"><ele>843.0</ele><time>2026-03-22T12:51:56.682Z</time></trkpt><trkpt lat="44.4673536" lon="9.3279417"><ele>843.0</ele><time>2026-03-22T12:51:57.682Z</time></trkpt><trkpt lat="44.4673339" lon="9.3281749"><ele>844.0</ele><time>2026-03-22T12:51:58.682Z</time></trkpt><trkpt lat="44.4672796" lon="9.3283433"><ele>845.0</ele><time>2026-03-22T12:51:59.682Z</time></trkpt><trkpt lat="44.467233" lon="9.3285168"><ele>846.0</ele><time>2026-03-22T12:52:00.682Z</time></trkpt><trkpt lat="44.4670011" lon="9.3285833"><ele>846.0</ele><time>2026-03-22T12:52:01.683Z</time></trkpt><trkpt lat="44.4668662" lon="9.3286904"><ele>846.0</ele><time>2026-03-22T12:52:02.682Z</time></trkpt><trkpt lat="44.4667126" lon="9.328737"><ele>846.0</ele><time>2026-03-22T12:52:03.682Z</time></trkpt><trkpt lat="44.4665812" lon="9.3288144"><ele>847.0</ele><time>2026-03-22T12:52:04.683Z</time></trkpt><trkpt lat="44.4664701" lon="9.3289103"><ele>848.0</ele><time>2026-03-22T12:52:05.682Z</time></trkpt><trkpt lat="44.4663624" lon="9.3290241"><ele>849.0</ele><time>2026-03-22T12:52:06.682Z</time></trkpt><trkpt lat="44.4662731" lon="9.3291959"><ele>850.0</ele><time>2026-03-22T12:52:07.682Z</time></trkpt><trkpt lat="44.4662555" lon="9.3293758"><ele>850.0</ele><time>2026-03-22T12:52:08.682Z</time></trkpt><trkpt lat="44.4662639" lon="9.3295862"><ele>850.0</ele><time>2026-03-22T12:52:09.682Z</time></trkpt><trkpt lat="44.4664323" lon="9.3297095"><ele>850.0</ele><time>2026-03-22T12:52:10.682Z</time></trkpt><trkpt lat="44.4664353" lon="9.329894"><ele>850.6666666666666</ele><time>2026-03-22T12:52:11.683Z</time></trkpt><trkpt lat="44.4663906" lon="9.3300707"><ele>851.3333333333333</ele><time>2026-03-22T12:52:12.682Z</time></trkpt><trkpt lat="44.4663333" lon="9.3302801"><ele>852.0</ele><time>2026-03-22T12:52:13.682Z</time></trkpt><trkpt lat="44.4662668" lon="9.3304931"><ele>853.25</ele><time>2026-03-22T12:52:14.682Z</time></trkpt><trkpt lat="44.4662042" lon="9.3306733"><ele>854.5</ele><time>2026-03-22T12:52:15.682Z</time></trkpt><trkpt lat="44.466136" lon="9.3308422"><ele>855.75</ele><time>2026-03-22T12:52:16.683Z</time></trkpt><trkpt lat="44.4660372" lon="9.3309596"><ele>857.0</ele><time>2026-03-22T12:52:17.682Z</time></trkpt><trkpt lat="44.465916" lon="9.3310323"><ele>857.0</ele><time>2026-03-22T12:52:18.682Z</time></trkpt><trkpt lat="44.4657359" lon="9.3310424"><ele>857.0</ele><time>2026-03-22T12:52:19.682Z</time></trkpt><trkpt lat="44.4656283" lon="9.3311105"><ele>857.0</ele><time>2026-03-22T12:52:20.682Z</time></trkpt><trkpt lat="44.4655361" lon="9.3312311"><ele>857.0</ele><time>2026-03-22T12:52:21.683Z</time></trkpt><trkpt lat="44.4654477" lon="9.3313478"><ele>857.5</ele><time>2026-03-22T12:52:22.682Z</time></trkpt><trkpt lat="44.4654503" lon="9.3315484"><ele>858.0</ele><time>2026-03-22T12:52:23.682Z</time></trkpt><trkpt lat="44.4653944" lon="9.3316781"><ele>858.5</ele><time>2026-03-22T12:52:24.682Z</time></trkpt><trkpt lat="44.4653355" lon="9.3318081"><ele>859.0</ele><time>2026-03-22T12:52:25.682Z</time></trkpt><trkpt lat="44.4652723" lon="9.331944"><ele>859.0</ele><time>2026-03-22T12:52:26.682Z</time></trkpt><trkpt lat="44.4651355" lon="9.332072"><ele>859.0</ele><time>2026-03-22T12:52:27.682Z</time></trkpt><trkpt lat="44.4648886" lon="9.3320736"><ele>859.0</ele><time>2026-03-22T12:52:28.682Z</time></trkpt><trkpt lat="44.4647202" lon="9.3321261"><ele>862.5</ele><time>2026-03-22T12:52:29.682Z</time></trkpt><trkpt lat="44.4646276" lon="9.3323181"><ele>866.0</ele><time>2026-03-22T12:52:30.682Z</time></trkpt><trkpt lat="44.4645304" lon="9.3324325"><ele>869.5</ele><time>2026-03-22T12:52:31.682Z</time></trkpt><trkpt lat="44.4644257" lon="9.3325568"><ele>873.0</ele><time>2026-03-22T12:52:32.682Z</time></trkpt><trkpt lat="44.4643217" lon="9.3326785"><ele>873.0</ele><time>2026-03-22T12:52:33.682Z</time></trkpt><trkpt lat="44.4642019" lon="9.3327106"><ele>873.0</ele><time>2026-03-22T12:52:34.682Z</time></trkpt><trkpt lat="44.4639918" lon="9.3326176"><ele>873.0</ele><time>2026-03-22T12:52:35.682Z</time></trkpt><trkpt lat="44.4638119" lon="9.3325826"><ele>870.6666666666667</ele><time>2026-03-22T12:52:36.682Z</time></trkpt><trkpt lat="44.4636328" lon="9.332661"><ele>868.3333333333334</ele><time>2026-03-22T12:52:37.682Z</time></trkpt><trkpt lat="44.4634852" lon="9.3327219"><ele>866.0</ele><time>2026-03-22T12:52:38.682Z</time></trkpt><trkpt lat="44.4633695" lon="9.3327604"><ele>866.0</ele><time>2026-03-22T12:52:39.682Z</time></trkpt><trkpt lat="44.4632578" lon="9.3328366"><ele>866.0</ele><time>2026-03-22T12:52:40.682Z</time></trkpt><trkpt lat="44.4631408" lon="9.3329154"><ele>866.0</ele><time>2026-03-22T12:52:41.682Z</time></trkpt><trkpt lat="44.463115" lon="9.33305"><ele>866.0</ele><time>2026-03-22T12:52:42.683Z</time></trkpt><trkpt lat="44.4630736" lon="9.3331864"><ele>869.3333333333334</ele><time>2026-03-22T12:52:43.682Z</time></trkpt><trkpt lat="44.4631287" lon="9.3334399"><ele>872.6666666666667</ele><time>2026-03-22T12:52:44.682Z</time></trkpt><trkpt lat="44.4631659" lon="9.3337175"><ele>876.0</ele><time>2026-03-22T12:52:45.682Z</time></trkpt><trkpt lat="44.4631429" lon="9.3339694"><ele>878.6666666666667</ele><time>2026-03-22T12:52:46.682Z</time></trkpt><trkpt lat="44.4630907" lon="9.3342279"><ele>881.3333333333334</ele><time>2026-03-22T12:52:47.682Z</time></trkpt><trkpt lat="44.4630074" lon="9.3344994"><ele>884.0</ele><time>2026-03-22T12:52:48.682Z</time></trkpt><trkpt lat="44.4629305" lon="9.3347428"><ele>884.3333333333334</ele><time>2026-03-22T12:52:49.682Z</time></trkpt><trkpt lat="44.4628227" lon="9.334964"><ele>884.6666666666667</ele><time>2026-03-22T12:52:50.682Z</time></trkpt><trkpt lat="44.4627358" lon="9.3351647"><ele>885.0</ele><time>2026-03-22T12:52:51.682Z</time></trkpt><trkpt lat="44.4626503" lon="9.3353298"><ele>885.0</ele><time>2026-03-22T12:52:52.683Z</time></trkpt><trkpt lat="44.462583" lon="9.3354747"><ele>885.0</ele><time>2026-03-22T12:52:53.682Z</time></trkpt><trkpt lat="44.4625491" lon="9.3356328"><ele>885.0</ele><time>2026-03-22T12:52:54.682Z</time></trkpt><trkpt lat="44.4626035" lon="9.3357806"><ele>885.0</ele><time>2026-03-22T12:52:55.682Z</time></trkpt><trkpt lat="44.4626322" lon="9.3359827"><ele>883.3333333333333</ele><time>2026-03-22T12:52:56.682Z</time></trkpt><trkpt lat="44.4627262" lon="9.336138"><ele>881.6666666666666</ele><time>2026-03-22T12:52:57.682Z</time></trkpt><trkpt lat="44.462789" lon="9.3363059"><ele>880.0</ele><time>2026-03-22T12:52:58.682Z</time></trkpt><trkpt lat="44.462968" lon="9.3364081"><ele>880.0</ele><time>2026-03-22T12:52:59.683Z</time></trkpt><trkpt lat="44.4631196" lon="9.3365371"><ele>880.0</ele><time>2026-03-22T12:53:00.683Z</time></trkpt><trkpt lat="44.4632634" lon="9.3366704"><ele>880.0</ele><time>2026-03-22T12:53:01.682Z</time></trkpt><trkpt lat="44.4633815" lon="9.3368161"><ele>880.0</ele><time>2026-03-22T12:53:02.682Z</time></trkpt><trkpt lat="44.4634933" lon="9.3369702"><ele>880.0</ele><time>2026-03-22T12:53:03.682Z</time></trkpt><trkpt lat="44.4635682" lon="9.3371485"><ele>880.0</ele><time>2026-03-22T12:53:04.682Z</time></trkpt><trkpt lat="44.4636456" lon="9.3373272"><ele>873.75</ele><time>2026-03-22T12:53:05.682Z</time></trkpt><trkpt lat="44.4635918" lon="9.3375108"><ele>867.5</ele><time>2026-03-22T12:53:06.682Z</time></trkpt><trkpt lat="44.4635482" lon="9.3376918"><ele>861.25</ele><time>2026-03-22T12:53:07.682Z</time></trkpt><trkpt lat="44.4634951" lon="9.3378812"><ele>855.0</ele><time>2026-03-22T12:53:08.682Z</time></trkpt><trkpt lat="44.4634464" lon="9.3380802"><ele>854.3333333333333</ele><time>2026-03-22T12:53:09.683Z</time></trkpt><trkpt lat="44.4634741" lon="9.3383263"><ele>853.6666666666666</ele><time>2026-03-22T12:53:10.683Z</time></trkpt><trkpt lat="44.4634514" lon="9.3385541"><ele>853.0</ele><time>2026-03-22T12:53:11.682Z</time></trkpt><trkpt lat="44.4633969" lon="9.3387917"><ele>854.5</ele><time>2026-03-22T12:53:12.682Z</time></trkpt><trkpt lat="44.4633343" lon="9.3389923"><ele>856.0</ele><time>2026-03-22T12:53:13.682Z</time></trkpt><trkpt lat="44.4632845" lon="9.3391824"><ele>857.5</ele><time>2026-03-22T12:53:14.681Z</time></trkpt><trkpt lat="44.4632468" lon="9.3393791"><ele>859.0</ele><time>2026-03-22T12:53:15.682Z</time></trkpt><trkpt lat="44.4632225" lon="9.3395698"><ele>859.5</ele><time>2026-03-22T12:53:16.683Z</time></trkpt><trkpt lat="44.4631899" lon="9.3397515"><ele>860.0</ele><time>2026-03-22T12:53:17.682Z</time></trkpt><trkpt lat="44.4631389" lon="9.339921"><ele>860.5</ele><time>2026-03-22T12:53:18.682Z</time></trkpt><trkpt lat="44.463083" lon="9.3400708"><ele>861.0</ele><time>2026-03-22T12:53:19.682Z</time></trkpt><trkpt lat="44.4629969" lon="9.3401878"><ele>858.5</ele><time>2026-03-22T12:53:20.682Z</time></trkpt><trkpt lat="44.462909" lon="9.3403086"><ele>856.0</ele><time>2026-03-22T12:53:21.682Z</time></trkpt><trkpt lat="44.4627974" lon="9.3404291"><ele>853.5</ele><time>2026-03-22T12:53:22.682Z</time></trkpt><trkpt lat="44.4626965" lon="9.3405487"><ele>851.0</ele><time>2026-03-22T12:53:23.682Z</time></trkpt><trkpt lat="44.4625922" lon="9.3406789"><ele>851.0</ele><time>2026-03-22T12:53:24.682Z</time></trkpt><trkpt lat="44.4624956" lon="9.3408001"><ele>851.0</ele><time>2026-03-22T12:53:25.682Z</time></trkpt><trkpt lat="44.4623998" lon="9.3409303"><ele>851.0</ele><time>2026-03-22T12:53:26.682Z</time></trkpt><trkpt lat="44.4623574" lon="9.3410475"><ele>851.0</ele><time>2026-03-22T12:53:27.682Z</time></trkpt><trkpt lat="44.4622724" lon="9.3411655"><ele>851.0000000000001</ele><time>2026-03-22T12:53:28.682Z</time></trkpt><trkpt lat="44.4622629" lon="9.3412855"><ele>851.0</ele><time>2026-03-22T12:53:29.682Z</time></trkpt><trkpt lat="44.4623285" lon="9.3413997"><ele>851.0</ele><time>2026-03-22T12:53:30.682Z</time></trkpt><trkpt lat="44.4623695" lon="9.3414956"><ele>851.0</ele><time>2026-03-22T12:53:31.682Z</time></trkpt><trkpt lat="44.4624297" lon="9.3415552"><ele>851.0000000000001</ele><time>2026-03-22T12:53:32.682Z</time></trkpt><trkpt lat="44.4624953" lon="9.3416339"><ele>851.0</ele><time>2026-03-22T12:53:33.682Z</time></trkpt><trkpt lat="44.462638" lon="9.3416892"><ele>847.75</ele><time>2026-03-22T12:53:34.682Z</time></trkpt><trkpt lat="44.4627771" lon="9.3416811"><ele>844.5</ele><time>2026-03-22T12:53:35.682Z</time></trkpt><trkpt lat="44.4628861" lon="9.3417141"><ele>841.25</ele><time>2026-03-22T12:53:36.682Z</time></trkpt><trkpt lat="44.4630312" lon="9.3416204"><ele>838.0</ele><time>2026-03-22T12:53:37.682Z</time></trkpt><trkpt lat="44.4631487" lon="9.3415132"><ele>843.3333333333333</ele><time>2026-03-22T12:53:38.682Z</time></trkpt><trkpt lat="44.4632565" lon="9.3413644"><ele>848.6666666666667</ele><time>2026-03-22T12:53:39.682Z</time></trkpt><trkpt lat="44.4633679" lon="9.3412066"><ele>854.0</ele><time>2026-03-22T12:53:40.682Z</time></trkpt><trkpt lat="44.4634774" lon="9.3410525"><ele>854.0</ele><time>2026-03-22T12:53:41.682Z</time></trkpt><trkpt lat="44.4635891" lon="9.3408984"><ele>854.0</ele><time>2026-03-22T12:53:42.682Z</time></trkpt><trkpt lat="44.4637011" lon="9.3407532"><ele>854.0</ele><time>2026-03-22T12:53:43.683Z</time></trkpt><trkpt lat="44.4638352" lon="9.3406512"><ele>854.25</ele><time>2026-03-22T12:53:44.682Z</time></trkpt><trkpt lat="44.4639624" lon="9.3405437"><ele>854.5</ele><time>2026-03-22T12:53:45.682Z</time></trkpt><trkpt lat="44.4640873" lon="9.3404412"><ele>854.75</ele><time>2026-03-22T12:53:46.682Z</time></trkpt><trkpt lat="44.4642222" lon="9.3403758"><ele>855.0</ele><time>2026-03-22T12:53:47.682Z</time></trkpt><trkpt lat="44.4643439" lon="9.3402865"><ele>855.0</ele><time>2026-03-22T12:53:48.682Z</time></trkpt><trkpt lat="44.4644671" lon="9.3401954"><ele>855.0</ele><time>2026-03-22T12:53:49.682Z</time></trkpt><trkpt lat="44.4645238" lon="9.3400261"><ele>855.0</ele><time>2026-03-22T12:53:50.683Z</time></trkpt><trkpt lat="44.4645898" lon="9.3398681"><ele>855.0</ele><time>2026-03-22T12:53:51.682Z</time></trkpt><trkpt lat="44.4646722" lon="9.3397772"><ele>858.6</ele><time>2026-03-22T12:53:52.682Z</time></trkpt><trkpt lat="44.4647749" lon="9.3397386"><ele>862.2</ele><time>2026-03-22T12:53:53.682Z</time></trkpt><trkpt lat="44.4648655" lon="9.3396987"><ele>865.8</ele><time>2026-03-22T12:53:54.682Z</time></trkpt><trkpt lat="44.4649748" lon="9.3397014"><ele>869.4</ele><time>2026-03-22T12:53:55.682Z</time></trkpt><trkpt lat="44.4650406" lon="9.3397413"><ele>873.0</ele><time>2026-03-22T12:53:56.682Z</time></trkpt><trkpt lat="44.4651482" lon="9.339919"><ele>864.75</ele><time>2026-03-22T12:53:57.682Z</time></trkpt><trkpt lat="44.4652575" lon="9.3399693"><ele>856.5</ele><time>2026-03-22T12:53:58.682Z</time></trkpt><trkpt lat="44.4653584" lon="9.3399989"><ele>848.25</ele><time>2026-03-22T12:53:59.682Z</time></trkpt><trkpt lat="44.4655187" lon="9.3399877"><ele>840.0</ele><time>2026-03-22T12:54:00.683Z</time></trkpt><trkpt lat="44.4656509" lon="9.3400307"><ele>840.0</ele><time>2026-03-22T12:54:01.682Z</time></trkpt><trkpt lat="44.4657955" lon="9.340124"><ele>840.0</ele><time>2026-03-22T12:54:02.682Z</time></trkpt><trkpt lat="44.4659273" lon="9.3402074"><ele>840.0</ele><time>2026-03-22T12:54:03.682Z</time></trkpt><trkpt lat="44.4660392" lon="9.340304"><ele>840.0</ele><time>2026-03-22T12:54:04.682Z</time></trkpt><trkpt lat="44.4661604" lon="9.3404064"><ele>839.3333333333333</ele><time>2026-03-22T12:54:05.682Z</time></trkpt><trkpt lat="44.4662783" lon="9.3404544"><ele>838.6666666666666</ele><time>2026-03-22T12:54:06.682Z</time></trkpt><trkpt lat="44.466446" lon="9.3403592"><ele>838.0</ele><time>2026-03-22T12:54:07.682Z</time></trkpt><trkpt lat="44.4665925" lon="9.3402107"><ele>838.0</ele><time>2026-03-22T12:54:08.682Z</time></trkpt><trkpt lat="44.4667322" lon="9.3401756"><ele>838.0</ele><time>2026-03-22T12:54:09.683Z</time></trkpt><trkpt lat="44.4668697" lon="9.340129"><ele>838.0</ele><time>2026-03-22T12:54:10.684Z</time></trkpt><trkpt lat="44.4669986" lon="9.3401183"><ele>838.0</ele><time>2026-03-22T12:54:11.682Z</time></trkpt><trkpt lat="44.4671497" lon="9.3401847"><ele>836.75</ele><time>2026-03-22T12:54:12.682Z</time></trkpt><trkpt lat="44.467281" lon="9.3403315"><ele>835.5</ele><time>2026-03-22T12:54:13.682Z</time></trkpt><trkpt lat="44.4673859" lon="9.3404072"><ele>834.25</ele><time>2026-03-22T12:54:14.682Z</time></trkpt><trkpt lat="44.4675069" lon="9.3404716"><ele>833.0</ele><time>2026-03-22T12:54:15.682Z</time></trkpt><trkpt lat="44.4676514" lon="9.3404545"><ele>833.0</ele><time>2026-03-22T12:54:16.682Z</time></trkpt><trkpt lat="44.4677352" lon="9.340373"><ele>833.0</ele><time>2026-03-22T12:54:17.682Z</time></trkpt><trkpt lat="44.4678339" lon="9.3402786"><ele>833.0</ele><time>2026-03-22T12:54:18.682Z</time></trkpt><trkpt lat="44.4679455" lon="9.3402903"><ele>833.0</ele><time>2026-03-22T12:54:19.682Z</time></trkpt><trkpt lat="44.4680384" lon="9.3402928"><ele>833.0</ele><time>2026-03-22T12:54:20.682Z</time></trkpt><trkpt lat="44.4681364" lon="9.3403078"><ele>832.8</ele><time>2026-03-22T12:54:21.682Z</time></trkpt><trkpt lat="44.4682502" lon="9.3404274"><ele>832.5999999999999</ele><time>2026-03-22T12:54:22.682Z</time></trkpt><trkpt lat="44.4683456" lon="9.3404728"><ele>832.4000000000001</ele><time>2026-03-22T12:54:23.682Z</time></trkpt><trkpt lat="44.4684426" lon="9.3404821"><ele>832.2</ele><time>2026-03-22T12:54:24.682Z</time></trkpt><trkpt lat="44.4685474" lon="9.3404566"><ele>832.0</ele><time>2026-03-22T12:54:25.682Z</time></trkpt><trkpt lat="44.4686729" lon="9.3403918"><ele>829.25</ele><time>2026-03-22T12:54:26.682Z</time></trkpt><trkpt lat="44.468805" lon="9.3405561"><ele>826.5</ele><time>2026-03-22T12:54:27.682Z</time></trkpt><trkpt lat="44.4689329" lon="9.3406325"><ele>823.75</ele><time>2026-03-22T12:54:28.682Z</time></trkpt><trkpt lat="44.4690527" lon="9.3407118"><ele>821.0</ele><time>2026-03-22T12:54:29.682Z</time></trkpt><trkpt lat="44.4691842" lon="9.3407061"><ele>821.0</ele><time>2026-03-22T12:54:30.683Z</time></trkpt><trkpt lat="44.4693134" lon="9.3406923"><ele>821.0</ele><time>2026-03-22T12:54:31.682Z</time></trkpt><trkpt lat="44.4694295" lon="9.3406874"><ele>821.0</ele><time>2026-03-22T12:54:32.683Z</time></trkpt><trkpt lat="44.4695244" lon="9.3407374"><ele>821.0</ele><time>2026-03-22T12:54:33.682Z</time></trkpt><trkpt lat="44.4696088" lon="9.3407767"><ele>821.0</ele><time>2026-03-22T12:54:34.682Z</time></trkpt><trkpt lat="44.4696464" lon="9.3409648"><ele>821.0</ele><time>2026-03-22T12:54:35.682Z</time></trkpt><trkpt lat="44.4696193" lon="9.3411981"><ele>821.0</ele><time>2026-03-22T12:54:36.682Z</time></trkpt><trkpt lat="44.4694914" lon="9.3413194"><ele>821.0</ele><time>2026-03-22T12:54:37.682Z</time></trkpt><trkpt lat="44.4694955" lon="9.341471"><ele>821.0</ele><time>2026-03-22T12:54:38.682Z</time></trkpt><trkpt lat="44.4695031" lon="9.3416338"><ele>824.3333333333334</ele><time>2026-03-22T12:54:39.683Z</time></trkpt><trkpt lat="44.469512" lon="9.3417802"><ele>827.6666666666667</ele><time>2026-03-22T12:54:40.682Z</time></trkpt><trkpt lat="44.4696992" lon="9.3419583"><ele>831.0</ele><time>2026-03-22T12:54:41.682Z</time></trkpt><trkpt lat="44.4698164" lon="9.3420363"><ele>831.0</ele><time>2026-03-22T12:54:42.682Z</time></trkpt><trkpt lat="44.4699305" lon="9.3421142"><ele>831.0</ele><time>2026-03-22T12:54:43.682Z</time></trkpt><trkpt lat="44.4700123" lon="9.3422044"><ele>831.0</ele><time>2026-03-22T12:54:44.682Z</time></trkpt><trkpt lat="44.4700817" lon="9.3423395"><ele>831.0</ele><time>2026-03-22T12:54:45.682Z</time></trkpt><trkpt lat="44.4701413" lon="9.342489"><ele>825.0</ele><time>2026-03-22T12:54:46.682Z</time></trkpt><trkpt lat="44.4700313" lon="9.3427594"><ele>819.0</ele><time>2026-03-22T12:54:47.682Z</time></trkpt><trkpt lat="44.470035" lon="9.3429476"><ele>813.0</ele><time>2026-03-22T12:54:48.682Z</time></trkpt><trkpt lat="44.4700391" lon="9.3431281"><ele>811.75</ele><time>2026-03-22T12:54:49.682Z</time></trkpt><trkpt lat="44.470112" lon="9.343272"><ele>810.5</ele><time>2026-03-22T12:54:50.681Z</time></trkpt><trkpt lat="44.4701081" lon="9.3434175"><ele>809.25</ele><time>2026-03-22T12:54:51.682Z</time></trkpt><trkpt lat="44.4701013" lon="9.3435871"><ele>808.0</ele><time>2026-03-22T12:54:52.682Z</time></trkpt><trkpt lat="44.469997" lon="9.3438073"><ele>809.0</ele><time>2026-03-22T12:54:53.682Z</time></trkpt><trkpt lat="44.4698894" lon="9.3439918"><ele>810.0</ele><time>2026-03-22T12:54:54.682Z</time></trkpt><trkpt lat="44.469796" lon="9.344168"><ele>811.0</ele><time>2026-03-22T12:54:55.682Z</time></trkpt><trkpt lat="44.4696715" lon="9.3442526"><ele>801.6666666666666</ele><time>2026-03-22T12:54:56.683Z</time></trkpt><trkpt lat="44.4695407" lon="9.3443964"><ele>792.3333333333333</ele><time>2026-03-22T12:54:57.682Z</time></trkpt><trkpt lat="44.4694533" lon="9.3445939"><ele>783.0</ele><time>2026-03-22T12:54:58.682Z</time></trkpt><trkpt lat="44.4694675" lon="9.3448595"><ele>783.0</ele><time>2026-03-22T12:54:59.682Z</time></trkpt><trkpt lat="44.4694385" lon="9.3450546"><ele>783.0</ele><time>2026-03-22T12:55:00.682Z</time></trkpt><trkpt lat="44.4694664" lon="9.3452164"><ele>783.0</ele><time>2026-03-22T12:55:01.683Z</time></trkpt><trkpt lat="44.4694734" lon="9.3453815"><ele>783.0</ele><time>2026-03-22T12:55:02.682Z</time></trkpt><trkpt lat="44.4694947" lon="9.3454976"><ele>783.75</ele><time>2026-03-22T12:55:03.682Z</time></trkpt><trkpt lat="44.4696073" lon="9.3455636"><ele>784.5</ele><time>2026-03-22T12:55:04.682Z</time></trkpt><trkpt lat="44.469701" lon="9.3456074"><ele>785.25</ele><time>2026-03-22T12:55:05.683Z</time></trkpt><trkpt lat="44.4698372" lon="9.3455014"><ele>786.0</ele><time>2026-03-22T12:55:06.682Z</time></trkpt><trkpt lat="44.4700033" lon="9.3454166"><ele>791.5</ele><time>2026-03-22T12:55:07.682Z</time></trkpt><trkpt lat="44.4701344" lon="9.3454257"><ele>797.0</ele><time>2026-03-22T12:55:08.682Z</time></trkpt><trkpt lat="44.4702726" lon="9.3454434"><ele>802.5</ele><time>2026-03-22T12:55:09.682Z</time></trkpt><trkpt lat="44.4704134" lon="9.3455368"><ele>808.0</ele><time>2026-03-22T12:55:10.682Z</time></trkpt><trkpt lat="44.4704857" lon="9.3457002"><ele>808.6666666666666</ele><time>2026-03-22T12:55:11.682Z</time></trkpt><trkpt lat="44.4705651" lon="9.345956"><ele>809.3333333333333</ele><time>2026-03-22T12:55:12.682Z</time></trkpt><trkpt lat="44.4706512" lon="9.3461533"><ele>810.0</ele><time>2026-03-22T12:55:13.682Z</time></trkpt><trkpt lat="44.470714" lon="9.3463762"><ele>804.3333333333333</ele><time>2026-03-22T12:55:14.682Z</time></trkpt><trkpt lat="44.4707528" lon="9.346606"><ele>798.6666666666666</ele><time>2026-03-22T12:55:15.681Z</time></trkpt><trkpt lat="44.4708013" lon="9.3468223"><ele>793.0</ele><time>2026-03-22T12:55:16.682Z</time></trkpt><trkpt lat="44.4708558" lon="9.347031"><ele>791.0</ele><time>2026-03-22T12:55:17.682Z</time></trkpt><trkpt lat="44.4708935" lon="9.34723"><ele>789.0</ele><time>2026-03-22T12:55:18.682Z</time></trkpt><trkpt lat="44.4709057" lon="9.3474319"><ele>787.0</ele><time>2026-03-22T12:55:19.682Z</time></trkpt><trkpt lat="44.4708907" lon="9.3476143"><ele>785.0</ele><time>2026-03-22T12:55:20.683Z</time></trkpt><trkpt lat="44.4708814" lon="9.3478071"><ele>785.0</ele><time>2026-03-22T12:55:21.682Z</time></trkpt><trkpt lat="44.4708706" lon="9.3479983"><ele>785.0</ele><time>2026-03-22T12:55:22.682Z</time></trkpt><trkpt lat="44.4709959" lon="9.348174"><ele>785.0</ele><time>2026-03-22T12:55:23.682Z</time></trkpt><trkpt lat="44.4710124" lon="9.3483783"><ele>782.6666666666667</ele><time>2026-03-22T12:55:24.682Z</time></trkpt><trkpt lat="44.4710074" lon="9.3486071"><ele>780.3333333333333</ele><time>2026-03-22T12:55:25.682Z</time></trkpt><trkpt lat="44.4709935" lon="9.3488123"><ele>778.0</ele><time>2026-03-22T12:55:26.683Z</time></trkpt><trkpt lat="44.4709745" lon="9.3490149"><ele>776.6666666666666</ele><time>2026-03-22T12:55:27.682Z</time></trkpt><trkpt lat="44.470944" lon="9.349216"><ele>775.3333333333333</ele><time>2026-03-22T12:55:28.682Z</time></trkpt><trkpt lat="44.4708977" lon="9.34942"><ele>774.0</ele><time>2026-03-22T12:55:29.682Z</time></trkpt><trkpt lat="44.4708549" lon="9.349632"><ele>775.6666666666667</ele><time>2026-03-22T12:55:30.682Z</time></trkpt><trkpt lat="44.4707793" lon="9.3498523"><ele>777.3333333333334</ele><time>2026-03-22T12:55:31.682Z</time></trkpt><trkpt lat="44.4707238" lon="9.3500797"><ele>779.0</ele><time>2026-03-22T12:55:32.682Z</time></trkpt><trkpt lat="44.4706533" lon="9.3503464"><ele>781.3333333333334</ele><time>2026-03-22T12:55:33.682Z</time></trkpt><trkpt lat="44.4705875" lon="9.3505705"><ele>783.6666666666667</ele><time>2026-03-22T12:55:34.682Z</time></trkpt><trkpt lat="44.4705049" lon="9.3508034"><ele>786.0</ele><time>2026-03-22T12:55:35.682Z</time></trkpt><trkpt lat="44.4704268" lon="9.350966"><ele>776.0</ele><time>2026-03-22T12:55:36.682Z</time></trkpt><trkpt lat="44.4703768" lon="9.3511629"><ele>766.0</ele><time>2026-03-22T12:55:37.682Z</time></trkpt><trkpt lat="44.4703742" lon="9.3513852"><ele>756.0</ele><time>2026-03-22T12:55:38.682Z</time></trkpt><trkpt lat="44.4703598" lon="9.3516081"><ele>756.0</ele><time>2026-03-22T12:55:39.682Z</time></trkpt><trkpt lat="44.4703909" lon="9.3518299"><ele>756.0</ele><time>2026-03-22T12:55:40.682Z</time></trkpt><trkpt lat="44.4704084" lon="9.3519909"><ele>756.0</ele><time>2026-03-22T12:55:41.682Z</time></trkpt><trkpt lat="44.4704178" lon="9.3521835"><ele>756.0</ele><time>2026-03-22T12:55:42.682Z</time></trkpt><trkpt lat="44.4703831" lon="9.3523702"><ele>757.0</ele><time>2026-03-22T12:55:43.682Z</time></trkpt><trkpt lat="44.4703177" lon="9.3525579"><ele>758.0</ele><time>2026-03-22T12:55:44.683Z</time></trkpt><trkpt lat="44.4702446" lon="9.3527331"><ele>759.0</ele><time>2026-03-22T12:55:45.682Z</time></trkpt><trkpt lat="44.4701674" lon="9.3528945"><ele>760.0</ele><time>2026-03-22T12:55:46.682Z</time></trkpt><trkpt lat="44.4700552" lon="9.3530536"><ele>766.3333333333334</ele><time>2026-03-22T12:55:47.682Z</time></trkpt><trkpt lat="44.4699274" lon="9.3531651"><ele>772.6666666666667</ele><time>2026-03-22T12:55:48.681Z</time></trkpt><trkpt lat="44.4697754" lon="9.353263"><ele>779.0</ele><time>2026-03-22T12:55:49.683Z</time></trkpt><trkpt lat="44.4696183" lon="9.3533231"><ele>769.6666666666667</ele><time>2026-03-22T12:55:50.682Z</time></trkpt><trkpt lat="44.4694644" lon="9.353388"><ele>760.3333333333334</ele><time>2026-03-22T12:55:51.682Z</time></trkpt><trkpt lat="44.4693149" lon="9.3534528"><ele>751.0</ele><time>2026-03-22T12:55:52.682Z</time></trkpt><trkpt lat="44.4691658" lon="9.3535386"><ele>751.0</ele><time>2026-03-22T12:55:53.682Z</time></trkpt><trkpt lat="44.4690587" lon="9.3537239"><ele>751.0</ele><time>2026-03-22T12:55:54.682Z</time></trkpt><trkpt lat="44.4689403" lon="9.3538701"><ele>751.0</ele><time>2026-03-22T12:55:55.682Z</time></trkpt><trkpt lat="44.4687806" lon="9.3540003"><ele>751.6666666666667</ele><time>2026-03-22T12:55:56.682Z</time></trkpt><trkpt lat="44.4686618" lon="9.3541739"><ele>752.3333333333334</ele><time>2026-03-22T12:55:57.682Z</time></trkpt><trkpt lat="44.4684994" lon="9.354244"><ele>753.0</ele><time>2026-03-22T12:55:58.683Z</time></trkpt><trkpt lat="44.4683665" lon="9.3543672"><ele>753.0</ele><time>2026-03-22T12:55:59.682Z</time></trkpt><trkpt lat="44.4682437" lon="9.3544861"><ele>753.0</ele><time>2026-03-22T12:56:00.682Z</time></trkpt><trkpt lat="44.468133" lon="9.3545998"><ele>753.0</ele><time>2026-03-22T12:56:01.682Z</time></trkpt><trkpt lat="44.4680498" lon="9.3547237"><ele>753.0</ele><time>2026-03-22T12:56:02.682Z</time></trkpt><trkpt lat="44.4679608" lon="9.3548398"><ele>748.2</ele><time>2026-03-22T12:56:03.682Z</time></trkpt><trkpt lat="44.4678879" lon="9.3548428"><ele>743.4</ele><time>2026-03-22T12:56:04.682Z</time></trkpt><trkpt lat="44.467849" lon="9.3549718"><ele>738.6</ele><time>2026-03-22T12:56:05.682Z</time></trkpt><trkpt lat="44.4678128" lon="9.3550836"><ele>733.8000000000001</ele><time>2026-03-22T12:56:06.682Z</time></trkpt><trkpt lat="44.4677809" lon="9.3552168"><ele>729.0</ele><time>2026-03-22T12:56:07.682Z</time></trkpt><trkpt lat="44.4677918" lon="9.3553591"><ele>729.0</ele><time>2026-03-22T12:56:08.682Z</time></trkpt><trkpt lat="44.467896" lon="9.3554825"><ele>729.0</ele><time>2026-03-22T12:56:09.682Z</time></trkpt><trkpt lat="44.4679543" lon="9.3555887"><ele>729.0</ele><time>2026-03-22T12:56:10.682Z</time></trkpt><trkpt lat="44.4681922" lon="9.3555424"><ele>741.0</ele><time>2026-03-22T12:56:11.682Z</time></trkpt><trkpt lat="44.4684892" lon="9.3554109"><ele>753.0</ele><time>2026-03-22T12:56:12.682Z</time></trkpt><trkpt lat="44.4686876" lon="9.3553874"><ele>757.0</ele><time>2026-03-22T12:56:13.682Z</time></trkpt><trkpt lat="44.4688669" lon="9.3553787"><ele>761.0</ele><time>2026-03-22T12:56:14.682Z</time></trkpt><trkpt lat="44.4690474" lon="9.3553358"><ele>765.0</ele><time>2026-03-22T12:56:15.682Z</time></trkpt><trkpt lat="44.4691864" lon="9.3553081"><ele>765.0</ele><time>2026-03-22T12:56:16.682Z</time></trkpt><trkpt lat="44.469297" lon="9.3552059"><ele>765.0</ele><time>2026-03-22T12:56:17.682Z</time></trkpt><trkpt lat="44.4694432" lon="9.3551107"><ele>765.0</ele><time>2026-03-22T12:56:18.682Z</time></trkpt><trkpt lat="44.4695541" lon="9.3551127"><ele>765.0</ele><time>2026-03-22T12:56:19.681Z</time></trkpt><trkpt lat="44.4696941" lon="9.3551169"><ele>767.25</ele><time>2026-03-22T12:56:20.682Z</time></trkpt><trkpt lat="44.4698311" lon="9.3551619"><ele>769.5</ele><time>2026-03-22T12:56:21.682Z</time></trkpt><trkpt lat="44.4699667" lon="9.3552124"><ele>771.75</ele><time>2026-03-22T12:56:22.682Z</time></trkpt><trkpt lat="44.4700983" lon="9.355293"><ele>774.0</ele><time>2026-03-22T12:56:23.682Z</time></trkpt><trkpt lat="44.4702288" lon="9.3553781"><ele>774.0</ele><time>2026-03-22T12:56:24.682Z</time></trkpt><trkpt lat="44.4703623" lon="9.3554696"><ele>774.0</ele><time>2026-03-22T12:56:25.682Z</time></trkpt><trkpt lat="44.4704873" lon="9.3555251"><ele>774.0</ele><time>2026-03-22T12:56:26.682Z</time></trkpt><trkpt lat="44.4706283" lon="9.3555815"><ele>774.0</ele><time>2026-03-22T12:56:27.682Z</time></trkpt><trkpt lat="44.4707142" lon="9.3556432"><ele>767.4000000000001</ele><time>2026-03-22T12:56:28.683Z</time></trkpt><trkpt lat="44.4708353" lon="9.3556687"><ele>760.8</ele><time>2026-03-22T12:56:29.682Z</time></trkpt><trkpt lat="44.4709289" lon="9.3556543"><ele>754.2</ele><time>2026-03-22T12:56:30.682Z</time></trkpt><trkpt lat="44.4710236" lon="9.3556351"><ele>747.5999999999999</ele><time>2026-03-22T12:56:31.682Z</time></trkpt><trkpt lat="44.4711197" lon="9.3556382"><ele>741.0</ele><time>2026-03-22T12:56:32.682Z</time></trkpt><trkpt lat="44.4712198" lon="9.3556478"><ele>741.0</ele><time>2026-03-22T12:56:33.683Z</time></trkpt><trkpt lat="44.4713184" lon="9.3556782"><ele>741.0</ele><time>2026-03-22T12:56:34.681Z</time></trkpt><trkpt lat="44.4713611" lon="9.3558362"><ele>741.0</ele><time>2026-03-22T12:56:35.683Z</time></trkpt><trkpt lat="44.4712395" lon="9.3561524"><ele>741.0</ele><time>2026-03-22T12:56:36.682Z</time></trkpt><trkpt lat="44.4712237" lon="9.3563172"><ele>741.0</ele><time>2026-03-22T12:56:37.682Z</time></trkpt><trkpt lat="44.4710782" lon="9.3564995"><ele>741.0</ele><time>2026-03-22T12:56:38.682Z</time></trkpt><trkpt lat="44.47098" lon="9.3566734"><ele>737.6666666666666</ele><time>2026-03-22T12:56:39.682Z</time></trkpt><trkpt lat="44.4708465" lon="9.3568119"><ele>734.3333333333333</ele><time>2026-03-22T12:56:40.682Z</time></trkpt><trkpt lat="44.4707299" lon="9.3569581"><ele>731.0</ele><time>2026-03-22T12:56:41.682Z</time></trkpt><trkpt lat="44.4706053" lon="9.3570796"><ele>732.75</ele><time>2026-03-22T12:56:42.682Z</time></trkpt><trkpt lat="44.4704977" lon="9.357204"><ele>734.5</ele><time>2026-03-22T12:56:43.682Z</time></trkpt><trkpt lat="44.4703974" lon="9.3573353"><ele>736.25</ele><time>2026-03-22T12:56:44.682Z</time></trkpt><trkpt lat="44.4703555" lon="9.3575109"><ele>738.0</ele><time>2026-03-22T12:56:45.682Z</time></trkpt><trkpt lat="44.4703277" lon="9.3576644"><ele>736.25</ele><time>2026-03-22T12:56:46.682Z</time></trkpt><trkpt lat="44.4703618" lon="9.3579273"><ele>734.5</ele><time>2026-03-22T12:56:47.683Z</time></trkpt><trkpt lat="44.4703773" lon="9.358064"><ele>732.75</ele><time>2026-03-22T12:56:48.682Z</time></trkpt><trkpt lat="44.4704182" lon="9.358161"><ele>731.0</ele><time>2026-03-22T12:56:49.682Z</time></trkpt><trkpt lat="44.4705553" lon="9.3581916"><ele>731.0</ele><time>2026-03-22T12:56:50.682Z</time></trkpt><trkpt lat="44.470684" lon="9.3581928"><ele>731.0</ele><time>2026-03-22T12:56:51.683Z</time></trkpt><trkpt lat="44.4708065" lon="9.3581732"><ele>731.0</ele><time>2026-03-22T12:56:52.682Z</time></trkpt><trkpt lat="44.4709045" lon="9.3582175"><ele>731.0</ele><time>2026-03-22T12:56:53.682Z</time></trkpt><trkpt lat="44.4710072" lon="9.3582719"><ele>731.0</ele><time>2026-03-22T12:56:54.682Z</time></trkpt><trkpt lat="44.471072" lon="9.3583865"><ele>731.0</ele><time>2026-03-22T12:56:55.683Z</time></trkpt><trkpt lat="44.471081" lon="9.3585206"><ele>731.0</ele><time>2026-03-22T12:56:56.682Z</time></trkpt><trkpt lat="44.4710631" lon="9.3588968"><ele>728.3333333333333</ele><time>2026-03-22T12:56:57.682Z</time></trkpt><trkpt lat="44.4710432" lon="9.3591321"><ele>725.6666666666666</ele><time>2026-03-22T12:56:58.682Z</time></trkpt><trkpt lat="44.4710093" lon="9.3593358"><ele>723.0</ele><time>2026-03-22T12:56:59.682Z</time></trkpt><trkpt lat="44.4709816" lon="9.359521"><ele>723.0</ele><time>2026-03-22T12:57:00.683Z</time></trkpt><trkpt lat="44.4709501" lon="9.3596819"><ele>723.0</ele><time>2026-03-22T12:57:01.683Z</time></trkpt><trkpt lat="44.4709015" lon="9.3598387"><ele>723.0</ele><time>2026-03-22T12:57:02.682Z</time></trkpt><trkpt lat="44.4709134" lon="9.3600019"><ele>723.0</ele><time>2026-03-22T12:57:03.682Z</time></trkpt><trkpt lat="44.4709798" lon="9.3601282"><ele>722.3333333333334</ele><time>2026-03-22T12:57:04.682Z</time></trkpt><trkpt lat="44.4710904" lon="9.3602288"><ele>721.6666666666667</ele><time>2026-03-22T12:57:05.682Z</time></trkpt><trkpt lat="44.4713904" lon="9.3602647"><ele>721.0</ele><time>2026-03-22T12:57:06.682Z</time></trkpt><trkpt lat="44.471505" lon="9.3603622"><ele>718.3333333333334</ele><time>2026-03-22T12:57:07.683Z</time></trkpt><trkpt lat="44.4716519" lon="9.3604708"><ele>715.6666666666666</ele><time>2026-03-22T12:57:08.682Z</time></trkpt><trkpt lat="44.4717849" lon="9.3606296"><ele>713.0</ele><time>2026-03-22T12:57:09.682Z</time></trkpt><trkpt lat="44.4718141" lon="9.3608499"><ele>713.0</ele><time>2026-03-22T12:57:10.682Z</time></trkpt><trkpt lat="44.4719076" lon="9.3610164"><ele>713.0</ele><time>2026-03-22T12:57:11.682Z</time></trkpt><trkpt lat="44.4720764" lon="9.3610926"><ele>713.0</ele><time>2026-03-22T12:57:12.682Z</time></trkpt><trkpt lat="44.4722185" lon="9.3611615"><ele>715.0</ele><time>2026-03-22T12:57:13.682Z</time></trkpt><trkpt lat="44.4723469" lon="9.3612923"><ele>717.0</ele><time>2026-03-22T12:57:14.682Z</time></trkpt><trkpt lat="44.4724871" lon="9.3614729"><ele>719.0</ele><time>2026-03-22T12:57:15.682Z</time></trkpt><trkpt lat="44.4726219" lon="9.3616917"><ele>719.0</ele><time>2026-03-22T12:57:16.682Z</time></trkpt><trkpt lat="44.4727329" lon="9.3619003"><ele>719.0</ele><time>2026-03-22T12:57:17.682Z</time></trkpt><trkpt lat="44.4728374" lon="9.362126"><ele>719.0</ele><time>2026-03-22T12:57:18.682Z</time></trkpt><trkpt lat="44.4729129" lon="9.3623682"><ele>722.3333333333333</ele><time>2026-03-22T12:57:19.682Z</time></trkpt><trkpt lat="44.4729754" lon="9.3626119"><ele>725.6666666666666</ele><time>2026-03-22T12:57:20.683Z</time></trkpt><trkpt lat="44.4730177" lon="9.3628864"><ele>729.0</ele><time>2026-03-22T12:57:21.682Z</time></trkpt><trkpt lat="44.4730519" lon="9.3631552"><ele>729.0</ele><time>2026-03-22T12:57:22.682Z</time></trkpt><trkpt lat="44.4730931" lon="9.3634071"><ele>729.0</ele><time>2026-03-22T12:57:23.682Z</time></trkpt><trkpt lat="44.4731184" lon="9.3636551"><ele>729.0</ele><time>2026-03-22T12:57:24.682Z</time></trkpt><trkpt lat="44.4731553" lon="9.363859"><ele>727.75</ele><time>2026-03-22T12:57:25.682Z</time></trkpt><trkpt lat="44.4731741" lon="9.3640552"><ele>726.5</ele><time>2026-03-22T12:57:26.682Z</time></trkpt><trkpt lat="44.4731858" lon="9.3642143"><ele>725.25</ele><time>2026-03-22T12:57:27.683Z</time></trkpt><trkpt lat="44.473152" lon="9.3643499"><ele>724.0</ele><time>2026-03-22T12:57:28.682Z</time></trkpt><trkpt lat="44.4730785" lon="9.3644447"><ele>724.0</ele><time>2026-03-22T12:57:29.682Z</time></trkpt><trkpt lat="44.4729846" lon="9.3645184"><ele>724.0</ele><time>2026-03-22T12:57:30.682Z</time></trkpt><trkpt lat="44.4728672" lon="9.364576"><ele>724.0</ele><time>2026-03-22T12:57:31.682Z</time></trkpt><trkpt lat="44.4727256" lon="9.3646181"><ele>724.0</ele><time>2026-03-22T12:57:32.682Z</time></trkpt><trkpt lat="44.4725707" lon="9.3645976"><ele>721.5</ele><time>2026-03-22T12:57:33.682Z</time></trkpt><trkpt lat="44.472438" lon="9.3647027"><ele>719.0</ele><time>2026-03-22T12:57:34.682Z</time></trkpt><trkpt lat="44.4723273" lon="9.3647924"><ele>716.5</ele><time>2026-03-22T12:57:35.682Z</time></trkpt><trkpt lat="44.4722391" lon="9.3649365"><ele>714.0</ele><time>2026-03-22T12:57:36.682Z</time></trkpt><trkpt lat="44.4721517" lon="9.3650985"><ele>711.6666666666666</ele><time>2026-03-22T12:57:37.683Z</time></trkpt><trkpt lat="44.4720844" lon="9.3652983"><ele>709.3333333333333</ele><time>2026-03-22T12:57:38.682Z</time></trkpt><trkpt lat="44.4720368" lon="9.3655246"><ele>707.0</ele><time>2026-03-22T12:57:39.682Z</time></trkpt><trkpt lat="44.4720775" lon="9.3658449"><ele>707.0</ele><time>2026-03-22T12:57:40.682Z</time></trkpt><trkpt lat="44.4720558" lon="9.3660852"><ele>707.0</ele><time>2026-03-22T12:57:41.682Z</time></trkpt><trkpt lat="44.472039" lon="9.3663208"><ele>707.0</ele><time>2026-03-22T12:57:42.682Z</time></trkpt><trkpt lat="44.4720232" lon="9.3665452"><ele>706.3333333333333</ele><time>2026-03-22T12:57:43.682Z</time></trkpt><trkpt lat="44.47201" lon="9.3667648"><ele>705.6666666666666</ele><time>2026-03-22T12:57:44.682Z</time></trkpt><trkpt lat="44.4719917" lon="9.3669789"><ele>705.0</ele><time>2026-03-22T12:57:45.682Z</time></trkpt><trkpt lat="44.4719689" lon="9.3671828"><ele>704.0</ele><time>2026-03-22T12:57:46.683Z</time></trkpt><trkpt lat="44.4719186" lon="9.3673667"><ele>703.0</ele><time>2026-03-22T12:57:47.683Z</time></trkpt><trkpt lat="44.4718496" lon="9.3675235"><ele>702.0</ele><time>2026-03-22T12:57:48.682Z</time></trkpt><trkpt lat="44.4717545" lon="9.3676406"><ele>701.0</ele><time>2026-03-22T12:57:49.682Z</time></trkpt><trkpt lat="44.4716244" lon="9.3677263"><ele>701.0</ele><time>2026-03-22T12:57:50.682Z</time></trkpt><trkpt lat="44.4714889" lon="9.3677734"><ele>701.0</ele><time>2026-03-22T12:57:51.682Z</time></trkpt><trkpt lat="44.4713009" lon="9.3677709"><ele>701.0</ele><time>2026-03-22T12:57:52.682Z</time></trkpt><trkpt lat="44.4711527" lon="9.3677815"><ele>702.75</ele><time>2026-03-22T12:57:53.682Z</time></trkpt><trkpt lat="44.4710108" lon="9.3678512"><ele>704.5</ele><time>2026-03-22T12:57:54.682Z</time></trkpt><trkpt lat="44.470878" lon="9.3679311"><ele>706.25</ele><time>2026-03-22T12:57:55.682Z</time></trkpt><trkpt lat="44.4707589" lon="9.3680532"><ele>708.0</ele><time>2026-03-22T12:57:56.683Z</time></trkpt><trkpt lat="44.4706435" lon="9.3682368"><ele>708.0</ele><time>2026-03-22T12:57:57.682Z</time></trkpt><trkpt lat="44.4704856" lon="9.3683809"><ele>708.0</ele><time>2026-03-22T12:57:58.683Z</time></trkpt><trkpt lat="44.4703394" lon="9.3684679"><ele>708.0</ele><time>2026-03-22T12:57:59.682Z</time></trkpt><trkpt lat="44.4701804" lon="9.3685081"><ele>702.6666666666666</ele><time>2026-03-22T12:58:00.682Z</time></trkpt><trkpt lat="44.4700042" lon="9.3685395"><ele>697.3333333333333</ele><time>2026-03-22T12:58:01.682Z</time></trkpt><trkpt lat="44.4698005" lon="9.368474"><ele>692.0</ele><time>2026-03-22T12:58:02.682Z</time></trkpt><trkpt lat="44.4696122" lon="9.3684767"><ele>690.3333333333333</ele><time>2026-03-22T12:58:03.682Z</time></trkpt><trkpt lat="44.4693997" lon="9.3684913"><ele>688.6666666666666</ele><time>2026-03-22T12:58:04.682Z</time></trkpt><trkpt lat="44.4691948" lon="9.3685073"><ele>687.0</ele><time>2026-03-22T12:58:05.682Z</time></trkpt><trkpt lat="44.4690052" lon="9.3685543"><ele>687.0</ele><time>2026-03-22T12:58:06.682Z</time></trkpt><trkpt lat="44.4688315" lon="9.3686181"><ele>687.0</ele><time>2026-03-22T12:58:07.682Z</time></trkpt><trkpt lat="44.4686642" lon="9.3686727"><ele>687.0</ele><time>2026-03-22T12:58:08.682Z</time></trkpt><trkpt lat="44.4684965" lon="9.3687365"><ele>684.3333333333334</ele><time>2026-03-22T12:58:09.682Z</time></trkpt><trkpt lat="44.4683345" lon="9.3688224"><ele>681.6666666666667</ele><time>2026-03-22T12:58:10.682Z</time></trkpt><trkpt lat="44.4681774" lon="9.3689056"><ele>679.0</ele><time>2026-03-22T12:58:11.682Z</time></trkpt><trkpt lat="44.4680327" lon="9.3689949"><ele>679.6666666666667</ele><time>2026-03-22T12:58:12.682Z</time></trkpt><trkpt lat="44.4678661" lon="9.3690638"><ele>680.3333333333334</ele><time>2026-03-22T12:58:13.682Z</time></trkpt><trkpt lat="44.4677041" lon="9.3691257"><ele>681.0</ele><time>2026-03-22T12:58:14.682Z</time></trkpt><trkpt lat="44.4675459" lon="9.3691871"><ele>681.0</ele><time>2026-03-22T12:58:15.683Z</time></trkpt><trkpt lat="44.4674093" lon="9.3692688"><ele>681.0</ele><time>2026-03-22T12:58:16.682Z</time></trkpt><trkpt lat="44.4672755" lon="9.3694081"><ele>681.0</ele><time>2026-03-22T12:58:17.682Z</time></trkpt><trkpt lat="44.467166" lon="9.369579"><ele>682.3333333333334</ele><time>2026-03-22T12:58:18.682Z</time></trkpt><trkpt lat="44.4670495" lon="9.3697146"><ele>683.6666666666667</ele><time>2026-03-22T12:58:19.682Z</time></trkpt><trkpt lat="44.466885" lon="9.3697099"><ele>685.0</ele><time>2026-03-22T12:58:20.682Z</time></trkpt><trkpt lat="44.4667399" lon="9.3697413"><ele>685.0</ele><time>2026-03-22T12:58:21.682Z</time></trkpt><trkpt lat="44.4665954" lon="9.3697542"><ele>685.0</ele><time>2026-03-22T12:58:22.682Z</time></trkpt><trkpt lat="44.4664011" lon="9.3696621"><ele>685.0</ele><time>2026-03-22T12:58:23.682Z</time></trkpt><trkpt lat="44.4662308" lon="9.369662"><ele>682.75</ele><time>2026-03-22T12:58:24.682Z</time></trkpt><trkpt lat="44.4660557" lon="9.3696719"><ele>680.5</ele><time>2026-03-22T12:58:25.682Z</time></trkpt><trkpt lat="44.4658822" lon="9.3696781"><ele>678.25</ele><time>2026-03-22T12:58:26.682Z</time></trkpt><trkpt lat="44.4658085" lon="9.3697617"><ele>676.0</ele><time>2026-03-22T12:58:27.682Z</time></trkpt><trkpt lat="44.465692" lon="9.3698573"><ele>676.0</ele><time>2026-03-22T12:58:28.682Z</time></trkpt><trkpt lat="44.4655961" lon="9.3699822"><ele>676.0</ele><time>2026-03-22T12:58:29.682Z</time></trkpt><trkpt lat="44.4655528" lon="9.3701999"><ele>676.0</ele><time>2026-03-22T12:58:30.683Z</time></trkpt><trkpt lat="44.4654933" lon="9.3704312"><ele>675.5</ele><time>2026-03-22T12:58:31.682Z</time></trkpt><trkpt lat="44.4654726" lon="9.3706464"><ele>675.0</ele><time>2026-03-22T12:58:32.682Z</time></trkpt><trkpt lat="44.4654376" lon="9.3708637"><ele>674.5</ele><time>2026-03-22T12:58:33.682Z</time></trkpt><trkpt lat="44.4654328" lon="9.3710481"><ele>674.0</ele><time>2026-03-22T12:58:34.682Z</time></trkpt><trkpt lat="44.4653964" lon="9.3711807"><ele>674.0</ele><time>2026-03-22T12:58:35.682Z</time></trkpt><trkpt lat="44.4653179" lon="9.3712968"><ele>674.0</ele><time>2026-03-22T12:58:36.682Z</time></trkpt><trkpt lat="44.46522" lon="9.3713382"><ele>674.0</ele><time>2026-03-22T12:58:37.683Z</time></trkpt><trkpt lat="44.4651105" lon="9.3713395"><ele>674.0</ele><time>2026-03-22T12:58:38.682Z</time></trkpt><trkpt lat="44.4650142" lon="9.37131"><ele>674.0</ele><time>2026-03-22T12:58:39.682Z</time></trkpt><trkpt lat="44.4649007" lon="9.3711805"><ele>674.0</ele><time>2026-03-22T12:58:40.683Z</time></trkpt><trkpt lat="44.4648364" lon="9.3710713"><ele>674.0</ele><time>2026-03-22T12:58:41.682Z</time></trkpt><trkpt lat="44.4647919" lon="9.3709248"><ele>674.0</ele><time>2026-03-22T12:58:42.682Z</time></trkpt><trkpt lat="44.4647689" lon="9.3707915"><ele>674.0</ele><time>2026-03-22T12:58:43.682Z</time></trkpt><trkpt lat="44.4647467" lon="9.3706495"><ele>674.0</ele><time>2026-03-22T12:58:44.682Z</time></trkpt><trkpt lat="44.4647483" lon="9.3705215"><ele>672.0</ele><time>2026-03-22T12:58:45.682Z</time></trkpt><trkpt lat="44.4647313" lon="9.370414"><ele>670.0</ele><time>2026-03-22T12:58:46.682Z</time></trkpt><trkpt lat="44.4646917" lon="9.3703211"><ele>668.0</ele><time>2026-03-22T12:58:47.682Z</time></trkpt><trkpt lat="44.4646494" lon="9.3702397"><ele>666.0</ele><time>2026-03-22T12:58:48.682Z</time></trkpt><trkpt lat="44.4645642" lon="9.3701979"><ele>664.0</ele><time>2026-03-22T12:58:49.682Z</time></trkpt><trkpt lat="44.4644877" lon="9.3701539"><ele>662.0</ele><time>2026-03-22T12:58:50.682Z</time></trkpt><trkpt lat="44.4644062" lon="9.3701501"><ele>661.4000000000001</ele><time>2026-03-22T12:58:51.682Z</time></trkpt><trkpt lat="44.4643138" lon="9.3701819"><ele>660.8000000000001</ele><time>2026-03-22T12:58:52.682Z</time></trkpt><trkpt lat="44.4642289" lon="9.3702145"><ele>660.2</ele><time>2026-03-22T12:58:53.682Z</time></trkpt><trkpt lat="44.464146" lon="9.3702733"><ele>659.6</ele><time>2026-03-22T12:58:54.682Z</time></trkpt><trkpt lat="44.4640718" lon="9.3703556"><ele>659.0</ele><time>2026-03-22T12:58:55.682Z</time></trkpt><trkpt lat="44.4640103" lon="9.3704471"><ele>659.0</ele><time>2026-03-22T12:58:56.683Z</time></trkpt><trkpt lat="44.4639512" lon="9.3705211"><ele>659.0</ele><time>2026-03-22T12:58:57.682Z</time></trkpt><trkpt lat="44.4638995" lon="9.3705955"><ele>659.0</ele><time>2026-03-22T12:58:58.682Z</time></trkpt><trkpt lat="44.4638381" lon="9.3706403"><ele>659.0</ele><time>2026-03-22T12:58:59.682Z</time></trkpt><trkpt lat="44.4637635" lon="9.3706525"><ele>659.0</ele><time>2026-03-22T12:59:00.682Z</time></trkpt><trkpt lat="44.4636944" lon="9.3706252"><ele>659.0</ele><time>2026-03-22T12:59:01.682Z</time></trkpt><trkpt lat="44.4636158" lon="9.3706056"><ele>659.0</ele><time>2026-03-22T12:59:02.682Z</time></trkpt><trkpt lat="44.4635427" lon="9.3705573"><ele>659.0</ele><time>2026-03-22T12:59:03.682Z</time></trkpt><trkpt lat="44.4635256" lon="9.370451"><ele>659.0</ele><time>2026-03-22T12:59:04.682Z</time></trkpt><trkpt lat="44.4636356" lon="9.3703287"><ele>659.0</ele><time>2026-03-22T12:59:05.681Z</time></trkpt><trkpt lat="44.4636913" lon="9.3702516"><ele>659.0</ele><time>2026-03-22T12:59:06.682Z</time></trkpt><trkpt lat="44.4637771" lon="9.3702229"><ele>659.0</ele><time>2026-03-22T12:59:07.682Z</time></trkpt><trkpt lat="44.463877" lon="9.3701627"><ele>659.0</ele><time>2026-03-22T12:59:08.682Z</time></trkpt><trkpt lat="44.4639817" lon="9.3701118"><ele>659.0</ele><time>2026-03-22T12:59:09.682Z</time></trkpt><trkpt lat="44.4641702" lon="9.3700002"><ele>659.0</ele><time>2026-03-22T12:59:10.682Z</time></trkpt><trkpt lat="44.4642923" lon="9.3699429"><ele>659.0</ele><time>2026-03-22T12:59:11.682Z</time></trkpt><trkpt lat="44.4644229" lon="9.3698947"><ele>659.0</ele><time>2026-03-22T12:59:12.682Z</time></trkpt><trkpt lat="44.4645446" lon="9.3698823"><ele>659.0</ele><time>2026-03-22T12:59:13.682Z</time></trkpt><trkpt lat="44.4646503" lon="9.3698831"><ele>659.0</ele><time>2026-03-22T12:59:14.682Z</time></trkpt><trkpt lat="44.4647641" lon="9.3698855"><ele>659.0</ele><time>2026-03-22T12:59:15.682Z</time></trkpt><trkpt lat="44.464856" lon="9.3700611"><ele>659.6</ele><time>2026-03-22T12:59:16.682Z</time></trkpt><trkpt lat="44.4649457" lon="9.3702034"><ele>660.2</ele><time>2026-03-22T12:59:17.682Z</time></trkpt><trkpt lat="44.4650502" lon="9.3702608"><ele>660.8000000000001</ele><time>2026-03-22T12:59:18.682Z</time></trkpt><trkpt lat="44.4651433" lon="9.3702985"><ele>661.4000000000001</ele><time>2026-03-22T12:59:19.682Z</time></trkpt><trkpt lat="44.4652062" lon="9.3702818"><ele>662.0</ele><time>2026-03-22T12:59:20.682Z</time></trkpt><trkpt lat="44.4652984" lon="9.3702663"><ele>662.0</ele><time>2026-03-22T12:59:21.682Z</time></trkpt><trkpt lat="44.4653725" lon="9.3701646"><ele>662.0</ele><time>2026-03-22T12:59:22.682Z</time></trkpt><trkpt lat="44.4654198" lon="9.3700294"><ele>662.0</ele><time>2026-03-22T12:59:23.682Z</time></trkpt><trkpt lat="44.4654718" lon="9.3698497"><ele>662.0</ele><time>2026-03-22T12:59:24.682Z</time></trkpt><trkpt lat="44.4653334" lon="9.3695645"><ele>661.75</ele><time>2026-03-22T12:59:25.682Z</time></trkpt><trkpt lat="44.4653372" lon="9.3693856"><ele>661.5</ele><time>2026-03-22T12:59:26.682Z</time></trkpt><trkpt lat="44.4654082" lon="9.3692221"><ele>661.25</ele><time>2026-03-22T12:59:27.682Z</time></trkpt><trkpt lat="44.4655505" lon="9.3691783"><ele>661.0</ele><time>2026-03-22T12:59:28.682Z</time></trkpt><trkpt lat="44.4656884" lon="9.3690618"><ele>661.0</ele><time>2026-03-22T12:59:29.682Z</time></trkpt><trkpt lat="44.4658258" lon="9.3689222"><ele>661.0</ele><time>2026-03-22T12:59:30.682Z</time></trkpt><trkpt lat="44.4659413" lon="9.3687837"><ele>661.0</ele><time>2026-03-22T12:59:31.682Z</time></trkpt><trkpt lat="44.4660405" lon="9.3686431"><ele>656.3333333333334</ele><time>2026-03-22T12:59:32.682Z</time></trkpt><trkpt lat="44.4661383" lon="9.3684966"><ele>651.6666666666666</ele><time>2026-03-22T12:59:33.682Z</time></trkpt><trkpt lat="44.4661514" lon="9.3682062"><ele>647.0</ele><time>2026-03-22T12:59:34.682Z</time></trkpt><trkpt lat="44.4661645" lon="9.3679883"><ele>644.3333333333333</ele><time>2026-03-22T12:59:35.682Z</time></trkpt><trkpt lat="44.4661866" lon="9.3677668"><ele>641.6666666666666</ele><time>2026-03-22T12:59:36.682Z</time></trkpt><trkpt lat="44.4662109" lon="9.3675609"><ele>639.0</ele><time>2026-03-22T12:59:37.682Z</time></trkpt><trkpt lat="44.4662405" lon="9.3673598"><ele>639.0</ele><time>2026-03-22T12:59:38.682Z</time></trkpt><trkpt lat="44.466266" lon="9.3672024"><ele>639.0</ele><time>2026-03-22T12:59:39.682Z</time></trkpt><trkpt lat="44.4663103" lon="9.3670471"><ele>639.0</ele><time>2026-03-22T12:59:40.682Z</time></trkpt><trkpt lat="44.4663566" lon="9.3669079"><ele>639.0</ele><time>2026-03-22T12:59:41.682Z</time></trkpt><trkpt lat="44.4663991" lon="9.3667928"><ele>639.0</ele><time>2026-03-22T12:59:42.682Z</time></trkpt><trkpt lat="44.466464" lon="9.3667064"><ele>639.3333333333334</ele><time>2026-03-22T12:59:43.682Z</time></trkpt><trkpt lat="44.4665484" lon="9.3666435"><ele>639.6666666666666</ele><time>2026-03-22T12:59:44.682Z</time></trkpt><trkpt lat="44.4666353" lon="9.3665919"><ele>640.0</ele><time>2026-03-22T12:59:45.682Z</time></trkpt><trkpt lat="44.4667144" lon="9.3665464"><ele>640.3333333333333</ele><time>2026-03-22T12:59:46.682Z</time></trkpt><trkpt lat="44.4667858" lon="9.3665041"><ele>640.6666666666666</ele><time>2026-03-22T12:59:47.683Z</time></trkpt><trkpt lat="44.4668532" lon="9.366449"><ele>641.0</ele><time>2026-03-22T12:59:48.682Z</time></trkpt><trkpt lat="44.466896" lon="9.3663651"><ele>638.3333333333333</ele><time>2026-03-22T12:59:49.682Z</time></trkpt><trkpt lat="44.4668986" lon="9.3662492"><ele>635.6666666666666</ele><time>2026-03-22T12:59:50.682Z</time></trkpt><trkpt lat="44.4668751" lon="9.3661389"><ele>633.0</ele><time>2026-03-22T12:59:51.682Z</time></trkpt><trkpt lat="44.4668301" lon="9.3660501"><ele>630.3333333333334</ele><time>2026-03-22T12:59:52.682Z</time></trkpt><trkpt lat="44.4667722" lon="9.3659917"><ele>627.6666666666667</ele><time>2026-03-22T12:59:53.682Z</time></trkpt><trkpt lat="44.4667017" lon="9.3659441"><ele>625.0</ele><time>2026-03-22T12:59:54.682Z</time></trkpt><trkpt lat="44.4666137" lon="9.3659523"><ele>625.0</ele><time>2026-03-22T12:59:55.682Z</time></trkpt><trkpt lat="44.4665164" lon="9.3660499"><ele>625.0</ele><time>2026-03-22T12:59:56.682Z</time></trkpt><trkpt lat="44.4664283" lon="9.3661358"><ele>625.0</ele><time>2026-03-22T12:59:57.682Z</time></trkpt><trkpt lat="44.4663449" lon="9.3662375"><ele>625.0</ele><time>2026-03-22T12:59:58.682Z</time></trkpt><trkpt lat="44.4662711" lon="9.3663657"><ele>625.75</ele><time>2026-03-22T12:59:59.683Z</time></trkpt><trkpt lat="44.4662098" lon="9.3665087"><ele>626.5</ele><time>2026-03-22T13:00:00.682Z</time></trkpt><trkpt lat="44.4661531" lon="9.3666689"><ele>627.25</ele><time>2026-03-22T13:00:01.682Z</time></trkpt><trkpt lat="44.4660887" lon="9.3668498"><ele>628.0</ele><time>2026-03-22T13:00:02.682Z</time></trkpt><trkpt lat="44.466021" lon="9.3670733"><ele>630.75</ele><time>2026-03-22T13:00:03.682Z</time></trkpt><trkpt lat="44.4659665" lon="9.3672779"><ele>633.5</ele><time>2026-03-22T13:00:04.683Z</time></trkpt><trkpt lat="44.465908" lon="9.3674559"><ele>636.25</ele><time>2026-03-22T13:00:05.682Z</time></trkpt><trkpt lat="44.465822" lon="9.3675897"><ele>639.0</ele><time>2026-03-22T13:00:06.682Z</time></trkpt><trkpt lat="44.4657533" lon="9.3677392"><ele>639.0</ele><time>2026-03-22T13:00:07.682Z</time></trkpt><trkpt lat="44.4656668" lon="9.367883"><ele>639.0</ele><time>2026-03-22T13:00:08.682Z</time></trkpt><trkpt lat="44.4654545" lon="9.3677978"><ele>639.0</ele><time>2026-03-22T13:00:09.682Z</time></trkpt><trkpt lat="44.4653188" lon="9.3677873"><ele>634.6666666666666</ele><time>2026-03-22T13:00:10.682Z</time></trkpt><trkpt lat="44.4651871" lon="9.3677932"><ele>630.3333333333333</ele><time>2026-03-22T13:00:11.682Z</time></trkpt><trkpt lat="44.4650506" lon="9.3676171"><ele>626.0</ele><time>2026-03-22T13:00:12.682Z</time></trkpt><trkpt lat="44.4649317" lon="9.3674865"><ele>626.0</ele><time>2026-03-22T13:00:13.682Z</time></trkpt><trkpt lat="44.4648322" lon="9.3673492"><ele>626.0</ele><time>2026-03-22T13:00:14.682Z</time></trkpt><trkpt lat="44.4647491" lon="9.3672145"><ele>626.0</ele><time>2026-03-22T13:00:15.682Z</time></trkpt><trkpt lat="44.4646929" lon="9.3670778"><ele>626.0</ele><time>2026-03-22T13:00:16.683Z</time></trkpt><trkpt lat="44.4646752" lon="9.3669365"><ele>624.6</ele><time>2026-03-22T13:00:17.682Z</time></trkpt><trkpt lat="44.4646982" lon="9.3668189"><ele>623.2</ele><time>2026-03-22T13:00:18.682Z</time></trkpt><trkpt lat="44.4647649" lon="9.366739"><ele>621.8</ele><time>2026-03-22T13:00:19.682Z</time></trkpt><trkpt lat="44.4648472" lon="9.3667238"><ele>620.4</ele><time>2026-03-22T13:00:20.682Z</time></trkpt><trkpt lat="44.4649213" lon="9.3667782"><ele>619.0</ele><time>2026-03-22T13:00:21.682Z</time></trkpt><trkpt lat="44.4649973" lon="9.3668988"><ele>619.0</ele><time>2026-03-22T13:00:22.682Z</time></trkpt><trkpt lat="44.4650705" lon="9.367"><ele>619.0</ele><time>2026-03-22T13:00:23.682Z</time></trkpt><trkpt lat="44.4651575" lon="9.3670707"><ele>619.0</ele><time>2026-03-22T13:00:24.682Z</time></trkpt><trkpt lat="44.4652536" lon="9.3671151"><ele>619.0</ele><time>2026-03-22T13:00:25.682Z</time></trkpt><trkpt lat="44.4653289" lon="9.367023"><ele>619.0</ele><time>2026-03-22T13:00:26.682Z</time></trkpt><trkpt lat="44.4653982" lon="9.3669538"><ele>619.0</ele><time>2026-03-22T13:00:27.682Z</time></trkpt><trkpt lat="44.4654158" lon="9.3667941"><ele>619.0</ele><time>2026-03-22T13:00:28.682Z</time></trkpt><trkpt lat="44.4654285" lon="9.3666322"><ele>619.0</ele><time>2026-03-22T13:00:29.683Z</time></trkpt><trkpt lat="44.4653724" lon="9.3664204"><ele>619.0</ele><time>2026-03-22T13:00:30.682Z</time></trkpt><trkpt lat="44.4654007" lon="9.3662627"><ele>619.0</ele><time>2026-03-22T13:00:31.682Z</time></trkpt><trkpt lat="44.4654567" lon="9.3661126"><ele>619.0</ele><time>2026-03-22T13:00:32.682Z</time></trkpt><trkpt lat="44.4655278" lon="9.3659634"><ele>619.0</ele><time>2026-03-22T13:00:33.682Z</time></trkpt><trkpt lat="44.4655764" lon="9.3657997"><ele>619.0</ele><time>2026-03-22T13:00:34.682Z</time></trkpt><trkpt lat="44.4655553" lon="9.3656128"><ele>616.0</ele><time>2026-03-22T13:00:35.682Z</time></trkpt><trkpt lat="44.4655347" lon="9.3654149"><ele>613.0</ele><time>2026-03-22T13:00:36.682Z</time></trkpt><trkpt lat="44.4655437" lon="9.3652376"><ele>610.0</ele><time>2026-03-22T13:00:37.682Z</time></trkpt><trkpt lat="44.4655832" lon="9.3650883"><ele>607.0</ele><time>2026-03-22T13:00:38.682Z</time></trkpt><trkpt lat="44.4656518" lon="9.364976"><ele>607.0</ele><time>2026-03-22T13:00:39.682Z</time></trkpt><trkpt lat="44.465736" lon="9.3649181"><ele>607.0</ele><time>2026-03-22T13:00:40.682Z</time></trkpt><trkpt lat="44.4658531" lon="9.3649217"><ele>607.0</ele><time>2026-03-22T13:00:41.682Z</time></trkpt><trkpt lat="44.4660126" lon="9.3649596"><ele>607.0</ele><time>2026-03-22T13:00:42.682Z</time></trkpt><trkpt lat="44.4661893" lon="9.3650101"><ele>606.6666666666667</ele><time>2026-03-22T13:00:43.682Z</time></trkpt><trkpt lat="44.4663637" lon="9.3650621"><ele>606.3333333333334</ele><time>2026-03-22T13:00:44.682Z</time></trkpt><trkpt lat="44.4665332" lon="9.3651178"><ele>606.0</ele><time>2026-03-22T13:00:45.682Z</time></trkpt><trkpt lat="44.4666869" lon="9.3651562"><ele>606.0</ele><time>2026-03-22T13:00:46.682Z</time></trkpt><trkpt lat="44.4668307" lon="9.3651932"><ele>606.0</ele><time>2026-03-22T13:00:47.682Z</time></trkpt><trkpt lat="44.4669702" lon="9.3652089"><ele>606.0</ele><time>2026-03-22T13:00:48.682Z</time></trkpt><trkpt lat="44.4671088" lon="9.3651787"><ele>606.0</ele><time>2026-03-22T13:00:49.682Z</time></trkpt><trkpt lat="44.4672334" lon="9.3651356"><ele>605.25</ele><time>2026-03-22T13:00:50.682Z</time></trkpt><trkpt lat="44.4673545" lon="9.3651017"><ele>604.5</ele><time>2026-03-22T13:00:51.682Z</time></trkpt><trkpt lat="44.4674703" lon="9.3650571"><ele>603.75</ele><time>2026-03-22T13:00:52.682Z</time></trkpt><trkpt lat="44.4675736" lon="9.3649924"><ele>603.0</ele><time>2026-03-22T13:00:53.682Z</time></trkpt><trkpt lat="44.4676618" lon="9.3649051"><ele>603.0</ele><time>2026-03-22T13:00:54.682Z</time></trkpt><trkpt lat="44.4677504" lon="9.3648188"><ele>603.0</ele><time>2026-03-22T13:00:55.682Z</time></trkpt><trkpt lat="44.4677841" lon="9.3647176"><ele>603.0</ele><time>2026-03-22T13:00:56.682Z</time></trkpt><trkpt lat="44.467808" lon="9.3645643"><ele>603.0</ele><time>2026-03-22T13:00:57.682Z</time></trkpt><trkpt lat="44.4677373" lon="9.364421"><ele>603.0</ele><time>2026-03-22T13:00:58.682Z</time></trkpt><trkpt lat="44.4675481" lon="9.3644362"><ele>603.0</ele><time>2026-03-22T13:00:59.682Z</time></trkpt><trkpt lat="44.4674736" lon="9.3643931"><ele>603.0</ele><time>2026-03-22T13:01:00.682Z</time></trkpt><trkpt lat="44.4673563" lon="9.3644211"><ele>603.0</ele><time>2026-03-22T13:01:01.682Z</time></trkpt><trkpt lat="44.4672812" lon="9.36457"><ele>603.0</ele><time>2026-03-22T13:01:02.682Z</time></trkpt><trkpt lat="44.4671611" lon="9.3646992"><ele>603.75</ele><time>2026-03-22T13:01:03.682Z</time></trkpt><trkpt lat="44.4670652" lon="9.3648214"><ele>604.5</ele><time>2026-03-22T13:01:04.682Z</time></trkpt><trkpt lat="44.4669525" lon="9.3649201"><ele>605.25</ele><time>2026-03-22T13:01:05.683Z</time></trkpt><trkpt lat="44.4668482" lon="9.3649686"><ele>606.0</ele><time>2026-03-22T13:01:06.681Z</time></trkpt><trkpt lat="44.4667244" lon="9.3649039"><ele>606.0</ele><time>2026-03-22T13:01:07.682Z</time></trkpt><trkpt lat="44.4665766" lon="9.3648946"><ele>606.0</ele><time>2026-03-22T13:01:08.682Z</time></trkpt><trkpt lat="44.4663688" lon="9.3647142"><ele>606.0</ele><time>2026-03-22T13:01:09.682Z</time></trkpt><trkpt lat="44.4661883" lon="9.3646167"><ele>599.0</ele><time>2026-03-22T13:01:10.682Z</time></trkpt><trkpt lat="44.466022" lon="9.3645348"><ele>592.0</ele><time>2026-03-22T13:01:11.682Z</time></trkpt><trkpt lat="44.4658473" lon="9.364465"><ele>585.0</ele><time>2026-03-22T13:01:12.682Z</time></trkpt><trkpt lat="44.4656936" lon="9.3644028"><ele>585.0</ele><time>2026-03-22T13:01:13.682Z</time></trkpt><trkpt lat="44.4655021" lon="9.3644047"><ele>585.0</ele><time>2026-03-22T13:01:14.682Z</time></trkpt><trkpt lat="44.4652846" lon="9.3644057"><ele>585.0</ele><time>2026-03-22T13:01:15.682Z</time></trkpt><trkpt lat="44.4650843" lon="9.3644062"><ele>583.6666666666666</ele><time>2026-03-22T13:01:16.682Z</time></trkpt><trkpt lat="44.4649077" lon="9.3644314"><ele>582.3333333333333</ele><time>2026-03-22T13:01:17.682Z</time></trkpt><trkpt lat="44.4647485" lon="9.364437"><ele>581.0</ele><time>2026-03-22T13:01:18.682Z</time></trkpt><trkpt lat="44.4646253" lon="9.3644513"><ele>580.75</ele><time>2026-03-22T13:01:19.682Z</time></trkpt><trkpt lat="44.4644996" lon="9.3645036"><ele>580.5</ele><time>2026-03-22T13:01:20.683Z</time></trkpt><trkpt lat="44.4643798" lon="9.3645393"><ele>580.25</ele><time>2026-03-22T13:01:21.683Z</time></trkpt><trkpt lat="44.4642537" lon="9.3646314"><ele>580.0</ele><time>2026-03-22T13:01:22.682Z</time></trkpt><trkpt lat="44.4641386" lon="9.3648969"><ele>580.0</ele><time>2026-03-22T13:01:23.682Z</time></trkpt><trkpt lat="44.4640313" lon="9.3650881"><ele>580.0</ele><time>2026-03-22T13:01:24.682Z</time></trkpt><trkpt lat="44.4639324" lon="9.3652669"><ele>580.0</ele><time>2026-03-22T13:01:25.682Z</time></trkpt><trkpt lat="44.4638468" lon="9.3654209"><ele>581.0</ele><time>2026-03-22T13:01:26.682Z</time></trkpt><trkpt lat="44.4637684" lon="9.3655386"><ele>582.0</ele><time>2026-03-22T13:01:27.682Z</time></trkpt><trkpt lat="44.4636125" lon="9.3655402"><ele>583.0</ele><time>2026-03-22T13:01:28.682Z</time></trkpt><trkpt lat="44.4634753" lon="9.3655385"><ele>584.0</ele><time>2026-03-22T13:01:29.682Z</time></trkpt><trkpt lat="44.4633298" lon="9.3655071"><ele>584.0</ele><time>2026-03-22T13:01:30.682Z</time></trkpt><trkpt lat="44.4631975" lon="9.3654863"><ele>584.0</ele><time>2026-03-22T13:01:31.683Z</time></trkpt><trkpt lat="44.463081" lon="9.3654976"><ele>584.0</ele><time>2026-03-22T13:01:32.683Z</time></trkpt><trkpt lat="44.4629774" lon="9.3655773"><ele>584.0</ele><time>2026-03-22T13:01:33.682Z</time></trkpt><trkpt lat="44.4628687" lon="9.36566"><ele>578.3333333333333</ele><time>2026-03-22T13:01:34.682Z</time></trkpt><trkpt lat="44.462755" lon="9.3658622"><ele>572.6666666666666</ele><time>2026-03-22T13:01:35.682Z</time></trkpt><trkpt lat="44.4626133" lon="9.3659883"><ele>567.0</ele><time>2026-03-22T13:01:36.682Z</time></trkpt><trkpt lat="44.4624557" lon="9.3661226"><ele>567.0</ele><time>2026-03-22T13:01:37.683Z</time></trkpt><trkpt lat="44.4622585" lon="9.3661993"><ele>567.0</ele><time>2026-03-22T13:01:38.682Z</time></trkpt><trkpt lat="44.4620765" lon="9.3662926"><ele>567.0</ele><time>2026-03-22T13:01:39.682Z</time></trkpt><trkpt lat="44.461897" lon="9.3663783"><ele>569.6666666666666</ele><time>2026-03-22T13:01:40.683Z</time></trkpt><trkpt lat="44.4617099" lon="9.3664493"><ele>572.3333333333333</ele><time>2026-03-22T13:01:41.682Z</time></trkpt><trkpt lat="44.4615042" lon="9.3664944"><ele>575.0</ele><time>2026-03-22T13:01:42.682Z</time></trkpt><trkpt lat="44.4613145" lon="9.3665468"><ele>575.6666666666666</ele><time>2026-03-22T13:01:43.682Z</time></trkpt><trkpt lat="44.4611283" lon="9.3665499"><ele>576.3333333333334</ele><time>2026-03-22T13:01:44.682Z</time></trkpt><trkpt lat="44.4609668" lon="9.3665247"><ele>577.0</ele><time>2026-03-22T13:01:45.682Z</time></trkpt><trkpt lat="44.4608069" lon="9.366505"><ele>577.0</ele><time>2026-03-22T13:01:46.682Z</time></trkpt><trkpt lat="44.460653" lon="9.3663891"><ele>577.0</ele><time>2026-03-22T13:01:47.682Z</time></trkpt><trkpt lat="44.4604836" lon="9.3662984"><ele>577.0</ele><time>2026-03-22T13:01:48.682Z</time></trkpt><trkpt lat="44.4602869" lon="9.3662553"><ele>568.6666666666667</ele><time>2026-03-22T13:01:49.682Z</time></trkpt><trkpt lat="44.460101" lon="9.366213"><ele>560.3333333333334</ele><time>2026-03-22T13:01:50.682Z</time></trkpt><trkpt lat="44.4599225" lon="9.3661666"><ele>552.0</ele><time>2026-03-22T13:01:51.682Z</time></trkpt><trkpt lat="44.4597772" lon="9.3661248"><ele>552.0</ele><time>2026-03-22T13:01:52.682Z</time></trkpt><trkpt lat="44.4596235" lon="9.3660711"><ele>552.0</ele><time>2026-03-22T13:01:53.682Z</time></trkpt><trkpt lat="44.4594709" lon="9.3659395"><ele>552.0</ele><time>2026-03-22T13:01:54.682Z</time></trkpt><trkpt lat="44.4593438" lon="9.3658308"><ele>551.0</ele><time>2026-03-22T13:01:55.682Z</time></trkpt><trkpt lat="44.4592519" lon="9.3657081"><ele>550.0</ele><time>2026-03-22T13:01:56.683Z</time></trkpt><trkpt lat="44.4591541" lon="9.365602"><ele>549.0</ele><time>2026-03-22T13:01:57.682Z</time></trkpt><trkpt lat="44.4590684" lon="9.3655218"><ele>548.0</ele><time>2026-03-22T13:01:58.682Z</time></trkpt><trkpt lat="44.45898" lon="9.3654564"><ele>548.0</ele><time>2026-03-22T13:01:59.682Z</time></trkpt><trkpt lat="44.458887" lon="9.3654435"><ele>548.0</ele><time>2026-03-22T13:02:00.682Z</time></trkpt><trkpt lat="44.45881" lon="9.3655116"><ele>548.0</ele><time>2026-03-22T13:02:01.682Z</time></trkpt><trkpt lat="44.4587558" lon="9.3655981"><ele>548.0</ele><time>2026-03-22T13:02:02.682Z</time></trkpt><trkpt lat="44.4587357" lon="9.3657014"><ele>548.0</ele><time>2026-03-22T13:02:03.682Z</time></trkpt><trkpt lat="44.4587516" lon="9.3658377"><ele>548.0</ele><time>2026-03-22T13:02:04.683Z</time></trkpt><trkpt lat="44.458912" lon="9.3660998"><ele>548.0</ele><time>2026-03-22T13:02:05.682Z</time></trkpt><trkpt lat="44.4589926" lon="9.3663399"><ele>548.0</ele><time>2026-03-22T13:02:06.682Z</time></trkpt><trkpt lat="44.4590611" lon="9.3665399"><ele>548.0</ele><time>2026-03-22T13:02:07.682Z</time></trkpt><trkpt lat="44.4590812" lon="9.3667868"><ele>548.3333333333333</ele><time>2026-03-22T13:02:08.682Z</time></trkpt><trkpt lat="44.4591223" lon="9.3670146"><ele>548.6666666666666</ele><time>2026-03-22T13:02:09.683Z</time></trkpt><trkpt lat="44.4591167" lon="9.3672591"><ele>549.0</ele><time>2026-03-22T13:02:10.682Z</time></trkpt><trkpt lat="44.4591313" lon="9.36752"><ele>549.0</ele><time>2026-03-22T13:02:11.682Z</time></trkpt><trkpt lat="44.4591542" lon="9.3677542"><ele>549.0</ele><time>2026-03-22T13:02:12.682Z</time></trkpt><trkpt lat="44.4592286" lon="9.3679609"><ele>549.0</ele><time>2026-03-22T13:02:13.683Z</time></trkpt><trkpt lat="44.4592594" lon="9.3681386"><ele>548.25</ele><time>2026-03-22T13:02:14.682Z</time></trkpt><trkpt lat="44.4592432" lon="9.3682947"><ele>547.5</ele><time>2026-03-22T13:02:15.682Z</time></trkpt><trkpt lat="44.4592708" lon="9.3684555"><ele>546.75</ele><time>2026-03-22T13:02:16.682Z</time></trkpt><trkpt lat="44.4591652" lon="9.3685849"><ele>546.0</ele><time>2026-03-22T13:02:17.682Z</time></trkpt><trkpt lat="44.4591532" lon="9.3687184"><ele>546.0</ele><time>2026-03-22T13:02:18.682Z</time></trkpt><trkpt lat="44.4591231" lon="9.3688383"><ele>546.0</ele><time>2026-03-22T13:02:19.682Z</time></trkpt><trkpt lat="44.4591008" lon="9.3689558"><ele>546.0</ele><time>2026-03-22T13:02:20.682Z</time></trkpt><trkpt lat="44.4589358" lon="9.3688359"><ele>546.0</ele><time>2026-03-22T13:02:21.682Z</time></trkpt><trkpt lat="44.4587946" lon="9.3687527"><ele>543.6666666666666</ele><time>2026-03-22T13:02:22.682Z</time></trkpt><trkpt lat="44.458599" lon="9.3685202"><ele>541.3333333333333</ele><time>2026-03-22T13:02:23.682Z</time></trkpt><trkpt lat="44.458505" lon="9.3683642"><ele>539.0</ele><time>2026-03-22T13:02:24.682Z</time></trkpt><trkpt lat="44.4583653" lon="9.3683139"><ele>539.0</ele><time>2026-03-22T13:02:25.682Z</time></trkpt><trkpt lat="44.4582279" lon="9.368295"><ele>539.0</ele><time>2026-03-22T13:02:26.682Z</time></trkpt><trkpt lat="44.4580939" lon="9.368269"><ele>539.0</ele><time>2026-03-22T13:02:27.682Z</time></trkpt><trkpt lat="44.457973" lon="9.3681779"><ele>539.0</ele><time>2026-03-22T13:02:28.682Z</time></trkpt><trkpt lat="44.4578707" lon="9.3680549"><ele>533.5</ele><time>2026-03-22T13:02:29.682Z</time></trkpt><trkpt lat="44.457775" lon="9.3679518"><ele>528.0</ele><time>2026-03-22T13:02:30.682Z</time></trkpt><trkpt lat="44.4576697" lon="9.3679278"><ele>522.5</ele><time>2026-03-22T13:02:31.682Z</time></trkpt><trkpt lat="44.4575306" lon="9.3679363"><ele>517.0</ele><time>2026-03-22T13:02:32.682Z</time></trkpt><trkpt lat="44.4573981" lon="9.3679402"><ele>517.0</ele><time>2026-03-22T13:02:33.682Z</time></trkpt><trkpt lat="44.4572663" lon="9.3678677"><ele>517.0</ele><time>2026-03-22T13:02:34.682Z</time></trkpt><trkpt lat="44.4571255" lon="9.367819"><ele>517.0</ele><time>2026-03-22T13:02:35.682Z</time></trkpt><trkpt lat="44.4570065" lon="9.367668"><ele>517.0</ele><time>2026-03-22T13:02:36.682Z</time></trkpt><trkpt lat="44.4568989" lon="9.3675878"><ele>516.25</ele><time>2026-03-22T13:02:37.682Z</time></trkpt><trkpt lat="44.4567981" lon="9.3676125"><ele>515.5</ele><time>2026-03-22T13:02:38.682Z</time></trkpt><trkpt lat="44.4566655" lon="9.3675969"><ele>514.75</ele><time>2026-03-22T13:02:39.682Z</time></trkpt><trkpt lat="44.456524" lon="9.3676922"><ele>514.0</ele><time>2026-03-22T13:02:40.682Z</time></trkpt><trkpt lat="44.4563886" lon="9.3677165"><ele>517.75</ele><time>2026-03-22T13:02:41.682Z</time></trkpt><trkpt lat="44.4562495" lon="9.3677251"><ele>521.5</ele><time>2026-03-22T13:02:42.682Z</time></trkpt><trkpt lat="44.4561498" lon="9.3675944"><ele>525.25</ele><time>2026-03-22T13:02:43.682Z</time></trkpt><trkpt lat="44.4560281" lon="9.3675242"><ele>529.0</ele><time>2026-03-22T13:02:44.683Z</time></trkpt><trkpt lat="44.4559312" lon="9.367375"><ele>525.0</ele><time>2026-03-22T13:02:45.682Z</time></trkpt><trkpt lat="44.455827" lon="9.3671589"><ele>521.0</ele><time>2026-03-22T13:02:46.682Z</time></trkpt><trkpt lat="44.4558496" lon="9.3668394"><ele>517.0</ele><time>2026-03-22T13:02:47.682Z</time></trkpt><trkpt lat="44.4557704" lon="9.3665699"><ele>517.0</ele><time>2026-03-22T13:02:48.682Z</time></trkpt><trkpt lat="44.4556356" lon="9.3663677"><ele>517.0</ele><time>2026-03-22T13:02:49.683Z</time></trkpt><trkpt lat="44.4555235" lon="9.3661555"><ele>517.0</ele><time>2026-03-22T13:02:50.682Z</time></trkpt><trkpt lat="44.4554187" lon="9.3659743"><ele>516.25</ele><time>2026-03-22T13:02:51.682Z</time></trkpt><trkpt lat="44.4553331" lon="9.3658002"><ele>515.5</ele><time>2026-03-22T13:02:52.682Z</time></trkpt><trkpt lat="44.4552468" lon="9.3656435"><ele>514.75</ele><time>2026-03-22T13:02:53.682Z</time></trkpt><trkpt lat="44.4551673" lon="9.365489"><ele>514.0</ele><time>2026-03-22T13:02:54.682Z</time></trkpt><trkpt lat="44.4550894" lon="9.3653368"><ele>511.5</ele><time>2026-03-22T13:02:55.682Z</time></trkpt><trkpt lat="44.4550142" lon="9.3651922"><ele>509.0</ele><time>2026-03-22T13:02:56.682Z</time></trkpt><trkpt lat="44.4549249" lon="9.365072"><ele>506.5</ele><time>2026-03-22T13:02:57.683Z</time></trkpt><trkpt lat="44.4548265" lon="9.3649791"><ele>504.0</ele><time>2026-03-22T13:02:58.682Z</time></trkpt><trkpt lat="44.4547188" lon="9.36494"><ele>504.0</ele><time>2026-03-22T13:02:59.682Z</time></trkpt><trkpt lat="44.4546272" lon="9.3649102"><ele>504.0</ele><time>2026-03-22T13:03:00.683Z</time></trkpt><trkpt lat="44.4545294" lon="9.3648856"><ele>504.0</ele><time>2026-03-22T13:03:01.682Z</time></trkpt><trkpt lat="44.4544417" lon="9.3651707"><ele>504.0</ele><time>2026-03-22T13:03:03.682Z</time></trkpt><trkpt lat="44.4543661" lon="9.365386"><ele>503.0</ele><time>2026-03-22T13:03:04.682Z</time></trkpt><trkpt lat="44.454294" lon="9.3655676"><ele>502.0</ele><time>2026-03-22T13:03:05.682Z</time></trkpt><trkpt lat="44.4541644" lon="9.3657387"><ele>501.0</ele><time>2026-03-22T13:03:06.682Z</time></trkpt><trkpt lat="44.4540613" lon="9.3658811"><ele>501.0</ele><time>2026-03-22T13:03:07.682Z</time></trkpt><trkpt lat="44.4539619" lon="9.3659901"><ele>501.0</ele><time>2026-03-22T13:03:08.682Z</time></trkpt><trkpt lat="44.453869" lon="9.3660212"><ele>501.0</ele><time>2026-03-22T13:03:09.683Z</time></trkpt><trkpt lat="44.4537725" lon="9.3660927"><ele>501.0</ele><time>2026-03-22T13:03:10.682Z</time></trkpt><trkpt lat="44.453707" lon="9.3661083"><ele>501.0</ele><time>2026-03-22T13:03:11.682Z</time></trkpt><trkpt lat="44.4535864" lon="9.3660665"><ele>498.0</ele><time>2026-03-22T13:03:12.682Z</time></trkpt><trkpt lat="44.4535041" lon="9.3658048"><ele>495.0</ele><time>2026-03-22T13:03:13.682Z</time></trkpt><trkpt lat="44.4534242" lon="9.3656389"><ele>492.0</ele><time>2026-03-22T13:03:14.682Z</time></trkpt><trkpt lat="44.4533799" lon="9.3655159"><ele>489.0</ele><time>2026-03-22T13:03:15.682Z</time></trkpt><trkpt lat="44.4535636" lon="9.365407"><ele>487.79999999999995</ele><time>2026-03-22T13:03:16.682Z</time></trkpt><trkpt lat="44.4536377" lon="9.3653598"><ele>486.59999999999997</ele><time>2026-03-22T13:03:17.682Z</time></trkpt><trkpt lat="44.4537433" lon="9.3653172"><ele>485.4</ele><time>2026-03-22T13:03:18.683Z</time></trkpt><trkpt lat="44.4538566" lon="9.3652982"><ele>484.2</ele><time>2026-03-22T13:03:19.682Z</time></trkpt><trkpt lat="44.4539593" lon="9.3652751"><ele>483.0</ele><time>2026-03-22T13:03:20.683Z</time></trkpt><trkpt lat="44.4540547" lon="9.3652074"><ele>483.0</ele><time>2026-03-22T13:03:21.682Z</time></trkpt><trkpt lat="44.4541524" lon="9.3651355"><ele>483.0</ele><time>2026-03-22T13:03:22.682Z</time></trkpt><trkpt lat="44.4541639" lon="9.3649361"><ele>483.0</ele><time>2026-03-22T13:03:23.682Z</time></trkpt><trkpt lat="44.4541697" lon="9.3647306"><ele>483.0</ele><time>2026-03-22T13:03:24.682Z</time></trkpt><trkpt lat="44.4541708" lon="9.364548"><ele>483.0</ele><time>2026-03-22T13:03:25.682Z</time></trkpt><trkpt lat="44.4541944" lon="9.3643651"><ele>483.0</ele><time>2026-03-22T13:03:26.682Z</time></trkpt><trkpt lat="44.4542449" lon="9.3641939"><ele>483.0</ele><time>2026-03-22T13:03:27.682Z</time></trkpt><trkpt lat="44.4543235" lon="9.3640198"><ele>483.0</ele><time>2026-03-22T13:03:28.683Z</time></trkpt><trkpt lat="44.4544225" lon="9.3638431"><ele>481.25</ele><time>2026-03-22T13:03:29.682Z</time></trkpt><trkpt lat="44.4545172" lon="9.3636797"><ele>479.5</ele><time>2026-03-22T13:03:30.683Z</time></trkpt><trkpt lat="44.4546094" lon="9.3635229"><ele>477.75</ele><time>2026-03-22T13:03:31.682Z</time></trkpt><trkpt lat="44.454699" lon="9.3633719"><ele>476.0</ele><time>2026-03-22T13:03:32.683Z</time></trkpt><trkpt lat="44.4547807" lon="9.3632304"><ele>476.0</ele><time>2026-03-22T13:03:33.682Z</time></trkpt><trkpt lat="44.4548517" lon="9.3631104"><ele>476.0</ele><time>2026-03-22T13:03:34.683Z</time></trkpt><trkpt lat="44.4549247" lon="9.3630046"><ele>476.0</ele><time>2026-03-22T13:03:35.682Z</time></trkpt><trkpt lat="44.4550348" lon="9.3629895"><ele>476.0</ele><time>2026-03-22T13:03:36.682Z</time></trkpt><trkpt lat="44.455126" lon="9.3629612"><ele>476.0</ele><time>2026-03-22T13:03:37.682Z</time></trkpt><trkpt lat="44.4552371" lon="9.3629721"><ele>476.0</ele><time>2026-03-22T13:03:38.682Z</time></trkpt><trkpt lat="44.4553128" lon="9.363036"><ele>476.0</ele><time>2026-03-22T13:03:39.682Z</time></trkpt><trkpt lat="44.4553792" lon="9.3633994"><ele>476.0</ele><time>2026-03-22T13:03:40.682Z</time></trkpt><trkpt lat="44.4554199" lon="9.363638"><ele>475.25</ele><time>2026-03-22T13:03:41.682Z</time></trkpt><trkpt lat="44.4554827" lon="9.3638476"><ele>474.5</ele><time>2026-03-22T13:03:42.682Z</time></trkpt><trkpt lat="44.4555144" lon="9.3640301"><ele>473.75</ele><time>2026-03-22T13:03:43.682Z</time></trkpt><trkpt lat="44.4555805" lon="9.3641958"><ele>473.0</ele><time>2026-03-22T13:03:44.682Z</time></trkpt><trkpt lat="44.4556489" lon="9.3643279"><ele>472.99999999999994</ele><time>2026-03-22T13:03:45.682Z</time></trkpt><trkpt lat="44.4557062" lon="9.3644586"><ele>473.0</ele><time>2026-03-22T13:03:46.682Z</time></trkpt><trkpt lat="44.4557919" lon="9.3644689"><ele>473.0</ele><time>2026-03-22T13:03:48.683Z</time></trkpt><trkpt lat="44.4558471" lon="9.364398"><ele>473.0</ele><time>2026-03-22T13:03:49.682Z</time></trkpt><trkpt lat="44.4558898" lon="9.3643093"><ele>472.99999999999994</ele><time>2026-03-22T13:03:50.683Z</time></trkpt><trkpt lat="44.45592" lon="9.3641735"><ele>473.0</ele><time>2026-03-22T13:03:51.682Z</time></trkpt><trkpt lat="44.4558863" lon="9.3639971"><ele>468.5</ele><time>2026-03-22T13:03:52.682Z</time></trkpt><trkpt lat="44.4558309" lon="9.3636859"><ele>464.0</ele><time>2026-03-22T13:03:53.682Z</time></trkpt><trkpt lat="44.4557265" lon="9.3633926"><ele>464.0</ele><time>2026-03-22T13:03:54.682Z</time></trkpt><trkpt lat="44.4555948" lon="9.363199"><ele>464.0</ele><time>2026-03-22T13:03:55.682Z</time></trkpt><trkpt lat="44.4555063" lon="9.3629968"><ele>464.0</ele><time>2026-03-22T13:03:56.683Z</time></trkpt><trkpt lat="44.4554251" lon="9.3628121"><ele>463.5</ele><time>2026-03-22T13:03:57.682Z</time></trkpt><trkpt lat="44.4553496" lon="9.3626683"><ele>463.0</ele><time>2026-03-22T13:03:58.682Z</time></trkpt><trkpt lat="44.4552368" lon="9.3625594"><ele>462.5</ele><time>2026-03-22T13:03:59.682Z</time></trkpt><trkpt lat="44.4550806" lon="9.3624802"><ele>462.0</ele><time>2026-03-22T13:04:00.682Z</time></trkpt><trkpt lat="44.4549373" lon="9.3623784"><ele>462.0</ele><time>2026-03-22T13:04:01.682Z</time></trkpt><trkpt lat="44.4547489" lon="9.3623973"><ele>462.0</ele><time>2026-03-22T13:04:02.682Z</time></trkpt><trkpt lat="44.4545902" lon="9.3623417"><ele>462.0</ele><time>2026-03-22T13:04:03.683Z</time></trkpt><trkpt lat="44.4544302" lon="9.3622963"><ele>462.66666666666663</ele><time>2026-03-22T13:04:04.682Z</time></trkpt><trkpt lat="44.4542767" lon="9.3622355"><ele>463.3333333333333</ele><time>2026-03-22T13:04:05.682Z</time></trkpt><trkpt lat="44.4541158" lon="9.3621373"><ele>464.0</ele><time>2026-03-22T13:04:06.682Z</time></trkpt><trkpt lat="44.4539541" lon="9.3620183"><ele>461.0</ele><time>2026-03-22T13:04:07.682Z</time></trkpt><trkpt lat="44.4538154" lon="9.3618766"><ele>458.0</ele><time>2026-03-22T13:04:08.682Z</time></trkpt><trkpt lat="44.4536999" lon="9.3617298"><ele>455.0</ele><time>2026-03-22T13:04:09.682Z</time></trkpt><trkpt lat="44.4536113" lon="9.3615738"><ele>455.0</ele><time>2026-03-22T13:04:10.682Z</time></trkpt><trkpt lat="44.4535414" lon="9.3614161"><ele>455.0</ele><time>2026-03-22T13:04:11.682Z</time></trkpt><trkpt lat="44.4534716" lon="9.3612893"><ele>455.0</ele><time>2026-03-22T13:04:12.682Z</time></trkpt><trkpt lat="44.4533996" lon="9.3611686"><ele>455.0</ele><time>2026-03-22T13:04:13.682Z</time></trkpt><trkpt lat="44.4532856" lon="9.3611132"><ele>455.0</ele><time>2026-03-22T13:04:14.682Z</time></trkpt><trkpt lat="44.4531723" lon="9.3611128"><ele>455.0</ele><time>2026-03-22T13:04:15.682Z</time></trkpt><trkpt lat="44.4531002" lon="9.3611896"><ele>455.0</ele><time>2026-03-22T13:04:16.683Z</time></trkpt><trkpt lat="44.4529569" lon="9.3613757"><ele>455.0</ele><time>2026-03-22T13:04:17.682Z</time></trkpt><trkpt lat="44.4528628" lon="9.361525"><ele>453.5</ele><time>2026-03-22T13:04:18.683Z</time></trkpt><trkpt lat="44.4527293" lon="9.3614812"><ele>452.0</ele><time>2026-03-22T13:04:19.682Z</time></trkpt><trkpt lat="44.4526171" lon="9.3615259"><ele>450.5</ele><time>2026-03-22T13:04:20.682Z</time></trkpt><trkpt lat="44.4524764" lon="9.3614731"><ele>449.0</ele><time>2026-03-22T13:04:21.682Z</time></trkpt><trkpt lat="44.4523657" lon="9.3614383"><ele>449.0</ele><time>2026-03-22T13:04:22.682Z</time></trkpt><trkpt lat="44.4522131" lon="9.3614752"><ele>449.0</ele><time>2026-03-22T13:04:23.682Z</time></trkpt><trkpt lat="44.4520385" lon="9.3615722"><ele>449.0</ele><time>2026-03-22T13:04:24.682Z</time></trkpt><trkpt lat="44.4519028" lon="9.3616562"><ele>447.5</ele><time>2026-03-22T13:04:25.682Z</time></trkpt><trkpt lat="44.4517713" lon="9.3617813"><ele>446.0</ele><time>2026-03-22T13:04:26.682Z</time></trkpt><trkpt lat="44.4517057" lon="9.3619442"><ele>444.5</ele><time>2026-03-22T13:04:27.683Z</time></trkpt><trkpt lat="44.4516513" lon="9.3621302"><ele>443.0</ele><time>2026-03-22T13:04:28.682Z</time></trkpt><trkpt lat="44.4515859" lon="9.3622804"><ele>443.0</ele><time>2026-03-22T13:04:29.682Z</time></trkpt><trkpt lat="44.4514976" lon="9.3623902"><ele>442.99999999999994</ele><time>2026-03-22T13:04:30.682Z</time></trkpt><trkpt lat="44.4514143" lon="9.3624917"><ele>442.99999999999994</ele><time>2026-03-22T13:04:31.683Z</time></trkpt><trkpt lat="44.4513315" lon="9.3624328"><ele>443.0</ele><time>2026-03-22T13:04:32.682Z</time></trkpt><trkpt lat="44.4512681" lon="9.3623459"><ele>443.0</ele><time>2026-03-22T13:04:33.682Z</time></trkpt><trkpt lat="44.4512467" lon="9.3622138"><ele>441.0</ele><time>2026-03-22T13:04:34.682Z</time></trkpt><trkpt lat="44.4512846" lon="9.3620704"><ele>439.0</ele><time>2026-03-22T13:04:35.682Z</time></trkpt><trkpt lat="44.4513452" lon="9.3619315"><ele>437.0</ele><time>2026-03-22T13:04:36.682Z</time></trkpt><trkpt lat="44.4514709" lon="9.3617122"><ele>435.0</ele><time>2026-03-22T13:04:37.682Z</time></trkpt><trkpt lat="44.4515682" lon="9.3615001"><ele>432.0</ele><time>2026-03-22T13:04:38.683Z</time></trkpt><trkpt lat="44.4516625" lon="9.3613078"><ele>429.0</ele><time>2026-03-22T13:04:39.682Z</time></trkpt><trkpt lat="44.4517873" lon="9.3611446"><ele>426.0</ele><time>2026-03-22T13:04:40.682Z</time></trkpt><trkpt lat="44.4519348" lon="9.3610453"><ele>426.0</ele><time>2026-03-22T13:04:41.683Z</time></trkpt><trkpt lat="44.4520438" lon="9.360955"><ele>426.0</ele><time>2026-03-22T13:04:42.683Z</time></trkpt><trkpt lat="44.4521685" lon="9.3609359"><ele>426.0</ele><time>2026-03-22T13:04:43.683Z</time></trkpt><trkpt lat="44.4522945" lon="9.3609808"><ele>426.0</ele><time>2026-03-22T13:04:44.682Z</time></trkpt><trkpt lat="44.4524144" lon="9.3610316"><ele>427.20000000000005</ele><time>2026-03-22T13:04:45.682Z</time></trkpt><trkpt lat="44.4525252" lon="9.3611157"><ele>428.40000000000003</ele><time>2026-03-22T13:04:46.682Z</time></trkpt><trkpt lat="44.4526283" lon="9.361126"><ele>429.6</ele><time>2026-03-22T13:04:47.682Z</time></trkpt><trkpt lat="44.4527378" lon="9.3611466"><ele>430.8</ele><time>2026-03-22T13:04:48.683Z</time></trkpt><trkpt lat="44.4528387" lon="9.3611232"><ele>432.0</ele><time>2026-03-22T13:04:49.682Z</time></trkpt><trkpt lat="44.4528538" lon="9.3609695"><ele>432.0</ele><time>2026-03-22T13:04:50.682Z</time></trkpt><trkpt lat="44.4528641" lon="9.3608194"><ele>432.0</ele><time>2026-03-22T13:04:52.682Z</time></trkpt><trkpt lat="44.4527752" lon="9.3606915"><ele>432.0</ele><time>2026-03-22T13:04:53.682Z</time></trkpt><trkpt lat="44.4527217" lon="9.3606126"><ele>432.0</ele><time>2026-03-22T13:04:54.682Z</time></trkpt><trkpt lat="44.4524984" lon="9.3606316"><ele>432.0</ele><time>2026-03-22T13:04:55.682Z</time></trkpt><trkpt lat="44.4523764" lon="9.3605535"><ele>432.0</ele><time>2026-03-22T13:04:56.682Z</time></trkpt><trkpt lat="44.4522711" lon="9.3604356"><ele>432.0</ele><time>2026-03-22T13:04:57.682Z</time></trkpt><trkpt lat="44.4521784" lon="9.3603092"><ele>432.0</ele><time>2026-03-22T13:04:58.682Z</time></trkpt><trkpt lat="44.452097" lon="9.360184"><ele>428.8</ele><time>2026-03-22T13:04:59.682Z</time></trkpt><trkpt lat="44.4520144" lon="9.3600916"><ele>425.6</ele><time>2026-03-22T13:05:00.683Z</time></trkpt><trkpt lat="44.4519197" lon="9.3600104"><ele>422.40000000000003</ele><time>2026-03-22T13:05:01.682Z</time></trkpt><trkpt lat="44.451839" lon="9.3599498"><ele>419.20000000000005</ele><time>2026-03-22T13:05:02.682Z</time></trkpt><trkpt lat="44.4517115" lon="9.3600181"><ele>416.0</ele><time>2026-03-22T13:05:03.682Z</time></trkpt><trkpt lat="44.4515807" lon="9.360055"><ele>416.0</ele><time>2026-03-22T13:05:04.682Z</time></trkpt><trkpt lat="44.451367" lon="9.3604003"><ele>416.0</ele><time>2026-03-22T13:05:05.682Z</time></trkpt><trkpt lat="44.4512298" lon="9.3606027"><ele>412.3333333333333</ele><time>2026-03-22T13:05:06.682Z</time></trkpt><trkpt lat="44.4511043" lon="9.3608203"><ele>408.66666666666663</ele><time>2026-03-22T13:05:07.682Z</time></trkpt><trkpt lat="44.4510052" lon="9.3610179"><ele>405.0</ele><time>2026-03-22T13:05:08.682Z</time></trkpt><trkpt lat="44.4509183" lon="9.3611956"><ele>408.0</ele><time>2026-03-22T13:05:09.682Z</time></trkpt><trkpt lat="44.4508272" lon="9.3613806"><ele>411.0</ele><time>2026-03-22T13:05:10.682Z</time></trkpt><trkpt lat="44.450759" lon="9.3615925"><ele>414.0</ele><time>2026-03-22T13:05:11.682Z</time></trkpt><trkpt lat="44.4507221" lon="9.3618114"><ele>414.0</ele><time>2026-03-22T13:05:12.682Z</time></trkpt><trkpt lat="44.4507838" lon="9.3619319"><ele>414.0</ele><time>2026-03-22T13:05:13.682Z</time></trkpt><trkpt lat="44.4507391" lon="9.3620753"><ele>414.0</ele><time>2026-03-22T13:05:14.682Z</time></trkpt><trkpt lat="44.4506932" lon="9.3622135"><ele>414.0</ele><time>2026-03-22T13:05:15.682Z</time></trkpt><trkpt lat="44.4504997" lon="9.362207"><ele>411.5</ele><time>2026-03-22T13:05:16.682Z</time></trkpt><trkpt lat="44.4503581" lon="9.3622215"><ele>409.0</ele><time>2026-03-22T13:05:17.682Z</time></trkpt><trkpt lat="44.4502132" lon="9.362243"><ele>406.5</ele><time>2026-03-22T13:05:18.682Z</time></trkpt><trkpt lat="44.4500929" lon="9.3622434"><ele>404.0</ele><time>2026-03-22T13:05:19.682Z</time></trkpt><trkpt lat="44.4499649" lon="9.3622919"><ele>404.0</ele><time>2026-03-22T13:05:20.683Z</time></trkpt><trkpt lat="44.4498498" lon="9.3623375"><ele>404.0</ele><time>2026-03-22T13:05:21.682Z</time></trkpt><trkpt lat="44.4497508" lon="9.3624504"><ele>404.0</ele><time>2026-03-22T13:05:22.682Z</time></trkpt><trkpt lat="44.4496986" lon="9.3626256"><ele>404.0</ele><time>2026-03-22T13:05:23.682Z</time></trkpt><trkpt lat="44.4496911" lon="9.3629015"><ele>404.75</ele><time>2026-03-22T13:05:24.682Z</time></trkpt><trkpt lat="44.4496857" lon="9.3631057"><ele>405.5</ele><time>2026-03-22T13:05:25.682Z</time></trkpt><trkpt lat="44.4497428" lon="9.3632953"><ele>406.25</ele><time>2026-03-22T13:05:26.682Z</time></trkpt><trkpt lat="44.4497143" lon="9.3634672"><ele>407.0</ele><time>2026-03-22T13:05:27.682Z</time></trkpt><trkpt lat="44.4497025" lon="9.3636111"><ele>407.0</ele><time>2026-03-22T13:05:28.682Z</time></trkpt><trkpt lat="44.4496567" lon="9.3637627"><ele>407.0</ele><time>2026-03-22T13:05:29.682Z</time></trkpt><trkpt lat="44.4495645" lon="9.3638609"><ele>407.0</ele><time>2026-03-22T13:05:30.682Z</time></trkpt><trkpt lat="44.4493403" lon="9.3637807"><ele>402.3333333333333</ele><time>2026-03-22T13:05:31.682Z</time></trkpt><trkpt lat="44.4491676" lon="9.3638613"><ele>397.66666666666663</ele><time>2026-03-22T13:05:32.683Z</time></trkpt><trkpt lat="44.449018" lon="9.3639434"><ele>393.0</ele><time>2026-03-22T13:05:33.682Z</time></trkpt><trkpt lat="44.4489547" lon="9.3640657"><ele>393.0</ele><time>2026-03-22T13:05:34.682Z</time></trkpt><trkpt lat="44.4488451" lon="9.3641705"><ele>393.0</ele><time>2026-03-22T13:05:35.682Z</time></trkpt><trkpt lat="44.4487949" lon="9.364342"><ele>393.0</ele><time>2026-03-22T13:05:36.682Z</time></trkpt><trkpt lat="44.4488125" lon="9.3645488"><ele>393.0</ele><time>2026-03-22T13:05:37.682Z</time></trkpt><trkpt lat="44.4488545" lon="9.3646686"><ele>395.0</ele><time>2026-03-22T13:05:38.682Z</time></trkpt><trkpt lat="44.4490403" lon="9.3647447"><ele>397.0</ele><time>2026-03-22T13:05:39.682Z</time></trkpt><trkpt lat="44.4490825" lon="9.3648733"><ele>399.0</ele><time>2026-03-22T13:05:40.682Z</time></trkpt><trkpt lat="44.4491417" lon="9.3649792"><ele>401.0</ele><time>2026-03-22T13:05:41.683Z</time></trkpt><trkpt lat="44.4491247" lon="9.3651419"><ele>401.0</ele><time>2026-03-22T13:05:42.682Z</time></trkpt><trkpt lat="44.448914" lon="9.3651583"><ele>401.0</ele><time>2026-03-22T13:05:43.682Z</time></trkpt><trkpt lat="44.4488226" lon="9.3652225"><ele>401.0</ele><time>2026-03-22T13:05:44.682Z</time></trkpt><trkpt lat="44.448698" lon="9.3652359"><ele>401.0</ele><time>2026-03-22T13:05:45.683Z</time></trkpt><trkpt lat="44.4485529" lon="9.3652234"><ele>398.3333333333333</ele><time>2026-03-22T13:05:46.682Z</time></trkpt><trkpt lat="44.4483282" lon="9.3650908"><ele>395.66666666666663</ele><time>2026-03-22T13:05:47.682Z</time></trkpt><trkpt lat="44.4481484" lon="9.3649918"><ele>393.0</ele><time>2026-03-22T13:05:48.682Z</time></trkpt><trkpt lat="44.4480113" lon="9.3649101"><ele>393.66666666666663</ele><time>2026-03-22T13:05:49.682Z</time></trkpt><trkpt lat="44.4478526" lon="9.3648536"><ele>394.3333333333333</ele><time>2026-03-22T13:05:50.682Z</time></trkpt><trkpt lat="44.4476823" lon="9.3648103"><ele>395.0</ele><time>2026-03-22T13:05:51.683Z</time></trkpt><trkpt lat="44.4474688" lon="9.3648337"><ele>395.0</ele><time>2026-03-22T13:05:52.682Z</time></trkpt><trkpt lat="44.4472749" lon="9.3647824"><ele>395.0</ele><time>2026-03-22T13:05:53.682Z</time></trkpt><trkpt lat="44.4470835" lon="9.3647586"><ele>395.0</ele><time>2026-03-22T13:05:54.683Z</time></trkpt><trkpt lat="44.4468713" lon="9.3646203"><ele>379.5</ele><time>2026-03-22T13:05:55.683Z</time></trkpt><trkpt lat="44.4466482" lon="9.3645464"><ele>364.0</ele><time>2026-03-22T13:05:56.682Z</time></trkpt><trkpt lat="44.446434" lon="9.3644715"><ele>367.0</ele><time>2026-03-22T13:05:57.683Z</time></trkpt><trkpt lat="44.4462353" lon="9.3644063"><ele>370.0</ele><time>2026-03-22T13:05:58.682Z</time></trkpt><trkpt lat="44.4460414" lon="9.3643763"><ele>373.0</ele><time>2026-03-22T13:05:59.682Z</time></trkpt><trkpt lat="44.4458484" lon="9.3643437"><ele>373.0</ele><time>2026-03-22T13:06:00.682Z</time></trkpt><trkpt lat="44.4456717" lon="9.3643049"><ele>373.0</ele><time>2026-03-22T13:06:01.682Z</time></trkpt><trkpt lat="44.4454977" lon="9.364267"><ele>373.0</ele><time>2026-03-22T13:06:02.682Z</time></trkpt><trkpt lat="44.4453777" lon="9.36422"><ele>371.75</ele><time>2026-03-22T13:06:03.682Z</time></trkpt><trkpt lat="44.4452291" lon="9.3641557"><ele>370.5</ele><time>2026-03-22T13:06:04.682Z</time></trkpt><trkpt lat="44.4451038" lon="9.36409"><ele>369.25</ele><time>2026-03-22T13:06:05.681Z</time></trkpt><trkpt lat="44.4449692" lon="9.364112"><ele>368.0</ele><time>2026-03-22T13:06:06.682Z</time></trkpt><trkpt lat="44.4448587" lon="9.3642653"><ele>368.0</ele><time>2026-03-22T13:06:07.682Z</time></trkpt><trkpt lat="44.4447513" lon="9.3643845"><ele>368.0</ele><time>2026-03-22T13:06:08.682Z</time></trkpt><trkpt lat="44.444669" lon="9.364499"><ele>368.0</ele><time>2026-03-22T13:06:09.682Z</time></trkpt><trkpt lat="44.444579" lon="9.3645729"><ele>368.0</ele><time>2026-03-22T13:06:10.682Z</time></trkpt><trkpt lat="44.444488" lon="9.3646099"><ele>365.0</ele><time>2026-03-22T13:06:11.682Z</time></trkpt><trkpt lat="44.4443737" lon="9.3646204"><ele>362.0</ele><time>2026-03-22T13:06:12.682Z</time></trkpt><trkpt lat="44.4442521" lon="9.3646418"><ele>359.0</ele><time>2026-03-22T13:06:13.682Z</time></trkpt><trkpt lat="44.444024" lon="9.3645099"><ele>359.0</ele><time>2026-03-22T13:06:14.681Z</time></trkpt><trkpt lat="44.4438849" lon="9.364482"><ele>359.0</ele><time>2026-03-22T13:06:15.682Z</time></trkpt><trkpt lat="44.4437481" lon="9.3643939"><ele>359.0</ele><time>2026-03-22T13:06:16.682Z</time></trkpt><trkpt lat="44.4436529" lon="9.3642437"><ele>359.0</ele><time>2026-03-22T13:06:17.682Z</time></trkpt><trkpt lat="44.4435514" lon="9.364123"><ele>360.0</ele><time>2026-03-22T13:06:18.682Z</time></trkpt><trkpt lat="44.4434571" lon="9.3640179"><ele>361.0</ele><time>2026-03-22T13:06:19.683Z</time></trkpt><trkpt lat="44.4433699" lon="9.3639108"><ele>362.0</ele><time>2026-03-22T13:06:20.682Z</time></trkpt><trkpt lat="44.4432049" lon="9.3639511"><ele>363.0</ele><time>2026-03-22T13:06:21.682Z</time></trkpt><trkpt lat="44.4430673" lon="9.3639582"><ele>361.0</ele><time>2026-03-22T13:06:22.682Z</time></trkpt><trkpt lat="44.442926" lon="9.3639621"><ele>359.0</ele><time>2026-03-22T13:06:23.682Z</time></trkpt><trkpt lat="44.4427802" lon="9.3639581"><ele>357.0</ele><time>2026-03-22T13:06:24.682Z</time></trkpt><trkpt lat="44.4426143" lon="9.3639441"><ele>357.0</ele><time>2026-03-22T13:06:25.682Z</time></trkpt><trkpt lat="44.442455" lon="9.3639047"><ele>357.0</ele><time>2026-03-22T13:06:26.682Z</time></trkpt><trkpt lat="44.4423038" lon="9.3638539"><ele>357.0</ele><time>2026-03-22T13:06:27.682Z</time></trkpt><trkpt lat="44.4421698" lon="9.363813"><ele>353.5</ele><time>2026-03-22T13:06:28.682Z</time></trkpt><trkpt lat="44.4420454" lon="9.3638156"><ele>350.0</ele><time>2026-03-22T13:06:29.682Z</time></trkpt><trkpt lat="44.4419446" lon="9.3638816"><ele>346.5</ele><time>2026-03-22T13:06:30.682Z</time></trkpt><trkpt lat="44.4418335" lon="9.3639643"><ele>343.0</ele><time>2026-03-22T13:06:31.682Z</time></trkpt><trkpt lat="44.4417587" lon="9.3640756"><ele>343.0</ele><time>2026-03-22T13:06:32.682Z</time></trkpt><trkpt lat="44.441711" lon="9.3642386"><ele>343.0</ele><time>2026-03-22T13:06:33.682Z</time></trkpt><trkpt lat="44.4416457" lon="9.3643346"><ele>343.0</ele><time>2026-03-22T13:06:34.682Z</time></trkpt><trkpt lat="44.4415602" lon="9.3644582"><ele>343.0</ele><time>2026-03-22T13:06:35.682Z</time></trkpt><trkpt lat="44.4413919" lon="9.3645668"><ele>343.0</ele><time>2026-03-22T13:06:36.682Z</time></trkpt><trkpt lat="44.4412825" lon="9.3647434"><ele>343.0</ele><time>2026-03-22T13:06:37.682Z</time></trkpt><trkpt lat="44.4411885" lon="9.3649233"><ele>343.0</ele><time>2026-03-22T13:06:38.682Z</time></trkpt><trkpt lat="44.4411088" lon="9.3650908"><ele>343.0</ele><time>2026-03-22T13:06:39.682Z</time></trkpt><trkpt lat="44.441042" lon="9.365245"><ele>343.0</ele><time>2026-03-22T13:06:40.682Z</time></trkpt><trkpt lat="44.4409452" lon="9.3653406"><ele>343.0</ele><time>2026-03-22T13:06:41.682Z</time></trkpt><trkpt lat="44.4408423" lon="9.3653908"><ele>343.0</ele><time>2026-03-22T13:06:42.682Z</time></trkpt><trkpt lat="44.4407594" lon="9.3654489"><ele>343.0</ele><time>2026-03-22T13:06:43.683Z</time></trkpt><trkpt lat="44.4406382" lon="9.3653793"><ele>343.0</ele><time>2026-03-22T13:06:44.683Z</time></trkpt><trkpt lat="44.4405321" lon="9.3653607"><ele>343.0</ele><time>2026-03-22T13:06:45.682Z</time></trkpt><trkpt lat="44.4403868" lon="9.3654201"><ele>343.0</ele><time>2026-03-22T13:06:46.682Z</time></trkpt><trkpt lat="44.4402347" lon="9.3655112"><ele>343.0</ele><time>2026-03-22T13:06:47.682Z</time></trkpt><trkpt lat="44.4400706" lon="9.3656175"><ele>343.66666666666663</ele><time>2026-03-22T13:06:48.682Z</time></trkpt><trkpt lat="44.4399028" lon="9.3657557"><ele>344.3333333333333</ele><time>2026-03-22T13:06:49.682Z</time></trkpt><trkpt lat="44.4397791" lon="9.3658953"><ele>345.0</ele><time>2026-03-22T13:06:50.681Z</time></trkpt><trkpt lat="44.4396524" lon="9.3660191"><ele>336.3333333333333</ele><time>2026-03-22T13:06:51.682Z</time></trkpt><trkpt lat="44.439535" lon="9.3661426"><ele>327.66666666666663</ele><time>2026-03-22T13:06:52.682Z</time></trkpt><trkpt lat="44.4394096" lon="9.3662639"><ele>319.0</ele><time>2026-03-22T13:06:53.683Z</time></trkpt><trkpt lat="44.4392733" lon="9.3663552"><ele>321.25</ele><time>2026-03-22T13:06:54.682Z</time></trkpt><trkpt lat="44.4391337" lon="9.3664037"><ele>323.5</ele><time>2026-03-22T13:06:55.682Z</time></trkpt><trkpt lat="44.4390018" lon="9.366443"><ele>325.75</ele><time>2026-03-22T13:06:56.682Z</time></trkpt><trkpt lat="44.4388708" lon="9.3664537"><ele>328.0</ele><time>2026-03-22T13:06:57.682Z</time></trkpt><trkpt lat="44.4387405" lon="9.3664262"><ele>328.0</ele><time>2026-03-22T13:06:58.682Z</time></trkpt><trkpt lat="44.4386176" lon="9.3663921"><ele>328.0</ele><time>2026-03-22T13:06:59.682Z</time></trkpt><trkpt lat="44.4385112" lon="9.3663804"><ele>328.0</ele><time>2026-03-22T13:07:00.683Z</time></trkpt><trkpt lat="44.438399" lon="9.3664529"><ele>328.0</ele><time>2026-03-22T13:07:01.682Z</time></trkpt><trkpt lat="44.4382886" lon="9.3665402"><ele>328.0</ele><time>2026-03-22T13:07:02.683Z</time></trkpt><trkpt lat="44.4381601" lon="9.366635"><ele>328.0</ele><time>2026-03-22T13:07:03.682Z</time></trkpt><trkpt lat="44.43803" lon="9.36676"><ele>328.0</ele><time>2026-03-22T13:07:04.682Z</time></trkpt><trkpt lat="44.4379055" lon="9.3668617"><ele>328.0</ele><time>2026-03-22T13:07:05.682Z</time></trkpt><trkpt lat="44.4377774" lon="9.3669655"><ele>328.5</ele><time>2026-03-22T13:07:06.682Z</time></trkpt><trkpt lat="44.4376507" lon="9.3670476"><ele>329.0</ele><time>2026-03-22T13:07:07.682Z</time></trkpt><trkpt lat="44.4375289" lon="9.3671248"><ele>329.5</ele><time>2026-03-22T13:07:08.682Z</time></trkpt><trkpt lat="44.4374129" lon="9.3671884"><ele>330.0</ele><time>2026-03-22T13:07:09.682Z</time></trkpt><trkpt lat="44.4372888" lon="9.3672349"><ele>330.0</ele><time>2026-03-22T13:07:10.682Z</time></trkpt><trkpt lat="44.4371758" lon="9.3672826"><ele>330.0</ele><time>2026-03-22T13:07:11.682Z</time></trkpt><trkpt lat="44.4370681" lon="9.3673315"><ele>330.0</ele><time>2026-03-22T13:07:12.682Z</time></trkpt><trkpt lat="44.4369597" lon="9.3673811"><ele>330.0</ele><time>2026-03-22T13:07:13.682Z</time></trkpt><trkpt lat="44.4368447" lon="9.3674229"><ele>326.8</ele><time>2026-03-22T13:07:14.682Z</time></trkpt><trkpt lat="44.4367393" lon="9.3674804"><ele>323.6</ele><time>2026-03-22T13:07:15.683Z</time></trkpt><trkpt lat="44.4366322" lon="9.3675341"><ele>320.4</ele><time>2026-03-22T13:07:16.682Z</time></trkpt><trkpt lat="44.4365316" lon="9.3675733"><ele>317.2</ele><time>2026-03-22T13:07:17.682Z</time></trkpt><trkpt lat="44.436422" lon="9.3676304"><ele>314.0</ele><time>2026-03-22T13:07:18.682Z</time></trkpt><trkpt lat="44.4363118" lon="9.3677001"><ele>312.75</ele><time>2026-03-22T13:07:19.682Z</time></trkpt><trkpt lat="44.436222" lon="9.3678636"><ele>311.5</ele><time>2026-03-22T13:07:20.682Z</time></trkpt><trkpt lat="44.4361353" lon="9.3679969"><ele>310.25</ele><time>2026-03-22T13:07:21.682Z</time></trkpt><trkpt lat="44.4360178" lon="9.3681019"><ele>309.0</ele><time>2026-03-22T13:07:22.682Z</time></trkpt><trkpt lat="44.4358659" lon="9.3681657"><ele>309.0</ele><time>2026-03-22T13:07:23.682Z</time></trkpt><trkpt lat="44.4357141" lon="9.36822"><ele>309.0</ele><time>2026-03-22T13:07:24.683Z</time></trkpt><trkpt lat="44.4355696" lon="9.3682882"><ele>309.0</ele><time>2026-03-22T13:07:25.682Z</time></trkpt><trkpt lat="44.4354214" lon="9.3683578"><ele>302.0</ele><time>2026-03-22T13:07:26.682Z</time></trkpt><trkpt lat="44.4352784" lon="9.3684514"><ele>295.0</ele><time>2026-03-22T13:07:27.682Z</time></trkpt><trkpt lat="44.4351682" lon="9.3685676"><ele>288.0</ele><time>2026-03-22T13:07:28.682Z</time></trkpt><trkpt lat="44.4350834" lon="9.3687987"><ele>292.6666666666667</ele><time>2026-03-22T13:07:29.682Z</time></trkpt><trkpt lat="44.4349935" lon="9.3690102"><ele>297.33333333333337</ele><time>2026-03-22T13:07:30.682Z</time></trkpt><trkpt lat="44.4349271" lon="9.3692349"><ele>302.0</ele><time>2026-03-22T13:07:31.682Z</time></trkpt><trkpt lat="44.4348609" lon="9.3694438"><ele>302.0</ele><time>2026-03-22T13:07:32.682Z</time></trkpt><trkpt lat="44.4348004" lon="9.3696463"><ele>302.0</ele><time>2026-03-22T13:07:33.683Z</time></trkpt><trkpt lat="44.4348097" lon="9.3698599"><ele>302.0</ele><time>2026-03-22T13:07:34.682Z</time></trkpt><trkpt lat="44.4347939" lon="9.370068"><ele>302.75</ele><time>2026-03-22T13:07:35.682Z</time></trkpt><trkpt lat="44.4348088" lon="9.3702469"><ele>303.5</ele><time>2026-03-22T13:07:36.683Z</time></trkpt><trkpt lat="44.4347956" lon="9.3704224"><ele>304.25</ele><time>2026-03-22T13:07:37.682Z</time></trkpt><trkpt lat="44.4347909" lon="9.3705719"><ele>305.0</ele><time>2026-03-22T13:07:38.682Z</time></trkpt><trkpt lat="44.434755" lon="9.3707052"><ele>305.6</ele><time>2026-03-22T13:07:39.682Z</time></trkpt><trkpt lat="44.4347165" lon="9.3708068"><ele>306.2</ele><time>2026-03-22T13:07:40.683Z</time></trkpt><trkpt lat="44.4345916" lon="9.3707693"><ele>306.8</ele><time>2026-03-22T13:07:41.682Z</time></trkpt><trkpt lat="44.4344922" lon="9.3707608"><ele>307.4</ele><time>2026-03-22T13:07:42.682Z</time></trkpt><trkpt lat="44.4343608" lon="9.3707066"><ele>308.0</ele><time>2026-03-22T13:07:43.682Z</time></trkpt><trkpt lat="44.4342181" lon="9.370602"><ele>305.75</ele><time>2026-03-22T13:07:44.681Z</time></trkpt><trkpt lat="44.4341092" lon="9.3705375"><ele>303.5</ele><time>2026-03-22T13:07:45.682Z</time></trkpt><trkpt lat="44.4340045" lon="9.3704694"><ele>301.25</ele><time>2026-03-22T13:07:46.682Z</time></trkpt><trkpt lat="44.4338805" lon="9.3705392"><ele>299.0</ele><time>2026-03-22T13:07:47.682Z</time></trkpt><trkpt lat="44.433771" lon="9.3705595"><ele>292.6666666666667</ele><time>2026-03-22T13:07:48.682Z</time></trkpt><trkpt lat="44.4336489" lon="9.3706551"><ele>286.3333333333333</ele><time>2026-03-22T13:07:49.683Z</time></trkpt><trkpt lat="44.4334936" lon="9.3708495"><ele>280.0</ele><time>2026-03-22T13:07:50.682Z</time></trkpt><trkpt lat="44.4333745" lon="9.3710058"><ele>280.0</ele><time>2026-03-22T13:07:51.682Z</time></trkpt><trkpt lat="44.4332433" lon="9.3711383"><ele>280.0</ele><time>2026-03-22T13:07:52.682Z</time></trkpt><trkpt lat="44.4331276" lon="9.3712721"><ele>280.0</ele><time>2026-03-22T13:07:53.683Z</time></trkpt><trkpt lat="44.4330108" lon="9.3713515"><ele>280.0</ele><time>2026-03-22T13:07:54.682Z</time></trkpt><trkpt lat="44.4328943" lon="9.3714066"><ele>282.66666666666663</ele><time>2026-03-22T13:07:55.682Z</time></trkpt><trkpt lat="44.4327745" lon="9.3714667"><ele>285.3333333333333</ele><time>2026-03-22T13:07:56.682Z</time></trkpt><trkpt lat="44.4325979" lon="9.3714163"><ele>288.0</ele><time>2026-03-22T13:07:57.683Z</time></trkpt><trkpt lat="44.4324518" lon="9.3713878"><ele>288.0</ele><time>2026-03-22T13:07:58.682Z</time></trkpt><trkpt lat="44.432317" lon="9.3713755"><ele>288.0</ele><time>2026-03-22T13:07:59.681Z</time></trkpt><trkpt lat="44.4321852" lon="9.3713655"><ele>288.0</ele><time>2026-03-22T13:08:00.682Z</time></trkpt><trkpt lat="44.4320589" lon="9.3713539"><ele>288.0</ele><time>2026-03-22T13:08:01.683Z</time></trkpt><trkpt lat="44.4319339" lon="9.3713752"><ele>282.5</ele><time>2026-03-22T13:08:02.682Z</time></trkpt><trkpt lat="44.4318165" lon="9.3714419"><ele>277.0</ele><time>2026-03-22T13:08:03.683Z</time></trkpt><trkpt lat="44.4317235" lon="9.3715653"><ele>271.5</ele><time>2026-03-22T13:08:04.682Z</time></trkpt><trkpt lat="44.4316342" lon="9.3717594"><ele>266.0</ele><time>2026-03-22T13:08:05.682Z</time></trkpt><trkpt lat="44.4315487" lon="9.3719812"><ele>272.0</ele><time>2026-03-22T13:08:06.682Z</time></trkpt><trkpt lat="44.4314718" lon="9.3722065"><ele>278.0</ele><time>2026-03-22T13:08:07.682Z</time></trkpt><trkpt lat="44.4313906" lon="9.3724272"><ele>284.0</ele><time>2026-03-22T13:08:08.682Z</time></trkpt><trkpt lat="44.4313116" lon="9.372636"><ele>273.0</ele><time>2026-03-22T13:08:09.683Z</time></trkpt><trkpt lat="44.4312237" lon="9.3728281"><ele>262.0</ele><time>2026-03-22T13:08:10.682Z</time></trkpt><trkpt lat="44.4311368" lon="9.3730145"><ele>251.0</ele><time>2026-03-22T13:08:11.682Z</time></trkpt><trkpt lat="44.4310427" lon="9.3731944"><ele>251.0</ele><time>2026-03-22T13:08:12.682Z</time></trkpt><trkpt lat="44.4309457" lon="9.3733964"><ele>251.0</ele><time>2026-03-22T13:08:13.683Z</time></trkpt><trkpt lat="44.4308711" lon="9.373592"><ele>251.0</ele><time>2026-03-22T13:08:14.682Z</time></trkpt><trkpt lat="44.4308086" lon="9.3737993"><ele>256.0</ele><time>2026-03-22T13:08:15.683Z</time></trkpt><trkpt lat="44.4307506" lon="9.3739795"><ele>261.0</ele><time>2026-03-22T13:08:16.682Z</time></trkpt><trkpt lat="44.4306933" lon="9.3741489"><ele>266.0</ele><time>2026-03-22T13:08:17.682Z</time></trkpt><trkpt lat="44.4306484" lon="9.3743161"><ele>271.0</ele><time>2026-03-22T13:08:18.682Z</time></trkpt><trkpt lat="44.4306167" lon="9.3744955"><ele>271.0</ele><time>2026-03-22T13:08:19.682Z</time></trkpt><trkpt lat="44.430577" lon="9.374665"><ele>271.0</ele><time>2026-03-22T13:08:20.682Z</time></trkpt><trkpt lat="44.4305311" lon="9.374817"><ele>271.0</ele><time>2026-03-22T13:08:21.683Z</time></trkpt><trkpt lat="44.4304725" lon="9.3749749"><ele>271.0</ele><time>2026-03-22T13:08:22.682Z</time></trkpt><trkpt lat="44.430332" lon="9.3751035"><ele>271.75</ele><time>2026-03-22T13:08:23.682Z</time></trkpt><trkpt lat="44.4302399" lon="9.3752301"><ele>272.5</ele><time>2026-03-22T13:08:24.682Z</time></trkpt><trkpt lat="44.4301481" lon="9.3753512"><ele>273.25</ele><time>2026-03-22T13:08:25.682Z</time></trkpt><trkpt lat="44.4300664" lon="9.3754594"><ele>274.0</ele><time>2026-03-22T13:08:26.682Z</time></trkpt><trkpt lat="44.4299773" lon="9.3755536"><ele>274.0</ele><time>2026-03-22T13:08:27.682Z</time></trkpt><trkpt lat="44.4298954" lon="9.3756457"><ele>274.0</ele><time>2026-03-22T13:08:28.682Z</time></trkpt><trkpt lat="44.4298195" lon="9.3756207"><ele>274.0</ele><time>2026-03-22T13:08:29.682Z</time></trkpt><trkpt lat="44.4297403" lon="9.3756203"><ele>274.0</ele><time>2026-03-22T13:08:30.682Z</time></trkpt><trkpt lat="44.4296727" lon="9.3756177"><ele>274.0</ele><time>2026-03-22T13:08:31.682Z</time></trkpt><trkpt lat="44.4295676" lon="9.375624"><ele>274.0</ele><time>2026-03-22T13:08:33.682Z</time></trkpt><trkpt lat="44.4294854" lon="9.3755923"><ele>267.0</ele><time>2026-03-22T13:08:35.683Z</time></trkpt><trkpt lat="44.4294208" lon="9.3755859"><ele>260.0</ele><time>2026-03-22T13:08:37.682Z</time></trkpt><trkpt lat="44.4293549" lon="9.3755955"><ele>252.99999999999997</ele><time>2026-03-22T13:08:39.682Z</time></trkpt><trkpt lat="44.4292609" lon="9.3757199"><ele>246.0</ele><time>2026-03-22T13:08:41.683Z</time></trkpt><trkpt lat="44.4292069" lon="9.3759139"><ele>239.0</ele><time>2026-03-22T13:08:43.682Z</time></trkpt><trkpt lat="44.4291901" lon="9.3760105"><ele>239.0</ele><time>2026-03-22T13:08:44.682Z</time></trkpt><trkpt lat="44.4291751" lon="9.3761192"><ele>238.99999999999997</ele><time>2026-03-22T13:08:45.682Z</time></trkpt><trkpt lat="44.4291612" lon="9.3762591"><ele>238.99999999999997</ele><time>2026-03-22T13:08:46.682Z</time></trkpt><trkpt lat="44.4291416" lon="9.376412"><ele>239.0</ele><time>2026-03-22T13:08:47.682Z</time></trkpt><trkpt lat="44.429121" lon="9.3765566"><ele>239.0</ele><time>2026-03-22T13:08:48.682Z</time></trkpt><trkpt lat="44.4290975" lon="9.3766983"><ele>242.39999999999998</ele><time>2026-03-22T13:08:49.683Z</time></trkpt><trkpt lat="44.4290813" lon="9.3768461"><ele>245.79999999999998</ele><time>2026-03-22T13:08:50.682Z</time></trkpt><trkpt lat="44.4290684" lon="9.3769999"><ele>249.20000000000002</ele><time>2026-03-22T13:08:51.683Z</time></trkpt><trkpt lat="44.4290502" lon="9.3771141"><ele>252.60000000000002</ele><time>2026-03-22T13:08:52.682Z</time></trkpt><trkpt lat="44.4290293" lon="9.3772467"><ele>256.0</ele><time>2026-03-22T13:08:53.682Z</time></trkpt><trkpt lat="44.4289968" lon="9.377375"><ele>259.0</ele><time>2026-03-22T13:08:54.682Z</time></trkpt><trkpt lat="44.4289522" lon="9.3774986"><ele>262.0</ele><time>2026-03-22T13:08:55.682Z</time></trkpt><trkpt lat="44.4288723" lon="9.3776348"><ele>265.0</ele><time>2026-03-22T13:08:56.682Z</time></trkpt><trkpt lat="44.4288092" lon="9.3777772"><ele>268.0</ele><time>2026-03-22T13:08:57.682Z</time></trkpt><trkpt lat="44.4287203" lon="9.3778912"><ele>259.75</ele><time>2026-03-22T13:08:58.682Z</time></trkpt><trkpt lat="44.4286038" lon="9.3779983"><ele>251.5</ele><time>2026-03-22T13:08:59.682Z</time></trkpt><trkpt lat="44.4285026" lon="9.3781073"><ele>243.25</ele><time>2026-03-22T13:09:00.683Z</time></trkpt><trkpt lat="44.4284028" lon="9.3782316"><ele>235.0</ele><time>2026-03-22T13:09:01.682Z</time></trkpt><trkpt lat="44.4283044" lon="9.3783698"><ele>235.0</ele><time>2026-03-22T13:09:02.682Z</time></trkpt><trkpt lat="44.4282104" lon="9.3785281"><ele>235.0</ele><time>2026-03-22T13:09:03.682Z</time></trkpt><trkpt lat="44.4281275" lon="9.3786909"><ele>235.0</ele><time>2026-03-22T13:09:04.681Z</time></trkpt><trkpt lat="44.4280285" lon="9.3788588"><ele>235.0</ele><time>2026-03-22T13:09:05.682Z</time></trkpt><trkpt lat="44.4279662" lon="9.3790181"><ele>226.33333333333331</ele><time>2026-03-22T13:09:06.682Z</time></trkpt><trkpt lat="44.427848" lon="9.3791847"><ele>217.66666666666669</ele><time>2026-03-22T13:09:07.682Z</time></trkpt><trkpt lat="44.4277647" lon="9.3793553"><ele>209.0</ele><time>2026-03-22T13:09:08.682Z</time></trkpt><trkpt lat="44.4276807" lon="9.3796735"><ele>212.66666666666669</ele><time>2026-03-22T13:09:09.682Z</time></trkpt><trkpt lat="44.4275859" lon="9.379926"><ele>216.33333333333331</ele><time>2026-03-22T13:09:10.681Z</time></trkpt><trkpt lat="44.4274841" lon="9.3801678"><ele>220.0</ele><time>2026-03-22T13:09:11.682Z</time></trkpt><trkpt lat="44.42739" lon="9.3803944"><ele>213.66666666666666</ele><time>2026-03-22T13:09:12.682Z</time></trkpt><trkpt lat="44.4272881" lon="9.380612"><ele>207.33333333333331</ele><time>2026-03-22T13:09:13.682Z</time></trkpt><trkpt lat="44.4271675" lon="9.3808105"><ele>201.0</ele><time>2026-03-22T13:09:14.682Z</time></trkpt><trkpt lat="44.4270267" lon="9.3809849"><ele>201.0</ele><time>2026-03-22T13:09:15.681Z</time></trkpt><trkpt lat="44.4268794" lon="9.3811519"><ele>201.0</ele><time>2026-03-22T13:09:16.683Z</time></trkpt><trkpt lat="44.4267469" lon="9.3813211"><ele>201.0</ele><time>2026-03-22T13:09:17.682Z</time></trkpt><trkpt lat="44.4266288" lon="9.3814889"><ele>207.0</ele><time>2026-03-22T13:09:18.681Z</time></trkpt><trkpt lat="44.4265251" lon="9.3816506"><ele>213.0</ele><time>2026-03-22T13:09:19.681Z</time></trkpt><trkpt lat="44.4264285" lon="9.3818008"><ele>219.0</ele><time>2026-03-22T13:09:20.682Z</time></trkpt><trkpt lat="44.4263148" lon="9.3819384"><ele>212.66666666666669</ele><time>2026-03-22T13:09:21.682Z</time></trkpt><trkpt lat="44.4261946" lon="9.3820758"><ele>206.33333333333334</ele><time>2026-03-22T13:09:22.682Z</time></trkpt><trkpt lat="44.4260696" lon="9.382213"><ele>200.0</ele><time>2026-03-22T13:09:23.682Z</time></trkpt><trkpt lat="44.4259617" lon="9.3823897"><ele>200.0</ele><time>2026-03-22T13:09:24.683Z</time></trkpt><trkpt lat="44.4258547" lon="9.3825849"><ele>200.0</ele><time>2026-03-22T13:09:25.682Z</time></trkpt><trkpt lat="44.4257615" lon="9.3828764"><ele>200.0</ele><time>2026-03-22T13:09:26.682Z</time></trkpt><trkpt lat="44.4256628" lon="9.3831131"><ele>205.33333333333334</ele><time>2026-03-22T13:09:27.682Z</time></trkpt><trkpt lat="44.4255643" lon="9.3833435"><ele>210.66666666666669</ele><time>2026-03-22T13:09:28.682Z</time></trkpt><trkpt lat="44.4254825" lon="9.3835639"><ele>216.0</ele><time>2026-03-22T13:09:29.681Z</time></trkpt><trkpt lat="44.4253971" lon="9.3837349"><ele>208.33333333333331</ele><time>2026-03-22T13:09:30.682Z</time></trkpt><trkpt lat="44.4252677" lon="9.3838818"><ele>200.66666666666666</ele><time>2026-03-22T13:09:31.682Z</time></trkpt><trkpt lat="44.4251372" lon="9.3840375"><ele>193.0</ele><time>2026-03-22T13:09:32.682Z</time></trkpt><trkpt lat="44.4249954" lon="9.384179"><ele>193.0</ele><time>2026-03-22T13:09:33.682Z</time></trkpt><trkpt lat="44.4248282" lon="9.3842742"><ele>193.0</ele><time>2026-03-22T13:09:34.682Z</time></trkpt><trkpt lat="44.4246711" lon="9.3843725"><ele>193.0</ele><time>2026-03-22T13:09:35.681Z</time></trkpt><trkpt lat="44.4245112" lon="9.3844748"><ele>191.5</ele><time>2026-03-22T13:09:36.682Z</time></trkpt><trkpt lat="44.424381" lon="9.3845805"><ele>190.0</ele><time>2026-03-22T13:09:37.682Z</time></trkpt><trkpt lat="44.4242711" lon="9.3846925"><ele>188.5</ele><time>2026-03-22T13:09:38.682Z</time></trkpt><trkpt lat="44.4241657" lon="9.3848092"><ele>187.0</ele><time>2026-03-22T13:09:39.682Z</time></trkpt><trkpt lat="44.4240671" lon="9.3849318"><ele>187.0</ele><time>2026-03-22T13:09:40.682Z</time></trkpt><trkpt lat="44.4239668" lon="9.3850461"><ele>187.0</ele><time>2026-03-22T13:09:41.682Z</time></trkpt><trkpt lat="44.4238656" lon="9.3851725"><ele>187.0</ele><time>2026-03-22T13:09:42.681Z</time></trkpt><trkpt lat="44.4237744" lon="9.3852928"><ele>187.0</ele><time>2026-03-22T13:09:43.682Z</time></trkpt><trkpt lat="44.4236841" lon="9.3854133"><ele>183.75</ele><time>2026-03-22T13:09:44.683Z</time></trkpt><trkpt lat="44.4235976" lon="9.385538"><ele>180.5</ele><time>2026-03-22T13:09:45.682Z</time></trkpt><trkpt lat="44.4235118" lon="9.3856704"><ele>177.25</ele><time>2026-03-22T13:09:46.682Z</time></trkpt><trkpt lat="44.423427" lon="9.3858064"><ele>174.0</ele><time>2026-03-22T13:09:47.682Z</time></trkpt><trkpt lat="44.4233442" lon="9.3859383"><ele>174.0</ele><time>2026-03-22T13:09:48.682Z</time></trkpt><trkpt lat="44.4232566" lon="9.3860597"><ele>174.0</ele><time>2026-03-22T13:09:49.682Z</time></trkpt><trkpt lat="44.4231711" lon="9.3861919"><ele>174.0</ele><time>2026-03-22T13:09:50.682Z</time></trkpt><trkpt lat="44.4230862" lon="9.3863212"><ele>174.0</ele><time>2026-03-22T13:09:51.682Z</time></trkpt><trkpt lat="44.4229996" lon="9.386449"><ele>172.5</ele><time>2026-03-22T13:09:52.683Z</time></trkpt><trkpt lat="44.4229234" lon="9.3865748"><ele>171.0</ele><time>2026-03-22T13:09:53.682Z</time></trkpt><trkpt lat="44.4228472" lon="9.3866986"><ele>169.5</ele><time>2026-03-22T13:09:54.682Z</time></trkpt><trkpt lat="44.422757" lon="9.3868186"><ele>168.0</ele><time>2026-03-22T13:09:55.682Z</time></trkpt><trkpt lat="44.4226647" lon="9.3869178"><ele>168.0</ele><time>2026-03-22T13:09:56.681Z</time></trkpt><trkpt lat="44.4225723" lon="9.3870062"><ele>168.0</ele><time>2026-03-22T13:09:57.682Z</time></trkpt><trkpt lat="44.4224811" lon="9.3870891"><ele>168.0</ele><time>2026-03-22T13:09:58.682Z</time></trkpt><trkpt lat="44.4223891" lon="9.3871473"><ele>168.0</ele><time>2026-03-22T13:09:59.682Z</time></trkpt><trkpt lat="44.4222696" lon="9.3871569"><ele>168.0</ele><time>2026-03-22T13:10:00.683Z</time></trkpt><trkpt lat="44.422159" lon="9.3872049"><ele>167.25</ele><time>2026-03-22T13:10:01.682Z</time></trkpt><trkpt lat="44.422054" lon="9.3872587"><ele>166.5</ele><time>2026-03-22T13:10:02.682Z</time></trkpt><trkpt lat="44.4219391" lon="9.3873054"><ele>165.75</ele><time>2026-03-22T13:10:03.682Z</time></trkpt><trkpt lat="44.4218219" lon="9.3873507"><ele>165.0</ele><time>2026-03-22T13:10:04.682Z</time></trkpt><trkpt lat="44.4216466" lon="9.3873874"><ele>165.0</ele><time>2026-03-22T13:10:05.681Z</time></trkpt><trkpt lat="44.4215101" lon="9.3874321"><ele>165.0</ele><time>2026-03-22T13:10:06.682Z</time></trkpt><trkpt lat="44.4213857" lon="9.3874621"><ele>165.0</ele><time>2026-03-22T13:10:07.682Z</time></trkpt><trkpt lat="44.4212492" lon="9.3874868"><ele>165.0</ele><time>2026-03-22T13:10:08.682Z</time></trkpt><trkpt lat="44.4211338" lon="9.3874933"><ele>164.2</ele><time>2026-03-22T13:10:09.682Z</time></trkpt><trkpt lat="44.4210334" lon="9.3875071"><ele>163.4</ele><time>2026-03-22T13:10:10.681Z</time></trkpt><trkpt lat="44.4209321" lon="9.3875392"><ele>162.60000000000002</ele><time>2026-03-22T13:10:11.681Z</time></trkpt><trkpt lat="44.4208374" lon="9.3876437"><ele>161.8</ele><time>2026-03-22T13:10:12.681Z</time></trkpt><trkpt lat="44.4207564" lon="9.38773"><ele>161.0</ele><time>2026-03-22T13:10:13.681Z</time></trkpt><trkpt lat="44.4206468" lon="9.3878599"><ele>161.0</ele><time>2026-03-22T13:10:14.682Z</time></trkpt><trkpt lat="44.4205888" lon="9.388075"><ele>161.0</ele><time>2026-03-22T13:10:15.682Z</time></trkpt><trkpt lat="44.4205072" lon="9.3882124"><ele>161.0</ele><time>2026-03-22T13:10:16.683Z</time></trkpt><trkpt lat="44.4204299" lon="9.3883469"><ele>161.0</ele><time>2026-03-22T13:10:17.682Z</time></trkpt><trkpt lat="44.4203751" lon="9.3884901"><ele>160.75</ele><time>2026-03-22T13:10:18.683Z</time></trkpt><trkpt lat="44.4203088" lon="9.3886426"><ele>160.5</ele><time>2026-03-22T13:10:19.682Z</time></trkpt><trkpt lat="44.4202716" lon="9.3888329"><ele>160.25</ele><time>2026-03-22T13:10:20.682Z</time></trkpt><trkpt lat="44.4202372" lon="9.3889813"><ele>160.0</ele><time>2026-03-22T13:10:21.683Z</time></trkpt><trkpt lat="44.420224" lon="9.3891457"><ele>158.8</ele><time>2026-03-22T13:10:22.682Z</time></trkpt><trkpt lat="44.4202215" lon="9.3892961"><ele>157.6</ele><time>2026-03-22T13:10:23.682Z</time></trkpt><trkpt lat="44.4202068" lon="9.3894371"><ele>156.4</ele><time>2026-03-22T13:10:24.681Z</time></trkpt><trkpt lat="44.4201664" lon="9.3895677"><ele>155.2</ele><time>2026-03-22T13:10:25.683Z</time></trkpt><trkpt lat="44.420113" lon="9.3896768"><ele>154.0</ele><time>2026-03-22T13:10:26.682Z</time></trkpt><trkpt lat="44.4200185" lon="9.3897449"><ele>155.75</ele><time>2026-03-22T13:10:27.682Z</time></trkpt><trkpt lat="44.4199135" lon="9.3898143"><ele>157.5</ele><time>2026-03-22T13:10:28.682Z</time></trkpt><trkpt lat="44.4197802" lon="9.3898558"><ele>159.25</ele><time>2026-03-22T13:10:29.682Z</time></trkpt><trkpt lat="44.4196314" lon="9.3898545"><ele>161.0</ele><time>2026-03-22T13:10:30.683Z</time></trkpt><trkpt lat="44.419458" lon="9.3898806"><ele>161.0</ele><time>2026-03-22T13:10:31.682Z</time></trkpt><trkpt lat="44.4192973" lon="9.3899181"><ele>161.0</ele><time>2026-03-22T13:10:32.682Z</time></trkpt><trkpt lat="44.419122" lon="9.3899557"><ele>161.0</ele><time>2026-03-22T13:10:33.683Z</time></trkpt><trkpt lat="44.4189487" lon="9.3900029"><ele>158.66666666666666</ele><time>2026-03-22T13:10:34.682Z</time></trkpt><trkpt lat="44.4187708" lon="9.3900474"><ele>156.33333333333334</ele><time>2026-03-22T13:10:35.682Z</time></trkpt><trkpt lat="44.4185966" lon="9.3900848"><ele>154.0</ele><time>2026-03-22T13:10:36.682Z</time></trkpt><trkpt lat="44.4184252" lon="9.3901255"><ele>154.0</ele><time>2026-03-22T13:10:37.682Z</time></trkpt><trkpt lat="44.4182606" lon="9.3901636"><ele>154.0</ele><time>2026-03-22T13:10:38.681Z</time></trkpt><trkpt lat="44.4180928" lon="9.3901974"><ele>154.0</ele><time>2026-03-22T13:10:39.682Z</time></trkpt><trkpt lat="44.4179355" lon="9.3902225"><ele>152.0</ele><time>2026-03-22T13:10:40.682Z</time></trkpt><trkpt lat="44.4177736" lon="9.3902447"><ele>150.0</ele><time>2026-03-22T13:10:41.682Z</time></trkpt><trkpt lat="44.4176103" lon="9.39027"><ele>148.0</ele><time>2026-03-22T13:10:42.682Z</time></trkpt><trkpt lat="44.4174526" lon="9.3902955"><ele>148.0</ele><time>2026-03-22T13:10:43.682Z</time></trkpt><trkpt lat="44.4173052" lon="9.3903015"><ele>148.0</ele><time>2026-03-22T13:10:44.682Z</time></trkpt><trkpt lat="44.4171615" lon="9.3902814"><ele>148.0</ele><time>2026-03-22T13:10:45.682Z</time></trkpt><trkpt lat="44.4170134" lon="9.3902157"><ele>148.0</ele><time>2026-03-22T13:10:46.682Z</time></trkpt><trkpt lat="44.4168607" lon="9.3901099"><ele>150.66666666666669</ele><time>2026-03-22T13:10:47.682Z</time></trkpt><trkpt lat="44.4167136" lon="9.3899796"><ele>153.33333333333334</ele><time>2026-03-22T13:10:48.681Z</time></trkpt><trkpt lat="44.4165716" lon="9.3898524"><ele>156.0</ele><time>2026-03-22T13:10:49.681Z</time></trkpt><trkpt lat="44.4164379" lon="9.389732"><ele>152.66666666666666</ele><time>2026-03-22T13:10:50.682Z</time></trkpt><trkpt lat="44.4163" lon="9.3896206"><ele>149.33333333333331</ele><time>2026-03-22T13:10:51.683Z</time></trkpt><trkpt lat="44.4161393" lon="9.3895282"><ele>146.0</ele><time>2026-03-22T13:10:52.682Z</time></trkpt><trkpt lat="44.4159516" lon="9.3894592"><ele>146.0</ele><time>2026-03-22T13:10:53.681Z</time></trkpt><trkpt lat="44.4157346" lon="9.3894125"><ele>146.0</ele><time>2026-03-22T13:10:54.682Z</time></trkpt><trkpt lat="44.4154993" lon="9.3893655"><ele>145.33333333333331</ele><time>2026-03-22T13:10:55.682Z</time></trkpt><trkpt lat="44.4152743" lon="9.3893217"><ele>144.66666666666666</ele><time>2026-03-22T13:10:56.682Z</time></trkpt><trkpt lat="44.4150642" lon="9.3892835"><ele>144.0</ele><time>2026-03-22T13:10:57.682Z</time></trkpt><trkpt lat="44.4148613" lon="9.3892488"><ele>144.0</ele><time>2026-03-22T13:10:58.682Z</time></trkpt><trkpt lat="44.4146758" lon="9.3892209"><ele>144.0</ele><time>2026-03-22T13:10:59.682Z</time></trkpt><trkpt lat="44.4145217" lon="9.3891809"><ele>144.0</ele><time>2026-03-22T13:11:00.682Z</time></trkpt><trkpt lat="44.4143768" lon="9.3891023"><ele>144.0</ele><time>2026-03-22T13:11:01.682Z</time></trkpt><trkpt lat="44.4142352" lon="9.3889707"><ele>144.0</ele><time>2026-03-22T13:11:02.682Z</time></trkpt><trkpt lat="44.4140849" lon="9.3888057"><ele>144.0</ele><time>2026-03-22T13:11:03.682Z</time></trkpt><trkpt lat="44.4139341" lon="9.3886303"><ele>143.0</ele><time>2026-03-22T13:11:04.682Z</time></trkpt><trkpt lat="44.4137891" lon="9.3884591"><ele>142.0</ele><time>2026-03-22T13:11:05.682Z</time></trkpt><trkpt lat="44.4136519" lon="9.3882963"><ele>141.0</ele><time>2026-03-22T13:11:06.682Z</time></trkpt><trkpt lat="44.4135095" lon="9.3881353"><ele>154.33333333333334</ele><time>2026-03-22T13:11:07.682Z</time></trkpt><trkpt lat="44.4133771" lon="9.387984"><ele>167.66666666666669</ele><time>2026-03-22T13:11:08.682Z</time></trkpt><trkpt lat="44.4132477" lon="9.3878352"><ele>181.0</ele><time>2026-03-22T13:11:09.682Z</time></trkpt><trkpt lat="44.4131222" lon="9.3877082"><ele>181.0</ele><time>2026-03-22T13:11:10.682Z</time></trkpt><trkpt lat="44.4129945" lon="9.3876068"><ele>181.0</ele><time>2026-03-22T13:11:11.682Z</time></trkpt><trkpt lat="44.412867" lon="9.3875408"><ele>181.0</ele><time>2026-03-22T13:11:12.682Z</time></trkpt><trkpt lat="44.4127392" lon="9.3874865"><ele>181.0</ele><time>2026-03-22T13:11:13.682Z</time></trkpt><trkpt lat="44.412606" lon="9.3874927"><ele>179.5</ele><time>2026-03-22T13:11:14.682Z</time></trkpt><trkpt lat="44.41248" lon="9.387521"><ele>178.0</ele><time>2026-03-22T13:11:15.682Z</time></trkpt><trkpt lat="44.4122559" lon="9.3878707"><ele>168.66666666666669</ele><time>2026-03-22T13:11:16.683Z</time></trkpt><trkpt lat="44.4120819" lon="9.3880334"><ele>159.33333333333334</ele><time>2026-03-22T13:11:17.682Z</time></trkpt><trkpt lat="44.4119127" lon="9.3881818"><ele>150.0</ele><time>2026-03-22T13:11:18.682Z</time></trkpt><trkpt lat="44.4117383" lon="9.3883287"><ele>150.0</ele><time>2026-03-22T13:11:19.682Z</time></trkpt><trkpt lat="44.4115638" lon="9.3884131"><ele>150.0</ele><time>2026-03-22T13:11:20.682Z</time></trkpt><trkpt lat="44.4114234" lon="9.388402"><ele>150.0</ele><time>2026-03-22T13:11:21.682Z</time></trkpt><trkpt lat="44.4112265" lon="9.3884126"><ele>150.0</ele><time>2026-03-22T13:11:22.683Z</time></trkpt><trkpt lat="44.4110256" lon="9.3884022"><ele>150.0</ele><time>2026-03-22T13:11:23.682Z</time></trkpt><trkpt lat="44.4108377" lon="9.3883865"><ele>150.0</ele><time>2026-03-22T13:11:24.683Z</time></trkpt><trkpt lat="44.410653" lon="9.3883466"><ele>148.0</ele><time>2026-03-22T13:11:25.683Z</time></trkpt><trkpt lat="44.4104555" lon="9.3882806"><ele>146.0</ele><time>2026-03-22T13:11:26.682Z</time></trkpt><trkpt lat="44.4102672" lon="9.3882184"><ele>144.0</ele><time>2026-03-22T13:11:27.682Z</time></trkpt><trkpt lat="44.4100566" lon="9.3881682"><ele>144.0</ele><time>2026-03-22T13:11:28.682Z</time></trkpt><trkpt lat="44.4098256" lon="9.3881401"><ele>144.0</ele><time>2026-03-22T13:11:29.681Z</time></trkpt><trkpt lat="44.4096044" lon="9.3881076"><ele>140.0</ele><time>2026-03-22T13:11:30.682Z</time></trkpt><trkpt lat="44.4093903" lon="9.3880756"><ele>136.0</ele><time>2026-03-22T13:11:31.682Z</time></trkpt><trkpt lat="44.4092141" lon="9.3880723"><ele>132.0</ele><time>2026-03-22T13:11:32.683Z</time></trkpt><trkpt lat="44.4090388" lon="9.3880605"><ele>132.0</ele><time>2026-03-22T13:11:33.682Z</time></trkpt><trkpt lat="44.40887" lon="9.3880359"><ele>132.0</ele><time>2026-03-22T13:11:34.683Z</time></trkpt><trkpt lat="44.4087126" lon="9.3879792"><ele>132.0</ele><time>2026-03-22T13:11:35.682Z</time></trkpt><trkpt lat="44.4085611" lon="9.387884"><ele>134.66666666666666</ele><time>2026-03-22T13:11:36.682Z</time></trkpt><trkpt lat="44.4084123" lon="9.3877588"><ele>137.33333333333331</ele><time>2026-03-22T13:11:37.682Z</time></trkpt><trkpt lat="44.4082491" lon="9.3876186"><ele>140.0</ele><time>2026-03-22T13:11:38.682Z</time></trkpt><trkpt lat="44.4080871" lon="9.3874704"><ele>136.33333333333331</ele><time>2026-03-22T13:11:39.682Z</time></trkpt><trkpt lat="44.4079236" lon="9.3873259"><ele>132.66666666666666</ele><time>2026-03-22T13:11:40.682Z</time></trkpt><trkpt lat="44.4077617" lon="9.3871804"><ele>129.0</ele><time>2026-03-22T13:11:41.682Z</time></trkpt><trkpt lat="44.4076027" lon="9.3870395"><ele>129.0</ele><time>2026-03-22T13:11:42.682Z</time></trkpt><trkpt lat="44.4074443" lon="9.3869174"><ele>129.0</ele><time>2026-03-22T13:11:43.682Z</time></trkpt><trkpt lat="44.4072676" lon="9.3868207"><ele>129.0</ele><time>2026-03-22T13:11:44.683Z</time></trkpt><trkpt lat="44.4070604" lon="9.3867615"><ele>128.33333333333334</ele><time>2026-03-22T13:11:45.682Z</time></trkpt><trkpt lat="44.4068693" lon="9.3867338"><ele>127.66666666666667</ele><time>2026-03-22T13:11:46.682Z</time></trkpt><trkpt lat="44.4066872" lon="9.3866968"><ele>127.0</ele><time>2026-03-22T13:11:47.683Z</time></trkpt><trkpt lat="44.4065268" lon="9.3866479"><ele>127.0</ele><time>2026-03-22T13:11:48.682Z</time></trkpt><trkpt lat="44.4063831" lon="9.3865597"><ele>127.0</ele><time>2026-03-22T13:11:49.682Z</time></trkpt><trkpt lat="44.4062525" lon="9.3864349"><ele>127.0</ele><time>2026-03-22T13:11:50.682Z</time></trkpt><trkpt lat="44.4061413" lon="9.3862719"><ele>125.5</ele><time>2026-03-22T13:11:51.682Z</time></trkpt><trkpt lat="44.4060584" lon="9.3860949"><ele>124.0</ele><time>2026-03-22T13:11:52.682Z</time></trkpt><trkpt lat="44.4059829" lon="9.3859184"><ele>122.5</ele><time>2026-03-22T13:11:53.683Z</time></trkpt><trkpt lat="44.4058964" lon="9.3857642"><ele>121.0</ele><time>2026-03-22T13:11:54.682Z</time></trkpt><trkpt lat="44.4057845" lon="9.3856361"><ele>126.66666666666667</ele><time>2026-03-22T13:11:55.683Z</time></trkpt><trkpt lat="44.4056732" lon="9.3855091"><ele>132.33333333333334</ele><time>2026-03-22T13:11:56.682Z</time></trkpt><trkpt lat="44.4054536" lon="9.385445"><ele>138.0</ele><time>2026-03-22T13:11:57.682Z</time></trkpt><trkpt lat="44.4052665" lon="9.3853426"><ele>138.66666666666666</ele><time>2026-03-22T13:11:58.682Z</time></trkpt><trkpt lat="44.4050777" lon="9.3852458"><ele>139.33333333333331</ele><time>2026-03-22T13:11:59.682Z</time></trkpt><trkpt lat="44.4048984" lon="9.3851572"><ele>140.0</ele><time>2026-03-22T13:12:00.682Z</time></trkpt><trkpt lat="44.4047237" lon="9.3850637"><ele>141.66666666666666</ele><time>2026-03-22T13:12:01.683Z</time></trkpt><trkpt lat="44.4045466" lon="9.38494"><ele>143.33333333333334</ele><time>2026-03-22T13:12:02.682Z</time></trkpt><trkpt lat="44.4043811" lon="9.38478"><ele>145.0</ele><time>2026-03-22T13:12:03.682Z</time></trkpt><trkpt lat="44.4042332" lon="9.3846153"><ele>145.0</ele><time>2026-03-22T13:12:04.683Z</time></trkpt><trkpt lat="44.4040907" lon="9.3844594"><ele>145.0</ele><time>2026-03-22T13:12:05.682Z</time></trkpt><trkpt lat="44.4039465" lon="9.3842898"><ele>145.0</ele><time>2026-03-22T13:12:06.682Z</time></trkpt><trkpt lat="44.4038492" lon="9.3841298"><ele>139.0</ele><time>2026-03-22T13:12:07.683Z</time></trkpt><trkpt lat="44.4037456" lon="9.3839077"><ele>133.0</ele><time>2026-03-22T13:12:08.682Z</time></trkpt><trkpt lat="44.4036599" lon="9.3836703"><ele>127.0</ele><time>2026-03-22T13:12:09.683Z</time></trkpt><trkpt lat="44.4035745" lon="9.3834335"><ele>127.0</ele><time>2026-03-22T13:12:10.682Z</time></trkpt><trkpt lat="44.4034698" lon="9.3832085"><ele>127.0</ele><time>2026-03-22T13:12:11.682Z</time></trkpt><trkpt lat="44.40334" lon="9.3829888"><ele>127.0</ele><time>2026-03-22T13:12:12.682Z</time></trkpt><trkpt lat="44.4032037" lon="9.3827856"><ele>126.33333333333334</ele><time>2026-03-22T13:12:13.682Z</time></trkpt><trkpt lat="44.4030605" lon="9.3826213"><ele>125.66666666666666</ele><time>2026-03-22T13:12:14.682Z</time></trkpt><trkpt lat="44.4029217" lon="9.3824477"><ele>125.0</ele><time>2026-03-22T13:12:15.681Z</time></trkpt><trkpt lat="44.4027853" lon="9.3822815"><ele>135.33333333333331</ele><time>2026-03-22T13:12:16.682Z</time></trkpt><trkpt lat="44.4026499" lon="9.3821224"><ele>145.66666666666666</ele><time>2026-03-22T13:12:17.682Z</time></trkpt><trkpt lat="44.4025014" lon="9.381994"><ele>156.0</ele><time>2026-03-22T13:12:18.682Z</time></trkpt><trkpt lat="44.4023168" lon="9.3819159"><ele>148.0</ele><time>2026-03-22T13:12:19.682Z</time></trkpt><trkpt lat="44.4021163" lon="9.3818891"><ele>140.0</ele><time>2026-03-22T13:12:20.682Z</time></trkpt><trkpt lat="44.4019404" lon="9.3818558"><ele>132.0</ele><time>2026-03-22T13:12:21.681Z</time></trkpt><trkpt lat="44.4017614" lon="9.3818272"><ele>132.0</ele><time>2026-03-22T13:12:22.681Z</time></trkpt><trkpt lat="44.4016225" lon="9.3817336"><ele>132.0</ele><time>2026-03-22T13:12:23.682Z</time></trkpt><trkpt lat="44.4014649" lon="9.3816871"><ele>132.0</ele><time>2026-03-22T13:12:24.683Z</time></trkpt><trkpt lat="44.401302" lon="9.3816836"><ele>129.66666666666666</ele><time>2026-03-22T13:12:25.682Z</time></trkpt><trkpt lat="44.4011361" lon="9.3816996"><ele>127.33333333333333</ele><time>2026-03-22T13:12:26.682Z</time></trkpt><trkpt lat="44.4009576" lon="9.3816993"><ele>125.0</ele><time>2026-03-22T13:12:27.682Z</time></trkpt><trkpt lat="44.4007651" lon="9.3816796"><ele>125.0</ele><time>2026-03-22T13:12:28.682Z</time></trkpt><trkpt lat="44.4005696" lon="9.3815638"><ele>125.0</ele><time>2026-03-22T13:12:29.682Z</time></trkpt><trkpt lat="44.4003675" lon="9.3814868"><ele>125.0</ele><time>2026-03-22T13:12:30.682Z</time></trkpt><trkpt lat="44.4001677" lon="9.3813966"><ele>127.33333333333333</ele><time>2026-03-22T13:12:31.682Z</time></trkpt><trkpt lat="44.3999602" lon="9.3813057"><ele>129.66666666666666</ele><time>2026-03-22T13:12:32.682Z</time></trkpt><trkpt lat="44.3997543" lon="9.3812208"><ele>132.0</ele><time>2026-03-22T13:12:33.682Z</time></trkpt><trkpt lat="44.3995407" lon="9.381152"><ele>127.0</ele><time>2026-03-22T13:12:34.681Z</time></trkpt><trkpt lat="44.3993395" lon="9.3810761"><ele>122.0</ele><time>2026-03-22T13:12:35.682Z</time></trkpt><trkpt lat="44.3991555" lon="9.3809928"><ele>117.0</ele><time>2026-03-22T13:12:36.682Z</time></trkpt><trkpt lat="44.3989937" lon="9.3809015"><ele>114.33333333333334</ele><time>2026-03-22T13:12:37.682Z</time></trkpt><trkpt lat="44.3988223" lon="9.3808076"><ele>111.66666666666667</ele><time>2026-03-22T13:12:38.682Z</time></trkpt><trkpt lat="44.398663" lon="9.3807136"><ele>109.0</ele><time>2026-03-22T13:12:39.682Z</time></trkpt><trkpt lat="44.3985075" lon="9.3806099"><ele>111.66666666666667</ele><time>2026-03-22T13:12:40.682Z</time></trkpt><trkpt lat="44.3983618" lon="9.380503"><ele>114.33333333333334</ele><time>2026-03-22T13:12:41.683Z</time></trkpt><trkpt lat="44.3982311" lon="9.3803743"><ele>117.0</ele><time>2026-03-22T13:12:42.682Z</time></trkpt><trkpt lat="44.3981117" lon="9.3802472"><ele>114.75</ele><time>2026-03-22T13:12:43.682Z</time></trkpt><trkpt lat="44.3979982" lon="9.3801238"><ele>112.5</ele><time>2026-03-22T13:12:44.682Z</time></trkpt><trkpt lat="44.3978874" lon="9.3800038"><ele>110.25</ele><time>2026-03-22T13:12:45.683Z</time></trkpt><trkpt lat="44.3977797" lon="9.3799002"><ele>108.0</ele><time>2026-03-22T13:12:46.682Z</time></trkpt><trkpt lat="44.3976665" lon="9.3798123"><ele>108.0</ele><time>2026-03-22T13:12:47.682Z</time></trkpt><trkpt lat="44.3975449" lon="9.3797488"><ele>108.0</ele><time>2026-03-22T13:12:48.683Z</time></trkpt><trkpt lat="44.3974156" lon="9.3797217"><ele>108.0</ele><time>2026-03-22T13:12:49.682Z</time></trkpt><trkpt lat="44.3972817" lon="9.3797287"><ele>108.0</ele><time>2026-03-22T13:12:50.682Z</time></trkpt><trkpt lat="44.3971516" lon="9.3797737"><ele>107.0</ele><time>2026-03-22T13:12:51.682Z</time></trkpt><trkpt lat="44.397033" lon="9.3798365"><ele>106.0</ele><time>2026-03-22T13:12:52.682Z</time></trkpt><trkpt lat="44.3969208" lon="9.3799415"><ele>105.0</ele><time>2026-03-22T13:12:53.682Z</time></trkpt><trkpt lat="44.396813" lon="9.3800275"><ele>104.0</ele><time>2026-03-22T13:12:54.682Z</time></trkpt><trkpt lat="44.3967143" lon="9.3801151"><ele>104.0</ele><time>2026-03-22T13:12:55.683Z</time></trkpt><trkpt lat="44.3966176" lon="9.3801888"><ele>104.0</ele><time>2026-03-22T13:12:56.682Z</time></trkpt><trkpt lat="44.3965271" lon="9.3802564"><ele>104.0</ele><time>2026-03-22T13:12:57.683Z</time></trkpt><trkpt lat="44.3964107" lon="9.3802558"><ele>104.0</ele><time>2026-03-22T13:12:58.682Z</time></trkpt><trkpt lat="44.396299" lon="9.3801951"><ele>104.0</ele><time>2026-03-22T13:12:59.682Z</time></trkpt><trkpt lat="44.3962051" lon="9.3800919"><ele>103.75</ele><time>2026-03-22T13:13:00.683Z</time></trkpt><trkpt lat="44.396145" lon="9.3799501"><ele>103.5</ele><time>2026-03-22T13:13:01.682Z</time></trkpt><trkpt lat="44.3960573" lon="9.3797956"><ele>103.25</ele><time>2026-03-22T13:13:02.682Z</time></trkpt><trkpt lat="44.3959442" lon="9.3796615"><ele>103.0</ele><time>2026-03-22T13:13:03.682Z</time></trkpt><trkpt lat="44.3958092" lon="9.3795635"><ele>103.0</ele><time>2026-03-22T13:13:04.683Z</time></trkpt><trkpt lat="44.3956679" lon="9.3794973"><ele>103.0</ele><time>2026-03-22T13:13:05.682Z</time></trkpt><trkpt lat="44.3955203" lon="9.379428"><ele>103.0</ele><time>2026-03-22T13:13:06.682Z</time></trkpt><trkpt lat="44.3953867" lon="9.3794258"><ele>103.0</ele><time>2026-03-22T13:13:07.683Z</time></trkpt><trkpt lat="44.3952487" lon="9.3794145"><ele>104.0</ele><time>2026-03-22T13:13:08.684Z</time></trkpt><trkpt lat="44.3951227" lon="9.3793917"><ele>105.0</ele><time>2026-03-22T13:13:09.682Z</time></trkpt><trkpt lat="44.3949927" lon="9.3793649"><ele>106.0</ele><time>2026-03-22T13:13:10.683Z</time></trkpt><trkpt lat="44.3948659" lon="9.3793353"><ele>107.0</ele><time>2026-03-22T13:13:11.682Z</time></trkpt><trkpt lat="44.3947381" lon="9.3792989"><ele>108.75</ele><time>2026-03-22T13:13:12.682Z</time></trkpt><trkpt lat="44.3946049" lon="9.3792535"><ele>110.5</ele><time>2026-03-22T13:13:13.681Z</time></trkpt><trkpt lat="44.3944735" lon="9.3792048"><ele>112.25</ele><time>2026-03-22T13:13:14.682Z</time></trkpt><trkpt lat="44.3943447" lon="9.3791493"><ele>114.0</ele><time>2026-03-22T13:13:15.682Z</time></trkpt><trkpt lat="44.3942202" lon="9.3791025"><ele>114.0</ele><time>2026-03-22T13:13:16.682Z</time></trkpt><trkpt lat="44.3940933" lon="9.3790614"><ele>114.0</ele><time>2026-03-22T13:13:17.682Z</time></trkpt><trkpt lat="44.3939752" lon="9.3790245"><ele>114.0</ele><time>2026-03-22T13:13:18.684Z</time></trkpt><trkpt lat="44.3938613" lon="9.3789944"><ele>114.0</ele><time>2026-03-22T13:13:19.682Z</time></trkpt><trkpt lat="44.3937502" lon="9.3789724"><ele>112.75</ele><time>2026-03-22T13:13:20.682Z</time></trkpt><trkpt lat="44.3936405" lon="9.3789488"><ele>111.5</ele><time>2026-03-22T13:13:21.682Z</time></trkpt><trkpt lat="44.3935162" lon="9.378944"><ele>110.25</ele><time>2026-03-22T13:13:22.682Z</time></trkpt><trkpt lat="44.3933683" lon="9.3788881"><ele>109.0</ele><time>2026-03-22T13:13:23.683Z</time></trkpt><trkpt lat="44.3932166" lon="9.3788595"><ele>109.0</ele><time>2026-03-22T13:13:24.683Z</time></trkpt><trkpt lat="44.3930938" lon="9.3788662"><ele>109.0</ele><time>2026-03-22T13:13:25.682Z</time></trkpt><trkpt lat="44.3929721" lon="9.378871"><ele>109.0</ele><time>2026-03-22T13:13:26.682Z</time></trkpt><trkpt lat="44.3928641" lon="9.3788781"><ele>109.0</ele><time>2026-03-22T13:13:27.683Z</time></trkpt><trkpt lat="44.3927504" lon="9.3788983"><ele>107.25</ele><time>2026-03-22T13:13:28.681Z</time></trkpt><trkpt lat="44.3926422" lon="9.3789164"><ele>105.5</ele><time>2026-03-22T13:13:29.682Z</time></trkpt><trkpt lat="44.3925337" lon="9.3789235"><ele>103.75</ele><time>2026-03-22T13:13:30.682Z</time></trkpt><trkpt lat="44.392422" lon="9.3789381"><ele>102.0</ele><time>2026-03-22T13:13:31.682Z</time></trkpt><trkpt lat="44.3922963" lon="9.3789402"><ele>102.0</ele><time>2026-03-22T13:13:32.683Z</time></trkpt><trkpt lat="44.3921994" lon="9.3789401"><ele>102.0</ele><time>2026-03-22T13:13:33.682Z</time></trkpt><trkpt lat="44.392104" lon="9.3789151"><ele>102.0</ele><time>2026-03-22T13:13:34.682Z</time></trkpt><trkpt lat="44.392021" lon="9.3788884"><ele>102.0</ele><time>2026-03-22T13:13:35.682Z</time></trkpt><trkpt lat="44.3919673" lon="9.3788147"><ele>102.0</ele><time>2026-03-22T13:13:36.681Z</time></trkpt><trkpt lat="44.391918" lon="9.3787593"><ele>102.0</ele><time>2026-03-22T13:13:37.683Z</time></trkpt><trkpt lat="44.3918482" lon="9.3786135"><ele>101.39999999999999</ele><time>2026-03-22T13:13:39.682Z</time></trkpt><trkpt lat="44.3918125" lon="9.3785162"><ele>100.8</ele><time>2026-03-22T13:13:40.682Z</time></trkpt><trkpt lat="44.3917496" lon="9.3784508"><ele>100.2</ele><time>2026-03-22T13:13:41.682Z</time></trkpt><trkpt lat="44.3916972" lon="9.3783755"><ele>99.6</ele><time>2026-03-22T13:13:42.682Z</time></trkpt><trkpt lat="44.3915928" lon="9.3782946"><ele>99.0</ele><time>2026-03-22T13:13:43.682Z</time></trkpt><trkpt lat="44.3914833" lon="9.3781582"><ele>99.0</ele><time>2026-03-22T13:13:44.682Z</time></trkpt><trkpt lat="44.3913733" lon="9.3780765"><ele>99.0</ele><time>2026-03-22T13:13:45.682Z</time></trkpt><trkpt lat="44.391264" lon="9.3780359"><ele>99.0</ele><time>2026-03-22T13:13:46.682Z</time></trkpt><trkpt lat="44.3911419" lon="9.3780103"><ele>99.0</ele><time>2026-03-22T13:13:47.682Z</time></trkpt><trkpt lat="44.3910192" lon="9.3780533"><ele>99.0</ele><time>2026-03-22T13:13:48.682Z</time></trkpt><trkpt lat="44.3908675" lon="9.3781189"><ele>99.0</ele><time>2026-03-22T13:13:49.683Z</time></trkpt><trkpt lat="44.3907053" lon="9.3783459"><ele>99.0</ele><time>2026-03-22T13:13:50.682Z</time></trkpt><trkpt lat="44.3905631" lon="9.3785363"><ele>98.0</ele><time>2026-03-22T13:13:51.682Z</time></trkpt><trkpt lat="44.3904227" lon="9.3786875"><ele>97.0</ele><time>2026-03-22T13:13:52.682Z</time></trkpt><trkpt lat="44.390286" lon="9.3788449"><ele>96.0</ele><time>2026-03-22T13:13:53.682Z</time></trkpt><trkpt lat="44.3901558" lon="9.3789949"><ele>96.0</ele><time>2026-03-22T13:13:54.682Z</time></trkpt><trkpt lat="44.3900201" lon="9.3791445"><ele>96.0</ele><time>2026-03-22T13:13:55.682Z</time></trkpt><trkpt lat="44.3898827" lon="9.3793006"><ele>96.0</ele><time>2026-03-22T13:13:56.682Z</time></trkpt><trkpt lat="44.3897434" lon="9.3794546"><ele>95.33333333333333</ele><time>2026-03-22T13:13:57.682Z</time></trkpt><trkpt lat="44.3895972" lon="9.3796095"><ele>94.66666666666666</ele><time>2026-03-22T13:13:58.682Z</time></trkpt><trkpt lat="44.3894445" lon="9.3797689"><ele>94.0</ele><time>2026-03-22T13:13:59.682Z</time></trkpt><trkpt lat="44.3892828" lon="9.379924"><ele>94.0</ele><time>2026-03-22T13:14:00.682Z</time></trkpt><trkpt lat="44.3891262" lon="9.3800665"><ele>94.0</ele><time>2026-03-22T13:14:01.682Z</time></trkpt><trkpt lat="44.388972" lon="9.3802136"><ele>94.0</ele><time>2026-03-22T13:14:02.682Z</time></trkpt><trkpt lat="44.3888334" lon="9.3803351"><ele>94.0</ele><time>2026-03-22T13:14:03.682Z</time></trkpt><trkpt lat="44.3886879" lon="9.380438"><ele>94.0</ele><time>2026-03-22T13:14:04.682Z</time></trkpt><trkpt lat="44.3885522" lon="9.3805446"><ele>94.0</ele><time>2026-03-22T13:14:05.681Z</time></trkpt><trkpt lat="44.3884127" lon="9.3806257"><ele>94.0</ele><time>2026-03-22T13:14:06.682Z</time></trkpt><trkpt lat="44.3882708" lon="9.3806833"><ele>94.0</ele><time>2026-03-22T13:14:07.682Z</time></trkpt><trkpt lat="44.3881228" lon="9.3807212"><ele>94.0</ele><time>2026-03-22T13:14:08.681Z</time></trkpt><trkpt lat="44.3879498" lon="9.3807431"><ele>94.0</ele><time>2026-03-22T13:14:09.681Z</time></trkpt><trkpt lat="44.3877302" lon="9.3806584"><ele>94.0</ele><time>2026-03-22T13:14:10.682Z</time></trkpt><trkpt lat="44.3875453" lon="9.3805812"><ele>94.0</ele><time>2026-03-22T13:14:11.682Z</time></trkpt><trkpt lat="44.3873843" lon="9.3805108"><ele>92.33333333333333</ele><time>2026-03-22T13:14:12.682Z</time></trkpt><trkpt lat="44.3872388" lon="9.3804287"><ele>90.66666666666667</ele><time>2026-03-22T13:14:13.682Z</time></trkpt><trkpt lat="44.3871026" lon="9.3803104"><ele>89.0</ele><time>2026-03-22T13:14:14.682Z</time></trkpt><trkpt lat="44.3870004" lon="9.3800791"><ele>89.0</ele><time>2026-03-22T13:14:15.682Z</time></trkpt><trkpt lat="44.3868983" lon="9.3798567"><ele>89.0</ele><time>2026-03-22T13:14:16.682Z</time></trkpt><trkpt lat="44.3867976" lon="9.3796649"><ele>89.0</ele><time>2026-03-22T13:14:17.682Z</time></trkpt><trkpt lat="44.3866768" lon="9.3794888"><ele>88.33333333333334</ele><time>2026-03-22T13:14:18.682Z</time></trkpt><trkpt lat="44.3865094" lon="9.3793365"><ele>87.66666666666667</ele><time>2026-03-22T13:14:19.683Z</time></trkpt><trkpt lat="44.3863346" lon="9.37919"><ele>87.0</ele><time>2026-03-22T13:14:20.682Z</time></trkpt><trkpt lat="44.3861656" lon="9.3790582"><ele>87.0</ele><time>2026-03-22T13:14:21.682Z</time></trkpt><trkpt lat="44.3860024" lon="9.3789354"><ele>87.0</ele><time>2026-03-22T13:14:22.682Z</time></trkpt><trkpt lat="44.3858418" lon="9.3788295"><ele>87.0</ele><time>2026-03-22T13:14:23.682Z</time></trkpt><trkpt lat="44.3856858" lon="9.378756"><ele>85.33333333333333</ele><time>2026-03-22T13:14:24.682Z</time></trkpt><trkpt lat="44.3855404" lon="9.3786924"><ele>83.66666666666666</ele><time>2026-03-22T13:14:25.683Z</time></trkpt><trkpt lat="44.3853903" lon="9.3786345"><ele>82.0</ele><time>2026-03-22T13:14:26.682Z</time></trkpt><trkpt lat="44.3852504" lon="9.3785819"><ele>82.0</ele><time>2026-03-22T13:14:27.682Z</time></trkpt><trkpt lat="44.3851087" lon="9.3785296"><ele>82.0</ele><time>2026-03-22T13:14:28.683Z</time></trkpt><trkpt lat="44.3849647" lon="9.3784762"><ele>82.0</ele><time>2026-03-22T13:14:29.682Z</time></trkpt><trkpt lat="44.384829" lon="9.37843"><ele>82.0</ele><time>2026-03-22T13:14:30.682Z</time></trkpt><trkpt lat="44.3846959" lon="9.3783801"><ele>83.75</ele><time>2026-03-22T13:14:31.682Z</time></trkpt><trkpt lat="44.3845761" lon="9.3783329"><ele>85.5</ele><time>2026-03-22T13:14:32.683Z</time></trkpt><trkpt lat="44.3844497" lon="9.3782791"><ele>87.25</ele><time>2026-03-22T13:14:33.682Z</time></trkpt><trkpt lat="44.3843353" lon="9.3782089"><ele>89.0</ele><time>2026-03-22T13:14:34.682Z</time></trkpt><trkpt lat="44.3842233" lon="9.378114"><ele>89.25</ele><time>2026-03-22T13:14:35.682Z</time></trkpt><trkpt lat="44.384112" lon="9.3779991"><ele>89.5</ele><time>2026-03-22T13:14:36.682Z</time></trkpt><trkpt lat="44.384005" lon="9.3778735"><ele>89.75</ele><time>2026-03-22T13:14:37.682Z</time></trkpt><trkpt lat="44.3838978" lon="9.377758"><ele>90.0</ele><time>2026-03-22T13:14:38.682Z</time></trkpt><trkpt lat="44.3837889" lon="9.3776281"><ele>90.0</ele><time>2026-03-22T13:14:39.682Z</time></trkpt><trkpt lat="44.3836801" lon="9.3774989"><ele>90.0</ele><time>2026-03-22T13:14:40.682Z</time></trkpt><trkpt lat="44.383566" lon="9.3773692"><ele>90.0</ele><time>2026-03-22T13:14:41.682Z</time></trkpt><trkpt lat="44.3834418" lon="9.3772319"><ele>90.0</ele><time>2026-03-22T13:14:42.682Z</time></trkpt><trkpt lat="44.3833252" lon="9.3770983"><ele>86.66666666666667</ele><time>2026-03-22T13:14:43.682Z</time></trkpt><trkpt lat="44.3832057" lon="9.3769582"><ele>83.33333333333334</ele><time>2026-03-22T13:14:44.682Z</time></trkpt><trkpt lat="44.3830798" lon="9.3768233"><ele>80.0</ele><time>2026-03-22T13:14:45.682Z</time></trkpt><trkpt lat="44.3829525" lon="9.3766771"><ele>80.0</ele><time>2026-03-22T13:14:46.682Z</time></trkpt><trkpt lat="44.3828309" lon="9.3765336"><ele>80.0</ele><time>2026-03-22T13:14:47.682Z</time></trkpt><trkpt lat="44.382709" lon="9.3763893"><ele>80.0</ele><time>2026-03-22T13:14:48.682Z</time></trkpt><trkpt lat="44.3825886" lon="9.3762464"><ele>78.0</ele><time>2026-03-22T13:14:49.682Z</time></trkpt><trkpt lat="44.3824638" lon="9.3761087"><ele>76.0</ele><time>2026-03-22T13:14:50.682Z</time></trkpt><trkpt lat="44.3823344" lon="9.3759668"><ele>74.0</ele><time>2026-03-22T13:14:51.682Z</time></trkpt><trkpt lat="44.382212" lon="9.3758229"><ele>80.66666666666667</ele><time>2026-03-22T13:14:52.682Z</time></trkpt><trkpt lat="44.3821046" lon="9.3756616"><ele>87.33333333333333</ele><time>2026-03-22T13:14:53.682Z</time></trkpt><trkpt lat="44.3820137" lon="9.3754594"><ele>94.0</ele><time>2026-03-22T13:14:54.682Z</time></trkpt><trkpt lat="44.3819402" lon="9.3752182"><ele>94.0</ele><time>2026-03-22T13:14:55.682Z</time></trkpt><trkpt lat="44.3818776" lon="9.3749555"><ele>94.0</ele><time>2026-03-22T13:14:56.682Z</time></trkpt><trkpt lat="44.3818051" lon="9.3747127"><ele>94.0</ele><time>2026-03-22T13:14:57.682Z</time></trkpt><trkpt lat="44.3817164" lon="9.3744901"><ele>89.0</ele><time>2026-03-22T13:14:58.682Z</time></trkpt><trkpt lat="44.3816328" lon="9.3742878"><ele>84.0</ele><time>2026-03-22T13:14:59.682Z</time></trkpt><trkpt lat="44.381557" lon="9.374098"><ele>79.0</ele><time>2026-03-22T13:15:00.682Z</time></trkpt><trkpt lat="44.381489" lon="9.3739162"><ele>75.66666666666666</ele><time>2026-03-22T13:15:01.682Z</time></trkpt><trkpt lat="44.3814317" lon="9.373728"><ele>72.33333333333333</ele><time>2026-03-22T13:15:02.682Z</time></trkpt><trkpt lat="44.38137" lon="9.3735277"><ele>69.0</ele><time>2026-03-22T13:15:03.682Z</time></trkpt><trkpt lat="44.3813" lon="9.3733236"><ele>71.33333333333333</ele><time>2026-03-22T13:15:04.682Z</time></trkpt><trkpt lat="44.3812088" lon="9.3731222"><ele>73.66666666666666</ele><time>2026-03-22T13:15:05.682Z</time></trkpt><trkpt lat="44.3810869" lon="9.372916"><ele>76.0</ele><time>2026-03-22T13:15:06.681Z</time></trkpt><trkpt lat="44.3809561" lon="9.3727199"><ele>76.0</ele><time>2026-03-22T13:15:07.682Z</time></trkpt><trkpt lat="44.3808248" lon="9.3725309"><ele>76.0</ele><time>2026-03-22T13:15:08.682Z</time></trkpt><trkpt lat="44.3806969" lon="9.372359"><ele>76.0</ele><time>2026-03-22T13:15:09.682Z</time></trkpt><trkpt lat="44.3805867" lon="9.3721867"><ele>80.66666666666666</ele><time>2026-03-22T13:15:10.682Z</time></trkpt><trkpt lat="44.3804697" lon="9.3720265"><ele>85.33333333333333</ele><time>2026-03-22T13:15:11.682Z</time></trkpt><trkpt lat="44.3803586" lon="9.3718739"><ele>90.0</ele><time>2026-03-22T13:15:12.682Z</time></trkpt><trkpt lat="44.3802437" lon="9.371721"><ele>90.0</ele><time>2026-03-22T13:15:13.683Z</time></trkpt><trkpt lat="44.380133" lon="9.371577"><ele>90.0</ele><time>2026-03-22T13:15:14.682Z</time></trkpt><trkpt lat="44.3800247" lon="9.3714281"><ele>90.0</ele><time>2026-03-22T13:15:15.682Z</time></trkpt><trkpt lat="44.3799137" lon="9.3712702"><ele>93.0</ele><time>2026-03-22T13:15:16.682Z</time></trkpt><trkpt lat="44.3797942" lon="9.3711137"><ele>96.0</ele><time>2026-03-22T13:15:17.683Z</time></trkpt><trkpt lat="44.3796881" lon="9.3709685"><ele>99.0</ele><time>2026-03-22T13:15:18.682Z</time></trkpt><trkpt lat="44.3795763" lon="9.3708297"><ele>99.0</ele><time>2026-03-22T13:15:19.682Z</time></trkpt><trkpt lat="44.3794717" lon="9.3706737"><ele>99.0</ele><time>2026-03-22T13:15:20.682Z</time></trkpt><trkpt lat="44.3793719" lon="9.3705133"><ele>99.0</ele><time>2026-03-22T13:15:21.682Z</time></trkpt><trkpt lat="44.3792572" lon="9.3703559"><ele>91.66666666666667</ele><time>2026-03-22T13:15:22.683Z</time></trkpt><trkpt lat="44.3791441" lon="9.3701943"><ele>84.33333333333334</ele><time>2026-03-22T13:15:23.682Z</time></trkpt><trkpt lat="44.3790285" lon="9.3700121"><ele>77.0</ele><time>2026-03-22T13:15:24.682Z</time></trkpt><trkpt lat="44.3789129" lon="9.3698438"><ele>78.66666666666667</ele><time>2026-03-22T13:15:25.681Z</time></trkpt><trkpt lat="44.3787873" lon="9.3696599"><ele>80.33333333333333</ele><time>2026-03-22T13:15:26.682Z</time></trkpt><trkpt lat="44.3786572" lon="9.369473"><ele>82.0</ele><time>2026-03-22T13:15:27.682Z</time></trkpt><trkpt lat="44.3785286" lon="9.3692761"><ele>82.0</ele><time>2026-03-22T13:15:28.682Z</time></trkpt><trkpt lat="44.3784021" lon="9.3690729"><ele>82.0</ele><time>2026-03-22T13:15:29.682Z</time></trkpt><trkpt lat="44.3782833" lon="9.3688842"><ele>82.0</ele><time>2026-03-22T13:15:30.682Z</time></trkpt><trkpt lat="44.3781616" lon="9.3687012"><ele>76.66666666666666</ele><time>2026-03-22T13:15:31.681Z</time></trkpt><trkpt lat="44.3780371" lon="9.3685278"><ele>71.33333333333333</ele><time>2026-03-22T13:15:32.682Z</time></trkpt><trkpt lat="44.3779171" lon="9.3683533"><ele>66.0</ele><time>2026-03-22T13:15:33.682Z</time></trkpt><trkpt lat="44.3778171" lon="9.3681395"><ele>68.33333333333333</ele><time>2026-03-22T13:15:34.682Z</time></trkpt><trkpt lat="44.3777118" lon="9.3679297"><ele>70.66666666666666</ele><time>2026-03-22T13:15:35.683Z</time></trkpt><trkpt lat="44.3775815" lon="9.3677335"><ele>73.0</ele><time>2026-03-22T13:15:36.682Z</time></trkpt><trkpt lat="44.3774618" lon="9.3675362"><ele>73.0</ele><time>2026-03-22T13:15:37.682Z</time></trkpt><trkpt lat="44.3773447" lon="9.3673604"><ele>73.0</ele><time>2026-03-22T13:15:38.682Z</time></trkpt><trkpt lat="44.3771828" lon="9.3672258"><ele>73.0</ele><time>2026-03-22T13:15:39.682Z</time></trkpt><trkpt lat="44.3770375" lon="9.3670749"><ele>75.0</ele><time>2026-03-22T13:15:40.682Z</time></trkpt><trkpt lat="44.3768536" lon="9.3669521"><ele>77.0</ele><time>2026-03-22T13:15:41.682Z</time></trkpt><trkpt lat="44.3767073" lon="9.3667621"><ele>79.0</ele><time>2026-03-22T13:15:42.682Z</time></trkpt><trkpt lat="44.376574" lon="9.3665782"><ele>79.0</ele><time>2026-03-22T13:15:43.682Z</time></trkpt><trkpt lat="44.3764511" lon="9.3664088"><ele>79.0</ele><time>2026-03-22T13:15:44.682Z</time></trkpt><trkpt lat="44.376309" lon="9.3662554"><ele>79.0</ele><time>2026-03-22T13:15:45.682Z</time></trkpt><trkpt lat="44.3761675" lon="9.3661353"><ele>81.66666666666666</ele><time>2026-03-22T13:15:46.682Z</time></trkpt><trkpt lat="44.3760403" lon="9.3660228"><ele>84.33333333333333</ele><time>2026-03-22T13:15:47.683Z</time></trkpt><trkpt lat="44.3758899" lon="9.3659244"><ele>87.0</ele><time>2026-03-22T13:15:48.682Z</time></trkpt><trkpt lat="44.3757518" lon="9.3658115"><ele>87.0</ele><time>2026-03-22T13:15:49.682Z</time></trkpt><trkpt lat="44.3757111" lon="9.3655522"><ele>87.0</ele><time>2026-03-22T13:15:50.681Z</time></trkpt><trkpt lat="44.3756146" lon="9.3653533"><ele>87.0</ele><time>2026-03-22T13:15:51.682Z</time></trkpt><trkpt lat="44.3755285" lon="9.3651519"><ele>84.66666666666667</ele><time>2026-03-22T13:15:52.682Z</time></trkpt><trkpt lat="44.3754407" lon="9.3649251"><ele>82.33333333333334</ele><time>2026-03-22T13:15:53.682Z</time></trkpt><trkpt lat="44.3752608" lon="9.3647725"><ele>80.0</ele><time>2026-03-22T13:15:54.682Z</time></trkpt><trkpt lat="44.3751161" lon="9.3646154"><ele>80.0</ele><time>2026-03-22T13:15:55.682Z</time></trkpt><trkpt lat="44.3749577" lon="9.3644699"><ele>80.0</ele><time>2026-03-22T13:15:56.683Z</time></trkpt><trkpt lat="44.3748236" lon="9.3643647"><ele>80.0</ele><time>2026-03-22T13:15:57.682Z</time></trkpt><trkpt lat="44.374711" lon="9.3642535"><ele>82.5</ele><time>2026-03-22T13:15:58.682Z</time></trkpt><trkpt lat="44.3746148" lon="9.3641156"><ele>85.0</ele><time>2026-03-22T13:15:59.682Z</time></trkpt><trkpt lat="44.3745515" lon="9.3639471"><ele>87.5</ele><time>2026-03-22T13:16:00.682Z</time></trkpt><trkpt lat="44.3745095" lon="9.3637731"><ele>90.0</ele><time>2026-03-22T13:16:01.683Z</time></trkpt><trkpt lat="44.3744704" lon="9.3635911"><ele>90.0</ele><time>2026-03-22T13:16:02.682Z</time></trkpt><trkpt lat="44.3743659" lon="9.3634039"><ele>90.0</ele><time>2026-03-22T13:16:03.682Z</time></trkpt><trkpt lat="44.3742736" lon="9.3632161"><ele>90.0</ele><time>2026-03-22T13:16:04.682Z</time></trkpt><trkpt lat="44.3740923" lon="9.3630821"><ele>92.66666666666666</ele><time>2026-03-22T13:16:05.682Z</time></trkpt><trkpt lat="44.3739475" lon="9.3629568"><ele>95.33333333333333</ele><time>2026-03-22T13:16:06.682Z</time></trkpt><trkpt lat="44.3738152" lon="9.3628412"><ele>98.0</ele><time>2026-03-22T13:16:07.683Z</time></trkpt><trkpt lat="44.373675" lon="9.3627314"><ele>98.0</ele><time>2026-03-22T13:16:08.682Z</time></trkpt><trkpt lat="44.3735444" lon="9.3626294"><ele>98.0</ele><time>2026-03-22T13:16:09.682Z</time></trkpt><trkpt lat="44.3734347" lon="9.3625584"><ele>98.0</ele><time>2026-03-22T13:16:10.682Z</time></trkpt><trkpt lat="44.3734998" lon="9.3623508"><ele>98.0</ele><time>2026-03-22T13:16:11.682Z</time></trkpt><trkpt lat="44.3735129" lon="9.3621739"><ele>96.66666666666666</ele><time>2026-03-22T13:16:12.682Z</time></trkpt><trkpt lat="44.3735273" lon="9.3619636"><ele>95.33333333333333</ele><time>2026-03-22T13:16:13.682Z</time></trkpt><trkpt lat="44.3735725" lon="9.3617693"><ele>94.0</ele><time>2026-03-22T13:16:14.682Z</time></trkpt><trkpt lat="44.373669" lon="9.3615388"><ele>89.25</ele><time>2026-03-22T13:16:15.682Z</time></trkpt><trkpt lat="44.3737245" lon="9.3613611"><ele>84.5</ele><time>2026-03-22T13:16:16.682Z</time></trkpt><trkpt lat="44.3737871" lon="9.3611817"><ele>79.75</ele><time>2026-03-22T13:16:17.682Z</time></trkpt><trkpt lat="44.3737418" lon="9.3610197"><ele>75.0</ele><time>2026-03-22T13:16:18.682Z</time></trkpt><trkpt lat="44.3737132" lon="9.3608655"><ele>75.0</ele><time>2026-03-22T13:16:19.682Z</time></trkpt><trkpt lat="44.3736309" lon="9.3607605"><ele>75.0</ele><time>2026-03-22T13:16:20.682Z</time></trkpt><trkpt lat="44.3734533" lon="9.3607596"><ele>75.0</ele><time>2026-03-22T13:16:21.683Z</time></trkpt><trkpt lat="44.3733044" lon="9.3607436"><ele>75.0</ele><time>2026-03-22T13:16:22.682Z</time></trkpt><trkpt lat="44.373114" lon="9.3607803"><ele>77.66666666666667</ele><time>2026-03-22T13:16:23.683Z</time></trkpt><trkpt lat="44.372922" lon="9.3608228"><ele>80.33333333333334</ele><time>2026-03-22T13:16:24.682Z</time></trkpt><trkpt lat="44.3727134" lon="9.3608071"><ele>83.0</ele><time>2026-03-22T13:16:25.682Z</time></trkpt><trkpt lat="44.3725096" lon="9.3608097"><ele>83.0</ele><time>2026-03-22T13:16:26.683Z</time></trkpt><trkpt lat="44.3722829" lon="9.3608221"><ele>83.0</ele><time>2026-03-22T13:16:27.683Z</time></trkpt><trkpt lat="44.3720749" lon="9.3608159"><ele>83.0</ele><time>2026-03-22T13:16:28.682Z</time></trkpt><trkpt lat="44.3718814" lon="9.3607927"><ele>87.0</ele><time>2026-03-22T13:16:29.682Z</time></trkpt><trkpt lat="44.3717032" lon="9.3607685"><ele>91.0</ele><time>2026-03-22T13:16:30.682Z</time></trkpt><trkpt lat="44.3715479" lon="9.3607451"><ele>95.0</ele><time>2026-03-22T13:16:31.683Z</time></trkpt><trkpt lat="44.3713956" lon="9.3607035"><ele>101.33333333333334</ele><time>2026-03-22T13:16:32.682Z</time></trkpt><trkpt lat="44.3712886" lon="9.3605577"><ele>107.66666666666667</ele><time>2026-03-22T13:16:33.682Z</time></trkpt><trkpt lat="44.3711663" lon="9.3604418"><ele>114.0</ele><time>2026-03-22T13:16:34.682Z</time></trkpt><trkpt lat="44.3711586" lon="9.3601685"><ele>114.0</ele><time>2026-03-22T13:16:35.683Z</time></trkpt><trkpt lat="44.371113" lon="9.3599855"><ele>114.0</ele><time>2026-03-22T13:16:36.682Z</time></trkpt><trkpt lat="44.3710569" lon="9.3597699"><ele>114.0</ele><time>2026-03-22T13:16:37.682Z</time></trkpt><trkpt lat="44.3709919" lon="9.359542"><ele>112.5</ele><time>2026-03-22T13:16:38.682Z</time></trkpt><trkpt lat="44.3709399" lon="9.359334"><ele>111.0</ele><time>2026-03-22T13:16:39.682Z</time></trkpt><trkpt lat="44.3708815" lon="9.3591782"><ele>109.5</ele><time>2026-03-22T13:16:40.682Z</time></trkpt><trkpt lat="44.3708499" lon="9.3589965"><ele>108.0</ele><time>2026-03-22T13:16:41.682Z</time></trkpt><trkpt lat="44.3708241" lon="9.3588208"><ele>106.25</ele><time>2026-03-22T13:16:42.682Z</time></trkpt><trkpt lat="44.3708857" lon="9.3586179"><ele>104.5</ele><time>2026-03-22T13:16:43.682Z</time></trkpt><trkpt lat="44.3709147" lon="9.358406"><ele>102.75</ele><time>2026-03-22T13:16:44.682Z</time></trkpt><trkpt lat="44.3709398" lon="9.3582224"><ele>101.0</ele><time>2026-03-22T13:16:45.683Z</time></trkpt><trkpt lat="44.3709579" lon="9.3580456"><ele>99.0</ele><time>2026-03-22T13:16:46.682Z</time></trkpt><trkpt lat="44.3709825" lon="9.3578815"><ele>97.0</ele><time>2026-03-22T13:16:47.682Z</time></trkpt><trkpt lat="44.3709903" lon="9.3577083"><ele>95.0</ele><time>2026-03-22T13:16:48.683Z</time></trkpt><trkpt lat="44.370954" lon="9.3575541"><ele>93.0</ele><time>2026-03-22T13:16:49.682Z</time></trkpt><trkpt lat="44.3709191" lon="9.3574105"><ele>93.0</ele><time>2026-03-22T13:16:50.682Z</time></trkpt><trkpt lat="44.3708641" lon="9.3572606"><ele>93.0</ele><time>2026-03-22T13:16:51.682Z</time></trkpt><trkpt lat="44.3707931" lon="9.3571024"><ele>93.0</ele><time>2026-03-22T13:16:52.682Z</time></trkpt><trkpt lat="44.370722" lon="9.3569552"><ele>93.0</ele><time>2026-03-22T13:16:53.682Z</time></trkpt><trkpt lat="44.3706149" lon="9.3568424"><ele>92.0</ele><time>2026-03-22T13:16:54.683Z</time></trkpt><trkpt lat="44.3704984" lon="9.3567337"><ele>91.0</ele><time>2026-03-22T13:16:55.682Z</time></trkpt><trkpt lat="44.3703685" lon="9.3566658"><ele>90.0</ele><time>2026-03-22T13:16:56.682Z</time></trkpt><trkpt lat="44.3701944" lon="9.3566125"><ele>90.0</ele><time>2026-03-22T13:16:57.682Z</time></trkpt><trkpt lat="44.3699775" lon="9.3565882"><ele>90.0</ele><time>2026-03-22T13:16:58.683Z</time></trkpt><trkpt lat="44.3698054" lon="9.3565654"><ele>90.0</ele><time>2026-03-22T13:16:59.682Z</time></trkpt><trkpt lat="44.369631" lon="9.3564828"><ele>90.0</ele><time>2026-03-22T13:17:00.682Z</time></trkpt><trkpt lat="44.3694568" lon="9.356388"><ele>90.0</ele><time>2026-03-22T13:17:01.683Z</time></trkpt><trkpt lat="44.3693" lon="9.3562894"><ele>90.0</ele><time>2026-03-22T13:17:02.682Z</time></trkpt><trkpt lat="44.3691516" lon="9.3562079"><ele>83.33333333333333</ele><time>2026-03-22T13:17:03.682Z</time></trkpt><trkpt lat="44.3689971" lon="9.3561357"><ele>76.66666666666666</ele><time>2026-03-22T13:17:04.682Z</time></trkpt><trkpt lat="44.3688571" lon="9.3560955"><ele>70.0</ele><time>2026-03-22T13:17:05.682Z</time></trkpt><trkpt lat="44.3687125" lon="9.3560556"><ele>70.0</ele><time>2026-03-22T13:17:06.682Z</time></trkpt><trkpt lat="44.368586" lon="9.3560989"><ele>70.0</ele><time>2026-03-22T13:17:07.682Z</time></trkpt><trkpt lat="44.3684769" lon="9.3561996"><ele>70.0</ele><time>2026-03-22T13:17:08.682Z</time></trkpt><trkpt lat="44.3683269" lon="9.3564014"><ele>69.66666666666666</ele><time>2026-03-22T13:17:09.682Z</time></trkpt><trkpt lat="44.368176" lon="9.3565658"><ele>69.33333333333333</ele><time>2026-03-22T13:17:10.682Z</time></trkpt><trkpt lat="44.3680235" lon="9.3566321"><ele>69.0</ele><time>2026-03-22T13:17:11.682Z</time></trkpt><trkpt lat="44.3678761" lon="9.3566806"><ele>69.0</ele><time>2026-03-22T13:17:12.683Z</time></trkpt><trkpt lat="44.3677227" lon="9.3567087"><ele>69.0</ele><time>2026-03-22T13:17:13.682Z</time></trkpt><trkpt lat="44.367571" lon="9.3567414"><ele>69.0</ele><time>2026-03-22T13:17:14.682Z</time></trkpt><trkpt lat="44.3674165" lon="9.3567708"><ele>69.0</ele><time>2026-03-22T13:17:15.682Z</time></trkpt><trkpt lat="44.3672657" lon="9.3568003"><ele>69.0</ele><time>2026-03-22T13:17:16.682Z</time></trkpt><trkpt lat="44.3671145" lon="9.3568382"><ele>69.0</ele><time>2026-03-22T13:17:17.682Z</time></trkpt><trkpt lat="44.3669743" lon="9.3569004"><ele>68.33333333333333</ele><time>2026-03-22T13:17:18.681Z</time></trkpt><trkpt lat="44.3668302" lon="9.3569847"><ele>67.66666666666666</ele><time>2026-03-22T13:17:19.682Z</time></trkpt><trkpt lat="44.3666877" lon="9.3570915"><ele>67.0</ele><time>2026-03-22T13:17:20.682Z</time></trkpt><trkpt lat="44.3665197" lon="9.3572237"><ele>63.33333333333333</ele><time>2026-03-22T13:17:21.681Z</time></trkpt><trkpt lat="44.3663579" lon="9.3573489"><ele>59.66666666666667</ele><time>2026-03-22T13:17:22.681Z</time></trkpt><trkpt lat="44.366208" lon="9.3574711"><ele>56.0</ele><time>2026-03-22T13:17:23.681Z</time></trkpt><trkpt lat="44.3660637" lon="9.3575662"><ele>56.0</ele><time>2026-03-22T13:17:24.682Z</time></trkpt><trkpt lat="44.365914" lon="9.3576294"><ele>56.0</ele><time>2026-03-22T13:17:25.682Z</time></trkpt><trkpt lat="44.3657302" lon="9.3576514"><ele>56.0</ele><time>2026-03-22T13:17:26.682Z</time></trkpt><trkpt lat="44.365543" lon="9.3576464"><ele>54.66666666666667</ele><time>2026-03-22T13:17:27.683Z</time></trkpt><trkpt lat="44.3653714" lon="9.3576349"><ele>53.33333333333333</ele><time>2026-03-22T13:17:28.682Z</time></trkpt><trkpt lat="44.3651998" lon="9.3576209"><ele>52.0</ele><time>2026-03-22T13:17:29.682Z</time></trkpt><trkpt lat="44.365028" lon="9.3576072"><ele>52.0</ele><time>2026-03-22T13:17:30.683Z</time></trkpt><trkpt lat="44.3648522" lon="9.3575916"><ele>52.0</ele><time>2026-03-22T13:17:31.682Z</time></trkpt><trkpt lat="44.3646766" lon="9.3575733"><ele>52.0</ele><time>2026-03-22T13:17:32.682Z</time></trkpt><trkpt lat="44.3644907" lon="9.357556"><ele>50.0</ele><time>2026-03-22T13:17:33.682Z</time></trkpt><trkpt lat="44.3643048" lon="9.357541"><ele>48.0</ele><time>2026-03-22T13:17:34.683Z</time></trkpt><trkpt lat="44.364122" lon="9.3575178"><ele>46.0</ele><time>2026-03-22T13:17:35.682Z</time></trkpt><trkpt lat="44.3639374" lon="9.3575004"><ele>46.66666666666667</ele><time>2026-03-22T13:17:36.682Z</time></trkpt><trkpt lat="44.3637437" lon="9.3574809"><ele>47.333333333333336</ele><time>2026-03-22T13:17:37.682Z</time></trkpt><trkpt lat="44.3635505" lon="9.3574592"><ele>48.0</ele><time>2026-03-22T13:17:38.682Z</time></trkpt><trkpt lat="44.3633616" lon="9.3574307"><ele>48.0</ele><time>2026-03-22T13:17:39.682Z</time></trkpt><trkpt lat="44.3631738" lon="9.3574099"><ele>48.0</ele><time>2026-03-22T13:17:40.683Z</time></trkpt><trkpt lat="44.3629911" lon="9.357391"><ele>48.0</ele><time>2026-03-22T13:17:41.682Z</time></trkpt><trkpt lat="44.362804" lon="9.3573831"><ele>53.0</ele><time>2026-03-22T13:17:42.682Z</time></trkpt><trkpt lat="44.3626198" lon="9.3573743"><ele>58.0</ele><time>2026-03-22T13:17:43.682Z</time></trkpt><trkpt lat="44.3624441" lon="9.3573659"><ele>63.0</ele><time>2026-03-22T13:17:44.682Z</time></trkpt><trkpt lat="44.3622765" lon="9.3573393"><ele>61.33333333333333</ele><time>2026-03-22T13:17:45.683Z</time></trkpt><trkpt lat="44.3621062" lon="9.3572918"><ele>59.666666666666664</ele><time>2026-03-22T13:17:46.682Z</time></trkpt><trkpt lat="44.3619517" lon="9.357179"><ele>58.0</ele><time>2026-03-22T13:17:47.681Z</time></trkpt><trkpt lat="44.3617818" lon="9.3570719"><ele>58.0</ele><time>2026-03-22T13:17:48.682Z</time></trkpt><trkpt lat="44.3616209" lon="9.3569075"><ele>58.0</ele><time>2026-03-22T13:17:49.682Z</time></trkpt><trkpt lat="44.3614896" lon="9.3566818"><ele>58.0</ele><time>2026-03-22T13:17:50.682Z</time></trkpt><trkpt lat="44.3615637" lon="9.35632"><ele>54.33333333333333</ele><time>2026-03-22T13:17:51.682Z</time></trkpt><trkpt lat="44.3614964" lon="9.3560761"><ele>50.666666666666664</ele><time>2026-03-22T13:17:52.682Z</time></trkpt><trkpt lat="44.3614323" lon="9.3558308"><ele>47.0</ele><time>2026-03-22T13:17:53.682Z</time></trkpt><trkpt lat="44.3613291" lon="9.3555788"><ele>55.33333333333333</ele><time>2026-03-22T13:17:54.682Z</time></trkpt><trkpt lat="44.361233" lon="9.355348"><ele>63.666666666666664</ele><time>2026-03-22T13:17:55.682Z</time></trkpt><trkpt lat="44.3611338" lon="9.3551152"><ele>72.0</ele><time>2026-03-22T13:17:56.682Z</time></trkpt><trkpt lat="44.3610229" lon="9.3548919"><ele>64.66666666666667</ele><time>2026-03-22T13:17:57.682Z</time></trkpt><trkpt lat="44.3609327" lon="9.3546395"><ele>57.333333333333336</ele><time>2026-03-22T13:17:58.683Z</time></trkpt><trkpt lat="44.3608465" lon="9.3543916"><ele>50.0</ele><time>2026-03-22T13:17:59.682Z</time></trkpt><trkpt lat="44.3607634" lon="9.354155"><ele>50.0</ele><time>2026-03-22T13:18:00.682Z</time></trkpt><trkpt lat="44.360688" lon="9.3539205"><ele>50.0</ele><time>2026-03-22T13:18:01.682Z</time></trkpt><trkpt lat="44.3606072" lon="9.353698"><ele>50.0</ele><time>2026-03-22T13:18:02.682Z</time></trkpt><trkpt lat="44.3605119" lon="9.3534822"><ele>57.5</ele><time>2026-03-22T13:18:03.682Z</time></trkpt><trkpt lat="44.3604033" lon="9.3532466"><ele>65.0</ele><time>2026-03-22T13:18:04.682Z</time></trkpt><trkpt lat="44.3601866" lon="9.3530427"><ele>56.66666666666667</ele><time>2026-03-22T13:18:05.682Z</time></trkpt><trkpt lat="44.360018" lon="9.3528409"><ele>48.333333333333336</ele><time>2026-03-22T13:18:06.683Z</time></trkpt><trkpt lat="44.3598552" lon="9.3526468"><ele>40.0</ele><time>2026-03-22T13:18:07.682Z</time></trkpt><trkpt lat="44.359707" lon="9.3524539"><ele>40.0</ele><time>2026-03-22T13:18:08.682Z</time></trkpt><trkpt lat="44.3595575" lon="9.3522676"><ele>40.0</ele><time>2026-03-22T13:18:09.682Z</time></trkpt><trkpt lat="44.3594291" lon="9.3520498"><ele>40.0</ele><time>2026-03-22T13:18:10.682Z</time></trkpt><trkpt lat="44.359292" lon="9.3518348"><ele>40.0</ele><time>2026-03-22T13:18:11.682Z</time></trkpt><trkpt lat="44.3591597" lon="9.3516039"><ele>40.0</ele><time>2026-03-22T13:18:12.682Z</time></trkpt><trkpt lat="44.3590578" lon="9.3513782"><ele>40.0</ele><time>2026-03-22T13:18:13.682Z</time></trkpt><trkpt lat="44.3589571" lon="9.3511618"><ele>40.66666666666667</ele><time>2026-03-22T13:18:14.683Z</time></trkpt><trkpt lat="44.3588631" lon="9.3509591"><ele>41.333333333333336</ele><time>2026-03-22T13:18:15.681Z</time></trkpt><trkpt lat="44.3587619" lon="9.3507674"><ele>42.0</ele><time>2026-03-22T13:18:16.682Z</time></trkpt><trkpt lat="44.3586379" lon="9.3505996"><ele>40.0</ele><time>2026-03-22T13:18:17.682Z</time></trkpt><trkpt lat="44.3584872" lon="9.3504653"><ele>38.0</ele><time>2026-03-22T13:18:18.682Z</time></trkpt><trkpt lat="44.3583182" lon="9.3503798"><ele>36.0</ele><time>2026-03-22T13:18:19.683Z</time></trkpt><trkpt lat="44.3581427" lon="9.3503213"><ele>34.5</ele><time>2026-03-22T13:18:20.682Z</time></trkpt><trkpt lat="44.3579106" lon="9.3503594"><ele>33.0</ele><time>2026-03-22T13:18:21.682Z</time></trkpt><trkpt lat="44.3576817" lon="9.3504078"><ele>33.0</ele><time>2026-03-22T13:18:22.682Z</time></trkpt><trkpt lat="44.3574749" lon="9.3504583"><ele>33.0</ele><time>2026-03-22T13:18:23.682Z</time></trkpt><trkpt lat="44.357273" lon="9.3505129"><ele>33.0</ele><time>2026-03-22T13:18:24.682Z</time></trkpt><trkpt lat="44.3570799" lon="9.3505333"><ele>34.0</ele><time>2026-03-22T13:18:25.682Z</time></trkpt><trkpt lat="44.3568906" lon="9.3505209"><ele>35.0</ele><time>2026-03-22T13:18:26.682Z</time></trkpt><trkpt lat="44.3566979" lon="9.3504581"><ele>36.0</ele><time>2026-03-22T13:18:27.682Z</time></trkpt><trkpt lat="44.3564939" lon="9.3503618"><ele>43.0</ele><time>2026-03-22T13:18:28.682Z</time></trkpt><trkpt lat="44.3562753" lon="9.3502391"><ele>50.0</ele><time>2026-03-22T13:18:29.683Z</time></trkpt><trkpt lat="44.3560248" lon="9.3501037"><ele>50.0</ele><time>2026-03-22T13:18:30.682Z</time></trkpt><trkpt lat="44.355789" lon="9.3499668"><ele>50.0</ele><time>2026-03-22T13:18:31.682Z</time></trkpt><trkpt lat="44.3555504" lon="9.3498088"><ele>47.0</ele><time>2026-03-22T13:18:32.682Z</time></trkpt><trkpt lat="44.3553206" lon="9.3496543"><ele>44.0</ele><time>2026-03-22T13:18:33.682Z</time></trkpt><trkpt lat="44.3551064" lon="9.3494951"><ele>44.0</ele><time>2026-03-22T13:18:34.682Z</time></trkpt><trkpt lat="44.3549056" lon="9.349339"><ele>44.0</ele><time>2026-03-22T13:18:35.682Z</time></trkpt><trkpt lat="44.3547123" lon="9.3491869"><ele>44.666666666666664</ele><time>2026-03-22T13:18:36.683Z</time></trkpt><trkpt lat="44.3545374" lon="9.3490273"><ele>45.333333333333336</ele><time>2026-03-22T13:18:37.682Z</time></trkpt><trkpt lat="44.3543716" lon="9.3488394"><ele>46.0</ele><time>2026-03-22T13:18:38.682Z</time></trkpt><trkpt lat="44.3542167" lon="9.3486036"><ele>46.0</ele><time>2026-03-22T13:18:39.682Z</time></trkpt><trkpt lat="44.3540648" lon="9.3483505"><ele>46.0</ele><time>2026-03-22T13:18:40.682Z</time></trkpt><trkpt lat="44.3539127" lon="9.3480986"><ele>56.0</ele><time>2026-03-22T13:18:41.682Z</time></trkpt><trkpt lat="44.3537578" lon="9.3478485"><ele>66.0</ele><time>2026-03-22T13:18:42.682Z</time></trkpt><trkpt lat="44.353605" lon="9.3476059"><ele>66.0</ele><time>2026-03-22T13:18:43.682Z</time></trkpt><trkpt lat="44.3534574" lon="9.3473694"><ele>66.0</ele><time>2026-03-22T13:18:44.682Z</time></trkpt><trkpt lat="44.3533068" lon="9.3471405"><ele>66.0</ele><time>2026-03-22T13:18:45.681Z</time></trkpt><trkpt lat="44.353182" lon="9.3469057"><ele>62.0</ele><time>2026-03-22T13:18:46.682Z</time></trkpt><trkpt lat="44.3531033" lon="9.346638"><ele>58.0</ele><time>2026-03-22T13:18:47.682Z</time></trkpt><trkpt lat="44.3530315" lon="9.3463787"><ele>54.0</ele><time>2026-03-22T13:18:48.682Z</time></trkpt><trkpt lat="44.3529446" lon="9.3461535"><ele>54.0</ele><time>2026-03-22T13:18:49.682Z</time></trkpt><trkpt lat="44.3528514" lon="9.3459414"><ele>54.0</ele><time>2026-03-22T13:18:50.683Z</time></trkpt><trkpt lat="44.3527633" lon="9.3457494"><ele>54.0</ele><time>2026-03-22T13:18:51.682Z</time></trkpt><trkpt lat="44.3526934" lon="9.3455653"><ele>48.75</ele><time>2026-03-22T13:18:52.682Z</time></trkpt><trkpt lat="44.3525965" lon="9.3454192"><ele>43.5</ele><time>2026-03-22T13:18:53.683Z</time></trkpt><trkpt lat="44.3525158" lon="9.3452669"><ele>38.25</ele><time>2026-03-22T13:18:54.683Z</time></trkpt><trkpt lat="44.3524625" lon="9.3451099"><ele>33.0</ele><time>2026-03-22T13:18:55.682Z</time></trkpt><trkpt lat="44.3524214" lon="9.3449303"><ele>33.0</ele><time>2026-03-22T13:18:56.683Z</time></trkpt><trkpt lat="44.3523817" lon="9.3447608"><ele>33.0</ele><time>2026-03-22T13:18:57.682Z</time></trkpt><trkpt lat="44.3523494" lon="9.344602"><ele>33.0</ele><time>2026-03-22T13:18:58.682Z</time></trkpt><trkpt lat="44.3523271" lon="9.3444379"><ele>33.0</ele><time>2026-03-22T13:18:59.682Z</time></trkpt><trkpt lat="44.3523063" lon="9.344295"><ele>31.599999999999998</ele><time>2026-03-22T13:19:00.682Z</time></trkpt><trkpt lat="44.3522856" lon="9.3441575"><ele>30.199999999999996</ele><time>2026-03-22T13:19:01.682Z</time></trkpt><trkpt lat="44.352267" lon="9.3440411"><ele>28.8</ele><time>2026-03-22T13:19:02.682Z</time></trkpt><trkpt lat="44.3522507" lon="9.3439041"><ele>27.4</ele><time>2026-03-22T13:19:04.682Z</time></trkpt><trkpt lat="44.3522358" lon="9.3437408"><ele>26.0</ele><time>2026-03-22T13:19:06.682Z</time></trkpt><trkpt lat="44.352212" lon="9.3436575"><ele>26.25</ele><time>2026-03-22T13:19:07.682Z</time></trkpt><trkpt lat="44.3521276" lon="9.3435683"><ele>26.5</ele><time>2026-03-22T13:19:08.682Z</time></trkpt><trkpt lat="44.3520134" lon="9.343485"><ele>26.75</ele><time>2026-03-22T13:19:09.681Z</time></trkpt><trkpt lat="44.3518742" lon="9.3433952"><ele>27.0</ele><time>2026-03-22T13:19:10.682Z</time></trkpt><trkpt lat="44.3517394" lon="9.3433115"><ele>27.0</ele><time>2026-03-22T13:19:11.682Z</time></trkpt><trkpt lat="44.3516038" lon="9.3432244"><ele>27.0</ele><time>2026-03-22T13:19:12.682Z</time></trkpt><trkpt lat="44.3514651" lon="9.3431332"><ele>27.0</ele><time>2026-03-22T13:19:13.683Z</time></trkpt><trkpt lat="44.3513271" lon="9.3430416"><ele>26.75</ele><time>2026-03-22T13:19:14.682Z</time></trkpt><trkpt lat="44.3511898" lon="9.3429607"><ele>26.5</ele><time>2026-03-22T13:19:15.682Z</time></trkpt><trkpt lat="44.3510565" lon="9.3428979"><ele>26.25</ele><time>2026-03-22T13:19:16.682Z</time></trkpt><trkpt lat="44.3509197" lon="9.3428611"><ele>26.0</ele><time>2026-03-22T13:19:17.682Z</time></trkpt><trkpt lat="44.3507781" lon="9.3428614"><ele>26.0</ele><time>2026-03-22T13:19:18.682Z</time></trkpt><trkpt lat="44.3506409" lon="9.3429004"><ele>26.0</ele><time>2026-03-22T13:19:19.682Z</time></trkpt><trkpt lat="44.3505141" lon="9.3429729"><ele>26.0</ele><time>2026-03-22T13:19:20.682Z</time></trkpt><trkpt lat="44.3504066" lon="9.3430686"><ele>26.0</ele><time>2026-03-22T13:19:21.682Z</time></trkpt><trkpt lat="44.3503175" lon="9.3431667"><ele>26.0</ele><time>2026-03-22T13:19:22.682Z</time></trkpt><trkpt lat="44.3502478" lon="9.3432706"><ele>26.0</ele><time>2026-03-22T13:19:23.682Z</time></trkpt><trkpt lat="44.350192" lon="9.3433982"><ele>26.0</ele><time>2026-03-22T13:19:24.683Z</time></trkpt><trkpt lat="44.3501488" lon="9.3435504"><ele>26.0</ele><time>2026-03-22T13:19:25.683Z</time></trkpt><trkpt lat="44.3501276" lon="9.3437097"><ele>26.0</ele><time>2026-03-22T13:19:26.682Z</time></trkpt><trkpt lat="44.3501138" lon="9.3438816"><ele>26.0</ele><time>2026-03-22T13:19:27.682Z</time></trkpt><trkpt lat="44.3500996" lon="9.3440535"><ele>26.0</ele><time>2026-03-22T13:19:28.682Z</time></trkpt><trkpt lat="44.3500863" lon="9.3442134"><ele>26.0</ele><time>2026-03-22T13:19:29.682Z</time></trkpt><trkpt lat="44.3500693" lon="9.3443737"><ele>26.0</ele><time>2026-03-22T13:19:30.684Z</time></trkpt><trkpt lat="44.3500548" lon="9.3445356"><ele>26.0</ele><time>2026-03-22T13:19:31.682Z</time></trkpt><trkpt lat="44.3500376" lon="9.3446885"><ele>26.0</ele><time>2026-03-22T13:19:32.682Z</time></trkpt><trkpt lat="44.3500269" lon="9.3448461"><ele>26.0</ele><time>2026-03-22T13:19:33.683Z</time></trkpt><trkpt lat="44.3500196" lon="9.3449962"><ele>26.0</ele><time>2026-03-22T13:19:34.683Z</time></trkpt><trkpt lat="44.3500037" lon="9.3451364"><ele>26.0</ele><time>2026-03-22T13:19:35.682Z</time></trkpt><trkpt lat="44.3499913" lon="9.3452749"><ele>26.200000000000003</ele><time>2026-03-22T13:19:36.681Z</time></trkpt><trkpt lat="44.3499766" lon="9.3454149"><ele>26.400000000000002</ele><time>2026-03-22T13:19:37.682Z</time></trkpt><trkpt lat="44.3499645" lon="9.3455647"><ele>26.6</ele><time>2026-03-22T13:19:38.682Z</time></trkpt><trkpt lat="44.3499502" lon="9.3457134"><ele>26.8</ele><time>2026-03-22T13:19:39.681Z</time></trkpt><trkpt lat="44.3499369" lon="9.3458507"><ele>27.0</ele><time>2026-03-22T13:19:40.682Z</time></trkpt><trkpt lat="44.3499277" lon="9.3459768"><ele>27.0</ele><time>2026-03-22T13:19:41.682Z</time></trkpt><trkpt lat="44.3499198" lon="9.3460895"><ele>27.000000000000004</ele><time>2026-03-22T13:19:42.682Z</time></trkpt><trkpt lat="44.3499145" lon="9.3461818"><ele>27.000000000000004</ele><time>2026-03-22T13:19:43.681Z</time></trkpt><trkpt lat="44.3499015" lon="9.3463522"><ele>27.0</ele><time>2026-03-22T13:19:45.682Z</time></trkpt><trkpt lat="44.3498958" lon="9.3465092"><ele>27.0</ele><time>2026-03-22T13:19:47.682Z</time></trkpt><trkpt lat="44.3498965" lon="9.3466137"><ele>27.0</ele><time>2026-03-22T13:19:48.682Z</time></trkpt><trkpt lat="44.3498904" lon="9.3467286"><ele>27.000000000000004</ele><time>2026-03-22T13:19:49.682Z</time></trkpt><trkpt lat="44.3498789" lon="9.3468328"><ele>27.000000000000004</ele><time>2026-03-22T13:19:50.683Z</time></trkpt><trkpt lat="44.3498655" lon="9.3469254"><ele>27.0</ele><time>2026-03-22T13:19:51.682Z</time></trkpt><trkpt lat="44.3498466" lon="9.3470841"><ele>27.0</ele><time>2026-03-22T13:19:53.682Z</time></trkpt><trkpt lat="44.349808" lon="9.3472422"><ele>27.400000000000002</ele><time>2026-03-22T13:19:55.682Z</time></trkpt><trkpt lat="44.3497503" lon="9.3473574"><ele>27.800000000000004</ele><time>2026-03-22T13:19:57.683Z</time></trkpt><trkpt lat="44.3497153" lon="9.3474713"><ele>28.2</ele><time>2026-03-22T13:19:59.682Z</time></trkpt><trkpt lat="44.3497147" lon="9.3475646"><ele>28.6</ele><time>2026-03-22T13:20:00.682Z</time></trkpt><trkpt lat="44.3497047" lon="9.3476908"><ele>29.0</ele><time>2026-03-22T13:20:01.682Z</time></trkpt><trkpt lat="44.3497016" lon="9.3478404"><ele>27.25</ele><time>2026-03-22T13:20:02.682Z</time></trkpt><trkpt lat="44.3496845" lon="9.3480143"><ele>25.5</ele><time>2026-03-22T13:20:03.682Z</time></trkpt><trkpt lat="44.3496558" lon="9.3482099"><ele>23.75</ele><time>2026-03-22T13:20:04.681Z</time></trkpt><trkpt lat="44.3496219" lon="9.348411"><ele>22.0</ele><time>2026-03-22T13:20:05.683Z</time></trkpt><trkpt lat="44.3495851" lon="9.3486332"><ele>21.333333333333332</ele><time>2026-03-22T13:20:06.682Z</time></trkpt><trkpt lat="44.3495433" lon="9.3488588"><ele>20.666666666666668</ele><time>2026-03-22T13:20:07.682Z</time></trkpt><trkpt lat="44.3495041" lon="9.3490852"><ele>20.0</ele><time>2026-03-22T13:20:08.682Z</time></trkpt><trkpt lat="44.3494625" lon="9.3493185"><ele>20.0</ele><time>2026-03-22T13:20:09.682Z</time></trkpt><trkpt lat="44.3494236" lon="9.3495512"><ele>20.0</ele><time>2026-03-22T13:20:10.682Z</time></trkpt><trkpt lat="44.3493857" lon="9.3497869"><ele>20.0</ele><time>2026-03-22T13:20:11.682Z</time></trkpt><trkpt lat="44.3493492" lon="9.3500102"><ele>20.5</ele><time>2026-03-22T13:20:12.682Z</time></trkpt><trkpt lat="44.349317" lon="9.3502213"><ele>21.0</ele><time>2026-03-22T13:20:13.682Z</time></trkpt><trkpt lat="44.3492876" lon="9.350424"><ele>21.5</ele><time>2026-03-22T13:20:14.682Z</time></trkpt><trkpt lat="44.3492602" lon="9.3506185"><ele>22.0</ele><time>2026-03-22T13:20:15.682Z</time></trkpt><trkpt lat="44.3492361" lon="9.3507937"><ele>22.400000000000002</ele><time>2026-03-22T13:20:16.682Z</time></trkpt><trkpt lat="44.3492265" lon="9.3509468"><ele>22.8</ele><time>2026-03-22T13:20:17.682Z</time></trkpt><trkpt lat="44.3492372" lon="9.3510829"><ele>23.2</ele><time>2026-03-22T13:20:18.682Z</time></trkpt><trkpt lat="44.3492687" lon="9.3512006"><ele>23.6</ele><time>2026-03-22T13:20:19.682Z</time></trkpt><trkpt lat="44.349321" lon="9.3512911"><ele>24.0</ele><time>2026-03-22T13:20:20.682Z</time></trkpt><trkpt lat="44.3493981" lon="9.3513532"><ele>24.25</ele><time>2026-03-22T13:20:21.682Z</time></trkpt><trkpt lat="44.3494747" lon="9.3513957"><ele>24.5</ele><time>2026-03-22T13:20:22.682Z</time></trkpt><trkpt lat="44.3496327" lon="9.3513851"><ele>24.75</ele><time>2026-03-22T13:20:23.682Z</time></trkpt><trkpt lat="44.3497811" lon="9.3514058"><ele>25.0</ele><time>2026-03-22T13:20:24.681Z</time></trkpt><trkpt lat="44.3499488" lon="9.3514384"><ele>25.0</ele><time>2026-03-22T13:20:25.682Z</time></trkpt><trkpt lat="44.3501305" lon="9.3514747"><ele>25.0</ele><time>2026-03-22T13:20:26.682Z</time></trkpt><trkpt lat="44.350317" lon="9.3515183"><ele>25.0</ele><time>2026-03-22T13:20:27.682Z</time></trkpt><trkpt lat="44.3505168" lon="9.351577"><ele>28.333333333333336</ele><time>2026-03-22T13:20:28.682Z</time></trkpt><trkpt lat="44.3507184" lon="9.3516627"><ele>31.666666666666664</ele><time>2026-03-22T13:20:29.682Z</time></trkpt><trkpt lat="44.3509119" lon="9.3517489"><ele>35.0</ele><time>2026-03-22T13:20:30.683Z</time></trkpt><trkpt lat="44.3510995" lon="9.3518184"><ele>35.0</ele><time>2026-03-22T13:20:31.682Z</time></trkpt><trkpt lat="44.3512721" lon="9.3518893"><ele>35.0</ele><time>2026-03-22T13:20:32.682Z</time></trkpt><trkpt lat="44.3514047" lon="9.3519427"><ele>35.0</ele><time>2026-03-22T13:20:33.682Z</time></trkpt><trkpt lat="44.3515154" lon="9.3520399"><ele>35.0</ele><time>2026-03-22T13:20:34.683Z</time></trkpt><trkpt lat="44.351608" lon="9.3521944"><ele>33.666666666666664</ele><time>2026-03-22T13:20:35.682Z</time></trkpt><trkpt lat="44.351692" lon="9.3523851"><ele>32.333333333333336</ele><time>2026-03-22T13:20:36.682Z</time></trkpt><trkpt lat="44.3517848" lon="9.3526058"><ele>31.0</ele><time>2026-03-22T13:20:37.682Z</time></trkpt><trkpt lat="44.3518764" lon="9.3528474"><ele>27.0</ele><time>2026-03-22T13:20:38.681Z</time></trkpt><trkpt lat="44.3519745" lon="9.3531022"><ele>23.0</ele><time>2026-03-22T13:20:39.682Z</time></trkpt><trkpt lat="44.3520601" lon="9.3533758"><ele>19.0</ele><time>2026-03-22T13:20:40.682Z</time></trkpt><trkpt lat="44.3521315" lon="9.3536637"><ele>18.333333333333332</ele><time>2026-03-22T13:20:41.682Z</time></trkpt><trkpt lat="44.3521499" lon="9.3539681"><ele>17.666666666666668</ele><time>2026-03-22T13:20:42.682Z</time></trkpt><trkpt lat="44.3522168" lon="9.3542565"><ele>17.0</ele><time>2026-03-22T13:20:43.682Z</time></trkpt><trkpt lat="44.3523252" lon="9.3545176"><ele>24.0</ele><time>2026-03-22T13:20:44.682Z</time></trkpt><trkpt lat="44.3524021" lon="9.3548226"><ele>31.0</ele><time>2026-03-22T13:20:45.682Z</time></trkpt><trkpt lat="44.3524968" lon="9.3551305"><ele>31.0</ele><time>2026-03-22T13:20:46.683Z</time></trkpt><trkpt lat="44.3526222" lon="9.3554129"><ele>31.0</ele><time>2026-03-22T13:20:47.682Z</time></trkpt><trkpt lat="44.3527062" lon="9.3556746"><ele>31.0</ele><time>2026-03-22T13:20:48.683Z</time></trkpt><trkpt lat="44.3528379" lon="9.3559199"><ele>31.0</ele><time>2026-03-22T13:20:49.682Z</time></trkpt><trkpt lat="44.3529656" lon="9.3561476"><ele>31.0</ele><time>2026-03-22T13:20:50.681Z</time></trkpt><trkpt lat="44.3530772" lon="9.3563709"><ele>31.0</ele><time>2026-03-22T13:20:51.682Z</time></trkpt><trkpt lat="44.3531717" lon="9.3565954"><ele>31.0</ele><time>2026-03-22T13:20:52.682Z</time></trkpt><trkpt lat="44.3532499" lon="9.3568166"><ele>31.0</ele><time>2026-03-22T13:20:53.682Z</time></trkpt><trkpt lat="44.353315" lon="9.3570406"><ele>31.0</ele><time>2026-03-22T13:20:54.683Z</time></trkpt><trkpt lat="44.3533889" lon="9.357257"><ele>29.666666666666668</ele><time>2026-03-22T13:20:55.683Z</time></trkpt><trkpt lat="44.3534331" lon="9.3574716"><ele>28.333333333333336</ele><time>2026-03-22T13:20:56.682Z</time></trkpt><trkpt lat="44.3534831" lon="9.3576867"><ele>27.0</ele><time>2026-03-22T13:20:57.682Z</time></trkpt><trkpt lat="44.353518" lon="9.35791"><ele>25.0</ele><time>2026-03-22T13:20:58.682Z</time></trkpt><trkpt lat="44.3535362" lon="9.3581281"><ele>23.0</ele><time>2026-03-22T13:20:59.683Z</time></trkpt><trkpt lat="44.3535575" lon="9.3583322"><ele>21.0</ele><time>2026-03-22T13:21:00.682Z</time></trkpt><trkpt lat="44.353561" lon="9.3585478"><ele>21.0</ele><time>2026-03-22T13:21:01.682Z</time></trkpt><trkpt lat="44.3535556" lon="9.3587689"><ele>21.0</ele><time>2026-03-22T13:21:02.682Z</time></trkpt><trkpt lat="44.353552" lon="9.3589962"><ele>21.0</ele><time>2026-03-22T13:21:03.682Z</time></trkpt><trkpt lat="44.3535471" lon="9.3592155"><ele>21.25</ele><time>2026-03-22T13:21:04.682Z</time></trkpt><trkpt lat="44.3535415" lon="9.3594166"><ele>21.5</ele><time>2026-03-22T13:21:05.682Z</time></trkpt><trkpt lat="44.3535325" lon="9.3596095"><ele>21.75</ele><time>2026-03-22T13:21:06.682Z</time></trkpt><trkpt lat="44.3535247" lon="9.3597948"><ele>22.0</ele><time>2026-03-22T13:21:07.684Z</time></trkpt><trkpt lat="44.3535099" lon="9.3599618"><ele>22.6</ele><time>2026-03-22T13:21:08.682Z</time></trkpt><trkpt lat="44.3534766" lon="9.3601197"><ele>23.200000000000003</ele><time>2026-03-22T13:21:09.682Z</time></trkpt><trkpt lat="44.3534429" lon="9.3602667"><ele>23.8</ele><time>2026-03-22T13:21:10.682Z</time></trkpt><trkpt lat="44.3533964" lon="9.360398"><ele>24.4</ele><time>2026-03-22T13:21:11.682Z</time></trkpt><trkpt lat="44.3533365" lon="9.3605307"><ele>25.0</ele><time>2026-03-22T13:21:12.682Z</time></trkpt><trkpt lat="44.3532722" lon="9.3606864"><ele>22.333333333333336</ele><time>2026-03-22T13:21:13.682Z</time></trkpt><trkpt lat="44.3531978" lon="9.360871"><ele>19.666666666666668</ele><time>2026-03-22T13:21:14.682Z</time></trkpt><trkpt lat="44.3530977" lon="9.3610549"><ele>17.0</ele><time>2026-03-22T13:21:15.682Z</time></trkpt><trkpt lat="44.3530016" lon="9.3612139"><ele>17.0</ele><time>2026-03-22T13:21:16.682Z</time></trkpt><trkpt lat="44.3528975" lon="9.361361"><ele>17.0</ele><time>2026-03-22T13:21:17.683Z</time></trkpt><trkpt lat="44.35277" lon="9.3614984"><ele>17.0</ele><time>2026-03-22T13:21:18.682Z</time></trkpt><trkpt lat="44.3526335" lon="9.3616168"><ele>17.333333333333336</ele><time>2026-03-22T13:21:19.682Z</time></trkpt><trkpt lat="44.3524727" lon="9.3617111"><ele>17.666666666666668</ele><time>2026-03-22T13:21:20.682Z</time></trkpt><trkpt lat="44.3523235" lon="9.3617926"><ele>18.0</ele><time>2026-03-22T13:21:21.682Z</time></trkpt><trkpt lat="44.3521595" lon="9.3618703"><ele>18.0</ele><time>2026-03-22T13:21:22.682Z</time></trkpt><trkpt lat="44.3520072" lon="9.3619348"><ele>18.0</ele><time>2026-03-22T13:21:23.682Z</time></trkpt><trkpt lat="44.3518752" lon="9.3620191"><ele>18.0</ele><time>2026-03-22T13:21:24.682Z</time></trkpt><trkpt lat="44.3517307" lon="9.362119"><ele>25.333333333333336</ele><time>2026-03-22T13:21:25.683Z</time></trkpt><trkpt lat="44.3515801" lon="9.3622007"><ele>32.66666666666667</ele><time>2026-03-22T13:21:26.682Z</time></trkpt><trkpt lat="44.3514241" lon="9.3622664"><ele>40.0</ele><time>2026-03-22T13:21:27.682Z</time></trkpt><trkpt lat="44.3512633" lon="9.3623167"><ele>40.0</ele><time>2026-03-22T13:21:28.682Z</time></trkpt><trkpt lat="44.3510965" lon="9.3623595"><ele>40.0</ele><time>2026-03-22T13:21:29.682Z</time></trkpt><trkpt lat="44.3509323" lon="9.3623974"><ele>40.0</ele><time>2026-03-22T13:21:30.682Z</time></trkpt><trkpt lat="44.3507702" lon="9.3624085"><ele>40.0</ele><time>2026-03-22T13:21:31.682Z</time></trkpt><trkpt lat="44.3506045" lon="9.3623883"><ele>40.0</ele><time>2026-03-22T13:21:32.682Z</time></trkpt><trkpt lat="44.3504594" lon="9.3623434"><ele>40.0</ele><time>2026-03-22T13:21:33.682Z</time></trkpt><trkpt lat="44.3503221" lon="9.3623012"><ele>39.5</ele><time>2026-03-22T13:21:34.682Z</time></trkpt><trkpt lat="44.3501748" lon="9.3622574"><ele>39.0</ele><time>2026-03-22T13:21:35.682Z</time></trkpt><trkpt lat="44.3500268" lon="9.3622432"><ele>38.5</ele><time>2026-03-22T13:21:36.682Z</time></trkpt><trkpt lat="44.3498832" lon="9.3622519"><ele>38.0</ele><time>2026-03-22T13:21:37.682Z</time></trkpt><trkpt lat="44.3497278" lon="9.3623081"><ele>37.0</ele><time>2026-03-22T13:21:38.682Z</time></trkpt><trkpt lat="44.3495683" lon="9.3623631"><ele>36.0</ele><time>2026-03-22T13:21:39.682Z</time></trkpt><trkpt lat="44.3493975" lon="9.3624079"><ele>35.0</ele><time>2026-03-22T13:21:40.682Z</time></trkpt><trkpt lat="44.3492233" lon="9.3624187"><ele>35.0</ele><time>2026-03-22T13:21:41.682Z</time></trkpt><trkpt lat="44.349049" lon="9.3624035"><ele>35.0</ele><time>2026-03-22T13:21:42.682Z</time></trkpt><trkpt lat="44.3488821" lon="9.3623792"><ele>35.0</ele><time>2026-03-22T13:21:43.682Z</time></trkpt><trkpt lat="44.3487206" lon="9.3623497"><ele>32.25</ele><time>2026-03-22T13:21:44.683Z</time></trkpt><trkpt lat="44.3485712" lon="9.3623257"><ele>29.5</ele><time>2026-03-22T13:21:45.682Z</time></trkpt><trkpt lat="44.3484337" lon="9.3623187"><ele>26.75</ele><time>2026-03-22T13:21:46.682Z</time></trkpt><trkpt lat="44.3483057" lon="9.3623567"><ele>24.0</ele><time>2026-03-22T13:21:47.682Z</time></trkpt><trkpt lat="44.3481747" lon="9.3624195"><ele>24.0</ele><time>2026-03-22T13:21:48.682Z</time></trkpt><trkpt lat="44.3480581" lon="9.362515"><ele>24.0</ele><time>2026-03-22T13:21:49.682Z</time></trkpt><trkpt lat="44.3479432" lon="9.3626573"><ele>24.0</ele><time>2026-03-22T13:21:50.682Z</time></trkpt><trkpt lat="44.3478084" lon="9.3628668"><ele>22.333333333333332</ele><time>2026-03-22T13:21:51.682Z</time></trkpt><trkpt lat="44.3476666" lon="9.3630069"><ele>20.666666666666664</ele><time>2026-03-22T13:21:52.682Z</time></trkpt><trkpt lat="44.3475228" lon="9.3631459"><ele>19.0</ele><time>2026-03-22T13:21:53.682Z</time></trkpt><trkpt lat="44.3473767" lon="9.3632667"><ele>19.0</ele><time>2026-03-22T13:21:54.682Z</time></trkpt><trkpt lat="44.3472455" lon="9.3633633"><ele>19.0</ele><time>2026-03-22T13:21:55.682Z</time></trkpt><trkpt lat="44.3471147" lon="9.3634408"><ele>19.0</ele><time>2026-03-22T13:21:56.682Z</time></trkpt><trkpt lat="44.3470031" lon="9.3635101"><ele>19.0</ele><time>2026-03-22T13:21:57.682Z</time></trkpt><trkpt lat="44.3469005" lon="9.3635758"><ele>18.333333333333332</ele><time>2026-03-22T13:21:58.682Z</time></trkpt><trkpt lat="44.3468039" lon="9.3636362"><ele>17.666666666666664</ele><time>2026-03-22T13:21:59.682Z</time></trkpt><trkpt lat="44.3467204" lon="9.3636907"><ele>17.0</ele><time>2026-03-22T13:22:00.682Z</time></trkpt><trkpt lat="44.3466426" lon="9.3637357"><ele>16.333333333333332</ele><time>2026-03-22T13:22:01.682Z</time></trkpt><trkpt lat="44.3465703" lon="9.3637679"><ele>15.666666666666666</ele><time>2026-03-22T13:22:02.682Z</time></trkpt><trkpt lat="44.3465018" lon="9.363771"><ele>15.0</ele><time>2026-03-22T13:22:03.682Z</time></trkpt><trkpt lat="44.346388" lon="9.3637592"><ele>17.2</ele><time>2026-03-22T13:22:05.682Z</time></trkpt><trkpt lat="44.346274" lon="9.3638298"><ele>19.4</ele><time>2026-03-22T13:22:07.682Z</time></trkpt><trkpt lat="44.3462652" lon="9.3639931"><ele>21.6</ele><time>2026-03-22T13:22:09.682Z</time></trkpt><trkpt lat="44.3462926" lon="9.3641058"><ele>23.8</ele><time>2026-03-22T13:22:10.682Z</time></trkpt><trkpt lat="44.346327" lon="9.3642379"><ele>26.0</ele><time>2026-03-22T13:22:11.682Z</time></trkpt><trkpt lat="44.3463536" lon="9.3643919"><ele>24.25</ele><time>2026-03-22T13:22:12.682Z</time></trkpt><trkpt lat="44.3463869" lon="9.3645579"><ele>22.5</ele><time>2026-03-22T13:22:13.682Z</time></trkpt><trkpt lat="44.3464208" lon="9.3647257"><ele>20.75</ele><time>2026-03-22T13:22:14.682Z</time></trkpt><trkpt lat="44.3464647" lon="9.3648964"><ele>19.0</ele><time>2026-03-22T13:22:15.683Z</time></trkpt><trkpt lat="44.3465192" lon="9.3650622"><ele>19.0</ele><time>2026-03-22T13:22:16.682Z</time></trkpt><trkpt lat="44.3465711" lon="9.3652196"><ele>19.0</ele><time>2026-03-22T13:22:17.682Z</time></trkpt><trkpt lat="44.3466443" lon="9.3653679"><ele>19.0</ele><time>2026-03-22T13:22:18.682Z</time></trkpt><trkpt lat="44.3467292" lon="9.3654957"><ele>19.0</ele><time>2026-03-22T13:22:19.682Z</time></trkpt><trkpt lat="44.3468263" lon="9.3656074"><ele>18.0</ele><time>2026-03-22T13:22:20.683Z</time></trkpt><trkpt lat="44.3469347" lon="9.3657159"><ele>17.0</ele><time>2026-03-22T13:22:21.682Z</time></trkpt><trkpt lat="44.3470477" lon="9.3658229"><ele>16.0</ele><time>2026-03-22T13:22:22.682Z</time></trkpt><trkpt lat="44.3471621" lon="9.3659254"><ele>15.0</ele><time>2026-03-22T13:22:23.682Z</time></trkpt><trkpt lat="44.347283" lon="9.3660333"><ele>15.0</ele><time>2026-03-22T13:22:24.682Z</time></trkpt><trkpt lat="44.347409" lon="9.3661469"><ele>15.0</ele><time>2026-03-22T13:22:25.682Z</time></trkpt><trkpt lat="44.347535" lon="9.3662599"><ele>15.0</ele><time>2026-03-22T13:22:26.683Z</time></trkpt><trkpt lat="44.3476513" lon="9.3663678"><ele>15.0</ele><time>2026-03-22T13:22:27.682Z</time></trkpt><trkpt lat="44.3477669" lon="9.3664682"><ele>15.0</ele><time>2026-03-22T13:22:28.682Z</time></trkpt><trkpt lat="44.3478772" lon="9.3665638"><ele>15.0</ele><time>2026-03-22T13:22:29.682Z</time></trkpt><trkpt lat="44.3479877" lon="9.3666671"><ele>15.0</ele><time>2026-03-22T13:22:30.682Z</time></trkpt><trkpt lat="44.3481032" lon="9.3667768"><ele>15.0</ele><time>2026-03-22T13:22:31.683Z</time></trkpt><trkpt lat="44.3482228" lon="9.3668835"><ele>15.0</ele><time>2026-03-22T13:22:32.682Z</time></trkpt><trkpt lat="44.3483423" lon="9.3669915"><ele>15.0</ele><time>2026-03-22T13:22:33.682Z</time></trkpt><trkpt lat="44.348456" lon="9.3670958"><ele>15.0</ele><time>2026-03-22T13:22:34.682Z</time></trkpt><trkpt lat="44.3485642" lon="9.3671969"><ele>15.0</ele><time>2026-03-22T13:22:35.682Z</time></trkpt><trkpt lat="44.3486747" lon="9.3672977"><ele>15.25</ele><time>2026-03-22T13:22:36.682Z</time></trkpt><trkpt lat="44.3487837" lon="9.3673978"><ele>15.5</ele><time>2026-03-22T13:22:37.682Z</time></trkpt><trkpt lat="44.3488942" lon="9.367493"><ele>15.75</ele><time>2026-03-22T13:22:38.682Z</time></trkpt><trkpt lat="44.3489944" lon="9.3676021"><ele>16.0</ele><time>2026-03-22T13:22:39.682Z</time></trkpt><trkpt lat="44.3490751" lon="9.3677283"><ele>16.0</ele><time>2026-03-22T13:22:40.682Z</time></trkpt><trkpt lat="44.3491443" lon="9.3678608"><ele>16.0</ele><time>2026-03-22T13:22:41.682Z</time></trkpt><trkpt lat="44.3491977" lon="9.3679995"><ele>16.0</ele><time>2026-03-22T13:22:42.683Z</time></trkpt><trkpt lat="44.3492323" lon="9.3681553"><ele>16.0</ele><time>2026-03-22T13:22:43.682Z</time></trkpt><trkpt lat="44.3492599" lon="9.3683224"><ele>17.0</ele><time>2026-03-22T13:22:44.682Z</time></trkpt><trkpt lat="44.3492602" lon="9.3685138"><ele>18.0</ele><time>2026-03-22T13:22:45.682Z</time></trkpt><trkpt lat="44.3492461" lon="9.3686984"><ele>19.0</ele><time>2026-03-22T13:22:46.682Z</time></trkpt><trkpt lat="44.3492072" lon="9.3688751"><ele>20.0</ele><time>2026-03-22T13:22:47.682Z</time></trkpt><trkpt lat="44.349146" lon="9.3690493"><ele>20.25</ele><time>2026-03-22T13:22:48.682Z</time></trkpt><trkpt lat="44.3490792" lon="9.3692219"><ele>20.5</ele><time>2026-03-22T13:22:49.682Z</time></trkpt><trkpt lat="44.3490029" lon="9.3693893"><ele>20.75</ele><time>2026-03-22T13:22:50.682Z</time></trkpt><trkpt lat="44.3489257" lon="9.3695657"><ele>21.0</ele><time>2026-03-22T13:22:51.682Z</time></trkpt><trkpt lat="44.3488484" lon="9.3697446"><ele>23.0</ele><time>2026-03-22T13:22:52.682Z</time></trkpt><trkpt lat="44.3487708" lon="9.3699216"><ele>25.0</ele><time>2026-03-22T13:22:53.682Z</time></trkpt><trkpt lat="44.3486976" lon="9.3700987"><ele>27.0</ele><time>2026-03-22T13:22:54.682Z</time></trkpt><trkpt lat="44.3486308" lon="9.3702818"><ele>29.0</ele><time>2026-03-22T13:22:55.682Z</time></trkpt><trkpt lat="44.3485741" lon="9.3704595"><ele>29.0</ele><time>2026-03-22T13:22:56.682Z</time></trkpt><trkpt lat="44.3485318" lon="9.370637"><ele>29.0</ele><time>2026-03-22T13:22:57.682Z</time></trkpt><trkpt lat="44.3485009" lon="9.3708034"><ele>29.0</ele><time>2026-03-22T13:22:58.682Z</time></trkpt><trkpt lat="44.3484824" lon="9.3709753"><ele>29.0</ele><time>2026-03-22T13:22:59.682Z</time></trkpt><trkpt lat="44.3484674" lon="9.3711459"><ele>29.0</ele><time>2026-03-22T13:23:00.682Z</time></trkpt><trkpt lat="44.3484598" lon="9.3713299"><ele>29.0</ele><time>2026-03-22T13:23:01.682Z</time></trkpt><trkpt lat="44.3484577" lon="9.371504"><ele>29.0</ele><time>2026-03-22T13:23:02.682Z</time></trkpt><trkpt lat="44.3484722" lon="9.3716769"><ele>29.0</ele><time>2026-03-22T13:23:03.682Z</time></trkpt><trkpt lat="44.3484971" lon="9.3718574"><ele>30.25</ele><time>2026-03-22T13:23:04.683Z</time></trkpt><trkpt lat="44.3485365" lon="9.3720387"><ele>31.5</ele><time>2026-03-22T13:23:05.682Z</time></trkpt><trkpt lat="44.3485832" lon="9.3722164"><ele>32.75</ele><time>2026-03-22T13:23:06.682Z</time></trkpt><trkpt lat="44.3486353" lon="9.3723974"><ele>34.0</ele><time>2026-03-22T13:23:07.682Z</time></trkpt><trkpt lat="44.3486785" lon="9.3725931"><ele>34.0</ele><time>2026-03-22T13:23:08.682Z</time></trkpt><trkpt lat="44.3487098" lon="9.3727958"><ele>34.0</ele><time>2026-03-22T13:23:09.682Z</time></trkpt><trkpt lat="44.3487286" lon="9.3730081"><ele>34.0</ele><time>2026-03-22T13:23:10.682Z</time></trkpt><trkpt lat="44.3487415" lon="9.3732154"><ele>34.0</ele><time>2026-03-22T13:23:11.682Z</time></trkpt><trkpt lat="44.3487585" lon="9.3734202"><ele>34.0</ele><time>2026-03-22T13:23:12.682Z</time></trkpt><trkpt lat="44.3487601" lon="9.3736246"><ele>34.0</ele><time>2026-03-22T13:23:13.682Z</time></trkpt><trkpt lat="44.3487416" lon="9.373824"><ele>34.0</ele><time>2026-03-22T13:23:14.682Z</time></trkpt><trkpt lat="44.3487046" lon="9.3740293"><ele>33.5</ele><time>2026-03-22T13:23:15.682Z</time></trkpt><trkpt lat="44.348662" lon="9.3742305"><ele>33.0</ele><time>2026-03-22T13:23:16.682Z</time></trkpt><trkpt lat="44.3486203" lon="9.3744203"><ele>32.5</ele><time>2026-03-22T13:23:17.682Z</time></trkpt><trkpt lat="44.3485838" lon="9.3745968"><ele>32.0</ele><time>2026-03-22T13:23:18.682Z</time></trkpt><trkpt lat="44.3485561" lon="9.374758"><ele>32.0</ele><time>2026-03-22T13:23:19.682Z</time></trkpt><trkpt lat="44.3485606" lon="9.374929"><ele>32.0</ele><time>2026-03-22T13:23:20.683Z</time></trkpt><trkpt lat="44.3486026" lon="9.3750683"><ele>32.0</ele><time>2026-03-22T13:23:21.682Z</time></trkpt><trkpt lat="44.3486492" lon="9.3752124"><ele>32.0</ele><time>2026-03-22T13:23:22.682Z</time></trkpt><trkpt lat="44.3487531" lon="9.3753405"><ele>32.0</ele><time>2026-03-22T13:23:23.682Z</time></trkpt><trkpt lat="44.3488473" lon="9.3755056"><ele>32.0</ele><time>2026-03-22T13:23:24.682Z</time></trkpt><trkpt lat="44.3489528" lon="9.3756525"><ele>32.0</ele><time>2026-03-22T13:23:25.682Z</time></trkpt><trkpt lat="44.3490467" lon="9.3757956"><ele>32.0</ele><time>2026-03-22T13:23:26.682Z</time></trkpt><trkpt lat="44.349137" lon="9.3759372"><ele>31.25</ele><time>2026-03-22T13:23:27.682Z</time></trkpt><trkpt lat="44.3492111" lon="9.3760921"><ele>30.5</ele><time>2026-03-22T13:23:28.682Z</time></trkpt><trkpt lat="44.3492825" lon="9.3762343"><ele>29.75</ele><time>2026-03-22T13:23:29.682Z</time></trkpt><trkpt lat="44.3493445" lon="9.3763703"><ele>29.0</ele><time>2026-03-22T13:23:30.682Z</time></trkpt><trkpt lat="44.3493961" lon="9.3765109"><ele>29.0</ele><time>2026-03-22T13:23:31.682Z</time></trkpt><trkpt lat="44.349389" lon="9.3766628"><ele>29.0</ele><time>2026-03-22T13:23:32.682Z</time></trkpt><trkpt lat="44.3493596" lon="9.3767985"><ele>29.0</ele><time>2026-03-22T13:23:33.682Z</time></trkpt><trkpt lat="44.3492779" lon="9.3769267"><ele>29.0</ele><time>2026-03-22T13:23:34.682Z</time></trkpt><trkpt lat="44.3491763" lon="9.3770376"><ele>29.0</ele><time>2026-03-22T13:23:35.682Z</time></trkpt><trkpt lat="44.3490643" lon="9.3771603"><ele>29.0</ele><time>2026-03-22T13:23:36.682Z</time></trkpt><trkpt lat="44.3489503" lon="9.3772841"><ele>29.0</ele><time>2026-03-22T13:23:37.682Z</time></trkpt><trkpt lat="44.348831" lon="9.3774071"><ele>29.0</ele><time>2026-03-22T13:23:38.683Z</time></trkpt><trkpt lat="44.3487173" lon="9.3775212"><ele>29.5</ele><time>2026-03-22T13:23:39.682Z</time></trkpt><trkpt lat="44.3486149" lon="9.3776402"><ele>30.0</ele><time>2026-03-22T13:23:40.683Z</time></trkpt><trkpt lat="44.348516" lon="9.3777389"><ele>30.5</ele><time>2026-03-22T13:23:41.682Z</time></trkpt><trkpt lat="44.348411" lon="9.3778501"><ele>31.0</ele><time>2026-03-22T13:23:42.682Z</time></trkpt><trkpt lat="44.3483047" lon="9.3779585"><ele>31.75</ele><time>2026-03-22T13:23:43.682Z</time></trkpt><trkpt lat="44.3481951" lon="9.3780801"><ele>32.5</ele><time>2026-03-22T13:23:44.682Z</time></trkpt><trkpt lat="44.3480899" lon="9.3781977"><ele>33.25</ele><time>2026-03-22T13:23:45.682Z</time></trkpt><trkpt lat="44.347991" lon="9.3782998"><ele>34.0</ele><time>2026-03-22T13:23:46.682Z</time></trkpt><trkpt lat="44.347887" lon="9.3784055"><ele>34.0</ele><time>2026-03-22T13:23:47.682Z</time></trkpt><trkpt lat="44.3477887" lon="9.3785051"><ele>34.0</ele><time>2026-03-22T13:23:48.682Z</time></trkpt><trkpt lat="44.3476826" lon="9.3786069"><ele>34.0</ele><time>2026-03-22T13:23:49.682Z</time></trkpt><trkpt lat="44.3475856" lon="9.3787009"><ele>34.0</ele><time>2026-03-22T13:23:50.682Z</time></trkpt><trkpt lat="44.3474936" lon="9.3787894"><ele>34.0</ele><time>2026-03-22T13:23:51.682Z</time></trkpt><trkpt lat="44.3474094" lon="9.3788815"><ele>34.0</ele><time>2026-03-22T13:23:52.682Z</time></trkpt><trkpt lat="44.3473201" lon="9.3789725"><ele>34.0</ele><time>2026-03-22T13:23:53.682Z</time></trkpt><trkpt lat="44.3472293" lon="9.3790647"><ele>34.0</ele><time>2026-03-22T13:23:54.682Z</time></trkpt><trkpt lat="44.3471428" lon="9.3791527"><ele>34.0</ele><time>2026-03-22T13:23:55.682Z</time></trkpt><trkpt lat="44.3470682" lon="9.3792318"><ele>34.0</ele><time>2026-03-22T13:23:56.682Z</time></trkpt><trkpt lat="44.3470181" lon="9.3793382"><ele>34.0</ele><time>2026-03-22T13:23:57.682Z</time></trkpt><trkpt lat="44.3469855" lon="9.379456"><ele>34.0</ele><time>2026-03-22T13:23:58.682Z</time></trkpt><trkpt lat="44.3469779" lon="9.3796074"><ele>34.0</ele><time>2026-03-22T13:23:59.683Z</time></trkpt><trkpt lat="44.3470798" lon="9.3797693"><ele>34.0</ele><time>2026-03-22T13:24:00.682Z</time></trkpt><trkpt lat="44.3471688" lon="9.3799309"><ele>38.0</ele><time>2026-03-22T13:24:01.682Z</time></trkpt><trkpt lat="44.3472703" lon="9.3801026"><ele>42.0</ele><time>2026-03-22T13:24:02.682Z</time></trkpt><trkpt lat="44.34738" lon="9.3802749"><ele>46.0</ele><time>2026-03-22T13:24:03.682Z</time></trkpt><trkpt lat="44.3474758" lon="9.3804439"><ele>44.75</ele><time>2026-03-22T13:24:04.682Z</time></trkpt><trkpt lat="44.3475865" lon="9.3805883"><ele>43.5</ele><time>2026-03-22T13:24:05.682Z</time></trkpt><trkpt lat="44.3476895" lon="9.3807359"><ele>42.25</ele><time>2026-03-22T13:24:06.682Z</time></trkpt><trkpt lat="44.3477619" lon="9.3809051"><ele>41.0</ele><time>2026-03-22T13:24:07.682Z</time></trkpt><trkpt lat="44.3478316" lon="9.3810944"><ele>41.0</ele><time>2026-03-22T13:24:08.682Z</time></trkpt><trkpt lat="44.3478913" lon="9.3813023"><ele>41.0</ele><time>2026-03-22T13:24:09.682Z</time></trkpt><trkpt lat="44.3479382" lon="9.3815178"><ele>41.0</ele><time>2026-03-22T13:24:10.682Z</time></trkpt><trkpt lat="44.3479762" lon="9.3817256"><ele>41.0</ele><time>2026-03-22T13:24:11.682Z</time></trkpt><trkpt lat="44.3480188" lon="9.38194"><ele>41.0</ele><time>2026-03-22T13:24:12.682Z</time></trkpt><trkpt lat="44.3480606" lon="9.3821659"><ele>41.0</ele><time>2026-03-22T13:24:13.683Z</time></trkpt><trkpt lat="44.3481076" lon="9.3823856"><ele>41.0</ele><time>2026-03-22T13:24:14.683Z</time></trkpt><trkpt lat="44.348151" lon="9.3826084"><ele>41.0</ele><time>2026-03-22T13:24:15.682Z</time></trkpt><trkpt lat="44.3481949" lon="9.3828419"><ele>41.0</ele><time>2026-03-22T13:24:16.682Z</time></trkpt><trkpt lat="44.3482413" lon="9.3830757"><ele>42.33333333333333</ele><time>2026-03-22T13:24:17.682Z</time></trkpt><trkpt lat="44.3482895" lon="9.3833187"><ele>43.666666666666664</ele><time>2026-03-22T13:24:18.682Z</time></trkpt><trkpt lat="44.3483404" lon="9.3835658"><ele>45.0</ele><time>2026-03-22T13:24:19.682Z</time></trkpt><trkpt lat="44.3483881" lon="9.3838177"><ele>47.0</ele><time>2026-03-22T13:24:20.683Z</time></trkpt><trkpt lat="44.348428" lon="9.3840546"><ele>49.0</ele><time>2026-03-22T13:24:21.682Z</time></trkpt><trkpt lat="44.3484701" lon="9.3842829"><ele>51.0</ele><time>2026-03-22T13:24:22.682Z</time></trkpt><trkpt lat="44.348502" lon="9.3845031"><ele>50.0</ele><time>2026-03-22T13:24:23.682Z</time></trkpt><trkpt lat="44.3485232" lon="9.3847116"><ele>49.0</ele><time>2026-03-22T13:24:24.682Z</time></trkpt><trkpt lat="44.3485562" lon="9.3849041"><ele>48.0</ele><time>2026-03-22T13:24:25.682Z</time></trkpt><trkpt lat="44.3486098" lon="9.385079"><ele>47.0</ele><time>2026-03-22T13:24:26.682Z</time></trkpt><trkpt lat="44.3486495" lon="9.3852571"><ele>47.0</ele><time>2026-03-22T13:24:27.682Z</time></trkpt><trkpt lat="44.3486734" lon="9.3854294"><ele>47.0</ele><time>2026-03-22T13:24:28.682Z</time></trkpt><trkpt lat="44.3486759" lon="9.3856049"><ele>47.0</ele><time>2026-03-22T13:24:29.682Z</time></trkpt><trkpt lat="44.3486598" lon="9.3857861"><ele>47.0</ele><time>2026-03-22T13:24:30.682Z</time></trkpt><trkpt lat="44.3486234" lon="9.3859682"><ele>47.5</ele><time>2026-03-22T13:24:31.682Z</time></trkpt><trkpt lat="44.3485732" lon="9.3861414"><ele>48.0</ele><time>2026-03-22T13:24:32.682Z</time></trkpt><trkpt lat="44.3485192" lon="9.386308"><ele>48.5</ele><time>2026-03-22T13:24:33.682Z</time></trkpt><trkpt lat="44.3484501" lon="9.3864742"><ele>49.0</ele><time>2026-03-22T13:24:34.682Z</time></trkpt><trkpt lat="44.348387" lon="9.3866411"><ele>49.0</ele><time>2026-03-22T13:24:35.682Z</time></trkpt><trkpt lat="44.3482965" lon="9.3868021"><ele>49.0</ele><time>2026-03-22T13:24:36.682Z</time></trkpt><trkpt lat="44.348202" lon="9.3869624"><ele>49.0</ele><time>2026-03-22T13:24:37.683Z</time></trkpt><trkpt lat="44.3481152" lon="9.3871241"><ele>49.0</ele><time>2026-03-22T13:24:38.682Z</time></trkpt><trkpt lat="44.3480402" lon="9.3873014"><ele>49.75</ele><time>2026-03-22T13:24:39.682Z</time></trkpt><trkpt lat="44.3479611" lon="9.3874675"><ele>50.5</ele><time>2026-03-22T13:24:40.682Z</time></trkpt><trkpt lat="44.3478808" lon="9.3876333"><ele>51.25</ele><time>2026-03-22T13:24:41.682Z</time></trkpt><trkpt lat="44.3478026" lon="9.3877932"><ele>52.0</ele><time>2026-03-22T13:24:42.682Z</time></trkpt><trkpt lat="44.34772" lon="9.3879518"><ele>55.25</ele><time>2026-03-22T13:24:43.682Z</time></trkpt><trkpt lat="44.3476294" lon="9.3881022"><ele>58.5</ele><time>2026-03-22T13:24:44.683Z</time></trkpt><trkpt lat="44.3475431" lon="9.3882621"><ele>61.75</ele><time>2026-03-22T13:24:45.682Z</time></trkpt><trkpt lat="44.3474536" lon="9.3884204"><ele>65.0</ele><time>2026-03-22T13:24:46.682Z</time></trkpt><trkpt lat="44.3473798" lon="9.3885858"><ele>65.0</ele><time>2026-03-22T13:24:47.682Z</time></trkpt><trkpt lat="44.3473023" lon="9.3887438"><ele>65.0</ele><time>2026-03-22T13:24:48.682Z</time></trkpt><trkpt lat="44.3472377" lon="9.3889396"><ele>65.0</ele><time>2026-03-22T13:24:49.683Z</time></trkpt><trkpt lat="44.3472533" lon="9.3892236"><ele>67.0</ele><time>2026-03-22T13:24:50.683Z</time></trkpt><trkpt lat="44.3473265" lon="9.389414"><ele>69.0</ele><time>2026-03-22T13:24:51.682Z</time></trkpt><trkpt lat="44.3473427" lon="9.3895915"><ele>71.0</ele><time>2026-03-22T13:24:52.682Z</time></trkpt><trkpt lat="44.3473272" lon="9.3897655"><ele>73.0</ele><time>2026-03-22T13:24:53.682Z</time></trkpt><trkpt lat="44.3473108" lon="9.3899476"><ele>69.0</ele><time>2026-03-22T13:24:54.683Z</time></trkpt><trkpt lat="44.3472043" lon="9.3901344"><ele>65.0</ele><time>2026-03-22T13:24:55.682Z</time></trkpt><trkpt lat="44.3471198" lon="9.3903221"><ele>61.0</ele><time>2026-03-22T13:24:56.683Z</time></trkpt><trkpt lat="44.3470181" lon="9.3905109"><ele>61.0</ele><time>2026-03-22T13:24:57.682Z</time></trkpt><trkpt lat="44.3469027" lon="9.3906786"><ele>61.0</ele><time>2026-03-22T13:24:58.682Z</time></trkpt><trkpt lat="44.3467732" lon="9.3908028"><ele>61.0</ele><time>2026-03-22T13:24:59.683Z</time></trkpt><trkpt lat="44.3466366" lon="9.3908967"><ele>61.0</ele><time>2026-03-22T13:25:00.682Z</time></trkpt><trkpt lat="44.3465034" lon="9.3909765"><ele>61.0</ele><time>2026-03-22T13:25:01.683Z</time></trkpt><trkpt lat="44.3463669" lon="9.3910494"><ele>61.0</ele><time>2026-03-22T13:25:02.682Z</time></trkpt><trkpt lat="44.3462201" lon="9.3911281"><ele>61.0</ele><time>2026-03-22T13:25:03.682Z</time></trkpt><trkpt lat="44.3460849" lon="9.3912183"><ele>59.5</ele><time>2026-03-22T13:25:04.682Z</time></trkpt><trkpt lat="44.3459549" lon="9.3913275"><ele>58.0</ele><time>2026-03-22T13:25:05.682Z</time></trkpt><trkpt lat="44.3458438" lon="9.3914634"><ele>56.5</ele><time>2026-03-22T13:25:06.683Z</time></trkpt><trkpt lat="44.3457753" lon="9.3916452"><ele>55.0</ele><time>2026-03-22T13:25:07.682Z</time></trkpt><trkpt lat="44.3457381" lon="9.391852"><ele>55.33333333333333</ele><time>2026-03-22T13:25:08.682Z</time></trkpt><trkpt lat="44.3457247" lon="9.3920703"><ele>55.66666666666667</ele><time>2026-03-22T13:25:09.682Z</time></trkpt><trkpt lat="44.3457353" lon="9.3923025"><ele>56.0</ele><time>2026-03-22T13:25:10.682Z</time></trkpt><trkpt lat="44.3457579" lon="9.392544"><ele>56.0</ele><time>2026-03-22T13:25:11.682Z</time></trkpt><trkpt lat="44.3457761" lon="9.3927867"><ele>56.0</ele><time>2026-03-22T13:25:12.682Z</time></trkpt><trkpt lat="44.3457969" lon="9.3930099"><ele>56.0</ele><time>2026-03-22T13:25:13.682Z</time></trkpt><trkpt lat="44.3458196" lon="9.3932213"><ele>56.0</ele><time>2026-03-22T13:25:14.682Z</time></trkpt><trkpt lat="44.3458258" lon="9.3934331"><ele>56.0</ele><time>2026-03-22T13:25:15.682Z</time></trkpt><trkpt lat="44.3458062" lon="9.3936468"><ele>56.0</ele><time>2026-03-22T13:25:16.682Z</time></trkpt><trkpt lat="44.3457647" lon="9.3938529"><ele>56.0</ele><time>2026-03-22T13:25:17.682Z</time></trkpt><trkpt lat="44.3457011" lon="9.3940482"><ele>56.0</ele><time>2026-03-22T13:25:18.682Z</time></trkpt><trkpt lat="44.3456156" lon="9.3942261"><ele>56.0</ele><time>2026-03-22T13:25:19.682Z</time></trkpt><trkpt lat="44.3455098" lon="9.3943852"><ele>56.333333333333336</ele><time>2026-03-22T13:25:20.682Z</time></trkpt><trkpt lat="44.3453969" lon="9.3945269"><ele>56.66666666666667</ele><time>2026-03-22T13:25:21.682Z</time></trkpt><trkpt lat="44.3452742" lon="9.3946532"><ele>57.0</ele><time>2026-03-22T13:25:22.682Z</time></trkpt><trkpt lat="44.3451466" lon="9.3947823"><ele>57.0</ele><time>2026-03-22T13:25:23.682Z</time></trkpt><trkpt lat="44.3450185" lon="9.394915"><ele>57.0</ele><time>2026-03-22T13:25:24.682Z</time></trkpt><trkpt lat="44.3448895" lon="9.3950511"><ele>57.0</ele><time>2026-03-22T13:25:25.682Z</time></trkpt><trkpt lat="44.3447608" lon="9.3951877"><ele>58.0</ele><time>2026-03-22T13:25:26.682Z</time></trkpt><trkpt lat="44.3446376" lon="9.3953199"><ele>59.0</ele><time>2026-03-22T13:25:27.682Z</time></trkpt><trkpt lat="44.3445178" lon="9.3954529"><ele>60.0</ele><time>2026-03-22T13:25:28.682Z</time></trkpt><trkpt lat="44.3443982" lon="9.3955818"><ele>60.0</ele><time>2026-03-22T13:25:29.682Z</time></trkpt><trkpt lat="44.344281" lon="9.3957041"><ele>60.0</ele><time>2026-03-22T13:25:30.682Z</time></trkpt><trkpt lat="44.3441591" lon="9.3958294"><ele>60.0</ele><time>2026-03-22T13:25:31.683Z</time></trkpt><trkpt lat="44.3440428" lon="9.3959492"><ele>60.0</ele><time>2026-03-22T13:25:32.682Z</time></trkpt><trkpt lat="44.3439223" lon="9.3960757"><ele>59.25</ele><time>2026-03-22T13:25:33.682Z</time></trkpt><trkpt lat="44.3438117" lon="9.3962145"><ele>58.5</ele><time>2026-03-22T13:25:34.682Z</time></trkpt><trkpt lat="44.3437124" lon="9.3963669"><ele>57.75</ele><time>2026-03-22T13:25:35.682Z</time></trkpt><trkpt lat="44.3436342" lon="9.3965494"><ele>57.0</ele><time>2026-03-22T13:25:36.682Z</time></trkpt><trkpt lat="44.3435873" lon="9.3967452"><ele>57.0</ele><time>2026-03-22T13:25:37.682Z</time></trkpt><trkpt lat="44.3435764" lon="9.3969602"><ele>57.0</ele><time>2026-03-22T13:25:38.682Z</time></trkpt><trkpt lat="44.3436071" lon="9.3971736"><ele>57.0</ele><time>2026-03-22T13:25:39.682Z</time></trkpt><trkpt lat="44.3436712" lon="9.3973712"><ele>58.0</ele><time>2026-03-22T13:25:40.682Z</time></trkpt><trkpt lat="44.3437496" lon="9.3975422"><ele>59.0</ele><time>2026-03-22T13:25:41.682Z</time></trkpt><trkpt lat="44.3438336" lon="9.3976762"><ele>60.0</ele><time>2026-03-22T13:25:42.682Z</time></trkpt><trkpt lat="44.3439279" lon="9.3977899"><ele>61.0</ele><time>2026-03-22T13:25:43.682Z</time></trkpt><trkpt lat="44.344035" lon="9.3978507"><ele>61.5</ele><time>2026-03-22T13:25:44.682Z</time></trkpt><trkpt lat="44.3441414" lon="9.3979075"><ele>62.0</ele><time>2026-03-22T13:25:45.682Z</time></trkpt><trkpt lat="44.3442382" lon="9.3979787"><ele>62.5</ele><time>2026-03-22T13:25:46.682Z</time></trkpt><trkpt lat="44.3443343" lon="9.3980688"><ele>63.0</ele><time>2026-03-22T13:25:47.682Z</time></trkpt><trkpt lat="44.3444262" lon="9.3981817"><ele>63.0</ele><time>2026-03-22T13:25:48.682Z</time></trkpt><trkpt lat="44.3445011" lon="9.3983166"><ele>63.0</ele><time>2026-03-22T13:25:49.682Z</time></trkpt><trkpt lat="44.344583" lon="9.3984626"><ele>63.0</ele><time>2026-03-22T13:25:50.682Z</time></trkpt><trkpt lat="44.3446252" lon="9.3986394"><ele>63.0</ele><time>2026-03-22T13:25:51.682Z</time></trkpt><trkpt lat="44.3446592" lon="9.3988079"><ele>62.599999999999994</ele><time>2026-03-22T13:25:52.682Z</time></trkpt><trkpt lat="44.3446726" lon="9.3989656"><ele>62.199999999999996</ele><time>2026-03-22T13:25:53.682Z</time></trkpt><trkpt lat="44.344672" lon="9.3991079"><ele>61.8</ele><time>2026-03-22T13:25:54.682Z</time></trkpt><trkpt lat="44.3446921" lon="9.3992387"><ele>61.4</ele><time>2026-03-22T13:25:55.682Z</time></trkpt><trkpt lat="44.3447277" lon="9.399372"><ele>61.0</ele><time>2026-03-22T13:25:56.682Z</time></trkpt><trkpt lat="44.3447794" lon="9.3995072"><ele>63.25</ele><time>2026-03-22T13:25:57.682Z</time></trkpt><trkpt lat="44.3448494" lon="9.399637"><ele>65.5</ele><time>2026-03-22T13:25:58.682Z</time></trkpt><trkpt lat="44.3449163" lon="9.3997675"><ele>67.75</ele><time>2026-03-22T13:25:59.682Z</time></trkpt><trkpt lat="44.3449795" lon="9.3999065"><ele>70.0</ele><time>2026-03-22T13:26:00.682Z</time></trkpt><trkpt lat="44.3450366" lon="9.4000669"><ele>70.0</ele><time>2026-03-22T13:26:01.682Z</time></trkpt><trkpt lat="44.345085" lon="9.4002422"><ele>70.0</ele><time>2026-03-22T13:26:02.682Z</time></trkpt><trkpt lat="44.3451302" lon="9.4004477"><ele>70.0</ele><time>2026-03-22T13:26:03.683Z</time></trkpt><trkpt lat="44.3451775" lon="9.400631"><ele>70.0</ele><time>2026-03-22T13:26:04.682Z</time></trkpt><trkpt lat="44.3452312" lon="9.4008198"><ele>69.25</ele><time>2026-03-22T13:26:05.682Z</time></trkpt><trkpt lat="44.3452859" lon="9.4010001"><ele>68.5</ele><time>2026-03-22T13:26:06.682Z</time></trkpt><trkpt lat="44.3453644" lon="9.4011686"><ele>67.75</ele><time>2026-03-22T13:26:07.682Z</time></trkpt><trkpt lat="44.3454306" lon="9.4013312"><ele>67.0</ele><time>2026-03-22T13:26:08.682Z</time></trkpt><trkpt lat="44.3454895" lon="9.401485"><ele>69.0</ele><time>2026-03-22T13:26:09.682Z</time></trkpt><trkpt lat="44.3455568" lon="9.4016129"><ele>71.0</ele><time>2026-03-22T13:26:10.682Z</time></trkpt><trkpt lat="44.3456341" lon="9.4017187"><ele>73.0</ele><time>2026-03-22T13:26:11.682Z</time></trkpt><trkpt lat="44.3457165" lon="9.4018269"><ele>75.0</ele><time>2026-03-22T13:26:12.682Z</time></trkpt><trkpt lat="44.3458039" lon="9.4019302"><ele>77.0</ele><time>2026-03-22T13:26:13.682Z</time></trkpt><trkpt lat="44.3459092" lon="9.4020245"><ele>77.0</ele><time>2026-03-22T13:26:14.682Z</time></trkpt><trkpt lat="44.3460192" lon="9.4021033"><ele>77.0</ele><time>2026-03-22T13:26:15.682Z</time></trkpt><trkpt lat="44.3461273" lon="9.402174"><ele>77.0</ele><time>2026-03-22T13:26:16.682Z</time></trkpt><trkpt lat="44.3462308" lon="9.4022481"><ele>77.0</ele><time>2026-03-22T13:26:17.682Z</time></trkpt><trkpt lat="44.3463249" lon="9.4023431"><ele>77.25</ele><time>2026-03-22T13:26:18.682Z</time></trkpt><trkpt lat="44.3464009" lon="9.4024756"><ele>77.5</ele><time>2026-03-22T13:26:19.682Z</time></trkpt><trkpt lat="44.3464613" lon="9.4026348"><ele>77.75</ele><time>2026-03-22T13:26:20.682Z</time></trkpt><trkpt lat="44.3464997" lon="9.4028086"><ele>78.0</ele><time>2026-03-22T13:26:21.682Z</time></trkpt><trkpt lat="44.3465202" lon="9.4030046"><ele>78.0</ele><time>2026-03-22T13:26:22.683Z</time></trkpt><trkpt lat="44.3465294" lon="9.403203"><ele>78.0</ele><time>2026-03-22T13:26:23.683Z</time></trkpt><trkpt lat="44.3465266" lon="9.4034071"><ele>78.0</ele><time>2026-03-22T13:26:24.681Z</time></trkpt><trkpt lat="44.3465265" lon="9.4035994"><ele>78.0</ele><time>2026-03-22T13:26:25.682Z</time></trkpt><trkpt lat="44.3465364" lon="9.4037995"><ele>77.75</ele><time>2026-03-22T13:26:26.682Z</time></trkpt><trkpt lat="44.3465639" lon="9.4039979"><ele>77.5</ele><time>2026-03-22T13:26:27.682Z</time></trkpt><trkpt lat="44.3466059" lon="9.4041884"><ele>77.25</ele><time>2026-03-22T13:26:28.682Z</time></trkpt><trkpt lat="44.3466577" lon="9.4043677"><ele>77.0</ele><time>2026-03-22T13:26:29.682Z</time></trkpt><trkpt lat="44.3467176" lon="9.4045367"><ele>77.0</ele><time>2026-03-22T13:26:30.682Z</time></trkpt><trkpt lat="44.346794" lon="9.4046911"><ele>77.0</ele><time>2026-03-22T13:26:31.682Z</time></trkpt><trkpt lat="44.3468812" lon="9.4048245"><ele>77.0</ele><time>2026-03-22T13:26:32.682Z</time></trkpt><trkpt lat="44.3469725" lon="9.4049463"><ele>77.0</ele><time>2026-03-22T13:26:33.682Z</time></trkpt><trkpt lat="44.3470669" lon="9.4050562"><ele>77.0</ele><time>2026-03-22T13:26:34.682Z</time></trkpt><trkpt lat="44.3471817" lon="9.4051438"><ele>77.0</ele><time>2026-03-22T13:26:35.682Z</time></trkpt><trkpt lat="44.3473061" lon="9.4052178"><ele>77.0</ele><time>2026-03-22T13:26:36.682Z</time></trkpt><trkpt lat="44.3474347" lon="9.4052861"><ele>77.0</ele><time>2026-03-22T13:26:37.682Z</time></trkpt><trkpt lat="44.3475632" lon="9.405358"><ele>77.25</ele><time>2026-03-22T13:26:38.682Z</time></trkpt><trkpt lat="44.3476957" lon="9.4054298"><ele>77.5</ele><time>2026-03-22T13:26:39.682Z</time></trkpt><trkpt lat="44.3478334" lon="9.4055265"><ele>77.75</ele><time>2026-03-22T13:26:40.682Z</time></trkpt><trkpt lat="44.3479596" lon="9.4056309"><ele>78.0</ele><time>2026-03-22T13:26:41.682Z</time></trkpt><trkpt lat="44.3480847" lon="9.4057496"><ele>78.5</ele><time>2026-03-22T13:26:42.682Z</time></trkpt><trkpt lat="44.3481557" lon="9.4059096"><ele>79.0</ele><time>2026-03-22T13:26:43.683Z</time></trkpt><trkpt lat="44.3482366" lon="9.4060589"><ele>79.5</ele><time>2026-03-22T13:26:44.682Z</time></trkpt><trkpt lat="44.3483163" lon="9.4062147"><ele>80.0</ele><time>2026-03-22T13:26:45.682Z</time></trkpt><trkpt lat="44.348411" lon="9.4063518"><ele>80.0</ele><time>2026-03-22T13:26:46.683Z</time></trkpt><trkpt lat="44.348513" lon="9.4065013"><ele>80.0</ele><time>2026-03-22T13:26:47.682Z</time></trkpt><trkpt lat="44.3486038" lon="9.4066431"><ele>80.0</ele><time>2026-03-22T13:26:48.682Z</time></trkpt><trkpt lat="44.3486835" lon="9.4068027"><ele>80.0</ele><time>2026-03-22T13:26:49.682Z</time></trkpt><trkpt lat="44.3487474" lon="9.4069593"><ele>80.0</ele><time>2026-03-22T13:26:50.682Z</time></trkpt><trkpt lat="44.3488296" lon="9.4071153"><ele>80.0</ele><time>2026-03-22T13:26:51.682Z</time></trkpt><trkpt lat="44.3489333" lon="9.4072468"><ele>80.0</ele><time>2026-03-22T13:26:52.682Z</time></trkpt><trkpt lat="44.3490429" lon="9.4073771"><ele>80.0</ele><time>2026-03-22T13:26:53.683Z</time></trkpt><trkpt lat="44.3491434" lon="9.4075128"><ele>81.0</ele><time>2026-03-22T13:26:54.682Z</time></trkpt><trkpt lat="44.3492416" lon="9.4076581"><ele>82.0</ele><time>2026-03-22T13:26:55.682Z</time></trkpt><trkpt lat="44.3493174" lon="9.407821"><ele>83.0</ele><time>2026-03-22T13:26:56.682Z</time></trkpt><trkpt lat="44.3493899" lon="9.4079908"><ele>84.0</ele><time>2026-03-22T13:26:57.683Z</time></trkpt><trkpt lat="44.3494546" lon="9.4081735"><ele>84.0</ele><time>2026-03-22T13:26:58.682Z</time></trkpt><trkpt lat="44.3495154" lon="9.4083614"><ele>84.0</ele><time>2026-03-22T13:26:59.682Z</time></trkpt><trkpt lat="44.3495826" lon="9.4085439"><ele>84.0</ele><time>2026-03-22T13:27:00.682Z</time></trkpt><trkpt lat="44.3496373" lon="9.4087337"><ele>84.0</ele><time>2026-03-22T13:27:01.682Z</time></trkpt><trkpt lat="44.3496936" lon="9.408915"><ele>88.75</ele><time>2026-03-22T13:27:02.683Z</time></trkpt><trkpt lat="44.3497493" lon="9.4091058"><ele>93.5</ele><time>2026-03-22T13:27:03.682Z</time></trkpt><trkpt lat="44.3498091" lon="9.4092836"><ele>98.25</ele><time>2026-03-22T13:27:04.683Z</time></trkpt><trkpt lat="44.3498702" lon="9.4094645"><ele>103.0</ele><time>2026-03-22T13:27:05.682Z</time></trkpt><trkpt lat="44.3499589" lon="9.4096268"><ele>100.25</ele><time>2026-03-22T13:27:06.682Z</time></trkpt><trkpt lat="44.3500539" lon="9.4097822"><ele>97.5</ele><time>2026-03-22T13:27:07.682Z</time></trkpt><trkpt lat="44.3501379" lon="9.4099351"><ele>94.75</ele><time>2026-03-22T13:27:08.682Z</time></trkpt><trkpt lat="44.350225" lon="9.4100944"><ele>92.0</ele><time>2026-03-22T13:27:09.682Z</time></trkpt><trkpt lat="44.3502937" lon="9.4102778"><ele>92.0</ele><time>2026-03-22T13:27:10.682Z</time></trkpt><trkpt lat="44.3503663" lon="9.410435"><ele>92.0</ele><time>2026-03-22T13:27:11.682Z</time></trkpt><trkpt lat="44.3504387" lon="9.4105833"><ele>92.0</ele><time>2026-03-22T13:27:12.682Z</time></trkpt><trkpt lat="44.350506" lon="9.4107416"><ele>92.0</ele><time>2026-03-22T13:27:13.682Z</time></trkpt><trkpt lat="44.350543" lon="9.4109352"><ele>96.25</ele><time>2026-03-22T13:27:14.682Z</time></trkpt><trkpt lat="44.3505583" lon="9.4111311"><ele>100.5</ele><time>2026-03-22T13:27:15.683Z</time></trkpt><trkpt lat="44.3505811" lon="9.4113196"><ele>104.75</ele><time>2026-03-22T13:27:16.682Z</time></trkpt><trkpt lat="44.3506196" lon="9.4115117"><ele>109.0</ele><time>2026-03-22T13:27:17.682Z</time></trkpt><trkpt lat="44.3506633" lon="9.4116774"><ele>109.0</ele><time>2026-03-22T13:27:18.682Z</time></trkpt><trkpt lat="44.3507206" lon="9.4118049"><ele>109.0</ele><time>2026-03-22T13:27:19.683Z</time></trkpt><trkpt lat="44.3507659" lon="9.4119097"><ele>109.0</ele><time>2026-03-22T13:27:20.682Z</time></trkpt><trkpt lat="44.3508167" lon="9.4120232"><ele>109.0</ele><time>2026-03-22T13:27:21.682Z</time></trkpt><trkpt lat="44.3509649" lon="9.4120515"><ele>109.0</ele><time>2026-03-22T13:27:22.682Z</time></trkpt><trkpt lat="44.3510901" lon="9.4121191"><ele>111.0</ele><time>2026-03-22T13:27:23.682Z</time></trkpt><trkpt lat="44.3512202" lon="9.4121807"><ele>113.0</ele><time>2026-03-22T13:27:24.682Z</time></trkpt><trkpt lat="44.3513472" lon="9.412278"><ele>115.0</ele><time>2026-03-22T13:27:25.682Z</time></trkpt><trkpt lat="44.3514604" lon="9.4124093"><ele>117.0</ele><time>2026-03-22T13:27:26.682Z</time></trkpt><trkpt lat="44.3515641" lon="9.4125565"><ele>117.0</ele><time>2026-03-22T13:27:27.682Z</time></trkpt><trkpt lat="44.3516538" lon="9.4127255"><ele>117.0</ele><time>2026-03-22T13:27:28.682Z</time></trkpt><trkpt lat="44.3517108" lon="9.4129223"><ele>117.0</ele><time>2026-03-22T13:27:29.682Z</time></trkpt><trkpt lat="44.3517756" lon="9.4131144"><ele>113.5</ele><time>2026-03-22T13:27:30.682Z</time></trkpt><trkpt lat="44.3518299" lon="9.4133095"><ele>110.0</ele><time>2026-03-22T13:27:31.682Z</time></trkpt><trkpt lat="44.3518604" lon="9.4135032"><ele>106.5</ele><time>2026-03-22T13:27:32.682Z</time></trkpt><trkpt lat="44.3518567" lon="9.4137071"><ele>103.0</ele><time>2026-03-22T13:27:33.682Z</time></trkpt><trkpt lat="44.3518477" lon="9.4139061"><ele>103.0</ele><time>2026-03-22T13:27:34.682Z</time></trkpt><trkpt lat="44.3518377" lon="9.4140974"><ele>103.0</ele><time>2026-03-22T13:27:35.682Z</time></trkpt><trkpt lat="44.3518136" lon="9.4142776"><ele>103.0</ele><time>2026-03-22T13:27:36.683Z</time></trkpt><trkpt lat="44.3517926" lon="9.4144424"><ele>103.0</ele><time>2026-03-22T13:27:37.682Z</time></trkpt><trkpt lat="44.3517945" lon="9.4146056"><ele>104.5</ele><time>2026-03-22T13:27:38.682Z</time></trkpt><trkpt lat="44.3518188" lon="9.4147624"><ele>106.0</ele><time>2026-03-22T13:27:39.682Z</time></trkpt><trkpt lat="44.3518832" lon="9.4149115"><ele>107.5</ele><time>2026-03-22T13:27:40.682Z</time></trkpt><trkpt lat="44.3519444" lon="9.4150567"><ele>109.0</ele><time>2026-03-22T13:27:41.683Z</time></trkpt><trkpt lat="44.3520123" lon="9.41518"><ele>109.0</ele><time>2026-03-22T13:27:42.682Z</time></trkpt><trkpt lat="44.3521002" lon="9.4152759"><ele>109.0</ele><time>2026-03-22T13:27:43.682Z</time></trkpt><trkpt lat="44.3522027" lon="9.4153458"><ele>109.0</ele><time>2026-03-22T13:27:44.682Z</time></trkpt><trkpt lat="44.3523114" lon="9.4153875"><ele>109.0</ele><time>2026-03-22T13:27:45.682Z</time></trkpt><trkpt lat="44.3524178" lon="9.4154577"><ele>109.0</ele><time>2026-03-22T13:27:46.682Z</time></trkpt><trkpt lat="44.35252" lon="9.4155804"><ele>109.0</ele><time>2026-03-22T13:27:47.683Z</time></trkpt><trkpt lat="44.3526291" lon="9.4157376"><ele>109.0</ele><time>2026-03-22T13:27:48.682Z</time></trkpt><trkpt lat="44.3527401" lon="9.4158751"><ele>109.0</ele><time>2026-03-22T13:27:49.682Z</time></trkpt><trkpt lat="44.3528383" lon="9.416011"><ele>109.0</ele><time>2026-03-22T13:27:50.682Z</time></trkpt><trkpt lat="44.3528995" lon="9.4161566"><ele>109.0</ele><time>2026-03-22T13:27:51.682Z</time></trkpt><trkpt lat="44.3529473" lon="9.4163245"><ele>109.0</ele><time>2026-03-22T13:27:52.682Z</time></trkpt><trkpt lat="44.3529814" lon="9.4165074"><ele>109.0</ele><time>2026-03-22T13:27:53.682Z</time></trkpt><trkpt lat="44.3530271" lon="9.4166851"><ele>110.0</ele><time>2026-03-22T13:27:54.682Z</time></trkpt><trkpt lat="44.3530767" lon="9.4168369"><ele>111.0</ele><time>2026-03-22T13:27:55.682Z</time></trkpt><trkpt lat="44.3531443" lon="9.4169759"><ele>112.0</ele><time>2026-03-22T13:27:56.682Z</time></trkpt><trkpt lat="44.3532302" lon="9.4170971"><ele>113.0</ele><time>2026-03-22T13:27:57.682Z</time></trkpt><trkpt lat="44.3533483" lon="9.4171995"><ele>113.0</ele><time>2026-03-22T13:27:58.682Z</time></trkpt><trkpt lat="44.3534697" lon="9.4172964"><ele>113.0</ele><time>2026-03-22T13:27:59.683Z</time></trkpt><trkpt lat="44.3535999" lon="9.4173802"><ele>113.0</ele><time>2026-03-22T13:28:00.682Z</time></trkpt><trkpt lat="44.3537386" lon="9.4174616"><ele>113.0</ele><time>2026-03-22T13:28:01.683Z</time></trkpt><trkpt lat="44.3538756" lon="9.4175429"><ele>115.5</ele><time>2026-03-22T13:28:02.682Z</time></trkpt><trkpt lat="44.3540041" lon="9.4176117"><ele>118.0</ele><time>2026-03-22T13:28:03.682Z</time></trkpt><trkpt lat="44.3541267" lon="9.4176727"><ele>120.5</ele><time>2026-03-22T13:28:04.683Z</time></trkpt><trkpt lat="44.3542249" lon="9.4177418"><ele>123.0</ele><time>2026-03-22T13:28:05.682Z</time></trkpt><trkpt lat="44.3543237" lon="9.4178225"><ele>123.0</ele><time>2026-03-22T13:28:06.682Z</time></trkpt><trkpt lat="44.3544122" lon="9.4179082"><ele>123.0</ele><time>2026-03-22T13:28:07.682Z</time></trkpt><trkpt lat="44.3544917" lon="9.4180636"><ele>123.0</ele><time>2026-03-22T13:28:08.682Z</time></trkpt><trkpt lat="44.3545556" lon="9.4182188"><ele>123.0</ele><time>2026-03-22T13:28:09.682Z</time></trkpt><trkpt lat="44.3546637" lon="9.4183169"><ele>126.33333333333334</ele><time>2026-03-22T13:28:10.682Z</time></trkpt><trkpt lat="44.3547682" lon="9.4184524"><ele>129.66666666666669</ele><time>2026-03-22T13:28:11.682Z</time></trkpt><trkpt lat="44.3549009" lon="9.4185822"><ele>133.0</ele><time>2026-03-22T13:28:12.682Z</time></trkpt><trkpt lat="44.3550374" lon="9.4187432"><ele>130.75</ele><time>2026-03-22T13:28:13.682Z</time></trkpt><trkpt lat="44.3551397" lon="9.4188615"><ele>128.5</ele><time>2026-03-22T13:28:14.682Z</time></trkpt><trkpt lat="44.3552374" lon="9.4189459"><ele>126.25</ele><time>2026-03-22T13:28:15.683Z</time></trkpt><trkpt lat="44.3553261" lon="9.4190367"><ele>124.0</ele><time>2026-03-22T13:28:16.682Z</time></trkpt><trkpt lat="44.3554154" lon="9.4190891"><ele>126.5</ele><time>2026-03-22T13:28:17.682Z</time></trkpt><trkpt lat="44.3555742" lon="9.4190297"><ele>129.0</ele><time>2026-03-22T13:28:18.682Z</time></trkpt><trkpt lat="44.3556968" lon="9.4190678"><ele>131.5</ele><time>2026-03-22T13:28:19.682Z</time></trkpt><trkpt lat="44.3558247" lon="9.4191075"><ele>134.0</ele><time>2026-03-22T13:28:20.682Z</time></trkpt><trkpt lat="44.3559456" lon="9.4191322"><ele>134.0</ele><time>2026-03-22T13:28:21.682Z</time></trkpt><trkpt lat="44.3560686" lon="9.4192115"><ele>134.0</ele><time>2026-03-22T13:28:22.682Z</time></trkpt><trkpt lat="44.3561366" lon="9.4192861"><ele>134.0</ele><time>2026-03-22T13:28:23.683Z</time></trkpt><trkpt lat="44.3562364" lon="9.4193435"><ele>134.0</ele><time>2026-03-22T13:28:24.683Z</time></trkpt><trkpt lat="44.3563026" lon="9.4194096"><ele>134.0</ele><time>2026-03-22T13:28:25.682Z</time></trkpt><trkpt lat="44.356387" lon="9.4194225"><ele>137.2</ele><time>2026-03-22T13:28:26.683Z</time></trkpt><trkpt lat="44.3564476" lon="9.4194772"><ele>140.4</ele><time>2026-03-22T13:28:27.682Z</time></trkpt><trkpt lat="44.3565522" lon="9.4194539"><ele>143.6</ele><time>2026-03-22T13:28:28.683Z</time></trkpt><trkpt lat="44.3566836" lon="9.4193601"><ele>146.8</ele><time>2026-03-22T13:28:29.682Z</time></trkpt><trkpt lat="44.3567932" lon="9.4193382"><ele>150.0</ele><time>2026-03-22T13:28:30.682Z</time></trkpt><trkpt lat="44.3568865" lon="9.4193797"><ele>150.0</ele><time>2026-03-22T13:28:31.682Z</time></trkpt><trkpt lat="44.3569804" lon="9.4194359"><ele>150.0</ele><time>2026-03-22T13:28:32.682Z</time></trkpt><trkpt lat="44.3570566" lon="9.4195292"><ele>150.0</ele><time>2026-03-22T13:28:33.682Z</time></trkpt><trkpt lat="44.3571189" lon="9.4196149"><ele>150.0</ele><time>2026-03-22T13:28:34.683Z</time></trkpt><trkpt lat="44.3571778" lon="9.4196949"><ele>150.0</ele><time>2026-03-22T13:28:35.682Z</time></trkpt><trkpt lat="44.3572528" lon="9.419828"><ele>148.66666666666666</ele><time>2026-03-22T13:28:37.682Z</time></trkpt><trkpt lat="44.3573234" lon="9.4199124"><ele>147.33333333333334</ele><time>2026-03-22T13:28:39.682Z</time></trkpt><trkpt lat="44.3574173" lon="9.4199106"><ele>146.0</ele><time>2026-03-22T13:28:40.682Z</time></trkpt><trkpt lat="44.3574923" lon="9.419925"><ele>144.66666666666669</ele><time>2026-03-22T13:28:41.682Z</time></trkpt><trkpt lat="44.3575576" lon="9.4199441"><ele>143.33333333333334</ele><time>2026-03-22T13:28:42.682Z</time></trkpt><trkpt lat="44.3576425" lon="9.420003"><ele>142.0</ele><time>2026-03-22T13:28:44.682Z</time></trkpt><trkpt lat="44.3577072" lon="9.4200736"><ele>142.0</ele><time>2026-03-22T13:29:10.682Z</time></trkpt><trkpt lat="44.3577408" lon="9.4199833"><ele>142.0</ele><time>2026-03-22T13:29:18.682Z</time></trkpt><trkpt lat="44.3576681" lon="9.4200008"><ele>142.0</ele><time>2026-03-22T13:29:30.682Z</time></trkpt><trkpt lat="44.3575584" lon="9.419915"><ele>142.0</ele><time>2026-03-22T13:29:31.682Z</time></trkpt><trkpt lat="44.3574762" lon="9.4199049"><ele>142.0</ele><time>2026-03-22T13:29:32.682Z</time></trkpt><trkpt lat="44.357401" lon="9.4199046"><ele>142.0</ele><time>2026-03-22T13:29:33.682Z</time></trkpt><trkpt lat="44.357303" lon="9.4198252"><ele>142.0</ele><time>2026-03-22T13:29:35.682Z</time></trkpt><trkpt lat="44.3572574" lon="9.4197593"><ele>142.0</ele><time>2026-03-22T13:29:36.682Z</time></trkpt><trkpt lat="44.3572022" lon="9.4196445"><ele>142.0</ele><time>2026-03-22T13:29:37.682Z</time></trkpt><trkpt lat="44.3571362" lon="9.4195345"><ele>142.0</ele><time>2026-03-22T13:29:38.682Z</time></trkpt><trkpt lat="44.3570702" lon="9.41943"><ele>142.0</ele><time>2026-03-22T13:29:39.682Z</time></trkpt><trkpt lat="44.3570002" lon="9.4193439"><ele>143.6</ele><time>2026-03-22T13:29:40.682Z</time></trkpt><trkpt lat="44.3568996" lon="9.4193291"><ele>145.2</ele><time>2026-03-22T13:29:41.682Z</time></trkpt><trkpt lat="44.3568035" lon="9.4192953"><ele>146.8</ele><time>2026-03-22T13:29:42.682Z</time></trkpt><trkpt lat="44.3567021" lon="9.4193124"><ele>148.4</ele><time>2026-03-22T13:29:43.682Z</time></trkpt><trkpt lat="44.3565978" lon="9.4193217"><ele>150.0</ele><time>2026-03-22T13:29:44.682Z</time></trkpt><trkpt lat="44.3564998" lon="9.4193326"><ele>150.0</ele><time>2026-03-22T13:29:45.683Z</time></trkpt><trkpt lat="44.3564179" lon="9.4193467"><ele>150.0</ele><time>2026-03-22T13:29:46.682Z</time></trkpt><trkpt lat="44.3563455" lon="9.4193616"><ele>150.0</ele><time>2026-03-22T13:29:47.682Z</time></trkpt><trkpt lat="44.3562683" lon="9.4193299"><ele>150.0</ele><time>2026-03-22T13:29:48.682Z</time></trkpt><trkpt lat="44.356178" lon="9.4192543"><ele>150.0</ele><time>2026-03-22T13:29:49.682Z</time></trkpt><trkpt lat="44.356088" lon="9.4191899"><ele>150.0</ele><time>2026-03-22T13:29:50.682Z</time></trkpt><trkpt lat="44.3559521" lon="9.41914"><ele>146.8</ele><time>2026-03-22T13:29:51.682Z</time></trkpt><trkpt lat="44.3558432" lon="9.4190778"><ele>143.6</ele><time>2026-03-22T13:29:52.683Z</time></trkpt><trkpt lat="44.3557291" lon="9.419056"><ele>140.4</ele><time>2026-03-22T13:29:53.683Z</time></trkpt><trkpt lat="44.3556151" lon="9.4190244"><ele>137.2</ele><time>2026-03-22T13:29:54.684Z</time></trkpt><trkpt lat="44.355515" lon="9.4190128"><ele>134.0</ele><time>2026-03-22T13:29:55.682Z</time></trkpt><trkpt lat="44.35542" lon="9.4190068"><ele>133.83333333333331</ele><time>2026-03-22T13:29:56.682Z</time></trkpt><trkpt lat="44.3553366" lon="9.4189984"><ele>133.66666666666666</ele><time>2026-03-22T13:29:57.682Z</time></trkpt><trkpt lat="44.3552572" lon="9.4189507"><ele>133.5</ele><time>2026-03-22T13:29:58.682Z</time></trkpt><trkpt lat="44.3551848" lon="9.4189005"><ele>133.33333333333334</ele><time>2026-03-22T13:29:59.682Z</time></trkpt><trkpt lat="44.355119" lon="9.4188298"><ele>133.16666666666669</ele><time>2026-03-22T13:30:00.682Z</time></trkpt><trkpt lat="44.355063" lon="9.4187619"><ele>133.0</ele><time>2026-03-22T13:30:01.682Z</time></trkpt><trkpt lat="44.3550044" lon="9.4186996"><ele>133.0</ele><time>2026-03-22T13:30:02.682Z</time></trkpt><trkpt lat="44.3549484" lon="9.418634"><ele>133.0</ele><time>2026-03-22T13:30:03.682Z</time></trkpt><trkpt lat="44.354891" lon="9.418571"><ele>133.0</ele><time>2026-03-22T13:30:04.682Z</time></trkpt><trkpt lat="44.3548324" lon="9.4185184"><ele>133.0</ele><time>2026-03-22T13:30:05.682Z</time></trkpt><trkpt lat="44.3547658" lon="9.4184738"><ele>133.0</ele><time>2026-03-22T13:30:06.682Z</time></trkpt><trkpt lat="44.3546984" lon="9.4184056"><ele>133.0</ele><time>2026-03-22T13:30:07.682Z</time></trkpt><trkpt lat="44.3546229" lon="9.4183358"><ele>131.6</ele><time>2026-03-22T13:30:08.682Z</time></trkpt><trkpt lat="44.3545472" lon="9.4182524"><ele>130.20000000000002</ele><time>2026-03-22T13:30:09.682Z</time></trkpt><trkpt lat="44.3544796" lon="9.4181421"><ele>128.8</ele><time>2026-03-22T13:30:10.682Z</time></trkpt><trkpt lat="44.3544218" lon="9.4180281"><ele>127.4</ele><time>2026-03-22T13:30:11.682Z</time></trkpt><trkpt lat="44.3543689" lon="9.4179169"><ele>126.0</ele><time>2026-03-22T13:30:12.683Z</time></trkpt><trkpt lat="44.3543002" lon="9.4178333"><ele>125.25</ele><time>2026-03-22T13:30:13.682Z</time></trkpt><trkpt lat="44.3542283" lon="9.4177426"><ele>124.5</ele><time>2026-03-22T13:30:14.682Z</time></trkpt><trkpt lat="44.354105" lon="9.4176836"><ele>123.75</ele><time>2026-03-22T13:30:15.682Z</time></trkpt><trkpt lat="44.3540016" lon="9.4176196"><ele>123.0</ele><time>2026-03-22T13:30:16.682Z</time></trkpt><trkpt lat="44.3538924" lon="9.4175587"><ele>121.0</ele><time>2026-03-22T13:30:17.682Z</time></trkpt><trkpt lat="44.353788" lon="9.4174953"><ele>119.00000000000001</ele><time>2026-03-22T13:30:18.682Z</time></trkpt><trkpt lat="44.3536879" lon="9.4174276"><ele>117.00000000000001</ele><time>2026-03-22T13:30:19.682Z</time></trkpt><trkpt lat="44.3535969" lon="9.4173534"><ele>115.0</ele><time>2026-03-22T13:30:20.682Z</time></trkpt><trkpt lat="44.3535039" lon="9.4172802"><ele>113.0</ele><time>2026-03-22T13:30:21.682Z</time></trkpt><trkpt lat="44.3534115" lon="9.4172081"><ele>114.60000000000001</ele><time>2026-03-22T13:30:22.682Z</time></trkpt><trkpt lat="44.353322" lon="9.4171331"><ele>116.20000000000002</ele><time>2026-03-22T13:30:23.682Z</time></trkpt><trkpt lat="44.3532408" lon="9.417047"><ele>117.8</ele><time>2026-03-22T13:30:24.682Z</time></trkpt><trkpt lat="44.3531655" lon="9.4169476"><ele>119.4</ele><time>2026-03-22T13:30:25.682Z</time></trkpt><trkpt lat="44.3531131" lon="9.4168372"><ele>121.0</ele><time>2026-03-22T13:30:26.682Z</time></trkpt><trkpt lat="44.3530646" lon="9.4167053"><ele>119.8</ele><time>2026-03-22T13:30:27.682Z</time></trkpt><trkpt lat="44.3530286" lon="9.4165728"><ele>118.6</ele><time>2026-03-22T13:30:28.682Z</time></trkpt><trkpt lat="44.3530029" lon="9.416438"><ele>117.4</ele><time>2026-03-22T13:30:29.682Z</time></trkpt><trkpt lat="44.352972" lon="9.4163075"><ele>116.2</ele><time>2026-03-22T13:30:30.682Z</time></trkpt><trkpt lat="44.3529268" lon="9.4161866"><ele>115.0</ele><time>2026-03-22T13:30:31.682Z</time></trkpt><trkpt lat="44.3528758" lon="9.4160732"><ele>113.8</ele><time>2026-03-22T13:30:32.682Z</time></trkpt><trkpt lat="44.3528139" lon="9.415975"><ele>112.6</ele><time>2026-03-22T13:30:33.682Z</time></trkpt><trkpt lat="44.3527466" lon="9.4158736"><ele>111.4</ele><time>2026-03-22T13:30:34.682Z</time></trkpt><trkpt lat="44.3526784" lon="9.4157627"><ele>110.2</ele><time>2026-03-22T13:30:35.682Z</time></trkpt><trkpt lat="44.3526052" lon="9.4156444"><ele>109.0</ele><time>2026-03-22T13:30:36.682Z</time></trkpt><trkpt lat="44.3525255" lon="9.415541"><ele>109.0</ele><time>2026-03-22T13:30:37.682Z</time></trkpt><trkpt lat="44.3524437" lon="9.4154547"><ele>109.0</ele><time>2026-03-22T13:30:38.682Z</time></trkpt><trkpt lat="44.3523441" lon="9.4153933"><ele>109.0</ele><time>2026-03-22T13:30:39.682Z</time></trkpt><trkpt lat="44.3522631" lon="9.4153556"><ele>109.0</ele><time>2026-03-22T13:30:40.682Z</time></trkpt><trkpt lat="44.352183" lon="9.4153191"><ele>109.0</ele><time>2026-03-22T13:30:41.682Z</time></trkpt><trkpt lat="44.352118" lon="9.4152567"><ele>109.0</ele><time>2026-03-22T13:30:42.682Z</time></trkpt><trkpt lat="44.3520548" lon="9.4151832"><ele>109.0</ele><time>2026-03-22T13:30:43.682Z</time></trkpt><trkpt lat="44.3519948" lon="9.415082"><ele>109.0</ele><time>2026-03-22T13:30:44.682Z</time></trkpt><trkpt lat="44.3519445" lon="9.4149754"><ele>109.0</ele><time>2026-03-22T13:30:45.683Z</time></trkpt><trkpt lat="44.3518849" lon="9.4148696"><ele>109.0</ele><time>2026-03-22T13:30:46.682Z</time></trkpt><trkpt lat="44.351842" lon="9.4147468"><ele>107.5</ele><time>2026-03-22T13:30:47.682Z</time></trkpt><trkpt lat="44.3518251" lon="9.4146164"><ele>106.0</ele><time>2026-03-22T13:30:48.682Z</time></trkpt><trkpt lat="44.3518312" lon="9.4144717"><ele>104.5</ele><time>2026-03-22T13:30:49.682Z</time></trkpt><trkpt lat="44.3518498" lon="9.4142939"><ele>103.0</ele><time>2026-03-22T13:30:50.682Z</time></trkpt><trkpt lat="44.3518655" lon="9.4140771"><ele>103.0</ele><time>2026-03-22T13:30:51.682Z</time></trkpt><trkpt lat="44.351883" lon="9.4138761"><ele>103.0</ele><time>2026-03-22T13:30:52.682Z</time></trkpt><trkpt lat="44.3518904" lon="9.4136878"><ele>103.0</ele><time>2026-03-22T13:30:53.682Z</time></trkpt><trkpt lat="44.3518796" lon="9.4135064"><ele>103.0</ele><time>2026-03-22T13:30:54.682Z</time></trkpt><trkpt lat="44.3518546" lon="9.4133296"><ele>102.0</ele><time>2026-03-22T13:30:55.682Z</time></trkpt><trkpt lat="44.3518113" lon="9.4131598"><ele>101.0</ele><time>2026-03-22T13:30:56.682Z</time></trkpt><trkpt lat="44.3517678" lon="9.4129974"><ele>100.0</ele><time>2026-03-22T13:30:57.682Z</time></trkpt><trkpt lat="44.3517138" lon="9.4128369"><ele>99.0</ele><time>2026-03-22T13:30:58.682Z</time></trkpt><trkpt lat="44.351657" lon="9.4126936"><ele>98.5</ele><time>2026-03-22T13:30:59.682Z</time></trkpt><trkpt lat="44.3515948" lon="9.4125587"><ele>98.0</ele><time>2026-03-22T13:31:00.682Z</time></trkpt><trkpt lat="44.3515189" lon="9.4124358"><ele>97.5</ele><time>2026-03-22T13:31:01.682Z</time></trkpt><trkpt lat="44.3514214" lon="9.4123306"><ele>97.0</ele><time>2026-03-22T13:31:02.682Z</time></trkpt><trkpt lat="44.3513145" lon="9.4122426"><ele>97.0</ele><time>2026-03-22T13:31:03.682Z</time></trkpt><trkpt lat="44.3511972" lon="9.4121662"><ele>97.0</ele><time>2026-03-22T13:31:04.682Z</time></trkpt><trkpt lat="44.3510867" lon="9.4121162"><ele>97.0</ele><time>2026-03-22T13:31:05.682Z</time></trkpt><trkpt lat="44.3509881" lon="9.4120711"><ele>97.0</ele><time>2026-03-22T13:31:06.682Z</time></trkpt><trkpt lat="44.3509099" lon="9.4120179"><ele>97.0</ele><time>2026-03-22T13:31:07.682Z</time></trkpt><trkpt lat="44.3508508" lon="9.4119588"><ele>99.00000000000001</ele><time>2026-03-22T13:31:08.682Z</time></trkpt><trkpt lat="44.3508017" lon="9.4118868"><ele>101.0</ele><time>2026-03-22T13:31:09.682Z</time></trkpt><trkpt lat="44.3507622" lon="9.4118003"><ele>103.0</ele><time>2026-03-22T13:31:10.682Z</time></trkpt><trkpt lat="44.3507222" lon="9.4117002"><ele>105.0</ele><time>2026-03-22T13:31:11.683Z</time></trkpt><trkpt lat="44.3506785" lon="9.4115731"><ele>107.00000000000001</ele><time>2026-03-22T13:31:12.683Z</time></trkpt><trkpt lat="44.3506453" lon="9.4114242"><ele>109.0</ele><time>2026-03-22T13:31:13.682Z</time></trkpt><trkpt lat="44.3506243" lon="9.4112353"><ele>112.0</ele><time>2026-03-22T13:31:14.682Z</time></trkpt><trkpt lat="44.3505982" lon="9.4110501"><ele>115.0</ele><time>2026-03-22T13:31:15.682Z</time></trkpt><trkpt lat="44.3505506" lon="9.410864"><ele>118.0</ele><time>2026-03-22T13:31:16.682Z</time></trkpt><trkpt lat="44.3505033" lon="9.4106742"><ele>121.0</ele><time>2026-03-22T13:31:17.682Z</time></trkpt><trkpt lat="44.350424" lon="9.4105288"><ele>113.75</ele><time>2026-03-22T13:31:18.682Z</time></trkpt><trkpt lat="44.3503714" lon="9.4103734"><ele>106.5</ele><time>2026-03-22T13:31:19.682Z</time></trkpt><trkpt lat="44.3503094" lon="9.4102152"><ele>99.25</ele><time>2026-03-22T13:31:20.682Z</time></trkpt><trkpt lat="44.3502293" lon="9.4100678"><ele>92.0</ele><time>2026-03-22T13:31:21.682Z</time></trkpt><trkpt lat="44.350149" lon="9.4099255"><ele>92.0</ele><time>2026-03-22T13:31:22.682Z</time></trkpt><trkpt lat="44.3500702" lon="9.4097914"><ele>92.0</ele><time>2026-03-22T13:31:23.682Z</time></trkpt><trkpt lat="44.3499918" lon="9.4096688"><ele>92.0</ele><time>2026-03-22T13:31:24.683Z</time></trkpt><trkpt lat="44.349918" lon="9.4095451"><ele>92.0</ele><time>2026-03-22T13:31:25.683Z</time></trkpt><trkpt lat="44.3498563" lon="9.4094051"><ele>92.0</ele><time>2026-03-22T13:31:26.682Z</time></trkpt><trkpt lat="44.3498012" lon="9.4092362"><ele>92.0</ele><time>2026-03-22T13:31:27.682Z</time></trkpt><trkpt lat="44.3497393" lon="9.4090389"><ele>92.0</ele><time>2026-03-22T13:31:28.682Z</time></trkpt><trkpt lat="44.3496819" lon="9.4088343"><ele>92.0</ele><time>2026-03-22T13:31:29.682Z</time></trkpt><trkpt lat="44.3496196" lon="9.4086458"><ele>92.0</ele><time>2026-03-22T13:31:30.682Z</time></trkpt><trkpt lat="44.349561" lon="9.4084597"><ele>92.0</ele><time>2026-03-22T13:31:31.682Z</time></trkpt><trkpt lat="44.3495037" lon="9.4082835"><ele>92.0</ele><time>2026-03-22T13:31:32.682Z</time></trkpt><trkpt lat="44.3494479" lon="9.4081086"><ele>92.0</ele><time>2026-03-22T13:31:33.682Z</time></trkpt><trkpt lat="44.3493888" lon="9.4079458"><ele>92.0</ele><time>2026-03-22T13:31:34.682Z</time></trkpt><trkpt lat="44.3493263" lon="9.4077991"><ele>92.0</ele><time>2026-03-22T13:31:35.682Z</time></trkpt><trkpt lat="44.3492457" lon="9.4076594"><ele>92.0</ele><time>2026-03-22T13:31:36.682Z</time></trkpt><trkpt lat="44.3491493" lon="9.4075122"><ele>92.0</ele><time>2026-03-22T13:31:37.682Z</time></trkpt><trkpt lat="44.3490561" lon="9.4073901"><ele>92.0</ele><time>2026-03-22T13:31:38.683Z</time></trkpt><trkpt lat="44.3489662" lon="9.4072886"><ele>92.0</ele><time>2026-03-22T13:31:39.682Z</time></trkpt><trkpt lat="44.3488871" lon="9.4071757"><ele>92.0</ele><time>2026-03-22T13:31:40.682Z</time></trkpt><trkpt lat="44.3488203" lon="9.407055"><ele>92.0</ele><time>2026-03-22T13:31:41.682Z</time></trkpt><trkpt lat="44.3487603" lon="9.4069142"><ele>89.0</ele><time>2026-03-22T13:31:42.682Z</time></trkpt><trkpt lat="44.3486957" lon="9.4067732"><ele>86.0</ele><time>2026-03-22T13:31:43.682Z</time></trkpt><trkpt lat="44.3486099" lon="9.4066364"><ele>83.0</ele><time>2026-03-22T13:31:44.682Z</time></trkpt><trkpt lat="44.3485219" lon="9.4065156"><ele>80.0</ele><time>2026-03-22T13:31:45.682Z</time></trkpt><trkpt lat="44.3484367" lon="9.4063948"><ele>82.25</ele><time>2026-03-22T13:31:46.682Z</time></trkpt><trkpt lat="44.348361" lon="9.4062657"><ele>84.5</ele><time>2026-03-22T13:31:47.682Z</time></trkpt><trkpt lat="44.3482939" lon="9.4061328"><ele>86.75</ele><time>2026-03-22T13:31:48.682Z</time></trkpt><trkpt lat="44.3482348" lon="9.4059965"><ele>89.0</ele><time>2026-03-22T13:31:49.682Z</time></trkpt><trkpt lat="44.3481606" lon="9.4058587"><ele>89.0</ele><time>2026-03-22T13:31:50.682Z</time></trkpt><trkpt lat="44.3480631" lon="9.4057362"><ele>89.0</ele><time>2026-03-22T13:31:51.682Z</time></trkpt><trkpt lat="44.34794" lon="9.4056083"><ele>89.0</ele><time>2026-03-22T13:31:52.682Z</time></trkpt><trkpt lat="44.347797" lon="9.4054989"><ele>89.0</ele><time>2026-03-22T13:31:53.682Z</time></trkpt><trkpt lat="44.3476544" lon="9.4054095"><ele>89.25</ele><time>2026-03-22T13:31:54.682Z</time></trkpt><trkpt lat="44.3475193" lon="9.4053324"><ele>89.5</ele><time>2026-03-22T13:31:55.682Z</time></trkpt><trkpt lat="44.3473902" lon="9.4052705"><ele>89.75</ele><time>2026-03-22T13:31:56.682Z</time></trkpt><trkpt lat="44.3472679" lon="9.4051987"><ele>90.0</ele><time>2026-03-22T13:31:57.682Z</time></trkpt><trkpt lat="44.3471561" lon="9.4051165"><ele>86.75</ele><time>2026-03-22T13:31:58.682Z</time></trkpt><trkpt lat="44.3470497" lon="9.4050097"><ele>83.5</ele><time>2026-03-22T13:31:59.682Z</time></trkpt><trkpt lat="44.3469523" lon="9.4049006"><ele>80.25</ele><time>2026-03-22T13:32:00.683Z</time></trkpt><trkpt lat="44.3468693" lon="9.4047838"><ele>77.0</ele><time>2026-03-22T13:32:01.682Z</time></trkpt><trkpt lat="44.346794" lon="9.4046563"><ele>77.0</ele><time>2026-03-22T13:32:02.682Z</time></trkpt><trkpt lat="44.3467325" lon="9.4044934"><ele>77.0</ele><time>2026-03-22T13:32:03.682Z</time></trkpt><trkpt lat="44.3466735" lon="9.404332"><ele>77.0</ele><time>2026-03-22T13:32:04.682Z</time></trkpt><trkpt lat="44.3466219" lon="9.4041576"><ele>77.0</ele><time>2026-03-22T13:32:05.683Z</time></trkpt><trkpt lat="44.3465819" lon="9.4039913"><ele>77.25</ele><time>2026-03-22T13:32:06.682Z</time></trkpt><trkpt lat="44.3465581" lon="9.4038045"><ele>77.5</ele><time>2026-03-22T13:32:07.682Z</time></trkpt><trkpt lat="44.3465545" lon="9.4036156"><ele>77.75</ele><time>2026-03-22T13:32:08.682Z</time></trkpt><trkpt lat="44.3465553" lon="9.4034257"><ele>78.0</ele><time>2026-03-22T13:32:09.683Z</time></trkpt><trkpt lat="44.3465543" lon="9.4032401"><ele>78.0</ele><time>2026-03-22T13:32:10.682Z</time></trkpt><trkpt lat="44.346549" lon="9.4030498"><ele>78.0</ele><time>2026-03-22T13:32:11.682Z</time></trkpt><trkpt lat="44.3465378" lon="9.4028686"><ele>78.0</ele><time>2026-03-22T13:32:12.682Z</time></trkpt><trkpt lat="44.3465041" lon="9.4026885"><ele>78.0</ele><time>2026-03-22T13:32:13.682Z</time></trkpt><trkpt lat="44.3464467" lon="9.4025286"><ele>77.75</ele><time>2026-03-22T13:32:14.682Z</time></trkpt><trkpt lat="44.3463853" lon="9.4023757"><ele>77.5</ele><time>2026-03-22T13:32:15.682Z</time></trkpt><trkpt lat="44.346285" lon="9.4022688"><ele>77.25</ele><time>2026-03-22T13:32:16.682Z</time></trkpt><trkpt lat="44.3461548" lon="9.40219"><ele>77.0</ele><time>2026-03-22T13:32:17.683Z</time></trkpt><trkpt lat="44.3460302" lon="9.4021122"><ele>77.0</ele><time>2026-03-22T13:32:18.682Z</time></trkpt><trkpt lat="44.34592" lon="9.402017"><ele>77.0</ele><time>2026-03-22T13:32:19.683Z</time></trkpt><trkpt lat="44.3458197" lon="9.401912"><ele>77.0</ele><time>2026-03-22T13:32:20.682Z</time></trkpt><trkpt lat="44.3457252" lon="9.401816"><ele>77.0</ele><time>2026-03-22T13:32:21.682Z</time></trkpt><trkpt lat="44.3456444" lon="9.4017035"><ele>77.0</ele><time>2026-03-22T13:32:22.682Z</time></trkpt><trkpt lat="44.3455703" lon="9.4015689"><ele>77.0</ele><time>2026-03-22T13:32:23.682Z</time></trkpt><trkpt lat="44.3455021" lon="9.4014179"><ele>77.0</ele><time>2026-03-22T13:32:24.683Z</time></trkpt><trkpt lat="44.3454394" lon="9.4012772"><ele>77.0</ele><time>2026-03-22T13:32:25.681Z</time></trkpt><trkpt lat="44.345377" lon="9.4011374"><ele>74.5</ele><time>2026-03-22T13:32:26.682Z</time></trkpt><trkpt lat="44.3453169" lon="9.4009878"><ele>72.0</ele><time>2026-03-22T13:32:27.682Z</time></trkpt><trkpt lat="44.3452626" lon="9.4008314"><ele>69.5</ele><time>2026-03-22T13:32:28.682Z</time></trkpt><trkpt lat="44.3452145" lon="9.4006595"><ele>67.0</ele><time>2026-03-22T13:32:29.682Z</time></trkpt><trkpt lat="44.3451692" lon="9.4005"><ele>67.6</ele><time>2026-03-22T13:32:30.682Z</time></trkpt><trkpt lat="44.3451359" lon="9.4003411"><ele>68.2</ele><time>2026-03-22T13:32:31.683Z</time></trkpt><trkpt lat="44.3451008" lon="9.4001979"><ele>68.8</ele><time>2026-03-22T13:32:32.682Z</time></trkpt><trkpt lat="44.3450791" lon="9.400076"><ele>69.4</ele><time>2026-03-22T13:32:33.682Z</time></trkpt><trkpt lat="44.3450409" lon="9.3999785"><ele>70.0</ele><time>2026-03-22T13:32:34.682Z</time></trkpt><trkpt lat="44.345001" lon="9.399895"><ele>70.0</ele><time>2026-03-22T13:32:35.682Z</time></trkpt><trkpt lat="44.3449642" lon="9.3998159"><ele>70.0</ele><time>2026-03-22T13:32:36.682Z</time></trkpt><trkpt lat="44.3449232" lon="9.3997438"><ele>70.0</ele><time>2026-03-22T13:32:37.682Z</time></trkpt><trkpt lat="44.3448495" lon="9.399609"><ele>70.0</ele><time>2026-03-22T13:32:39.682Z</time></trkpt><trkpt lat="44.3447862" lon="9.3994769"><ele>70.0</ele><time>2026-03-22T13:32:41.683Z</time></trkpt><trkpt lat="44.3447423" lon="9.3993587"><ele>68.83333333333333</ele><time>2026-03-22T13:32:43.682Z</time></trkpt><trkpt lat="44.3447076" lon="9.3992545"><ele>67.66666666666666</ele><time>2026-03-22T13:32:45.682Z</time></trkpt><trkpt lat="44.3446898" lon="9.3991609"><ele>66.5</ele><time>2026-03-22T13:32:47.681Z</time></trkpt><trkpt lat="44.3447116" lon="9.3990172"><ele>65.33333333333333</ele><time>2026-03-22T13:32:49.681Z</time></trkpt><trkpt lat="44.3447074" lon="9.3989214"><ele>64.16666666666667</ele><time>2026-03-22T13:32:50.681Z</time></trkpt><trkpt lat="44.3446541" lon="9.3988052"><ele>63.0</ele><time>2026-03-22T13:32:52.68Z</time></trkpt><trkpt lat="44.344615" lon="9.3987345"><ele>63.0</ele><time>2026-03-22T13:32:54.681Z</time></trkpt><trkpt lat="44.3445481" lon="9.3987089"><ele>63.0</ele><time>2026-03-22T13:32:58.681Z</time></trkpt><trkpt lat="44.3446059" lon="9.3987453"><ele>63.0</ele><time>2026-03-22T13:36:59.682Z</time></trkpt><trkpt lat="44.3446824" lon="9.3987815"><ele>63.0</ele><time>2026-03-22T13:37:05.681Z</time></trkpt><trkpt lat="44.3446939" lon="9.3989157"><ele>63.0</ele><time>2026-03-22T13:37:06.682Z</time></trkpt><trkpt lat="44.3446971" lon="9.3990619"><ele>63.0</ele><time>2026-03-22T13:37:08.681Z</time></trkpt><trkpt lat="44.3446283" lon="9.3991908"><ele>62.666666666666664</ele><time>2026-03-22T13:37:10.681Z</time></trkpt><trkpt lat="44.3445712" lon="9.3992532"><ele>62.33333333333333</ele><time>2026-03-22T13:37:11.681Z</time></trkpt><trkpt lat="44.3445051" lon="9.3993183"><ele>62.0</ele><time>2026-03-22T13:37:12.681Z</time></trkpt><trkpt lat="44.3444283" lon="9.3993876"><ele>61.666666666666664</ele><time>2026-03-22T13:37:13.681Z</time></trkpt><trkpt lat="44.3443453" lon="9.3994516"><ele>61.33333333333333</ele><time>2026-03-22T13:37:14.681Z</time></trkpt><trkpt lat="44.3442569" lon="9.39952"><ele>61.0</ele><time>2026-03-22T13:37:15.681Z</time></trkpt><trkpt lat="44.3441638" lon="9.399596"><ele>61.599999999999994</ele><time>2026-03-22T13:37:16.681Z</time></trkpt><trkpt lat="44.3440724" lon="9.3996839"><ele>62.199999999999996</ele><time>2026-03-22T13:37:17.681Z</time></trkpt><trkpt lat="44.3439889" lon="9.3997811"><ele>62.800000000000004</ele><time>2026-03-22T13:37:18.681Z</time></trkpt><trkpt lat="44.3439151" lon="9.399892"><ele>63.400000000000006</ele><time>2026-03-22T13:37:19.681Z</time></trkpt><trkpt lat="44.3438456" lon="9.4000065"><ele>64.0</ele><time>2026-03-22T13:37:20.682Z</time></trkpt><trkpt lat="44.3437686" lon="9.4001279"><ele>64.0</ele><time>2026-03-22T13:37:21.681Z</time></trkpt><trkpt lat="44.3436917" lon="9.400249"><ele>64.0</ele><time>2026-03-22T13:37:22.681Z</time></trkpt><trkpt lat="44.3436026" lon="9.4003637"><ele>64.0</ele><time>2026-03-22T13:37:23.681Z</time></trkpt><trkpt lat="44.3435152" lon="9.400476"><ele>64.0</ele><time>2026-03-22T13:37:24.681Z</time></trkpt><trkpt lat="44.3434165" lon="9.4005793"><ele>68.75</ele><time>2026-03-22T13:37:25.682Z</time></trkpt><trkpt lat="44.3433122" lon="9.4006571"><ele>73.5</ele><time>2026-03-22T13:37:26.681Z</time></trkpt><trkpt lat="44.3432083" lon="9.400718"><ele>78.25</ele><time>2026-03-22T13:37:27.682Z</time></trkpt><trkpt lat="44.3430991" lon="9.400743"><ele>83.0</ele><time>2026-03-22T13:37:28.682Z</time></trkpt><trkpt lat="44.3429887" lon="9.4007472"><ele>83.0</ele><time>2026-03-22T13:37:29.682Z</time></trkpt><trkpt lat="44.3428697" lon="9.4007503"><ele>83.0</ele><time>2026-03-22T13:37:30.681Z</time></trkpt><trkpt lat="44.3427403" lon="9.4007676"><ele>83.0</ele><time>2026-03-22T13:37:31.681Z</time></trkpt><trkpt lat="44.3426082" lon="9.4007763"><ele>83.0</ele><time>2026-03-22T13:37:32.681Z</time></trkpt><trkpt lat="44.3424433" lon="9.4007378"><ele>83.0</ele><time>2026-03-22T13:37:33.682Z</time></trkpt><trkpt lat="44.3422855" lon="9.4007218"><ele>83.0</ele><time>2026-03-22T13:37:34.681Z</time></trkpt><trkpt lat="44.3421227" lon="9.4007088"><ele>83.0</ele><time>2026-03-22T13:37:35.681Z</time></trkpt><trkpt lat="44.3419831" lon="9.400701"><ele>81.75</ele><time>2026-03-22T13:37:36.682Z</time></trkpt><trkpt lat="44.3418434" lon="9.4006841"><ele>80.5</ele><time>2026-03-22T13:37:37.682Z</time></trkpt><trkpt lat="44.3417171" lon="9.4007033"><ele>79.25</ele><time>2026-03-22T13:37:38.681Z</time></trkpt><trkpt lat="44.3415869" lon="9.4007038"><ele>78.0</ele><time>2026-03-22T13:37:39.681Z</time></trkpt><trkpt lat="44.3414735" lon="9.4007419"><ele>78.0</ele><time>2026-03-22T13:37:40.681Z</time></trkpt><trkpt lat="44.3413901" lon="9.4008859"><ele>78.0</ele><time>2026-03-22T13:37:41.681Z</time></trkpt><trkpt lat="44.3413142" lon="9.4010145"><ele>78.0</ele><time>2026-03-22T13:37:42.682Z</time></trkpt><trkpt lat="44.3412591" lon="9.4011533"><ele>78.0</ele><time>2026-03-22T13:37:43.681Z</time></trkpt><trkpt lat="44.3412451" lon="9.401298"><ele>79.25</ele><time>2026-03-22T13:37:44.681Z</time></trkpt><trkpt lat="44.3412388" lon="9.4014466"><ele>80.5</ele><time>2026-03-22T13:37:45.681Z</time></trkpt><trkpt lat="44.3413443" lon="9.401562"><ele>81.75</ele><time>2026-03-22T13:37:46.681Z</time></trkpt><trkpt lat="44.3414079" lon="9.4016938"><ele>83.0</ele><time>2026-03-22T13:37:47.681Z</time></trkpt><trkpt lat="44.3415067" lon="9.4018581"><ele>83.0</ele><time>2026-03-22T13:37:48.681Z</time></trkpt><trkpt lat="44.3416185" lon="9.4019803"><ele>83.0</ele><time>2026-03-22T13:37:49.681Z</time></trkpt><trkpt lat="44.3417124" lon="9.4020955"><ele>83.0</ele><time>2026-03-22T13:37:50.681Z</time></trkpt><trkpt lat="44.3418093" lon="9.4022167"><ele>83.0</ele><time>2026-03-22T13:37:51.681Z</time></trkpt><trkpt lat="44.3418869" lon="9.4023504"><ele>81.25</ele><time>2026-03-22T13:37:52.681Z</time></trkpt><trkpt lat="44.3419483" lon="9.4025208"><ele>79.5</ele><time>2026-03-22T13:37:53.681Z</time></trkpt><trkpt lat="44.342017" lon="9.4026949"><ele>77.75</ele><time>2026-03-22T13:37:54.681Z</time></trkpt><trkpt lat="44.3420732" lon="9.4028903"><ele>76.0</ele><time>2026-03-22T13:37:55.681Z</time></trkpt><trkpt lat="44.3421199" lon="9.4030689"><ele>76.0</ele><time>2026-03-22T13:37:56.681Z</time></trkpt><trkpt lat="44.3421472" lon="9.403218"><ele>76.0</ele><time>2026-03-22T13:37:57.681Z</time></trkpt><trkpt lat="44.3421526" lon="9.4033502"><ele>76.0</ele><time>2026-03-22T13:37:58.681Z</time></trkpt><trkpt lat="44.3421411" lon="9.4034645"><ele>76.0</ele><time>2026-03-22T13:37:59.681Z</time></trkpt><trkpt lat="44.3421096" lon="9.4036068"><ele>76.0</ele><time>2026-03-22T13:38:00.681Z</time></trkpt><trkpt lat="44.3419681" lon="9.4037449"><ele>79.0</ele><time>2026-03-22T13:38:01.681Z</time></trkpt><trkpt lat="44.3418905" lon="9.4038842"><ele>82.0</ele><time>2026-03-22T13:38:02.681Z</time></trkpt><trkpt lat="44.3418011" lon="9.404016"><ele>85.0</ele><time>2026-03-22T13:38:03.681Z</time></trkpt><trkpt lat="44.3417067" lon="9.404149"><ele>88.0</ele><time>2026-03-22T13:38:04.681Z</time></trkpt><trkpt lat="44.3416136" lon="9.4042533"><ele>88.0</ele><time>2026-03-22T13:38:05.681Z</time></trkpt><trkpt lat="44.3415012" lon="9.4043463"><ele>88.0</ele><time>2026-03-22T13:38:06.681Z</time></trkpt><trkpt lat="44.341361" lon="9.4044122"><ele>88.0</ele><time>2026-03-22T13:38:07.681Z</time></trkpt><trkpt lat="44.3412037" lon="9.4044735"><ele>88.0</ele><time>2026-03-22T13:38:08.681Z</time></trkpt><trkpt lat="44.3410588" lon="9.4045216"><ele>86.0</ele><time>2026-03-22T13:38:09.681Z</time></trkpt><trkpt lat="44.3409234" lon="9.4045637"><ele>84.0</ele><time>2026-03-22T13:38:10.681Z</time></trkpt><trkpt lat="44.3407896" lon="9.4046075"><ele>82.0</ele><time>2026-03-22T13:38:11.681Z</time></trkpt><trkpt lat="44.340669" lon="9.4046561"><ele>80.0</ele><time>2026-03-22T13:38:12.681Z</time></trkpt><trkpt lat="44.3405466" lon="9.4047503"><ele>80.0</ele><time>2026-03-22T13:38:13.681Z</time></trkpt><trkpt lat="44.3404616" lon="9.4048863"><ele>80.0</ele><time>2026-03-22T13:38:14.681Z</time></trkpt><trkpt lat="44.3404007" lon="9.4050318"><ele>80.0</ele><time>2026-03-22T13:38:15.681Z</time></trkpt><trkpt lat="44.3403646" lon="9.405213"><ele>80.0</ele><time>2026-03-22T13:38:16.681Z</time></trkpt><trkpt lat="44.3403487" lon="9.4054217"><ele>81.25</ele><time>2026-03-22T13:38:17.681Z</time></trkpt><trkpt lat="44.3403227" lon="9.4056246"><ele>82.5</ele><time>2026-03-22T13:38:18.681Z</time></trkpt><trkpt lat="44.3402589" lon="9.4058045"><ele>83.75</ele><time>2026-03-22T13:38:19.681Z</time></trkpt><trkpt lat="44.3402032" lon="9.4059818"><ele>85.0</ele><time>2026-03-22T13:38:20.681Z</time></trkpt><trkpt lat="44.3401496" lon="9.4061643"><ele>85.66666666666666</ele><time>2026-03-22T13:38:21.681Z</time></trkpt><trkpt lat="44.3401273" lon="9.406362"><ele>86.33333333333333</ele><time>2026-03-22T13:38:22.682Z</time></trkpt><trkpt lat="44.3401153" lon="9.4065954"><ele>87.0</ele><time>2026-03-22T13:38:23.681Z</time></trkpt><trkpt lat="44.3401363" lon="9.4068189"><ele>87.0</ele><time>2026-03-22T13:38:24.681Z</time></trkpt><trkpt lat="44.3402535" lon="9.4070154"><ele>87.0</ele><time>2026-03-22T13:38:25.681Z</time></trkpt><trkpt lat="44.3403823" lon="9.4072367"><ele>87.0</ele><time>2026-03-22T13:38:26.681Z</time></trkpt><trkpt lat="44.3404294" lon="9.4074408"><ele>93.66666666666666</ele><time>2026-03-22T13:38:27.681Z</time></trkpt><trkpt lat="44.3405603" lon="9.4076044"><ele>100.33333333333333</ele><time>2026-03-22T13:38:28.681Z</time></trkpt><trkpt lat="44.340629" lon="9.4077916"><ele>107.0</ele><time>2026-03-22T13:38:29.681Z</time></trkpt><trkpt lat="44.3406813" lon="9.4080134"><ele>107.0</ele><time>2026-03-22T13:38:30.681Z</time></trkpt><trkpt lat="44.3407091" lon="9.4082285"><ele>107.0</ele><time>2026-03-22T13:38:31.681Z</time></trkpt><trkpt lat="44.3407335" lon="9.4084501"><ele>107.0</ele><time>2026-03-22T13:38:32.681Z</time></trkpt><trkpt lat="44.340721" lon="9.4086821"><ele>108.66666666666666</ele><time>2026-03-22T13:38:33.681Z</time></trkpt><trkpt lat="44.3406881" lon="9.4089049"><ele>110.33333333333334</ele><time>2026-03-22T13:38:34.682Z</time></trkpt><trkpt lat="44.3406331" lon="9.4091208"><ele>112.0</ele><time>2026-03-22T13:38:35.681Z</time></trkpt><trkpt lat="44.3405518" lon="9.4093315"><ele>111.66666666666667</ele><time>2026-03-22T13:38:36.681Z</time></trkpt><trkpt lat="44.3404757" lon="9.4095287"><ele>111.33333333333334</ele><time>2026-03-22T13:38:37.681Z</time></trkpt><trkpt lat="44.3403995" lon="9.4097104"><ele>111.0</ele><time>2026-03-22T13:38:38.681Z</time></trkpt><trkpt lat="44.3403178" lon="9.4098718"><ele>109.0</ele><time>2026-03-22T13:38:39.681Z</time></trkpt><trkpt lat="44.3402113" lon="9.4099918"><ele>107.0</ele><time>2026-03-22T13:38:40.681Z</time></trkpt><trkpt lat="44.3400946" lon="9.4101112"><ele>105.0</ele><time>2026-03-22T13:38:41.681Z</time></trkpt><trkpt lat="44.3399516" lon="9.4102058"><ele>103.0</ele><time>2026-03-22T13:38:42.682Z</time></trkpt><trkpt lat="44.3398218" lon="9.4103043"><ele>104.0</ele><time>2026-03-22T13:38:43.681Z</time></trkpt><trkpt lat="44.339689" lon="9.4103983"><ele>105.0</ele><time>2026-03-22T13:38:44.681Z</time></trkpt><trkpt lat="44.3395521" lon="9.4104901"><ele>106.0</ele><time>2026-03-22T13:38:45.681Z</time></trkpt><trkpt lat="44.3393851" lon="9.410545"><ele>106.0</ele><time>2026-03-22T13:38:46.681Z</time></trkpt><trkpt lat="44.3392283" lon="9.4106162"><ele>106.0</ele><time>2026-03-22T13:38:47.682Z</time></trkpt><trkpt lat="44.3390573" lon="9.4106896"><ele>106.0</ele><time>2026-03-22T13:38:48.681Z</time></trkpt><trkpt lat="44.338848" lon="9.4107229"><ele>104.66666666666667</ele><time>2026-03-22T13:38:49.681Z</time></trkpt><trkpt lat="44.3386507" lon="9.4107825"><ele>103.33333333333334</ele><time>2026-03-22T13:38:50.681Z</time></trkpt><trkpt lat="44.3384562" lon="9.4108473"><ele>102.0</ele><time>2026-03-22T13:38:51.681Z</time></trkpt><trkpt lat="44.3382648" lon="9.410912"><ele>102.0</ele><time>2026-03-22T13:38:52.681Z</time></trkpt><trkpt lat="44.3380805" lon="9.4109672"><ele>102.0</ele><time>2026-03-22T13:38:53.682Z</time></trkpt><trkpt lat="44.3379152" lon="9.4110174"><ele>102.0</ele><time>2026-03-22T13:38:54.681Z</time></trkpt><trkpt lat="44.3377633" lon="9.4110783"><ele>101.0</ele><time>2026-03-22T13:38:55.681Z</time></trkpt><trkpt lat="44.3376002" lon="9.4111406"><ele>100.0</ele><time>2026-03-22T13:38:56.681Z</time></trkpt><trkpt lat="44.3374449" lon="9.4112279"><ele>99.0</ele><time>2026-03-22T13:38:57.681Z</time></trkpt><trkpt lat="44.3372892" lon="9.4113379"><ele>100.0</ele><time>2026-03-22T13:38:58.682Z</time></trkpt><trkpt lat="44.3371323" lon="9.4114567"><ele>101.0</ele><time>2026-03-22T13:38:59.681Z</time></trkpt><trkpt lat="44.336987" lon="9.411582"><ele>102.0</ele><time>2026-03-22T13:39:00.681Z</time></trkpt><trkpt lat="44.3368349" lon="9.4117089"><ele>102.0</ele><time>2026-03-22T13:39:01.681Z</time></trkpt><trkpt lat="44.3366854" lon="9.4118243"><ele>102.0</ele><time>2026-03-22T13:39:02.681Z</time></trkpt><trkpt lat="44.3365307" lon="9.4119285"><ele>102.0</ele><time>2026-03-22T13:39:03.681Z</time></trkpt><trkpt lat="44.3363812" lon="9.4120164"><ele>101.0</ele><time>2026-03-22T13:39:04.681Z</time></trkpt><trkpt lat="44.3362406" lon="9.412104"><ele>100.0</ele><time>2026-03-22T13:39:05.681Z</time></trkpt><trkpt lat="44.3360759" lon="9.4121671"><ele>99.0</ele><time>2026-03-22T13:39:06.681Z</time></trkpt><trkpt lat="44.3359602" lon="9.4123287"><ele>100.5</ele><time>2026-03-22T13:39:07.681Z</time></trkpt><trkpt lat="44.3358175" lon="9.4124226"><ele>102.0</ele><time>2026-03-22T13:39:08.681Z</time></trkpt><trkpt lat="44.3356857" lon="9.4125068"><ele>103.5</ele><time>2026-03-22T13:39:09.681Z</time></trkpt><trkpt lat="44.3355478" lon="9.412566"><ele>105.0</ele><time>2026-03-22T13:39:10.682Z</time></trkpt><trkpt lat="44.3354287" lon="9.4126396"><ele>105.0</ele><time>2026-03-22T13:39:11.681Z</time></trkpt><trkpt lat="44.335329" lon="9.4127265"><ele>105.0</ele><time>2026-03-22T13:39:12.681Z</time></trkpt><trkpt lat="44.3352467" lon="9.4128238"><ele>105.0</ele><time>2026-03-22T13:39:13.681Z</time></trkpt><trkpt lat="44.3351986" lon="9.4129586"><ele>105.0</ele><time>2026-03-22T13:39:14.681Z</time></trkpt><trkpt lat="44.33515" lon="9.4131062"><ele>105.0</ele><time>2026-03-22T13:39:15.681Z</time></trkpt><trkpt lat="44.3351545" lon="9.4132804"><ele>105.33333333333334</ele><time>2026-03-22T13:39:16.681Z</time></trkpt><trkpt lat="44.3351925" lon="9.4134529"><ele>105.66666666666667</ele><time>2026-03-22T13:39:17.68Z</time></trkpt><trkpt lat="44.3352496" lon="9.413675"><ele>106.0</ele><time>2026-03-22T13:39:18.681Z</time></trkpt><trkpt lat="44.335383" lon="9.4138713"><ele>107.33333333333334</ele><time>2026-03-22T13:39:19.681Z</time></trkpt><trkpt lat="44.3355327" lon="9.4140114"><ele>108.66666666666666</ele><time>2026-03-22T13:39:20.681Z</time></trkpt><trkpt lat="44.3356175" lon="9.4142298"><ele>110.0</ele><time>2026-03-22T13:39:21.681Z</time></trkpt><trkpt lat="44.3357016" lon="9.4144732"><ele>112.66666666666666</ele><time>2026-03-22T13:39:22.681Z</time></trkpt><trkpt lat="44.3357584" lon="9.4147225"><ele>115.33333333333334</ele><time>2026-03-22T13:39:23.681Z</time></trkpt><trkpt lat="44.3358087" lon="9.4149383"><ele>118.0</ele><time>2026-03-22T13:39:24.681Z</time></trkpt><trkpt lat="44.3358528" lon="9.4151341"><ele>118.0</ele><time>2026-03-22T13:39:25.681Z</time></trkpt><trkpt lat="44.3358632" lon="9.4153057"><ele>118.0</ele><time>2026-03-22T13:39:26.681Z</time></trkpt><trkpt lat="44.3358487" lon="9.4154702"><ele>118.0</ele><time>2026-03-22T13:39:27.681Z</time></trkpt><trkpt lat="44.3357851" lon="9.415649"><ele>118.0</ele><time>2026-03-22T13:39:28.681Z</time></trkpt><trkpt lat="44.3357072" lon="9.4158029"><ele>116.25</ele><time>2026-03-22T13:39:29.681Z</time></trkpt><trkpt lat="44.3356202" lon="9.4159296"><ele>114.5</ele><time>2026-03-22T13:39:30.681Z</time></trkpt><trkpt lat="44.3355032" lon="9.4160052"><ele>112.75</ele><time>2026-03-22T13:39:31.681Z</time></trkpt><trkpt lat="44.3353535" lon="9.4160316"><ele>111.0</ele><time>2026-03-22T13:39:32.681Z</time></trkpt><trkpt lat="44.335199" lon="9.4160693"><ele>111.0</ele><time>2026-03-22T13:39:33.681Z</time></trkpt><trkpt lat="44.3349945" lon="9.4160538"><ele>111.0</ele><time>2026-03-22T13:39:34.681Z</time></trkpt><trkpt lat="44.3348233" lon="9.4160631"><ele>111.0</ele><time>2026-03-22T13:39:35.681Z</time></trkpt><trkpt lat="44.3346363" lon="9.4160768"><ele>111.66666666666666</ele><time>2026-03-22T13:39:36.681Z</time></trkpt><trkpt lat="44.3344673" lon="9.4161337"><ele>112.33333333333333</ele><time>2026-03-22T13:39:37.681Z</time></trkpt><trkpt lat="44.3342993" lon="9.4161642"><ele>113.0</ele><time>2026-03-22T13:39:38.682Z</time></trkpt><trkpt lat="44.3341314" lon="9.4161729"><ele>113.0</ele><time>2026-03-22T13:39:39.681Z</time></trkpt><trkpt lat="44.3339843" lon="9.4161947"><ele>113.0</ele><time>2026-03-22T13:39:40.681Z</time></trkpt><trkpt lat="44.3337743" lon="9.4160779"><ele>113.0</ele><time>2026-03-22T13:39:41.681Z</time></trkpt><trkpt lat="44.3336726" lon="9.4159916"><ele>113.60000000000001</ele><time>2026-03-22T13:39:42.681Z</time></trkpt><trkpt lat="44.3335361" lon="9.4159308"><ele>114.20000000000002</ele><time>2026-03-22T13:39:43.681Z</time></trkpt><trkpt lat="44.3334452" lon="9.4158983"><ele>114.8</ele><time>2026-03-22T13:39:44.681Z</time></trkpt><trkpt lat="44.3333512" lon="9.4158643"><ele>115.4</ele><time>2026-03-22T13:39:45.681Z</time></trkpt><trkpt lat="44.3332436" lon="9.4159064"><ele>116.0</ele><time>2026-03-22T13:39:46.681Z</time></trkpt><trkpt lat="44.3332877" lon="9.416204"><ele>118.5</ele><time>2026-03-22T13:39:47.681Z</time></trkpt><trkpt lat="44.3332659" lon="9.4164077"><ele>121.0</ele><time>2026-03-22T13:39:48.681Z</time></trkpt><trkpt lat="44.3332602" lon="9.4166096"><ele>123.5</ele><time>2026-03-22T13:39:49.681Z</time></trkpt><trkpt lat="44.3332357" lon="9.4167974"><ele>126.0</ele><time>2026-03-22T13:39:50.681Z</time></trkpt><trkpt lat="44.3332122" lon="9.41699"><ele>123.33333333333334</ele><time>2026-03-22T13:39:51.681Z</time></trkpt><trkpt lat="44.3331307" lon="9.4171904"><ele>120.66666666666667</ele><time>2026-03-22T13:39:52.681Z</time></trkpt><trkpt lat="44.3330332" lon="9.4173831"><ele>118.0</ele><time>2026-03-22T13:39:53.681Z</time></trkpt><trkpt lat="44.3329381" lon="9.4175659"><ele>118.0</ele><time>2026-03-22T13:39:54.682Z</time></trkpt><trkpt lat="44.3328209" lon="9.4177221"><ele>118.0</ele><time>2026-03-22T13:39:55.682Z</time></trkpt><trkpt lat="44.3327058" lon="9.4178756"><ele>118.0</ele><time>2026-03-22T13:39:56.682Z</time></trkpt><trkpt lat="44.3325906" lon="9.4180259"><ele>122.0</ele><time>2026-03-22T13:39:57.681Z</time></trkpt><trkpt lat="44.3324696" lon="9.4181904"><ele>126.0</ele><time>2026-03-22T13:39:58.681Z</time></trkpt><trkpt lat="44.3323791" lon="9.4183655"><ele>130.0</ele><time>2026-03-22T13:39:59.681Z</time></trkpt><trkpt lat="44.3323315" lon="9.4185809"><ele>130.0</ele><time>2026-03-22T13:40:00.681Z</time></trkpt><trkpt lat="44.3322912" lon="9.4187942"><ele>130.0</ele><time>2026-03-22T13:40:01.681Z</time></trkpt><trkpt lat="44.3322556" lon="9.4190089"><ele>130.0</ele><time>2026-03-22T13:40:02.681Z</time></trkpt><trkpt lat="44.332191" lon="9.4192129"><ele>128.0</ele><time>2026-03-22T13:40:03.681Z</time></trkpt><trkpt lat="44.3320849" lon="9.4194053"><ele>126.0</ele><time>2026-03-22T13:40:04.681Z</time></trkpt><trkpt lat="44.3319842" lon="9.4195927"><ele>124.0</ele><time>2026-03-22T13:40:05.681Z</time></trkpt><trkpt lat="44.3318837" lon="9.4197815"><ele>124.0</ele><time>2026-03-22T13:40:06.681Z</time></trkpt><trkpt lat="44.3317904" lon="9.4199432"><ele>124.0</ele><time>2026-03-22T13:40:07.681Z</time></trkpt><trkpt lat="44.331709" lon="9.4200884"><ele>124.0</ele><time>2026-03-22T13:40:08.681Z</time></trkpt><trkpt lat="44.3316672" lon="9.4202505"><ele>124.0</ele><time>2026-03-22T13:40:09.681Z</time></trkpt><trkpt lat="44.3316678" lon="9.420426"><ele>123.75</ele><time>2026-03-22T13:40:10.681Z</time></trkpt><trkpt lat="44.331678" lon="9.4205951"><ele>123.5</ele><time>2026-03-22T13:40:11.681Z</time></trkpt><trkpt lat="44.3317165" lon="9.4207596"><ele>123.25</ele><time>2026-03-22T13:40:12.681Z</time></trkpt><trkpt lat="44.3318075" lon="9.4209799"><ele>123.0</ele><time>2026-03-22T13:40:13.681Z</time></trkpt><trkpt lat="44.3319359" lon="9.421101"><ele>123.0</ele><time>2026-03-22T13:40:14.681Z</time></trkpt><trkpt lat="44.3320056" lon="9.4212547"><ele>123.0</ele><time>2026-03-22T13:40:15.681Z</time></trkpt><trkpt lat="44.3320018" lon="9.4214685"><ele>123.0</ele><time>2026-03-22T13:40:16.681Z</time></trkpt><trkpt lat="44.3320058" lon="9.4216233"><ele>123.0</ele><time>2026-03-22T13:40:17.681Z</time></trkpt><trkpt lat="44.3319424" lon="9.421834"><ele>122.66666666666666</ele><time>2026-03-22T13:40:18.682Z</time></trkpt><trkpt lat="44.3318623" lon="9.4220449"><ele>122.33333333333333</ele><time>2026-03-22T13:40:19.682Z</time></trkpt><trkpt lat="44.3317938" lon="9.4222303"><ele>122.0</ele><time>2026-03-22T13:40:20.681Z</time></trkpt><trkpt lat="44.3317301" lon="9.4224153"><ele>124.0</ele><time>2026-03-22T13:40:21.681Z</time></trkpt><trkpt lat="44.3316706" lon="9.4225896"><ele>126.0</ele><time>2026-03-22T13:40:22.681Z</time></trkpt><trkpt lat="44.3316125" lon="9.4227655"><ele>128.0</ele><time>2026-03-22T13:40:23.681Z</time></trkpt><trkpt lat="44.3315504" lon="9.4229429"><ele>130.0</ele><time>2026-03-22T13:40:24.681Z</time></trkpt><trkpt lat="44.3314873" lon="9.4231191"><ele>128.75</ele><time>2026-03-22T13:40:25.681Z</time></trkpt><trkpt lat="44.3314227" lon="9.4233015"><ele>127.5</ele><time>2026-03-22T13:40:26.681Z</time></trkpt><trkpt lat="44.3313599" lon="9.4234819"><ele>126.25</ele><time>2026-03-22T13:40:27.681Z</time></trkpt><trkpt lat="44.3312957" lon="9.4236579"><ele>125.0</ele><time>2026-03-22T13:40:28.681Z</time></trkpt><trkpt lat="44.3312332" lon="9.4238318"><ele>125.0</ele><time>2026-03-22T13:40:29.681Z</time></trkpt><trkpt lat="44.3311776" lon="9.4240092"><ele>125.0</ele><time>2026-03-22T13:40:30.681Z</time></trkpt><trkpt lat="44.3311169" lon="9.4241872"><ele>125.0</ele><time>2026-03-22T13:40:31.681Z</time></trkpt><trkpt lat="44.3310486" lon="9.424355"><ele>125.0</ele><time>2026-03-22T13:40:32.681Z</time></trkpt><trkpt lat="44.3309819" lon="9.4245067"><ele>125.5</ele><time>2026-03-22T13:40:33.681Z</time></trkpt><trkpt lat="44.3309169" lon="9.4246492"><ele>126.0</ele><time>2026-03-22T13:40:34.681Z</time></trkpt><trkpt lat="44.3308838" lon="9.4248004"><ele>126.5</ele><time>2026-03-22T13:40:35.681Z</time></trkpt><trkpt lat="44.3308769" lon="9.4249476"><ele>127.0</ele><time>2026-03-22T13:40:36.681Z</time></trkpt><trkpt lat="44.3309045" lon="9.4250994"><ele>127.0</ele><time>2026-03-22T13:40:37.681Z</time></trkpt><trkpt lat="44.330961" lon="9.4252638"><ele>127.0</ele><time>2026-03-22T13:40:38.681Z</time></trkpt><trkpt lat="44.3310321" lon="9.4254604"><ele>127.0</ele><time>2026-03-22T13:40:39.681Z</time></trkpt><trkpt lat="44.3311018" lon="9.4256472"><ele>127.0</ele><time>2026-03-22T13:40:40.681Z</time></trkpt><trkpt lat="44.3311823" lon="9.4258154"><ele>127.75</ele><time>2026-03-22T13:40:41.681Z</time></trkpt><trkpt lat="44.3312799" lon="9.4259374"><ele>128.5</ele><time>2026-03-22T13:40:42.681Z</time></trkpt><trkpt lat="44.3313902" lon="9.4260364"><ele>129.25</ele><time>2026-03-22T13:40:43.681Z</time></trkpt><trkpt lat="44.3315225" lon="9.4261204"><ele>130.0</ele><time>2026-03-22T13:40:44.681Z</time></trkpt><trkpt lat="44.3316389" lon="9.4262283"><ele>137.66666666666669</ele><time>2026-03-22T13:40:45.681Z</time></trkpt><trkpt lat="44.3317445" lon="9.4263795"><ele>145.33333333333334</ele><time>2026-03-22T13:40:46.681Z</time></trkpt><trkpt lat="44.3318436" lon="9.4265482"><ele>153.0</ele><time>2026-03-22T13:40:47.681Z</time></trkpt><trkpt lat="44.3319663" lon="9.4267111"><ele>153.0</ele><time>2026-03-22T13:40:48.681Z</time></trkpt><trkpt lat="44.3321131" lon="9.4268496"><ele>153.0</ele><time>2026-03-22T13:40:49.682Z</time></trkpt><trkpt lat="44.3322459" lon="9.4269696"><ele>153.0</ele><time>2026-03-22T13:40:50.681Z</time></trkpt><trkpt lat="44.3323557" lon="9.4270875"><ele>152.33333333333334</ele><time>2026-03-22T13:40:51.681Z</time></trkpt><trkpt lat="44.3324454" lon="9.4272352"><ele>151.66666666666669</ele><time>2026-03-22T13:40:52.681Z</time></trkpt><trkpt lat="44.3325294" lon="9.4274105"><ele>151.0</ele><time>2026-03-22T13:40:53.681Z</time></trkpt><trkpt lat="44.3326147" lon="9.4276064"><ele>151.0</ele><time>2026-03-22T13:40:54.681Z</time></trkpt><trkpt lat="44.3326949" lon="9.4278074"><ele>151.0</ele><time>2026-03-22T13:40:55.681Z</time></trkpt><trkpt lat="44.3327831" lon="9.4280092"><ele>151.0</ele><time>2026-03-22T13:40:56.681Z</time></trkpt><trkpt lat="44.3328706" lon="9.428222"><ele>149.66666666666669</ele><time>2026-03-22T13:40:57.681Z</time></trkpt><trkpt lat="44.3329601" lon="9.4284364"><ele>148.33333333333334</ele><time>2026-03-22T13:40:58.681Z</time></trkpt><trkpt lat="44.3330451" lon="9.4286508"><ele>147.0</ele><time>2026-03-22T13:40:59.681Z</time></trkpt><trkpt lat="44.3331289" lon="9.4288451"><ele>147.0</ele><time>2026-03-22T13:41:00.681Z</time></trkpt><trkpt lat="44.3332027" lon="9.4290317"><ele>147.0</ele><time>2026-03-22T13:41:01.681Z</time></trkpt><trkpt lat="44.3332694" lon="9.4292197"><ele>147.0</ele><time>2026-03-22T13:41:02.681Z</time></trkpt><trkpt lat="44.3333199" lon="9.429413"><ele>147.0</ele><time>2026-03-22T13:41:03.681Z</time></trkpt><trkpt lat="44.3333493" lon="9.42962"><ele>147.0</ele><time>2026-03-22T13:41:04.681Z</time></trkpt><trkpt lat="44.3333829" lon="9.4298083"><ele>147.0</ele><time>2026-03-22T13:41:05.681Z</time></trkpt><trkpt lat="44.3334544" lon="9.4299867"><ele>147.0</ele><time>2026-03-22T13:41:06.681Z</time></trkpt><trkpt lat="44.333558" lon="9.430169"><ele>148.66666666666666</ele><time>2026-03-22T13:41:07.681Z</time></trkpt><trkpt lat="44.3336729" lon="9.4303549"><ele>150.33333333333331</ele><time>2026-03-22T13:41:08.681Z</time></trkpt><trkpt lat="44.3337759" lon="9.4305323"><ele>152.0</ele><time>2026-03-22T13:41:09.681Z</time></trkpt><trkpt lat="44.3338629" lon="9.4307069"><ele>150.75</ele><time>2026-03-22T13:41:10.681Z</time></trkpt><trkpt lat="44.3339187" lon="9.4308938"><ele>149.5</ele><time>2026-03-22T13:41:11.681Z</time></trkpt><trkpt lat="44.3339515" lon="9.431084"><ele>148.25</ele><time>2026-03-22T13:41:12.681Z</time></trkpt><trkpt lat="44.3339737" lon="9.4312365"><ele>147.0</ele><time>2026-03-22T13:41:13.681Z</time></trkpt><trkpt lat="44.3340085" lon="9.4313776"><ele>150.25</ele><time>2026-03-22T13:41:14.681Z</time></trkpt><trkpt lat="44.3340637" lon="9.4314921"><ele>153.5</ele><time>2026-03-22T13:41:15.682Z</time></trkpt><trkpt lat="44.3341459" lon="9.4316031"><ele>156.75</ele><time>2026-03-22T13:41:16.681Z</time></trkpt><trkpt lat="44.3342505" lon="9.4317044"><ele>160.0</ele><time>2026-03-22T13:41:17.681Z</time></trkpt><trkpt lat="44.3343584" lon="9.431815"><ele>160.0</ele><time>2026-03-22T13:41:18.681Z</time></trkpt><trkpt lat="44.3344614" lon="9.4319439"><ele>160.0</ele><time>2026-03-22T13:41:19.681Z</time></trkpt><trkpt lat="44.3345685" lon="9.4320792"><ele>160.0</ele><time>2026-03-22T13:41:20.681Z</time></trkpt><trkpt lat="44.3346689" lon="9.4322013"><ele>160.0</ele><time>2026-03-22T13:41:21.681Z</time></trkpt><trkpt lat="44.3347618" lon="9.4323405"><ele>157.5</ele><time>2026-03-22T13:41:22.681Z</time></trkpt><trkpt lat="44.3348586" lon="9.4324772"><ele>155.0</ele><time>2026-03-22T13:41:23.681Z</time></trkpt><trkpt lat="44.3349815" lon="9.4326106"><ele>152.5</ele><time>2026-03-22T13:41:24.681Z</time></trkpt><trkpt lat="44.3351049" lon="9.4327236"><ele>150.0</ele><time>2026-03-22T13:41:25.681Z</time></trkpt><trkpt lat="44.3352093" lon="9.4328083"><ele>150.0</ele><time>2026-03-22T13:41:26.681Z</time></trkpt><trkpt lat="44.3352809" lon="9.4328882"><ele>150.0</ele><time>2026-03-22T13:41:27.681Z</time></trkpt><trkpt lat="44.3353184" lon="9.4329788"><ele>150.0</ele><time>2026-03-22T13:41:28.68Z</time></trkpt><trkpt lat="44.3352958" lon="9.4331247"><ele>150.0</ele><time>2026-03-22T13:41:30.68Z</time></trkpt><trkpt lat="44.3352412" lon="9.4331814"><ele>150.0</ele><time>2026-03-22T13:41:31.68Z</time></trkpt><trkpt lat="44.3351615" lon="9.4332238"><ele>150.0</ele><time>2026-03-22T13:41:32.68Z</time></trkpt><trkpt lat="44.3350631" lon="9.4332779"><ele>153.0</ele><time>2026-03-22T13:41:33.68Z</time></trkpt><trkpt lat="44.3349458" lon="9.4333495"><ele>156.0</ele><time>2026-03-22T13:41:34.68Z</time></trkpt><trkpt lat="44.3348266" lon="9.4334298"><ele>159.0</ele><time>2026-03-22T13:41:35.68Z</time></trkpt><trkpt lat="44.3347192" lon="9.433513"><ele>162.0</ele><time>2026-03-22T13:41:36.68Z</time></trkpt><trkpt lat="44.3346521" lon="9.4336376"><ele>167.25</ele><time>2026-03-22T13:41:37.68Z</time></trkpt><trkpt lat="44.3345861" lon="9.43378"><ele>172.5</ele><time>2026-03-22T13:41:38.68Z</time></trkpt><trkpt lat="44.3345239" lon="9.4339296"><ele>177.75</ele><time>2026-03-22T13:41:39.68Z</time></trkpt><trkpt lat="44.3345201" lon="9.4340977"><ele>183.0</ele><time>2026-03-22T13:41:40.68Z</time></trkpt><trkpt lat="44.3345364" lon="9.4342558"><ele>181.5</ele><time>2026-03-22T13:41:41.68Z</time></trkpt><trkpt lat="44.3345878" lon="9.4344182"><ele>180.0</ele><time>2026-03-22T13:41:42.68Z</time></trkpt><trkpt lat="44.3346783" lon="9.4345854"><ele>178.5</ele><time>2026-03-22T13:41:43.68Z</time></trkpt><trkpt lat="44.3347713" lon="9.4347356"><ele>177.0</ele><time>2026-03-22T13:41:44.68Z</time></trkpt><trkpt lat="44.3348577" lon="9.4348368"><ele>177.0</ele><time>2026-03-22T13:41:45.68Z</time></trkpt><trkpt lat="44.3349477" lon="9.4348883"><ele>177.0</ele><time>2026-03-22T13:41:46.681Z</time></trkpt><trkpt lat="44.3350386" lon="9.43495"><ele>177.0</ele><time>2026-03-22T13:41:47.68Z</time></trkpt><trkpt lat="44.3352074" lon="9.4348819"><ele>177.0</ele><time>2026-03-22T13:41:48.68Z</time></trkpt><trkpt lat="44.3353209" lon="9.4348753"><ele>177.0</ele><time>2026-03-22T13:41:49.68Z</time></trkpt><trkpt lat="44.3354193" lon="9.4348844"><ele>177.0</ele><time>2026-03-22T13:41:50.68Z</time></trkpt><trkpt lat="44.3355061" lon="9.43494"><ele>177.0</ele><time>2026-03-22T13:41:51.68Z</time></trkpt><trkpt lat="44.3355617" lon="9.435036"><ele>177.0</ele><time>2026-03-22T13:41:52.68Z</time></trkpt><trkpt lat="44.3356174" lon="9.4351393"><ele>177.0</ele><time>2026-03-22T13:41:53.68Z</time></trkpt><trkpt lat="44.3355251" lon="9.4353153"><ele>177.0</ele><time>2026-03-22T13:41:54.68Z</time></trkpt><trkpt lat="44.3354983" lon="9.4354588"><ele>177.0</ele><time>2026-03-22T13:41:55.68Z</time></trkpt><trkpt lat="44.3354532" lon="9.4356013"><ele>177.0</ele><time>2026-03-22T13:41:56.68Z</time></trkpt><trkpt lat="44.3353173" lon="9.4356886"><ele>177.0</ele><time>2026-03-22T13:41:57.68Z</time></trkpt><trkpt lat="44.3352638" lon="9.4358191"><ele>177.5</ele><time>2026-03-22T13:41:58.68Z</time></trkpt><trkpt lat="44.3352099" lon="9.4359689"><ele>178.0</ele><time>2026-03-22T13:41:59.68Z</time></trkpt><trkpt lat="44.3352244" lon="9.4361595"><ele>178.5</ele><time>2026-03-22T13:42:00.681Z</time></trkpt><trkpt lat="44.3352179" lon="9.4363379"><ele>179.0</ele><time>2026-03-22T13:42:01.68Z</time></trkpt><trkpt lat="44.3352207" lon="9.4365401"><ele>176.66666666666666</ele><time>2026-03-22T13:42:02.68Z</time></trkpt><trkpt lat="44.3352171" lon="9.4367419"><ele>174.33333333333334</ele><time>2026-03-22T13:42:03.68Z</time></trkpt><trkpt lat="44.3351946" lon="9.4369525"><ele>172.0</ele><time>2026-03-22T13:42:04.68Z</time></trkpt><trkpt lat="44.3351401" lon="9.4371765"><ele>172.0</ele><time>2026-03-22T13:42:05.68Z</time></trkpt><trkpt lat="44.3350829" lon="9.4374012"><ele>172.0</ele><time>2026-03-22T13:42:06.68Z</time></trkpt><trkpt lat="44.3350209" lon="9.4376278"><ele>172.0</ele><time>2026-03-22T13:42:07.68Z</time></trkpt><trkpt lat="44.3349619" lon="9.4378538"><ele>175.0</ele><time>2026-03-22T13:42:08.68Z</time></trkpt><trkpt lat="44.3349137" lon="9.4380797"><ele>178.0</ele><time>2026-03-22T13:42:09.68Z</time></trkpt><trkpt lat="44.3348963" lon="9.4383149"><ele>181.0</ele><time>2026-03-22T13:42:10.68Z</time></trkpt><trkpt lat="44.3349098" lon="9.4385702"><ele>183.66666666666669</ele><time>2026-03-22T13:42:11.679Z</time></trkpt><trkpt lat="44.3349481" lon="9.4388404"><ele>186.33333333333334</ele><time>2026-03-22T13:42:12.68Z</time></trkpt><trkpt lat="44.3349991" lon="9.4391226"><ele>189.0</ele><time>2026-03-22T13:42:13.68Z</time></trkpt><trkpt lat="44.3350589" lon="9.4393936"><ele>193.0</ele><time>2026-03-22T13:42:14.68Z</time></trkpt><trkpt lat="44.3351225" lon="9.4396494"><ele>197.0</ele><time>2026-03-22T13:42:15.68Z</time></trkpt><trkpt lat="44.3351972" lon="9.4398855"><ele>201.0</ele><time>2026-03-22T13:42:16.68Z</time></trkpt><trkpt lat="44.3352772" lon="9.4401121"><ele>201.0</ele><time>2026-03-22T13:42:17.68Z</time></trkpt><trkpt lat="44.3353512" lon="9.4403349"><ele>201.0</ele><time>2026-03-22T13:42:18.681Z</time></trkpt><trkpt lat="44.3354199" lon="9.4405767"><ele>201.0</ele><time>2026-03-22T13:42:19.68Z</time></trkpt><trkpt lat="44.3354939" lon="9.4408276"><ele>197.66666666666666</ele><time>2026-03-22T13:42:20.68Z</time></trkpt><trkpt lat="44.3355728" lon="9.4410687"><ele>194.33333333333331</ele><time>2026-03-22T13:42:21.68Z</time></trkpt><trkpt lat="44.3356388" lon="9.4413192"><ele>191.0</ele><time>2026-03-22T13:42:22.68Z</time></trkpt><trkpt lat="44.3357039" lon="9.4415657"><ele>189.66666666666666</ele><time>2026-03-22T13:42:23.68Z</time></trkpt><trkpt lat="44.3357521" lon="9.4418135"><ele>188.33333333333334</ele><time>2026-03-22T13:42:24.681Z</time></trkpt><trkpt lat="44.3357966" lon="9.4420504"><ele>187.0</ele><time>2026-03-22T13:42:25.681Z</time></trkpt><trkpt lat="44.33584" lon="9.4422691"><ele>187.0</ele><time>2026-03-22T13:42:26.68Z</time></trkpt><trkpt lat="44.3358824" lon="9.4424864"><ele>187.0</ele><time>2026-03-22T13:42:27.681Z</time></trkpt><trkpt lat="44.3359434" lon="9.4426985"><ele>187.0</ele><time>2026-03-22T13:42:28.68Z</time></trkpt><trkpt lat="44.3360207" lon="9.4429193"><ele>191.0</ele><time>2026-03-22T13:42:29.68Z</time></trkpt><trkpt lat="44.3361116" lon="9.4431264"><ele>195.0</ele><time>2026-03-22T13:42:30.68Z</time></trkpt><trkpt lat="44.3362062" lon="9.4433271"><ele>199.0</ele><time>2026-03-22T13:42:31.68Z</time></trkpt><trkpt lat="44.3363156" lon="9.4435181"><ele>199.0</ele><time>2026-03-22T13:42:32.68Z</time></trkpt><trkpt lat="44.3364413" lon="9.4436884"><ele>199.0</ele><time>2026-03-22T13:42:33.68Z</time></trkpt><trkpt lat="44.336582" lon="9.4438523"><ele>199.0</ele><time>2026-03-22T13:42:34.68Z</time></trkpt><trkpt lat="44.3367244" lon="9.4440094"><ele>199.0</ele><time>2026-03-22T13:42:35.68Z</time></trkpt><trkpt lat="44.3368615" lon="9.4441561"><ele>199.0</ele><time>2026-03-22T13:42:36.68Z</time></trkpt><trkpt lat="44.3369855" lon="9.444303"><ele>199.0</ele><time>2026-03-22T13:42:37.68Z</time></trkpt><trkpt lat="44.3370984" lon="9.4444529"><ele>199.0</ele><time>2026-03-22T13:42:38.68Z</time></trkpt><trkpt lat="44.3371903" lon="9.4446177"><ele>199.0</ele><time>2026-03-22T13:42:39.68Z</time></trkpt><trkpt lat="44.3372676" lon="9.4447887"><ele>199.0</ele><time>2026-03-22T13:42:40.68Z</time></trkpt><trkpt lat="44.3373203" lon="9.4449765"><ele>199.0</ele><time>2026-03-22T13:42:41.68Z</time></trkpt><trkpt lat="44.3373548" lon="9.4451833"><ele>198.66666666666666</ele><time>2026-03-22T13:42:42.68Z</time></trkpt><trkpt lat="44.3373833" lon="9.4454079"><ele>198.33333333333331</ele><time>2026-03-22T13:42:43.681Z</time></trkpt><trkpt lat="44.3374129" lon="9.4456438"><ele>198.0</ele><time>2026-03-22T13:42:44.68Z</time></trkpt><trkpt lat="44.3374465" lon="9.4458783"><ele>198.0</ele><time>2026-03-22T13:42:45.68Z</time></trkpt><trkpt lat="44.3374965" lon="9.446092"><ele>198.0</ele><time>2026-03-22T13:42:46.679Z</time></trkpt><trkpt lat="44.3376047" lon="9.4462976"><ele>198.0</ele><time>2026-03-22T13:42:47.681Z</time></trkpt><trkpt lat="44.3376839" lon="9.4464979"><ele>205.66666666666669</ele><time>2026-03-22T13:42:48.68Z</time></trkpt><trkpt lat="44.3377688" lon="9.4466919"><ele>213.33333333333334</ele><time>2026-03-22T13:42:49.68Z</time></trkpt><trkpt lat="44.3378629" lon="9.4468782"><ele>221.0</ele><time>2026-03-22T13:42:50.679Z</time></trkpt><trkpt lat="44.3379474" lon="9.4470299"><ele>217.66666666666669</ele><time>2026-03-22T13:42:51.68Z</time></trkpt><trkpt lat="44.3380461" lon="9.4471898"><ele>214.33333333333331</ele><time>2026-03-22T13:42:52.68Z</time></trkpt><trkpt lat="44.3381801" lon="9.4472995"><ele>211.0</ele><time>2026-03-22T13:42:53.68Z</time></trkpt><trkpt lat="44.338306" lon="9.4474172"><ele>211.0</ele><time>2026-03-22T13:42:54.68Z</time></trkpt><trkpt lat="44.3384398" lon="9.4475342"><ele>211.0</ele><time>2026-03-22T13:42:55.68Z</time></trkpt><trkpt lat="44.338591" lon="9.4476389"><ele>211.0</ele><time>2026-03-22T13:42:56.68Z</time></trkpt><trkpt lat="44.3387351" lon="9.4477654"><ele>211.0</ele><time>2026-03-22T13:42:57.68Z</time></trkpt><trkpt lat="44.338867" lon="9.4478936"><ele>211.0</ele><time>2026-03-22T13:42:58.68Z</time></trkpt><trkpt lat="44.3389953" lon="9.4480459"><ele>211.0</ele><time>2026-03-22T13:42:59.68Z</time></trkpt><trkpt lat="44.3391242" lon="9.4481881"><ele>212.5</ele><time>2026-03-22T13:43:00.68Z</time></trkpt><trkpt lat="44.3392547" lon="9.4483128"><ele>214.0</ele><time>2026-03-22T13:43:01.681Z</time></trkpt><trkpt lat="44.3393825" lon="9.4484031"><ele>215.5</ele><time>2026-03-22T13:43:02.68Z</time></trkpt><trkpt lat="44.3395015" lon="9.4484883"><ele>217.0</ele><time>2026-03-22T13:43:03.68Z</time></trkpt><trkpt lat="44.3396159" lon="9.4485649"><ele>217.0</ele><time>2026-03-22T13:43:04.68Z</time></trkpt><trkpt lat="44.3397087" lon="9.4486889"><ele>217.0</ele><time>2026-03-22T13:43:05.68Z</time></trkpt><trkpt lat="44.3397835" lon="9.4488545"><ele>217.0</ele><time>2026-03-22T13:43:06.681Z</time></trkpt><trkpt lat="44.3398634" lon="9.4490461"><ele>217.0</ele><time>2026-03-22T13:43:07.68Z</time></trkpt><trkpt lat="44.3399408" lon="9.449236"><ele>217.75</ele><time>2026-03-22T13:43:08.679Z</time></trkpt><trkpt lat="44.3400152" lon="9.4494046"><ele>218.5</ele><time>2026-03-22T13:43:09.68Z</time></trkpt><trkpt lat="44.3400852" lon="9.4495593"><ele>219.25</ele><time>2026-03-22T13:43:10.681Z</time></trkpt><trkpt lat="44.3401475" lon="9.4497118"><ele>220.0</ele><time>2026-03-22T13:43:11.68Z</time></trkpt><trkpt lat="44.3402062" lon="9.4498664"><ele>220.0</ele><time>2026-03-22T13:43:12.68Z</time></trkpt><trkpt lat="44.3402531" lon="9.4500321"><ele>220.0</ele><time>2026-03-22T13:43:13.68Z</time></trkpt><trkpt lat="44.3403016" lon="9.4502079"><ele>220.0</ele><time>2026-03-22T13:43:14.68Z</time></trkpt><trkpt lat="44.3403524" lon="9.4503854"><ele>220.0</ele><time>2026-03-22T13:43:15.68Z</time></trkpt><trkpt lat="44.3404127" lon="9.4505646"><ele>218.0</ele><time>2026-03-22T13:43:16.68Z</time></trkpt><trkpt lat="44.3404891" lon="9.4507197"><ele>216.0</ele><time>2026-03-22T13:43:17.68Z</time></trkpt><trkpt lat="44.3406008" lon="9.4508452"><ele>214.0</ele><time>2026-03-22T13:43:18.68Z</time></trkpt><trkpt lat="44.3407192" lon="9.4509595"><ele>212.0</ele><time>2026-03-22T13:43:19.68Z</time></trkpt><trkpt lat="44.340824" lon="9.4510866"><ele>212.0</ele><time>2026-03-22T13:43:20.68Z</time></trkpt><trkpt lat="44.3408991" lon="9.4512435"><ele>212.0</ele><time>2026-03-22T13:43:21.68Z</time></trkpt><trkpt lat="44.3409482" lon="9.451423"><ele>212.0</ele><time>2026-03-22T13:43:22.68Z</time></trkpt><trkpt lat="44.3409564" lon="9.4516277"><ele>212.0</ele><time>2026-03-22T13:43:23.681Z</time></trkpt><trkpt lat="44.3409526" lon="9.4518306"><ele>216.0</ele><time>2026-03-22T13:43:24.68Z</time></trkpt><trkpt lat="44.3409882" lon="9.4520091"><ele>220.0</ele><time>2026-03-22T13:43:25.68Z</time></trkpt><trkpt lat="44.3410228" lon="9.4521982"><ele>224.0</ele><time>2026-03-22T13:43:26.68Z</time></trkpt><trkpt lat="44.3411551" lon="9.4523675"><ele>227.33333333333334</ele><time>2026-03-22T13:43:27.68Z</time></trkpt><trkpt lat="44.3412549" lon="9.4525528"><ele>230.66666666666669</ele><time>2026-03-22T13:43:28.68Z</time></trkpt><trkpt lat="44.3413535" lon="9.4527263"><ele>234.0</ele><time>2026-03-22T13:43:29.68Z</time></trkpt><trkpt lat="44.3414339" lon="9.4528747"><ele>232.0</ele><time>2026-03-22T13:43:30.681Z</time></trkpt><trkpt lat="44.3414933" lon="9.4529822"><ele>230.0</ele><time>2026-03-22T13:43:31.68Z</time></trkpt><trkpt lat="44.3415315" lon="9.4530538"><ele>228.0</ele><time>2026-03-22T13:43:32.68Z</time></trkpt><trkpt lat="44.3415657" lon="9.453142"><ele>226.0</ele><time>2026-03-22T13:43:35.68Z</time></trkpt><trkpt lat="44.3415331" lon="9.4532214"><ele>224.0</ele><time>2026-03-22T13:43:56.68Z</time></trkpt><trkpt lat="44.341468" lon="9.4531261"><ele>222.0</ele><time>2026-03-22T13:44:00.68Z</time></trkpt><trkpt lat="44.3413982" lon="9.4530158"><ele>224.39999999999998</ele><time>2026-03-22T13:44:02.681Z</time></trkpt><trkpt lat="44.341325" lon="9.4529"><ele>226.79999999999998</ele><time>2026-03-22T13:44:04.68Z</time></trkpt><trkpt lat="44.3412498" lon="9.4527835"><ele>229.2</ele><time>2026-03-22T13:44:06.68Z</time></trkpt><trkpt lat="44.341196" lon="9.4527359"><ele>231.6</ele><time>2026-03-22T13:44:07.68Z</time></trkpt><trkpt lat="44.3410894" lon="9.452673"><ele>234.0</ele><time>2026-03-22T13:44:09.681Z</time></trkpt><trkpt lat="44.3409949" lon="9.4526236"><ele>234.0</ele><time>2026-03-22T13:44:11.68Z</time></trkpt><trkpt lat="44.3408928" lon="9.4525558"><ele>234.0</ele><time>2026-03-22T13:44:13.68Z</time></trkpt><trkpt lat="44.340836" lon="9.4525001"><ele>234.0</ele><time>2026-03-22T13:44:14.68Z</time></trkpt><trkpt lat="44.3407811" lon="9.4524199"><ele>234.0</ele><time>2026-03-22T13:44:15.68Z</time></trkpt><trkpt lat="44.3407465" lon="9.4523232"><ele>234.0</ele><time>2026-03-22T13:44:16.68Z</time></trkpt><trkpt lat="44.3407246" lon="9.452236"><ele>234.0</ele><time>2026-03-22T13:44:17.68Z</time></trkpt><trkpt lat="44.3407031" lon="9.4521119"><ele>234.0</ele><time>2026-03-22T13:44:19.68Z</time></trkpt><trkpt lat="44.3406707" lon="9.4520329"><ele>234.0</ele><time>2026-03-22T13:44:35.68Z</time></trkpt><trkpt lat="44.3406545" lon="9.4521321"><ele>234.0</ele><time>2026-03-22T13:44:44.68Z</time></trkpt><trkpt lat="44.3406918" lon="9.4522172"><ele>234.0</ele><time>2026-03-22T13:44:45.68Z</time></trkpt><trkpt lat="44.3407274" lon="9.452319"><ele>234.0</ele><time>2026-03-22T13:44:46.68Z</time></trkpt><trkpt lat="44.3407661" lon="9.4524132"><ele>234.0</ele><time>2026-03-22T13:44:47.679Z</time></trkpt><trkpt lat="44.3408398" lon="9.4524816"><ele>234.0</ele><time>2026-03-22T13:44:48.68Z</time></trkpt><trkpt lat="44.3409305" lon="9.4525422"><ele>234.0</ele><time>2026-03-22T13:44:49.681Z</time></trkpt><trkpt lat="44.3410083" lon="9.4525935"><ele>234.0</ele><time>2026-03-22T13:44:50.68Z</time></trkpt><trkpt lat="44.3410812" lon="9.4526257"><ele>234.0</ele><time>2026-03-22T13:44:51.68Z</time></trkpt><trkpt lat="44.3411485" lon="9.4526598"><ele>234.0</ele><time>2026-03-22T13:44:52.68Z</time></trkpt><trkpt lat="44.3412035" lon="9.4527077"><ele>234.0</ele><time>2026-03-22T13:44:53.68Z</time></trkpt><trkpt lat="44.3412534" lon="9.4527826"><ele>234.0</ele><time>2026-03-22T13:44:54.68Z</time></trkpt><trkpt lat="44.3413124" lon="9.4528893"><ele>234.0</ele><time>2026-03-22T13:44:55.68Z</time></trkpt><trkpt lat="44.3413677" lon="9.4529853"><ele>234.0</ele><time>2026-03-22T13:44:56.679Z</time></trkpt><trkpt lat="44.3414242" lon="9.4530602"><ele>234.0</ele><time>2026-03-22T13:44:57.68Z</time></trkpt><trkpt lat="44.3414775" lon="9.4531356"><ele>234.0</ele><time>2026-03-22T13:44:58.68Z</time></trkpt><trkpt lat="44.3415316" lon="9.4531928"><ele>234.0</ele><time>2026-03-22T13:44:59.68Z</time></trkpt><trkpt lat="44.3415773" lon="9.4532683"><ele>234.39999999999998</ele><time>2026-03-22T13:45:00.68Z</time></trkpt><trkpt lat="44.3416166" lon="9.4533719"><ele>234.79999999999998</ele><time>2026-03-22T13:45:01.68Z</time></trkpt><trkpt lat="44.3416313" lon="9.4534819"><ele>235.20000000000002</ele><time>2026-03-22T13:45:02.68Z</time></trkpt><trkpt lat="44.3416373" lon="9.4536223"><ele>235.60000000000002</ele><time>2026-03-22T13:45:03.68Z</time></trkpt><trkpt lat="44.3416589" lon="9.4537602"><ele>236.0</ele><time>2026-03-22T13:45:04.68Z</time></trkpt><trkpt lat="44.3417101" lon="9.453888"><ele>236.0</ele><time>2026-03-22T13:45:05.68Z</time></trkpt><trkpt lat="44.3417943" lon="9.453997"><ele>236.0</ele><time>2026-03-22T13:45:06.68Z</time></trkpt><trkpt lat="44.341897" lon="9.454077"><ele>236.0</ele><time>2026-03-22T13:45:07.681Z</time></trkpt><trkpt lat="44.3420202" lon="9.4541324"><ele>236.0</ele><time>2026-03-22T13:45:08.68Z</time></trkpt><trkpt lat="44.3421539" lon="9.4541943"><ele>232.0</ele><time>2026-03-22T13:45:09.68Z</time></trkpt><trkpt lat="44.3422989" lon="9.4542922"><ele>228.0</ele><time>2026-03-22T13:45:10.681Z</time></trkpt><trkpt lat="44.3424336" lon="9.4544382"><ele>224.0</ele><time>2026-03-22T13:45:11.68Z</time></trkpt><trkpt lat="44.342551" lon="9.4546177"><ele>232.0</ele><time>2026-03-22T13:45:12.68Z</time></trkpt><trkpt lat="44.3426605" lon="9.4548319"><ele>240.0</ele><time>2026-03-22T13:45:13.68Z</time></trkpt><trkpt lat="44.342779" lon="9.4550626"><ele>248.0</ele><time>2026-03-22T13:45:14.68Z</time></trkpt><trkpt lat="44.3429146" lon="9.4552819"><ele>244.66666666666669</ele><time>2026-03-22T13:45:15.68Z</time></trkpt><trkpt lat="44.3430449" lon="9.4554841"><ele>241.33333333333331</ele><time>2026-03-22T13:45:16.68Z</time></trkpt><trkpt lat="44.3431689" lon="9.45568"><ele>238.0</ele><time>2026-03-22T13:45:17.68Z</time></trkpt><trkpt lat="44.3432698" lon="9.4558405"><ele>238.0</ele><time>2026-03-22T13:45:18.68Z</time></trkpt><trkpt lat="44.3433665" lon="9.455982"><ele>238.0</ele><time>2026-03-22T13:45:19.68Z</time></trkpt><trkpt lat="44.3434819" lon="9.456084"><ele>238.0</ele><time>2026-03-22T13:45:20.68Z</time></trkpt><trkpt lat="44.3436111" lon="9.4561302"><ele>238.0</ele><time>2026-03-22T13:45:21.68Z</time></trkpt><trkpt lat="44.3437327" lon="9.4561822"><ele>238.0</ele><time>2026-03-22T13:45:22.68Z</time></trkpt><trkpt lat="44.3438573" lon="9.4560673"><ele>238.0</ele><time>2026-03-22T13:45:23.68Z</time></trkpt><trkpt lat="44.3439686" lon="9.4560069"><ele>238.0</ele><time>2026-03-22T13:45:24.681Z</time></trkpt><trkpt lat="44.3440759" lon="9.4559711"><ele>238.0</ele><time>2026-03-22T13:45:25.679Z</time></trkpt><trkpt lat="44.3441743" lon="9.4559956"><ele>237.2</ele><time>2026-03-22T13:45:26.68Z</time></trkpt><trkpt lat="44.3442386" lon="9.4560687"><ele>236.4</ele><time>2026-03-22T13:45:27.681Z</time></trkpt><trkpt lat="44.3442807" lon="9.456185"><ele>235.59999999999997</ele><time>2026-03-22T13:45:28.68Z</time></trkpt><trkpt lat="44.3443313" lon="9.4563145"><ele>234.79999999999998</ele><time>2026-03-22T13:45:29.681Z</time></trkpt><trkpt lat="44.3443781" lon="9.4564933"><ele>234.0</ele><time>2026-03-22T13:45:30.68Z</time></trkpt><trkpt lat="44.3444512" lon="9.4566314"><ele>235.0</ele><time>2026-03-22T13:45:31.68Z</time></trkpt><trkpt lat="44.3445683" lon="9.456756"><ele>236.0</ele><time>2026-03-22T13:45:32.68Z</time></trkpt><trkpt lat="44.344701" lon="9.4568758"><ele>237.0</ele><time>2026-03-22T13:45:33.68Z</time></trkpt><trkpt lat="44.3448213" lon="9.4569835"><ele>238.0</ele><time>2026-03-22T13:45:34.68Z</time></trkpt><trkpt lat="44.3449279" lon="9.4570905"><ele>239.75</ele><time>2026-03-22T13:45:35.68Z</time></trkpt><trkpt lat="44.3450079" lon="9.4572111"><ele>241.5</ele><time>2026-03-22T13:45:36.68Z</time></trkpt><trkpt lat="44.3450583" lon="9.4573623"><ele>243.25</ele><time>2026-03-22T13:45:37.679Z</time></trkpt><trkpt lat="44.3451025" lon="9.4575477"><ele>245.0</ele><time>2026-03-22T13:45:38.68Z</time></trkpt><trkpt lat="44.3451319" lon="9.457735"><ele>245.0</ele><time>2026-03-22T13:45:39.68Z</time></trkpt><trkpt lat="44.345173" lon="9.4579004"><ele>245.0</ele><time>2026-03-22T13:45:40.68Z</time></trkpt><trkpt lat="44.3452301" lon="9.4580569"><ele>245.0</ele><time>2026-03-22T13:45:41.68Z</time></trkpt><trkpt lat="44.3453313" lon="9.4581815"><ele>245.0</ele><time>2026-03-22T13:45:42.681Z</time></trkpt><trkpt lat="44.3454449" lon="9.4583213"><ele>246.33333333333334</ele><time>2026-03-22T13:45:43.68Z</time></trkpt><trkpt lat="44.3455766" lon="9.4584641"><ele>247.66666666666669</ele><time>2026-03-22T13:45:44.68Z</time></trkpt><trkpt lat="44.3457114" lon="9.4586145"><ele>249.0</ele><time>2026-03-22T13:45:45.68Z</time></trkpt><trkpt lat="44.3458437" lon="9.4587585"><ele>253.75</ele><time>2026-03-22T13:45:46.681Z</time></trkpt><trkpt lat="44.3459724" lon="9.458892"><ele>258.5</ele><time>2026-03-22T13:45:47.68Z</time></trkpt><trkpt lat="44.3460843" lon="9.459023"><ele>263.25</ele><time>2026-03-22T13:45:48.68Z</time></trkpt><trkpt lat="44.3461771" lon="9.4591534"><ele>268.0</ele><time>2026-03-22T13:45:49.68Z</time></trkpt><trkpt lat="44.3462679" lon="9.4592736"><ele>268.0</ele><time>2026-03-22T13:45:50.68Z</time></trkpt><trkpt lat="44.3463678" lon="9.45935"><ele>268.0</ele><time>2026-03-22T13:45:51.68Z</time></trkpt><trkpt lat="44.3464863" lon="9.4593921"><ele>268.0</ele><time>2026-03-22T13:45:52.68Z</time></trkpt><trkpt lat="44.3466098" lon="9.4593984"><ele>268.0</ele><time>2026-03-22T13:45:53.679Z</time></trkpt><trkpt lat="44.3467404" lon="9.459405"><ele>266.25</ele><time>2026-03-22T13:45:54.681Z</time></trkpt><trkpt lat="44.3468741" lon="9.4594121"><ele>264.5</ele><time>2026-03-22T13:45:55.68Z</time></trkpt><trkpt lat="44.3470117" lon="9.4594298"><ele>262.75</ele><time>2026-03-22T13:45:56.68Z</time></trkpt><trkpt lat="44.347139" lon="9.4594369"><ele>261.0</ele><time>2026-03-22T13:45:57.68Z</time></trkpt><trkpt lat="44.3472541" lon="9.4594172"><ele>261.0</ele><time>2026-03-22T13:45:58.68Z</time></trkpt><trkpt lat="44.3473705" lon="9.4593795"><ele>261.0</ele><time>2026-03-22T13:45:59.679Z</time></trkpt><trkpt lat="44.3474469" lon="9.4592647"><ele>261.0</ele><time>2026-03-22T13:46:00.68Z</time></trkpt><trkpt lat="44.3475533" lon="9.4591926"><ele>261.0</ele><time>2026-03-22T13:46:01.68Z</time></trkpt><trkpt lat="44.3476642" lon="9.4591526"><ele>261.0</ele><time>2026-03-22T13:46:02.68Z</time></trkpt><trkpt lat="44.3477734" lon="9.4591559"><ele>261.0</ele><time>2026-03-22T13:46:03.68Z</time></trkpt><trkpt lat="44.3478737" lon="9.4592078"><ele>261.0</ele><time>2026-03-22T13:46:04.68Z</time></trkpt><trkpt lat="44.3479895" lon="9.4592689"><ele>261.0</ele><time>2026-03-22T13:46:05.68Z</time></trkpt><trkpt lat="44.3481129" lon="9.4592865"><ele>263.40000000000003</ele><time>2026-03-22T13:46:06.68Z</time></trkpt><trkpt lat="44.3482344" lon="9.4592898"><ele>265.8</ele><time>2026-03-22T13:46:07.68Z</time></trkpt><trkpt lat="44.3483299" lon="9.4592504"><ele>268.20000000000005</ele><time>2026-03-22T13:46:08.68Z</time></trkpt><trkpt lat="44.3484014" lon="9.459206"><ele>270.6</ele><time>2026-03-22T13:46:09.681Z</time></trkpt><trkpt lat="44.3484925" lon="9.4591398"><ele>273.0</ele><time>2026-03-22T13:46:11.681Z</time></trkpt><trkpt lat="44.3485589" lon="9.4591008"><ele>273.0</ele><time>2026-03-22T13:46:13.68Z</time></trkpt><trkpt lat="44.3485948" lon="9.4592135"><ele>273.0</ele><time>2026-03-22T13:46:16.68Z</time></trkpt><trkpt lat="44.3484813" lon="9.4592856"><ele>273.0</ele><time>2026-03-22T13:46:18.68Z</time></trkpt><trkpt lat="44.3484025" lon="9.4593159"><ele>273.0</ele><time>2026-03-22T13:46:19.68Z</time></trkpt><trkpt lat="44.3483092" lon="9.4593523"><ele>273.0</ele><time>2026-03-22T13:46:20.68Z</time></trkpt><trkpt lat="44.3482173" lon="9.4593926"><ele>273.0</ele><time>2026-03-22T13:46:21.68Z</time></trkpt><trkpt lat="44.3481127" lon="9.4594096"><ele>273.0</ele><time>2026-03-22T13:46:22.68Z</time></trkpt><trkpt lat="44.3479924" lon="9.45937"><ele>273.0</ele><time>2026-03-22T13:46:23.68Z</time></trkpt><trkpt lat="44.3478861" lon="9.4593242"><ele>273.0</ele><time>2026-03-22T13:46:24.68Z</time></trkpt><trkpt lat="44.3477947" lon="9.4592996"><ele>273.0</ele><time>2026-03-22T13:46:25.68Z</time></trkpt><trkpt lat="44.3476998" lon="9.4593339"><ele>270.6</ele><time>2026-03-22T13:46:26.68Z</time></trkpt><trkpt lat="44.3476117" lon="9.4593839"><ele>268.20000000000005</ele><time>2026-03-22T13:46:27.68Z</time></trkpt><trkpt lat="44.3475265" lon="9.4594648"><ele>265.8</ele><time>2026-03-22T13:46:28.68Z</time></trkpt><trkpt lat="44.347452" lon="9.4595718"><ele>263.40000000000003</ele><time>2026-03-22T13:46:29.68Z</time></trkpt><trkpt lat="44.3473864" lon="9.4597192"><ele>261.0</ele><time>2026-03-22T13:46:30.68Z</time></trkpt><trkpt lat="44.3473335" lon="9.4598947"><ele>261.0</ele><time>2026-03-22T13:46:31.68Z</time></trkpt><trkpt lat="44.3472761" lon="9.4600798"><ele>261.0</ele><time>2026-03-22T13:46:32.68Z</time></trkpt><trkpt lat="44.3472064" lon="9.4602384"><ele>261.0</ele><time>2026-03-22T13:46:33.68Z</time></trkpt><trkpt lat="44.3471236" lon="9.4603746"><ele>261.0</ele><time>2026-03-22T13:46:34.68Z</time></trkpt><trkpt lat="44.3470482" lon="9.4604893"><ele>264.2</ele><time>2026-03-22T13:46:35.68Z</time></trkpt><trkpt lat="44.3470008" lon="9.4605926"><ele>267.40000000000003</ele><time>2026-03-22T13:46:36.68Z</time></trkpt><trkpt lat="44.3469813" lon="9.4606951"><ele>270.6</ele><time>2026-03-22T13:46:37.68Z</time></trkpt><trkpt lat="44.3469738" lon="9.4607838"><ele>273.8</ele><time>2026-03-22T13:46:38.68Z</time></trkpt><trkpt lat="44.3469992" lon="9.4609032"><ele>277.0</ele><time>2026-03-22T13:46:39.681Z</time></trkpt><trkpt lat="44.3471528" lon="9.460951"><ele>283.75</ele><time>2026-03-22T13:46:40.68Z</time></trkpt><trkpt lat="44.3472533" lon="9.4610286"><ele>290.5</ele><time>2026-03-22T13:46:41.68Z</time></trkpt><trkpt lat="44.3473635" lon="9.4611143"><ele>297.25</ele><time>2026-03-22T13:46:42.68Z</time></trkpt><trkpt lat="44.3474173" lon="9.4612622"><ele>304.0</ele><time>2026-03-22T13:46:43.68Z</time></trkpt><trkpt lat="44.3474782" lon="9.4614105"><ele>304.0</ele><time>2026-03-22T13:46:44.681Z</time></trkpt><trkpt lat="44.3475583" lon="9.4615701"><ele>304.0</ele><time>2026-03-22T13:46:45.679Z</time></trkpt><trkpt lat="44.3476478" lon="9.461736"><ele>304.0</ele><time>2026-03-22T13:46:46.68Z</time></trkpt><trkpt lat="44.3477872" lon="9.4618789"><ele>304.0</ele><time>2026-03-22T13:46:47.68Z</time></trkpt><trkpt lat="44.3478867" lon="9.4620268"><ele>304.0</ele><time>2026-03-22T13:46:48.68Z</time></trkpt><trkpt lat="44.3479783" lon="9.4621613"><ele>304.0</ele><time>2026-03-22T13:46:49.68Z</time></trkpt><trkpt lat="44.3480402" lon="9.4623461"><ele>304.0</ele><time>2026-03-22T13:46:50.68Z</time></trkpt><trkpt lat="44.3480894" lon="9.4625486"><ele>313.3333333333333</ele><time>2026-03-22T13:46:51.68Z</time></trkpt><trkpt lat="44.3481134" lon="9.4628106"><ele>322.6666666666667</ele><time>2026-03-22T13:46:52.68Z</time></trkpt><trkpt lat="44.3480979" lon="9.463087"><ele>332.0</ele><time>2026-03-22T13:46:53.68Z</time></trkpt><trkpt lat="44.348104" lon="9.4633406"><ele>332.0</ele><time>2026-03-22T13:46:54.68Z</time></trkpt><trkpt lat="44.3480814" lon="9.4635656"><ele>332.0</ele><time>2026-03-22T13:46:55.679Z</time></trkpt><trkpt lat="44.3480869" lon="9.4637675"><ele>332.0</ele><time>2026-03-22T13:46:56.679Z</time></trkpt><trkpt lat="44.348133" lon="9.463935"><ele>332.0</ele><time>2026-03-22T13:46:57.68Z</time></trkpt><trkpt lat="44.3481494" lon="9.4640868"><ele>327.5</ele><time>2026-03-22T13:46:58.68Z</time></trkpt><trkpt lat="44.348276" lon="9.4641868"><ele>323.0</ele><time>2026-03-22T13:46:59.68Z</time></trkpt><trkpt lat="44.3484129" lon="9.4642847"><ele>318.5</ele><time>2026-03-22T13:47:00.68Z</time></trkpt><trkpt lat="44.3485351" lon="9.4643859"><ele>314.0</ele><time>2026-03-22T13:47:01.68Z</time></trkpt><trkpt lat="44.3486622" lon="9.4644702"><ele>314.0</ele><time>2026-03-22T13:47:02.68Z</time></trkpt><trkpt lat="44.3487858" lon="9.4645613"><ele>314.0</ele><time>2026-03-22T13:47:03.68Z</time></trkpt><trkpt lat="44.3488738" lon="9.4646766"><ele>314.0</ele><time>2026-03-22T13:47:04.68Z</time></trkpt><trkpt lat="44.3489595" lon="9.4647807"><ele>314.0</ele><time>2026-03-22T13:47:05.68Z</time></trkpt><trkpt lat="44.3489614" lon="9.4649827"><ele>316.75</ele><time>2026-03-22T13:47:06.68Z</time></trkpt><trkpt lat="44.3489709" lon="9.4651692"><ele>319.5</ele><time>2026-03-22T13:47:07.68Z</time></trkpt><trkpt lat="44.3489753" lon="9.4653432"><ele>322.25</ele><time>2026-03-22T13:47:08.681Z</time></trkpt><trkpt lat="44.3489848" lon="9.465502"><ele>325.0</ele><time>2026-03-22T13:47:09.68Z</time></trkpt><trkpt lat="44.3490196" lon="9.4656455"><ele>325.0</ele><time>2026-03-22T13:47:10.68Z</time></trkpt><trkpt lat="44.3490501" lon="9.4657895"><ele>325.0</ele><time>2026-03-22T13:47:11.681Z</time></trkpt><trkpt lat="44.3490944" lon="9.465909"><ele>325.0</ele><time>2026-03-22T13:47:12.68Z</time></trkpt><trkpt lat="44.3491614" lon="9.4660341"><ele>325.0</ele><time>2026-03-22T13:47:13.68Z</time></trkpt><trkpt lat="44.3492674" lon="9.4661159"><ele>325.0</ele><time>2026-03-22T13:47:14.68Z</time></trkpt><trkpt lat="44.3494791" lon="9.4661884"><ele>325.5</ele><time>2026-03-22T13:47:15.68Z</time></trkpt><trkpt lat="44.3496156" lon="9.4662875"><ele>326.0</ele><time>2026-03-22T13:47:16.681Z</time></trkpt><trkpt lat="44.349742" lon="9.4663867"><ele>326.5</ele><time>2026-03-22T13:47:17.68Z</time></trkpt><trkpt lat="44.3498573" lon="9.4664734"><ele>327.0</ele><time>2026-03-22T13:47:18.681Z</time></trkpt><trkpt lat="44.3499531" lon="9.466576"><ele>330.0</ele><time>2026-03-22T13:47:19.681Z</time></trkpt><trkpt lat="44.3500352" lon="9.4666821"><ele>333.0</ele><time>2026-03-22T13:47:20.681Z</time></trkpt><trkpt lat="44.350067" lon="9.4668522"><ele>336.0</ele><time>2026-03-22T13:47:21.68Z</time></trkpt><trkpt lat="44.3501241" lon="9.4670099"><ele>339.0</ele><time>2026-03-22T13:47:22.68Z</time></trkpt><trkpt lat="44.3501821" lon="9.4671453"><ele>339.75</ele><time>2026-03-22T13:47:23.68Z</time></trkpt><trkpt lat="44.3502232" lon="9.4672977"><ele>340.5</ele><time>2026-03-22T13:47:24.68Z</time></trkpt><trkpt lat="44.3502356" lon="9.4674571"><ele>341.25</ele><time>2026-03-22T13:47:25.68Z</time></trkpt><trkpt lat="44.3502225" lon="9.4676241"><ele>342.0</ele><time>2026-03-22T13:47:26.68Z</time></trkpt><trkpt lat="44.3501948" lon="9.4678005"><ele>344.0</ele><time>2026-03-22T13:47:27.679Z</time></trkpt><trkpt lat="44.3501663" lon="9.4679587"><ele>346.0</ele><time>2026-03-22T13:47:28.68Z</time></trkpt><trkpt lat="44.3501417" lon="9.4681152"><ele>348.0</ele><time>2026-03-22T13:47:29.68Z</time></trkpt><trkpt lat="44.3501441" lon="9.4682749"><ele>350.0</ele><time>2026-03-22T13:47:30.68Z</time></trkpt><trkpt lat="44.3501639" lon="9.4684335"><ele>350.0</ele><time>2026-03-22T13:47:31.68Z</time></trkpt><trkpt lat="44.3502102" lon="9.468595"><ele>350.0</ele><time>2026-03-22T13:47:32.68Z</time></trkpt><trkpt lat="44.3502574" lon="9.4687668"><ele>350.0</ele><time>2026-03-22T13:47:33.68Z</time></trkpt><trkpt lat="44.3503199" lon="9.4689443"><ele>350.0</ele><time>2026-03-22T13:47:34.681Z</time></trkpt><trkpt lat="44.3503767" lon="9.4691361"><ele>350.75</ele><time>2026-03-22T13:47:35.681Z</time></trkpt><trkpt lat="44.3504469" lon="9.4693237"><ele>351.5</ele><time>2026-03-22T13:47:36.68Z</time></trkpt><trkpt lat="44.3505149" lon="9.469488"><ele>352.25</ele><time>2026-03-22T13:47:37.68Z</time></trkpt><trkpt lat="44.3505904" lon="9.4696385"><ele>353.0</ele><time>2026-03-22T13:47:38.68Z</time></trkpt><trkpt lat="44.3506872" lon="9.4697323"><ele>354.59999999999997</ele><time>2026-03-22T13:47:39.68Z</time></trkpt><trkpt lat="44.3507758" lon="9.4698231"><ele>356.2</ele><time>2026-03-22T13:47:40.68Z</time></trkpt><trkpt lat="44.3508408" lon="9.4699634"><ele>357.8</ele><time>2026-03-22T13:47:41.68Z</time></trkpt><trkpt lat="44.3509024" lon="9.4700964"><ele>359.4</ele><time>2026-03-22T13:47:42.68Z</time></trkpt><trkpt lat="44.35095" lon="9.4702281"><ele>361.0</ele><time>2026-03-22T13:47:43.68Z</time></trkpt><trkpt lat="44.3510103" lon="9.4703353"><ele>363.5</ele><time>2026-03-22T13:47:44.68Z</time></trkpt><trkpt lat="44.3510743" lon="9.4704551"><ele>366.0</ele><time>2026-03-22T13:47:45.681Z</time></trkpt><trkpt lat="44.351143" lon="9.4704965"><ele>368.5</ele><time>2026-03-22T13:47:46.68Z</time></trkpt><trkpt lat="44.3512115" lon="9.4705046"><ele>371.0</ele><time>2026-03-22T13:47:47.68Z</time></trkpt><trkpt lat="44.3512858" lon="9.4704861"><ele>373.5</ele><time>2026-03-22T13:47:48.68Z</time></trkpt><trkpt lat="44.3513715" lon="9.4705325"><ele>376.0</ele><time>2026-03-22T13:47:50.68Z</time></trkpt><trkpt lat="44.3512969" lon="9.4706792"><ele>376.0</ele><time>2026-03-22T13:47:52.68Z</time></trkpt><trkpt lat="44.3512352" lon="9.4707376"><ele>376.0</ele><time>2026-03-22T13:47:53.68Z</time></trkpt><trkpt lat="44.3511462" lon="9.4707725"><ele>376.0</ele><time>2026-03-22T13:47:54.68Z</time></trkpt><trkpt lat="44.3510335" lon="9.4707301"><ele>376.0</ele><time>2026-03-22T13:47:55.68Z</time></trkpt><trkpt lat="44.3508964" lon="9.4706085"><ele>376.0</ele><time>2026-03-22T13:47:56.68Z</time></trkpt><trkpt lat="44.3507976" lon="9.4705842"><ele>376.0</ele><time>2026-03-22T13:47:57.68Z</time></trkpt><trkpt lat="44.3506917" lon="9.4705382"><ele>376.0</ele><time>2026-03-22T13:47:58.68Z</time></trkpt><trkpt lat="44.3505965" lon="9.4705246"><ele>376.0</ele><time>2026-03-22T13:47:59.68Z</time></trkpt><trkpt lat="44.3504732" lon="9.4705635"><ele>376.0</ele><time>2026-03-22T13:48:00.68Z</time></trkpt><trkpt lat="44.3503811" lon="9.4706152"><ele>376.0</ele><time>2026-03-22T13:48:01.679Z</time></trkpt><trkpt lat="44.3502844" lon="9.4707048"><ele>375.0</ele><time>2026-03-22T13:48:02.68Z</time></trkpt><trkpt lat="44.3502316" lon="9.470883"><ele>374.0</ele><time>2026-03-22T13:48:03.68Z</time></trkpt><trkpt lat="44.3501292" lon="9.4710149"><ele>373.0</ele><time>2026-03-22T13:48:04.68Z</time></trkpt><trkpt lat="44.3500222" lon="9.4711607"><ele>372.0</ele><time>2026-03-22T13:48:05.681Z</time></trkpt><trkpt lat="44.3499188" lon="9.4712989"><ele>375.25</ele><time>2026-03-22T13:48:06.681Z</time></trkpt><trkpt lat="44.3498245" lon="9.4714301"><ele>378.5</ele><time>2026-03-22T13:48:07.68Z</time></trkpt><trkpt lat="44.3497431" lon="9.4715647"><ele>381.75</ele><time>2026-03-22T13:48:08.68Z</time></trkpt><trkpt lat="44.3496847" lon="9.4717076"><ele>385.0</ele><time>2026-03-22T13:48:09.68Z</time></trkpt><trkpt lat="44.3496221" lon="9.4718449"><ele>385.0</ele><time>2026-03-22T13:48:10.68Z</time></trkpt><trkpt lat="44.3495239" lon="9.4719688"><ele>385.0</ele><time>2026-03-22T13:48:11.679Z</time></trkpt><trkpt lat="44.3494051" lon="9.4720765"><ele>385.0</ele><time>2026-03-22T13:48:12.68Z</time></trkpt><trkpt lat="44.3493037" lon="9.4721811"><ele>385.0</ele><time>2026-03-22T13:48:13.68Z</time></trkpt><trkpt lat="44.3492259" lon="9.4722665"><ele>385.4</ele><time>2026-03-22T13:48:14.68Z</time></trkpt><trkpt lat="44.3491762" lon="9.4724114"><ele>385.8</ele><time>2026-03-22T13:48:16.68Z</time></trkpt><trkpt lat="44.3492764" lon="9.4724746"><ele>386.20000000000005</ele><time>2026-03-22T13:48:18.68Z</time></trkpt><trkpt lat="44.3493503" lon="9.4724291"><ele>386.6</ele><time>2026-03-22T13:48:19.68Z</time></trkpt><trkpt lat="44.3494352" lon="9.4723432"><ele>387.0</ele><time>2026-03-22T13:48:20.68Z</time></trkpt><trkpt lat="44.3495291" lon="9.4722824"><ele>387.0</ele><time>2026-03-22T13:48:21.68Z</time></trkpt><trkpt lat="44.3496126" lon="9.472207"><ele>387.0</ele><time>2026-03-22T13:48:22.68Z</time></trkpt><trkpt lat="44.3496964" lon="9.4721691"><ele>387.0</ele><time>2026-03-22T13:48:23.68Z</time></trkpt><trkpt lat="44.3497844" lon="9.4721324"><ele>387.0</ele><time>2026-03-22T13:48:24.68Z</time></trkpt><trkpt lat="44.3498668" lon="9.472024"><ele>387.0</ele><time>2026-03-22T13:48:25.68Z</time></trkpt><trkpt lat="44.3499397" lon="9.4719149"><ele>387.0</ele><time>2026-03-22T13:48:26.68Z</time></trkpt><trkpt lat="44.3500099" lon="9.4717905"><ele>387.0</ele><time>2026-03-22T13:48:27.681Z</time></trkpt><trkpt lat="44.3501048" lon="9.4716825"><ele>387.0</ele><time>2026-03-22T13:48:28.68Z</time></trkpt><trkpt lat="44.3501651" lon="9.4715709"><ele>387.0</ele><time>2026-03-22T13:48:29.68Z</time></trkpt><trkpt lat="44.3502349" lon="9.471454"><ele>387.0</ele><time>2026-03-22T13:48:30.681Z</time></trkpt><trkpt lat="44.3502808" lon="9.4713876"><ele>387.0</ele><time>2026-03-22T13:48:31.68Z</time></trkpt><trkpt lat="44.350341" lon="9.4712982"><ele>387.0</ele><time>2026-03-22T13:48:32.68Z</time></trkpt><trkpt lat="44.3503952" lon="9.4712256"><ele>387.0</ele><time>2026-03-22T13:48:33.68Z</time></trkpt><trkpt lat="44.3504698" lon="9.4711702"><ele>387.0</ele><time>2026-03-22T13:48:34.68Z</time></trkpt><trkpt lat="44.3505448" lon="9.4711494"><ele>387.0</ele><time>2026-03-22T13:48:35.68Z</time></trkpt><trkpt lat="44.350637" lon="9.4711538"><ele>387.0</ele><time>2026-03-22T13:48:36.68Z</time></trkpt><trkpt lat="44.3507302" lon="9.4711849"><ele>384.8</ele><time>2026-03-22T13:48:37.679Z</time></trkpt><trkpt lat="44.3508306" lon="9.4712477"><ele>382.6</ele><time>2026-03-22T13:48:38.68Z</time></trkpt><trkpt lat="44.3509258" lon="9.4713107"><ele>380.40000000000003</ele><time>2026-03-22T13:48:39.68Z</time></trkpt><trkpt lat="44.3510198" lon="9.4713751"><ele>378.20000000000005</ele><time>2026-03-22T13:48:40.68Z</time></trkpt><trkpt lat="44.3511078" lon="9.4714524"><ele>376.0</ele><time>2026-03-22T13:48:41.68Z</time></trkpt><trkpt lat="44.3511785" lon="9.4715659"><ele>380.8</ele><time>2026-03-22T13:48:42.68Z</time></trkpt><trkpt lat="44.3512587" lon="9.4716614"><ele>385.6</ele><time>2026-03-22T13:48:43.68Z</time></trkpt><trkpt lat="44.3513333" lon="9.4717697"><ele>390.4</ele><time>2026-03-22T13:48:44.68Z</time></trkpt><trkpt lat="44.3514332" lon="9.4718211"><ele>395.2</ele><time>2026-03-22T13:48:45.68Z</time></trkpt><trkpt lat="44.3515439" lon="9.4718961"><ele>400.0</ele><time>2026-03-22T13:48:46.681Z</time></trkpt><trkpt lat="44.3516331" lon="9.4719518"><ele>400.0</ele><time>2026-03-22T13:48:47.68Z</time></trkpt><trkpt lat="44.3517589" lon="9.4719897"><ele>400.0</ele><time>2026-03-22T13:48:48.68Z</time></trkpt><trkpt lat="44.3518797" lon="9.4719861"><ele>400.0</ele><time>2026-03-22T13:48:49.68Z</time></trkpt><trkpt lat="44.3520138" lon="9.4719735"><ele>400.0</ele><time>2026-03-22T13:48:50.681Z</time></trkpt><trkpt lat="44.3521403" lon="9.4719669"><ele>399.4</ele><time>2026-03-22T13:48:51.68Z</time></trkpt><trkpt lat="44.3522519" lon="9.4719898"><ele>398.8</ele><time>2026-03-22T13:48:52.681Z</time></trkpt><trkpt lat="44.3523529" lon="9.4720074"><ele>398.20000000000005</ele><time>2026-03-22T13:48:53.681Z</time></trkpt><trkpt lat="44.3524267" lon="9.4719986"><ele>397.6</ele><time>2026-03-22T13:48:54.681Z</time></trkpt><trkpt lat="44.3525043" lon="9.4720873"><ele>397.0</ele><time>2026-03-22T13:48:56.68Z</time></trkpt><trkpt lat="44.3524638" lon="9.4721865"><ele>402.5</ele><time>2026-03-22T13:48:58.68Z</time></trkpt><trkpt lat="44.3523527" lon="9.472266"><ele>408.0</ele><time>2026-03-22T13:49:00.68Z</time></trkpt><trkpt lat="44.352252" lon="9.4722796"><ele>413.5</ele><time>2026-03-22T13:49:01.681Z</time></trkpt><trkpt lat="44.3520691" lon="9.4723236"><ele>419.0</ele><time>2026-03-22T13:49:02.681Z</time></trkpt><trkpt lat="44.3519373" lon="9.4723612"><ele>420.0</ele><time>2026-03-22T13:49:03.681Z</time></trkpt><trkpt lat="44.3517655" lon="9.4723452"><ele>421.0</ele><time>2026-03-22T13:49:04.68Z</time></trkpt><trkpt lat="44.3516097" lon="9.4723357"><ele>422.0</ele><time>2026-03-22T13:49:05.68Z</time></trkpt><trkpt lat="44.3514796" lon="9.4723113"><ele>422.20000000000005</ele><time>2026-03-22T13:49:06.68Z</time></trkpt><trkpt lat="44.3513433" lon="9.4722919"><ele>422.4</ele><time>2026-03-22T13:49:07.68Z</time></trkpt><trkpt lat="44.351252" lon="9.4722394"><ele>422.6</ele><time>2026-03-22T13:49:08.68Z</time></trkpt><trkpt lat="44.3511656" lon="9.4722059"><ele>422.79999999999995</ele><time>2026-03-22T13:49:09.68Z</time></trkpt><trkpt lat="44.3510875" lon="9.4721588"><ele>423.0</ele><time>2026-03-22T13:49:10.68Z</time></trkpt><trkpt lat="44.3510226" lon="9.4721432"><ele>423.0</ele><time>2026-03-22T13:49:11.68Z</time></trkpt><trkpt lat="44.3509214" lon="9.4721585"><ele>423.0</ele><time>2026-03-22T13:49:13.68Z</time></trkpt><trkpt lat="44.3509204" lon="9.4722651"><ele>423.0</ele><time>2026-03-22T13:49:15.68Z</time></trkpt><trkpt lat="44.3510115" lon="9.472364"><ele>423.0</ele><time>2026-03-22T13:49:17.681Z</time></trkpt><trkpt lat="44.3511317" lon="9.472437"><ele>423.0</ele><time>2026-03-22T13:49:18.68Z</time></trkpt><trkpt lat="44.3513124" lon="9.4726304"><ele>422.75</ele><time>2026-03-22T13:49:19.68Z</time></trkpt><trkpt lat="44.3514333" lon="9.4727375"><ele>422.5</ele><time>2026-03-22T13:49:20.68Z</time></trkpt><trkpt lat="44.3515611" lon="9.4728444"><ele>422.25</ele><time>2026-03-22T13:49:21.68Z</time></trkpt><trkpt lat="44.3516782" lon="9.4729355"><ele>422.0</ele><time>2026-03-22T13:49:22.68Z</time></trkpt><trkpt lat="44.3517933" lon="9.4730039"><ele>425.25</ele><time>2026-03-22T13:49:23.68Z</time></trkpt><trkpt lat="44.3519125" lon="9.4730555"><ele>428.5</ele><time>2026-03-22T13:49:24.68Z</time></trkpt><trkpt lat="44.3520478" lon="9.4730823"><ele>431.75</ele><time>2026-03-22T13:49:25.68Z</time></trkpt><trkpt lat="44.3521534" lon="9.4730699"><ele>435.0</ele><time>2026-03-22T13:49:26.68Z</time></trkpt><trkpt lat="44.3522608" lon="9.4730734"><ele>435.0</ele><time>2026-03-22T13:49:27.68Z</time></trkpt><trkpt lat="44.3523646" lon="9.4730894"><ele>435.0</ele><time>2026-03-22T13:49:28.68Z</time></trkpt><trkpt lat="44.3524383" lon="9.4732291"><ele>435.0</ele><time>2026-03-22T13:49:29.68Z</time></trkpt><trkpt lat="44.3525233" lon="9.4732722"><ele>435.0</ele><time>2026-03-22T13:49:30.68Z</time></trkpt><trkpt lat="44.3525832" lon="9.4733317"><ele>435.0</ele><time>2026-03-22T13:49:31.68Z</time></trkpt><trkpt lat="44.3526398" lon="9.4734617"><ele>435.0</ele><time>2026-03-22T13:49:33.68Z</time></trkpt><trkpt lat="44.3525898" lon="9.473584"><ele>435.0</ele><time>2026-03-22T13:49:35.68Z</time></trkpt><trkpt lat="44.3525075" lon="9.4735147"><ele>435.0</ele><time>2026-03-22T13:49:36.68Z</time></trkpt><trkpt lat="44.3524349" lon="9.4733609"><ele>435.0</ele><time>2026-03-22T13:49:37.68Z</time></trkpt><trkpt lat="44.3523743" lon="9.4733067"><ele>435.0</ele><time>2026-03-22T13:49:38.68Z</time></trkpt><trkpt lat="44.3522739" lon="9.4732626"><ele>437.75</ele><time>2026-03-22T13:49:39.68Z</time></trkpt><trkpt lat="44.3521312" lon="9.4732863"><ele>440.5</ele><time>2026-03-22T13:49:40.68Z</time></trkpt><trkpt lat="44.3520122" lon="9.4733072"><ele>443.25</ele><time>2026-03-22T13:49:41.68Z</time></trkpt><trkpt lat="44.3518831" lon="9.4733528"><ele>446.0</ele><time>2026-03-22T13:49:42.68Z</time></trkpt><trkpt lat="44.3517449" lon="9.4734121"><ele>446.0</ele><time>2026-03-22T13:49:43.68Z</time></trkpt><trkpt lat="44.3516189" lon="9.4734313"><ele>446.0</ele><time>2026-03-22T13:49:44.68Z</time></trkpt><trkpt lat="44.3515038" lon="9.473458"><ele>446.0</ele><time>2026-03-22T13:49:45.68Z</time></trkpt><trkpt lat="44.3513898" lon="9.4734388"><ele>446.0</ele><time>2026-03-22T13:49:46.68Z</time></trkpt><trkpt lat="44.3512648" lon="9.4734227"><ele>445.6</ele><time>2026-03-22T13:49:47.681Z</time></trkpt><trkpt lat="44.3511404" lon="9.4734312"><ele>445.20000000000005</ele><time>2026-03-22T13:49:48.68Z</time></trkpt><trkpt lat="44.3510369" lon="9.4734579"><ele>444.79999999999995</ele><time>2026-03-22T13:49:49.68Z</time></trkpt><trkpt lat="44.3509446" lon="9.4735132"><ele>444.4</ele><time>2026-03-22T13:49:50.68Z</time></trkpt><trkpt lat="44.3508398" lon="9.4735774"><ele>444.0</ele><time>2026-03-22T13:49:51.68Z</time></trkpt><trkpt lat="44.3507514" lon="9.473669"><ele>447.0</ele><time>2026-03-22T13:49:52.68Z</time></trkpt><trkpt lat="44.3507868" lon="9.473867"><ele>450.0</ele><time>2026-03-22T13:49:53.68Z</time></trkpt><trkpt lat="44.3507198" lon="9.4739919"><ele>453.0</ele><time>2026-03-22T13:49:54.68Z</time></trkpt><trkpt lat="44.3506592" lon="9.4740817"><ele>456.0</ele><time>2026-03-22T13:49:55.681Z</time></trkpt><trkpt lat="44.350596" lon="9.4741748"><ele>459.0</ele><time>2026-03-22T13:49:56.68Z</time></trkpt><trkpt lat="44.3505167" lon="9.4742444"><ele>459.0</ele><time>2026-03-22T13:49:57.68Z</time></trkpt><trkpt lat="44.350427" lon="9.4743124"><ele>459.0</ele><time>2026-03-22T13:49:58.681Z</time></trkpt><trkpt lat="44.3502956" lon="9.4742795"><ele>459.0</ele><time>2026-03-22T13:49:59.68Z</time></trkpt><trkpt lat="44.3501828" lon="9.4742711"><ele>459.0</ele><time>2026-03-22T13:50:00.68Z</time></trkpt><trkpt lat="44.3500998" lon="9.4743157"><ele>459.0</ele><time>2026-03-22T13:50:01.679Z</time></trkpt><trkpt lat="44.3499899" lon="9.4743858"><ele>459.0</ele><time>2026-03-22T13:50:02.681Z</time></trkpt><trkpt lat="44.3498929" lon="9.4744514"><ele>459.0</ele><time>2026-03-22T13:50:03.68Z</time></trkpt><trkpt lat="44.3498123" lon="9.4745072"><ele>459.0</ele><time>2026-03-22T13:50:04.68Z</time></trkpt><trkpt lat="44.3497347" lon="9.4745694"><ele>459.0</ele><time>2026-03-22T13:50:05.681Z</time></trkpt><trkpt lat="44.3497159" lon="9.4747346"><ele>459.0</ele><time>2026-03-22T13:50:06.68Z</time></trkpt><trkpt lat="44.3496717" lon="9.474904"><ele>459.0</ele><time>2026-03-22T13:50:07.68Z</time></trkpt><trkpt lat="44.3496043" lon="9.4750847"><ele>459.0</ele><time>2026-03-22T13:50:08.68Z</time></trkpt><trkpt lat="44.3494965" lon="9.4752819"><ele>459.0</ele><time>2026-03-22T13:50:09.68Z</time></trkpt><trkpt lat="44.3494075" lon="9.4755099"><ele>463.33333333333337</ele><time>2026-03-22T13:50:10.68Z</time></trkpt><trkpt lat="44.3493178" lon="9.4757041"><ele>467.6666666666667</ele><time>2026-03-22T13:50:11.68Z</time></trkpt><trkpt lat="44.3492321" lon="9.4758767"><ele>472.0</ele><time>2026-03-22T13:50:12.679Z</time></trkpt><trkpt lat="44.3491544" lon="9.4760436"><ele>472.0</ele><time>2026-03-22T13:50:13.679Z</time></trkpt><trkpt lat="44.3490842" lon="9.4761653"><ele>472.0</ele><time>2026-03-22T13:50:14.68Z</time></trkpt><trkpt lat="44.3490362" lon="9.4763351"><ele>472.0</ele><time>2026-03-22T13:50:15.681Z</time></trkpt><trkpt lat="44.3490071" lon="9.4765115"><ele>472.0</ele><time>2026-03-22T13:50:16.681Z</time></trkpt><trkpt lat="44.3489586" lon="9.4766595"><ele>472.0</ele><time>2026-03-22T13:50:17.68Z</time></trkpt><trkpt lat="44.3488957" lon="9.476778"><ele>472.00000000000006</ele><time>2026-03-22T13:50:18.68Z</time></trkpt><trkpt lat="44.3488032" lon="9.4768626"><ele>472.00000000000006</ele><time>2026-03-22T13:50:19.68Z</time></trkpt><trkpt lat="44.3486896" lon="9.4769079"><ele>472.0</ele><time>2026-03-22T13:50:20.68Z</time></trkpt><trkpt lat="44.3485891" lon="9.4769331"><ele>472.0</ele><time>2026-03-22T13:50:21.68Z</time></trkpt><trkpt lat="44.3484924" lon="9.4769697"><ele>472.00000000000006</ele><time>2026-03-22T13:50:22.68Z</time></trkpt><trkpt lat="44.3483975" lon="9.4770032"><ele>472.0</ele><time>2026-03-22T13:50:23.68Z</time></trkpt><trkpt lat="44.3483073" lon="9.4770457"><ele>472.0</ele><time>2026-03-22T13:50:24.68Z</time></trkpt><trkpt lat="44.3482972" lon="9.4771739"><ele>472.0</ele><time>2026-03-22T13:50:25.68Z</time></trkpt><trkpt lat="44.3483211" lon="9.4772861"><ele>472.00000000000006</ele><time>2026-03-22T13:50:26.68Z</time></trkpt><trkpt lat="44.3483694" lon="9.4773677"><ele>472.0</ele><time>2026-03-22T13:50:27.68Z</time></trkpt><trkpt lat="44.3484625" lon="9.477413"><ele>475.75</ele><time>2026-03-22T13:50:28.68Z</time></trkpt><trkpt lat="44.3485462" lon="9.4774474"><ele>479.5</ele><time>2026-03-22T13:50:29.68Z</time></trkpt><trkpt lat="44.348671" lon="9.4774244"><ele>483.25</ele><time>2026-03-22T13:50:30.68Z</time></trkpt><trkpt lat="44.3488256" lon="9.4773694"><ele>487.0</ele><time>2026-03-22T13:50:31.68Z</time></trkpt><trkpt lat="44.3489705" lon="9.477255"><ele>488.0</ele><time>2026-03-22T13:50:32.68Z</time></trkpt><trkpt lat="44.3490969" lon="9.4770619"><ele>489.0</ele><time>2026-03-22T13:50:33.68Z</time></trkpt><trkpt lat="44.3492082" lon="9.4769048"><ele>490.0</ele><time>2026-03-22T13:50:34.68Z</time></trkpt><trkpt lat="44.3493011" lon="9.4767363"><ele>490.0</ele><time>2026-03-22T13:50:35.68Z</time></trkpt><trkpt lat="44.3493979" lon="9.4766091"><ele>490.0</ele><time>2026-03-22T13:50:36.679Z</time></trkpt><trkpt lat="44.3494993" lon="9.4765182"><ele>490.0</ele><time>2026-03-22T13:50:37.68Z</time></trkpt><trkpt lat="44.3496223" lon="9.4764378"><ele>490.0</ele><time>2026-03-22T13:50:38.68Z</time></trkpt><trkpt lat="44.349746" lon="9.4763488"><ele>492.25</ele><time>2026-03-22T13:50:39.68Z</time></trkpt><trkpt lat="44.3498512" lon="9.4762415"><ele>494.5</ele><time>2026-03-22T13:50:40.68Z</time></trkpt><trkpt lat="44.3499503" lon="9.4761102"><ele>496.75</ele><time>2026-03-22T13:50:41.68Z</time></trkpt><trkpt lat="44.3500261" lon="9.4759887"><ele>499.0</ele><time>2026-03-22T13:50:42.68Z</time></trkpt><trkpt lat="44.3500873" lon="9.4758927"><ele>499.0</ele><time>2026-03-22T13:50:43.68Z</time></trkpt><trkpt lat="44.3501537" lon="9.4758228"><ele>499.0</ele><time>2026-03-22T13:50:44.681Z</time></trkpt><trkpt lat="44.3502432" lon="9.4757593"><ele>499.0</ele><time>2026-03-22T13:50:45.68Z</time></trkpt><trkpt lat="44.3503545" lon="9.4757258"><ele>499.0</ele><time>2026-03-22T13:50:46.68Z</time></trkpt><trkpt lat="44.3504552" lon="9.4756869"><ele>499.0</ele><time>2026-03-22T13:50:47.68Z</time></trkpt><trkpt lat="44.3505485" lon="9.4756612"><ele>499.00000000000006</ele><time>2026-03-22T13:50:48.68Z</time></trkpt><trkpt lat="44.3506391" lon="9.4756336"><ele>499.0</ele><time>2026-03-22T13:50:49.68Z</time></trkpt><trkpt lat="44.3506786" lon="9.4757263"><ele>499.0</ele><time>2026-03-22T13:50:50.68Z</time></trkpt><trkpt lat="44.3506565" lon="9.4758466"><ele>499.0</ele><time>2026-03-22T13:50:52.68Z</time></trkpt><trkpt lat="44.3506107" lon="9.4759142"><ele>499.00000000000006</ele><time>2026-03-22T13:50:53.681Z</time></trkpt><trkpt lat="44.3505469" lon="9.4759745"><ele>499.0</ele><time>2026-03-22T13:50:54.68Z</time></trkpt><trkpt lat="44.3504295" lon="9.4760406"><ele>499.0</ele><time>2026-03-22T13:50:55.68Z</time></trkpt><trkpt lat="44.3503412" lon="9.476127"><ele>499.0</ele><time>2026-03-22T13:50:56.68Z</time></trkpt><trkpt lat="44.3502557" lon="9.4762062"><ele>499.0</ele><time>2026-03-22T13:50:57.68Z</time></trkpt><trkpt lat="44.3501913" lon="9.476383"><ele>499.0</ele><time>2026-03-22T13:50:58.68Z</time></trkpt><trkpt lat="44.3501205" lon="9.4765207"><ele>503.25</ele><time>2026-03-22T13:50:59.68Z</time></trkpt><trkpt lat="44.3500319" lon="9.4766641"><ele>507.5</ele><time>2026-03-22T13:51:00.68Z</time></trkpt><trkpt lat="44.3499229" lon="9.476792"><ele>511.75</ele><time>2026-03-22T13:51:01.68Z</time></trkpt><trkpt lat="44.3498226" lon="9.476919"><ele>516.0</ele><time>2026-03-22T13:51:02.68Z</time></trkpt><trkpt lat="44.3497352" lon="9.4770464"><ele>513.75</ele><time>2026-03-22T13:51:03.68Z</time></trkpt><trkpt lat="44.3496595" lon="9.4771683"><ele>511.5</ele><time>2026-03-22T13:51:04.68Z</time></trkpt><trkpt lat="44.3496004" lon="9.4773087"><ele>509.25</ele><time>2026-03-22T13:51:05.68Z</time></trkpt><trkpt lat="44.349549" lon="9.4774591"><ele>507.0</ele><time>2026-03-22T13:51:06.68Z</time></trkpt><trkpt lat="44.3494982" lon="9.4776264"><ele>507.0</ele><time>2026-03-22T13:51:07.68Z</time></trkpt><trkpt lat="44.3494522" lon="9.477792"><ele>507.0</ele><time>2026-03-22T13:51:08.68Z</time></trkpt><trkpt lat="44.3494244" lon="9.477947"><ele>507.0</ele><time>2026-03-22T13:51:09.68Z</time></trkpt><trkpt lat="44.3494152" lon="9.4781265"><ele>507.0</ele><time>2026-03-22T13:51:10.68Z</time></trkpt><trkpt lat="44.3494199" lon="9.4782954"><ele>509.0</ele><time>2026-03-22T13:51:11.68Z</time></trkpt><trkpt lat="44.3494318" lon="9.4784691"><ele>511.0</ele><time>2026-03-22T13:51:12.681Z</time></trkpt><trkpt lat="44.3494308" lon="9.4786449"><ele>513.0</ele><time>2026-03-22T13:51:13.68Z</time></trkpt><trkpt lat="44.3494242" lon="9.4788157"><ele>515.0</ele><time>2026-03-22T13:51:14.68Z</time></trkpt><trkpt lat="44.349397" lon="9.4789966"><ele>517.75</ele><time>2026-03-22T13:51:15.68Z</time></trkpt><trkpt lat="44.349353" lon="9.4791811"><ele>520.5</ele><time>2026-03-22T13:51:16.68Z</time></trkpt><trkpt lat="44.3493039" lon="9.4793582"><ele>523.25</ele><time>2026-03-22T13:51:17.68Z</time></trkpt><trkpt lat="44.3492343" lon="9.4795101"><ele>526.0</ele><time>2026-03-22T13:51:18.68Z</time></trkpt><trkpt lat="44.3491368" lon="9.479657"><ele>528.3333333333334</ele><time>2026-03-22T13:51:19.681Z</time></trkpt><trkpt lat="44.3490179" lon="9.4797977"><ele>530.6666666666666</ele><time>2026-03-22T13:51:20.68Z</time></trkpt><trkpt lat="44.3488989" lon="9.4799274"><ele>533.0</ele><time>2026-03-22T13:51:21.68Z</time></trkpt><trkpt lat="44.3487796" lon="9.4800597"><ele>533.0</ele><time>2026-03-22T13:51:22.68Z</time></trkpt><trkpt lat="44.3486675" lon="9.4801773"><ele>533.0</ele><time>2026-03-22T13:51:23.68Z</time></trkpt><trkpt lat="44.3485399" lon="9.480285"><ele>533.0</ele><time>2026-03-22T13:51:24.68Z</time></trkpt><trkpt lat="44.348402" lon="9.4803833"><ele>533.0</ele><time>2026-03-22T13:51:25.68Z</time></trkpt><trkpt lat="44.3482734" lon="9.4804596"><ele>535.75</ele><time>2026-03-22T13:51:26.682Z</time></trkpt><trkpt lat="44.3481621" lon="9.4805264"><ele>538.5</ele><time>2026-03-22T13:51:27.68Z</time></trkpt><trkpt lat="44.3480438" lon="9.4805815"><ele>541.25</ele><time>2026-03-22T13:51:28.68Z</time></trkpt><trkpt lat="44.3479208" lon="9.4806304"><ele>544.0</ele><time>2026-03-22T13:51:29.68Z</time></trkpt><trkpt lat="44.347808" lon="9.4806633"><ele>544.0</ele><time>2026-03-22T13:51:30.681Z</time></trkpt><trkpt lat="44.3477201" lon="9.4806762"><ele>544.0</ele><time>2026-03-22T13:51:31.68Z</time></trkpt><trkpt lat="44.3476524" lon="9.4806718"><ele>544.0</ele><time>2026-03-22T13:51:32.68Z</time></trkpt><trkpt lat="44.347538" lon="9.4807097"><ele>544.0</ele><time>2026-03-22T13:51:34.68Z</time></trkpt><trkpt lat="44.3475674" lon="9.4808079"><ele>544.0</ele><time>2026-03-22T13:51:35.68Z</time></trkpt><trkpt lat="44.3476439" lon="9.4809027"><ele>544.0</ele><time>2026-03-22T13:51:37.681Z</time></trkpt><trkpt lat="44.3478396" lon="9.4809236"><ele>544.0</ele><time>2026-03-22T13:51:39.68Z</time></trkpt><trkpt lat="44.3480433" lon="9.480915"><ele>544.0</ele><time>2026-03-22T13:51:40.68Z</time></trkpt><trkpt lat="44.348175" lon="9.480926"><ele>546.25</ele><time>2026-03-22T13:51:41.681Z</time></trkpt><trkpt lat="44.3483008" lon="9.4809213"><ele>548.5</ele><time>2026-03-22T13:51:42.68Z</time></trkpt><trkpt lat="44.3484251" lon="9.4808815"><ele>550.75</ele><time>2026-03-22T13:51:43.68Z</time></trkpt><trkpt lat="44.3485547" lon="9.4808204"><ele>553.0</ele><time>2026-03-22T13:51:44.68Z</time></trkpt><trkpt lat="44.3486743" lon="9.4807455"><ele>553.0</ele><time>2026-03-22T13:51:45.68Z</time></trkpt><trkpt lat="44.3487882" lon="9.480665"><ele>553.0</ele><time>2026-03-22T13:51:46.68Z</time></trkpt><trkpt lat="44.3488953" lon="9.4806055"><ele>553.0</ele><time>2026-03-22T13:51:47.68Z</time></trkpt><trkpt lat="44.3489902" lon="9.4805481"><ele>553.0</ele><time>2026-03-22T13:51:48.68Z</time></trkpt><trkpt lat="44.3490641" lon="9.4804886"><ele>553.0</ele><time>2026-03-22T13:51:49.68Z</time></trkpt><trkpt lat="44.349125" lon="9.4804503"><ele>556.1999999999999</ele><time>2026-03-22T13:51:50.681Z</time></trkpt><trkpt lat="44.3492389" lon="9.4804382"><ele>559.4</ele><time>2026-03-22T13:51:52.681Z</time></trkpt><trkpt lat="44.3492503" lon="9.4805568"><ele>562.5999999999999</ele><time>2026-03-22T13:51:54.68Z</time></trkpt><trkpt lat="44.349153" lon="9.4806942"><ele>565.8</ele><time>2026-03-22T13:51:56.68Z</time></trkpt><trkpt lat="44.3490523" lon="9.4807592"><ele>569.0</ele><time>2026-03-22T13:51:57.68Z</time></trkpt><trkpt lat="44.3489674" lon="9.4808477"><ele>569.0</ele><time>2026-03-22T13:51:58.68Z</time></trkpt><trkpt lat="44.3488772" lon="9.4809408"><ele>569.0</ele><time>2026-03-22T13:51:59.679Z</time></trkpt><trkpt lat="44.3487795" lon="9.4810477"><ele>569.0</ele><time>2026-03-22T13:52:00.68Z</time></trkpt><trkpt lat="44.3486715" lon="9.4811556"><ele>569.0</ele><time>2026-03-22T13:52:01.68Z</time></trkpt><trkpt lat="44.3485553" lon="9.4812676"><ele>570.25</ele><time>2026-03-22T13:52:02.68Z</time></trkpt><trkpt lat="44.3484516" lon="9.4813671"><ele>571.5</ele><time>2026-03-22T13:52:03.681Z</time></trkpt><trkpt lat="44.3483583" lon="9.4814727"><ele>572.75</ele><time>2026-03-22T13:52:04.68Z</time></trkpt><trkpt lat="44.3482727" lon="9.4815624"><ele>574.0</ele><time>2026-03-22T13:52:05.68Z</time></trkpt><trkpt lat="44.3481945" lon="9.4816642"><ele>574.0</ele><time>2026-03-22T13:52:06.68Z</time></trkpt><trkpt lat="44.3481065" lon="9.4817479"><ele>574.0</ele><time>2026-03-22T13:52:07.68Z</time></trkpt><trkpt lat="44.348014" lon="9.4818295"><ele>574.0</ele><time>2026-03-22T13:52:08.68Z</time></trkpt><trkpt lat="44.3479158" lon="9.4819168"><ele>574.0</ele><time>2026-03-22T13:52:09.68Z</time></trkpt><trkpt lat="44.3478116" lon="9.4819886"><ele>574.0</ele><time>2026-03-22T13:52:10.68Z</time></trkpt><trkpt lat="44.3477302" lon="9.4820655"><ele>574.5</ele><time>2026-03-22T13:52:11.68Z</time></trkpt><trkpt lat="44.347656" lon="9.4821392"><ele>575.0</ele><time>2026-03-22T13:52:12.681Z</time></trkpt><trkpt lat="44.3475869" lon="9.4821767"><ele>575.5</ele><time>2026-03-22T13:52:13.68Z</time></trkpt><trkpt lat="44.3475196" lon="9.4822036"><ele>576.0</ele><time>2026-03-22T13:52:14.68Z</time></trkpt><trkpt lat="44.347464" lon="9.482324"><ele>576.5</ele><time>2026-03-22T13:52:16.68Z</time></trkpt><trkpt lat="44.3475096" lon="9.4823869"><ele>577.0</ele><time>2026-03-22T13:52:18.68Z</time></trkpt><trkpt lat="44.3475772" lon="9.4823924"><ele>577.0</ele><time>2026-03-22T13:52:19.68Z</time></trkpt><trkpt lat="44.347706" lon="9.48233"><ele>577.0</ele><time>2026-03-22T13:52:20.68Z</time></trkpt><trkpt lat="44.3478053" lon="9.4821709"><ele>577.0</ele><time>2026-03-22T13:52:21.68Z</time></trkpt><trkpt lat="44.3479171" lon="9.4821117"><ele>577.0</ele><time>2026-03-22T13:52:22.68Z</time></trkpt><trkpt lat="44.3480383" lon="9.4820608"><ele>576.25</ele><time>2026-03-22T13:52:23.68Z</time></trkpt><trkpt lat="44.3481657" lon="9.4820254"><ele>575.5</ele><time>2026-03-22T13:52:24.68Z</time></trkpt><trkpt lat="44.348282" lon="9.4819831"><ele>574.75</ele><time>2026-03-22T13:52:25.681Z</time></trkpt><trkpt lat="44.348391" lon="9.4819288"><ele>574.0</ele><time>2026-03-22T13:52:26.68Z</time></trkpt><trkpt lat="44.3484643" lon="9.4818401"><ele>574.0</ele><time>2026-03-22T13:52:27.68Z</time></trkpt><trkpt lat="44.3485547" lon="9.4817805"><ele>574.0</ele><time>2026-03-22T13:52:28.68Z</time></trkpt><trkpt lat="44.3486532" lon="9.481736"><ele>574.0</ele><time>2026-03-22T13:52:29.68Z</time></trkpt><trkpt lat="44.3487567" lon="9.4816819"><ele>574.0</ele><time>2026-03-22T13:52:30.68Z</time></trkpt><trkpt lat="44.3488689" lon="9.4816293"><ele>574.0</ele><time>2026-03-22T13:52:31.68Z</time></trkpt><trkpt lat="44.3489849" lon="9.481579"><ele>578.5</ele><time>2026-03-22T13:52:32.68Z</time></trkpt><trkpt lat="44.3491026" lon="9.4815315"><ele>583.0</ele><time>2026-03-22T13:52:33.68Z</time></trkpt><trkpt lat="44.349222" lon="9.4814936"><ele>587.5</ele><time>2026-03-22T13:52:34.68Z</time></trkpt><trkpt lat="44.3493433" lon="9.4814575"><ele>592.0</ele><time>2026-03-22T13:52:35.68Z</time></trkpt><trkpt lat="44.3494596" lon="9.4814195"><ele>592.0</ele><time>2026-03-22T13:52:36.68Z</time></trkpt><trkpt lat="44.3495694" lon="9.4813847"><ele>592.0</ele><time>2026-03-22T13:52:37.681Z</time></trkpt><trkpt lat="44.3496698" lon="9.4813492"><ele>592.0</ele><time>2026-03-22T13:52:38.68Z</time></trkpt><trkpt lat="44.3497603" lon="9.4813159"><ele>592.0</ele><time>2026-03-22T13:52:39.68Z</time></trkpt><trkpt lat="44.3498424" lon="9.4812884"><ele>592.0</ele><time>2026-03-22T13:52:40.68Z</time></trkpt><trkpt lat="44.3499565" lon="9.4812421"><ele>591.1666666666667</ele><time>2026-03-22T13:52:42.68Z</time></trkpt><trkpt lat="44.3500362" lon="9.4812012"><ele>590.3333333333334</ele><time>2026-03-22T13:52:44.68Z</time></trkpt><trkpt lat="44.3500988" lon="9.481166"><ele>589.5</ele><time>2026-03-22T13:52:47.68Z</time></trkpt><trkpt lat="44.3501351" lon="9.4812542"><ele>588.6666666666666</ele><time>2026-03-22T13:52:50.68Z</time></trkpt><trkpt lat="44.3500157" lon="9.4813257"><ele>587.8333333333333</ele><time>2026-03-22T13:52:53.68Z</time></trkpt><trkpt lat="44.349948" lon="9.4813375"><ele>587.0</ele><time>2026-03-22T13:52:54.68Z</time></trkpt><trkpt lat="44.3498779" lon="9.4813641"><ele>587.8333333333333</ele><time>2026-03-22T13:52:55.68Z</time></trkpt><trkpt lat="44.3497526" lon="9.4814216"><ele>588.6666666666666</ele><time>2026-03-22T13:52:57.68Z</time></trkpt><trkpt lat="44.3496756" lon="9.4814859"><ele>589.5</ele><time>2026-03-22T13:52:59.68Z</time></trkpt><trkpt lat="44.3495669" lon="9.4815803"><ele>590.3333333333334</ele><time>2026-03-22T13:53:01.68Z</time></trkpt><trkpt lat="44.3495251" lon="9.4816544"><ele>591.1666666666667</ele><time>2026-03-22T13:53:06.679Z</time></trkpt><trkpt lat="44.3495343" lon="9.4816591"><ele>592.0</ele><time>2026-03-22T14:02:05.68Z</time></trkpt><trkpt lat="44.3495708" lon="9.4815783"><ele>592.0</ele><time>2026-03-22T14:02:08.68Z</time></trkpt><trkpt lat="44.3496348" lon="9.481521"><ele>592.0</ele><time>2026-03-22T14:02:10.68Z</time></trkpt><trkpt lat="44.3496893" lon="9.4814699"><ele>592.0</ele><time>2026-03-22T14:02:12.68Z</time></trkpt><trkpt lat="44.3497586" lon="9.4814008"><ele>592.0</ele><time>2026-03-22T14:02:15.68Z</time></trkpt><trkpt lat="44.3498281" lon="9.4813807"><ele>592.0</ele><time>2026-03-22T14:02:18.68Z</time></trkpt><trkpt lat="44.349907" lon="9.4813387"><ele>592.0</ele><time>2026-03-22T14:02:22.68Z</time></trkpt><trkpt lat="44.3499746" lon="9.4813245"><ele>591.1666666666667</ele><time>2026-03-22T14:02:25.68Z</time></trkpt><trkpt lat="44.3500381" lon="9.4813053"><ele>590.3333333333334</ele><time>2026-03-22T14:02:28.681Z</time></trkpt><trkpt lat="44.3501061" lon="9.4812758"><ele>589.5</ele><time>2026-03-22T14:02:32.68Z</time></trkpt><trkpt lat="44.3501717" lon="9.4812651"><ele>588.6666666666666</ele><time>2026-03-22T14:02:45.68Z</time></trkpt><trkpt lat="44.3502231" lon="9.4811971"><ele>587.8333333333333</ele><time>2026-03-22T14:03:21.681Z</time></trkpt><trkpt lat="44.3503324" lon="9.4811353"><ele>587.0</ele><time>2026-03-22T14:03:23.68Z</time></trkpt><trkpt lat="44.3503969" lon="9.4810887"><ele>587.0</ele><time>2026-03-22T14:03:24.68Z</time></trkpt><trkpt lat="44.3504646" lon="9.4810379"><ele>587.0</ele><time>2026-03-22T14:03:25.68Z</time></trkpt><trkpt lat="44.3505351" lon="9.4809978"><ele>587.0</ele><time>2026-03-22T14:03:26.68Z</time></trkpt><trkpt lat="44.3505989" lon="9.4809757"><ele>587.0</ele><time>2026-03-22T14:03:27.68Z</time></trkpt><trkpt lat="44.3507079" lon="9.4809754"><ele>587.0</ele><time>2026-03-22T14:03:29.68Z</time></trkpt><trkpt lat="44.3507797" lon="9.480989"><ele>587.0</ele><time>2026-03-22T14:03:30.68Z</time></trkpt><trkpt lat="44.3508623" lon="9.4810062"><ele>589.2</ele><time>2026-03-22T14:03:31.68Z</time></trkpt><trkpt lat="44.3509584" lon="9.4810115"><ele>591.4000000000001</ele><time>2026-03-22T14:03:32.68Z</time></trkpt><trkpt lat="44.3510672" lon="9.4809977"><ele>593.5999999999999</ele><time>2026-03-22T14:03:33.68Z</time></trkpt><trkpt lat="44.3511709" lon="9.4809774"><ele>595.8</ele><time>2026-03-22T14:03:34.68Z</time></trkpt><trkpt lat="44.3512676" lon="9.4809546"><ele>598.0</ele><time>2026-03-22T14:03:35.68Z</time></trkpt><trkpt lat="44.3513548" lon="9.4809461"><ele>596.8</ele><time>2026-03-22T14:03:36.68Z</time></trkpt><trkpt lat="44.3514372" lon="9.4809605"><ele>595.5999999999999</ele><time>2026-03-22T14:03:37.68Z</time></trkpt><trkpt lat="44.3515165" lon="9.4809931"><ele>594.4000000000001</ele><time>2026-03-22T14:03:38.68Z</time></trkpt><trkpt lat="44.3515994" lon="9.4810367"><ele>593.2</ele><time>2026-03-22T14:03:39.68Z</time></trkpt><trkpt lat="44.3516898" lon="9.4810901"><ele>592.0</ele><time>2026-03-22T14:03:40.68Z</time></trkpt><trkpt lat="44.351784" lon="9.481148"><ele>592.0</ele><time>2026-03-22T14:03:41.68Z</time></trkpt><trkpt lat="44.3518744" lon="9.4812222"><ele>592.0</ele><time>2026-03-22T14:03:42.68Z</time></trkpt><trkpt lat="44.3519764" lon="9.4813251"><ele>592.0</ele><time>2026-03-22T14:03:43.68Z</time></trkpt><trkpt lat="44.3520807" lon="9.4814492"><ele>592.0</ele><time>2026-03-22T14:03:44.681Z</time></trkpt><trkpt lat="44.3521715" lon="9.4815538"><ele>593.8000000000001</ele><time>2026-03-22T14:03:45.68Z</time></trkpt><trkpt lat="44.3522571" lon="9.4816535"><ele>595.6</ele><time>2026-03-22T14:03:46.681Z</time></trkpt><trkpt lat="44.3523402" lon="9.481744"><ele>597.4000000000001</ele><time>2026-03-22T14:03:47.681Z</time></trkpt><trkpt lat="44.352403" lon="9.481827"><ele>599.2</ele><time>2026-03-22T14:03:48.68Z</time></trkpt><trkpt lat="44.3524596" lon="9.4819275"><ele>601.0</ele><time>2026-03-22T14:03:49.68Z</time></trkpt><trkpt lat="44.3524984" lon="9.4820174"><ele>601.0</ele><time>2026-03-22T14:03:50.68Z</time></trkpt><trkpt lat="44.3525511" lon="9.4820793"><ele>601.0</ele><time>2026-03-22T14:03:51.68Z</time></trkpt><trkpt lat="44.352657" lon="9.4821219"><ele>601.0</ele><time>2026-03-22T14:03:53.68Z</time></trkpt><trkpt lat="44.3527207" lon="9.4821105"><ele>601.0</ele><time>2026-03-22T14:03:54.68Z</time></trkpt><trkpt lat="44.3527916" lon="9.4820794"><ele>601.0</ele><time>2026-03-22T14:03:55.68Z</time></trkpt><trkpt lat="44.352856" lon="9.4820227"><ele>601.0</ele><time>2026-03-22T14:03:56.68Z</time></trkpt><trkpt lat="44.3529137" lon="9.4819478"><ele>601.0</ele><time>2026-03-22T14:03:57.68Z</time></trkpt><trkpt lat="44.3529743" lon="9.4818774"><ele>601.0</ele><time>2026-03-22T14:03:58.681Z</time></trkpt><trkpt lat="44.352974" lon="9.4817548"><ele>601.0</ele><time>2026-03-22T14:03:59.68Z</time></trkpt><trkpt lat="44.3529922" lon="9.4816486"><ele>601.0</ele><time>2026-03-22T14:04:00.68Z</time></trkpt><trkpt lat="44.3529921" lon="9.4815499"><ele>601.0</ele><time>2026-03-22T14:04:01.681Z</time></trkpt><trkpt lat="44.3530148" lon="9.4813637"><ele>601.0</ele><time>2026-03-22T14:04:03.68Z</time></trkpt><trkpt lat="44.3531167" lon="9.4812656"><ele>601.0</ele><time>2026-03-22T14:04:05.68Z</time></trkpt><trkpt lat="44.3531916" lon="9.4812373"><ele>601.0</ele><time>2026-03-22T14:04:06.68Z</time></trkpt><trkpt lat="44.3532671" lon="9.4812444"><ele>601.0</ele><time>2026-03-22T14:04:07.68Z</time></trkpt><trkpt lat="44.3533505" lon="9.4812767"><ele>601.0</ele><time>2026-03-22T14:04:08.681Z</time></trkpt><trkpt lat="44.3534252" lon="9.4813195"><ele>601.0</ele><time>2026-03-22T14:04:09.681Z</time></trkpt><trkpt lat="44.353501" lon="9.4813761"><ele>603.3333333333334</ele><time>2026-03-22T14:04:10.68Z</time></trkpt><trkpt lat="44.353571" lon="9.4814452"><ele>605.6666666666667</ele><time>2026-03-22T14:04:11.68Z</time></trkpt><trkpt lat="44.3536268" lon="9.4815176"><ele>608.0</ele><time>2026-03-22T14:04:12.68Z</time></trkpt><trkpt lat="44.3536929" lon="9.481574"><ele>610.3333333333334</ele><time>2026-03-22T14:04:13.68Z</time></trkpt><trkpt lat="44.3537665" lon="9.4815873"><ele>612.6666666666666</ele><time>2026-03-22T14:04:14.68Z</time></trkpt><trkpt lat="44.3538406" lon="9.4815704"><ele>615.0</ele><time>2026-03-22T14:04:15.68Z</time></trkpt><trkpt lat="44.3539121" lon="9.4815467"><ele>614.4</ele><time>2026-03-22T14:04:16.68Z</time></trkpt><trkpt lat="44.3539923" lon="9.4814876"><ele>613.8</ele><time>2026-03-22T14:04:17.68Z</time></trkpt><trkpt lat="44.3540781" lon="9.4813945"><ele>613.2</ele><time>2026-03-22T14:04:18.68Z</time></trkpt><trkpt lat="44.3541776" lon="9.481284"><ele>612.6</ele><time>2026-03-22T14:04:19.681Z</time></trkpt><trkpt lat="44.3542624" lon="9.4811798"><ele>612.0</ele><time>2026-03-22T14:04:20.68Z</time></trkpt><trkpt lat="44.3543392" lon="9.481092"><ele>612.0</ele><time>2026-03-22T14:04:21.68Z</time></trkpt><trkpt lat="44.3544031" lon="9.4810153"><ele>612.0</ele><time>2026-03-22T14:04:22.68Z</time></trkpt><trkpt lat="44.3544561" lon="9.480949"><ele>612.0</ele><time>2026-03-22T14:04:23.68Z</time></trkpt><trkpt lat="44.3545298" lon="9.4808455"><ele>612.0</ele><time>2026-03-22T14:04:25.68Z</time></trkpt><trkpt lat="44.3546053" lon="9.4808176"><ele>612.0</ele><time>2026-03-22T14:04:27.68Z</time></trkpt><trkpt lat="44.3546376" lon="9.480916"><ele>612.0</ele><time>2026-03-22T14:04:29.68Z</time></trkpt><trkpt lat="44.3545994" lon="9.480989"><ele>612.0</ele><time>2026-03-22T14:04:30.68Z</time></trkpt><trkpt lat="44.3545493" lon="9.4810689"><ele>612.0</ele><time>2026-03-22T14:04:31.68Z</time></trkpt><trkpt lat="44.3544895" lon="9.4811393"><ele>612.0</ele><time>2026-03-22T14:04:32.68Z</time></trkpt><trkpt lat="44.3544163" lon="9.481219"><ele>612.0</ele><time>2026-03-22T14:04:33.681Z</time></trkpt><trkpt lat="44.3543307" lon="9.4813291"><ele>612.0</ele><time>2026-03-22T14:04:34.68Z</time></trkpt><trkpt lat="44.3542582" lon="9.4814538"><ele>616.2</ele><time>2026-03-22T14:04:35.68Z</time></trkpt><trkpt lat="44.3541889" lon="9.4815779"><ele>620.4000000000001</ele><time>2026-03-22T14:04:36.68Z</time></trkpt><trkpt lat="44.3541299" lon="9.4816984"><ele>624.5999999999999</ele><time>2026-03-22T14:04:37.68Z</time></trkpt><trkpt lat="44.3540848" lon="9.4818198"><ele>628.8</ele><time>2026-03-22T14:04:38.68Z</time></trkpt><trkpt lat="44.3540365" lon="9.4819395"><ele>633.0</ele><time>2026-03-22T14:04:39.68Z</time></trkpt><trkpt lat="44.3540294" lon="9.4820803"><ele>632.6</ele><time>2026-03-22T14:04:40.68Z</time></trkpt><trkpt lat="44.354002" lon="9.4822041"><ele>632.1999999999999</ele><time>2026-03-22T14:04:41.68Z</time></trkpt><trkpt lat="44.3539731" lon="9.4823304"><ele>631.8</ele><time>2026-03-22T14:04:42.68Z</time></trkpt><trkpt lat="44.3539025" lon="9.4824246"><ele>631.4</ele><time>2026-03-22T14:04:43.68Z</time></trkpt><trkpt lat="44.3538252" lon="9.4825162"><ele>631.0</ele><time>2026-03-22T14:04:44.68Z</time></trkpt><trkpt lat="44.3537384" lon="9.48258"><ele>631.0</ele><time>2026-03-22T14:04:45.68Z</time></trkpt><trkpt lat="44.3536611" lon="9.4826637"><ele>631.0</ele><time>2026-03-22T14:04:46.68Z</time></trkpt><trkpt lat="44.3536019" lon="9.4827465"><ele>631.0</ele><time>2026-03-22T14:04:47.68Z</time></trkpt><trkpt lat="44.3535387" lon="9.4828031"><ele>631.0</ele><time>2026-03-22T14:04:48.68Z</time></trkpt><trkpt lat="44.3535663" lon="9.4829116"><ele>631.0</ele><time>2026-03-22T14:04:51.68Z</time></trkpt><trkpt lat="44.353681" lon="9.4829335"><ele>631.0</ele><time>2026-03-22T14:04:53.681Z</time></trkpt><trkpt lat="44.3537916" lon="9.4828707"><ele>631.0</ele><time>2026-03-22T14:04:54.681Z</time></trkpt><trkpt lat="44.3538792" lon="9.4828303"><ele>631.0</ele><time>2026-03-22T14:04:55.68Z</time></trkpt><trkpt lat="44.3539593" lon="9.4827063"><ele>631.0</ele><time>2026-03-22T14:04:56.68Z</time></trkpt><trkpt lat="44.3540537" lon="9.4826147"><ele>631.0</ele><time>2026-03-22T14:04:57.68Z</time></trkpt><trkpt lat="44.3541484" lon="9.4825119"><ele>631.4</ele><time>2026-03-22T14:04:58.68Z</time></trkpt><trkpt lat="44.3542436" lon="9.4824067"><ele>631.8</ele><time>2026-03-22T14:04:59.68Z</time></trkpt><trkpt lat="44.3543338" lon="9.4823045"><ele>632.1999999999999</ele><time>2026-03-22T14:05:00.68Z</time></trkpt><trkpt lat="44.3544085" lon="9.4821945"><ele>632.6</ele><time>2026-03-22T14:05:01.68Z</time></trkpt><trkpt lat="44.3544813" lon="9.4820999"><ele>633.0</ele><time>2026-03-22T14:05:02.68Z</time></trkpt><trkpt lat="44.3545555" lon="9.4820371"><ele>633.0</ele><time>2026-03-22T14:05:03.68Z</time></trkpt><trkpt lat="44.3546435" lon="9.4819883"><ele>633.0</ele><time>2026-03-22T14:05:04.68Z</time></trkpt><trkpt lat="44.3547143" lon="9.4819884"><ele>633.0</ele><time>2026-03-22T14:05:05.68Z</time></trkpt><trkpt lat="44.3547952" lon="9.4819785"><ele>633.0</ele><time>2026-03-22T14:05:06.68Z</time></trkpt><trkpt lat="44.3549486" lon="9.4820932"><ele>633.0</ele><time>2026-03-22T14:05:08.681Z</time></trkpt><trkpt lat="44.3550448" lon="9.4821131"><ele>639.4</ele><time>2026-03-22T14:05:09.68Z</time></trkpt><trkpt lat="44.3551448" lon="9.4821479"><ele>645.8</ele><time>2026-03-22T14:05:10.68Z</time></trkpt><trkpt lat="44.3552504" lon="9.4821994"><ele>652.2</ele><time>2026-03-22T14:05:11.68Z</time></trkpt><trkpt lat="44.3553423" lon="9.4822159"><ele>658.6</ele><time>2026-03-22T14:05:12.68Z</time></trkpt><trkpt lat="44.3554537" lon="9.4823057"><ele>665.0</ele><time>2026-03-22T14:05:13.681Z</time></trkpt><trkpt lat="44.3555603" lon="9.4823835"><ele>665.0</ele><time>2026-03-22T14:05:14.68Z</time></trkpt><trkpt lat="44.3556714" lon="9.4824418"><ele>665.0</ele><time>2026-03-22T14:05:15.68Z</time></trkpt><trkpt lat="44.3557412" lon="9.4825098"><ele>665.0</ele><time>2026-03-22T14:05:16.68Z</time></trkpt><trkpt lat="44.3557869" lon="9.4825912"><ele>665.0</ele><time>2026-03-22T14:05:17.68Z</time></trkpt><trkpt lat="44.3558457" lon="9.4826584"><ele>665.0</ele><time>2026-03-22T14:05:18.68Z</time></trkpt><trkpt lat="44.3558604" lon="9.4827555"><ele>665.0</ele><time>2026-03-22T14:05:19.681Z</time></trkpt><trkpt lat="44.355855" lon="9.4828646"><ele>667.2</ele><time>2026-03-22T14:05:20.68Z</time></trkpt><trkpt lat="44.3558196" lon="9.4829696"><ele>669.4</ele><time>2026-03-22T14:05:21.68Z</time></trkpt><trkpt lat="44.355788" lon="9.4830483"><ele>671.5999999999999</ele><time>2026-03-22T14:05:22.68Z</time></trkpt><trkpt lat="44.3557806" lon="9.4831966"><ele>673.8</ele><time>2026-03-22T14:05:24.68Z</time></trkpt><trkpt lat="44.3558071" lon="9.4833201"><ele>676.0</ele><time>2026-03-22T14:05:26.68Z</time></trkpt><trkpt lat="44.3558833" lon="9.4834611"><ele>676.0</ele><time>2026-03-22T14:05:28.68Z</time></trkpt><trkpt lat="44.3559248" lon="9.4835419"><ele>676.0</ele><time>2026-03-22T14:05:29.68Z</time></trkpt><trkpt lat="44.3559526" lon="9.483627"><ele>676.0</ele><time>2026-03-22T14:05:30.681Z</time></trkpt><trkpt lat="44.3559626" lon="9.4837476"><ele>676.0</ele><time>2026-03-22T14:05:32.68Z</time></trkpt><trkpt lat="44.3559023" lon="9.4838411"><ele>676.0</ele><time>2026-03-22T14:05:35.681Z</time></trkpt><trkpt lat="44.3558085" lon="9.4838184"><ele>676.0</ele><time>2026-03-22T14:05:37.68Z</time></trkpt><trkpt lat="44.3557455" lon="9.4837876"><ele>676.0</ele><time>2026-03-22T14:05:38.68Z</time></trkpt><trkpt lat="44.3556735" lon="9.4837474"><ele>676.0</ele><time>2026-03-22T14:05:39.68Z</time></trkpt><trkpt lat="44.355583" lon="9.483708"><ele>676.0</ele><time>2026-03-22T14:05:40.68Z</time></trkpt><trkpt lat="44.3555014" lon="9.4836774"><ele>676.0</ele><time>2026-03-22T14:05:41.68Z</time></trkpt><trkpt lat="44.3553767" lon="9.4836311"><ele>676.0</ele><time>2026-03-22T14:05:43.68Z</time></trkpt><trkpt lat="44.3553131" lon="9.4836031"><ele>677.8</ele><time>2026-03-22T14:05:44.68Z</time></trkpt><trkpt lat="44.3551992" lon="9.4836532"><ele>679.5999999999999</ele><time>2026-03-22T14:05:46.68Z</time></trkpt><trkpt lat="44.3551383" lon="9.4837576"><ele>681.4</ele><time>2026-03-22T14:05:47.68Z</time></trkpt><trkpt lat="44.3550831" lon="9.4838159"><ele>683.2</ele><time>2026-03-22T14:05:48.68Z</time></trkpt><trkpt lat="44.355023" lon="9.4839204"><ele>685.0</ele><time>2026-03-22T14:05:49.68Z</time></trkpt><trkpt lat="44.3549649" lon="9.4840327"><ele>687.0</ele><time>2026-03-22T14:05:50.681Z</time></trkpt><trkpt lat="44.3549135" lon="9.4841504"><ele>689.0</ele><time>2026-03-22T14:05:51.68Z</time></trkpt><trkpt lat="44.3548773" lon="9.4842451"><ele>691.0</ele><time>2026-03-22T14:05:52.68Z</time></trkpt><trkpt lat="44.3548586" lon="9.4843562"><ele>693.0</ele><time>2026-03-22T14:05:53.68Z</time></trkpt><trkpt lat="44.354818" lon="9.4844777"><ele>695.0</ele><time>2026-03-22T14:05:54.68Z</time></trkpt><trkpt lat="44.3548117" lon="9.4846067"><ele>697.0</ele><time>2026-03-22T14:05:55.681Z</time></trkpt><trkpt lat="44.3548132" lon="9.484757"><ele>696.5</ele><time>2026-03-22T14:05:56.68Z</time></trkpt><trkpt lat="44.3547937" lon="9.48486"><ele>696.0</ele><time>2026-03-22T14:05:57.68Z</time></trkpt><trkpt lat="44.3547921" lon="9.484962"><ele>695.5</ele><time>2026-03-22T14:05:58.68Z</time></trkpt><trkpt lat="44.3547471" lon="9.4850798"><ele>695.0</ele><time>2026-03-22T14:06:00.68Z</time></trkpt><trkpt lat="44.3546665" lon="9.485165"><ele>694.5</ele><time>2026-03-22T14:06:02.68Z</time></trkpt><trkpt lat="44.3545821" lon="9.4851988"><ele>694.0</ele><time>2026-03-22T14:06:04.681Z</time></trkpt><trkpt lat="44.3545117" lon="9.4852215"><ele>694.0</ele><time>2026-03-22T14:06:05.68Z</time></trkpt><trkpt lat="44.3544371" lon="9.4852424"><ele>694.0</ele><time>2026-03-22T14:06:06.68Z</time></trkpt><trkpt lat="44.354353" lon="9.4852226"><ele>694.0</ele><time>2026-03-22T14:06:08.681Z</time></trkpt><trkpt lat="44.3542818" lon="9.4852391"><ele>694.0</ele><time>2026-03-22T14:06:10.681Z</time></trkpt><trkpt lat="44.3541838" lon="9.4852504"><ele>694.0</ele><time>2026-03-22T14:06:12.681Z</time></trkpt><trkpt lat="44.3541516" lon="9.4853526"><ele>694.0</ele><time>2026-03-22T14:06:15.68Z</time></trkpt><trkpt lat="44.3542009" lon="9.4854166"><ele>696.6666666666667</ele><time>2026-03-22T14:06:17.68Z</time></trkpt><trkpt lat="44.354281" lon="9.4854686"><ele>699.3333333333334</ele><time>2026-03-22T14:06:19.68Z</time></trkpt><trkpt lat="44.3543449" lon="9.4855269"><ele>702.0</ele><time>2026-03-22T14:06:21.68Z</time></trkpt><trkpt lat="44.3544319" lon="9.4855725"><ele>704.6666666666666</ele><time>2026-03-22T14:06:23.68Z</time></trkpt><trkpt lat="44.3545196" lon="9.4856147"><ele>707.3333333333333</ele><time>2026-03-22T14:06:25.681Z</time></trkpt><trkpt lat="44.3546101" lon="9.4856465"><ele>710.0</ele><time>2026-03-22T14:06:29.68Z</time></trkpt><trkpt lat="44.3546903" lon="9.4856433"><ele>710.8333333333333</ele><time>2026-03-22T14:06:31.68Z</time></trkpt><trkpt lat="44.3547543" lon="9.4857074"><ele>711.6666666666666</ele><time>2026-03-22T14:06:32.68Z</time></trkpt><trkpt lat="44.35483" lon="9.4857759"><ele>712.5</ele><time>2026-03-22T14:06:33.68Z</time></trkpt><trkpt lat="44.3548867" lon="9.4858307"><ele>713.3333333333334</ele><time>2026-03-22T14:06:34.68Z</time></trkpt><trkpt lat="44.3549587" lon="9.485873"><ele>714.1666666666667</ele><time>2026-03-22T14:06:35.68Z</time></trkpt><trkpt lat="44.354966" lon="9.4860113"><ele>715.0</ele><time>2026-03-22T14:06:36.681Z</time></trkpt><trkpt lat="44.3549697" lon="9.4861439"><ele>715.0</ele><time>2026-03-22T14:06:37.68Z</time></trkpt><trkpt lat="44.3549781" lon="9.486252"><ele>715.0</ele><time>2026-03-22T14:06:38.68Z</time></trkpt><trkpt lat="44.3549951" lon="9.4863389"><ele>715.0</ele><time>2026-03-22T14:06:39.68Z</time></trkpt><trkpt lat="44.3550497" lon="9.486439"><ele>715.0</ele><time>2026-03-22T14:06:41.68Z</time></trkpt><trkpt lat="44.355133" lon="9.4864407"><ele>715.0</ele><time>2026-03-22T14:06:43.68Z</time></trkpt><trkpt lat="44.3552235" lon="9.4864034"><ele>715.0</ele><time>2026-03-22T14:06:45.68Z</time></trkpt><trkpt lat="44.3553015" lon="9.4863375"><ele>716.6</ele><time>2026-03-22T14:06:46.68Z</time></trkpt><trkpt lat="44.3553917" lon="9.4862804"><ele>718.2</ele><time>2026-03-22T14:06:47.68Z</time></trkpt><trkpt lat="44.3555112" lon="9.4862636"><ele>719.8</ele><time>2026-03-22T14:06:48.68Z</time></trkpt><trkpt lat="44.355619" lon="9.4862441"><ele>721.4</ele><time>2026-03-22T14:06:49.681Z</time></trkpt><trkpt lat="44.355708" lon="9.4862371"><ele>723.0</ele><time>2026-03-22T14:06:50.68Z</time></trkpt><trkpt lat="44.3557855" lon="9.4862114"><ele>723.0</ele><time>2026-03-22T14:06:51.68Z</time></trkpt><trkpt lat="44.3558544" lon="9.486183"><ele>723.0</ele><time>2026-03-22T14:06:52.68Z</time></trkpt><trkpt lat="44.3559242" lon="9.486144"><ele>723.0</ele><time>2026-03-22T14:06:53.68Z</time></trkpt><trkpt lat="44.3560043" lon="9.4861662"><ele>723.0</ele><time>2026-03-22T14:06:54.68Z</time></trkpt><trkpt lat="44.3560798" lon="9.486232"><ele>723.0</ele><time>2026-03-22T14:06:55.68Z</time></trkpt><trkpt lat="44.3561529" lon="9.4863269"><ele>723.0</ele><time>2026-03-22T14:06:56.68Z</time></trkpt><trkpt lat="44.3562242" lon="9.486418"><ele>725.1666666666666</ele><time>2026-03-22T14:06:57.68Z</time></trkpt><trkpt lat="44.3562876" lon="9.4865284"><ele>727.3333333333334</ele><time>2026-03-22T14:06:58.68Z</time></trkpt><trkpt lat="44.3563457" lon="9.4866232"><ele>729.5</ele><time>2026-03-22T14:06:59.68Z</time></trkpt><trkpt lat="44.3564065" lon="9.486706"><ele>731.6666666666667</ele><time>2026-03-22T14:07:00.681Z</time></trkpt><trkpt lat="44.3564723" lon="9.4867803"><ele>733.8333333333334</ele><time>2026-03-22T14:07:01.68Z</time></trkpt><trkpt lat="44.3565383" lon="9.486816"><ele>736.0</ele><time>2026-03-22T14:07:02.68Z</time></trkpt><trkpt lat="44.3566627" lon="9.4868564"><ele>737.0</ele><time>2026-03-22T14:07:04.68Z</time></trkpt><trkpt lat="44.3567285" lon="9.4868641"><ele>738.0</ele><time>2026-03-22T14:07:05.68Z</time></trkpt><trkpt lat="44.3567917" lon="9.486858"><ele>739.0</ele><time>2026-03-22T14:07:06.68Z</time></trkpt><trkpt lat="44.3568535" lon="9.4868337"><ele>740.0</ele><time>2026-03-22T14:07:07.68Z</time></trkpt><trkpt lat="44.3569265" lon="9.4868078"><ele>741.0</ele><time>2026-03-22T14:07:08.681Z</time></trkpt><trkpt lat="44.3569998" lon="9.4867544"><ele>742.0</ele><time>2026-03-22T14:07:09.68Z</time></trkpt><trkpt lat="44.3570761" lon="9.4866612"><ele>742.0</ele><time>2026-03-22T14:07:10.68Z</time></trkpt><trkpt lat="44.3571627" lon="9.4865958"><ele>742.0</ele><time>2026-03-22T14:07:11.68Z</time></trkpt><trkpt lat="44.3572507" lon="9.4865386"><ele>742.0</ele><time>2026-03-22T14:07:12.68Z</time></trkpt><trkpt lat="44.3573479" lon="9.4865118"><ele>742.0</ele><time>2026-03-22T14:07:13.68Z</time></trkpt><trkpt lat="44.3574516" lon="9.4865067"><ele>742.0</ele><time>2026-03-22T14:07:14.68Z</time></trkpt><trkpt lat="44.3575613" lon="9.4865239"><ele>743.6666666666667</ele><time>2026-03-22T14:07:15.68Z</time></trkpt><trkpt lat="44.3576568" lon="9.4865355"><ele>745.3333333333334</ele><time>2026-03-22T14:07:16.68Z</time></trkpt><trkpt lat="44.3577395" lon="9.4865674"><ele>747.0</ele><time>2026-03-22T14:07:17.681Z</time></trkpt><trkpt lat="44.3578151" lon="9.4866033"><ele>748.6666666666666</ele><time>2026-03-22T14:07:18.681Z</time></trkpt><trkpt lat="44.3578838" lon="9.4866559"><ele>750.3333333333333</ele><time>2026-03-22T14:07:19.68Z</time></trkpt><trkpt lat="44.3579571" lon="9.4867384"><ele>752.0</ele><time>2026-03-22T14:07:20.68Z</time></trkpt><trkpt lat="44.3580498" lon="9.4868049"><ele>753.0</ele><time>2026-03-22T14:07:21.68Z</time></trkpt><trkpt lat="44.3581344" lon="9.4868441"><ele>754.0</ele><time>2026-03-22T14:07:22.68Z</time></trkpt><trkpt lat="44.3582257" lon="9.4868576"><ele>755.0</ele><time>2026-03-22T14:07:23.68Z</time></trkpt><trkpt lat="44.3583262" lon="9.4868683"><ele>756.0</ele><time>2026-03-22T14:07:24.68Z</time></trkpt><trkpt lat="44.3584234" lon="9.4868709"><ele>757.0</ele><time>2026-03-22T14:07:25.68Z</time></trkpt><trkpt lat="44.3585219" lon="9.4868432"><ele>757.0</ele><time>2026-03-22T14:07:26.68Z</time></trkpt><trkpt lat="44.3586085" lon="9.4868217"><ele>757.0</ele><time>2026-03-22T14:07:27.68Z</time></trkpt><trkpt lat="44.3586716" lon="9.4868076"><ele>757.0</ele><time>2026-03-22T14:07:28.68Z</time></trkpt><trkpt lat="44.3587345" lon="9.4868273"><ele>757.0</ele><time>2026-03-22T14:07:29.68Z</time></trkpt><trkpt lat="44.358786" lon="9.4868794"><ele>757.0</ele><time>2026-03-22T14:07:30.68Z</time></trkpt><trkpt lat="44.3588239" lon="9.4869554"><ele>757.0</ele><time>2026-03-22T14:07:31.68Z</time></trkpt><trkpt lat="44.3588698" lon="9.4870392"><ele>757.0</ele><time>2026-03-22T14:07:32.68Z</time></trkpt><trkpt lat="44.3589245" lon="9.4870941"><ele>762.2</ele><time>2026-03-22T14:07:33.68Z</time></trkpt><trkpt lat="44.3590151" lon="9.4871556"><ele>767.4000000000001</ele><time>2026-03-22T14:07:35.68Z</time></trkpt><trkpt lat="44.3591622" lon="9.4871859"><ele>772.5999999999999</ele><time>2026-03-22T14:07:37.68Z</time></trkpt><trkpt lat="44.3592391" lon="9.4872144"><ele>777.8</ele><time>2026-03-22T14:07:38.68Z</time></trkpt><trkpt lat="44.359303" lon="9.4872423"><ele>783.0</ele><time>2026-03-22T14:07:39.68Z</time></trkpt><trkpt lat="44.3594169" lon="9.4872395"><ele>783.0</ele><time>2026-03-22T14:07:41.68Z</time></trkpt><trkpt lat="44.3594803" lon="9.4871982"><ele>783.0</ele><time>2026-03-22T14:07:42.68Z</time></trkpt><trkpt lat="44.359589" lon="9.4870912"><ele>783.0</ele><time>2026-03-22T14:07:44.68Z</time></trkpt><trkpt lat="44.3595938" lon="9.4869965"><ele>783.0</ele><time>2026-03-22T14:07:45.68Z</time></trkpt><trkpt lat="44.3596279" lon="9.4868799"><ele>783.0</ele><time>2026-03-22T14:07:47.68Z</time></trkpt><trkpt lat="44.3596496" lon="9.4867868"><ele>783.0</ele><time>2026-03-22T14:07:49.68Z</time></trkpt><trkpt lat="44.3597087" lon="9.4866949"><ele>785.2</ele><time>2026-03-22T14:07:52.68Z</time></trkpt><trkpt lat="44.3597511" lon="9.4867797"><ele>787.4</ele><time>2026-03-22T14:07:54.684Z</time></trkpt><trkpt lat="44.3597941" lon="9.4869336"><ele>789.6</ele><time>2026-03-22T14:07:56.68Z</time></trkpt><trkpt lat="44.3597808" lon="9.4871034"><ele>791.8000000000001</ele><time>2026-03-22T14:07:58.68Z</time></trkpt><trkpt lat="44.3597623" lon="9.4871953"><ele>794.0</ele><time>2026-03-22T14:07:59.68Z</time></trkpt><trkpt lat="44.3597326" lon="9.4873179"><ele>796.0</ele><time>2026-03-22T14:08:00.68Z</time></trkpt><trkpt lat="44.3597069" lon="9.4874635"><ele>798.0</ele><time>2026-03-22T14:08:01.68Z</time></trkpt><trkpt lat="44.3596764" lon="9.4876106"><ele>800.0</ele><time>2026-03-22T14:08:02.68Z</time></trkpt><trkpt lat="44.3596469" lon="9.4876919"><ele>802.0</ele><time>2026-03-22T14:08:03.68Z</time></trkpt><trkpt lat="44.3596172" lon="9.4877732"><ele>804.0</ele><time>2026-03-22T14:08:04.68Z</time></trkpt><trkpt lat="44.3595137" lon="9.4878185"><ele>799.8000000000001</ele><time>2026-03-22T14:08:06.68Z</time></trkpt><trkpt lat="44.3593812" lon="9.4877361"><ele>795.6</ele><time>2026-03-22T14:08:08.68Z</time></trkpt><trkpt lat="44.3593011" lon="9.4876914"><ele>791.4</ele><time>2026-03-22T14:08:09.68Z</time></trkpt><trkpt lat="44.3592242" lon="9.4876583"><ele>787.2</ele><time>2026-03-22T14:08:10.68Z</time></trkpt><trkpt lat="44.3591569" lon="9.4876922"><ele>783.0</ele><time>2026-03-22T14:08:11.68Z</time></trkpt><trkpt lat="44.3590889" lon="9.4877234"><ele>783.0</ele><time>2026-03-22T14:08:12.68Z</time></trkpt><trkpt lat="44.3589937" lon="9.4877892"><ele>783.0</ele><time>2026-03-22T14:08:13.68Z</time></trkpt><trkpt lat="44.3588838" lon="9.4878919"><ele>783.0</ele><time>2026-03-22T14:08:14.68Z</time></trkpt><trkpt lat="44.3587961" lon="9.4879895"><ele>783.0</ele><time>2026-03-22T14:08:15.68Z</time></trkpt><trkpt lat="44.3587193" lon="9.4880691"><ele>783.0</ele><time>2026-03-22T14:08:16.68Z</time></trkpt><trkpt lat="44.3586656" lon="9.488126"><ele>785.6666666666666</ele><time>2026-03-22T14:08:17.681Z</time></trkpt><trkpt lat="44.3585619" lon="9.4882086"><ele>788.3333333333333</ele><time>2026-03-22T14:08:19.68Z</time></trkpt><trkpt lat="44.3584998" lon="9.4882472"><ele>791.0</ele><time>2026-03-22T14:08:20.68Z</time></trkpt><trkpt lat="44.3584279" lon="9.4882718"><ele>793.6666666666666</ele><time>2026-03-22T14:08:21.68Z</time></trkpt><trkpt lat="44.3583555" lon="9.4883002"><ele>796.3333333333333</ele><time>2026-03-22T14:08:22.68Z</time></trkpt><trkpt lat="44.3582963" lon="9.4883563"><ele>799.0</ele><time>2026-03-22T14:08:23.68Z</time></trkpt><trkpt lat="44.358228" lon="9.4883881"><ele>798.9999999999999</ele><time>2026-03-22T14:08:24.68Z</time></trkpt><trkpt lat="44.3581578" lon="9.4884087"><ele>799.0</ele><time>2026-03-22T14:08:25.68Z</time></trkpt><trkpt lat="44.358069" lon="9.4884536"><ele>799.0</ele><time>2026-03-22T14:08:26.68Z</time></trkpt><trkpt lat="44.3579731" lon="9.4884831"><ele>799.0</ele><time>2026-03-22T14:08:27.68Z</time></trkpt><trkpt lat="44.3578948" lon="9.4885047"><ele>798.9999999999999</ele><time>2026-03-22T14:08:28.68Z</time></trkpt><trkpt lat="44.3578224" lon="9.4885268"><ele>799.0</ele><time>2026-03-22T14:08:29.68Z</time></trkpt><trkpt lat="44.3577575" lon="9.4885534"><ele>798.6666666666666</ele><time>2026-03-22T14:08:30.68Z</time></trkpt><trkpt lat="44.3576908" lon="9.4886567"><ele>798.3333333333333</ele><time>2026-03-22T14:08:32.68Z</time></trkpt><trkpt lat="44.357675" lon="9.4887461"><ele>798.0</ele><time>2026-03-22T14:08:34.681Z</time></trkpt><trkpt lat="44.3577504" lon="9.4887841"><ele>797.6666666666667</ele><time>2026-03-22T14:08:36.68Z</time></trkpt><trkpt lat="44.3578512" lon="9.4887782"><ele>797.3333333333334</ele><time>2026-03-22T14:08:37.68Z</time></trkpt><trkpt lat="44.3579409" lon="9.4887623"><ele>797.0</ele><time>2026-03-22T14:08:38.68Z</time></trkpt><trkpt lat="44.3580325" lon="9.4887416"><ele>797.3333333333334</ele><time>2026-03-22T14:08:39.68Z</time></trkpt><trkpt lat="44.358118" lon="9.4887116"><ele>797.6666666666667</ele><time>2026-03-22T14:08:40.68Z</time></trkpt><trkpt lat="44.3582021" lon="9.4886786"><ele>798.0</ele><time>2026-03-22T14:08:41.68Z</time></trkpt><trkpt lat="44.3582822" lon="9.4886707"><ele>798.3333333333333</ele><time>2026-03-22T14:08:42.68Z</time></trkpt><trkpt lat="44.3583627" lon="9.4886776"><ele>798.6666666666666</ele><time>2026-03-22T14:08:43.68Z</time></trkpt><trkpt lat="44.3584515" lon="9.488697"><ele>799.0</ele><time>2026-03-22T14:08:44.68Z</time></trkpt><trkpt lat="44.3585386" lon="9.4887214"><ele>799.0</ele><time>2026-03-22T14:08:45.681Z</time></trkpt><trkpt lat="44.3586203" lon="9.4887481"><ele>799.0</ele><time>2026-03-22T14:08:46.681Z</time></trkpt><trkpt lat="44.3586898" lon="9.488764"><ele>799.0</ele><time>2026-03-22T14:08:47.68Z</time></trkpt><trkpt lat="44.3587525" lon="9.4887774"><ele>799.0</ele><time>2026-03-22T14:08:48.681Z</time></trkpt><trkpt lat="44.3588189" lon="9.4887964"><ele>799.0</ele><time>2026-03-22T14:08:49.68Z</time></trkpt><trkpt lat="44.3588862" lon="9.4888317"><ele>799.0</ele><time>2026-03-22T14:08:50.68Z</time></trkpt><trkpt lat="44.3589535" lon="9.4888788"><ele>799.0</ele><time>2026-03-22T14:08:51.68Z</time></trkpt><trkpt lat="44.3590265" lon="9.4889254"><ele>803.3333333333333</ele><time>2026-03-22T14:08:52.68Z</time></trkpt><trkpt lat="44.3591301" lon="9.4889546"><ele>807.6666666666666</ele><time>2026-03-22T14:08:54.68Z</time></trkpt><trkpt lat="44.3591951" lon="9.4889683"><ele>812.0</ele><time>2026-03-22T14:09:02.68Z</time></trkpt><trkpt lat="44.3592762" lon="9.4889802"><ele>816.3333333333333</ele><time>2026-03-22T14:09:07.68Z</time></trkpt><trkpt lat="44.3593635" lon="9.4890456"><ele>820.6666666666666</ele><time>2026-03-22T14:09:10.68Z</time></trkpt><trkpt lat="44.3594263" lon="9.4891135"><ele>825.0</ele><time>2026-03-22T14:09:12.68Z</time></trkpt><trkpt lat="44.359494" lon="9.489162"><ele>825.0</ele><time>2026-03-22T14:09:14.68Z</time></trkpt><trkpt lat="44.3595714" lon="9.4891997"><ele>825.0</ele><time>2026-03-22T14:09:16.68Z</time></trkpt><trkpt lat="44.3596573" lon="9.4892551"><ele>825.0</ele><time>2026-03-22T14:09:18.624Z</time></trkpt><trkpt lat="44.3597467" lon="9.4892835"><ele>825.0</ele><time>2026-03-22T14:09:20.682Z</time></trkpt><trkpt lat="44.3598344" lon="9.4892441"><ele>825.0</ele><time>2026-03-22T14:09:22.68Z</time></trkpt><trkpt lat="44.3598892" lon="9.4891977"><ele>825.0</ele><time>2026-03-22T14:09:24.68Z</time></trkpt><trkpt lat="44.3599531" lon="9.4891359"><ele>826.5</ele><time>2026-03-22T14:09:26.68Z</time></trkpt><trkpt lat="44.3600241" lon="9.4890875"><ele>828.0</ele><time>2026-03-22T14:09:28.68Z</time></trkpt><trkpt lat="44.3600917" lon="9.4890423"><ele>829.5</ele><time>2026-03-22T14:09:30.68Z</time></trkpt><trkpt lat="44.3601506" lon="9.4889832"><ele>831.0</ele><time>2026-03-22T14:09:33.647Z</time></trkpt><trkpt lat="44.3600928" lon="9.4889453"><ele>832.5</ele><time>2026-03-22T14:09:43.68Z</time></trkpt><trkpt lat="44.3601456" lon="9.4888629"><ele>834.0</ele><time>2026-03-22T14:09:53.68Z</time></trkpt><trkpt lat="44.3601995" lon="9.4887788"><ele>831.4000000000001</ele><time>2026-03-22T14:09:54.68Z</time></trkpt><trkpt lat="44.360273" lon="9.4886594"><ele>828.8</ele><time>2026-03-22T14:09:56.68Z</time></trkpt><trkpt lat="44.360311" lon="9.4885875"><ele>826.2</ele><time>2026-03-22T14:09:57.68Z</time></trkpt><trkpt lat="44.3603787" lon="9.4884505"><ele>823.5999999999999</ele><time>2026-03-22T14:09:59.68Z</time></trkpt><trkpt lat="44.3604432" lon="9.4883164"><ele>821.0</ele><time>2026-03-22T14:10:01.68Z</time></trkpt><trkpt lat="44.3604987" lon="9.4881884"><ele>826.4</ele><time>2026-03-22T14:10:03.68Z</time></trkpt><trkpt lat="44.360565" lon="9.4880588"><ele>831.8</ele><time>2026-03-22T14:10:05.68Z</time></trkpt><trkpt lat="44.3606337" lon="9.4879414"><ele>837.1999999999999</ele><time>2026-03-22T14:10:07.681Z</time></trkpt><trkpt lat="44.3607098" lon="9.4877994"><ele>842.5999999999999</ele><time>2026-03-22T14:10:09.68Z</time></trkpt><trkpt lat="44.3607592" lon="9.487708"><ele>848.0</ele><time>2026-03-22T14:10:10.68Z</time></trkpt><trkpt lat="44.3608044" lon="9.4875905"><ele>848.0</ele><time>2026-03-22T14:10:11.68Z</time></trkpt><trkpt lat="44.3608447" lon="9.4874896"><ele>848.0</ele><time>2026-03-22T14:10:12.681Z</time></trkpt><trkpt lat="44.360889" lon="9.4873679"><ele>848.0</ele><time>2026-03-22T14:10:13.68Z</time></trkpt><trkpt lat="44.3609285" lon="9.4872225"><ele>848.0</ele><time>2026-03-22T14:10:14.681Z</time></trkpt><trkpt lat="44.3609702" lon="9.4870886"><ele>848.0</ele><time>2026-03-22T14:10:15.68Z</time></trkpt><trkpt lat="44.3610236" lon="9.4869595"><ele>845.2</ele><time>2026-03-22T14:10:16.68Z</time></trkpt><trkpt lat="44.3610818" lon="9.4868359"><ele>842.4</ele><time>2026-03-22T14:10:17.681Z</time></trkpt><trkpt lat="44.3611454" lon="9.4867196"><ele>839.6</ele><time>2026-03-22T14:10:18.68Z</time></trkpt><trkpt lat="44.3612061" lon="9.4866105"><ele>836.8000000000001</ele><time>2026-03-22T14:10:19.68Z</time></trkpt><trkpt lat="44.3612561" lon="9.4865178"><ele>834.0</ele><time>2026-03-22T14:10:20.68Z</time></trkpt><trkpt lat="44.3613116" lon="9.4864387"><ele>840.75</ele><time>2026-03-22T14:10:21.68Z</time></trkpt><trkpt lat="44.3613998" lon="9.4863631"><ele>847.5</ele><time>2026-03-22T14:10:23.68Z</time></trkpt><trkpt lat="44.3615139" lon="9.4863414"><ele>854.25</ele><time>2026-03-22T14:10:25.68Z</time></trkpt><trkpt lat="44.3616581" lon="9.4864106"><ele>861.0</ele><time>2026-03-22T14:10:27.68Z</time></trkpt><trkpt lat="44.3617369" lon="9.4864445"><ele>861.0</ele><time>2026-03-22T14:10:28.68Z</time></trkpt><trkpt lat="44.3618245" lon="9.486466"><ele>860.9999999999999</ele><time>2026-03-22T14:10:29.68Z</time></trkpt><trkpt lat="44.3619222" lon="9.486527"><ele>860.9999999999999</ele><time>2026-03-22T14:10:30.68Z</time></trkpt><trkpt lat="44.3620158" lon="9.4865791"><ele>861.0</ele><time>2026-03-22T14:10:31.68Z</time></trkpt><trkpt lat="44.362122" lon="9.4866292"><ele>861.0</ele><time>2026-03-22T14:10:32.68Z</time></trkpt><trkpt lat="44.362224" lon="9.486658"><ele>862.0</ele><time>2026-03-22T14:10:33.68Z</time></trkpt><trkpt lat="44.3623231" lon="9.486695"><ele>862.9999999999999</ele><time>2026-03-22T14:10:34.68Z</time></trkpt><trkpt lat="44.3624095" lon="9.4866959"><ele>863.9999999999999</ele><time>2026-03-22T14:10:35.681Z</time></trkpt><trkpt lat="44.3624842" lon="9.4867044"><ele>865.0</ele><time>2026-03-22T14:10:36.68Z</time></trkpt><trkpt lat="44.3625909" lon="9.4866984"><ele>866.0</ele><time>2026-03-22T14:10:37.68Z</time></trkpt><trkpt lat="44.3626775" lon="9.4867028"><ele>866.0</ele><time>2026-03-22T14:10:38.68Z</time></trkpt><trkpt lat="44.3627725" lon="9.4866531"><ele>865.9999999999999</ele><time>2026-03-22T14:10:39.68Z</time></trkpt><trkpt lat="44.3628755" lon="9.4866372"><ele>865.9999999999999</ele><time>2026-03-22T14:10:40.68Z</time></trkpt><trkpt lat="44.3629738" lon="9.4866291"><ele>866.0</ele><time>2026-03-22T14:10:41.68Z</time></trkpt><trkpt lat="44.3630828" lon="9.4866373"><ele>866.0</ele><time>2026-03-22T14:10:42.68Z</time></trkpt><trkpt lat="44.3631872" lon="9.4866433"><ele>867.4</ele><time>2026-03-22T14:10:43.68Z</time></trkpt><trkpt lat="44.3632946" lon="9.4866538"><ele>868.8</ele><time>2026-03-22T14:10:44.68Z</time></trkpt><trkpt lat="44.3633757" lon="9.4866772"><ele>870.1999999999999</ele><time>2026-03-22T14:10:45.68Z</time></trkpt><trkpt lat="44.363473" lon="9.4867058"><ele>871.5999999999999</ele><time>2026-03-22T14:10:46.681Z</time></trkpt><trkpt lat="44.3635716" lon="9.4867361"><ele>873.0</ele><time>2026-03-22T14:10:47.68Z</time></trkpt><trkpt lat="44.363655" lon="9.4867674"><ele>873.0</ele><time>2026-03-22T14:10:48.68Z</time></trkpt><trkpt lat="44.3637483" lon="9.4867724"><ele>873.0</ele><time>2026-03-22T14:10:49.681Z</time></trkpt><trkpt lat="44.3638334" lon="9.4867455"><ele>873.0</ele><time>2026-03-22T14:10:50.68Z</time></trkpt><trkpt lat="44.3639068" lon="9.4867422"><ele>873.0</ele><time>2026-03-22T14:10:51.68Z</time></trkpt><trkpt lat="44.3639697" lon="9.4867504"><ele>873.0</ele><time>2026-03-22T14:10:52.68Z</time></trkpt><trkpt lat="44.3640467" lon="9.4867804"><ele>873.0</ele><time>2026-03-22T14:10:55.68Z</time></trkpt><trkpt lat="44.3640796" lon="9.4868772"><ele>871.9999999999999</ele><time>2026-03-22T14:10:57.68Z</time></trkpt><trkpt lat="44.3640848" lon="9.4869673"><ele>871.0</ele><time>2026-03-22T14:10:58.68Z</time></trkpt><trkpt lat="44.3641026" lon="9.4870619"><ele>870.0</ele><time>2026-03-22T14:10:59.68Z</time></trkpt><trkpt lat="44.3641277" lon="9.4871542"><ele>869.0</ele><time>2026-03-22T14:11:00.68Z</time></trkpt><trkpt lat="44.364161" lon="9.4872379"><ele>868.0</ele><time>2026-03-22T14:11:01.68Z</time></trkpt><trkpt lat="44.3641983" lon="9.4873231"><ele>866.9999999999999</ele><time>2026-03-22T14:11:02.68Z</time></trkpt><trkpt lat="44.3642367" lon="9.4874097"><ele>866.0</ele><time>2026-03-22T14:11:03.68Z</time></trkpt><trkpt lat="44.3642766" lon="9.4874923"><ele>868.5000000000001</ele><time>2026-03-22T14:11:04.679Z</time></trkpt><trkpt lat="44.3643241" lon="9.487575"><ele>871.0</ele><time>2026-03-22T14:11:05.681Z</time></trkpt><trkpt lat="44.3643711" lon="9.4876647"><ele>873.5</ele><time>2026-03-22T14:11:06.68Z</time></trkpt><trkpt lat="44.364429" lon="9.4877563"><ele>876.0</ele><time>2026-03-22T14:11:07.68Z</time></trkpt><trkpt lat="44.3644793" lon="9.487841"><ele>878.5000000000001</ele><time>2026-03-22T14:11:08.681Z</time></trkpt><trkpt lat="44.3645347" lon="9.4879288"><ele>881.0</ele><time>2026-03-22T14:11:09.68Z</time></trkpt><trkpt lat="44.3645927" lon="9.4880028"><ele>881.5000000000001</ele><time>2026-03-22T14:11:10.68Z</time></trkpt><trkpt lat="44.3646627" lon="9.4880655"><ele>882.0</ele><time>2026-03-22T14:11:11.68Z</time></trkpt><trkpt lat="44.3647332" lon="9.4881248"><ele>882.5</ele><time>2026-03-22T14:11:12.68Z</time></trkpt><trkpt lat="44.3647919" lon="9.4882063"><ele>883.0</ele><time>2026-03-22T14:11:13.681Z</time></trkpt><trkpt lat="44.3648494" lon="9.4883021"><ele>883.5000000000001</ele><time>2026-03-22T14:11:14.68Z</time></trkpt><trkpt lat="44.3649035" lon="9.4884017"><ele>884.0</ele><time>2026-03-22T14:11:15.68Z</time></trkpt><trkpt lat="44.3649528" lon="9.4885076"><ele>884.0</ele><time>2026-03-22T14:11:16.68Z</time></trkpt><trkpt lat="44.3650059" lon="9.4886186"><ele>884.0000000000001</ele><time>2026-03-22T14:11:17.68Z</time></trkpt><trkpt lat="44.365056" lon="9.4887351"><ele>884.0000000000001</ele><time>2026-03-22T14:11:18.68Z</time></trkpt><trkpt lat="44.365103" lon="9.488847"><ele>884.0</ele><time>2026-03-22T14:11:19.68Z</time></trkpt><trkpt lat="44.3651457" lon="9.4889585"><ele>884.0</ele><time>2026-03-22T14:11:20.681Z</time></trkpt><trkpt lat="44.3651898" lon="9.4890672"><ele>885.1666666666667</ele><time>2026-03-22T14:11:21.68Z</time></trkpt><trkpt lat="44.3652323" lon="9.4891636"><ele>886.3333333333334</ele><time>2026-03-22T14:11:22.68Z</time></trkpt><trkpt lat="44.3652732" lon="9.4892681"><ele>887.5</ele><time>2026-03-22T14:11:23.68Z</time></trkpt><trkpt lat="44.3653111" lon="9.4893683"><ele>888.6666666666667</ele><time>2026-03-22T14:11:24.68Z</time></trkpt><trkpt lat="44.3653411" lon="9.4894785"><ele>889.8333333333334</ele><time>2026-03-22T14:11:25.68Z</time></trkpt><trkpt lat="44.3653713" lon="9.4895845"><ele>891.0</ele><time>2026-03-22T14:11:26.681Z</time></trkpt><trkpt lat="44.3653903" lon="9.4896814"><ele>892.0</ele><time>2026-03-22T14:11:27.68Z</time></trkpt><trkpt lat="44.3654082" lon="9.4898271"><ele>893.0</ele><time>2026-03-22T14:11:29.68Z</time></trkpt><trkpt lat="44.3654298" lon="9.4899644"><ele>894.0</ele><time>2026-03-22T14:11:31.68Z</time></trkpt><trkpt lat="44.3654748" lon="9.4900672"><ele>895.0</ele><time>2026-03-22T14:11:33.68Z</time></trkpt><trkpt lat="44.3654692" lon="9.4901692"><ele>896.0</ele><time>2026-03-22T14:11:35.68Z</time></trkpt><trkpt lat="44.3654482" lon="9.4902728"><ele>897.0</ele><time>2026-03-22T14:11:37.68Z</time></trkpt><trkpt lat="44.3654093" lon="9.4903522"><ele>897.0</ele><time>2026-03-22T14:11:39.68Z</time></trkpt><trkpt lat="44.365348" lon="9.4904046"><ele>897.0</ele><time>2026-03-22T14:11:41.68Z</time></trkpt><trkpt lat="44.3652666" lon="9.4904126"><ele>897.0</ele><time>2026-03-22T14:11:43.68Z</time></trkpt><trkpt lat="44.3651641" lon="9.4903983"><ele>897.0</ele><time>2026-03-22T14:11:45.68Z</time></trkpt><trkpt lat="44.3650722" lon="9.4903917"><ele>897.0</ele><time>2026-03-22T14:11:47.68Z</time></trkpt><trkpt lat="44.3649761" lon="9.4904088"><ele>897.0</ele><time>2026-03-22T14:11:49.68Z</time></trkpt><trkpt lat="44.3648956" lon="9.490447"><ele>895.3333333333334</ele><time>2026-03-22T14:11:51.68Z</time></trkpt><trkpt lat="44.3648309" lon="9.4905463"><ele>893.6666666666667</ele><time>2026-03-22T14:11:53.68Z</time></trkpt><trkpt lat="44.3647951" lon="9.4906216"><ele>892.0</ele><time>2026-03-22T14:11:55.68Z</time></trkpt><trkpt lat="44.3648061" lon="9.4907636"><ele>890.3333333333334</ele><time>2026-03-22T14:11:57.68Z</time></trkpt><trkpt lat="44.3648848" lon="9.4908381"><ele>888.6666666666667</ele><time>2026-03-22T14:11:58.681Z</time></trkpt><trkpt lat="44.3649321" lon="9.4909195"><ele>887.0</ele><time>2026-03-22T14:11:59.679Z</time></trkpt><trkpt lat="44.3649904" lon="9.491057"><ele>887.0</ele><time>2026-03-22T14:12:01.68Z</time></trkpt><trkpt lat="44.3650486" lon="9.4911794"><ele>887.0</ele><time>2026-03-22T14:12:03.68Z</time></trkpt><trkpt lat="44.3650936" lon="9.4912984"><ele>887.0</ele><time>2026-03-22T14:12:05.68Z</time></trkpt><trkpt lat="44.3651426" lon="9.4914137"><ele>887.0</ele><time>2026-03-22T14:12:07.681Z</time></trkpt><trkpt lat="44.3652078" lon="9.491515"><ele>887.0</ele><time>2026-03-22T14:12:09.68Z</time></trkpt><trkpt lat="44.3652575" lon="9.4916011"><ele>887.6</ele><time>2026-03-22T14:12:11.68Z</time></trkpt><trkpt lat="44.3652984" lon="9.491708"><ele>888.2</ele><time>2026-03-22T14:12:13.68Z</time></trkpt><trkpt lat="44.3653135" lon="9.4918411"><ele>888.8</ele><time>2026-03-22T14:12:15.68Z</time></trkpt><trkpt lat="44.3653055" lon="9.4919672"><ele>889.4</ele><time>2026-03-22T14:12:17.68Z</time></trkpt><trkpt lat="44.3652588" lon="9.492129"><ele>890.0</ele><time>2026-03-22T14:12:20.681Z</time></trkpt><trkpt lat="44.3652369" lon="9.4922196"><ele>890.0</ele><time>2026-03-22T14:12:21.68Z</time></trkpt><trkpt lat="44.3652222" lon="9.4923074"><ele>890.0</ele><time>2026-03-22T14:12:22.68Z</time></trkpt><trkpt lat="44.3652361" lon="9.4924327"><ele>890.0</ele><time>2026-03-22T14:12:24.68Z</time></trkpt><trkpt lat="44.3652514" lon="9.4925772"><ele>890.0</ele><time>2026-03-22T14:12:26.68Z</time></trkpt><trkpt lat="44.3652708" lon="9.4927242"><ele>890.0</ele><time>2026-03-22T14:12:28.681Z</time></trkpt><trkpt lat="44.3652893" lon="9.4928517"><ele>888.0</ele><time>2026-03-22T14:12:30.68Z</time></trkpt><trkpt lat="44.3652958" lon="9.4929719"><ele>886.0</ele><time>2026-03-22T14:12:32.68Z</time></trkpt><trkpt lat="44.3652524" lon="9.4931142"><ele>884.0</ele><time>2026-03-22T14:12:34.68Z</time></trkpt><trkpt lat="44.3651839" lon="9.4932576"><ele>882.0</ele><time>2026-03-22T14:12:36.68Z</time></trkpt><trkpt lat="44.365108" lon="9.4933822"><ele>880.0</ele><time>2026-03-22T14:12:38.68Z</time></trkpt><trkpt lat="44.3650542" lon="9.4935452"><ele>880.0</ele><time>2026-03-22T14:12:40.68Z</time></trkpt><trkpt lat="44.3650092" lon="9.4936648"><ele>880.0</ele><time>2026-03-22T14:12:42.68Z</time></trkpt><trkpt lat="44.3649731" lon="9.4937452"><ele>880.0</ele><time>2026-03-22T14:12:44.68Z</time></trkpt><trkpt lat="44.3648982" lon="9.4938402"><ele>880.0</ele><time>2026-03-22T14:12:46.68Z</time></trkpt><trkpt lat="44.3648146" lon="9.4938866"><ele>880.0</ele><time>2026-03-22T14:12:48.68Z</time></trkpt><trkpt lat="44.3646903" lon="9.4938917"><ele>876.9999999999999</ele><time>2026-03-22T14:12:50.68Z</time></trkpt><trkpt lat="44.3646084" lon="9.4938714"><ele>874.0</ele><time>2026-03-22T14:12:51.68Z</time></trkpt><trkpt lat="44.3645357" lon="9.4938528"><ele>871.0</ele><time>2026-03-22T14:12:52.681Z</time></trkpt><trkpt lat="44.3644703" lon="9.493833"><ele>868.0</ele><time>2026-03-22T14:12:53.68Z</time></trkpt><trkpt lat="44.3643564" lon="9.4937909"><ele>864.9999999999999</ele><time>2026-03-22T14:12:55.68Z</time></trkpt><trkpt lat="44.3642594" lon="9.4937496"><ele>862.0</ele><time>2026-03-22T14:12:57.68Z</time></trkpt><trkpt lat="44.3641866" lon="9.4937774"><ele>862.0</ele><time>2026-03-22T14:12:59.681Z</time></trkpt><trkpt lat="44.3641211" lon="9.493835"><ele>862.0</ele><time>2026-03-22T14:13:00.681Z</time></trkpt><trkpt lat="44.3640798" lon="9.493911"><ele>862.0</ele><time>2026-03-22T14:13:01.681Z</time></trkpt><trkpt lat="44.3640257" lon="9.4939869"><ele>862.0</ele><time>2026-03-22T14:13:02.68Z</time></trkpt><trkpt lat="44.3639757" lon="9.4940634"><ele>862.0</ele><time>2026-03-22T14:13:03.68Z</time></trkpt><trkpt lat="44.3639186" lon="9.4941118"><ele>862.0</ele><time>2026-03-22T14:13:04.68Z</time></trkpt><trkpt lat="44.3638495" lon="9.4941412"><ele>862.0</ele><time>2026-03-22T14:13:05.68Z</time></trkpt><trkpt lat="44.3637818" lon="9.4941819"><ele>866.4999999999999</ele><time>2026-03-22T14:13:06.68Z</time></trkpt><trkpt lat="44.3637169" lon="9.4942246"><ele>871.0</ele><time>2026-03-22T14:13:07.68Z</time></trkpt><trkpt lat="44.3636105" lon="9.4942675"><ele>875.5</ele><time>2026-03-22T14:13:09.681Z</time></trkpt><trkpt lat="44.3635449" lon="9.4942902"><ele>880.0</ele><time>2026-03-22T14:13:10.68Z</time></trkpt><trkpt lat="44.3634884" lon="9.4943467"><ele>884.4999999999999</ele><time>2026-03-22T14:13:11.68Z</time></trkpt><trkpt lat="44.3634372" lon="9.4944355"><ele>889.0</ele><time>2026-03-22T14:13:13.68Z</time></trkpt><trkpt lat="44.363414" lon="9.4945653"><ele>885.2</ele><time>2026-03-22T14:13:15.68Z</time></trkpt><trkpt lat="44.3633804" lon="9.4947134"><ele>881.4000000000001</ele><time>2026-03-22T14:13:17.68Z</time></trkpt><trkpt lat="44.363362" lon="9.4947997"><ele>877.6</ele><time>2026-03-22T14:13:18.68Z</time></trkpt><trkpt lat="44.3633663" lon="9.4949339"><ele>873.8</ele><time>2026-03-22T14:13:20.68Z</time></trkpt><trkpt lat="44.3633445" lon="9.4951086"><ele>870.0</ele><time>2026-03-22T14:13:22.68Z</time></trkpt><trkpt lat="44.3633399" lon="9.4952462"><ele>870.0</ele><time>2026-03-22T14:13:24.681Z</time></trkpt><trkpt lat="44.3634097" lon="9.4953585"><ele>870.0</ele><time>2026-03-22T14:13:26.68Z</time></trkpt><trkpt lat="44.3634137" lon="9.4954912"><ele>870.0</ele><time>2026-03-22T14:13:28.681Z</time></trkpt><trkpt lat="44.3633823" lon="9.4955987"><ele>870.0</ele><time>2026-03-22T14:13:30.68Z</time></trkpt><trkpt lat="44.3633153" lon="9.495711"><ele>870.0</ele><time>2026-03-22T14:13:32.68Z</time></trkpt><trkpt lat="44.3632676" lon="9.4957754"><ele>869.8333333333334</ele><time>2026-03-22T14:13:33.68Z</time></trkpt><trkpt lat="44.3631882" lon="9.4958627"><ele>869.6666666666667</ele><time>2026-03-22T14:13:35.68Z</time></trkpt><trkpt lat="44.3631203" lon="9.4958809"><ele>869.5</ele><time>2026-03-22T14:13:36.681Z</time></trkpt><trkpt lat="44.3630294" lon="9.4958897"><ele>869.3333333333334</ele><time>2026-03-22T14:13:38.68Z</time></trkpt><trkpt lat="44.3629585" lon="9.4959188"><ele>869.1666666666667</ele><time>2026-03-22T14:13:40.68Z</time></trkpt><trkpt lat="44.3628697" lon="9.4959478"><ele>869.0</ele><time>2026-03-22T14:13:42.68Z</time></trkpt><trkpt lat="44.362806" lon="9.4959469"><ele>869.0000000000001</ele><time>2026-03-22T14:13:43.68Z</time></trkpt><trkpt lat="44.3627127" lon="9.4959542"><ele>869.0</ele><time>2026-03-22T14:13:45.68Z</time></trkpt><trkpt lat="44.3626408" lon="9.4959372"><ele>869.0</ele><time>2026-03-22T14:13:47.68Z</time></trkpt><trkpt lat="44.3625551" lon="9.4959225"><ele>869.0</ele><time>2026-03-22T14:13:49.681Z</time></trkpt><trkpt lat="44.3624812" lon="9.4959128"><ele>869.0000000000001</ele><time>2026-03-22T14:13:52.68Z</time></trkpt><trkpt lat="44.362438" lon="9.4960314"><ele>869.0</ele><time>2026-03-22T14:13:55.68Z</time></trkpt><trkpt lat="44.3623903" lon="9.4960967"><ele>869.0</ele><time>2026-03-22T14:13:57.68Z</time></trkpt><trkpt lat="44.3623343" lon="9.4961919"><ele>869.0000000000001</ele><time>2026-03-22T14:13:59.681Z</time></trkpt><trkpt lat="44.362284" lon="9.4962997"><ele>869.0000000000001</ele><time>2026-03-22T14:14:01.681Z</time></trkpt><trkpt lat="44.3622159" lon="9.4963731"><ele>869.0</ele><time>2026-03-22T14:14:03.68Z</time></trkpt><trkpt lat="44.3621367" lon="9.4964839"><ele>869.0</ele><time>2026-03-22T14:14:05.68Z</time></trkpt><trkpt lat="44.3620392" lon="9.4965867"><ele>869.6</ele><time>2026-03-22T14:14:07.681Z</time></trkpt><trkpt lat="44.3619548" lon="9.4966505"><ele>870.2</ele><time>2026-03-22T14:14:09.68Z</time></trkpt><trkpt lat="44.3619082" lon="9.4967116"><ele>870.8000000000001</ele><time>2026-03-22T14:14:11.68Z</time></trkpt><trkpt lat="44.3618323" lon="9.4968913"><ele>871.4000000000001</ele><time>2026-03-22T14:14:15.681Z</time></trkpt><trkpt lat="44.3618056" lon="9.497062"><ele>872.0</ele><time>2026-03-22T14:14:17.68Z</time></trkpt><trkpt lat="44.3617728" lon="9.4971476"><ele>869.5000000000001</ele><time>2026-03-22T14:14:18.681Z</time></trkpt><trkpt lat="44.3617568" lon="9.4972441"><ele>867.0</ele><time>2026-03-22T14:14:19.68Z</time></trkpt><trkpt lat="44.3617376" lon="9.4973352"><ele>864.5</ele><time>2026-03-22T14:14:20.681Z</time></trkpt><trkpt lat="44.3617149" lon="9.4974483"><ele>862.0</ele><time>2026-03-22T14:14:21.68Z</time></trkpt><trkpt lat="44.3617245" lon="9.49761"><ele>859.5000000000001</ele><time>2026-03-22T14:14:23.68Z</time></trkpt><trkpt lat="44.3617367" lon="9.4977098"><ele>857.0</ele><time>2026-03-22T14:14:24.681Z</time></trkpt><trkpt lat="44.3617333" lon="9.4978123"><ele>857.0000000000001</ele><time>2026-03-22T14:14:25.68Z</time></trkpt><trkpt lat="44.3617231" lon="9.4979177"><ele>857.0</ele><time>2026-03-22T14:14:26.68Z</time></trkpt><trkpt lat="44.3616865" lon="9.4980177"><ele>857.0</ele><time>2026-03-22T14:14:27.679Z</time></trkpt><trkpt lat="44.3616555" lon="9.4981278"><ele>857.0</ele><time>2026-03-22T14:14:28.68Z</time></trkpt><trkpt lat="44.3616191" lon="9.498219"><ele>857.0000000000001</ele><time>2026-03-22T14:14:29.68Z</time></trkpt><trkpt lat="44.3615583" lon="9.4983148"><ele>857.0</ele><time>2026-03-22T14:14:30.68Z</time></trkpt><trkpt lat="44.3615206" lon="9.4984516"><ele>854.8</ele><time>2026-03-22T14:14:32.68Z</time></trkpt><trkpt lat="44.3615052" lon="9.4985612"><ele>852.6</ele><time>2026-03-22T14:14:33.68Z</time></trkpt><trkpt lat="44.3614882" lon="9.4986518"><ele>850.4</ele><time>2026-03-22T14:14:34.68Z</time></trkpt><trkpt lat="44.3614194" lon="9.4987748"><ele>848.1999999999999</ele><time>2026-03-22T14:14:36.68Z</time></trkpt><trkpt lat="44.3613138" lon="9.4988868"><ele>846.0</ele><time>2026-03-22T14:14:38.68Z</time></trkpt><trkpt lat="44.3612501" lon="9.4989387"><ele>846.0</ele><time>2026-03-22T14:14:39.68Z</time></trkpt><trkpt lat="44.361197" lon="9.4989946"><ele>846.0</ele><time>2026-03-22T14:14:40.68Z</time></trkpt><trkpt lat="44.3611005" lon="9.4990475"><ele>846.0</ele><time>2026-03-22T14:14:42.68Z</time></trkpt><trkpt lat="44.3610256" lon="9.4990836"><ele>846.0</ele><time>2026-03-22T14:14:43.68Z</time></trkpt><trkpt lat="44.3609538" lon="9.4990934"><ele>846.0</ele><time>2026-03-22T14:14:44.68Z</time></trkpt><trkpt lat="44.3608564" lon="9.4990379"><ele>846.0</ele><time>2026-03-22T14:14:46.681Z</time></trkpt><trkpt lat="44.3607584" lon="9.4990074"><ele>846.0</ele><time>2026-03-22T14:14:48.681Z</time></trkpt><trkpt lat="44.3606913" lon="9.4990165"><ele>846.0</ele><time>2026-03-22T14:14:49.679Z</time></trkpt><trkpt lat="44.3605906" lon="9.4990313"><ele>846.0</ele><time>2026-03-22T14:14:51.68Z</time></trkpt><trkpt lat="44.3605462" lon="9.4991277"><ele>846.0</ele><time>2026-03-22T14:14:53.68Z</time></trkpt><trkpt lat="44.3604938" lon="9.4992444"><ele>846.0</ele><time>2026-03-22T14:14:55.68Z</time></trkpt><trkpt lat="44.3604313" lon="9.4993093"><ele>846.0</ele><time>2026-03-22T14:14:57.68Z</time></trkpt><trkpt lat="44.3603657" lon="9.4993711"><ele>848.4</ele><time>2026-03-22T14:14:58.68Z</time></trkpt><trkpt lat="44.3602817" lon="9.4994221"><ele>850.8</ele><time>2026-03-22T14:15:00.68Z</time></trkpt><trkpt lat="44.360228" lon="9.4995133"><ele>853.1999999999999</ele><time>2026-03-22T14:15:02.68Z</time></trkpt><trkpt lat="44.360259" lon="9.4996202"><ele>855.5999999999999</ele><time>2026-03-22T14:15:04.68Z</time></trkpt><trkpt lat="44.3603027" lon="9.499785"><ele>858.0</ele><time>2026-03-22T14:15:06.68Z</time></trkpt><trkpt lat="44.3602712" lon="9.4998951"><ele>858.0</ele><time>2026-03-22T14:15:07.68Z</time></trkpt><trkpt lat="44.360228" lon="9.499992"><ele>858.0</ele><time>2026-03-22T14:15:08.68Z</time></trkpt><trkpt lat="44.3602221" lon="9.5000895"><ele>858.0</ele><time>2026-03-22T14:15:09.681Z</time></trkpt><trkpt lat="44.360215" lon="9.5002292"><ele>858.0</ele><time>2026-03-22T14:15:11.68Z</time></trkpt><trkpt lat="44.3601999" lon="9.5003862"><ele>858.0</ele><time>2026-03-22T14:15:13.68Z</time></trkpt><trkpt lat="44.360187" lon="9.5004905"><ele>858.0</ele><time>2026-03-22T14:15:15.68Z</time></trkpt><trkpt lat="44.3601947" lon="9.5005826"><ele>856.5</ele><time>2026-03-22T14:15:17.68Z</time></trkpt><trkpt lat="44.3602232" lon="9.5007001"><ele>855.0</ele><time>2026-03-22T14:15:19.68Z</time></trkpt><trkpt lat="44.3602166" lon="9.5008217"><ele>853.5</ele><time>2026-03-22T14:15:20.68Z</time></trkpt><trkpt lat="44.3601985" lon="9.5009284"><ele>852.0</ele><time>2026-03-22T14:15:21.68Z</time></trkpt><trkpt lat="44.3601534" lon="9.5010599"><ele>850.5</ele><time>2026-03-22T14:15:23.68Z</time></trkpt><trkpt lat="44.3601333" lon="9.501179"><ele>849.0</ele><time>2026-03-22T14:15:25.681Z</time></trkpt><trkpt lat="44.360158" lon="9.5012784"><ele>849.0</ele><time>2026-03-22T14:15:27.68Z</time></trkpt><trkpt lat="44.3602208" lon="9.5013209"><ele>849.0</ele><time>2026-03-22T14:15:28.68Z</time></trkpt><trkpt lat="44.3602782" lon="9.5013739"><ele>849.0</ele><time>2026-03-22T14:15:29.68Z</time></trkpt><trkpt lat="44.3603361" lon="9.5014909"><ele>849.0</ele><time>2026-03-22T14:15:31.68Z</time></trkpt><trkpt lat="44.3603756" lon="9.5016131"><ele>849.0</ele><time>2026-03-22T14:15:33.681Z</time></trkpt><trkpt lat="44.3604328" lon="9.5016702"><ele>849.0</ele><time>2026-03-22T14:15:36.68Z</time></trkpt><trkpt lat="44.3605375" lon="9.501659"><ele>842.8000000000001</ele><time>2026-03-22T14:15:39.68Z</time></trkpt><trkpt lat="44.3607235" lon="9.5016946"><ele>836.6</ele><time>2026-03-22T14:15:42.68Z</time></trkpt><trkpt lat="44.3608145" lon="9.5017556"><ele>830.4</ele><time>2026-03-22T14:15:43.68Z</time></trkpt><trkpt lat="44.3608878" lon="9.5018032"><ele>824.2</ele><time>2026-03-22T14:15:44.68Z</time></trkpt><trkpt lat="44.3609507" lon="9.5018393"><ele>818.0</ele><time>2026-03-22T14:15:45.68Z</time></trkpt><trkpt lat="44.361047" lon="9.5019076"><ele>818.0</ele><time>2026-03-22T14:15:47.68Z</time></trkpt><trkpt lat="44.3611107" lon="9.5019704"><ele>818.0</ele><time>2026-03-22T14:15:48.68Z</time></trkpt><trkpt lat="44.3612097" lon="9.5020464"><ele>818.0</ele><time>2026-03-22T14:15:50.681Z</time></trkpt><trkpt lat="44.361272" lon="9.5021537"><ele>818.0</ele><time>2026-03-22T14:15:52.68Z</time></trkpt><trkpt lat="44.3612973" lon="9.502291"><ele>818.0</ele><time>2026-03-22T14:15:54.68Z</time></trkpt><trkpt lat="44.3612914" lon="9.502438"><ele>816.8333333333334</ele><time>2026-03-22T14:15:56.68Z</time></trkpt><trkpt lat="44.3613111" lon="9.5025499"><ele>815.6666666666667</ele><time>2026-03-22T14:15:58.68Z</time></trkpt><trkpt lat="44.3613471" lon="9.5026467"><ele>814.5</ele><time>2026-03-22T14:16:00.681Z</time></trkpt><trkpt lat="44.3614139" lon="9.5027353"><ele>813.3333333333333</ele><time>2026-03-22T14:16:02.68Z</time></trkpt><trkpt lat="44.3614735" lon="9.5027695"><ele>812.1666666666666</ele><time>2026-03-22T14:16:03.68Z</time></trkpt><trkpt lat="44.3615307" lon="9.502858"><ele>811.0</ele><time>2026-03-22T14:16:05.68Z</time></trkpt><trkpt lat="44.3614955" lon="9.5029898"><ele>810.9999999999999</ele><time>2026-03-22T14:16:07.68Z</time></trkpt><trkpt lat="44.3614647" lon="9.5030682"><ele>811.0</ele><time>2026-03-22T14:16:08.68Z</time></trkpt><trkpt lat="44.3614325" lon="9.5032197"><ele>811.0</ele><time>2026-03-22T14:16:10.68Z</time></trkpt><trkpt lat="44.3614228" lon="9.503317"><ele>811.0</ele><time>2026-03-22T14:16:12.68Z</time></trkpt><trkpt lat="44.3614861" lon="9.5033985"><ele>810.9999999999999</ele><time>2026-03-22T14:16:14.68Z</time></trkpt><trkpt lat="44.3615875" lon="9.5034511"><ele>811.0</ele><time>2026-03-22T14:16:16.68Z</time></trkpt><trkpt lat="44.3616588" lon="9.5034591"><ele>811.0</ele><time>2026-03-22T14:16:17.68Z</time></trkpt><trkpt lat="44.361741" lon="9.5034769"><ele>811.0</ele><time>2026-03-22T14:16:18.68Z</time></trkpt><trkpt lat="44.3618141" lon="9.5035061"><ele>811.0</ele><time>2026-03-22T14:16:19.68Z</time></trkpt><trkpt lat="44.3618725" lon="9.5035437"><ele>811.0</ele><time>2026-03-22T14:16:20.68Z</time></trkpt><trkpt lat="44.3619734" lon="9.5036231"><ele>811.0</ele><time>2026-03-22T14:16:22.68Z</time></trkpt><trkpt lat="44.3620786" lon="9.5036941"><ele>811.0</ele><time>2026-03-22T14:16:24.68Z</time></trkpt><trkpt lat="44.362187" lon="9.5037021"><ele>811.0</ele><time>2026-03-22T14:16:26.679Z</time></trkpt><trkpt lat="44.3622809" lon="9.5036277"><ele>811.0</ele><time>2026-03-22T14:16:28.68Z</time></trkpt><trkpt lat="44.3623284" lon="9.5035569"><ele>811.0</ele><time>2026-03-22T14:16:29.68Z</time></trkpt><trkpt lat="44.3623718" lon="9.50349"><ele>811.0</ele><time>2026-03-22T14:16:30.68Z</time></trkpt><trkpt lat="44.3624851" lon="9.5034016"><ele>807.8333333333333</ele><time>2026-03-22T14:16:32.68Z</time></trkpt><trkpt lat="44.36256" lon="9.5033809"><ele>804.6666666666666</ele><time>2026-03-22T14:16:33.68Z</time></trkpt><trkpt lat="44.3626328" lon="9.5033752"><ele>801.5</ele><time>2026-03-22T14:16:34.68Z</time></trkpt><trkpt lat="44.3627027" lon="9.5033858"><ele>798.3333333333333</ele><time>2026-03-22T14:16:35.68Z</time></trkpt><trkpt lat="44.3627666" lon="9.5033931"><ele>795.1666666666666</ele><time>2026-03-22T14:16:36.68Z</time></trkpt><trkpt lat="44.3628823" lon="9.5034247"><ele>792.0</ele><time>2026-03-22T14:16:38.68Z</time></trkpt><trkpt lat="44.3629834" lon="9.503405"><ele>792.5</ele><time>2026-03-22T14:16:40.68Z</time></trkpt><trkpt lat="44.3630579" lon="9.5034583"><ele>793.0</ele><time>2026-03-22T14:16:42.68Z</time></trkpt><trkpt lat="44.3631103" lon="9.503587"><ele>793.5</ele><time>2026-03-22T14:16:44.679Z</time></trkpt><trkpt lat="44.3631422" lon="9.5036843"><ele>794.0</ele><time>2026-03-22T14:16:45.68Z</time></trkpt><trkpt lat="44.3631912" lon="9.5037447"><ele>794.5</ele><time>2026-03-22T14:16:46.68Z</time></trkpt><trkpt lat="44.3632417" lon="9.5038024"><ele>795.0</ele><time>2026-03-22T14:16:47.68Z</time></trkpt><trkpt lat="44.3633417" lon="9.5038716"><ele>795.0</ele><time>2026-03-22T14:16:49.68Z</time></trkpt><trkpt lat="44.3634718" lon="9.5038771"><ele>795.0</ele><time>2026-03-22T14:16:51.68Z</time></trkpt><trkpt lat="44.3635433" lon="9.5038984"><ele>795.0</ele><time>2026-03-22T14:16:52.68Z</time></trkpt><trkpt lat="44.3635974" lon="9.5039553"><ele>795.0</ele><time>2026-03-22T14:16:53.68Z</time></trkpt><trkpt lat="44.3636618" lon="9.5040056"><ele>795.0</ele><time>2026-03-22T14:16:54.68Z</time></trkpt><trkpt lat="44.3637261" lon="9.504043"><ele>795.0</ele><time>2026-03-22T14:16:55.68Z</time></trkpt><trkpt lat="44.3637946" lon="9.504033"><ele>795.0</ele><time>2026-03-22T14:16:56.68Z</time></trkpt><trkpt lat="44.3638574" lon="9.5040205"><ele>795.0</ele><time>2026-03-22T14:16:57.68Z</time></trkpt><trkpt lat="44.3639693" lon="9.5040016"><ele>795.0</ele><time>2026-03-22T14:16:59.68Z</time></trkpt><trkpt lat="44.3640718" lon="9.5040343"><ele>795.0</ele><time>2026-03-22T14:17:01.68Z</time></trkpt><trkpt lat="44.3641261" lon="9.5040946"><ele>795.0</ele><time>2026-03-22T14:17:02.68Z</time></trkpt><trkpt lat="44.364177" lon="9.5041701"><ele>795.0</ele><time>2026-03-22T14:17:03.68Z</time></trkpt><trkpt lat="44.3642229" lon="9.504232"><ele>792.0</ele><time>2026-03-22T14:17:04.68Z</time></trkpt><trkpt lat="44.3643256" lon="9.5043295"><ele>789.0</ele><time>2026-03-22T14:17:06.68Z</time></trkpt><trkpt lat="44.3643827" lon="9.5043683"><ele>786.0</ele><time>2026-03-22T14:17:07.68Z</time></trkpt><trkpt lat="44.3644441" lon="9.5043996"><ele>783.0</ele><time>2026-03-22T14:17:08.68Z</time></trkpt><trkpt lat="44.3645575" lon="9.5044452"><ele>780.0</ele><time>2026-03-22T14:17:10.68Z</time></trkpt><trkpt lat="44.3646482" lon="9.5044851"><ele>777.4</ele><time>2026-03-22T14:17:12.68Z</time></trkpt><trkpt lat="44.3646946" lon="9.5045906"><ele>774.8</ele><time>2026-03-22T14:17:14.68Z</time></trkpt><trkpt lat="44.3646846" lon="9.5047318"><ele>772.2</ele><time>2026-03-22T14:17:16.68Z</time></trkpt><trkpt lat="44.3646436" lon="9.5048481"><ele>769.6</ele><time>2026-03-22T14:17:18.68Z</time></trkpt><trkpt lat="44.364575" lon="9.5049008"><ele>767.0</ele><time>2026-03-22T14:17:20.68Z</time></trkpt><trkpt lat="44.3644871" lon="9.5048738"><ele>767.0</ele><time>2026-03-22T14:17:22.68Z</time></trkpt><trkpt lat="44.3643836" lon="9.5047914"><ele>767.0</ele><time>2026-03-22T14:17:24.68Z</time></trkpt><trkpt lat="44.3642711" lon="9.5047509"><ele>767.0</ele><time>2026-03-22T14:17:26.68Z</time></trkpt><trkpt lat="44.3641563" lon="9.5047817"><ele>767.0</ele><time>2026-03-22T14:17:28.681Z</time></trkpt><trkpt lat="44.3640961" lon="9.5048219"><ele>767.0</ele><time>2026-03-22T14:17:29.68Z</time></trkpt><trkpt lat="44.3639943" lon="9.5048824"><ele>767.0</ele><time>2026-03-22T14:17:31.68Z</time></trkpt><trkpt lat="44.3639071" lon="9.5049426"><ele>767.0</ele><time>2026-03-22T14:17:33.68Z</time></trkpt><trkpt lat="44.3638237" lon="9.5050032"><ele>767.0</ele><time>2026-03-22T14:17:35.68Z</time></trkpt><trkpt lat="44.3637166" lon="9.5050277"><ele>767.0</ele><time>2026-03-22T14:17:37.68Z</time></trkpt><trkpt lat="44.363628" lon="9.505045"><ele>767.0</ele><time>2026-03-22T14:17:39.68Z</time></trkpt><trkpt lat="44.3635592" lon="9.5051146"><ele>770.2</ele><time>2026-03-22T14:17:41.681Z</time></trkpt><trkpt lat="44.3635284" lon="9.5052649"><ele>773.4000000000001</ele><time>2026-03-22T14:17:43.68Z</time></trkpt><trkpt lat="44.3634446" lon="9.5053484"><ele>776.5999999999999</ele><time>2026-03-22T14:17:45.68Z</time></trkpt><trkpt lat="44.3633489" lon="9.5053213"><ele>779.8</ele><time>2026-03-22T14:17:47.681Z</time></trkpt><trkpt lat="44.3632503" lon="9.505276"><ele>783.0</ele><time>2026-03-22T14:17:49.68Z</time></trkpt><trkpt lat="44.3631585" lon="9.5052924"><ele>783.0</ele><time>2026-03-22T14:17:51.68Z</time></trkpt><trkpt lat="44.3630661" lon="9.5053542"><ele>783.0</ele><time>2026-03-22T14:17:53.68Z</time></trkpt><trkpt lat="44.3630094" lon="9.505435"><ele>783.0</ele><time>2026-03-22T14:17:55.679Z</time></trkpt><trkpt lat="44.3630004" lon="9.5055585"><ele>783.0</ele><time>2026-03-22T14:17:57.68Z</time></trkpt><trkpt lat="44.3630308" lon="9.5057001"><ele>783.0</ele><time>2026-03-22T14:17:59.68Z</time></trkpt><trkpt lat="44.3630327" lon="9.5058473"><ele>780.8</ele><time>2026-03-22T14:18:01.68Z</time></trkpt><trkpt lat="44.3629892" lon="9.5059737"><ele>778.5999999999999</ele><time>2026-03-22T14:18:03.68Z</time></trkpt><trkpt lat="44.362928" lon="9.5060759"><ele>776.4000000000001</ele><time>2026-03-22T14:18:05.68Z</time></trkpt><trkpt lat="44.3628327" lon="9.5061485"><ele>774.2</ele><time>2026-03-22T14:18:07.679Z</time></trkpt><trkpt lat="44.3627087" lon="9.5061841"><ele>772.0</ele><time>2026-03-22T14:18:09.679Z</time></trkpt><trkpt lat="44.3626024" lon="9.5061254"><ele>772.0</ele><time>2026-03-22T14:18:11.68Z</time></trkpt><trkpt lat="44.3624894" lon="9.5060793"><ele>772.0</ele><time>2026-03-22T14:18:13.679Z</time></trkpt><trkpt lat="44.3623843" lon="9.5060533"><ele>772.0</ele><time>2026-03-22T14:18:15.679Z</time></trkpt><trkpt lat="44.3622834" lon="9.5060462"><ele>772.0</ele><time>2026-03-22T14:18:17.68Z</time></trkpt><trkpt lat="44.3622006" lon="9.5061108"><ele>772.0</ele><time>2026-03-22T14:18:19.679Z</time></trkpt><trkpt lat="44.362156" lon="9.5061769"><ele>773.3333333333333</ele><time>2026-03-22T14:18:20.679Z</time></trkpt><trkpt lat="44.3621094" lon="9.5062413"><ele>774.6666666666666</ele><time>2026-03-22T14:18:21.679Z</time></trkpt><trkpt lat="44.3620184" lon="9.5063037"><ele>776.0</ele><time>2026-03-22T14:18:23.68Z</time></trkpt><trkpt lat="44.3619315" lon="9.5063151"><ele>777.3333333333333</ele><time>2026-03-22T14:18:25.679Z</time></trkpt><trkpt lat="44.3618488" lon="9.5062948"><ele>778.6666666666666</ele><time>2026-03-22T14:18:27.679Z</time></trkpt><trkpt lat="44.3617845" lon="9.5063338"><ele>780.0</ele><time>2026-03-22T14:18:29.68Z</time></trkpt><trkpt lat="44.3617741" lon="9.5064398"><ele>774.4</ele><time>2026-03-22T14:18:31.678Z</time></trkpt><trkpt lat="44.3617961" lon="9.5065906"><ele>768.8</ele><time>2026-03-22T14:18:33.679Z</time></trkpt><trkpt lat="44.361757" lon="9.5067092"><ele>763.2</ele><time>2026-03-22T14:18:35.678Z</time></trkpt><trkpt lat="44.3616854" lon="9.5067886"><ele>757.6</ele><time>2026-03-22T14:18:37.679Z</time></trkpt><trkpt lat="44.3615736" lon="9.5067704"><ele>752.0</ele><time>2026-03-22T14:18:39.679Z</time></trkpt><trkpt lat="44.36151" lon="9.506734"><ele>752.0</ele><time>2026-03-22T14:18:40.679Z</time></trkpt><trkpt lat="44.3614501" lon="9.506692"><ele>752.0</ele><time>2026-03-22T14:18:41.679Z</time></trkpt><trkpt lat="44.3613515" lon="9.5066725"><ele>752.0</ele><time>2026-03-22T14:18:43.679Z</time></trkpt><trkpt lat="44.3612363" lon="9.5067314"><ele>752.0</ele><time>2026-03-22T14:18:45.679Z</time></trkpt><trkpt lat="44.3611661" lon="9.5067594"><ele>752.0</ele><time>2026-03-22T14:18:46.679Z</time></trkpt><trkpt lat="44.3610928" lon="9.5067783"><ele>752.0</ele><time>2026-03-22T14:18:47.679Z</time></trkpt><trkpt lat="44.361024" lon="9.5067911"><ele>754.8</ele><time>2026-03-22T14:18:48.679Z</time></trkpt><trkpt lat="44.3609601" lon="9.5068058"><ele>757.6</ele><time>2026-03-22T14:18:49.679Z</time></trkpt><trkpt lat="44.3608399" lon="9.5068158"><ele>760.4</ele><time>2026-03-22T14:18:51.679Z</time></trkpt><trkpt lat="44.3607323" lon="9.5068495"><ele>763.1999999999999</ele><time>2026-03-22T14:18:53.679Z</time></trkpt><trkpt lat="44.3606164" lon="9.5069022"><ele>766.0</ele><time>2026-03-22T14:18:55.679Z</time></trkpt><trkpt lat="44.3605195" lon="9.5069408"><ele>766.6666666666667</ele><time>2026-03-22T14:18:57.679Z</time></trkpt><trkpt lat="44.36047" lon="9.5070217"><ele>767.3333333333334</ele><time>2026-03-22T14:18:59.679Z</time></trkpt><trkpt lat="44.3604367" lon="9.5071076"><ele>768.0</ele><time>2026-03-22T14:19:01.679Z</time></trkpt><trkpt lat="44.3604925" lon="9.5071506"><ele>768.6666666666667</ele><time>2026-03-22T14:19:03.679Z</time></trkpt><trkpt lat="44.3605719" lon="9.5072512"><ele>769.3333333333334</ele><time>2026-03-22T14:19:05.679Z</time></trkpt><trkpt lat="44.3606131" lon="9.5073301"><ele>770.0</ele><time>2026-03-22T14:19:06.679Z</time></trkpt><trkpt lat="44.3606429" lon="9.5074282"><ele>764.2</ele><time>2026-03-22T14:19:07.679Z</time></trkpt><trkpt lat="44.3606665" lon="9.5075137"><ele>758.4</ele><time>2026-03-22T14:19:08.679Z</time></trkpt><trkpt lat="44.3606966" lon="9.5076704"><ele>752.5999999999999</ele><time>2026-03-22T14:19:10.679Z</time></trkpt><trkpt lat="44.3607339" lon="9.5077926"><ele>746.8</ele><time>2026-03-22T14:19:12.679Z</time></trkpt><trkpt lat="44.3607014" lon="9.5079002"><ele>741.0</ele><time>2026-03-22T14:19:14.679Z</time></trkpt><trkpt lat="44.3606133" lon="9.5079704"><ele>744.8</ele><time>2026-03-22T14:19:16.679Z</time></trkpt><trkpt lat="44.3604824" lon="9.5079923"><ele>748.5999999999999</ele><time>2026-03-22T14:19:18.679Z</time></trkpt><trkpt lat="44.3604172" lon="9.5079862"><ele>752.4</ele><time>2026-03-22T14:19:19.679Z</time></trkpt><trkpt lat="44.3603092" lon="9.5079941"><ele>756.2</ele><time>2026-03-22T14:19:21.679Z</time></trkpt><trkpt lat="44.3602255" lon="9.5080062"><ele>760.0</ele><time>2026-03-22T14:19:24.679Z</time></trkpt><trkpt lat="44.3602339" lon="9.5080961"><ele>760.0</ele><time>2026-03-22T14:19:29.679Z</time></trkpt><trkpt lat="44.3603181" lon="9.5082099"><ele>760.0</ele><time>2026-03-22T14:19:31.679Z</time></trkpt><trkpt lat="44.3603724" lon="9.5083028"><ele>760.0</ele><time>2026-03-22T14:19:32.679Z</time></trkpt><trkpt lat="44.3604567" lon="9.5084124"><ele>760.0</ele><time>2026-03-22T14:19:34.679Z</time></trkpt><trkpt lat="44.3605467" lon="9.508517"><ele>760.0</ele><time>2026-03-22T14:19:36.679Z</time></trkpt><trkpt lat="44.3606373" lon="9.5086285"><ele>753.6</ele><time>2026-03-22T14:19:38.679Z</time></trkpt><trkpt lat="44.3607233" lon="9.5087176"><ele>747.2</ele><time>2026-03-22T14:19:40.679Z</time></trkpt><trkpt lat="44.3607981" lon="9.5087907"><ele>740.8</ele><time>2026-03-22T14:19:42.68Z</time></trkpt><trkpt lat="44.3608724" lon="9.5089044"><ele>734.4</ele><time>2026-03-22T14:19:44.679Z</time></trkpt><trkpt lat="44.3609407" lon="9.5089866"><ele>728.0</ele><time>2026-03-22T14:19:46.679Z</time></trkpt><trkpt lat="44.3610063" lon="9.5090517"><ele>726.5999999999999</ele><time>2026-03-22T14:19:48.679Z</time></trkpt><trkpt lat="44.3610461" lon="9.5091448"><ele>725.1999999999999</ele><time>2026-03-22T14:19:50.679Z</time></trkpt><trkpt lat="44.3609951" lon="9.5092473"><ele>723.8</ele><time>2026-03-22T14:19:52.679Z</time></trkpt><trkpt lat="44.3608986" lon="9.5093593"><ele>722.4</ele><time>2026-03-22T14:19:54.679Z</time></trkpt><trkpt lat="44.360792" lon="9.5094219"><ele>721.0</ele><time>2026-03-22T14:19:56.679Z</time></trkpt><trkpt lat="44.3607221" lon="9.5095519"><ele>721.75</ele><time>2026-03-22T14:19:58.679Z</time></trkpt><trkpt lat="44.3606401" lon="9.5096927"><ele>722.5</ele><time>2026-03-22T14:20:00.679Z</time></trkpt><trkpt lat="44.3605634" lon="9.5098123"><ele>723.25</ele><time>2026-03-22T14:20:02.679Z</time></trkpt><trkpt lat="44.3604788" lon="9.5099217"><ele>724.0</ele><time>2026-03-22T14:20:04.679Z</time></trkpt><trkpt lat="44.3603918" lon="9.5099893"><ele>724.0</ele><time>2026-03-22T14:20:06.679Z</time></trkpt><trkpt lat="44.3602824" lon="9.5100266"><ele>724.0</ele><time>2026-03-22T14:20:08.679Z</time></trkpt><trkpt lat="44.3602119" lon="9.5101137"><ele>724.0</ele><time>2026-03-22T14:20:10.679Z</time></trkpt><trkpt lat="44.3601941" lon="9.5102367"><ele>724.0</ele><time>2026-03-22T14:20:12.679Z</time></trkpt><trkpt lat="44.3601725" lon="9.510359"><ele>724.0</ele><time>2026-03-22T14:20:14.679Z</time></trkpt><trkpt lat="44.3602251" lon="9.5104673"><ele>725.3333333333334</ele><time>2026-03-22T14:20:17.68Z</time></trkpt><trkpt lat="44.3603045" lon="9.5105983"><ele>726.6666666666667</ele><time>2026-03-22T14:20:19.679Z</time></trkpt><trkpt lat="44.3603536" lon="9.5106826"><ele>728.0</ele><time>2026-03-22T14:20:20.679Z</time></trkpt><trkpt lat="44.3604011" lon="9.5107638"><ele>729.3333333333334</ele><time>2026-03-22T14:20:21.679Z</time></trkpt><trkpt lat="44.3604479" lon="9.5108319"><ele>730.6666666666666</ele><time>2026-03-22T14:20:22.68Z</time></trkpt><trkpt lat="44.3604971" lon="9.5108895"><ele>732.0</ele><time>2026-03-22T14:20:23.679Z</time></trkpt><trkpt lat="44.3605604" lon="9.5109269"><ele>727.4000000000001</ele><time>2026-03-22T14:20:24.679Z</time></trkpt><trkpt lat="44.3606183" lon="9.5109649"><ele>722.8000000000001</ele><time>2026-03-22T14:20:25.679Z</time></trkpt><trkpt lat="44.3607241" lon="9.5110003"><ele>718.2</ele><time>2026-03-22T14:20:27.679Z</time></trkpt><trkpt lat="44.360819" lon="9.511074"><ele>713.6</ele><time>2026-03-22T14:20:29.68Z</time></trkpt><trkpt lat="44.3609004" lon="9.5111193"><ele>709.0</ele><time>2026-03-22T14:20:31.68Z</time></trkpt><trkpt lat="44.3609939" lon="9.5110972"><ele>709.0</ele><time>2026-03-22T14:20:33.679Z</time></trkpt><trkpt lat="44.3611048" lon="9.5110404"><ele>709.0</ele><time>2026-03-22T14:20:35.68Z</time></trkpt><trkpt lat="44.3612247" lon="9.5110333"><ele>709.0</ele><time>2026-03-22T14:20:37.679Z</time></trkpt><trkpt lat="44.361334" lon="9.511067"><ele>709.0</ele><time>2026-03-22T14:20:39.679Z</time></trkpt><trkpt lat="44.3614018" lon="9.5111989"><ele>708.8000000000001</ele><time>2026-03-22T14:20:41.679Z</time></trkpt><trkpt lat="44.3614376" lon="9.5113429"><ele>708.6</ele><time>2026-03-22T14:20:43.679Z</time></trkpt><trkpt lat="44.3614346" lon="9.5114914"><ele>708.4</ele><time>2026-03-22T14:20:45.678Z</time></trkpt><trkpt lat="44.3614518" lon="9.511586"><ele>708.2</ele><time>2026-03-22T14:20:47.679Z</time></trkpt><trkpt lat="44.3615232" lon="9.5116943"><ele>708.0</ele><time>2026-03-22T14:20:49.679Z</time></trkpt><trkpt lat="44.3615994" lon="9.5117385"><ele>708.0</ele><time>2026-03-22T14:20:50.68Z</time></trkpt><trkpt lat="44.3617288" lon="9.5117518"><ele>708.0</ele><time>2026-03-22T14:20:52.678Z</time></trkpt><trkpt lat="44.3618047" lon="9.5117379"><ele>708.0</ele><time>2026-03-22T14:20:53.679Z</time></trkpt><trkpt lat="44.361887" lon="9.5117099"><ele>708.0</ele><time>2026-03-22T14:20:54.679Z</time></trkpt><trkpt lat="44.3619624" lon="9.5116647"><ele>708.0</ele><time>2026-03-22T14:20:55.679Z</time></trkpt><trkpt lat="44.3620295" lon="9.5116174"><ele>708.0</ele><time>2026-03-22T14:20:56.679Z</time></trkpt><trkpt lat="44.3620947" lon="9.5115727"><ele>708.0</ele><time>2026-03-22T14:20:57.679Z</time></trkpt><trkpt lat="44.3621647" lon="9.5115425"><ele>708.0</ele><time>2026-03-22T14:20:58.679Z</time></trkpt><trkpt lat="44.3622267" lon="9.5115185"><ele>708.0</ele><time>2026-03-22T14:20:59.679Z</time></trkpt><trkpt lat="44.3623381" lon="9.5114639"><ele>708.0</ele><time>2026-03-22T14:21:01.678Z</time></trkpt><trkpt lat="44.3624605" lon="9.5114275"><ele>708.0</ele><time>2026-03-22T14:21:03.679Z</time></trkpt><trkpt lat="44.3625336" lon="9.5114397"><ele>707.0</ele><time>2026-03-22T14:21:04.679Z</time></trkpt><trkpt lat="44.3626031" lon="9.5114464"><ele>706.0</ele><time>2026-03-22T14:21:05.68Z</time></trkpt><trkpt lat="44.362676" lon="9.511456"><ele>705.0</ele><time>2026-03-22T14:21:06.68Z</time></trkpt><trkpt lat="44.3627794" lon="9.5114636"><ele>704.0</ele><time>2026-03-22T14:21:08.679Z</time></trkpt><trkpt lat="44.3628424" lon="9.5115454"><ele>703.0</ele><time>2026-03-22T14:21:10.68Z</time></trkpt><trkpt lat="44.3628755" lon="9.5116625"><ele>702.0</ele><time>2026-03-22T14:21:12.679Z</time></trkpt><trkpt lat="44.3629252" lon="9.5118082"><ele>702.0</ele><time>2026-03-22T14:21:14.679Z</time></trkpt><trkpt lat="44.3629762" lon="9.5118794"><ele>702.0</ele><time>2026-03-22T14:21:17.679Z</time></trkpt><trkpt lat="44.3630729" lon="9.5118936"><ele>702.0</ele><time>2026-03-22T14:21:19.679Z</time></trkpt><trkpt lat="44.36316" lon="9.5119123"><ele>702.0</ele><time>2026-03-22T14:21:22.679Z</time></trkpt><trkpt lat="44.3632264" lon="9.5118289"><ele>702.0</ele><time>2026-03-22T14:21:23.679Z</time></trkpt><trkpt lat="44.3632837" lon="9.5117584"><ele>702.0</ele><time>2026-03-22T14:21:24.679Z</time></trkpt><trkpt lat="44.363339" lon="9.5117075"><ele>700.2</ele><time>2026-03-22T14:21:25.679Z</time></trkpt><trkpt lat="44.3633961" lon="9.5116506"><ele>698.4000000000001</ele><time>2026-03-22T14:21:26.68Z</time></trkpt><trkpt lat="44.3634471" lon="9.5115972"><ele>696.5999999999999</ele><time>2026-03-22T14:21:27.68Z</time></trkpt><trkpt lat="44.3635298" lon="9.5114944"><ele>694.8</ele><time>2026-03-22T14:21:29.679Z</time></trkpt><trkpt lat="44.3636272" lon="9.5114398"><ele>693.0</ele><time>2026-03-22T14:21:31.679Z</time></trkpt><trkpt lat="44.3637416" lon="9.5114308"><ele>693.0</ele><time>2026-03-22T14:21:33.679Z</time></trkpt><trkpt lat="44.3638086" lon="9.511465"><ele>693.0</ele><time>2026-03-22T14:21:34.679Z</time></trkpt><trkpt lat="44.3638836" lon="9.5115086"><ele>693.0</ele><time>2026-03-22T14:21:35.679Z</time></trkpt><trkpt lat="44.3639584" lon="9.5115415"><ele>693.0</ele><time>2026-03-22T14:21:36.679Z</time></trkpt><trkpt lat="44.3640698" lon="9.5115816"><ele>693.0</ele><time>2026-03-22T14:21:38.679Z</time></trkpt><trkpt lat="44.3641265" lon="9.5116334"><ele>693.0</ele><time>2026-03-22T14:21:39.68Z</time></trkpt><trkpt lat="44.3641856" lon="9.51167"><ele>691.1666666666666</ele><time>2026-03-22T14:21:40.679Z</time></trkpt><trkpt lat="44.3642528" lon="9.5117044"><ele>689.3333333333334</ele><time>2026-03-22T14:21:41.679Z</time></trkpt><trkpt lat="44.3643274" lon="9.5117458"><ele>687.5</ele><time>2026-03-22T14:21:42.679Z</time></trkpt><trkpt lat="44.3643943" lon="9.5118041"><ele>685.6666666666667</ele><time>2026-03-22T14:21:43.679Z</time></trkpt><trkpt lat="44.3644536" lon="9.5118831"><ele>683.8333333333334</ele><time>2026-03-22T14:21:45.68Z</time></trkpt><trkpt lat="44.3645506" lon="9.511903"><ele>682.0</ele><time>2026-03-22T14:21:47.679Z</time></trkpt><trkpt lat="44.3646203" lon="9.5119044"><ele>682.0</ele><time>2026-03-22T14:21:48.679Z</time></trkpt><trkpt lat="44.3646908" lon="9.5119075"><ele>682.0</ele><time>2026-03-22T14:21:49.68Z</time></trkpt><trkpt lat="44.3647584" lon="9.5118793"><ele>682.0</ele><time>2026-03-22T14:21:50.679Z</time></trkpt><trkpt lat="44.3648298" lon="9.5118617"><ele>682.0</ele><time>2026-03-22T14:21:51.679Z</time></trkpt><trkpt lat="44.3648967" lon="9.5117297"><ele>682.0</ele><time>2026-03-22T14:21:53.679Z</time></trkpt><trkpt lat="44.3649313" lon="9.5116501"><ele>682.0</ele><time>2026-03-22T14:21:54.679Z</time></trkpt><trkpt lat="44.3649747" lon="9.5115842"><ele>680.1666666666667</ele><time>2026-03-22T14:21:55.679Z</time></trkpt><trkpt lat="44.3650496" lon="9.5114993"><ele>678.3333333333334</ele><time>2026-03-22T14:21:57.679Z</time></trkpt><trkpt lat="44.3651341" lon="9.5114749"><ele>676.5</ele><time>2026-03-22T14:21:59.679Z</time></trkpt><trkpt lat="44.3652492" lon="9.5115347"><ele>674.6666666666666</ele><time>2026-03-22T14:22:01.68Z</time></trkpt><trkpt lat="44.3653016" lon="9.511612"><ele>672.8333333333333</ele><time>2026-03-22T14:22:02.679Z</time></trkpt><trkpt lat="44.3653312" lon="9.5116913"><ele>671.0</ele><time>2026-03-22T14:22:03.679Z</time></trkpt><trkpt lat="44.3653703" lon="9.5117693"><ele>671.0</ele><time>2026-03-22T14:22:04.679Z</time></trkpt><trkpt lat="44.3654207" lon="9.5119253"><ele>671.0</ele><time>2026-03-22T14:22:06.679Z</time></trkpt><trkpt lat="44.3654523" lon="9.5120131"><ele>671.0</ele><time>2026-03-22T14:22:07.679Z</time></trkpt><trkpt lat="44.3654917" lon="9.512092"><ele>671.0</ele><time>2026-03-22T14:22:08.679Z</time></trkpt><trkpt lat="44.3655357" lon="9.5121647"><ele>671.0</ele><time>2026-03-22T14:22:09.679Z</time></trkpt><trkpt lat="44.3655871" lon="9.5122313"><ele>671.0</ele><time>2026-03-22T14:22:10.678Z</time></trkpt><trkpt lat="44.365642" lon="9.5122904"><ele>671.1666666666666</ele><time>2026-03-22T14:22:11.679Z</time></trkpt><trkpt lat="44.3656939" lon="9.5123455"><ele>671.3333333333333</ele><time>2026-03-22T14:22:12.68Z</time></trkpt><trkpt lat="44.3657522" lon="9.5123807"><ele>671.5</ele><time>2026-03-22T14:22:13.679Z</time></trkpt><trkpt lat="44.3658154" lon="9.5124089"><ele>671.6666666666666</ele><time>2026-03-22T14:22:14.678Z</time></trkpt><trkpt lat="44.3658777" lon="9.5124352"><ele>671.8333333333334</ele><time>2026-03-22T14:22:15.679Z</time></trkpt><trkpt lat="44.3659713" lon="9.5124994"><ele>672.0</ele><time>2026-03-22T14:22:17.679Z</time></trkpt><trkpt lat="44.3660476" lon="9.5126003"><ele>672.0</ele><time>2026-03-22T14:22:19.679Z</time></trkpt><trkpt lat="44.3661109" lon="9.5127335"><ele>672.0</ele><time>2026-03-22T14:22:21.679Z</time></trkpt><trkpt lat="44.3661499" lon="9.5128273"><ele>672.0</ele><time>2026-03-22T14:22:22.678Z</time></trkpt><trkpt lat="44.3661725" lon="9.5129518"><ele>672.0</ele><time>2026-03-22T14:22:23.679Z</time></trkpt><trkpt lat="44.3661929" lon="9.5130717"><ele>672.0</ele><time>2026-03-22T14:22:24.679Z</time></trkpt><trkpt lat="44.3662156" lon="9.5131802"><ele>671.0</ele><time>2026-03-22T14:22:25.679Z</time></trkpt><trkpt lat="44.3662366" lon="9.5132748"><ele>670.0</ele><time>2026-03-22T14:22:26.679Z</time></trkpt><trkpt lat="44.3662582" lon="9.5133591"><ele>669.0</ele><time>2026-03-22T14:22:27.679Z</time></trkpt><trkpt lat="44.3663062" lon="9.5134806"><ele>668.0</ele><time>2026-03-22T14:22:29.679Z</time></trkpt><trkpt lat="44.366361" lon="9.5136102"><ele>667.0</ele><time>2026-03-22T14:22:31.679Z</time></trkpt><trkpt lat="44.3664195" lon="9.5136947"><ele>666.0</ele><time>2026-03-22T14:22:33.679Z</time></trkpt><trkpt lat="44.3664928" lon="9.5137121"><ele>666.0</ele><time>2026-03-22T14:22:35.679Z</time></trkpt><trkpt lat="44.3665944" lon="9.5136699"><ele>666.0</ele><time>2026-03-22T14:22:37.679Z</time></trkpt><trkpt lat="44.3666582" lon="9.5135845"><ele>666.0</ele><time>2026-03-22T14:22:38.68Z</time></trkpt><trkpt lat="44.366724" lon="9.5134862"><ele>666.0</ele><time>2026-03-22T14:22:39.679Z</time></trkpt><trkpt lat="44.3667913" lon="9.5134028"><ele>666.0</ele><time>2026-03-22T14:22:40.679Z</time></trkpt><trkpt lat="44.3668571" lon="9.5133402"><ele>666.0</ele><time>2026-03-22T14:22:41.679Z</time></trkpt><trkpt lat="44.3669102" lon="9.513291"><ele>666.0</ele><time>2026-03-22T14:22:42.679Z</time></trkpt><trkpt lat="44.3669596" lon="9.5132309"><ele>666.0</ele><time>2026-03-22T14:22:43.679Z</time></trkpt><trkpt lat="44.3670174" lon="9.5131649"><ele>666.0</ele><time>2026-03-22T14:22:44.679Z</time></trkpt><trkpt lat="44.3670755" lon="9.5130921"><ele>666.0</ele><time>2026-03-22T14:22:45.679Z</time></trkpt><trkpt lat="44.3671304" lon="9.5130207"><ele>666.0</ele><time>2026-03-22T14:22:46.679Z</time></trkpt><trkpt lat="44.3671698" lon="9.5129518"><ele>666.0</ele><time>2026-03-22T14:22:47.679Z</time></trkpt><trkpt lat="44.3672375" lon="9.5128044"><ele>664.8333333333334</ele><time>2026-03-22T14:22:49.679Z</time></trkpt><trkpt lat="44.367303" lon="9.512758"><ele>663.6666666666666</ele><time>2026-03-22T14:22:50.679Z</time></trkpt><trkpt lat="44.3673814" lon="9.5127272"><ele>662.5</ele><time>2026-03-22T14:22:51.68Z</time></trkpt><trkpt lat="44.3674611" lon="9.5127197"><ele>661.3333333333333</ele><time>2026-03-22T14:22:52.679Z</time></trkpt><trkpt lat="44.3675586" lon="9.5127445"><ele>660.1666666666666</ele><time>2026-03-22T14:22:53.68Z</time></trkpt><trkpt lat="44.3676651" lon="9.5127739"><ele>659.0</ele><time>2026-03-22T14:22:54.679Z</time></trkpt><trkpt lat="44.3677683" lon="9.5128065"><ele>659.0</ele><time>2026-03-22T14:22:55.679Z</time></trkpt><trkpt lat="44.3678558" lon="9.5128364"><ele>659.0</ele><time>2026-03-22T14:22:56.679Z</time></trkpt><trkpt lat="44.3679148" lon="9.5129003"><ele>659.0</ele><time>2026-03-22T14:22:57.679Z</time></trkpt><trkpt lat="44.3679801" lon="9.512965"><ele>659.0</ele><time>2026-03-22T14:22:58.679Z</time></trkpt><trkpt lat="44.3680315" lon="9.5130429"><ele>659.0</ele><time>2026-03-22T14:22:59.68Z</time></trkpt><trkpt lat="44.3680841" lon="9.5131108"><ele>659.0</ele><time>2026-03-22T14:23:00.679Z</time></trkpt><trkpt lat="44.3681408" lon="9.5131621"><ele>662.8571428571429</ele><time>2026-03-22T14:23:01.679Z</time></trkpt><trkpt lat="44.3681969" lon="9.5132057"><ele>666.7142857142857</ele><time>2026-03-22T14:23:02.679Z</time></trkpt><trkpt lat="44.3682624" lon="9.5131818"><ele>670.5714285714286</ele><time>2026-03-22T14:23:03.679Z</time></trkpt><trkpt lat="44.3683269" lon="9.5131272"><ele>674.4285714285714</ele><time>2026-03-22T14:23:04.679Z</time></trkpt><trkpt lat="44.3683877" lon="9.5130653"><ele>678.2857142857142</ele><time>2026-03-22T14:23:05.679Z</time></trkpt><trkpt lat="44.3684537" lon="9.5130173"><ele>682.1428571428571</ele><time>2026-03-22T14:23:06.679Z</time></trkpt><trkpt lat="44.3685403" lon="9.5129921"><ele>686.0</ele><time>2026-03-22T14:23:07.679Z</time></trkpt><trkpt lat="44.3686216" lon="9.5129805"><ele>686.0</ele><time>2026-03-22T14:23:08.68Z</time></trkpt><trkpt lat="44.368739" lon="9.5129621"><ele>686.0</ele><time>2026-03-22T14:23:10.679Z</time></trkpt><trkpt lat="44.3688084" lon="9.5130222"><ele>686.0</ele><time>2026-03-22T14:23:11.679Z</time></trkpt><trkpt lat="44.3688764" lon="9.5130838"><ele>686.0</ele><time>2026-03-22T14:23:12.678Z</time></trkpt><trkpt lat="44.3689433" lon="9.5131973"><ele>686.0</ele><time>2026-03-22T14:23:13.679Z</time></trkpt><trkpt lat="44.369011" lon="9.5132909"><ele>683.5</ele><time>2026-03-22T14:23:14.679Z</time></trkpt><trkpt lat="44.3690772" lon="9.5133756"><ele>681.0</ele><time>2026-03-22T14:23:15.679Z</time></trkpt><trkpt lat="44.3691328" lon="9.5134237"><ele>678.5</ele><time>2026-03-22T14:23:16.679Z</time></trkpt><trkpt lat="44.36919" lon="9.5134673"><ele>676.0</ele><time>2026-03-22T14:23:17.679Z</time></trkpt><trkpt lat="44.3693151" lon="9.5135044"><ele>673.5</ele><time>2026-03-22T14:23:19.679Z</time></trkpt><trkpt lat="44.36938" lon="9.5135108"><ele>671.0</ele><time>2026-03-22T14:23:20.679Z</time></trkpt><trkpt lat="44.3694402" lon="9.5134735"><ele>671.0</ele><time>2026-03-22T14:23:21.679Z</time></trkpt><trkpt lat="44.369504" lon="9.5134497"><ele>671.0</ele><time>2026-03-22T14:23:22.678Z</time></trkpt><trkpt lat="44.3695695" lon="9.513444"><ele>671.0</ele><time>2026-03-22T14:23:23.68Z</time></trkpt><trkpt lat="44.3696336" lon="9.5134632"><ele>671.0</ele><time>2026-03-22T14:23:24.679Z</time></trkpt><trkpt lat="44.3697034" lon="9.5135083"><ele>671.0</ele><time>2026-03-22T14:23:25.679Z</time></trkpt><trkpt lat="44.3697778" lon="9.5135712"><ele>671.0</ele><time>2026-03-22T14:23:26.68Z</time></trkpt><trkpt lat="44.3698548" lon="9.5136261"><ele>671.0</ele><time>2026-03-22T14:23:27.679Z</time></trkpt><trkpt lat="44.3699325" lon="9.5136888"><ele>673.8333333333333</ele><time>2026-03-22T14:23:28.679Z</time></trkpt><trkpt lat="44.3700002" lon="9.5137522"><ele>676.6666666666666</ele><time>2026-03-22T14:23:29.679Z</time></trkpt><trkpt lat="44.3700591" lon="9.5138353"><ele>679.5</ele><time>2026-03-22T14:23:30.679Z</time></trkpt><trkpt lat="44.370113" lon="9.5139145"><ele>682.3333333333334</ele><time>2026-03-22T14:23:31.679Z</time></trkpt><trkpt lat="44.37017" lon="9.5139909"><ele>685.1666666666667</ele><time>2026-03-22T14:23:32.679Z</time></trkpt><trkpt lat="44.3702461" lon="9.5140398"><ele>688.0</ele><time>2026-03-22T14:23:33.679Z</time></trkpt><trkpt lat="44.3703322" lon="9.5140691"><ele>688.0</ele><time>2026-03-22T14:23:34.68Z</time></trkpt><trkpt lat="44.3704444" lon="9.5140924"><ele>688.0</ele><time>2026-03-22T14:23:35.679Z</time></trkpt><trkpt lat="44.3705474" lon="9.5141212"><ele>688.0</ele><time>2026-03-22T14:23:36.679Z</time></trkpt><trkpt lat="44.3706516" lon="9.5141645"><ele>688.0</ele><time>2026-03-22T14:23:37.679Z</time></trkpt><trkpt lat="44.370746" lon="9.5142168"><ele>688.0</ele><time>2026-03-22T14:23:38.679Z</time></trkpt><trkpt lat="44.3708234" lon="9.5143054"><ele>685.3333333333334</ele><time>2026-03-22T14:23:39.679Z</time></trkpt><trkpt lat="44.3708871" lon="9.5143674"><ele>682.6666666666667</ele><time>2026-03-22T14:23:40.679Z</time></trkpt><trkpt lat="44.3709761" lon="9.5143967"><ele>680.0</ele><time>2026-03-22T14:23:41.679Z</time></trkpt><trkpt lat="44.371051" lon="9.5144314"><ele>677.3333333333334</ele><time>2026-03-22T14:23:42.679Z</time></trkpt><trkpt lat="44.3711302" lon="9.5144545"><ele>674.6666666666666</ele><time>2026-03-22T14:23:43.679Z</time></trkpt><trkpt lat="44.3712121" lon="9.5144634"><ele>672.0</ele><time>2026-03-22T14:23:44.679Z</time></trkpt><trkpt lat="44.3712983" lon="9.5144691"><ele>670.6666666666666</ele><time>2026-03-22T14:23:45.679Z</time></trkpt><trkpt lat="44.3713708" lon="9.5144584"><ele>669.3333333333334</ele><time>2026-03-22T14:23:46.68Z</time></trkpt><trkpt lat="44.371448" lon="9.5144265"><ele>668.0</ele><time>2026-03-22T14:23:47.679Z</time></trkpt><trkpt lat="44.371526" lon="9.5143883"><ele>666.6666666666667</ele><time>2026-03-22T14:23:48.679Z</time></trkpt><trkpt lat="44.371592" lon="9.51437"><ele>665.3333333333334</ele><time>2026-03-22T14:23:49.679Z</time></trkpt><trkpt lat="44.3716948" lon="9.5143686"><ele>664.0</ele><time>2026-03-22T14:23:51.679Z</time></trkpt><trkpt lat="44.371765" lon="9.5144428"><ele>666.6666666666667</ele><time>2026-03-22T14:23:53.679Z</time></trkpt><trkpt lat="44.371769" lon="9.5145793"><ele>669.3333333333334</ele><time>2026-03-22T14:23:55.679Z</time></trkpt><trkpt lat="44.3717533" lon="9.5146803"><ele>672.0</ele><time>2026-03-22T14:23:56.679Z</time></trkpt><trkpt lat="44.3717226" lon="9.5148036"><ele>674.6666666666666</ele><time>2026-03-22T14:23:57.679Z</time></trkpt><trkpt lat="44.3717135" lon="9.5149142"><ele>677.3333333333333</ele><time>2026-03-22T14:23:58.68Z</time></trkpt><trkpt lat="44.3717076" lon="9.515019"><ele>680.0</ele><time>2026-03-22T14:23:59.679Z</time></trkpt><trkpt lat="44.3716921" lon="9.5151144"><ele>680.0</ele><time>2026-03-22T14:24:00.679Z</time></trkpt><trkpt lat="44.3717139" lon="9.5152571"><ele>680.0</ele><time>2026-03-22T14:24:02.679Z</time></trkpt><trkpt lat="44.3717473" lon="9.5154506"><ele>680.0</ele><time>2026-03-22T14:24:04.679Z</time></trkpt><trkpt lat="44.3717912" lon="9.5155581"><ele>680.0</ele><time>2026-03-22T14:24:05.679Z</time></trkpt><trkpt lat="44.3718608" lon="9.5156839"><ele>680.0</ele><time>2026-03-22T14:24:06.679Z</time></trkpt><trkpt lat="44.3719651" lon="9.5157555"><ele>681.5</ele><time>2026-03-22T14:24:07.678Z</time></trkpt><trkpt lat="44.3720751" lon="9.5157769"><ele>683.0</ele><time>2026-03-22T14:24:08.679Z</time></trkpt><trkpt lat="44.3721653" lon="9.5157966"><ele>684.5</ele><time>2026-03-22T14:24:09.679Z</time></trkpt><trkpt lat="44.3722135" lon="9.5158551"><ele>686.0</ele><time>2026-03-22T14:24:10.679Z</time></trkpt><trkpt lat="44.3722555" lon="9.5159268"><ele>687.5</ele><time>2026-03-22T14:24:11.679Z</time></trkpt><trkpt lat="44.3723018" lon="9.5159975"><ele>689.0</ele><time>2026-03-22T14:24:12.68Z</time></trkpt><trkpt lat="44.372299" lon="9.5161346"><ele>686.5</ele><time>2026-03-22T14:24:13.679Z</time></trkpt><trkpt lat="44.3723051" lon="9.5162511"><ele>684.0</ele><time>2026-03-22T14:24:14.679Z</time></trkpt><trkpt lat="44.372301" lon="9.5163555"><ele>681.5</ele><time>2026-03-22T14:24:15.678Z</time></trkpt><trkpt lat="44.3723075" lon="9.5164548"><ele>679.0</ele><time>2026-03-22T14:24:16.679Z</time></trkpt><trkpt lat="44.3723039" lon="9.5165596"><ele>676.5</ele><time>2026-03-22T14:24:17.679Z</time></trkpt><trkpt lat="44.3723687" lon="9.5165972"><ele>674.0</ele><time>2026-03-22T14:24:18.679Z</time></trkpt><trkpt lat="44.3724414" lon="9.5166257"><ele>674.0</ele><time>2026-03-22T14:24:19.679Z</time></trkpt><trkpt lat="44.3725489" lon="9.5166288"><ele>674.0</ele><time>2026-03-22T14:24:20.679Z</time></trkpt><trkpt lat="44.3726415" lon="9.5166326"><ele>674.0</ele><time>2026-03-22T14:24:21.679Z</time></trkpt><trkpt lat="44.3727068" lon="9.5166448"><ele>674.0</ele><time>2026-03-22T14:24:22.679Z</time></trkpt><trkpt lat="44.3727715" lon="9.5167259"><ele>674.0</ele><time>2026-03-22T14:24:24.678Z</time></trkpt><trkpt lat="44.3727902" lon="9.5168631"><ele>674.0</ele><time>2026-03-22T14:24:26.679Z</time></trkpt><trkpt lat="44.3727961" lon="9.5169705"><ele>674.0</ele><time>2026-03-22T14:24:27.678Z</time></trkpt><trkpt lat="44.372796" lon="9.5170896"><ele>674.0</ele><time>2026-03-22T14:24:28.679Z</time></trkpt><trkpt lat="44.3727944" lon="9.5171986"><ele>674.0</ele><time>2026-03-22T14:24:29.68Z</time></trkpt><trkpt lat="44.3727846" lon="9.5173017"><ele>674.0</ele><time>2026-03-22T14:24:30.679Z</time></trkpt><trkpt lat="44.3727693" lon="9.5173965"><ele>674.0</ele><time>2026-03-22T14:24:31.68Z</time></trkpt><trkpt lat="44.3727556" lon="9.517492"><ele>675.4000000000001</ele><time>2026-03-22T14:24:32.679Z</time></trkpt><trkpt lat="44.3727485" lon="9.5175858"><ele>676.8</ele><time>2026-03-22T14:24:33.679Z</time></trkpt><trkpt lat="44.3727507" lon="9.5177364"><ele>678.2</ele><time>2026-03-22T14:24:35.679Z</time></trkpt><trkpt lat="44.3727964" lon="9.5178814"><ele>679.5999999999999</ele><time>2026-03-22T14:24:37.679Z</time></trkpt><trkpt lat="44.3728539" lon="9.5179349"><ele>681.0</ele><time>2026-03-22T14:24:38.679Z</time></trkpt><trkpt lat="44.3729393" lon="9.5179856"><ele>681.1666666666666</ele><time>2026-03-22T14:24:39.679Z</time></trkpt><trkpt lat="44.373013" lon="9.5180349"><ele>681.3333333333334</ele><time>2026-03-22T14:24:40.678Z</time></trkpt><trkpt lat="44.3730622" lon="9.5180985"><ele>681.5</ele><time>2026-03-22T14:24:41.679Z</time></trkpt><trkpt lat="44.3731089" lon="9.5181671"><ele>681.6666666666667</ele><time>2026-03-22T14:24:42.679Z</time></trkpt><trkpt lat="44.3731476" lon="9.5182726"><ele>681.8333333333334</ele><time>2026-03-22T14:24:43.679Z</time></trkpt><trkpt lat="44.3731908" lon="9.5183924"><ele>682.0</ele><time>2026-03-22T14:24:44.679Z</time></trkpt><trkpt lat="44.3732226" lon="9.5184988"><ele>678.6</ele><time>2026-03-22T14:24:45.679Z</time></trkpt><trkpt lat="44.3732527" lon="9.5185816"><ele>675.2</ele><time>2026-03-22T14:24:46.679Z</time></trkpt><trkpt lat="44.3732942" lon="9.5186521"><ele>671.8</ele><time>2026-03-22T14:24:47.679Z</time></trkpt><trkpt lat="44.3733246" lon="9.518785"><ele>668.4</ele><time>2026-03-22T14:24:49.679Z</time></trkpt><trkpt lat="44.3732767" lon="9.5189163"><ele>665.0</ele><time>2026-03-22T14:24:51.68Z</time></trkpt><trkpt lat="44.3731909" lon="9.5190321"><ele>663.2</ele><time>2026-03-22T14:24:53.679Z</time></trkpt><trkpt lat="44.3730702" lon="9.5191378"><ele>661.4</ele><time>2026-03-22T14:24:55.679Z</time></trkpt><trkpt lat="44.3730041" lon="9.5191875"><ele>659.5999999999999</ele><time>2026-03-22T14:24:56.679Z</time></trkpt><trkpt lat="44.3729345" lon="9.519245"><ele>657.8</ele><time>2026-03-22T14:24:57.68Z</time></trkpt><trkpt lat="44.3729095" lon="9.5194104"><ele>656.0</ele><time>2026-03-22T14:25:01.679Z</time></trkpt><trkpt lat="44.3728781" lon="9.5195337"><ele>660.6666666666666</ele><time>2026-03-22T14:25:02.679Z</time></trkpt><trkpt lat="44.372862" lon="9.5196231"><ele>665.3333333333333</ele><time>2026-03-22T14:25:03.679Z</time></trkpt><trkpt lat="44.3728578" lon="9.5197349"><ele>670.0</ele><time>2026-03-22T14:25:04.679Z</time></trkpt><trkpt lat="44.3728626" lon="9.5198394"><ele>674.6666666666666</ele><time>2026-03-22T14:25:05.679Z</time></trkpt><trkpt lat="44.3728703" lon="9.519931"><ele>679.3333333333334</ele><time>2026-03-22T14:25:06.679Z</time></trkpt><trkpt lat="44.3728762" lon="9.5200231"><ele>684.0</ele><time>2026-03-22T14:25:07.68Z</time></trkpt><trkpt lat="44.3728355" lon="9.5201654"><ele>683.9999999999999</ele><time>2026-03-22T14:25:09.679Z</time></trkpt><trkpt lat="44.3728069" lon="9.5202532"><ele>684.0</ele><time>2026-03-22T14:25:10.679Z</time></trkpt><trkpt lat="44.3727387" lon="9.5203034"><ele>684.0</ele><time>2026-03-22T14:25:11.68Z</time></trkpt><trkpt lat="44.3726778" lon="9.5203475"><ele>684.0</ele><time>2026-03-22T14:25:12.678Z</time></trkpt><trkpt lat="44.3726472" lon="9.5204339"><ele>684.0</ele><time>2026-03-22T14:25:13.679Z</time></trkpt><trkpt lat="44.3726282" lon="9.5205211"><ele>683.9999999999999</ele><time>2026-03-22T14:25:14.679Z</time></trkpt><trkpt lat="44.3726121" lon="9.5206193"><ele>684.0</ele><time>2026-03-22T14:25:15.679Z</time></trkpt><trkpt lat="44.3725761" lon="9.5207214"><ele>682.4000000000001</ele><time>2026-03-22T14:25:16.679Z</time></trkpt><trkpt lat="44.3725533" lon="9.5208181"><ele>680.8</ele><time>2026-03-22T14:25:17.678Z</time></trkpt><trkpt lat="44.3724947" lon="9.5209558"><ele>679.2</ele><time>2026-03-22T14:25:19.679Z</time></trkpt><trkpt lat="44.3725149" lon="9.5210608"><ele>677.5999999999999</ele><time>2026-03-22T14:25:21.679Z</time></trkpt><trkpt lat="44.3726158" lon="9.5211276"><ele>676.0</ele><time>2026-03-22T14:25:23.679Z</time></trkpt><trkpt lat="44.3726943" lon="9.5211445"><ele>676.0</ele><time>2026-03-22T14:25:24.679Z</time></trkpt><trkpt lat="44.372819" lon="9.5211035"><ele>676.0</ele><time>2026-03-22T14:25:25.68Z</time></trkpt><trkpt lat="44.3729349" lon="9.5210649"><ele>676.0</ele><time>2026-03-22T14:25:26.679Z</time></trkpt><trkpt lat="44.3730393" lon="9.5210256"><ele>676.0</ele><time>2026-03-22T14:25:27.679Z</time></trkpt><trkpt lat="44.373143" lon="9.5209931"><ele>669.5999999999999</ele><time>2026-03-22T14:25:28.68Z</time></trkpt><trkpt lat="44.3732386" lon="9.5209537"><ele>663.2</ele><time>2026-03-22T14:25:29.679Z</time></trkpt><trkpt lat="44.3733314" lon="9.5209196"><ele>656.8</ele><time>2026-03-22T14:25:30.679Z</time></trkpt><trkpt lat="44.3734152" lon="9.5208622"><ele>650.4000000000001</ele><time>2026-03-22T14:25:31.679Z</time></trkpt><trkpt lat="44.3734806" lon="9.520841"><ele>644.0</ele><time>2026-03-22T14:25:32.679Z</time></trkpt><trkpt lat="44.3736144" lon="9.520905"><ele>644.0</ele><time>2026-03-22T14:25:34.679Z</time></trkpt><trkpt lat="44.3736953" lon="9.5209768"><ele>644.0</ele><time>2026-03-22T14:25:35.678Z</time></trkpt><trkpt lat="44.3737559" lon="9.5210324"><ele>644.0</ele><time>2026-03-22T14:25:36.679Z</time></trkpt><trkpt lat="44.3738262" lon="9.5211213"><ele>644.0</ele><time>2026-03-22T14:25:37.679Z</time></trkpt><trkpt lat="44.3738826" lon="9.5212036"><ele>644.0</ele><time>2026-03-22T14:25:38.679Z</time></trkpt><trkpt lat="44.3739439" lon="9.5212797"><ele>644.0</ele><time>2026-03-22T14:25:39.679Z</time></trkpt><trkpt lat="44.3740041" lon="9.5213524"><ele>643.5</ele><time>2026-03-22T14:25:40.679Z</time></trkpt><trkpt lat="44.3740566" lon="9.52142"><ele>643.0</ele><time>2026-03-22T14:25:41.679Z</time></trkpt><trkpt lat="44.3741022" lon="9.5214907"><ele>642.5</ele><time>2026-03-22T14:25:42.679Z</time></trkpt><trkpt lat="44.3741462" lon="9.5215634"><ele>642.0</ele><time>2026-03-22T14:25:43.679Z</time></trkpt><trkpt lat="44.3741638" lon="9.5216864"><ele>641.5</ele><time>2026-03-22T14:25:44.679Z</time></trkpt><trkpt lat="44.3741852" lon="9.5218073"><ele>641.0</ele><time>2026-03-22T14:25:45.679Z</time></trkpt><trkpt lat="44.3742075" lon="9.5219144"><ele>641.0</ele><time>2026-03-22T14:25:46.679Z</time></trkpt><trkpt lat="44.3742346" lon="9.5220163"><ele>641.0</ele><time>2026-03-22T14:25:47.679Z</time></trkpt><trkpt lat="44.3742755" lon="9.5221072"><ele>641.0</ele><time>2026-03-22T14:25:48.679Z</time></trkpt><trkpt lat="44.3743112" lon="9.5221837"><ele>641.0</ele><time>2026-03-22T14:25:49.679Z</time></trkpt><trkpt lat="44.374389" lon="9.5222469"><ele>641.0</ele><time>2026-03-22T14:25:51.679Z</time></trkpt><trkpt lat="44.3744501" lon="9.5222823"><ele>641.0</ele><time>2026-03-22T14:25:54.679Z</time></trkpt><trkpt lat="44.3744994" lon="9.5223484"><ele>641.0</ele><time>2026-03-22T14:26:02.697Z</time></trkpt><trkpt lat="44.3745625" lon="9.5224459"><ele>641.3333333333333</ele><time>2026-03-22T14:26:03.679Z</time></trkpt><trkpt lat="44.3746171" lon="9.5225122"><ele>641.6666666666666</ele><time>2026-03-22T14:26:04.679Z</time></trkpt><trkpt lat="44.3746565" lon="9.5226594"><ele>642.0</ele><time>2026-03-22T14:26:06.679Z</time></trkpt><trkpt lat="44.3746958" lon="9.522743"><ele>642.3333333333334</ele><time>2026-03-22T14:26:07.679Z</time></trkpt><trkpt lat="44.3747241" lon="9.5228414"><ele>642.6666666666667</ele><time>2026-03-22T14:26:08.679Z</time></trkpt><trkpt lat="44.3747097" lon="9.5229512"><ele>643.0</ele><time>2026-03-22T14:26:09.679Z</time></trkpt><trkpt lat="44.3746767" lon="9.5230824"><ele>643.0</ele><time>2026-03-22T14:26:10.679Z</time></trkpt><trkpt lat="44.3746857" lon="9.5231866"><ele>643.0</ele><time>2026-03-22T14:26:11.679Z</time></trkpt><trkpt lat="44.3747089" lon="9.5232958"><ele>643.0</ele><time>2026-03-22T14:26:12.68Z</time></trkpt><trkpt lat="44.3747274" lon="9.52341"><ele>643.0</ele><time>2026-03-22T14:26:13.679Z</time></trkpt><trkpt lat="44.3747452" lon="9.5235283"><ele>643.0</ele><time>2026-03-22T14:26:14.679Z</time></trkpt><trkpt lat="44.3747655" lon="9.5236522"><ele>643.0</ele><time>2026-03-22T14:26:15.679Z</time></trkpt><trkpt lat="44.3747948" lon="9.5237815"><ele>646.5999999999999</ele><time>2026-03-22T14:26:16.68Z</time></trkpt><trkpt lat="44.3748181" lon="9.5238944"><ele>650.1999999999999</ele><time>2026-03-22T14:26:17.679Z</time></trkpt><trkpt lat="44.3748504" lon="9.5240071"><ele>653.8</ele><time>2026-03-22T14:26:18.679Z</time></trkpt><trkpt lat="44.3749469" lon="9.5240589"><ele>657.4</ele><time>2026-03-22T14:26:19.679Z</time></trkpt><trkpt lat="44.3750202" lon="9.5241499"><ele>661.0</ele><time>2026-03-22T14:26:20.679Z</time></trkpt><trkpt lat="44.3750699" lon="9.524258"><ele>661.0</ele><time>2026-03-22T14:26:21.68Z</time></trkpt><trkpt lat="44.3750629" lon="9.524363"><ele>661.0</ele><time>2026-03-22T14:26:22.679Z</time></trkpt><trkpt lat="44.3750408" lon="9.524541"><ele>661.0</ele><time>2026-03-22T14:26:24.679Z</time></trkpt><trkpt lat="44.3750969" lon="9.5246686"><ele>661.0</ele><time>2026-03-22T14:26:26.679Z</time></trkpt><trkpt lat="44.3751727" lon="9.5247892"><ele>661.0</ele><time>2026-03-22T14:26:28.679Z</time></trkpt><trkpt lat="44.3752138" lon="9.5249307"><ele>663.0</ele><time>2026-03-22T14:26:30.679Z</time></trkpt><trkpt lat="44.3751553" lon="9.5250128"><ele>665.0</ele><time>2026-03-22T14:26:31.679Z</time></trkpt><trkpt lat="44.3751184" lon="9.5251343"><ele>667.0</ele><time>2026-03-22T14:26:32.679Z</time></trkpt><trkpt lat="44.3751041" lon="9.525233"><ele>669.0</ele><time>2026-03-22T14:26:33.679Z</time></trkpt><trkpt lat="44.3751068" lon="9.52533"><ele>671.0</ele><time>2026-03-22T14:26:34.679Z</time></trkpt><trkpt lat="44.3751424" lon="9.5254261"><ele>673.0</ele><time>2026-03-22T14:26:35.679Z</time></trkpt><trkpt lat="44.3751357" lon="9.5255288"><ele>673.0</ele><time>2026-03-22T14:26:36.68Z</time></trkpt><trkpt lat="44.3751591" lon="9.525612"><ele>673.0</ele><time>2026-03-22T14:26:37.679Z</time></trkpt><trkpt lat="44.3751596" lon="9.5257025"><ele>673.0</ele><time>2026-03-22T14:26:40.679Z</time></trkpt><trkpt lat="44.3751047" lon="9.5257627"><ele>673.0</ele><time>2026-03-22T14:27:08.679Z</time></trkpt><trkpt lat="44.3750907" lon="9.5256302"><ele>673.0</ele><time>2026-03-22T14:27:26.679Z</time></trkpt><trkpt lat="44.3750808" lon="9.5255431"><ele>673.0</ele><time>2026-03-22T14:27:27.679Z</time></trkpt><trkpt lat="44.3750574" lon="9.5254426"><ele>673.0</ele><time>2026-03-22T14:27:29.679Z</time></trkpt><trkpt lat="44.3750374" lon="9.5253502"><ele>673.0</ele><time>2026-03-22T14:27:31.679Z</time></trkpt><trkpt lat="44.3750576" lon="9.5252519"><ele>673.0</ele><time>2026-03-22T14:27:33.679Z</time></trkpt><trkpt lat="44.3751731" lon="9.5254103"><ele>673.0</ele><time>2026-03-22T14:27:37.679Z</time></trkpt><trkpt lat="44.37522" lon="9.525553"><ele>673.0</ele><time>2026-03-22T14:27:39.679Z</time></trkpt><trkpt lat="44.3752776" lon="9.5256236"><ele>673.0</ele><time>2026-03-22T14:27:41.679Z</time></trkpt><trkpt lat="44.3752999" lon="9.5257265"><ele>673.2857142857143</ele><time>2026-03-22T14:27:43.678Z</time></trkpt><trkpt lat="44.3752919" lon="9.525821"><ele>673.5714285714286</ele><time>2026-03-22T14:27:45.679Z</time></trkpt><trkpt lat="44.375276" lon="9.5259333"><ele>673.8571428571429</ele><time>2026-03-22T14:27:47.679Z</time></trkpt><trkpt lat="44.3752441" lon="9.5260173"><ele>674.1428571428571</ele><time>2026-03-22T14:27:49.679Z</time></trkpt><trkpt lat="44.3752369" lon="9.5259162"><ele>674.4285714285714</ele><time>2026-03-22T14:28:08.68Z</time></trkpt><trkpt lat="44.3752584" lon="9.5258216"><ele>674.7142857142857</ele><time>2026-03-22T14:28:09.679Z</time></trkpt><trkpt lat="44.375264" lon="9.5257323"><ele>675.0</ele><time>2026-03-22T14:28:10.679Z</time></trkpt><trkpt lat="44.3752239" lon="9.5256184"><ele>675.0</ele><time>2026-03-22T14:28:12.679Z</time></trkpt><trkpt lat="44.3751937" lon="9.5255047"><ele>675.0</ele><time>2026-03-22T14:28:14.679Z</time></trkpt><trkpt lat="44.3751391" lon="9.5254143"><ele>675.0</ele><time>2026-03-22T14:28:17.679Z</time></trkpt><trkpt lat="44.3750868" lon="9.5253162"><ele>675.0</ele><time>2026-03-22T14:28:32.678Z</time></trkpt><trkpt lat="44.3750221" lon="9.5253107"><ele>675.0</ele><time>2026-03-22T14:29:22.679Z</time></trkpt><trkpt lat="44.3750273" lon="9.5252171"><ele>675.0</ele><time>2026-03-22T14:29:32.679Z</time></trkpt><trkpt lat="44.3750603" lon="9.5251229"><ele>674.6666666666666</ele><time>2026-03-22T14:29:35.679Z</time></trkpt><trkpt lat="44.3750983" lon="9.5250499"><ele>674.3333333333334</ele><time>2026-03-22T14:29:38.679Z</time></trkpt><trkpt lat="44.3751335" lon="9.5249725"><ele>674.0</ele><time>2026-03-22T14:29:41.68Z</time></trkpt><trkpt lat="44.375158" lon="9.5248719"><ele>673.6666666666667</ele><time>2026-03-22T14:29:45.679Z</time></trkpt><trkpt lat="44.3751818" lon="9.5247809"><ele>673.3333333333334</ele><time>2026-03-22T14:32:00.68Z</time></trkpt><trkpt lat="44.3751116" lon="9.5246842"><ele>673.0</ele><time>2026-03-22T14:32:10.679Z</time></trkpt><trkpt lat="44.375075" lon="9.5245742"><ele>671.0</ele><time>2026-03-22T14:32:12.679Z</time></trkpt><trkpt lat="44.3750516" lon="9.524472"><ele>669.0</ele><time>2026-03-22T14:32:14.679Z</time></trkpt><trkpt lat="44.3750513" lon="9.5243836"><ele>667.0</ele><time>2026-03-22T14:32:16.679Z</time></trkpt><trkpt lat="44.3750445" lon="9.5242837"><ele>665.0</ele><time>2026-03-22T14:32:18.679Z</time></trkpt><trkpt lat="44.3750002" lon="9.5241543"><ele>663.0</ele><time>2026-03-22T14:32:20.679Z</time></trkpt><trkpt lat="44.3749422" lon="9.5240349"><ele>661.0</ele><time>2026-03-22T14:32:22.679Z</time></trkpt><trkpt lat="44.3749" lon="9.5239596"><ele>661.0</ele><time>2026-03-22T14:32:23.679Z</time></trkpt><trkpt lat="44.3748537" lon="9.5238845"><ele>661.0</ele><time>2026-03-22T14:32:24.679Z</time></trkpt><trkpt lat="44.3748175" lon="9.5237973"><ele>661.0</ele><time>2026-03-22T14:32:25.679Z</time></trkpt><trkpt lat="44.3747825" lon="9.5236969"><ele>661.0</ele><time>2026-03-22T14:32:26.679Z</time></trkpt><trkpt lat="44.3747644" lon="9.5235915"><ele>661.0</ele><time>2026-03-22T14:32:27.68Z</time></trkpt><trkpt lat="44.3747486" lon="9.5235059"><ele>661.0</ele><time>2026-03-22T14:32:28.679Z</time></trkpt><trkpt lat="44.3747256" lon="9.5234168"><ele>661.0</ele><time>2026-03-22T14:32:29.679Z</time></trkpt><trkpt lat="44.3746937" lon="9.5233323"><ele>662.0</ele><time>2026-03-22T14:32:30.68Z</time></trkpt><trkpt lat="44.3746889" lon="9.5231684"><ele>663.0</ele><time>2026-03-22T14:32:32.679Z</time></trkpt><trkpt lat="44.3746698" lon="9.5230262"><ele>664.0</ele><time>2026-03-22T14:32:34.68Z</time></trkpt><trkpt lat="44.3746608" lon="9.5229369"><ele>665.0</ele><time>2026-03-22T14:32:35.679Z</time></trkpt><trkpt lat="44.3746526" lon="9.5228432"><ele>666.0</ele><time>2026-03-22T14:32:36.68Z</time></trkpt><trkpt lat="44.3746127" lon="9.5226864"><ele>666.0</ele><time>2026-03-22T14:32:38.679Z</time></trkpt><trkpt lat="44.3745676" lon="9.5225775"><ele>666.0</ele><time>2026-03-22T14:32:40.679Z</time></trkpt><trkpt lat="44.3745055" lon="9.52248"><ele>666.0</ele><time>2026-03-22T14:32:43.679Z</time></trkpt><trkpt lat="44.3745547" lon="9.5224015"><ele>666.0</ele><time>2026-03-22T14:32:46.593Z</time></trkpt><trkpt lat="44.3746277" lon="9.5224096"><ele>666.0</ele><time>2026-03-22T14:32:48.679Z</time></trkpt><trkpt lat="44.3747139" lon="9.5224014"><ele>666.0</ele><time>2026-03-22T14:32:49.679Z</time></trkpt><trkpt lat="44.3747939" lon="9.5225006"><ele>662.1666666666666</ele><time>2026-03-22T14:32:50.679Z</time></trkpt><trkpt lat="44.37483" lon="9.5226336"><ele>658.3333333333334</ele><time>2026-03-22T14:32:51.679Z</time></trkpt><trkpt lat="44.3748637" lon="9.5227457"><ele>654.5</ele><time>2026-03-22T14:32:52.679Z</time></trkpt><trkpt lat="44.3749101" lon="9.5228326"><ele>650.6666666666667</ele><time>2026-03-22T14:32:53.679Z</time></trkpt><trkpt lat="44.3749512" lon="9.5229321"><ele>646.8333333333334</ele><time>2026-03-22T14:32:54.68Z</time></trkpt><trkpt lat="44.375003" lon="9.5230501"><ele>643.0</ele><time>2026-03-22T14:32:55.679Z</time></trkpt><trkpt lat="44.3750501" lon="9.5231613"><ele>643.0</ele><time>2026-03-22T14:32:56.679Z</time></trkpt><trkpt lat="44.3750889" lon="9.5232792"><ele>643.0</ele><time>2026-03-22T14:32:57.679Z</time></trkpt><trkpt lat="44.375125" lon="9.5233899"><ele>643.0</ele><time>2026-03-22T14:32:58.679Z</time></trkpt><trkpt lat="44.3751637" lon="9.5234868"><ele>643.0</ele><time>2026-03-22T14:32:59.679Z</time></trkpt><trkpt lat="44.3752021" lon="9.5235789"><ele>643.0</ele><time>2026-03-22T14:33:00.679Z</time></trkpt><trkpt lat="44.375266" lon="9.5236621"><ele>643.0</ele><time>2026-03-22T14:33:01.679Z</time></trkpt><trkpt lat="44.3753254" lon="9.5237293"><ele>641.4285714285714</ele><time>2026-03-22T14:33:02.679Z</time></trkpt><trkpt lat="44.3753799" lon="9.523802"><ele>639.8571428571429</ele><time>2026-03-22T14:33:03.68Z</time></trkpt><trkpt lat="44.3754277" lon="9.5238637"><ele>638.2857142857143</ele><time>2026-03-22T14:33:04.679Z</time></trkpt><trkpt lat="44.3755105" lon="9.5238843"><ele>636.7142857142858</ele><time>2026-03-22T14:33:05.68Z</time></trkpt><trkpt lat="44.3755814" lon="9.5239034"><ele>635.1428571428571</ele><time>2026-03-22T14:33:06.679Z</time></trkpt><trkpt lat="44.3756509" lon="9.5239303"><ele>633.5714285714287</ele><time>2026-03-22T14:33:07.679Z</time></trkpt><trkpt lat="44.3757269" lon="9.5239665"><ele>632.0</ele><time>2026-03-22T14:33:08.679Z</time></trkpt><trkpt lat="44.3757852" lon="9.524007"><ele>632.0</ele><time>2026-03-22T14:33:09.679Z</time></trkpt><trkpt lat="44.375831" lon="9.5240706"><ele>632.0</ele><time>2026-03-22T14:33:10.679Z</time></trkpt><trkpt lat="44.3759234" lon="9.5241861"><ele>632.0</ele><time>2026-03-22T14:33:12.679Z</time></trkpt><trkpt lat="44.3759419" lon="9.5242768"><ele>632.0</ele><time>2026-03-22T14:33:13.68Z</time></trkpt><trkpt lat="44.3759698" lon="9.5243749"><ele>632.0</ele><time>2026-03-22T14:33:14.679Z</time></trkpt><trkpt lat="44.375998" lon="9.5244739"><ele>632.0</ele><time>2026-03-22T14:33:15.679Z</time></trkpt><trkpt lat="44.3760357" lon="9.5245599"><ele>634.2</ele><time>2026-03-22T14:33:16.679Z</time></trkpt><trkpt lat="44.3760879" lon="9.5247071"><ele>636.4000000000001</ele><time>2026-03-22T14:33:18.679Z</time></trkpt><trkpt lat="44.37613" lon="9.5248722"><ele>638.5999999999999</ele><time>2026-03-22T14:33:20.679Z</time></trkpt><trkpt lat="44.3761036" lon="9.5249838"><ele>640.8</ele><time>2026-03-22T14:33:21.679Z</time></trkpt><trkpt lat="44.3760677" lon="9.5250973"><ele>643.0</ele><time>2026-03-22T14:33:22.679Z</time></trkpt><trkpt lat="44.376033" lon="9.5252019"><ele>643.0</ele><time>2026-03-22T14:33:23.679Z</time></trkpt><trkpt lat="44.3760044" lon="9.5252856"><ele>643.0</ele><time>2026-03-22T14:33:24.679Z</time></trkpt><trkpt lat="44.3759601" lon="9.5253804"><ele>643.0</ele><time>2026-03-22T14:33:26.679Z</time></trkpt><trkpt lat="44.3761535" lon="9.5253692"><ele>643.0</ele><time>2026-03-22T14:33:30.679Z</time></trkpt><trkpt lat="44.3762394" lon="9.5252915"><ele>643.0</ele><time>2026-03-22T14:33:31.679Z</time></trkpt><trkpt lat="44.3763274" lon="9.5251683"><ele>637.8</ele><time>2026-03-22T14:33:32.679Z</time></trkpt><trkpt lat="44.3764128" lon="9.5250474"><ele>632.5999999999999</ele><time>2026-03-22T14:33:33.679Z</time></trkpt><trkpt lat="44.376488" lon="9.5249505"><ele>627.4000000000001</ele><time>2026-03-22T14:33:34.679Z</time></trkpt><trkpt lat="44.3765657" lon="9.5248723"><ele>622.2</ele><time>2026-03-22T14:33:35.679Z</time></trkpt><trkpt lat="44.3766334" lon="9.5248169"><ele>617.0</ele><time>2026-03-22T14:33:36.679Z</time></trkpt><trkpt lat="44.3766935" lon="9.5247829"><ele>617.0</ele><time>2026-03-22T14:33:37.679Z</time></trkpt><trkpt lat="44.3767984" lon="9.5247652"><ele>617.0</ele><time>2026-03-22T14:33:39.679Z</time></trkpt><trkpt lat="44.3768906" lon="9.5248546"><ele>617.0</ele><time>2026-03-22T14:33:41.679Z</time></trkpt><trkpt lat="44.3769369" lon="9.5249433"><ele>617.0</ele><time>2026-03-22T14:33:42.679Z</time></trkpt><trkpt lat="44.3769891" lon="9.5250219"><ele>617.0</ele><time>2026-03-22T14:33:43.679Z</time></trkpt><trkpt lat="44.3770411" lon="9.5250827"><ele>617.0</ele><time>2026-03-22T14:33:44.679Z</time></trkpt><trkpt lat="44.3770837" lon="9.5251494"><ele>617.0</ele><time>2026-03-22T14:33:45.679Z</time></trkpt><trkpt lat="44.3771468" lon="9.5252887"><ele>617.0</ele><time>2026-03-22T14:33:47.68Z</time></trkpt><trkpt lat="44.3771729" lon="9.5254309"><ele>617.0</ele><time>2026-03-22T14:33:49.68Z</time></trkpt><trkpt lat="44.3772723" lon="9.5255175"><ele>617.0</ele><time>2026-03-22T14:33:51.68Z</time></trkpt><trkpt lat="44.3774401" lon="9.5255323"><ele>615.8000000000001</ele><time>2026-03-22T14:33:53.679Z</time></trkpt><trkpt lat="44.3775291" lon="9.5255285"><ele>614.6</ele><time>2026-03-22T14:33:54.679Z</time></trkpt><trkpt lat="44.3776296" lon="9.5255797"><ele>613.4000000000001</ele><time>2026-03-22T14:33:55.679Z</time></trkpt><trkpt lat="44.3777026" lon="9.5255959"><ele>612.2</ele><time>2026-03-22T14:33:56.679Z</time></trkpt><trkpt lat="44.3777687" lon="9.525638"><ele>611.0</ele><time>2026-03-22T14:33:57.68Z</time></trkpt><trkpt lat="44.3778291" lon="9.5257773"><ele>611.0</ele><time>2026-03-22T14:33:59.68Z</time></trkpt><trkpt lat="44.3777954" lon="9.5259516"><ele>611.0</ele><time>2026-03-22T14:34:01.679Z</time></trkpt><trkpt lat="44.3777711" lon="9.5260351"><ele>611.0</ele><time>2026-03-22T14:34:02.679Z</time></trkpt><trkpt lat="44.3777488" lon="9.5261835"><ele>611.0</ele><time>2026-03-22T14:34:04.679Z</time></trkpt><trkpt lat="44.3777157" lon="9.526331"><ele>611.0</ele><time>2026-03-22T14:34:06.68Z</time></trkpt><trkpt lat="44.3776617" lon="9.5264894"><ele>610.4</ele><time>2026-03-22T14:34:08.679Z</time></trkpt><trkpt lat="44.3776195" lon="9.5265838"><ele>609.8</ele><time>2026-03-22T14:34:09.679Z</time></trkpt><trkpt lat="44.3775826" lon="9.5266773"><ele>609.1999999999999</ele><time>2026-03-22T14:34:10.68Z</time></trkpt><trkpt lat="44.3775419" lon="9.5267756"><ele>608.6</ele><time>2026-03-22T14:34:11.679Z</time></trkpt><trkpt lat="44.3774836" lon="9.5269091"><ele>608.0</ele><time>2026-03-22T14:34:12.679Z</time></trkpt><trkpt lat="44.3774187" lon="9.5270489"><ele>607.5</ele><time>2026-03-22T14:34:13.679Z</time></trkpt><trkpt lat="44.3772974" lon="9.5271814"><ele>607.0</ele><time>2026-03-22T14:34:14.679Z</time></trkpt><trkpt lat="44.3772057" lon="9.5273084"><ele>606.5</ele><time>2026-03-22T14:34:15.679Z</time></trkpt><trkpt lat="44.3771276" lon="9.5274212"><ele>606.0</ele><time>2026-03-22T14:34:16.679Z</time></trkpt><trkpt lat="44.3770636" lon="9.5275358"><ele>614.5</ele><time>2026-03-22T14:34:17.679Z</time></trkpt><trkpt lat="44.3770134" lon="9.5276682"><ele>623.0</ele><time>2026-03-22T14:34:18.678Z</time></trkpt><trkpt lat="44.3769675" lon="9.5278153"><ele>631.5</ele><time>2026-03-22T14:34:19.679Z</time></trkpt><trkpt lat="44.3769336" lon="9.5279682"><ele>640.0</ele><time>2026-03-22T14:34:20.679Z</time></trkpt><trkpt lat="44.3769065" lon="9.5281256"><ele>640.4</ele><time>2026-03-22T14:34:21.679Z</time></trkpt><trkpt lat="44.3768738" lon="9.528277"><ele>640.8</ele><time>2026-03-22T14:34:22.679Z</time></trkpt><trkpt lat="44.3768628" lon="9.5284287"><ele>641.2</ele><time>2026-03-22T14:34:23.679Z</time></trkpt><trkpt lat="44.376906" lon="9.5285625"><ele>641.6</ele><time>2026-03-22T14:34:24.68Z</time></trkpt><trkpt lat="44.376934" lon="9.5287059"><ele>642.0</ele><time>2026-03-22T14:34:25.679Z</time></trkpt><trkpt lat="44.3769754" lon="9.5288457"><ele>642.8</ele><time>2026-03-22T14:34:26.679Z</time></trkpt><trkpt lat="44.3770316" lon="9.5289721"><ele>643.6</ele><time>2026-03-22T14:34:27.679Z</time></trkpt><trkpt lat="44.3770676" lon="9.5291082"><ele>644.4</ele><time>2026-03-22T14:34:28.679Z</time></trkpt><trkpt lat="44.3770833" lon="9.5292405"><ele>645.1999999999999</ele><time>2026-03-22T14:34:29.679Z</time></trkpt><trkpt lat="44.37707" lon="9.5293475"><ele>646.0</ele><time>2026-03-22T14:34:30.678Z</time></trkpt><trkpt lat="44.3770255" lon="9.5294423"><ele>646.0</ele><time>2026-03-22T14:34:31.679Z</time></trkpt><trkpt lat="44.3769572" lon="9.5295432"><ele>646.0</ele><time>2026-03-22T14:34:32.679Z</time></trkpt><trkpt lat="44.3768741" lon="9.5296311"><ele>646.0</ele><time>2026-03-22T14:34:33.679Z</time></trkpt><trkpt lat="44.3768222" lon="9.5297093"><ele>646.0</ele><time>2026-03-22T14:34:34.679Z</time></trkpt><trkpt lat="44.3767681" lon="9.529795"><ele>646.0</ele><time>2026-03-22T14:34:35.679Z</time></trkpt><trkpt lat="44.3766992" lon="9.5299199"><ele>646.6666666666667</ele><time>2026-03-22T14:34:36.678Z</time></trkpt><trkpt lat="44.3766562" lon="9.530033"><ele>647.3333333333334</ele><time>2026-03-22T14:34:37.68Z</time></trkpt><trkpt lat="44.3766418" lon="9.5301577"><ele>648.0</ele><time>2026-03-22T14:34:38.679Z</time></trkpt><trkpt lat="44.3766504" lon="9.5302473"><ele>648.6666666666666</ele><time>2026-03-22T14:34:39.68Z</time></trkpt><trkpt lat="44.3766652" lon="9.530348"><ele>649.3333333333333</ele><time>2026-03-22T14:34:40.679Z</time></trkpt><trkpt lat="44.3767255" lon="9.5304359"><ele>650.0</ele><time>2026-03-22T14:34:41.679Z</time></trkpt><trkpt lat="44.3768228" lon="9.5304325"><ele>652.6</ele><time>2026-03-22T14:34:43.679Z</time></trkpt><trkpt lat="44.3768908" lon="9.5304564"><ele>655.2</ele><time>2026-03-22T14:34:44.68Z</time></trkpt><trkpt lat="44.376916" lon="9.5305498"><ele>657.8</ele><time>2026-03-22T14:34:46.679Z</time></trkpt><trkpt lat="44.3768201" lon="9.5306092"><ele>660.4</ele><time>2026-03-22T14:34:49.679Z</time></trkpt><trkpt lat="44.3767136" lon="9.5305396"><ele>663.0</ele><time>2026-03-22T14:34:50.679Z</time></trkpt><trkpt lat="44.3766532" lon="9.5304463"><ele>660.4</ele><time>2026-03-22T14:34:51.679Z</time></trkpt><trkpt lat="44.3765787" lon="9.5303412"><ele>657.8</ele><time>2026-03-22T14:34:52.679Z</time></trkpt><trkpt lat="44.3765413" lon="9.5302413"><ele>655.2</ele><time>2026-03-22T14:34:53.679Z</time></trkpt><trkpt lat="44.3764684" lon="9.5301373"><ele>652.6</ele><time>2026-03-22T14:34:54.679Z</time></trkpt><trkpt lat="44.3764421" lon="9.5300203"><ele>650.0</ele><time>2026-03-22T14:34:55.679Z</time></trkpt><trkpt lat="44.3764065" lon="9.5298414"><ele>650.0</ele><time>2026-03-22T14:34:57.679Z</time></trkpt><trkpt lat="44.3763615" lon="9.5297706"><ele>650.0</ele><time>2026-03-22T14:34:59.679Z</time></trkpt><trkpt lat="44.3763058" lon="9.530044"><ele>650.0</ele><time>2026-03-22T14:35:05.678Z</time></trkpt><trkpt lat="44.3762954" lon="9.5301754"><ele>650.0</ele><time>2026-03-22T14:35:06.68Z</time></trkpt><trkpt lat="44.3762927" lon="9.5303062"><ele>652.6</ele><time>2026-03-22T14:35:07.679Z</time></trkpt><trkpt lat="44.3763008" lon="9.530436"><ele>655.2</ele><time>2026-03-22T14:35:08.679Z</time></trkpt><trkpt lat="44.3763102" lon="9.5305622"><ele>657.8</ele><time>2026-03-22T14:35:09.679Z</time></trkpt><trkpt lat="44.3763214" lon="9.5306775"><ele>660.4</ele><time>2026-03-22T14:35:10.679Z</time></trkpt><trkpt lat="44.3763866" lon="9.5307465"><ele>663.0</ele><time>2026-03-22T14:35:11.679Z</time></trkpt><trkpt lat="44.3764561" lon="9.5308812"><ele>663.0</ele><time>2026-03-22T14:35:13.679Z</time></trkpt><trkpt lat="44.3765736" lon="9.5308729"><ele>663.0</ele><time>2026-03-22T14:35:14.679Z</time></trkpt><trkpt lat="44.3766418" lon="9.5308948"><ele>663.0</ele><time>2026-03-22T14:35:15.679Z</time></trkpt><trkpt lat="44.376709" lon="9.5309511"><ele>663.0</ele><time>2026-03-22T14:35:16.68Z</time></trkpt><trkpt lat="44.3767518" lon="9.531027"><ele>663.0</ele><time>2026-03-22T14:35:17.679Z</time></trkpt><trkpt lat="44.3768049" lon="9.5311202"><ele>663.0</ele><time>2026-03-22T14:35:18.679Z</time></trkpt><trkpt lat="44.3768586" lon="9.5312672"><ele>668.5</ele><time>2026-03-22T14:35:19.679Z</time></trkpt><trkpt lat="44.3769033" lon="9.53141"><ele>674.0</ele><time>2026-03-22T14:35:20.679Z</time></trkpt><trkpt lat="44.3769225" lon="9.5315437"><ele>679.5</ele><time>2026-03-22T14:35:21.679Z</time></trkpt><trkpt lat="44.3769232" lon="9.5317065"><ele>685.0</ele><time>2026-03-22T14:35:22.679Z</time></trkpt><trkpt lat="44.3769075" lon="9.5319038"><ele>683.75</ele><time>2026-03-22T14:35:23.679Z</time></trkpt><trkpt lat="44.3768791" lon="9.5320985"><ele>682.5</ele><time>2026-03-22T14:35:24.679Z</time></trkpt><trkpt lat="44.3768478" lon="9.5322603"><ele>681.25</ele><time>2026-03-22T14:35:25.679Z</time></trkpt><trkpt lat="44.3768163" lon="9.5324017"><ele>680.0</ele><time>2026-03-22T14:35:26.679Z</time></trkpt><trkpt lat="44.3767773" lon="9.5325449"><ele>680.0</ele><time>2026-03-22T14:35:27.679Z</time></trkpt><trkpt lat="44.3767396" lon="9.5326746"><ele>680.0</ele><time>2026-03-22T14:35:28.679Z</time></trkpt><trkpt lat="44.3766717" lon="9.5327032"><ele>680.0</ele><time>2026-03-22T14:35:29.679Z</time></trkpt><trkpt lat="44.3765821" lon="9.5327717"><ele>680.0</ele><time>2026-03-22T14:35:30.679Z</time></trkpt><trkpt lat="44.3764838" lon="9.5328121"><ele>680.0</ele><time>2026-03-22T14:35:31.679Z</time></trkpt><trkpt lat="44.3763656" lon="9.5328614"><ele>681.4</ele><time>2026-03-22T14:35:32.68Z</time></trkpt><trkpt lat="44.3762648" lon="9.5329016"><ele>682.8</ele><time>2026-03-22T14:35:33.679Z</time></trkpt><trkpt lat="44.3761692" lon="9.5329077"><ele>684.2</ele><time>2026-03-22T14:35:34.679Z</time></trkpt><trkpt lat="44.3760655" lon="9.5328907"><ele>685.6</ele><time>2026-03-22T14:35:35.679Z</time></trkpt><trkpt lat="44.3759679" lon="9.5328676"><ele>687.0</ele><time>2026-03-22T14:35:36.679Z</time></trkpt><trkpt lat="44.375879" lon="9.5328655"><ele>687.0</ele><time>2026-03-22T14:35:37.679Z</time></trkpt><trkpt lat="44.375788" lon="9.5328922"><ele>687.0</ele><time>2026-03-22T14:35:38.679Z</time></trkpt><trkpt lat="44.3757019" lon="9.5329404"><ele>687.0</ele><time>2026-03-22T14:35:39.679Z</time></trkpt><trkpt lat="44.3756359" lon="9.5330419"><ele>687.0</ele><time>2026-03-22T14:35:40.679Z</time></trkpt><trkpt lat="44.3755799" lon="9.5331977"><ele>687.0</ele><time>2026-03-22T14:35:41.678Z</time></trkpt><trkpt lat="44.3755174" lon="9.5333033"><ele>692.4000000000001</ele><time>2026-03-22T14:35:42.679Z</time></trkpt><trkpt lat="44.3754846" lon="9.5333911"><ele>697.8000000000001</ele><time>2026-03-22T14:35:43.68Z</time></trkpt><trkpt lat="44.3754258" lon="9.5334623"><ele>703.2</ele><time>2026-03-22T14:35:44.679Z</time></trkpt><trkpt lat="44.3753217" lon="9.5335056"><ele>708.6</ele><time>2026-03-22T14:35:45.679Z</time></trkpt><trkpt lat="44.3752347" lon="9.5335639"><ele>714.0</ele><time>2026-03-22T14:35:46.679Z</time></trkpt><trkpt lat="44.3751392" lon="9.5336026"><ele>714.0</ele><time>2026-03-22T14:35:47.679Z</time></trkpt><trkpt lat="44.3750752" lon="9.5336396"><ele>714.0</ele><time>2026-03-22T14:35:48.679Z</time></trkpt><trkpt lat="44.3749676" lon="9.5336537"><ele>714.0</ele><time>2026-03-22T14:35:49.679Z</time></trkpt><trkpt lat="44.3748706" lon="9.5336239"><ele>714.0</ele><time>2026-03-22T14:35:50.679Z</time></trkpt><trkpt lat="44.3747909" lon="9.5336384"><ele>714.0</ele><time>2026-03-22T14:35:51.679Z</time></trkpt><trkpt lat="44.3747025" lon="9.533729"><ele>715.25</ele><time>2026-03-22T14:35:52.679Z</time></trkpt><trkpt lat="44.374595" lon="9.5338377"><ele>716.5</ele><time>2026-03-22T14:35:53.679Z</time></trkpt><trkpt lat="44.3744999" lon="9.533953"><ele>717.75</ele><time>2026-03-22T14:35:54.679Z</time></trkpt><trkpt lat="44.3743946" lon="9.5340854"><ele>719.0</ele><time>2026-03-22T14:35:55.679Z</time></trkpt><trkpt lat="44.3742933" lon="9.5342129"><ele>719.0</ele><time>2026-03-22T14:35:56.679Z</time></trkpt><trkpt lat="44.3742033" lon="9.5342979"><ele>719.0</ele><time>2026-03-22T14:35:57.68Z</time></trkpt><trkpt lat="44.3741177" lon="9.5343903"><ele>719.0</ele><time>2026-03-22T14:35:58.679Z</time></trkpt><trkpt lat="44.3740365" lon="9.5344732"><ele>719.0</ele><time>2026-03-22T14:35:59.68Z</time></trkpt><trkpt lat="44.3739406" lon="9.5345397"><ele>719.0</ele><time>2026-03-22T14:36:00.679Z</time></trkpt><trkpt lat="44.3738361" lon="9.5345816"><ele>719.6</ele><time>2026-03-22T14:36:01.679Z</time></trkpt><trkpt lat="44.3737321" lon="9.5345926"><ele>720.2</ele><time>2026-03-22T14:36:02.679Z</time></trkpt><trkpt lat="44.3736288" lon="9.534618"><ele>720.8000000000001</ele><time>2026-03-22T14:36:03.679Z</time></trkpt><trkpt lat="44.3735065" lon="9.5346633"><ele>721.4000000000001</ele><time>2026-03-22T14:36:04.679Z</time></trkpt><trkpt lat="44.3734" lon="9.534678"><ele>722.0</ele><time>2026-03-22T14:36:05.679Z</time></trkpt><trkpt lat="44.3732802" lon="9.5347532"><ele>722.0</ele><time>2026-03-22T14:36:06.679Z</time></trkpt><trkpt lat="44.3731904" lon="9.5347965"><ele>722.0</ele><time>2026-03-22T14:36:07.678Z</time></trkpt><trkpt lat="44.3731246" lon="9.5348427"><ele>722.0</ele><time>2026-03-22T14:36:08.679Z</time></trkpt><trkpt lat="44.3730464" lon="9.5348805"><ele>722.0</ele><time>2026-03-22T14:36:09.679Z</time></trkpt><trkpt lat="44.3729781" lon="9.5348934"><ele>722.0</ele><time>2026-03-22T14:36:10.679Z</time></trkpt><trkpt lat="44.3729111" lon="9.5348916"><ele>722.0</ele><time>2026-03-22T14:36:11.679Z</time></trkpt><trkpt lat="44.3728076" lon="9.5348932"><ele>725.4000000000001</ele><time>2026-03-22T14:36:12.679Z</time></trkpt><trkpt lat="44.3727137" lon="9.5349171"><ele>728.8000000000001</ele><time>2026-03-22T14:36:13.679Z</time></trkpt><trkpt lat="44.3726197" lon="9.5349546"><ele>732.2</ele><time>2026-03-22T14:36:14.679Z</time></trkpt><trkpt lat="44.3725538" lon="9.535019"><ele>735.6</ele><time>2026-03-22T14:36:15.679Z</time></trkpt><trkpt lat="44.3724498" lon="9.5351548"><ele>739.0</ele><time>2026-03-22T14:36:17.679Z</time></trkpt><trkpt lat="44.372398" lon="9.5352515"><ele>739.0</ele><time>2026-03-22T14:36:18.679Z</time></trkpt><trkpt lat="44.3723471" lon="9.5353139"><ele>739.0</ele><time>2026-03-22T14:36:19.679Z</time></trkpt><trkpt lat="44.3722699" lon="9.5353778"><ele>739.0</ele><time>2026-03-22T14:36:20.679Z</time></trkpt><trkpt lat="44.3722737" lon="9.5354712"><ele>739.0</ele><time>2026-03-22T14:36:21.679Z</time></trkpt><trkpt lat="44.372261" lon="9.535623"><ele>739.0</ele><time>2026-03-22T14:36:23.68Z</time></trkpt><trkpt lat="44.3723684" lon="9.5357424"><ele>738.6666666666667</ele><time>2026-03-22T14:36:24.679Z</time></trkpt><trkpt lat="44.3723966" lon="9.5358481"><ele>738.3333333333334</ele><time>2026-03-22T14:36:25.679Z</time></trkpt><trkpt lat="44.3724197" lon="9.5359522"><ele>738.0</ele><time>2026-03-22T14:36:26.679Z</time></trkpt><trkpt lat="44.3724172" lon="9.5360561"><ele>737.6666666666666</ele><time>2026-03-22T14:36:27.679Z</time></trkpt><trkpt lat="44.3723794" lon="9.5361953"><ele>737.3333333333333</ele><time>2026-03-22T14:36:28.679Z</time></trkpt><trkpt lat="44.3723651" lon="9.5362886"><ele>737.0</ele><time>2026-03-22T14:36:29.679Z</time></trkpt><trkpt lat="44.3722414" lon="9.5363516"><ele>740.2</ele><time>2026-03-22T14:36:30.679Z</time></trkpt><trkpt lat="44.3721573" lon="9.5364255"><ele>743.4000000000001</ele><time>2026-03-22T14:36:31.679Z</time></trkpt><trkpt lat="44.3720535" lon="9.5364643"><ele>746.5999999999999</ele><time>2026-03-22T14:36:32.679Z</time></trkpt><trkpt lat="44.3719453" lon="9.5365028"><ele>749.8</ele><time>2026-03-22T14:36:33.679Z</time></trkpt><trkpt lat="44.3718465" lon="9.536516"><ele>753.0</ele><time>2026-03-22T14:36:34.679Z</time></trkpt><trkpt lat="44.3717385" lon="9.5365497"><ele>753.0</ele><time>2026-03-22T14:36:35.679Z</time></trkpt><trkpt lat="44.3716518" lon="9.5365789"><ele>753.0</ele><time>2026-03-22T14:36:36.679Z</time></trkpt><trkpt lat="44.3715624" lon="9.5366286"><ele>753.0</ele><time>2026-03-22T14:36:37.679Z</time></trkpt><trkpt lat="44.3714872" lon="9.5367068"><ele>753.0</ele><time>2026-03-22T14:36:38.678Z</time></trkpt><trkpt lat="44.3714293" lon="9.53678"><ele>753.0</ele><time>2026-03-22T14:36:39.68Z</time></trkpt><trkpt lat="44.3713626" lon="9.5368881"><ele>757.0</ele><time>2026-03-22T14:36:40.679Z</time></trkpt><trkpt lat="44.3713156" lon="9.5370239"><ele>761.0</ele><time>2026-03-22T14:36:41.679Z</time></trkpt><trkpt lat="44.3712233" lon="9.5371303"><ele>765.0</ele><time>2026-03-22T14:36:42.679Z</time></trkpt><trkpt lat="44.3711602" lon="9.5372112"><ele>769.0</ele><time>2026-03-22T14:36:43.679Z</time></trkpt><trkpt lat="44.3711155" lon="9.5372841"><ele>773.0</ele><time>2026-03-22T14:36:44.679Z</time></trkpt><trkpt lat="44.371089" lon="9.5374674"><ele>773.0000000000001</ele><time>2026-03-22T14:36:46.679Z</time></trkpt><trkpt lat="44.3711338" lon="9.5375732"><ele>773.0</ele><time>2026-03-22T14:36:47.679Z</time></trkpt><trkpt lat="44.3711326" lon="9.5376731"><ele>773.0</ele><time>2026-03-22T14:36:48.679Z</time></trkpt><trkpt lat="44.3711284" lon="9.5377846"><ele>773.0</ele><time>2026-03-22T14:36:49.679Z</time></trkpt><trkpt lat="44.3710963" lon="9.5378766"><ele>773.0000000000001</ele><time>2026-03-22T14:36:50.679Z</time></trkpt><trkpt lat="44.3710176" lon="9.5379952"><ele>773.0</ele><time>2026-03-22T14:36:51.679Z</time></trkpt><trkpt lat="44.3709209" lon="9.5381176"><ele>772.0</ele><time>2026-03-22T14:36:52.678Z</time></trkpt><trkpt lat="44.3708326" lon="9.5382482"><ele>771.0</ele><time>2026-03-22T14:36:53.68Z</time></trkpt><trkpt lat="44.3707663" lon="9.5383514"><ele>770.0</ele><time>2026-03-22T14:36:54.679Z</time></trkpt><trkpt lat="44.3706899" lon="9.5384349"><ele>769.0</ele><time>2026-03-22T14:36:55.679Z</time></trkpt><trkpt lat="44.3705991" lon="9.5384861"><ele>768.0</ele><time>2026-03-22T14:36:56.679Z</time></trkpt><trkpt lat="44.3705155" lon="9.5385037"><ele>769.5</ele><time>2026-03-22T14:36:57.679Z</time></trkpt><trkpt lat="44.3704358" lon="9.5385246"><ele>771.0</ele><time>2026-03-22T14:36:58.679Z</time></trkpt><trkpt lat="44.370349" lon="9.5385596"><ele>772.5</ele><time>2026-03-22T14:36:59.681Z</time></trkpt><trkpt lat="44.3702879" lon="9.5386354"><ele>774.0</ele><time>2026-03-22T14:37:00.679Z</time></trkpt><trkpt lat="44.3702202" lon="9.5387102"><ele>775.5</ele><time>2026-03-22T14:37:01.679Z</time></trkpt><trkpt lat="44.3701773" lon="9.5387994"><ele>777.0</ele><time>2026-03-22T14:37:02.679Z</time></trkpt><trkpt lat="44.3701439" lon="9.5388868"><ele>777.0</ele><time>2026-03-22T14:37:03.68Z</time></trkpt><trkpt lat="44.3701329" lon="9.5390459"><ele>777.0</ele><time>2026-03-22T14:37:05.679Z</time></trkpt><trkpt lat="44.370106" lon="9.5391544"><ele>777.0</ele><time>2026-03-22T14:37:07.679Z</time></trkpt><trkpt lat="44.370039" lon="9.5391921"><ele>777.0</ele><time>2026-03-22T14:37:09.679Z</time></trkpt><trkpt lat="44.3699235" lon="9.5391629"><ele>777.0</ele><time>2026-03-22T14:37:11.679Z</time></trkpt><trkpt lat="44.3698529" lon="9.5391256"><ele>777.0</ele><time>2026-03-22T14:37:12.68Z</time></trkpt><trkpt lat="44.3697934" lon="9.5390778"><ele>777.0</ele><time>2026-03-22T14:37:13.678Z</time></trkpt><trkpt lat="44.3696782" lon="9.5390512"><ele>777.0</ele><time>2026-03-22T14:37:15.679Z</time></trkpt><trkpt lat="44.3695637" lon="9.5391285"><ele>777.0</ele><time>2026-03-22T14:37:17.679Z</time></trkpt><trkpt lat="44.3695195" lon="9.5392188"><ele>777.0</ele><time>2026-03-22T14:37:18.678Z</time></trkpt><trkpt lat="44.3695208" lon="9.5393318"><ele>780.2</ele><time>2026-03-22T14:37:19.679Z</time></trkpt><trkpt lat="44.369522" lon="9.5394613"><ele>783.4000000000001</ele><time>2026-03-22T14:37:20.679Z</time></trkpt><trkpt lat="44.3695147" lon="9.5396193"><ele>786.5999999999999</ele><time>2026-03-22T14:37:21.679Z</time></trkpt><trkpt lat="44.3695012" lon="9.5397642"><ele>789.8</ele><time>2026-03-22T14:37:22.679Z</time></trkpt><trkpt lat="44.3694792" lon="9.5398953"><ele>793.0</ele><time>2026-03-22T14:37:23.679Z</time></trkpt><trkpt lat="44.3694502" lon="9.5400029"><ele>793.0</ele><time>2026-03-22T14:37:24.679Z</time></trkpt><trkpt lat="44.3694204" lon="9.5401146"><ele>793.0</ele><time>2026-03-22T14:37:25.679Z</time></trkpt><trkpt lat="44.3693741" lon="9.5401998"><ele>793.0</ele><time>2026-03-22T14:37:26.68Z</time></trkpt><trkpt lat="44.3693086" lon="9.5402709"><ele>793.0</ele><time>2026-03-22T14:37:27.678Z</time></trkpt><trkpt lat="44.3691854" lon="9.5402861"><ele>793.0</ele><time>2026-03-22T14:37:28.679Z</time></trkpt><trkpt lat="44.3690923" lon="9.5403133"><ele>793.0</ele><time>2026-03-22T14:37:29.679Z</time></trkpt><trkpt lat="44.3690211" lon="9.5403433"><ele>793.0</ele><time>2026-03-22T14:37:30.679Z</time></trkpt><trkpt lat="44.3689446" lon="9.540378"><ele>793.0</ele><time>2026-03-22T14:37:31.679Z</time></trkpt><trkpt lat="44.3688902" lon="9.5404765"><ele>793.0</ele><time>2026-03-22T14:37:32.68Z</time></trkpt><trkpt lat="44.3688153" lon="9.5405693"><ele>793.0</ele><time>2026-03-22T14:37:33.679Z</time></trkpt><trkpt lat="44.3687337" lon="9.5406919"><ele>793.3333333333333</ele><time>2026-03-22T14:37:34.679Z</time></trkpt><trkpt lat="44.3686703" lon="9.540789"><ele>793.6666666666666</ele><time>2026-03-22T14:37:35.679Z</time></trkpt><trkpt lat="44.3686048" lon="9.5408629"><ele>794.0</ele><time>2026-03-22T14:37:36.679Z</time></trkpt><trkpt lat="44.3685477" lon="9.540916"><ele>794.3333333333333</ele><time>2026-03-22T14:37:37.679Z</time></trkpt><trkpt lat="44.368486" lon="9.5409469"><ele>794.6666666666666</ele><time>2026-03-22T14:37:38.68Z</time></trkpt><trkpt lat="44.3684173" lon="9.540941"><ele>795.0</ele><time>2026-03-22T14:37:39.679Z</time></trkpt><trkpt lat="44.3683475" lon="9.5409177"><ele>795.0</ele><time>2026-03-22T14:37:40.679Z</time></trkpt><trkpt lat="44.3683015" lon="9.5408509"><ele>795.0</ele><time>2026-03-22T14:37:41.679Z</time></trkpt><trkpt lat="44.3682449" lon="9.5407894"><ele>795.0</ele><time>2026-03-22T14:37:42.679Z</time></trkpt><trkpt lat="44.3682144" lon="9.5407022"><ele>795.0</ele><time>2026-03-22T14:37:43.679Z</time></trkpt><trkpt lat="44.3681757" lon="9.5406214"><ele>795.0</ele><time>2026-03-22T14:37:44.679Z</time></trkpt><trkpt lat="44.3681215" lon="9.540548"><ele>795.0</ele><time>2026-03-22T14:37:45.679Z</time></trkpt><trkpt lat="44.3680951" lon="9.540442"><ele>795.0</ele><time>2026-03-22T14:37:46.679Z</time></trkpt><trkpt lat="44.3679407" lon="9.5403924"><ele>797.5</ele><time>2026-03-22T14:37:48.679Z</time></trkpt><trkpt lat="44.367866" lon="9.5403713"><ele>800.0</ele><time>2026-03-22T14:37:49.679Z</time></trkpt><trkpt lat="44.3677949" lon="9.5403253"><ele>802.5</ele><time>2026-03-22T14:37:50.679Z</time></trkpt><trkpt lat="44.3677271" lon="9.5402712"><ele>805.0</ele><time>2026-03-22T14:37:51.678Z</time></trkpt><trkpt lat="44.3676552" lon="9.540246"><ele>807.5</ele><time>2026-03-22T14:37:52.679Z</time></trkpt><trkpt lat="44.367572" lon="9.540254"><ele>810.0</ele><time>2026-03-22T14:37:53.679Z</time></trkpt><trkpt lat="44.3674879" lon="9.5402865"><ele>810.0</ele><time>2026-03-22T14:37:54.68Z</time></trkpt><trkpt lat="44.3673771" lon="9.5403841"><ele>810.0</ele><time>2026-03-22T14:37:56.679Z</time></trkpt><trkpt lat="44.3673142" lon="9.5403931"><ele>810.0</ele><time>2026-03-22T14:37:57.68Z</time></trkpt><trkpt lat="44.3672468" lon="9.5403763"><ele>810.0</ele><time>2026-03-22T14:37:58.679Z</time></trkpt><trkpt lat="44.3671765" lon="9.5403272"><ele>810.0</ele><time>2026-03-22T14:37:59.678Z</time></trkpt><trkpt lat="44.3670991" lon="9.5402467"><ele>810.0</ele><time>2026-03-22T14:38:00.679Z</time></trkpt><trkpt lat="44.3670177" lon="9.5401595"><ele>809.6666666666666</ele><time>2026-03-22T14:38:01.679Z</time></trkpt><trkpt lat="44.3669326" lon="9.540095"><ele>809.3333333333333</ele><time>2026-03-22T14:38:02.679Z</time></trkpt><trkpt lat="44.3668526" lon="9.5400812"><ele>809.0</ele><time>2026-03-22T14:38:03.679Z</time></trkpt><trkpt lat="44.3667768" lon="9.5400602"><ele>808.6666666666666</ele><time>2026-03-22T14:38:04.679Z</time></trkpt><trkpt lat="44.366689" lon="9.5401065"><ele>808.3333333333333</ele><time>2026-03-22T14:38:05.68Z</time></trkpt><trkpt lat="44.3666104" lon="9.540129"><ele>808.0</ele><time>2026-03-22T14:38:06.679Z</time></trkpt><trkpt lat="44.3665581" lon="9.5402256"><ele>808.0</ele><time>2026-03-22T14:38:07.679Z</time></trkpt><trkpt lat="44.3664899" lon="9.5403251"><ele>808.0</ele><time>2026-03-22T14:38:08.679Z</time></trkpt><trkpt lat="44.3664407" lon="9.5404208"><ele>808.0</ele><time>2026-03-22T14:38:09.679Z</time></trkpt><trkpt lat="44.3663981" lon="9.5405079"><ele>808.0</ele><time>2026-03-22T14:38:10.679Z</time></trkpt><trkpt lat="44.3662929" lon="9.5406286"><ele>808.0</ele><time>2026-03-22T14:38:12.679Z</time></trkpt><trkpt lat="44.3662118" lon="9.5406472"><ele>807.8</ele><time>2026-03-22T14:38:13.679Z</time></trkpt><trkpt lat="44.3661203" lon="9.5405734"><ele>807.5999999999999</ele><time>2026-03-22T14:38:14.679Z</time></trkpt><trkpt lat="44.3660465" lon="9.5404983"><ele>807.4000000000001</ele><time>2026-03-22T14:38:15.679Z</time></trkpt><trkpt lat="44.3659875" lon="9.5404322"><ele>807.2</ele><time>2026-03-22T14:38:16.679Z</time></trkpt><trkpt lat="44.365994" lon="9.5402706"><ele>807.0</ele><time>2026-03-22T14:38:17.679Z</time></trkpt><trkpt lat="44.3659567" lon="9.5401814"><ele>807.0</ele><time>2026-03-22T14:38:18.679Z</time></trkpt><trkpt lat="44.3659057" lon="9.540119"><ele>807.0</ele><time>2026-03-22T14:38:19.679Z</time></trkpt><trkpt lat="44.3658329" lon="9.540048"><ele>807.0</ele><time>2026-03-22T14:38:21.679Z</time></trkpt><trkpt lat="44.3657691" lon="9.5400735"><ele>807.0</ele><time>2026-03-22T14:38:23.679Z</time></trkpt><trkpt lat="44.3657261" lon="9.5402358"><ele>807.0</ele><time>2026-03-22T14:38:25.679Z</time></trkpt><trkpt lat="44.3656872" lon="9.5403421"><ele>807.0</ele><time>2026-03-22T14:38:26.679Z</time></trkpt><trkpt lat="44.3656339" lon="9.5404802"><ele>809.0</ele><time>2026-03-22T14:38:27.679Z</time></trkpt><trkpt lat="44.3656262" lon="9.5405944"><ele>811.0</ele><time>2026-03-22T14:38:28.68Z</time></trkpt><trkpt lat="44.3656114" lon="9.5407016"><ele>813.0</ele><time>2026-03-22T14:38:29.679Z</time></trkpt><trkpt lat="44.3655924" lon="9.5408264"><ele>815.0</ele><time>2026-03-22T14:38:30.679Z</time></trkpt><trkpt lat="44.3655711" lon="9.5409345"><ele>817.0</ele><time>2026-03-22T14:38:31.679Z</time></trkpt><trkpt lat="44.3655393" lon="9.5410265"><ele>819.0</ele><time>2026-03-22T14:38:32.679Z</time></trkpt><trkpt lat="44.3654505" lon="9.5411485"><ele>818.5</ele><time>2026-03-22T14:38:34.679Z</time></trkpt><trkpt lat="44.3654094" lon="9.5412422"><ele>818.0</ele><time>2026-03-22T14:38:35.679Z</time></trkpt><trkpt lat="44.3653605" lon="9.5413365"><ele>817.5</ele><time>2026-03-22T14:38:36.679Z</time></trkpt><trkpt lat="44.3653067" lon="9.5414001"><ele>817.0</ele><time>2026-03-22T14:38:37.679Z</time></trkpt><trkpt lat="44.36523" lon="9.5414824"><ele>816.5</ele><time>2026-03-22T14:38:39.679Z</time></trkpt><trkpt lat="44.3652448" lon="9.5415868"><ele>816.0</ele><time>2026-03-22T14:38:40.679Z</time></trkpt><trkpt lat="44.3653097" lon="9.5416825"><ele>816.0</ele><time>2026-03-22T14:38:41.679Z</time></trkpt><trkpt lat="44.36533" lon="9.5417909"><ele>816.0</ele><time>2026-03-22T14:38:42.679Z</time></trkpt><trkpt lat="44.3653406" lon="9.5419336"><ele>816.0</ele><time>2026-03-22T14:38:43.679Z</time></trkpt><trkpt lat="44.3653689" lon="9.5420413"><ele>816.0</ele><time>2026-03-22T14:38:44.679Z</time></trkpt><trkpt lat="44.3653904" lon="9.5421432"><ele>816.0</ele><time>2026-03-22T14:38:45.679Z</time></trkpt><trkpt lat="44.3654163" lon="9.5422416"><ele>816.0</ele><time>2026-03-22T14:38:46.679Z</time></trkpt><trkpt lat="44.3653773" lon="9.5423617"><ele>814.6666666666666</ele><time>2026-03-22T14:38:47.679Z</time></trkpt><trkpt lat="44.3653691" lon="9.5424755"><ele>813.3333333333333</ele><time>2026-03-22T14:38:48.679Z</time></trkpt><trkpt lat="44.3653417" lon="9.5425816"><ele>812.0</ele><time>2026-03-22T14:38:49.679Z</time></trkpt><trkpt lat="44.3652873" lon="9.5427056"><ele>810.6666666666666</ele><time>2026-03-22T14:38:50.679Z</time></trkpt><trkpt lat="44.3652717" lon="9.5428229"><ele>809.3333333333333</ele><time>2026-03-22T14:38:51.679Z</time></trkpt><trkpt lat="44.3652394" lon="9.5429375"><ele>808.0</ele><time>2026-03-22T14:38:52.679Z</time></trkpt><trkpt lat="44.3652223" lon="9.5430436"><ele>803.8</ele><time>2026-03-22T14:38:53.679Z</time></trkpt><trkpt lat="44.3651968" lon="9.5431283"><ele>799.5999999999999</ele><time>2026-03-22T14:38:54.679Z</time></trkpt><trkpt lat="44.3651495" lon="9.543237"><ele>795.4000000000001</ele><time>2026-03-22T14:38:56.678Z</time></trkpt><trkpt lat="44.365059" lon="9.5433534"><ele>791.2</ele><time>2026-03-22T14:38:58.679Z</time></trkpt><trkpt lat="44.3649712" lon="9.5432956"><ele>787.0</ele><time>2026-03-22T14:38:59.679Z</time></trkpt><trkpt lat="44.3648974" lon="9.543294"><ele>787.0</ele><time>2026-03-22T14:39:00.679Z</time></trkpt><trkpt lat="44.3647596" lon="9.5434137"><ele>787.0</ele><time>2026-03-22T14:39:02.679Z</time></trkpt><trkpt lat="44.3647247" lon="9.5435128"><ele>787.0</ele><time>2026-03-22T14:39:03.68Z</time></trkpt><trkpt lat="44.3646554" lon="9.5435692"><ele>787.0</ele><time>2026-03-22T14:39:04.68Z</time></trkpt><trkpt lat="44.3645775" lon="9.5436071"><ele>787.0</ele><time>2026-03-22T14:39:05.679Z</time></trkpt><trkpt lat="44.3644956" lon="9.5436273"><ele>789.6</ele><time>2026-03-22T14:39:06.679Z</time></trkpt><trkpt lat="44.3644165" lon="9.5436098"><ele>792.2</ele><time>2026-03-22T14:39:07.679Z</time></trkpt><trkpt lat="44.364329" lon="9.543544"><ele>794.8</ele><time>2026-03-22T14:39:08.679Z</time></trkpt><trkpt lat="44.3642416" lon="9.5435258"><ele>797.4</ele><time>2026-03-22T14:39:09.679Z</time></trkpt><trkpt lat="44.3641102" lon="9.5435378"><ele>800.0</ele><time>2026-03-22T14:39:11.679Z</time></trkpt><trkpt lat="44.364065" lon="9.5436407"><ele>795.0000000000001</ele><time>2026-03-22T14:39:13.679Z</time></trkpt><trkpt lat="44.3639701" lon="9.5437497"><ele>790.0</ele><time>2026-03-22T14:39:15.679Z</time></trkpt><trkpt lat="44.363914" lon="9.5437922"><ele>785.0</ele><time>2026-03-22T14:39:16.679Z</time></trkpt><trkpt lat="44.3638394" lon="9.5438305"><ele>780.0</ele><time>2026-03-22T14:39:17.679Z</time></trkpt><trkpt lat="44.3637672" lon="9.5438659"><ele>775.0000000000001</ele><time>2026-03-22T14:39:19.679Z</time></trkpt><trkpt lat="44.3637443" lon="9.5439563"><ele>770.0</ele><time>2026-03-22T14:39:21.679Z</time></trkpt><trkpt lat="44.3637104" lon="9.5440758"><ele>770.0</ele><time>2026-03-22T14:39:23.679Z</time></trkpt><trkpt lat="44.3636799" lon="9.544218"><ele>770.0</ele><time>2026-03-22T14:39:25.679Z</time></trkpt><trkpt lat="44.3636438" lon="9.5443275"><ele>770.0</ele><time>2026-03-22T14:39:26.68Z</time></trkpt><trkpt lat="44.3635975" lon="9.5444195"><ele>770.0</ele><time>2026-03-22T14:39:27.679Z</time></trkpt><trkpt lat="44.3635508" lon="9.544491"><ele>770.0</ele><time>2026-03-22T14:39:28.679Z</time></trkpt><trkpt lat="44.3634527" lon="9.544557"><ele>769.6666666666667</ele><time>2026-03-22T14:39:29.679Z</time></trkpt><trkpt lat="44.3633729" lon="9.5446221"><ele>769.3333333333334</ele><time>2026-03-22T14:39:30.679Z</time></trkpt><trkpt lat="44.3632938" lon="9.544696"><ele>769.0</ele><time>2026-03-22T14:39:31.679Z</time></trkpt><trkpt lat="44.3632384" lon="9.544775"><ele>768.6666666666667</ele><time>2026-03-22T14:39:32.679Z</time></trkpt><trkpt lat="44.3631625" lon="9.5448474"><ele>768.3333333333334</ele><time>2026-03-22T14:39:33.679Z</time></trkpt><trkpt lat="44.3630861" lon="9.5449089"><ele>768.0</ele><time>2026-03-22T14:39:34.679Z</time></trkpt><trkpt lat="44.3630236" lon="9.544931"><ele>765.5999999999999</ele><time>2026-03-22T14:39:35.679Z</time></trkpt><trkpt lat="44.3629323" lon="9.5449895"><ele>763.1999999999999</ele><time>2026-03-22T14:39:36.679Z</time></trkpt><trkpt lat="44.3628709" lon="9.5450535"><ele>760.8</ele><time>2026-03-22T14:39:37.679Z</time></trkpt><trkpt lat="44.3628104" lon="9.545167"><ele>758.4</ele><time>2026-03-22T14:39:38.678Z</time></trkpt><trkpt lat="44.3627418" lon="9.5452729"><ele>756.0</ele><time>2026-03-22T14:39:39.679Z</time></trkpt><trkpt lat="44.3626889" lon="9.5453855"><ele>756.0</ele><time>2026-03-22T14:39:40.679Z</time></trkpt><trkpt lat="44.3626432" lon="9.5454914"><ele>756.0</ele><time>2026-03-22T14:39:41.679Z</time></trkpt><trkpt lat="44.3625936" lon="9.5455697"><ele>756.0</ele><time>2026-03-22T14:39:42.679Z</time></trkpt><trkpt lat="44.3625562" lon="9.5456484"><ele>756.0</ele><time>2026-03-22T14:39:43.679Z</time></trkpt><trkpt lat="44.3625194" lon="9.5457976"><ele>756.0</ele><time>2026-03-22T14:39:45.679Z</time></trkpt><trkpt lat="44.3624358" lon="9.5458295"><ele>756.0</ele><time>2026-03-22T14:39:48.679Z</time></trkpt><trkpt lat="44.3625093" lon="9.5456672"><ele>756.0</ele><time>2026-03-22T14:39:50.679Z</time></trkpt><trkpt lat="44.3625727" lon="9.5455475"><ele>756.0</ele><time>2026-03-22T14:39:51.679Z</time></trkpt><trkpt lat="44.3626257" lon="9.5454062"><ele>756.0</ele><time>2026-03-22T14:39:52.679Z</time></trkpt><trkpt lat="44.3626693" lon="9.5452671"><ele>756.0</ele><time>2026-03-22T14:39:53.679Z</time></trkpt><trkpt lat="44.3627093" lon="9.5451387"><ele>756.0</ele><time>2026-03-22T14:39:54.679Z</time></trkpt><trkpt lat="44.3627422" lon="9.5450187"><ele>754.1666666666666</ele><time>2026-03-22T14:39:55.679Z</time></trkpt><trkpt lat="44.3627799" lon="9.5449124"><ele>752.3333333333334</ele><time>2026-03-22T14:39:56.68Z</time></trkpt><trkpt lat="44.3628268" lon="9.5448179"><ele>750.5</ele><time>2026-03-22T14:39:57.679Z</time></trkpt><trkpt lat="44.3628575" lon="9.544725"><ele>748.6666666666667</ele><time>2026-03-22T14:39:58.678Z</time></trkpt><trkpt lat="44.3628638" lon="9.5446317"><ele>746.8333333333334</ele><time>2026-03-22T14:39:59.68Z</time></trkpt><trkpt lat="44.3628782" lon="9.5445142"><ele>745.0</ele><time>2026-03-22T14:40:00.679Z</time></trkpt><trkpt lat="44.3628734" lon="9.5443958"><ele>743.3333333333334</ele><time>2026-03-22T14:40:01.679Z</time></trkpt><trkpt lat="44.3628826" lon="9.544277"><ele>741.6666666666667</ele><time>2026-03-22T14:40:02.679Z</time></trkpt><trkpt lat="44.3629002" lon="9.544157"><ele>740.0</ele><time>2026-03-22T14:40:03.679Z</time></trkpt><trkpt lat="44.3628869" lon="9.5440345"><ele>738.3333333333334</ele><time>2026-03-22T14:40:04.68Z</time></trkpt><trkpt lat="44.3628766" lon="9.5439138"><ele>736.6666666666666</ele><time>2026-03-22T14:40:05.679Z</time></trkpt><trkpt lat="44.362856" lon="9.5438112"><ele>735.0</ele><time>2026-03-22T14:40:06.679Z</time></trkpt><trkpt lat="44.3627789" lon="9.5437365"><ele>736.8333333333334</ele><time>2026-03-22T14:40:08.68Z</time></trkpt><trkpt lat="44.3627084" lon="9.5436849"><ele>738.6666666666666</ele><time>2026-03-22T14:40:09.679Z</time></trkpt><trkpt lat="44.3626591" lon="9.5436292"><ele>740.5</ele><time>2026-03-22T14:40:10.679Z</time></trkpt><trkpt lat="44.362578" lon="9.5435699"><ele>742.3333333333333</ele><time>2026-03-22T14:40:11.679Z</time></trkpt><trkpt lat="44.3625209" lon="9.5435294"><ele>744.1666666666666</ele><time>2026-03-22T14:40:12.679Z</time></trkpt><trkpt lat="44.3624636" lon="9.5434737"><ele>746.0</ele><time>2026-03-22T14:40:13.679Z</time></trkpt><trkpt lat="44.3623919" lon="9.5434022"><ele>746.0</ele><time>2026-03-22T14:40:14.679Z</time></trkpt><trkpt lat="44.3623823" lon="9.5432612"><ele>746.0</ele><time>2026-03-22T14:40:15.68Z</time></trkpt><trkpt lat="44.3623239" lon="9.5431589"><ele>746.0</ele><time>2026-03-22T14:40:16.679Z</time></trkpt><trkpt lat="44.3622771" lon="9.5430789"><ele>746.0</ele><time>2026-03-22T14:40:17.679Z</time></trkpt><trkpt lat="44.3622212" lon="9.5430093"><ele>746.0</ele><time>2026-03-22T14:40:18.679Z</time></trkpt><trkpt lat="44.3621886" lon="9.5429326"><ele>746.0</ele><time>2026-03-22T14:40:19.679Z</time></trkpt><trkpt lat="44.3621962" lon="9.5428067"><ele>747.8</ele><time>2026-03-22T14:40:20.679Z</time></trkpt><trkpt lat="44.362274" lon="9.5426835"><ele>749.5999999999999</ele><time>2026-03-22T14:40:21.679Z</time></trkpt><trkpt lat="44.3622844" lon="9.5425806"><ele>751.4</ele><time>2026-03-22T14:40:22.679Z</time></trkpt><trkpt lat="44.3622476" lon="9.5424205"><ele>753.2</ele><time>2026-03-22T14:40:24.679Z</time></trkpt><trkpt lat="44.3621987" lon="9.5423418"><ele>755.0</ele><time>2026-03-22T14:40:25.679Z</time></trkpt><trkpt lat="44.3621413" lon="9.5422159"><ele>752.6</ele><time>2026-03-22T14:40:26.679Z</time></trkpt><trkpt lat="44.3621431" lon="9.5420724"><ele>750.2</ele><time>2026-03-22T14:40:28.679Z</time></trkpt><trkpt lat="44.362138" lon="9.541975"><ele>747.8</ele><time>2026-03-22T14:40:29.679Z</time></trkpt><trkpt lat="44.3621063" lon="9.5418466"><ele>745.4</ele><time>2026-03-22T14:40:31.679Z</time></trkpt><trkpt lat="44.3620387" lon="9.5418295"><ele>743.0</ele><time>2026-03-22T14:40:33.679Z</time></trkpt><trkpt lat="44.3619289" lon="9.5418654"><ele>743.0</ele><time>2026-03-22T14:40:35.679Z</time></trkpt><trkpt lat="44.3618162" lon="9.5419437"><ele>743.0</ele><time>2026-03-22T14:40:36.679Z</time></trkpt><trkpt lat="44.3617183" lon="9.5419365"><ele>743.0</ele><time>2026-03-22T14:40:37.679Z</time></trkpt><trkpt lat="44.3616419" lon="9.5419519"><ele>743.0</ele><time>2026-03-22T14:40:38.679Z</time></trkpt><trkpt lat="44.3615734" lon="9.5420039"><ele>743.0</ele><time>2026-03-22T14:40:39.68Z</time></trkpt><trkpt lat="44.3615153" lon="9.5420528"><ele>743.0</ele><time>2026-03-22T14:40:40.679Z</time></trkpt><trkpt lat="44.3614407" lon="9.5421921"><ele>738.0</ele><time>2026-03-22T14:40:42.679Z</time></trkpt><trkpt lat="44.3613924" lon="9.5423116"><ele>733.0</ele><time>2026-03-22T14:40:43.679Z</time></trkpt><trkpt lat="44.361307" lon="9.5423864"><ele>728.0</ele><time>2026-03-22T14:40:44.679Z</time></trkpt><trkpt lat="44.3612326" lon="9.5424749"><ele>723.0</ele><time>2026-03-22T14:40:45.679Z</time></trkpt><trkpt lat="44.3611479" lon="9.5425438"><ele>718.0</ele><time>2026-03-22T14:40:46.679Z</time></trkpt><trkpt lat="44.3610683" lon="9.5426206"><ele>718.0</ele><time>2026-03-22T14:40:47.679Z</time></trkpt><trkpt lat="44.3610058" lon="9.5426936"><ele>718.0</ele><time>2026-03-22T14:40:48.679Z</time></trkpt><trkpt lat="44.3609299" lon="9.5427055"><ele>718.0</ele><time>2026-03-22T14:40:49.679Z</time></trkpt><trkpt lat="44.3608035" lon="9.5427467"><ele>718.0</ele><time>2026-03-22T14:40:51.679Z</time></trkpt><trkpt lat="44.3607261" lon="9.5427489"><ele>718.0</ele><time>2026-03-22T14:40:52.68Z</time></trkpt><trkpt lat="44.3606618" lon="9.5427395"><ele>718.0</ele><time>2026-03-22T14:40:53.679Z</time></trkpt><trkpt lat="44.3605351" lon="9.542733"><ele>716.6666666666667</ele><time>2026-03-22T14:40:55.679Z</time></trkpt><trkpt lat="44.3604909" lon="9.5426633"><ele>715.3333333333334</ele><time>2026-03-22T14:40:56.679Z</time></trkpt><trkpt lat="44.3604131" lon="9.5426645"><ele>714.0</ele><time>2026-03-22T14:40:57.679Z</time></trkpt><trkpt lat="44.3603323" lon="9.5426599"><ele>712.6666666666666</ele><time>2026-03-22T14:40:58.68Z</time></trkpt><trkpt lat="44.3602592" lon="9.5426859"><ele>711.3333333333333</ele><time>2026-03-22T14:40:59.679Z</time></trkpt><trkpt lat="44.3601755" lon="9.5427397"><ele>710.0</ele><time>2026-03-22T14:41:00.679Z</time></trkpt><trkpt lat="44.3600758" lon="9.5428174"><ele>710.0</ele><time>2026-03-22T14:41:01.679Z</time></trkpt><trkpt lat="44.3599554" lon="9.5428463"><ele>710.0</ele><time>2026-03-22T14:41:02.679Z</time></trkpt><trkpt lat="44.3598649" lon="9.5429066"><ele>710.0</ele><time>2026-03-22T14:41:03.679Z</time></trkpt><trkpt lat="44.3597513" lon="9.5429585"><ele>710.0</ele><time>2026-03-22T14:41:04.68Z</time></trkpt><trkpt lat="44.3596641" lon="9.5429917"><ele>710.0</ele><time>2026-03-22T14:41:05.679Z</time></trkpt><trkpt lat="44.3595702" lon="9.5430658"><ele>705.1666666666666</ele><time>2026-03-22T14:41:06.678Z</time></trkpt><trkpt lat="44.3594813" lon="9.5431069"><ele>700.3333333333333</ele><time>2026-03-22T14:41:07.679Z</time></trkpt><trkpt lat="44.359384" lon="9.5431725"><ele>695.5</ele><time>2026-03-22T14:41:08.679Z</time></trkpt><trkpt lat="44.3593004" lon="9.5432202"><ele>690.6666666666666</ele><time>2026-03-22T14:41:09.679Z</time></trkpt><trkpt lat="44.3592317" lon="9.5432515"><ele>685.8333333333334</ele><time>2026-03-22T14:41:10.679Z</time></trkpt><trkpt lat="44.3591576" lon="9.5432367"><ele>681.0</ele><time>2026-03-22T14:41:11.679Z</time></trkpt><trkpt lat="44.3590368" lon="9.543233"><ele>681.0</ele><time>2026-03-22T14:41:13.679Z</time></trkpt><trkpt lat="44.3589337" lon="9.5431456"><ele>681.0</ele><time>2026-03-22T14:41:15.679Z</time></trkpt><trkpt lat="44.3589001" lon="9.5430613"><ele>681.0</ele><time>2026-03-22T14:41:16.679Z</time></trkpt><trkpt lat="44.3588212" lon="9.5429431"><ele>681.0</ele><time>2026-03-22T14:41:18.679Z</time></trkpt><trkpt lat="44.358771" lon="9.5428572"><ele>681.0</ele><time>2026-03-22T14:41:19.679Z</time></trkpt><trkpt lat="44.3587275" lon="9.5427725"><ele>679.5999999999999</ele><time>2026-03-22T14:41:20.679Z</time></trkpt><trkpt lat="44.3586671" lon="9.5427099"><ele>678.2</ele><time>2026-03-22T14:41:21.679Z</time></trkpt><trkpt lat="44.358577" lon="9.5426184"><ele>676.8</ele><time>2026-03-22T14:41:22.679Z</time></trkpt><trkpt lat="44.3584682" lon="9.5426984"><ele>675.4000000000001</ele><time>2026-03-22T14:41:23.68Z</time></trkpt><trkpt lat="44.3583784" lon="9.5426962"><ele>674.0</ele><time>2026-03-22T14:41:24.679Z</time></trkpt><trkpt lat="44.3582795" lon="9.5427581"><ele>674.0</ele><time>2026-03-22T14:41:25.679Z</time></trkpt><trkpt lat="44.3581812" lon="9.5427853"><ele>674.0</ele><time>2026-03-22T14:41:26.679Z</time></trkpt><trkpt lat="44.3580938" lon="9.5428206"><ele>674.0</ele><time>2026-03-22T14:41:27.679Z</time></trkpt><trkpt lat="44.3580192" lon="9.5428539"><ele>674.0</ele><time>2026-03-22T14:41:28.679Z</time></trkpt><trkpt lat="44.3579513" lon="9.542856"><ele>674.0</ele><time>2026-03-22T14:41:29.679Z</time></trkpt><trkpt lat="44.3578504" lon="9.5428436"><ele>674.0</ele><time>2026-03-22T14:41:31.679Z</time></trkpt><trkpt lat="44.357824" lon="9.542702"><ele>669.6</ele><time>2026-03-22T14:41:33.679Z</time></trkpt><trkpt lat="44.3577616" lon="9.5426697"><ele>665.2</ele><time>2026-03-22T14:41:34.679Z</time></trkpt><trkpt lat="44.3575965" lon="9.5426227"><ele>660.8000000000001</ele><time>2026-03-22T14:41:36.679Z</time></trkpt><trkpt lat="44.3575196" lon="9.5426026"><ele>656.4000000000001</ele><time>2026-03-22T14:41:37.678Z</time></trkpt><trkpt lat="44.3574497" lon="9.5426031"><ele>652.0</ele><time>2026-03-22T14:41:38.679Z</time></trkpt><trkpt lat="44.3573992" lon="9.5425223"><ele>652.0</ele><time>2026-03-22T14:41:39.679Z</time></trkpt><trkpt lat="44.3573719" lon="9.542442"><ele>652.0</ele><time>2026-03-22T14:41:40.68Z</time></trkpt><trkpt lat="44.357329" lon="9.5422829"><ele>652.0</ele><time>2026-03-22T14:41:42.679Z</time></trkpt><trkpt lat="44.3573728" lon="9.5421473"><ele>652.0</ele><time>2026-03-22T14:41:43.678Z</time></trkpt><trkpt lat="44.3573779" lon="9.5420509"><ele>652.0</ele><time>2026-03-22T14:41:44.679Z</time></trkpt><trkpt lat="44.3573685" lon="9.5419238"><ele>651.8333333333334</ele><time>2026-03-22T14:41:45.679Z</time></trkpt><trkpt lat="44.357365" lon="9.5418193"><ele>651.6666666666667</ele><time>2026-03-22T14:41:46.679Z</time></trkpt><trkpt lat="44.3573704" lon="9.5417201"><ele>651.5</ele><time>2026-03-22T14:41:47.679Z</time></trkpt><trkpt lat="44.3573571" lon="9.5416111"><ele>651.3333333333334</ele><time>2026-03-22T14:41:49.679Z</time></trkpt><trkpt lat="44.3572972" lon="9.5415106"><ele>651.1666666666666</ele><time>2026-03-22T14:41:51.679Z</time></trkpt><trkpt lat="44.3572017" lon="9.5415394"><ele>651.0</ele><time>2026-03-22T14:41:53.679Z</time></trkpt><trkpt lat="44.3571388" lon="9.5415993"><ele>651.0</ele><time>2026-03-22T14:41:54.679Z</time></trkpt><trkpt lat="44.3570655" lon="9.5416575"><ele>651.0</ele><time>2026-03-22T14:41:55.679Z</time></trkpt><trkpt lat="44.3569864" lon="9.541716"><ele>651.0</ele><time>2026-03-22T14:41:56.679Z</time></trkpt><trkpt lat="44.3569044" lon="9.5417763"><ele>651.0</ele><time>2026-03-22T14:41:57.679Z</time></trkpt><trkpt lat="44.3568209" lon="9.5418397"><ele>651.0</ele><time>2026-03-22T14:41:58.679Z</time></trkpt><trkpt lat="44.3567435" lon="9.5418822"><ele>651.0</ele><time>2026-03-22T14:41:59.68Z</time></trkpt><trkpt lat="44.3565993" lon="9.5419135"><ele>651.0</ele><time>2026-03-22T14:42:01.68Z</time></trkpt><trkpt lat="44.356503" lon="9.5419468"><ele>651.0</ele><time>2026-03-22T14:42:02.679Z</time></trkpt><trkpt lat="44.3564135" lon="9.5418878"><ele>651.0</ele><time>2026-03-22T14:42:03.679Z</time></trkpt><trkpt lat="44.3563227" lon="9.5419065"><ele>651.0</ele><time>2026-03-22T14:42:04.679Z</time></trkpt><trkpt lat="44.3562187" lon="9.5418404"><ele>651.0</ele><time>2026-03-22T14:42:05.679Z</time></trkpt><trkpt lat="44.356138" lon="9.5418159"><ele>648.8333333333334</ele><time>2026-03-22T14:42:06.679Z</time></trkpt><trkpt lat="44.3560538" lon="9.5417849"><ele>646.6666666666666</ele><time>2026-03-22T14:42:07.679Z</time></trkpt><trkpt lat="44.3559808" lon="9.5417824"><ele>644.5</ele><time>2026-03-22T14:42:08.679Z</time></trkpt><trkpt lat="44.355904" lon="9.5417788"><ele>642.3333333333333</ele><time>2026-03-22T14:42:09.679Z</time></trkpt><trkpt lat="44.355832" lon="9.5418172"><ele>640.1666666666666</ele><time>2026-03-22T14:42:10.68Z</time></trkpt><trkpt lat="44.3557619" lon="9.5419267"><ele>638.0</ele><time>2026-03-22T14:42:11.679Z</time></trkpt><trkpt lat="44.3556788" lon="9.5419882"><ele>635.5</ele><time>2026-03-22T14:42:12.679Z</time></trkpt><trkpt lat="44.3556051" lon="9.5420483"><ele>633.0</ele><time>2026-03-22T14:42:13.679Z</time></trkpt><trkpt lat="44.3555436" lon="9.5420914"><ele>630.5</ele><time>2026-03-22T14:42:14.679Z</time></trkpt><trkpt lat="44.3554834" lon="9.5421383"><ele>628.0</ele><time>2026-03-22T14:42:15.679Z</time></trkpt><trkpt lat="44.3553827" lon="9.5421643"><ele>625.5</ele><time>2026-03-22T14:42:17.679Z</time></trkpt><trkpt lat="44.3553781" lon="9.5422591"><ele>623.0</ele><time>2026-03-22T14:42:19.679Z</time></trkpt><trkpt lat="44.355329" lon="9.5424163"><ele>621.75</ele><time>2026-03-22T14:42:21.679Z</time></trkpt><trkpt lat="44.3552333" lon="9.542526"><ele>620.5</ele><time>2026-03-22T14:42:23.679Z</time></trkpt><trkpt lat="44.3551117" lon="9.5425481"><ele>619.25</ele><time>2026-03-22T14:42:24.679Z</time></trkpt><trkpt lat="44.3550023" lon="9.5426497"><ele>618.0</ele><time>2026-03-22T14:42:26.679Z</time></trkpt><trkpt lat="44.3549565" lon="9.5427399"><ele>618.0</ele><time>2026-03-22T14:42:27.679Z</time></trkpt><trkpt lat="44.354902" lon="9.5428022"><ele>618.0</ele><time>2026-03-22T14:42:28.679Z</time></trkpt><trkpt lat="44.3548456" lon="9.5428512"><ele>618.0</ele><time>2026-03-22T14:42:29.679Z</time></trkpt><trkpt lat="44.3547338" lon="9.5429026"><ele>618.0</ele><time>2026-03-22T14:42:31.679Z</time></trkpt><trkpt lat="44.3546881" lon="9.5428224"><ele>618.0</ele><time>2026-03-22T14:42:32.679Z</time></trkpt><trkpt lat="44.3546071" lon="9.5427538"><ele>618.0</ele><time>2026-03-22T14:42:34.679Z</time></trkpt><trkpt lat="44.3545563" lon="9.5428798"><ele>614.8333333333334</ele><time>2026-03-22T14:42:36.679Z</time></trkpt><trkpt lat="44.3544986" lon="9.5429732"><ele>611.6666666666666</ele><time>2026-03-22T14:42:38.679Z</time></trkpt><trkpt lat="44.3544427" lon="9.5430713"><ele>608.5</ele><time>2026-03-22T14:42:40.679Z</time></trkpt><trkpt lat="44.354395" lon="9.5431491"><ele>605.3333333333333</ele><time>2026-03-22T14:42:42.679Z</time></trkpt><trkpt lat="44.3543389" lon="9.5432266"><ele>602.1666666666666</ele><time>2026-03-22T14:42:44.679Z</time></trkpt><trkpt lat="44.3542855" lon="9.543298"><ele>599.0</ele><time>2026-03-22T14:42:47.679Z</time></trkpt><trkpt lat="44.3542363" lon="9.5433697"><ele>599.0</ele><time>2026-03-22T14:42:50.68Z</time></trkpt><trkpt lat="44.3541783" lon="9.5434368"><ele>599.0</ele><time>2026-03-22T14:42:53.679Z</time></trkpt><trkpt lat="44.3541257" lon="9.5435044"><ele>599.0</ele><time>2026-03-22T14:42:56.679Z</time></trkpt><trkpt lat="44.3540928" lon="9.5435946"><ele>599.0</ele><time>2026-03-22T14:42:58.679Z</time></trkpt><trkpt lat="44.3540291" lon="9.5437019"><ele>599.0</ele><time>2026-03-22T14:43:00.679Z</time></trkpt><trkpt lat="44.3539863" lon="9.5437832"><ele>599.0</ele><time>2026-03-22T14:43:02.679Z</time></trkpt><trkpt lat="44.3539466" lon="9.5438717"><ele>596.8333333333333</ele><time>2026-03-22T14:43:05.679Z</time></trkpt><trkpt lat="44.3538882" lon="9.5439206"><ele>594.6666666666666</ele><time>2026-03-22T14:43:19.679Z</time></trkpt><trkpt lat="44.3538266" lon="9.5439787"><ele>592.5</ele><time>2026-03-22T14:43:22.679Z</time></trkpt><trkpt lat="44.3538209" lon="9.5440864"><ele>590.3333333333334</ele><time>2026-03-22T14:43:25.679Z</time></trkpt><trkpt lat="44.353911" lon="9.544138"><ele>588.1666666666667</ele><time>2026-03-22T14:43:27.679Z</time></trkpt><trkpt lat="44.3539918" lon="9.5441235"><ele>586.0</ele><time>2026-03-22T14:43:29.68Z</time></trkpt><trkpt lat="44.3540831" lon="9.544033"><ele>586.0</ele><time>2026-03-22T14:43:31.679Z</time></trkpt><trkpt lat="44.3541692" lon="9.5439568"><ele>586.0</ele><time>2026-03-22T14:43:33.679Z</time></trkpt><trkpt lat="44.3542367" lon="9.5440465"><ele>586.0</ele><time>2026-03-22T14:43:36.68Z</time></trkpt><trkpt lat="44.354256" lon="9.5441587"><ele>586.0</ele><time>2026-03-22T14:43:38.679Z</time></trkpt><trkpt lat="44.3542875" lon="9.5442938"><ele>586.0</ele><time>2026-03-22T14:43:40.68Z</time></trkpt><trkpt lat="44.3543218" lon="9.5443731"><ele>586.0</ele><time>2026-03-22T14:43:41.679Z</time></trkpt><trkpt lat="44.3543778" lon="9.5445131"><ele>582.6</ele><time>2026-03-22T14:43:43.679Z</time></trkpt><trkpt lat="44.3544409" lon="9.5446279"><ele>579.2</ele><time>2026-03-22T14:43:45.679Z</time></trkpt><trkpt lat="44.3545326" lon="9.5446788"><ele>575.8</ele><time>2026-03-22T14:43:47.679Z</time></trkpt><trkpt lat="44.3546076" lon="9.5447144"><ele>572.4</ele><time>2026-03-22T14:43:50.679Z</time></trkpt><trkpt lat="44.3545896" lon="9.5448063"><ele>569.0</ele><time>2026-03-22T14:43:54.679Z</time></trkpt><trkpt lat="44.3544645" lon="9.5447534"><ele>569.0</ele><time>2026-03-22T14:43:56.679Z</time></trkpt><trkpt lat="44.3543644" lon="9.5447309"><ele>569.0</ele><time>2026-03-22T14:43:57.679Z</time></trkpt><trkpt lat="44.3542714" lon="9.5447162"><ele>569.0</ele><time>2026-03-22T14:43:58.679Z</time></trkpt><trkpt lat="44.3541784" lon="9.544725"><ele>569.0</ele><time>2026-03-22T14:43:59.679Z</time></trkpt><trkpt lat="44.3540689" lon="9.5447868"><ele>569.0</ele><time>2026-03-22T14:44:00.679Z</time></trkpt><trkpt lat="44.3539648" lon="9.5448631"><ele>569.4</ele><time>2026-03-22T14:44:01.679Z</time></trkpt><trkpt lat="44.3538689" lon="9.5449225"><ele>569.8</ele><time>2026-03-22T14:44:02.679Z</time></trkpt><trkpt lat="44.3537727" lon="9.5449585"><ele>570.2</ele><time>2026-03-22T14:44:03.679Z</time></trkpt><trkpt lat="44.3536864" lon="9.5449273"><ele>570.6</ele><time>2026-03-22T14:44:04.679Z</time></trkpt><trkpt lat="44.3535955" lon="9.5448692"><ele>571.0</ele><time>2026-03-22T14:44:05.679Z</time></trkpt><trkpt lat="44.3535011" lon="9.5447783"><ele>571.0</ele><time>2026-03-22T14:44:06.679Z</time></trkpt><trkpt lat="44.3534108" lon="9.5446575"><ele>571.0</ele><time>2026-03-22T14:44:07.679Z</time></trkpt><trkpt lat="44.3533609" lon="9.5445196"><ele>571.0</ele><time>2026-03-22T14:44:08.679Z</time></trkpt><trkpt lat="44.3532968" lon="9.5444131"><ele>571.0</ele><time>2026-03-22T14:44:09.679Z</time></trkpt><trkpt lat="44.3532437" lon="9.5443008"><ele>571.0</ele><time>2026-03-22T14:44:10.679Z</time></trkpt><trkpt lat="44.3531887" lon="9.5442141"><ele>569.6666666666667</ele><time>2026-03-22T14:44:11.679Z</time></trkpt><trkpt lat="44.3531316" lon="9.5441224"><ele>568.3333333333334</ele><time>2026-03-22T14:44:12.679Z</time></trkpt><trkpt lat="44.3530528" lon="9.5439957"><ele>567.0</ele><time>2026-03-22T14:44:14.68Z</time></trkpt><trkpt lat="44.3530168" lon="9.5439217"><ele>565.6666666666666</ele><time>2026-03-22T14:44:15.679Z</time></trkpt><trkpt lat="44.3529802" lon="9.5438316"><ele>564.3333333333333</ele><time>2026-03-22T14:44:16.68Z</time></trkpt><trkpt lat="44.3529535" lon="9.5437202"><ele>563.0</ele><time>2026-03-22T14:44:17.679Z</time></trkpt><trkpt lat="44.3529409" lon="9.5436019"><ele>563.0</ele><time>2026-03-22T14:44:18.679Z</time></trkpt><trkpt lat="44.3529225" lon="9.5434945"><ele>563.0</ele><time>2026-03-22T14:44:19.679Z</time></trkpt><trkpt lat="44.352912" lon="9.5433799"><ele>563.0</ele><time>2026-03-22T14:44:20.679Z</time></trkpt><trkpt lat="44.3529006" lon="9.5432613"><ele>563.0</ele><time>2026-03-22T14:44:21.679Z</time></trkpt><trkpt lat="44.3528915" lon="9.5431452"><ele>563.0</ele><time>2026-03-22T14:44:22.679Z</time></trkpt><trkpt lat="44.3528886" lon="9.5430229"><ele>563.0</ele><time>2026-03-22T14:44:23.68Z</time></trkpt><trkpt lat="44.3528784" lon="9.5429033"><ele>564.0</ele><time>2026-03-22T14:44:24.679Z</time></trkpt><trkpt lat="44.3528733" lon="9.542783"><ele>565.0</ele><time>2026-03-22T14:44:25.679Z</time></trkpt><trkpt lat="44.3528669" lon="9.542657"><ele>566.0</ele><time>2026-03-22T14:44:26.679Z</time></trkpt><trkpt lat="44.3528603" lon="9.5425415"><ele>567.0</ele><time>2026-03-22T14:44:27.679Z</time></trkpt><trkpt lat="44.3528569" lon="9.5424252"><ele>568.0</ele><time>2026-03-22T14:44:28.679Z</time></trkpt><trkpt lat="44.3528602" lon="9.542292"><ele>569.0</ele><time>2026-03-22T14:44:29.679Z</time></trkpt><trkpt lat="44.3528618" lon="9.542165"><ele>571.5</ele><time>2026-03-22T14:44:30.679Z</time></trkpt><trkpt lat="44.352899" lon="9.5420115"><ele>574.0</ele><time>2026-03-22T14:44:31.68Z</time></trkpt><trkpt lat="44.3528992" lon="9.5418306"><ele>576.5</ele><time>2026-03-22T14:44:32.679Z</time></trkpt><trkpt lat="44.3528948" lon="9.5416721"><ele>579.0</ele><time>2026-03-22T14:44:33.679Z</time></trkpt><trkpt lat="44.3528925" lon="9.5415241"><ele>579.0</ele><time>2026-03-22T14:44:34.679Z</time></trkpt><trkpt lat="44.3528755" lon="9.5413885"><ele>579.0</ele><time>2026-03-22T14:44:35.679Z</time></trkpt><trkpt lat="44.3528433" lon="9.5412514"><ele>579.0</ele><time>2026-03-22T14:44:36.679Z</time></trkpt><trkpt lat="44.352794" lon="9.5411243"><ele>579.0</ele><time>2026-03-22T14:44:37.679Z</time></trkpt><trkpt lat="44.3527139" lon="9.5410216"><ele>579.0</ele><time>2026-03-22T14:44:38.679Z</time></trkpt><trkpt lat="44.3526234" lon="9.5409553"><ele>583.75</ele><time>2026-03-22T14:44:39.679Z</time></trkpt><trkpt lat="44.3525219" lon="9.5409321"><ele>588.5</ele><time>2026-03-22T14:44:40.679Z</time></trkpt><trkpt lat="44.3524093" lon="9.5409415"><ele>593.25</ele><time>2026-03-22T14:44:41.68Z</time></trkpt><trkpt lat="44.3523116" lon="9.5410387"><ele>598.0</ele><time>2026-03-22T14:44:42.679Z</time></trkpt><trkpt lat="44.3522085" lon="9.5411113"><ele>600.6666666666667</ele><time>2026-03-22T14:44:43.679Z</time></trkpt><trkpt lat="44.35216" lon="9.5413192"><ele>603.3333333333334</ele><time>2026-03-22T14:44:44.679Z</time></trkpt><trkpt lat="44.3520877" lon="9.5414869"><ele>606.0</ele><time>2026-03-22T14:44:45.679Z</time></trkpt><trkpt lat="44.3520112" lon="9.5416726"><ele>606.0</ele><time>2026-03-22T14:44:46.679Z</time></trkpt><trkpt lat="44.3519297" lon="9.5418452"><ele>606.0</ele><time>2026-03-22T14:44:47.679Z</time></trkpt><trkpt lat="44.3518565" lon="9.5420004"><ele>606.0</ele><time>2026-03-22T14:44:48.679Z</time></trkpt><trkpt lat="44.3517889" lon="9.5421548"><ele>606.0</ele><time>2026-03-22T14:44:49.679Z</time></trkpt><trkpt lat="44.3517227" lon="9.5423011"><ele>602.75</ele><time>2026-03-22T14:44:50.679Z</time></trkpt><trkpt lat="44.3516528" lon="9.5424355"><ele>599.5</ele><time>2026-03-22T14:44:51.679Z</time></trkpt><trkpt lat="44.3515876" lon="9.5425615"><ele>596.25</ele><time>2026-03-22T14:44:52.679Z</time></trkpt><trkpt lat="44.3515447" lon="9.5427055"><ele>593.0</ele><time>2026-03-22T14:44:53.68Z</time></trkpt><trkpt lat="44.3515178" lon="9.5428635"><ele>589.1999999999999</ele><time>2026-03-22T14:44:54.679Z</time></trkpt><trkpt lat="44.3514857" lon="9.5430023"><ele>585.4</ele><time>2026-03-22T14:44:55.679Z</time></trkpt><trkpt lat="44.3514287" lon="9.5431403"><ele>581.5999999999999</ele><time>2026-03-22T14:44:56.679Z</time></trkpt><trkpt lat="44.3513704" lon="9.5432699"><ele>577.8</ele><time>2026-03-22T14:44:57.68Z</time></trkpt><trkpt lat="44.3513161" lon="9.5433899"><ele>574.0</ele><time>2026-03-22T14:44:58.679Z</time></trkpt><trkpt lat="44.3512524" lon="9.5434912"><ele>578.4</ele><time>2026-03-22T14:44:59.679Z</time></trkpt><trkpt lat="44.3511879" lon="9.5435787"><ele>582.8</ele><time>2026-03-22T14:45:00.679Z</time></trkpt><trkpt lat="44.3511011" lon="9.5436687"><ele>587.2</ele><time>2026-03-22T14:45:01.679Z</time></trkpt><trkpt lat="44.3510039" lon="9.5437701"><ele>591.6</ele><time>2026-03-22T14:45:02.68Z</time></trkpt><trkpt lat="44.3509116" lon="9.5438789"><ele>596.0</ele><time>2026-03-22T14:45:03.679Z</time></trkpt><trkpt lat="44.3508226" lon="9.5440205"><ele>596.0</ele><time>2026-03-22T14:45:04.679Z</time></trkpt><trkpt lat="44.3507489" lon="9.5441692"><ele>596.0</ele><time>2026-03-22T14:45:05.679Z</time></trkpt><trkpt lat="44.3507836" lon="9.5443973"><ele>596.0</ele><time>2026-03-22T14:45:06.679Z</time></trkpt><trkpt lat="44.3507335" lon="9.5445639"><ele>596.0</ele><time>2026-03-22T14:45:07.68Z</time></trkpt><trkpt lat="44.3506622" lon="9.5447216"><ele>593.0</ele><time>2026-03-22T14:45:08.679Z</time></trkpt><trkpt lat="44.3505926" lon="9.544918"><ele>590.0</ele><time>2026-03-22T14:45:09.679Z</time></trkpt><trkpt lat="44.3505103" lon="9.5451011"><ele>587.0</ele><time>2026-03-22T14:45:10.679Z</time></trkpt><trkpt lat="44.3504295" lon="9.5452685"><ele>589.5</ele><time>2026-03-22T14:45:11.679Z</time></trkpt><trkpt lat="44.3503484" lon="9.5454248"><ele>592.0</ele><time>2026-03-22T14:45:12.679Z</time></trkpt><trkpt lat="44.3502781" lon="9.5455736"><ele>594.5</ele><time>2026-03-22T14:45:13.68Z</time></trkpt><trkpt lat="44.3501987" lon="9.5457151"><ele>597.0</ele><time>2026-03-22T14:45:14.679Z</time></trkpt><trkpt lat="44.3501255" lon="9.5458483"><ele>597.0</ele><time>2026-03-22T14:45:15.679Z</time></trkpt><trkpt lat="44.3500433" lon="9.5459731"><ele>597.0</ele><time>2026-03-22T14:45:16.679Z</time></trkpt><trkpt lat="44.3499558" lon="9.546095"><ele>597.0</ele><time>2026-03-22T14:45:17.679Z</time></trkpt><trkpt lat="44.3498755" lon="9.546226"><ele>597.0</ele><time>2026-03-22T14:45:18.679Z</time></trkpt><trkpt lat="44.3497879" lon="9.5463545"><ele>594.4</ele><time>2026-03-22T14:45:19.68Z</time></trkpt><trkpt lat="44.349714" lon="9.5464776"><ele>591.8000000000001</ele><time>2026-03-22T14:45:20.679Z</time></trkpt><trkpt lat="44.3496399" lon="9.5465749"><ele>589.2</ele><time>2026-03-22T14:45:21.678Z</time></trkpt><trkpt lat="44.3495556" lon="9.5466351"><ele>586.6</ele><time>2026-03-22T14:45:22.679Z</time></trkpt><trkpt lat="44.3494665" lon="9.5466394"><ele>584.0</ele><time>2026-03-22T14:45:23.679Z</time></trkpt><trkpt lat="44.3493776" lon="9.5465883"><ele>584.0</ele><time>2026-03-22T14:45:24.679Z</time></trkpt><trkpt lat="44.3493216" lon="9.5465084"><ele>584.0</ele><time>2026-03-22T14:45:25.679Z</time></trkpt><trkpt lat="44.3492996" lon="9.5464019"><ele>584.0</ele><time>2026-03-22T14:45:26.679Z</time></trkpt><trkpt lat="44.3492939" lon="9.5462915"><ele>584.0</ele><time>2026-03-22T14:45:27.679Z</time></trkpt><trkpt lat="44.3493095" lon="9.5461585"><ele>584.0</ele><time>2026-03-22T14:45:28.679Z</time></trkpt><trkpt lat="44.3493366" lon="9.5460123"><ele>584.0</ele><time>2026-03-22T14:45:29.68Z</time></trkpt><trkpt lat="44.3493346" lon="9.5458584"><ele>584.0</ele><time>2026-03-22T14:45:30.68Z</time></trkpt><trkpt lat="44.3493074" lon="9.545688"><ele>584.0</ele><time>2026-03-22T14:45:31.68Z</time></trkpt><trkpt lat="44.3492775" lon="9.5455094"><ele>584.0</ele><time>2026-03-22T14:45:32.679Z</time></trkpt><trkpt lat="44.3492472" lon="9.5453281"><ele>584.0</ele><time>2026-03-22T14:45:33.679Z</time></trkpt><trkpt lat="44.3492198" lon="9.5451522"><ele>588.75</ele><time>2026-03-22T14:45:34.679Z</time></trkpt><trkpt lat="44.3491912" lon="9.5449776"><ele>593.5</ele><time>2026-03-22T14:45:35.679Z</time></trkpt><trkpt lat="44.3491355" lon="9.5448132"><ele>598.25</ele><time>2026-03-22T14:45:36.679Z</time></trkpt><trkpt lat="44.3490281" lon="9.5446747"><ele>603.0</ele><time>2026-03-22T14:45:37.679Z</time></trkpt><trkpt lat="44.3489296" lon="9.5445302"><ele>596.25</ele><time>2026-03-22T14:45:38.679Z</time></trkpt><trkpt lat="44.3488309" lon="9.5443998"><ele>589.5</ele><time>2026-03-22T14:45:39.679Z</time></trkpt><trkpt lat="44.3487357" lon="9.5442777"><ele>582.75</ele><time>2026-03-22T14:45:40.679Z</time></trkpt><trkpt lat="44.3486782" lon="9.5441735"><ele>576.0</ele><time>2026-03-22T14:45:41.679Z</time></trkpt><trkpt lat="44.3486185" lon="9.5440575"><ele>576.0</ele><time>2026-03-22T14:45:42.679Z</time></trkpt><trkpt lat="44.3485766" lon="9.5439162"><ele>576.0</ele><time>2026-03-22T14:45:43.679Z</time></trkpt><trkpt lat="44.3486555" lon="9.5438392"><ele>576.0</ele><time>2026-03-22T14:45:44.679Z</time></trkpt><trkpt lat="44.3486926" lon="9.5436966"><ele>576.0</ele><time>2026-03-22T14:45:45.679Z</time></trkpt><trkpt lat="44.3487286" lon="9.5435666"><ele>576.0</ele><time>2026-03-22T14:45:46.679Z</time></trkpt><trkpt lat="44.3487581" lon="9.5434189"><ele>578.0</ele><time>2026-03-22T14:45:47.679Z</time></trkpt><trkpt lat="44.3487512" lon="9.5432703"><ele>580.0</ele><time>2026-03-22T14:45:48.679Z</time></trkpt><trkpt lat="44.3486978" lon="9.54315"><ele>582.0</ele><time>2026-03-22T14:45:49.679Z</time></trkpt><trkpt lat="44.3486436" lon="9.543042"><ele>584.0</ele><time>2026-03-22T14:45:50.679Z</time></trkpt><trkpt lat="44.3485623" lon="9.542993"><ele>586.0</ele><time>2026-03-22T14:45:51.679Z</time></trkpt><trkpt lat="44.3484874" lon="9.5429107"><ele>588.8</ele><time>2026-03-22T14:45:52.679Z</time></trkpt><trkpt lat="44.3484482" lon="9.5428005"><ele>591.6</ele><time>2026-03-22T14:45:53.679Z</time></trkpt><trkpt lat="44.348418" lon="9.5426834"><ele>594.4</ele><time>2026-03-22T14:45:54.679Z</time></trkpt><trkpt lat="44.3484001" lon="9.5425449"><ele>597.2</ele><time>2026-03-22T14:45:55.679Z</time></trkpt><trkpt lat="44.3484044" lon="9.5424143"><ele>600.0</ele><time>2026-03-22T14:45:56.679Z</time></trkpt><trkpt lat="44.3484259" lon="9.5422865"><ele>600.0</ele><time>2026-03-22T14:45:57.679Z</time></trkpt><trkpt lat="44.3484186" lon="9.5421766"><ele>600.0</ele><time>2026-03-22T14:45:58.679Z</time></trkpt><trkpt lat="44.3483952" lon="9.5420619"><ele>600.0</ele><time>2026-03-22T14:45:59.679Z</time></trkpt><trkpt lat="44.3483486" lon="9.5419684"><ele>600.0</ele><time>2026-03-22T14:46:00.679Z</time></trkpt><trkpt lat="44.3481932" lon="9.5419449"><ele>600.0</ele><time>2026-03-22T14:46:01.679Z</time></trkpt><trkpt lat="44.3480928" lon="9.5419239"><ele>603.25</ele><time>2026-03-22T14:46:02.679Z</time></trkpt><trkpt lat="44.347981" lon="9.5418995"><ele>606.5</ele><time>2026-03-22T14:46:03.679Z</time></trkpt><trkpt lat="44.3478656" lon="9.5418917"><ele>609.75</ele><time>2026-03-22T14:46:04.679Z</time></trkpt><trkpt lat="44.3477588" lon="9.5419299"><ele>613.0</ele><time>2026-03-22T14:46:05.679Z</time></trkpt><trkpt lat="44.3476417" lon="9.5419543"><ele>613.0</ele><time>2026-03-22T14:46:06.679Z</time></trkpt><trkpt lat="44.3475305" lon="9.5419834"><ele>613.0</ele><time>2026-03-22T14:46:07.679Z</time></trkpt><trkpt lat="44.3474221" lon="9.5420201"><ele>613.0</ele><time>2026-03-22T14:46:08.678Z</time></trkpt><trkpt lat="44.3473231" lon="9.5420409"><ele>613.0</ele><time>2026-03-22T14:46:09.679Z</time></trkpt><trkpt lat="44.3472361" lon="9.5419913"><ele>613.0</ele><time>2026-03-22T14:46:10.679Z</time></trkpt><trkpt lat="44.3471741" lon="9.5419145"><ele>612.4</ele><time>2026-03-22T14:46:11.68Z</time></trkpt><trkpt lat="44.3471318" lon="9.5418219"><ele>611.8</ele><time>2026-03-22T14:46:12.679Z</time></trkpt><trkpt lat="44.3471009" lon="9.5416843"><ele>611.2</ele><time>2026-03-22T14:46:13.679Z</time></trkpt><trkpt lat="44.3470704" lon="9.5415414"><ele>610.6</ele><time>2026-03-22T14:46:14.678Z</time></trkpt><trkpt lat="44.3470306" lon="9.5413391"><ele>610.0</ele><time>2026-03-22T14:46:15.679Z</time></trkpt><trkpt lat="44.3469943" lon="9.5411544"><ele>610.0</ele><time>2026-03-22T14:46:16.679Z</time></trkpt><trkpt lat="44.3469451" lon="9.5409921"><ele>610.0</ele><time>2026-03-22T14:46:17.679Z</time></trkpt><trkpt lat="44.3468917" lon="9.5408417"><ele>610.0</ele><time>2026-03-22T14:46:18.679Z</time></trkpt><trkpt lat="44.3468285" lon="9.5406935"><ele>610.0</ele><time>2026-03-22T14:46:19.679Z</time></trkpt><trkpt lat="44.3467642" lon="9.5405885"><ele>610.0</ele><time>2026-03-22T14:46:20.679Z</time></trkpt><trkpt lat="44.3465703" lon="9.5406754"><ele>610.0</ele><time>2026-03-22T14:46:21.679Z</time></trkpt><trkpt lat="44.3464643" lon="9.5406312"><ele>610.0</ele><time>2026-03-22T14:46:22.679Z</time></trkpt><trkpt lat="44.3463248" lon="9.5406536"><ele>606.5</ele><time>2026-03-22T14:46:23.679Z</time></trkpt><trkpt lat="44.3461985" lon="9.5406619"><ele>603.0</ele><time>2026-03-22T14:46:24.679Z</time></trkpt><trkpt lat="44.3460814" lon="9.5406617"><ele>599.5</ele><time>2026-03-22T14:46:25.679Z</time></trkpt><trkpt lat="44.3459662" lon="9.5406385"><ele>596.0</ele><time>2026-03-22T14:46:26.678Z</time></trkpt><trkpt lat="44.3458661" lon="9.5406218"><ele>596.0</ele><time>2026-03-22T14:46:27.678Z</time></trkpt><trkpt lat="44.3457662" lon="9.5405572"><ele>596.0</ele><time>2026-03-22T14:46:28.679Z</time></trkpt><trkpt lat="44.3458193" lon="9.5403049"><ele>596.0</ele><time>2026-03-22T14:46:29.679Z</time></trkpt><trkpt lat="44.3457963" lon="9.5401528"><ele>596.0</ele><time>2026-03-22T14:46:30.68Z</time></trkpt><trkpt lat="44.3457771" lon="9.5399847"><ele>602.25</ele><time>2026-03-22T14:46:31.679Z</time></trkpt><trkpt lat="44.3457386" lon="9.539817"><ele>608.5</ele><time>2026-03-22T14:46:32.679Z</time></trkpt><trkpt lat="44.3456631" lon="9.5396931"><ele>614.75</ele><time>2026-03-22T14:46:33.678Z</time></trkpt><trkpt lat="44.3455924" lon="9.5395588"><ele>621.0</ele><time>2026-03-22T14:46:34.679Z</time></trkpt><trkpt lat="44.3455191" lon="9.539425"><ele>624.0</ele><time>2026-03-22T14:46:35.679Z</time></trkpt><trkpt lat="44.345395" lon="9.5394244"><ele>627.0</ele><time>2026-03-22T14:46:36.679Z</time></trkpt><trkpt lat="44.3452527" lon="9.5393989"><ele>630.0</ele><time>2026-03-22T14:46:37.679Z</time></trkpt><trkpt lat="44.3451177" lon="9.5394295"><ele>633.0</ele><time>2026-03-22T14:46:38.679Z</time></trkpt><trkpt lat="44.3449692" lon="9.539434"><ele>633.0</ele><time>2026-03-22T14:46:39.679Z</time></trkpt><trkpt lat="44.344829" lon="9.5394014"><ele>633.0</ele><time>2026-03-22T14:46:40.679Z</time></trkpt><trkpt lat="44.3446878" lon="9.5393541"><ele>633.0</ele><time>2026-03-22T14:46:41.68Z</time></trkpt><trkpt lat="44.3445352" lon="9.539303"><ele>633.0</ele><time>2026-03-22T14:46:42.679Z</time></trkpt><trkpt lat="44.3443919" lon="9.5392685"><ele>629.5</ele><time>2026-03-22T14:46:43.679Z</time></trkpt><trkpt lat="44.3442544" lon="9.5392635"><ele>626.0</ele><time>2026-03-22T14:46:44.679Z</time></trkpt><trkpt lat="44.3441202" lon="9.5392657"><ele>622.5</ele><time>2026-03-22T14:46:45.679Z</time></trkpt><trkpt lat="44.344013" lon="9.5392537"><ele>619.0</ele><time>2026-03-22T14:46:46.679Z</time></trkpt><trkpt lat="44.3439194" lon="9.5392145"><ele>620.0</ele><time>2026-03-22T14:46:47.679Z</time></trkpt><trkpt lat="44.3438337" lon="9.5391424"><ele>621.0</ele><time>2026-03-22T14:46:48.679Z</time></trkpt><trkpt lat="44.3437811" lon="9.5390219"><ele>622.0</ele><time>2026-03-22T14:46:49.679Z</time></trkpt><trkpt lat="44.3437315" lon="9.5389034"><ele>623.0</ele><time>2026-03-22T14:46:50.679Z</time></trkpt><trkpt lat="44.3436732" lon="9.5387859"><ele>624.0</ele><time>2026-03-22T14:46:51.679Z</time></trkpt><trkpt lat="44.3436014" lon="9.5386684"><ele>624.0</ele><time>2026-03-22T14:46:52.679Z</time></trkpt><trkpt lat="44.3435125" lon="9.5385779"><ele>624.0</ele><time>2026-03-22T14:46:53.679Z</time></trkpt><trkpt lat="44.3433336" lon="9.5386619"><ele>624.0</ele><time>2026-03-22T14:46:54.679Z</time></trkpt><trkpt lat="44.3432106" lon="9.5386508"><ele>624.0</ele><time>2026-03-22T14:46:55.679Z</time></trkpt><trkpt lat="44.3430843" lon="9.5386594"><ele>618.6</ele><time>2026-03-22T14:46:56.68Z</time></trkpt><trkpt lat="44.3429804" lon="9.5386632"><ele>613.2</ele><time>2026-03-22T14:46:57.679Z</time></trkpt><trkpt lat="44.3428849" lon="9.5386484"><ele>607.8000000000001</ele><time>2026-03-22T14:46:58.679Z</time></trkpt><trkpt lat="44.342805" lon="9.5385993"><ele>602.4</ele><time>2026-03-22T14:46:59.679Z</time></trkpt><trkpt lat="44.3427537" lon="9.5385004"><ele>597.0</ele><time>2026-03-22T14:47:00.68Z</time></trkpt><trkpt lat="44.342723" lon="9.5383649"><ele>597.0</ele><time>2026-03-22T14:47:01.679Z</time></trkpt><trkpt lat="44.3427211" lon="9.5382282"><ele>597.0</ele><time>2026-03-22T14:47:02.678Z</time></trkpt><trkpt lat="44.3427318" lon="9.53807"><ele>597.0</ele><time>2026-03-22T14:47:03.679Z</time></trkpt><trkpt lat="44.3427475" lon="9.5379106"><ele>597.0</ele><time>2026-03-22T14:47:04.679Z</time></trkpt><trkpt lat="44.3427622" lon="9.5377308"><ele>597.75</ele><time>2026-03-22T14:47:05.679Z</time></trkpt><trkpt lat="44.3427805" lon="9.537535"><ele>598.5</ele><time>2026-03-22T14:47:06.679Z</time></trkpt><trkpt lat="44.3428052" lon="9.5373713"><ele>599.25</ele><time>2026-03-22T14:47:07.68Z</time></trkpt><trkpt lat="44.342828" lon="9.5372009"><ele>600.0</ele><time>2026-03-22T14:47:08.679Z</time></trkpt><trkpt lat="44.3429451" lon="9.5371034"><ele>596.75</ele><time>2026-03-22T14:47:09.679Z</time></trkpt><trkpt lat="44.3430266" lon="9.5369977"><ele>593.5</ele><time>2026-03-22T14:47:10.679Z</time></trkpt><trkpt lat="44.3431415" lon="9.5369398"><ele>590.25</ele><time>2026-03-22T14:47:11.679Z</time></trkpt><trkpt lat="44.3432627" lon="9.5368681"><ele>587.0</ele><time>2026-03-22T14:47:12.68Z</time></trkpt><trkpt lat="44.3433814" lon="9.5368108"><ele>594.5</ele><time>2026-03-22T14:47:13.679Z</time></trkpt><trkpt lat="44.3434946" lon="9.5367569"><ele>602.0</ele><time>2026-03-22T14:47:14.679Z</time></trkpt><trkpt lat="44.3436084" lon="9.5366966"><ele>609.5</ele><time>2026-03-22T14:47:15.68Z</time></trkpt><trkpt lat="44.3436638" lon="9.5364806"><ele>617.0</ele><time>2026-03-22T14:47:16.679Z</time></trkpt><trkpt lat="44.3437442" lon="9.536364"><ele>612.25</ele><time>2026-03-22T14:47:17.679Z</time></trkpt><trkpt lat="44.3437783" lon="9.5361637"><ele>607.5</ele><time>2026-03-22T14:47:18.679Z</time></trkpt><trkpt lat="44.3437978" lon="9.5359948"><ele>602.75</ele><time>2026-03-22T14:47:19.679Z</time></trkpt><trkpt lat="44.3437819" lon="9.5357916"><ele>598.0</ele><time>2026-03-22T14:47:20.68Z</time></trkpt><trkpt lat="44.3437498" lon="9.535605"><ele>598.0</ele><time>2026-03-22T14:47:21.68Z</time></trkpt><trkpt lat="44.3437347" lon="9.5354304"><ele>598.0</ele><time>2026-03-22T14:47:22.68Z</time></trkpt><trkpt lat="44.3437182" lon="9.5352474"><ele>598.0</ele><time>2026-03-22T14:47:23.679Z</time></trkpt><trkpt lat="44.3436739" lon="9.5350836"><ele>598.0</ele><time>2026-03-22T14:47:24.68Z</time></trkpt><trkpt lat="44.343631" lon="9.5349316"><ele>599.75</ele><time>2026-03-22T14:47:25.679Z</time></trkpt><trkpt lat="44.3435462" lon="9.5348081"><ele>601.5</ele><time>2026-03-22T14:47:26.679Z</time></trkpt><trkpt lat="44.3434344" lon="9.5346749"><ele>603.25</ele><time>2026-03-22T14:47:27.679Z</time></trkpt><trkpt lat="44.3433696" lon="9.5345304"><ele>605.0</ele><time>2026-03-22T14:47:28.679Z</time></trkpt><trkpt lat="44.343287" lon="9.5343663"><ele>608.25</ele><time>2026-03-22T14:47:29.679Z</time></trkpt><trkpt lat="44.3432303" lon="9.5341985"><ele>611.5</ele><time>2026-03-22T14:47:30.679Z</time></trkpt><trkpt lat="44.3431741" lon="9.5340539"><ele>614.75</ele><time>2026-03-22T14:47:31.679Z</time></trkpt><trkpt lat="44.3431193" lon="9.5338741"><ele>618.0</ele><time>2026-03-22T14:47:32.679Z</time></trkpt><trkpt lat="44.3431965" lon="9.5338414"><ele>618.0</ele><time>2026-03-22T14:47:33.679Z</time></trkpt><trkpt lat="44.3431947" lon="9.5337303"><ele>618.0</ele><time>2026-03-22T14:47:34.679Z</time></trkpt><trkpt lat="44.343283" lon="9.5337117"><ele>618.0</ele><time>2026-03-22T14:47:35.679Z</time></trkpt><trkpt lat="44.3433423" lon="9.5336566"><ele>618.0</ele><time>2026-03-22T14:47:36.68Z</time></trkpt><trkpt lat="44.3434526" lon="9.5336331"><ele>618.0</ele><time>2026-03-22T14:47:37.679Z</time></trkpt><trkpt lat="44.3435436" lon="9.5335882"><ele>618.0</ele><time>2026-03-22T14:47:38.679Z</time></trkpt><trkpt lat="44.3436275" lon="9.5335343"><ele>616.75</ele><time>2026-03-22T14:47:39.679Z</time></trkpt><trkpt lat="44.3436736" lon="9.533378"><ele>615.5</ele><time>2026-03-22T14:47:40.679Z</time></trkpt><trkpt lat="44.3437403" lon="9.5333034"><ele>614.25</ele><time>2026-03-22T14:47:41.679Z</time></trkpt><trkpt lat="44.343757" lon="9.533185"><ele>613.0</ele><time>2026-03-22T14:47:42.679Z</time></trkpt><trkpt lat="44.3437076" lon="9.5329681"><ele>612.0</ele><time>2026-03-22T14:47:43.679Z</time></trkpt><trkpt lat="44.3436249" lon="9.5328496"><ele>611.0</ele><time>2026-03-22T14:47:44.679Z</time></trkpt><trkpt lat="44.3436034" lon="9.5327203"><ele>610.0</ele><time>2026-03-22T14:47:45.679Z</time></trkpt><trkpt lat="44.3436244" lon="9.5326091"><ele>609.0</ele><time>2026-03-22T14:47:46.679Z</time></trkpt><trkpt lat="44.3436752" lon="9.5325158"><ele>608.0</ele><time>2026-03-22T14:47:47.679Z</time></trkpt><trkpt lat="44.3437481" lon="9.5324694"><ele>608.0</ele><time>2026-03-22T14:47:48.68Z</time></trkpt><trkpt lat="44.3438476" lon="9.5324432"><ele>608.0</ele><time>2026-03-22T14:47:49.679Z</time></trkpt><trkpt lat="44.3439526" lon="9.5324266"><ele>608.0</ele><time>2026-03-22T14:47:50.679Z</time></trkpt><trkpt lat="44.3440478" lon="9.5323974"><ele>608.0</ele><time>2026-03-22T14:47:51.679Z</time></trkpt><trkpt lat="44.3441362" lon="9.532352"><ele>608.0</ele><time>2026-03-22T14:47:52.679Z</time></trkpt><trkpt lat="44.3442089" lon="9.5322855"><ele>613.1999999999999</ele><time>2026-03-22T14:47:53.679Z</time></trkpt><trkpt lat="44.3442606" lon="9.5321886"><ele>618.4</ele><time>2026-03-22T14:47:54.679Z</time></trkpt><trkpt lat="44.3441938" lon="9.5320133"><ele>623.5999999999999</ele><time>2026-03-22T14:47:55.679Z</time></trkpt><trkpt lat="44.3441659" lon="9.5319003"><ele>628.8</ele><time>2026-03-22T14:47:56.679Z</time></trkpt><trkpt lat="44.3441157" lon="9.5317864"><ele>634.0</ele><time>2026-03-22T14:47:57.679Z</time></trkpt><trkpt lat="44.3440179" lon="9.5316765"><ele>634.0</ele><time>2026-03-22T14:47:58.679Z</time></trkpt><trkpt lat="44.3439037" lon="9.5315727"><ele>634.0</ele><time>2026-03-22T14:47:59.679Z</time></trkpt><trkpt lat="44.3437939" lon="9.5314957"><ele>634.0</ele><time>2026-03-22T14:48:00.68Z</time></trkpt><trkpt lat="44.3436423" lon="9.531458"><ele>634.0</ele><time>2026-03-22T14:48:01.68Z</time></trkpt><trkpt lat="44.3435099" lon="9.5314149"><ele>627.3333333333334</ele><time>2026-03-22T14:48:02.68Z</time></trkpt><trkpt lat="44.3433706" lon="9.5313762"><ele>620.6666666666666</ele><time>2026-03-22T14:48:03.679Z</time></trkpt><trkpt lat="44.3432154" lon="9.5313498"><ele>614.0</ele><time>2026-03-22T14:48:04.679Z</time></trkpt><trkpt lat="44.3430583" lon="9.5313168"><ele>609.6666666666666</ele><time>2026-03-22T14:48:05.679Z</time></trkpt><trkpt lat="44.3429068" lon="9.5312794"><ele>605.3333333333334</ele><time>2026-03-22T14:48:06.679Z</time></trkpt><trkpt lat="44.3427514" lon="9.5312447"><ele>601.0</ele><time>2026-03-22T14:48:07.679Z</time></trkpt><trkpt lat="44.3425979" lon="9.531209"><ele>609.6666666666667</ele><time>2026-03-22T14:48:08.679Z</time></trkpt><trkpt lat="44.3424382" lon="9.5311869"><ele>618.3333333333334</ele><time>2026-03-22T14:48:09.679Z</time></trkpt><trkpt lat="44.3422665" lon="9.5312031"><ele>627.0</ele><time>2026-03-22T14:48:10.679Z</time></trkpt><trkpt lat="44.3421387" lon="9.5313325"><ele>627.0</ele><time>2026-03-22T14:48:11.679Z</time></trkpt><trkpt lat="44.3419989" lon="9.5314015"><ele>627.0</ele><time>2026-03-22T14:48:12.679Z</time></trkpt><trkpt lat="44.3418643" lon="9.5314945"><ele>627.0</ele><time>2026-03-22T14:48:13.678Z</time></trkpt><trkpt lat="44.3417403" lon="9.5315862"><ele>627.0</ele><time>2026-03-22T14:48:14.679Z</time></trkpt><trkpt lat="44.3416167" lon="9.5316787"><ele>627.0</ele><time>2026-03-22T14:48:15.679Z</time></trkpt><trkpt lat="44.3415028" lon="9.5317915"><ele>627.0</ele><time>2026-03-22T14:48:16.679Z</time></trkpt><trkpt lat="44.3413819" lon="9.5318842"><ele>627.0</ele><time>2026-03-22T14:48:17.679Z</time></trkpt><trkpt lat="44.3412852" lon="9.5320431"><ele>627.0</ele><time>2026-03-22T14:48:18.679Z</time></trkpt><trkpt lat="44.3412074" lon="9.5321955"><ele>628.75</ele><time>2026-03-22T14:48:19.679Z</time></trkpt><trkpt lat="44.3411315" lon="9.5323306"><ele>630.5</ele><time>2026-03-22T14:48:20.68Z</time></trkpt><trkpt lat="44.3410406" lon="9.5324676"><ele>632.25</ele><time>2026-03-22T14:48:21.679Z</time></trkpt><trkpt lat="44.3409555" lon="9.5326"><ele>634.0</ele><time>2026-03-22T14:48:22.679Z</time></trkpt><trkpt lat="44.3408114" lon="9.5326787"><ele>634.0</ele><time>2026-03-22T14:48:23.68Z</time></trkpt><trkpt lat="44.3406907" lon="9.5327908"><ele>634.0</ele><time>2026-03-22T14:48:24.679Z</time></trkpt><trkpt lat="44.3405578" lon="9.5328875"><ele>634.0</ele><time>2026-03-22T14:48:25.679Z</time></trkpt><trkpt lat="44.3404316" lon="9.5329878"><ele>634.0</ele><time>2026-03-22T14:48:26.679Z</time></trkpt><trkpt lat="44.3403061" lon="9.5330931"><ele>631.3333333333334</ele><time>2026-03-22T14:48:27.679Z</time></trkpt><trkpt lat="44.3401852" lon="9.5332116"><ele>628.6666666666666</ele><time>2026-03-22T14:48:28.679Z</time></trkpt><trkpt lat="44.3400593" lon="9.5333234"><ele>626.0</ele><time>2026-03-22T14:48:29.679Z</time></trkpt><trkpt lat="44.3399311" lon="9.5334502"><ele>626.0</ele><time>2026-03-22T14:48:30.679Z</time></trkpt><trkpt lat="44.3398032" lon="9.5335794"><ele>626.0</ele><time>2026-03-22T14:48:31.679Z</time></trkpt><trkpt lat="44.3396754" lon="9.53371"><ele>626.0</ele><time>2026-03-22T14:48:32.679Z</time></trkpt><trkpt lat="44.3395432" lon="9.5338254"><ele>624.6666666666666</ele><time>2026-03-22T14:48:33.679Z</time></trkpt><trkpt lat="44.3394016" lon="9.5339365"><ele>623.3333333333334</ele><time>2026-03-22T14:48:34.68Z</time></trkpt><trkpt lat="44.3392478" lon="9.5340501"><ele>622.0</ele><time>2026-03-22T14:48:35.679Z</time></trkpt><trkpt lat="44.3390978" lon="9.534166"><ele>622.0</ele><time>2026-03-22T14:48:36.679Z</time></trkpt><trkpt lat="44.3389449" lon="9.5342802"><ele>622.0</ele><time>2026-03-22T14:48:37.679Z</time></trkpt><trkpt lat="44.3387996" lon="9.5344217"><ele>622.0</ele><time>2026-03-22T14:48:38.68Z</time></trkpt><trkpt lat="44.3386631" lon="9.5345718"><ele>620.5</ele><time>2026-03-22T14:48:39.679Z</time></trkpt><trkpt lat="44.3385501" lon="9.5347188"><ele>619.0</ele><time>2026-03-22T14:48:40.679Z</time></trkpt><trkpt lat="44.3384499" lon="9.5348635"><ele>617.5</ele><time>2026-03-22T14:48:41.68Z</time></trkpt><trkpt lat="44.3383546" lon="9.5349891"><ele>616.0</ele><time>2026-03-22T14:48:42.679Z</time></trkpt><trkpt lat="44.3382581" lon="9.5350995"><ele>616.0</ele><time>2026-03-22T14:48:43.679Z</time></trkpt><trkpt lat="44.3381626" lon="9.5351993"><ele>616.0</ele><time>2026-03-22T14:48:44.679Z</time></trkpt><trkpt lat="44.3380763" lon="9.5352705"><ele>616.0</ele><time>2026-03-22T14:48:45.679Z</time></trkpt><trkpt lat="44.3379972" lon="9.5353233"><ele>616.0</ele><time>2026-03-22T14:48:46.679Z</time></trkpt><trkpt lat="44.3379256" lon="9.535334"><ele>616.0</ele><time>2026-03-22T14:48:47.679Z</time></trkpt><trkpt lat="44.3378507" lon="9.5353016"><ele>612.6</ele><time>2026-03-22T14:48:48.679Z</time></trkpt><trkpt lat="44.337777" lon="9.535256"><ele>609.2</ele><time>2026-03-22T14:48:49.679Z</time></trkpt><trkpt lat="44.33773" lon="9.5351905"><ele>605.8</ele><time>2026-03-22T14:48:50.679Z</time></trkpt><trkpt lat="44.3376859" lon="9.5350664"><ele>602.4</ele><time>2026-03-22T14:48:51.679Z</time></trkpt><trkpt lat="44.3376765" lon="9.5348268"><ele>599.0</ele><time>2026-03-22T14:48:52.679Z</time></trkpt><trkpt lat="44.3376369" lon="9.5346609"><ele>603.0</ele><time>2026-03-22T14:48:53.679Z</time></trkpt><trkpt lat="44.3375725" lon="9.5345006"><ele>607.0</ele><time>2026-03-22T14:48:54.679Z</time></trkpt><trkpt lat="44.3374624" lon="9.5343637"><ele>611.0</ele><time>2026-03-22T14:48:55.679Z</time></trkpt><trkpt lat="44.3373551" lon="9.5342355"><ele>615.0</ele><time>2026-03-22T14:48:56.68Z</time></trkpt><trkpt lat="44.3372455" lon="9.5341168"><ele>611.0</ele><time>2026-03-22T14:48:57.679Z</time></trkpt><trkpt lat="44.3371312" lon="9.534009"><ele>607.0</ele><time>2026-03-22T14:48:58.679Z</time></trkpt><trkpt lat="44.3370229" lon="9.5338946"><ele>603.0</ele><time>2026-03-22T14:48:59.679Z</time></trkpt><trkpt lat="44.3369099" lon="9.5337843"><ele>599.0</ele><time>2026-03-22T14:49:00.679Z</time></trkpt><trkpt lat="44.3367988" lon="9.5336633"><ele>599.0</ele><time>2026-03-22T14:49:01.679Z</time></trkpt><trkpt lat="44.3366966" lon="9.5335425"><ele>599.0</ele><time>2026-03-22T14:49:02.679Z</time></trkpt><trkpt lat="44.3366101" lon="9.5334076"><ele>599.0</ele><time>2026-03-22T14:49:03.679Z</time></trkpt><trkpt lat="44.3365371" lon="9.5332499"><ele>599.0</ele><time>2026-03-22T14:49:04.679Z</time></trkpt><trkpt lat="44.3364839" lon="9.533077"><ele>599.0</ele><time>2026-03-22T14:49:05.68Z</time></trkpt><trkpt lat="44.336442" lon="9.5329131"><ele>599.0</ele><time>2026-03-22T14:49:06.679Z</time></trkpt><trkpt lat="44.3364014" lon="9.5327432"><ele>599.0</ele><time>2026-03-22T14:49:07.679Z</time></trkpt><trkpt lat="44.3363734" lon="9.5325774"><ele>599.0</ele><time>2026-03-22T14:49:08.679Z</time></trkpt><trkpt lat="44.3363286" lon="9.5324162"><ele>596.6</ele><time>2026-03-22T14:49:09.679Z</time></trkpt><trkpt lat="44.3362767" lon="9.5322695"><ele>594.2</ele><time>2026-03-22T14:49:10.679Z</time></trkpt><trkpt lat="44.336218" lon="9.532144"><ele>591.8000000000001</ele><time>2026-03-22T14:49:11.679Z</time></trkpt><trkpt lat="44.3361585" lon="9.5320285"><ele>589.4</ele><time>2026-03-22T14:49:12.679Z</time></trkpt><trkpt lat="44.3360965" lon="9.5319399"><ele>587.0</ele><time>2026-03-22T14:49:13.679Z</time></trkpt><trkpt lat="44.3360256" lon="9.5319328"><ele>587.0</ele><time>2026-03-22T14:49:14.679Z</time></trkpt><trkpt lat="44.3359843" lon="9.5318583"><ele>587.0</ele><time>2026-03-22T14:49:15.679Z</time></trkpt><trkpt lat="44.3359577" lon="9.5317674"><ele>587.0</ele><time>2026-03-22T14:49:16.679Z</time></trkpt><trkpt lat="44.3359286" lon="9.5316666"><ele>587.0</ele><time>2026-03-22T14:49:17.679Z</time></trkpt><trkpt lat="44.3359" lon="9.531567"><ele>587.0</ele><time>2026-03-22T14:49:18.68Z</time></trkpt><trkpt lat="44.3358375" lon="9.5314575"><ele>587.0</ele><time>2026-03-22T14:49:19.679Z</time></trkpt><trkpt lat="44.3357606" lon="9.5313672"><ele>587.0</ele><time>2026-03-22T14:49:20.679Z</time></trkpt><trkpt lat="44.335702" lon="9.5312443"><ele>587.0</ele><time>2026-03-22T14:49:21.679Z</time></trkpt><trkpt lat="44.3356532" lon="9.531125"><ele>587.0</ele><time>2026-03-22T14:49:22.679Z</time></trkpt><trkpt lat="44.3356466" lon="9.5310075"><ele>587.0</ele><time>2026-03-22T14:49:23.679Z</time></trkpt><trkpt lat="44.3356263" lon="9.5308636"><ele>587.0</ele><time>2026-03-22T14:49:24.679Z</time></trkpt><trkpt lat="44.3356347" lon="9.5307254"><ele>583.8000000000001</ele><time>2026-03-22T14:49:25.679Z</time></trkpt><trkpt lat="44.3356435" lon="9.5306136"><ele>580.6</ele><time>2026-03-22T14:49:26.679Z</time></trkpt><trkpt lat="44.3356346" lon="9.5304892"><ele>577.4000000000001</ele><time>2026-03-22T14:49:27.68Z</time></trkpt><trkpt lat="44.3355842" lon="9.5303524"><ele>574.2</ele><time>2026-03-22T14:49:28.68Z</time></trkpt><trkpt lat="44.3355437" lon="9.5302055"><ele>571.0</ele><time>2026-03-22T14:49:29.679Z</time></trkpt><trkpt lat="44.3355061" lon="9.5300168"><ele>571.0</ele><time>2026-03-22T14:49:30.68Z</time></trkpt><trkpt lat="44.3354868" lon="9.5298651"><ele>571.0</ele><time>2026-03-22T14:49:31.679Z</time></trkpt><trkpt lat="44.3354311" lon="9.5297359"><ele>571.0</ele><time>2026-03-22T14:49:32.679Z</time></trkpt><trkpt lat="44.3353923" lon="9.5296551"><ele>571.0</ele><time>2026-03-22T14:49:33.68Z</time></trkpt><trkpt lat="44.3353666" lon="9.5295563"><ele>571.0</ele><time>2026-03-22T14:49:34.679Z</time></trkpt><trkpt lat="44.3353374" lon="9.529421"><ele>572.25</ele><time>2026-03-22T14:49:35.68Z</time></trkpt><trkpt lat="44.3353116" lon="9.5292812"><ele>573.5</ele><time>2026-03-22T14:49:36.68Z</time></trkpt><trkpt lat="44.3353132" lon="9.5290829"><ele>574.75</ele><time>2026-03-22T14:49:37.679Z</time></trkpt><trkpt lat="44.3353106" lon="9.528916"><ele>576.0</ele><time>2026-03-22T14:49:38.678Z</time></trkpt><trkpt lat="44.3353976" lon="9.5287674"><ele>575.6</ele><time>2026-03-22T14:49:39.679Z</time></trkpt><trkpt lat="44.3353853" lon="9.5286252"><ele>575.2</ele><time>2026-03-22T14:49:40.679Z</time></trkpt><trkpt lat="44.3353841" lon="9.5285027"><ele>574.8</ele><time>2026-03-22T14:49:41.679Z</time></trkpt><trkpt lat="44.3353774" lon="9.5283823"><ele>574.4</ele><time>2026-03-22T14:49:42.678Z</time></trkpt><trkpt lat="44.3353557" lon="9.5282293"><ele>574.0</ele><time>2026-03-22T14:49:44.679Z</time></trkpt><trkpt lat="44.3353776" lon="9.5280963"><ele>574.0</ele><time>2026-03-22T14:49:46.679Z</time></trkpt><trkpt lat="44.3353977" lon="9.5280077"><ele>574.0</ele><time>2026-03-22T14:49:47.679Z</time></trkpt><trkpt lat="44.3354984" lon="9.5279553"><ele>574.0</ele><time>2026-03-22T14:49:48.679Z</time></trkpt><trkpt lat="44.3355725" lon="9.5278672"><ele>574.0</ele><time>2026-03-22T14:49:49.679Z</time></trkpt><trkpt lat="44.3356666" lon="9.5277544"><ele>574.0</ele><time>2026-03-22T14:49:50.679Z</time></trkpt><trkpt lat="44.3357539" lon="9.5276368"><ele>582.0</ele><time>2026-03-22T14:49:51.679Z</time></trkpt><trkpt lat="44.3358495" lon="9.5275202"><ele>590.0</ele><time>2026-03-22T14:49:52.679Z</time></trkpt><trkpt lat="44.3359424" lon="9.5274231"><ele>598.0</ele><time>2026-03-22T14:49:53.679Z</time></trkpt><trkpt lat="44.3360234" lon="9.5273115"><ele>606.0</ele><time>2026-03-22T14:49:54.679Z</time></trkpt><trkpt lat="44.3361084" lon="9.5271924"><ele>606.0</ele><time>2026-03-22T14:49:55.679Z</time></trkpt><trkpt lat="44.3361673" lon="9.5270682"><ele>606.0</ele><time>2026-03-22T14:49:56.679Z</time></trkpt><trkpt lat="44.3362325" lon="9.5269732"><ele>606.0</ele><time>2026-03-22T14:49:57.679Z</time></trkpt><trkpt lat="44.3363087" lon="9.5268945"><ele>606.0</ele><time>2026-03-22T14:49:58.68Z</time></trkpt><trkpt lat="44.3363857" lon="9.5268325"><ele>606.0</ele><time>2026-03-22T14:49:59.679Z</time></trkpt><trkpt lat="44.3364873" lon="9.5267725"><ele>610.0</ele><time>2026-03-22T14:50:00.679Z</time></trkpt><trkpt lat="44.3365831" lon="9.5266744"><ele>614.0</ele><time>2026-03-22T14:50:01.679Z</time></trkpt><trkpt lat="44.3366779" lon="9.5265552"><ele>618.0</ele><time>2026-03-22T14:50:02.679Z</time></trkpt><trkpt lat="44.3367718" lon="9.5264557"><ele>622.0</ele><time>2026-03-22T14:50:03.678Z</time></trkpt><trkpt lat="44.3367858" lon="9.5262927"><ele>618.1666666666667</ele><time>2026-03-22T14:50:04.679Z</time></trkpt><trkpt lat="44.3368326" lon="9.5262026"><ele>614.3333333333334</ele><time>2026-03-22T14:50:05.679Z</time></trkpt><trkpt lat="44.3368779" lon="9.5261287"><ele>610.5</ele><time>2026-03-22T14:50:06.68Z</time></trkpt><trkpt lat="44.3369552" lon="9.5260837"><ele>606.6666666666666</ele><time>2026-03-22T14:50:07.679Z</time></trkpt><trkpt lat="44.3370385" lon="9.5260548"><ele>602.8333333333333</ele><time>2026-03-22T14:50:08.679Z</time></trkpt><trkpt lat="44.3371054" lon="9.5259987"><ele>599.0</ele><time>2026-03-22T14:50:09.68Z</time></trkpt><trkpt lat="44.337162" lon="9.5259408"><ele>599.0</ele><time>2026-03-22T14:50:10.679Z</time></trkpt><trkpt lat="44.3371365" lon="9.5258233"><ele>599.0</ele><time>2026-03-22T14:50:11.679Z</time></trkpt><trkpt lat="44.3371041" lon="9.5256913"><ele>599.0</ele><time>2026-03-22T14:50:13.679Z</time></trkpt><trkpt lat="44.337003" lon="9.5256493"><ele>599.0</ele><time>2026-03-22T14:50:14.679Z</time></trkpt><trkpt lat="44.3369431" lon="9.5255725"><ele>599.0</ele><time>2026-03-22T14:50:15.678Z</time></trkpt><trkpt lat="44.3368887" lon="9.5255021"><ele>599.0</ele><time>2026-03-22T14:50:16.679Z</time></trkpt><trkpt lat="44.3369031" lon="9.5254012"><ele>598.75</ele><time>2026-03-22T14:50:17.679Z</time></trkpt><trkpt lat="44.3368978" lon="9.5252255"><ele>598.5</ele><time>2026-03-22T14:50:19.679Z</time></trkpt><trkpt lat="44.3369858" lon="9.5251058"><ele>598.25</ele><time>2026-03-22T14:50:21.679Z</time></trkpt><trkpt lat="44.3370591" lon="9.5250288"><ele>598.0</ele><time>2026-03-22T14:50:22.679Z</time></trkpt><trkpt lat="44.3371745" lon="9.5249446"><ele>603.6</ele><time>2026-03-22T14:50:24.679Z</time></trkpt><trkpt lat="44.3372699" lon="9.524911"><ele>609.1999999999999</ele><time>2026-03-22T14:50:25.679Z</time></trkpt><trkpt lat="44.3373376" lon="9.5248338"><ele>614.8</ele><time>2026-03-22T14:50:26.679Z</time></trkpt><trkpt lat="44.3374236" lon="9.5247445"><ele>620.4</ele><time>2026-03-22T14:50:27.679Z</time></trkpt><trkpt lat="44.3375039" lon="9.5246679"><ele>626.0</ele><time>2026-03-22T14:50:28.679Z</time></trkpt><trkpt lat="44.3376187" lon="9.5246261"><ele>622.0</ele><time>2026-03-22T14:50:29.679Z</time></trkpt><trkpt lat="44.3377027" lon="9.5245435"><ele>618.0</ele><time>2026-03-22T14:50:30.679Z</time></trkpt><trkpt lat="44.3377933" lon="9.524461"><ele>614.0</ele><time>2026-03-22T14:50:31.679Z</time></trkpt><trkpt lat="44.3378771" lon="9.5244093"><ele>610.0</ele><time>2026-03-22T14:50:32.68Z</time></trkpt><trkpt lat="44.3379638" lon="9.52434"><ele>606.0</ele><time>2026-03-22T14:50:33.679Z</time></trkpt><trkpt lat="44.3380427" lon="9.5243253"><ele>609.6666666666666</ele><time>2026-03-22T14:50:34.679Z</time></trkpt><trkpt lat="44.338126" lon="9.5243488"><ele>613.3333333333334</ele><time>2026-03-22T14:50:35.679Z</time></trkpt><trkpt lat="44.3382159" lon="9.5243772"><ele>617.0</ele><time>2026-03-22T14:50:36.679Z</time></trkpt><trkpt lat="44.3382976" lon="9.5244479"><ele>620.6666666666667</ele><time>2026-03-22T14:50:37.68Z</time></trkpt><trkpt lat="44.3383694" lon="9.5245265"><ele>624.3333333333334</ele><time>2026-03-22T14:50:38.679Z</time></trkpt><trkpt lat="44.3384346" lon="9.5245775"><ele>628.0</ele><time>2026-03-22T14:50:39.679Z</time></trkpt><trkpt lat="44.3385032" lon="9.5246136"><ele>628.0</ele><time>2026-03-22T14:50:40.679Z</time></trkpt><trkpt lat="44.3385881" lon="9.5246018"><ele>628.0</ele><time>2026-03-22T14:50:41.679Z</time></trkpt><trkpt lat="44.3386815" lon="9.5245989"><ele>628.0</ele><time>2026-03-22T14:50:42.679Z</time></trkpt><trkpt lat="44.3388086" lon="9.5245594"><ele>628.0</ele><time>2026-03-22T14:50:43.678Z</time></trkpt><trkpt lat="44.3389044" lon="9.5245369"><ele>628.0</ele><time>2026-03-22T14:50:44.679Z</time></trkpt><trkpt lat="44.3389724" lon="9.5244781"><ele>630.5999999999999</ele><time>2026-03-22T14:50:45.679Z</time></trkpt><trkpt lat="44.3390483" lon="9.5244027"><ele>633.1999999999999</ele><time>2026-03-22T14:50:46.679Z</time></trkpt><trkpt lat="44.3391131" lon="9.524321"><ele>635.8</ele><time>2026-03-22T14:50:47.679Z</time></trkpt><trkpt lat="44.3391416" lon="9.5241982"><ele>638.4</ele><time>2026-03-22T14:50:48.679Z</time></trkpt><trkpt lat="44.3391967" lon="9.5240913"><ele>641.0</ele><time>2026-03-22T14:50:49.679Z</time></trkpt><trkpt lat="44.3392753" lon="9.5239995"><ele>641.0</ele><time>2026-03-22T14:50:50.679Z</time></trkpt><trkpt lat="44.3393637" lon="9.5239503"><ele>641.0</ele><time>2026-03-22T14:50:51.679Z</time></trkpt><trkpt lat="44.3394219" lon="9.5239003"><ele>641.0</ele><time>2026-03-22T14:50:52.679Z</time></trkpt><trkpt lat="44.3394627" lon="9.5237722"><ele>641.0</ele><time>2026-03-22T14:50:54.68Z</time></trkpt><trkpt lat="44.3394452" lon="9.5236652"><ele>641.0</ele><time>2026-03-22T14:50:56.679Z</time></trkpt><trkpt lat="44.3392883" lon="9.523555"><ele>643.25</ele><time>2026-03-22T14:50:58.679Z</time></trkpt><trkpt lat="44.3391124" lon="9.5235582"><ele>645.5</ele><time>2026-03-22T14:50:59.679Z</time></trkpt><trkpt lat="44.3390071" lon="9.5235469"><ele>647.75</ele><time>2026-03-22T14:51:00.679Z</time></trkpt><trkpt lat="44.338914" lon="9.5235647"><ele>650.0</ele><time>2026-03-22T14:51:01.679Z</time></trkpt><trkpt lat="44.3388292" lon="9.523556"><ele>646.0</ele><time>2026-03-22T14:51:02.679Z</time></trkpt><trkpt lat="44.3387635" lon="9.5234875"><ele>642.0</ele><time>2026-03-22T14:51:03.679Z</time></trkpt><trkpt lat="44.3387027" lon="9.5233951"><ele>638.0</ele><time>2026-03-22T14:51:04.679Z</time></trkpt><trkpt lat="44.3386345" lon="9.5233089"><ele>634.0</ele><time>2026-03-22T14:51:05.678Z</time></trkpt><trkpt lat="44.3385684" lon="9.5232007"><ele>630.0</ele><time>2026-03-22T14:51:06.679Z</time></trkpt><trkpt lat="44.3385622" lon="9.5230069"><ele>635.0</ele><time>2026-03-22T14:51:07.679Z</time></trkpt><trkpt lat="44.3385081" lon="9.5228806"><ele>640.0</ele><time>2026-03-22T14:51:08.679Z</time></trkpt><trkpt lat="44.3384281" lon="9.5227936"><ele>645.0</ele><time>2026-03-22T14:51:09.679Z</time></trkpt><trkpt lat="44.3383286" lon="9.5226947"><ele>650.0</ele><time>2026-03-22T14:51:10.679Z</time></trkpt><trkpt lat="44.3382236" lon="9.5226335"><ele>655.0</ele><time>2026-03-22T14:51:11.679Z</time></trkpt><trkpt lat="44.3381293" lon="9.5225135"><ele>650.8</ele><time>2026-03-22T14:51:12.679Z</time></trkpt><trkpt lat="44.3380473" lon="9.5224158"><ele>646.6</ele><time>2026-03-22T14:51:13.679Z</time></trkpt><trkpt lat="44.3379737" lon="9.5223317"><ele>642.4</ele><time>2026-03-22T14:51:14.679Z</time></trkpt><trkpt lat="44.3378885" lon="9.5222649"><ele>638.2</ele><time>2026-03-22T14:51:15.679Z</time></trkpt><trkpt lat="44.3378022" lon="9.522218"><ele>634.0</ele><time>2026-03-22T14:51:16.679Z</time></trkpt><trkpt lat="44.3377292" lon="9.5221524"><ele>634.0</ele><time>2026-03-22T14:51:17.679Z</time></trkpt><trkpt lat="44.3376708" lon="9.5220703"><ele>634.0</ele><time>2026-03-22T14:51:18.679Z</time></trkpt><trkpt lat="44.3375735" lon="9.521941"><ele>634.0</ele><time>2026-03-22T14:51:20.679Z</time></trkpt><trkpt lat="44.3375105" lon="9.521841"><ele>634.0</ele><time>2026-03-22T14:51:22.679Z</time></trkpt><trkpt lat="44.3375526" lon="9.5217642"><ele>634.0</ele><time>2026-03-22T14:51:24.679Z</time></trkpt><trkpt lat="44.3376299" lon="9.521725"><ele>637.2</ele><time>2026-03-22T14:51:26.68Z</time></trkpt><trkpt lat="44.3376772" lon="9.521823"><ele>640.4</ele><time>2026-03-22T14:51:27.679Z</time></trkpt><trkpt lat="44.3378174" lon="9.5218726"><ele>643.6</ele><time>2026-03-22T14:51:29.678Z</time></trkpt><trkpt lat="44.3378874" lon="9.5219062"><ele>646.8</ele><time>2026-03-22T14:51:30.678Z</time></trkpt><trkpt lat="44.3379743" lon="9.5219532"><ele>650.0</ele><time>2026-03-22T14:51:31.679Z</time></trkpt><trkpt lat="44.3380385" lon="9.5219854"><ele>654.4</ele><time>2026-03-22T14:51:32.679Z</time></trkpt><trkpt lat="44.3381032" lon="9.5219713"><ele>658.8</ele><time>2026-03-22T14:51:33.68Z</time></trkpt><trkpt lat="44.3382087" lon="9.5219396"><ele>663.2</ele><time>2026-03-22T14:51:35.679Z</time></trkpt><trkpt lat="44.338286" lon="9.5217578"><ele>667.6</ele><time>2026-03-22T14:51:37.679Z</time></trkpt><trkpt lat="44.3383449" lon="9.5216326"><ele>672.0</ele><time>2026-03-22T14:51:38.679Z</time></trkpt><trkpt lat="44.3384091" lon="9.5215088"><ele>672.0</ele><time>2026-03-22T14:51:39.679Z</time></trkpt><trkpt lat="44.3384635" lon="9.5214141"><ele>672.0</ele><time>2026-03-22T14:51:40.679Z</time></trkpt><trkpt lat="44.3385387" lon="9.5213203"><ele>672.0</ele><time>2026-03-22T14:51:41.678Z</time></trkpt><trkpt lat="44.3385882" lon="9.5212511"><ele>672.0</ele><time>2026-03-22T14:51:42.679Z</time></trkpt><trkpt lat="44.3386282" lon="9.5211464"><ele>672.0</ele><time>2026-03-22T14:51:43.679Z</time></trkpt><trkpt lat="44.3386983" lon="9.5210395"><ele>672.0</ele><time>2026-03-22T14:51:45.679Z</time></trkpt><trkpt lat="44.3387451" lon="9.5209421"><ele>674.0</ele><time>2026-03-22T14:51:47.679Z</time></trkpt><trkpt lat="44.3387687" lon="9.5208247"><ele>676.0</ele><time>2026-03-22T14:51:50.679Z</time></trkpt><trkpt lat="44.3386948" lon="9.5207759"><ele>678.0</ele><time>2026-03-22T14:51:52.679Z</time></trkpt><trkpt lat="44.3385442" lon="9.5208101"><ele>680.0</ele><time>2026-03-22T14:51:54.679Z</time></trkpt><trkpt lat="44.3384725" lon="9.5207887"><ele>682.0</ele><time>2026-03-22T14:51:55.679Z</time></trkpt><trkpt lat="44.3383872" lon="9.5207839"><ele>682.0</ele><time>2026-03-22T14:51:56.679Z</time></trkpt><trkpt lat="44.3383079" lon="9.5208069"><ele>682.0</ele><time>2026-03-22T14:51:57.679Z</time></trkpt><trkpt lat="44.3382016" lon="9.5208087"><ele>682.0</ele><time>2026-03-22T14:51:59.679Z</time></trkpt><trkpt lat="44.3381476" lon="9.5207364"><ele>682.0</ele><time>2026-03-22T14:52:01.679Z</time></trkpt><trkpt lat="44.3381962" lon="9.5206496"><ele>682.0</ele><time>2026-03-22T14:52:03.678Z</time></trkpt><trkpt lat="44.3383455" lon="9.5205955"><ele>682.0</ele><time>2026-03-22T14:52:05.679Z</time></trkpt><trkpt lat="44.3384439" lon="9.5205444"><ele>682.0</ele><time>2026-03-22T14:52:06.679Z</time></trkpt><trkpt lat="44.3385229" lon="9.5205014"><ele>682.0</ele><time>2026-03-22T14:52:07.678Z</time></trkpt><trkpt lat="44.3385981" lon="9.5204636"><ele>682.0</ele><time>2026-03-22T14:52:08.679Z</time></trkpt><trkpt lat="44.3386683" lon="9.5203778"><ele>682.0</ele><time>2026-03-22T14:52:10.679Z</time></trkpt><trkpt lat="44.3386318" lon="9.5202653"><ele>684.75</ele><time>2026-03-22T14:52:11.679Z</time></trkpt><trkpt lat="44.3384931" lon="9.5199663"><ele>687.5</ele><time>2026-03-22T14:52:13.678Z</time></trkpt><trkpt lat="44.3384468" lon="9.5198558"><ele>690.25</ele><time>2026-03-22T14:52:14.679Z</time></trkpt><trkpt lat="44.3384095" lon="9.5197328"><ele>693.0</ele><time>2026-03-22T14:52:15.679Z</time></trkpt><trkpt lat="44.3383887" lon="9.5196144"><ele>693.0</ele><time>2026-03-22T14:52:16.679Z</time></trkpt><trkpt lat="44.338414" lon="9.5194976"><ele>693.0</ele><time>2026-03-22T14:52:17.679Z</time></trkpt><trkpt lat="44.3385199" lon="9.5195729"><ele>693.0</ele><time>2026-03-22T14:52:18.679Z</time></trkpt><trkpt lat="44.3386174" lon="9.5195604"><ele>693.0</ele><time>2026-03-22T14:52:20.679Z</time></trkpt><trkpt lat="44.3386502" lon="9.5196635"><ele>693.0</ele><time>2026-03-22T14:52:21.679Z</time></trkpt><trkpt lat="44.3386963" lon="9.5197606"><ele>693.0</ele><time>2026-03-22T14:52:22.679Z</time></trkpt><trkpt lat="44.3387175" lon="9.5198557"><ele>693.0</ele><time>2026-03-22T14:52:23.679Z</time></trkpt><trkpt lat="44.3388" lon="9.5199485"><ele>693.0</ele><time>2026-03-22T14:52:25.679Z</time></trkpt><trkpt lat="44.3387957" lon="9.5198214"><ele>693.0</ele><time>2026-03-22T14:52:28.679Z</time></trkpt><trkpt lat="44.3387597" lon="9.5197348"><ele>693.0</ele><time>2026-03-22T14:52:29.679Z</time></trkpt><trkpt lat="44.338726" lon="9.5195543"><ele>696.5999999999999</ele><time>2026-03-22T14:52:30.679Z</time></trkpt><trkpt lat="44.3387215" lon="9.5193868"><ele>700.1999999999999</ele><time>2026-03-22T14:52:31.679Z</time></trkpt><trkpt lat="44.3387167" lon="9.5192445"><ele>703.8</ele><time>2026-03-22T14:52:32.679Z</time></trkpt><trkpt lat="44.3386824" lon="9.5191353"><ele>707.4</ele><time>2026-03-22T14:52:33.679Z</time></trkpt><trkpt lat="44.3386517" lon="9.5190451"><ele>711.0</ele><time>2026-03-22T14:52:34.679Z</time></trkpt><trkpt lat="44.3385705" lon="9.518969"><ele>711.0</ele><time>2026-03-22T14:52:35.679Z</time></trkpt><trkpt lat="44.3384982" lon="9.5188919"><ele>711.0</ele><time>2026-03-22T14:52:36.679Z</time></trkpt><trkpt lat="44.3384617" lon="9.5187902"><ele>711.0</ele><time>2026-03-22T14:52:37.679Z</time></trkpt><trkpt lat="44.3384325" lon="9.5186682"><ele>711.0</ele><time>2026-03-22T14:52:38.679Z</time></trkpt><trkpt lat="44.3384238" lon="9.5185136"><ele>711.0</ele><time>2026-03-22T14:52:39.68Z</time></trkpt><trkpt lat="44.3384279" lon="9.5183694"><ele>713.5999999999999</ele><time>2026-03-22T14:52:40.678Z</time></trkpt><trkpt lat="44.3384429" lon="9.5182407"><ele>716.2</ele><time>2026-03-22T14:52:41.679Z</time></trkpt><trkpt lat="44.3384627" lon="9.518116"><ele>718.8</ele><time>2026-03-22T14:52:42.679Z</time></trkpt><trkpt lat="44.3384776" lon="9.5180028"><ele>721.4000000000001</ele><time>2026-03-22T14:52:43.679Z</time></trkpt><trkpt lat="44.3384749" lon="9.5178792"><ele>724.0</ele><time>2026-03-22T14:52:44.679Z</time></trkpt><trkpt lat="44.3384541" lon="9.5177412"><ele>726.5</ele><time>2026-03-22T14:52:45.679Z</time></trkpt><trkpt lat="44.3384347" lon="9.5176257"><ele>729.0</ele><time>2026-03-22T14:52:46.679Z</time></trkpt><trkpt lat="44.3384124" lon="9.5175257"><ele>731.5</ele><time>2026-03-22T14:52:47.679Z</time></trkpt><trkpt lat="44.3383701" lon="9.5173929"><ele>734.0</ele><time>2026-03-22T14:52:49.679Z</time></trkpt><trkpt lat="44.3382766" lon="9.5174119"><ele>736.5</ele><time>2026-03-22T14:52:52.679Z</time></trkpt><trkpt lat="44.3382115" lon="9.5174471"><ele>739.0</ele><time>2026-03-22T14:52:53.68Z</time></trkpt><trkpt lat="44.3381253" lon="9.5174751"><ele>736.4000000000001</ele><time>2026-03-22T14:52:54.679Z</time></trkpt><trkpt lat="44.3380449" lon="9.5174754"><ele>733.8</ele><time>2026-03-22T14:52:55.679Z</time></trkpt><trkpt lat="44.3379552" lon="9.5174806"><ele>731.2</ele><time>2026-03-22T14:52:56.679Z</time></trkpt><trkpt lat="44.3378438" lon="9.5174532"><ele>728.5999999999999</ele><time>2026-03-22T14:52:57.679Z</time></trkpt><trkpt lat="44.3377402" lon="9.51741"><ele>726.0</ele><time>2026-03-22T14:52:58.679Z</time></trkpt><trkpt lat="44.3376576" lon="9.5173767"><ele>726.0</ele><time>2026-03-22T14:52:59.679Z</time></trkpt><trkpt lat="44.337579" lon="9.5173197"><ele>726.0</ele><time>2026-03-22T14:53:00.679Z</time></trkpt><trkpt lat="44.3374974" lon="9.5172496"><ele>726.0</ele><time>2026-03-22T14:53:01.679Z</time></trkpt><trkpt lat="44.3374231" lon="9.5171602"><ele>726.0</ele><time>2026-03-22T14:53:02.679Z</time></trkpt><trkpt lat="44.3373338" lon="9.517043"><ele>726.0</ele><time>2026-03-22T14:53:03.679Z</time></trkpt><trkpt lat="44.3372487" lon="9.5169096"><ele>726.5</ele><time>2026-03-22T14:53:04.68Z</time></trkpt><trkpt lat="44.3371678" lon="9.5167884"><ele>727.0</ele><time>2026-03-22T14:53:05.678Z</time></trkpt><trkpt lat="44.3370701" lon="9.5166476"><ele>727.5</ele><time>2026-03-22T14:53:06.68Z</time></trkpt><trkpt lat="44.3369761" lon="9.5165199"><ele>728.0</ele><time>2026-03-22T14:53:07.68Z</time></trkpt><trkpt lat="44.3369119" lon="9.5163747"><ele>728.0</ele><time>2026-03-22T14:53:08.679Z</time></trkpt><trkpt lat="44.3368364" lon="9.5162729"><ele>728.0</ele><time>2026-03-22T14:53:09.679Z</time></trkpt><trkpt lat="44.3367823" lon="9.5161484"><ele>728.0</ele><time>2026-03-22T14:53:10.679Z</time></trkpt><trkpt lat="44.3367413" lon="9.5159956"><ele>728.0</ele><time>2026-03-22T14:53:11.679Z</time></trkpt><trkpt lat="44.3366949" lon="9.5158613"><ele>728.0</ele><time>2026-03-22T14:53:12.678Z</time></trkpt><trkpt lat="44.336664" lon="9.515712"><ele>733.0</ele><time>2026-03-22T14:53:13.679Z</time></trkpt><trkpt lat="44.3366436" lon="9.5155294"><ele>738.0</ele><time>2026-03-22T14:53:14.679Z</time></trkpt><trkpt lat="44.3366232" lon="9.5153659"><ele>743.0</ele><time>2026-03-22T14:53:15.68Z</time></trkpt><trkpt lat="44.3366128" lon="9.5151908"><ele>748.0</ele><time>2026-03-22T14:53:16.679Z</time></trkpt><trkpt lat="44.336599" lon="9.5150443"><ele>750.5</ele><time>2026-03-22T14:53:17.679Z</time></trkpt><trkpt lat="44.3366033" lon="9.514909"><ele>753.0</ele><time>2026-03-22T14:53:18.679Z</time></trkpt><trkpt lat="44.3367493" lon="9.5148186"><ele>755.5</ele><time>2026-03-22T14:53:19.679Z</time></trkpt><trkpt lat="44.3368257" lon="9.5146858"><ele>758.0</ele><time>2026-03-22T14:53:20.68Z</time></trkpt><trkpt lat="44.3369082" lon="9.5145564"><ele>758.4</ele><time>2026-03-22T14:53:21.679Z</time></trkpt><trkpt lat="44.3369743" lon="9.5144435"><ele>758.8</ele><time>2026-03-22T14:53:22.679Z</time></trkpt><trkpt lat="44.3370249" lon="9.5143238"><ele>759.2</ele><time>2026-03-22T14:53:23.679Z</time></trkpt><trkpt lat="44.3370588" lon="9.5141981"><ele>759.6</ele><time>2026-03-22T14:53:24.679Z</time></trkpt><trkpt lat="44.3370971" lon="9.5140634"><ele>760.0</ele><time>2026-03-22T14:53:25.679Z</time></trkpt><trkpt lat="44.3369773" lon="9.5138383"><ele>761.4</ele><time>2026-03-22T14:53:26.679Z</time></trkpt><trkpt lat="44.3369403" lon="9.5136695"><ele>762.8</ele><time>2026-03-22T14:53:27.679Z</time></trkpt><trkpt lat="44.3369301" lon="9.5135101"><ele>764.2</ele><time>2026-03-22T14:53:28.679Z</time></trkpt><trkpt lat="44.3369016" lon="9.5133693"><ele>765.6</ele><time>2026-03-22T14:53:29.679Z</time></trkpt><trkpt lat="44.336841" lon="9.5132966"><ele>767.0</ele><time>2026-03-22T14:53:30.679Z</time></trkpt><trkpt lat="44.3367769" lon="9.5132086"><ele>767.0</ele><time>2026-03-22T14:53:31.679Z</time></trkpt><trkpt lat="44.3367138" lon="9.513117"><ele>767.0</ele><time>2026-03-22T14:53:32.68Z</time></trkpt><trkpt lat="44.3366624" lon="9.5130062"><ele>767.0</ele><time>2026-03-22T14:53:33.68Z</time></trkpt><trkpt lat="44.336622" lon="9.5128737"><ele>767.0</ele><time>2026-03-22T14:53:34.68Z</time></trkpt><trkpt lat="44.3365968" lon="9.5127506"><ele>767.0</ele><time>2026-03-22T14:53:35.679Z</time></trkpt><trkpt lat="44.3365824" lon="9.5126345"><ele>768.4285714285714</ele><time>2026-03-22T14:53:36.679Z</time></trkpt><trkpt lat="44.3365912" lon="9.5125357"><ele>769.8571428571429</ele><time>2026-03-22T14:53:37.679Z</time></trkpt><trkpt lat="44.336619" lon="9.5124427"><ele>771.2857142857142</ele><time>2026-03-22T14:53:38.679Z</time></trkpt><trkpt lat="44.3366678" lon="9.5123672"><ele>772.7142857142858</ele><time>2026-03-22T14:53:39.679Z</time></trkpt><trkpt lat="44.3367208" lon="9.5122994"><ele>774.1428571428571</ele><time>2026-03-22T14:53:40.679Z</time></trkpt><trkpt lat="44.3367682" lon="9.5122218"><ele>775.5714285714286</ele><time>2026-03-22T14:53:41.679Z</time></trkpt><trkpt lat="44.3368101" lon="9.512136"><ele>777.0</ele><time>2026-03-22T14:53:42.679Z</time></trkpt><trkpt lat="44.3367495" lon="9.5119952"><ele>779.0</ele><time>2026-03-22T14:53:43.679Z</time></trkpt><trkpt lat="44.3367072" lon="9.5118845"><ele>781.0</ele><time>2026-03-22T14:53:44.678Z</time></trkpt><trkpt lat="44.3366519" lon="9.5117743"><ele>783.0</ele><time>2026-03-22T14:53:45.679Z</time></trkpt><trkpt lat="44.336547" lon="9.5116797"><ele>785.0</ele><time>2026-03-22T14:53:46.679Z</time></trkpt><trkpt lat="44.3364855" lon="9.5115884"><ele>787.0</ele><time>2026-03-22T14:53:47.679Z</time></trkpt><trkpt lat="44.3364421" lon="9.5115099"><ele>786.9999999999999</ele><time>2026-03-22T14:53:48.679Z</time></trkpt><trkpt lat="44.3364309" lon="9.5114182"><ele>787.0</ele><time>2026-03-22T14:53:49.679Z</time></trkpt><trkpt lat="44.3363977" lon="9.5112715"><ele>787.0</ele><time>2026-03-22T14:53:51.679Z</time></trkpt><trkpt lat="44.3363562" lon="9.5111784"><ele>787.0</ele><time>2026-03-22T14:53:52.68Z</time></trkpt><trkpt lat="44.3363094" lon="9.511105"><ele>786.9999999999999</ele><time>2026-03-22T14:53:53.679Z</time></trkpt><trkpt lat="44.336258" lon="9.5110228"><ele>787.0</ele><time>2026-03-22T14:53:54.679Z</time></trkpt><trkpt lat="44.336242" lon="9.5108585"><ele>784.4000000000001</ele><time>2026-03-22T14:53:56.679Z</time></trkpt><trkpt lat="44.3362739" lon="9.510747"><ele>781.8000000000001</ele><time>2026-03-22T14:53:57.68Z</time></trkpt><trkpt lat="44.3363068" lon="9.5106416"><ele>779.2</ele><time>2026-03-22T14:53:58.679Z</time></trkpt><trkpt lat="44.3363343" lon="9.5104867"><ele>776.6</ele><time>2026-03-22T14:54:00.68Z</time></trkpt><trkpt lat="44.3362893" lon="9.5103886"><ele>774.0</ele><time>2026-03-22T14:54:01.679Z</time></trkpt><trkpt lat="44.3362292" lon="9.5102856"><ele>774.0</ele><time>2026-03-22T14:54:02.679Z</time></trkpt><trkpt lat="44.3362105" lon="9.5101861"><ele>774.0</ele><time>2026-03-22T14:54:03.68Z</time></trkpt><trkpt lat="44.3361851" lon="9.5100774"><ele>774.0</ele><time>2026-03-22T14:54:04.679Z</time></trkpt><trkpt lat="44.3361746" lon="9.5099465"><ele>774.0</ele><time>2026-03-22T14:54:05.679Z</time></trkpt><trkpt lat="44.3362405" lon="9.5098061"><ele>774.0</ele><time>2026-03-22T14:54:06.679Z</time></trkpt><trkpt lat="44.3362751" lon="9.5096549"><ele>773.75</ele><time>2026-03-22T14:54:07.679Z</time></trkpt><trkpt lat="44.336327" lon="9.509465"><ele>773.5</ele><time>2026-03-22T14:54:08.679Z</time></trkpt><trkpt lat="44.336384" lon="9.5092831"><ele>773.25</ele><time>2026-03-22T14:54:09.679Z</time></trkpt><trkpt lat="44.3364324" lon="9.5091062"><ele>773.0</ele><time>2026-03-22T14:54:10.679Z</time></trkpt><trkpt lat="44.336468" lon="9.5089415"><ele>778.5999999999999</ele><time>2026-03-22T14:54:11.679Z</time></trkpt><trkpt lat="44.3365" lon="9.5088245"><ele>784.1999999999999</ele><time>2026-03-22T14:54:12.679Z</time></trkpt><trkpt lat="44.3365693" lon="9.508759"><ele>789.8</ele><time>2026-03-22T14:54:13.679Z</time></trkpt><trkpt lat="44.3366975" lon="9.5087285"><ele>795.4</ele><time>2026-03-22T14:54:14.679Z</time></trkpt><trkpt lat="44.3368033" lon="9.5087169"><ele>801.0</ele><time>2026-03-22T14:54:15.679Z</time></trkpt><trkpt lat="44.3369053" lon="9.5086726"><ele>801.0</ele><time>2026-03-22T14:54:17.679Z</time></trkpt><trkpt lat="44.3369755" lon="9.5086962"><ele>801.0</ele><time>2026-03-22T14:54:18.679Z</time></trkpt><trkpt lat="44.3370505" lon="9.5086884"><ele>801.0</ele><time>2026-03-22T14:54:20.68Z</time></trkpt><trkpt lat="44.3371556" lon="9.5087266"><ele>801.0</ele><time>2026-03-22T14:54:22.679Z</time></trkpt><trkpt lat="44.3372054" lon="9.5086158"><ele>801.0</ele><time>2026-03-22T14:54:24.679Z</time></trkpt><trkpt lat="44.3372365" lon="9.5085379"><ele>801.0</ele><time>2026-03-22T14:54:25.679Z</time></trkpt><trkpt lat="44.337265" lon="9.5084284"><ele>807.5999999999999</ele><time>2026-03-22T14:54:26.679Z</time></trkpt><trkpt lat="44.3372861" lon="9.5083144"><ele>814.2</ele><time>2026-03-22T14:54:27.679Z</time></trkpt><trkpt lat="44.3373126" lon="9.5081839"><ele>820.8</ele><time>2026-03-22T14:54:28.68Z</time></trkpt><trkpt lat="44.3373467" lon="9.5080644"><ele>827.4000000000001</ele><time>2026-03-22T14:54:29.679Z</time></trkpt><trkpt lat="44.3373816" lon="9.5079142"><ele>834.0</ele><time>2026-03-22T14:54:30.679Z</time></trkpt><trkpt lat="44.337443" lon="9.5078056"><ele>834.1666666666666</ele><time>2026-03-22T14:54:31.679Z</time></trkpt><trkpt lat="44.3374956" lon="9.5076858"><ele>834.3333333333333</ele><time>2026-03-22T14:54:32.679Z</time></trkpt><trkpt lat="44.337526" lon="9.5075514"><ele>834.5</ele><time>2026-03-22T14:54:33.679Z</time></trkpt><trkpt lat="44.3375944" lon="9.5075658"><ele>834.6666666666666</ele><time>2026-03-22T14:54:34.679Z</time></trkpt><trkpt lat="44.3376063" lon="9.507474"><ele>834.8333333333333</ele><time>2026-03-22T14:54:36.679Z</time></trkpt><trkpt lat="44.3375721" lon="9.5073887"><ele>835.0</ele><time>2026-03-22T14:54:38.679Z</time></trkpt><trkpt lat="44.3375109" lon="9.5073486"><ele>835.0</ele><time>2026-03-22T14:54:40.679Z</time></trkpt><trkpt lat="44.3373929" lon="9.5073265"><ele>835.0</ele><time>2026-03-22T14:54:41.678Z</time></trkpt><trkpt lat="44.3373068" lon="9.5073161"><ele>835.0</ele><time>2026-03-22T14:54:42.679Z</time></trkpt><trkpt lat="44.3372198" lon="9.5073179"><ele>835.0</ele><time>2026-03-22T14:54:43.679Z</time></trkpt><trkpt lat="44.3370836" lon="9.5073088"><ele>835.0</ele><time>2026-03-22T14:54:44.679Z</time></trkpt><trkpt lat="44.3369681" lon="9.507296"><ele>837.6</ele><time>2026-03-22T14:54:45.679Z</time></trkpt><trkpt lat="44.3368626" lon="9.5072726"><ele>840.2</ele><time>2026-03-22T14:54:46.679Z</time></trkpt><trkpt lat="44.3367778" lon="9.5072351"><ele>842.8</ele><time>2026-03-22T14:54:47.679Z</time></trkpt><trkpt lat="44.3367037" lon="9.5072101"><ele>845.4</ele><time>2026-03-22T14:54:48.678Z</time></trkpt><trkpt lat="44.3365834" lon="9.5071308"><ele>848.0</ele><time>2026-03-22T14:54:50.679Z</time></trkpt><trkpt lat="44.3365556" lon="9.5070272"><ele>848.0</ele><time>2026-03-22T14:54:51.679Z</time></trkpt><trkpt lat="44.3365044" lon="9.506965"><ele>848.0</ele><time>2026-03-22T14:54:52.679Z</time></trkpt><trkpt lat="44.3363736" lon="9.5069192"><ele>848.0</ele><time>2026-03-22T14:54:54.679Z</time></trkpt><trkpt lat="44.3362964" lon="9.506934"><ele>848.0</ele><time>2026-03-22T14:54:55.679Z</time></trkpt><trkpt lat="44.3361719" lon="9.5069849"><ele>848.0</ele><time>2026-03-22T14:54:56.679Z</time></trkpt><trkpt lat="44.3360416" lon="9.5070145"><ele>846.4</ele><time>2026-03-22T14:54:57.68Z</time></trkpt><trkpt lat="44.3359218" lon="9.5070249"><ele>844.8</ele><time>2026-03-22T14:54:58.679Z</time></trkpt><trkpt lat="44.3358228" lon="9.5070275"><ele>843.2</ele><time>2026-03-22T14:54:59.679Z</time></trkpt><trkpt lat="44.3357371" lon="9.5070242"><ele>841.6</ele><time>2026-03-22T14:55:00.679Z</time></trkpt><trkpt lat="44.3356631" lon="9.5070043"><ele>840.0</ele><time>2026-03-22T14:55:01.679Z</time></trkpt><trkpt lat="44.3356024" lon="9.5069374"><ele>839.8</ele><time>2026-03-22T14:55:02.679Z</time></trkpt><trkpt lat="44.3355355" lon="9.5069317"><ele>839.6</ele><time>2026-03-22T14:55:03.679Z</time></trkpt><trkpt lat="44.3354553" lon="9.5067795"><ele>839.4000000000001</ele><time>2026-03-22T14:55:04.679Z</time></trkpt><trkpt lat="44.3353909" lon="9.506688"><ele>839.2</ele><time>2026-03-22T14:55:05.678Z</time></trkpt><trkpt lat="44.3353093" lon="9.5066358"><ele>839.0</ele><time>2026-03-22T14:55:06.678Z</time></trkpt><trkpt lat="44.3352435" lon="9.5065881"><ele>839.0000000000001</ele><time>2026-03-22T14:55:07.679Z</time></trkpt><trkpt lat="44.3351793" lon="9.5065614"><ele>839.0</ele><time>2026-03-22T14:55:08.679Z</time></trkpt><trkpt lat="44.3350938" lon="9.5065633"><ele>839.0</ele><time>2026-03-22T14:55:09.679Z</time></trkpt><trkpt lat="44.3350343" lon="9.5066142"><ele>839.0</ele><time>2026-03-22T14:55:10.679Z</time></trkpt><trkpt lat="44.3349821" lon="9.5066743"><ele>839.0000000000001</ele><time>2026-03-22T14:55:11.679Z</time></trkpt><trkpt lat="44.3349305" lon="9.5067636"><ele>839.0</ele><time>2026-03-22T14:55:12.679Z</time></trkpt><trkpt lat="44.3348708" lon="9.5068817"><ele>839.0</ele><time>2026-03-22T14:55:13.679Z</time></trkpt><trkpt lat="44.3348132" lon="9.5069847"><ele>839.0</ele><time>2026-03-22T14:55:14.679Z</time></trkpt><trkpt lat="44.334743" lon="9.5070743"><ele>839.0</ele><time>2026-03-22T14:55:15.679Z</time></trkpt><trkpt lat="44.3346685" lon="9.5071382"><ele>839.0</ele><time>2026-03-22T14:55:16.679Z</time></trkpt><trkpt lat="44.3345881" lon="9.5071805"><ele>839.0</ele><time>2026-03-22T14:55:17.679Z</time></trkpt><trkpt lat="44.3344918" lon="9.5071875"><ele>832.75</ele><time>2026-03-22T14:55:18.679Z</time></trkpt><trkpt lat="44.334379" lon="9.5071745"><ele>826.5</ele><time>2026-03-22T14:55:19.679Z</time></trkpt><trkpt lat="44.3342391" lon="9.5071641"><ele>820.25</ele><time>2026-03-22T14:55:20.679Z</time></trkpt><trkpt lat="44.3341175" lon="9.5071342"><ele>814.0</ele><time>2026-03-22T14:55:21.679Z</time></trkpt><trkpt lat="44.3340162" lon="9.5071024"><ele>816.6</ele><time>2026-03-22T14:55:22.679Z</time></trkpt><trkpt lat="44.3339235" lon="9.5070707"><ele>819.2</ele><time>2026-03-22T14:55:23.68Z</time></trkpt><trkpt lat="44.3338342" lon="9.5070077"><ele>821.8000000000001</ele><time>2026-03-22T14:55:24.68Z</time></trkpt><trkpt lat="44.3337446" lon="9.5069122"><ele>824.4000000000001</ele><time>2026-03-22T14:55:25.679Z</time></trkpt><trkpt lat="44.3336518" lon="9.5068124"><ele>827.0</ele><time>2026-03-22T14:55:26.68Z</time></trkpt><trkpt lat="44.3335481" lon="9.5067198"><ele>827.0</ele><time>2026-03-22T14:55:27.679Z</time></trkpt><trkpt lat="44.333451" lon="9.506534"><ele>827.0</ele><time>2026-03-22T14:55:28.678Z</time></trkpt><trkpt lat="44.3333592" lon="9.5064254"><ele>827.0</ele><time>2026-03-22T14:55:29.678Z</time></trkpt><trkpt lat="44.3333182" lon="9.5062741"><ele>827.0</ele><time>2026-03-22T14:55:30.679Z</time></trkpt><trkpt lat="44.3332897" lon="9.5060926"><ele>830.0000000000001</ele><time>2026-03-22T14:55:32.679Z</time></trkpt><trkpt lat="44.3333027" lon="9.5059957"><ele>833.0</ele><time>2026-03-22T14:55:33.679Z</time></trkpt><trkpt lat="44.3333185" lon="9.505878"><ele>836.0</ele><time>2026-03-22T14:55:34.68Z</time></trkpt><trkpt lat="44.3333534" lon="9.5057456"><ele>839.0</ele><time>2026-03-22T14:55:35.679Z</time></trkpt><trkpt lat="44.3333754" lon="9.5056369"><ele>842.0000000000001</ele><time>2026-03-22T14:55:36.679Z</time></trkpt><trkpt lat="44.3333831" lon="9.5055359"><ele>845.0</ele><time>2026-03-22T14:55:37.679Z</time></trkpt><trkpt lat="44.333362" lon="9.5053698"><ele>844.6666666666667</ele><time>2026-03-22T14:55:39.68Z</time></trkpt><trkpt lat="44.3333261" lon="9.505282"><ele>844.3333333333334</ele><time>2026-03-22T14:55:40.679Z</time></trkpt><trkpt lat="44.333268" lon="9.5051818"><ele>844.0</ele><time>2026-03-22T14:55:41.68Z</time></trkpt><trkpt lat="44.3332114" lon="9.5051003"><ele>843.6666666666667</ele><time>2026-03-22T14:55:42.68Z</time></trkpt><trkpt lat="44.333162" lon="9.505035"><ele>843.3333333333334</ele><time>2026-03-22T14:55:43.679Z</time></trkpt><trkpt lat="44.3331" lon="9.5049938"><ele>843.0</ele><time>2026-03-22T14:55:44.679Z</time></trkpt><trkpt lat="44.3330219" lon="9.5050266"><ele>843.0</ele><time>2026-03-22T14:55:45.679Z</time></trkpt><trkpt lat="44.3329472" lon="9.5050519"><ele>843.0</ele><time>2026-03-22T14:55:46.679Z</time></trkpt><trkpt lat="44.3328664" lon="9.5051177"><ele>843.0</ele><time>2026-03-22T14:55:47.679Z</time></trkpt><trkpt lat="44.3327925" lon="9.5051399"><ele>843.0</ele><time>2026-03-22T14:55:48.679Z</time></trkpt><trkpt lat="44.3327288" lon="9.5051343"><ele>843.0</ele><time>2026-03-22T14:55:49.679Z</time></trkpt><trkpt lat="44.3326686" lon="9.5050965"><ele>843.0</ele><time>2026-03-22T14:55:50.679Z</time></trkpt><trkpt lat="44.3326221" lon="9.5050257"><ele>843.0</ele><time>2026-03-22T14:55:51.679Z</time></trkpt><trkpt lat="44.3325723" lon="9.5049105"><ele>843.0</ele><time>2026-03-22T14:55:52.679Z</time></trkpt><trkpt lat="44.3325303" lon="9.5047961"><ele>843.0</ele><time>2026-03-22T14:55:53.678Z</time></trkpt><trkpt lat="44.332488" lon="9.504704"><ele>843.0</ele><time>2026-03-22T14:55:54.679Z</time></trkpt><trkpt lat="44.3324285" lon="9.5046384"><ele>843.0</ele><time>2026-03-22T14:55:55.679Z</time></trkpt><trkpt lat="44.3323507" lon="9.5045919"><ele>843.0</ele><time>2026-03-22T14:55:56.679Z</time></trkpt><trkpt lat="44.3322602" lon="9.5045832"><ele>843.0</ele><time>2026-03-22T14:55:57.68Z</time></trkpt><trkpt lat="44.3321414" lon="9.5045562"><ele>844.4</ele><time>2026-03-22T14:55:58.68Z</time></trkpt><trkpt lat="44.332029" lon="9.5045433"><ele>845.8</ele><time>2026-03-22T14:55:59.679Z</time></trkpt><trkpt lat="44.3319436" lon="9.5045083"><ele>847.2</ele><time>2026-03-22T14:56:00.68Z</time></trkpt><trkpt lat="44.3318825" lon="9.5044801"><ele>848.6</ele><time>2026-03-22T14:56:01.679Z</time></trkpt><trkpt lat="44.3318114" lon="9.5043665"><ele>850.0</ele><time>2026-03-22T14:56:03.68Z</time></trkpt><trkpt lat="44.3318198" lon="9.5041526"><ele>850.0</ele><time>2026-03-22T14:56:05.68Z</time></trkpt><trkpt lat="44.3318314" lon="9.5040261"><ele>850.0</ele><time>2026-03-22T14:56:06.679Z</time></trkpt><trkpt lat="44.3318436" lon="9.5039248"><ele>850.0</ele><time>2026-03-22T14:56:07.678Z</time></trkpt><trkpt lat="44.3318376" lon="9.503777"><ele>850.0</ele><time>2026-03-22T14:56:09.679Z</time></trkpt><trkpt lat="44.3317506" lon="9.5036649"><ele>850.0</ele><time>2026-03-22T14:56:11.679Z</time></trkpt><trkpt lat="44.3316716" lon="9.5036246"><ele>855.0</ele><time>2026-03-22T14:56:12.679Z</time></trkpt><trkpt lat="44.3315693" lon="9.5035847"><ele>860.0</ele><time>2026-03-22T14:56:13.678Z</time></trkpt><trkpt lat="44.3314596" lon="9.5035496"><ele>865.0</ele><time>2026-03-22T14:56:14.679Z</time></trkpt><trkpt lat="44.3313697" lon="9.5035325"><ele>870.0</ele><time>2026-03-22T14:56:15.679Z</time></trkpt><trkpt lat="44.3312853" lon="9.503534"><ele>875.0</ele><time>2026-03-22T14:56:16.679Z</time></trkpt><trkpt lat="44.331201" lon="9.5035499"><ele>875.1666666666667</ele><time>2026-03-22T14:56:17.679Z</time></trkpt><trkpt lat="44.3311285" lon="9.5035473"><ele>875.3333333333334</ele><time>2026-03-22T14:56:18.679Z</time></trkpt><trkpt lat="44.3310505" lon="9.5035055"><ele>875.5</ele><time>2026-03-22T14:56:19.679Z</time></trkpt><trkpt lat="44.3309665" lon="9.503409"><ele>875.6666666666667</ele><time>2026-03-22T14:56:21.679Z</time></trkpt><trkpt lat="44.3308635" lon="9.5033946"><ele>875.8333333333334</ele><time>2026-03-22T14:56:23.68Z</time></trkpt><trkpt lat="44.3308129" lon="9.5034486"><ele>876.0</ele><time>2026-03-22T14:56:24.68Z</time></trkpt><trkpt lat="44.3307621" lon="9.503536"><ele>876.0</ele><time>2026-03-22T14:56:25.679Z</time></trkpt><trkpt lat="44.3307013" lon="9.5036583"><ele>875.9999999999999</ele><time>2026-03-22T14:56:26.679Z</time></trkpt><trkpt lat="44.3306363" lon="9.5037909"><ele>875.9999999999999</ele><time>2026-03-22T14:56:27.679Z</time></trkpt><trkpt lat="44.3305794" lon="9.5039048"><ele>876.0</ele><time>2026-03-22T14:56:28.679Z</time></trkpt><trkpt lat="44.3305339" lon="9.503968"><ele>876.0</ele><time>2026-03-22T14:56:29.68Z</time></trkpt><trkpt lat="44.330429" lon="9.504047"><ele>872.6666666666666</ele><time>2026-03-22T14:56:31.679Z</time></trkpt><trkpt lat="44.3303534" lon="9.5040613"><ele>869.3333333333333</ele><time>2026-03-22T14:56:32.679Z</time></trkpt><trkpt lat="44.330258" lon="9.5040568"><ele>866.0</ele><time>2026-03-22T14:56:33.679Z</time></trkpt><trkpt lat="44.3301622" lon="9.5040296"><ele>862.6666666666666</ele><time>2026-03-22T14:56:34.679Z</time></trkpt><trkpt lat="44.330081" lon="9.5039862"><ele>859.3333333333333</ele><time>2026-03-22T14:56:35.679Z</time></trkpt><trkpt lat="44.3299977" lon="9.5039411"><ele>856.0</ele><time>2026-03-22T14:56:36.679Z</time></trkpt><trkpt lat="44.3299123" lon="9.503904"><ele>855.9999999999999</ele><time>2026-03-22T14:56:37.68Z</time></trkpt><trkpt lat="44.3298333" lon="9.5038801"><ele>856.0</ele><time>2026-03-22T14:56:38.679Z</time></trkpt><trkpt lat="44.3297606" lon="9.5038495"><ele>856.0</ele><time>2026-03-22T14:56:39.679Z</time></trkpt><trkpt lat="44.3296985" lon="9.5037852"><ele>856.0</ele><time>2026-03-22T14:56:40.679Z</time></trkpt><trkpt lat="44.3296405" lon="9.5036893"><ele>855.9999999999999</ele><time>2026-03-22T14:56:41.679Z</time></trkpt><trkpt lat="44.3295885" lon="9.5035705"><ele>856.0</ele><time>2026-03-22T14:56:42.679Z</time></trkpt><trkpt lat="44.3295592" lon="9.5034647"><ele>858.1666666666666</ele><time>2026-03-22T14:56:43.679Z</time></trkpt><trkpt lat="44.3295212" lon="9.5033705"><ele>860.3333333333333</ele><time>2026-03-22T14:56:44.679Z</time></trkpt><trkpt lat="44.3294683" lon="9.5032901"><ele>862.5</ele><time>2026-03-22T14:56:45.68Z</time></trkpt><trkpt lat="44.3293994" lon="9.503213"><ele>864.6666666666667</ele><time>2026-03-22T14:56:46.679Z</time></trkpt><trkpt lat="44.3293201" lon="9.503151"><ele>866.8333333333334</ele><time>2026-03-22T14:56:47.679Z</time></trkpt><trkpt lat="44.3292386" lon="9.5031045"><ele>869.0</ele><time>2026-03-22T14:56:48.68Z</time></trkpt><trkpt lat="44.3291575" lon="9.5030995"><ele>869.0</ele><time>2026-03-22T14:56:49.679Z</time></trkpt><trkpt lat="44.3290704" lon="9.5031061"><ele>869.0000000000001</ele><time>2026-03-22T14:56:50.679Z</time></trkpt><trkpt lat="44.3289945" lon="9.5030992"><ele>869.0000000000001</ele><time>2026-03-22T14:56:51.679Z</time></trkpt><trkpt lat="44.3288826" lon="9.503028"><ele>869.0</ele><time>2026-03-22T14:56:53.679Z</time></trkpt><trkpt lat="44.3288206" lon="9.5029382"><ele>869.0</ele><time>2026-03-22T14:56:54.678Z</time></trkpt><trkpt lat="44.3287514" lon="9.5028346"><ele>872.6666666666667</ele><time>2026-03-22T14:56:55.679Z</time></trkpt><trkpt lat="44.328695" lon="9.5027524"><ele>876.3333333333334</ele><time>2026-03-22T14:56:56.679Z</time></trkpt><trkpt lat="44.3285938" lon="9.5026992"><ele>880.0</ele><time>2026-03-22T14:56:58.679Z</time></trkpt><trkpt lat="44.3285269" lon="9.5027032"><ele>883.6666666666667</ele><time>2026-03-22T14:56:59.68Z</time></trkpt><trkpt lat="44.3284468" lon="9.5027069"><ele>887.3333333333334</ele><time>2026-03-22T14:57:00.679Z</time></trkpt><trkpt lat="44.3283568" lon="9.5026851"><ele>891.0</ele><time>2026-03-22T14:57:01.679Z</time></trkpt><trkpt lat="44.3282727" lon="9.5026464"><ele>891.0</ele><time>2026-03-22T14:57:02.68Z</time></trkpt><trkpt lat="44.3281989" lon="9.5026193"><ele>890.9999999999999</ele><time>2026-03-22T14:57:03.679Z</time></trkpt><trkpt lat="44.3280759" lon="9.5026477"><ele>890.9999999999999</ele><time>2026-03-22T14:57:05.679Z</time></trkpt><trkpt lat="44.3280081" lon="9.5027169"><ele>891.0</ele><time>2026-03-22T14:57:06.679Z</time></trkpt><trkpt lat="44.3279223" lon="9.502825"><ele>891.0</ele><time>2026-03-22T14:57:07.679Z</time></trkpt><trkpt lat="44.3278455" lon="9.5029133"><ele>892.0</ele><time>2026-03-22T14:57:08.679Z</time></trkpt><trkpt lat="44.3277398" lon="9.5029404"><ele>893.0</ele><time>2026-03-22T14:57:10.679Z</time></trkpt><trkpt lat="44.3276621" lon="9.5029112"><ele>894.0</ele><time>2026-03-22T14:57:11.68Z</time></trkpt><trkpt lat="44.3275777" lon="9.5028881"><ele>895.0</ele><time>2026-03-22T14:57:12.679Z</time></trkpt><trkpt lat="44.327504" lon="9.5028884"><ele>896.0</ele><time>2026-03-22T14:57:13.679Z</time></trkpt><trkpt lat="44.3274377" lon="9.5028962"><ele>897.0</ele><time>2026-03-22T14:57:14.679Z</time></trkpt><trkpt lat="44.3273883" lon="9.5030018"><ele>895.4000000000001</ele><time>2026-03-22T14:57:15.679Z</time></trkpt><trkpt lat="44.3273442" lon="9.503113"><ele>893.8000000000001</ele><time>2026-03-22T14:57:16.679Z</time></trkpt><trkpt lat="44.3272967" lon="9.503229"><ele>892.2</ele><time>2026-03-22T14:57:17.679Z</time></trkpt><trkpt lat="44.3272395" lon="9.5033683"><ele>890.6</ele><time>2026-03-22T14:57:18.679Z</time></trkpt><trkpt lat="44.3271867" lon="9.5034897"><ele>889.0</ele><time>2026-03-22T14:57:19.679Z</time></trkpt><trkpt lat="44.3271499" lon="9.5035791"><ele>888.9999999999999</ele><time>2026-03-22T14:57:20.68Z</time></trkpt><trkpt lat="44.3270793" lon="9.5036773"><ele>889.0</ele><time>2026-03-22T14:57:22.68Z</time></trkpt><trkpt lat="44.326993" lon="9.5036699"><ele>889.0</ele><time>2026-03-22T14:57:24.679Z</time></trkpt><trkpt lat="44.3269338" lon="9.5036307"><ele>889.0</ele><time>2026-03-22T14:57:25.679Z</time></trkpt><trkpt lat="44.3268654" lon="9.5035711"><ele>888.9999999999999</ele><time>2026-03-22T14:57:26.679Z</time></trkpt><trkpt lat="44.3268004" lon="9.5034996"><ele>889.0</ele><time>2026-03-22T14:57:27.679Z</time></trkpt><trkpt lat="44.3267492" lon="9.5034083"><ele>888.9999999999999</ele><time>2026-03-22T14:57:28.678Z</time></trkpt><trkpt lat="44.3267144" lon="9.5033048"><ele>889.0</ele><time>2026-03-22T14:57:29.679Z</time></trkpt><trkpt lat="44.326679" lon="9.5032267"><ele>889.0</ele><time>2026-03-22T14:57:30.679Z</time></trkpt><trkpt lat="44.3266245" lon="9.5031723"><ele>889.0</ele><time>2026-03-22T14:57:31.679Z</time></trkpt><trkpt lat="44.3265555" lon="9.5031335"><ele>888.9999999999999</ele><time>2026-03-22T14:57:32.68Z</time></trkpt><trkpt lat="44.3264688" lon="9.5031038"><ele>889.0</ele><time>2026-03-22T14:57:33.679Z</time></trkpt><trkpt lat="44.3263642" lon="9.5030824"><ele>888.6</ele><time>2026-03-22T14:57:34.679Z</time></trkpt><trkpt lat="44.3262526" lon="9.5030671"><ele>888.2</ele><time>2026-03-22T14:57:35.679Z</time></trkpt><trkpt lat="44.3261602" lon="9.5030332"><ele>887.8000000000001</ele><time>2026-03-22T14:57:36.68Z</time></trkpt><trkpt lat="44.3260784" lon="9.5029831"><ele>887.4000000000001</ele><time>2026-03-22T14:57:37.68Z</time></trkpt><trkpt lat="44.3259922" lon="9.5029465"><ele>887.0</ele><time>2026-03-22T14:57:38.678Z</time></trkpt><trkpt lat="44.325898" lon="9.5029381"><ele>887.0</ele><time>2026-03-22T14:57:39.679Z</time></trkpt><trkpt lat="44.3258085" lon="9.5029574"><ele>887.0</ele><time>2026-03-22T14:57:40.679Z</time></trkpt><trkpt lat="44.3257242" lon="9.5029865"><ele>887.0</ele><time>2026-03-22T14:57:41.679Z</time></trkpt><trkpt lat="44.3256357" lon="9.5030013"><ele>887.0</ele><time>2026-03-22T14:57:42.679Z</time></trkpt><trkpt lat="44.3255385" lon="9.5029822"><ele>887.0</ele><time>2026-03-22T14:57:43.679Z</time></trkpt><trkpt lat="44.3254339" lon="9.5029285"><ele>891.0</ele><time>2026-03-22T14:57:44.679Z</time></trkpt><trkpt lat="44.3253276" lon="9.5028518"><ele>895.0</ele><time>2026-03-22T14:57:45.679Z</time></trkpt><trkpt lat="44.325229" lon="9.5027536"><ele>899.0</ele><time>2026-03-22T14:57:46.68Z</time></trkpt><trkpt lat="44.3251508" lon="9.5026487"><ele>903.0</ele><time>2026-03-22T14:57:47.679Z</time></trkpt><trkpt lat="44.3250887" lon="9.5025544"><ele>907.0</ele><time>2026-03-22T14:57:48.679Z</time></trkpt><trkpt lat="44.3250317" lon="9.5024895"><ele>907.0</ele><time>2026-03-22T14:57:49.679Z</time></trkpt><trkpt lat="44.3249756" lon="9.5024483"><ele>907.0</ele><time>2026-03-22T14:57:50.678Z</time></trkpt><trkpt lat="44.324833" lon="9.5024451"><ele>907.0</ele><time>2026-03-22T14:57:52.679Z</time></trkpt><trkpt lat="44.3247417" lon="9.5024685"><ele>907.0</ele><time>2026-03-22T14:57:53.679Z</time></trkpt><trkpt lat="44.3246498" lon="9.5025324"><ele>907.0</ele><time>2026-03-22T14:57:54.679Z</time></trkpt><trkpt lat="44.3245667" lon="9.502604"><ele>907.2</ele><time>2026-03-22T14:57:55.679Z</time></trkpt><trkpt lat="44.324505" lon="9.5026698"><ele>907.4000000000001</ele><time>2026-03-22T14:57:56.68Z</time></trkpt><trkpt lat="44.3244181" lon="9.5027926"><ele>907.5999999999999</ele><time>2026-03-22T14:57:58.679Z</time></trkpt><trkpt lat="44.3243672" lon="9.5029143"><ele>907.8</ele><time>2026-03-22T14:58:00.68Z</time></trkpt><trkpt lat="44.3243759" lon="9.5030624"><ele>908.0</ele><time>2026-03-22T14:58:02.679Z</time></trkpt><trkpt lat="44.3243955" lon="9.5031967"><ele>907.0</ele><time>2026-03-22T14:58:04.679Z</time></trkpt><trkpt lat="44.3243639" lon="9.503319"><ele>906.0</ele><time>2026-03-22T14:58:06.679Z</time></trkpt><trkpt lat="44.3242942" lon="9.5034316"><ele>905.0</ele><time>2026-03-22T14:58:08.68Z</time></trkpt><trkpt lat="44.3242399" lon="9.5034965"><ele>904.0</ele><time>2026-03-22T14:58:09.679Z</time></trkpt><trkpt lat="44.3241913" lon="9.5035589"><ele>903.0</ele><time>2026-03-22T14:58:10.679Z</time></trkpt><trkpt lat="44.3241076" lon="9.5036873"><ele>900.5999999999999</ele><time>2026-03-22T14:58:12.679Z</time></trkpt><trkpt lat="44.3240206" lon="9.5037981"><ele>898.1999999999999</ele><time>2026-03-22T14:58:14.678Z</time></trkpt><trkpt lat="44.3239384" lon="9.5038666"><ele>895.8</ele><time>2026-03-22T14:58:16.679Z</time></trkpt><trkpt lat="44.3238911" lon="9.5039725"><ele>893.4</ele><time>2026-03-22T14:58:18.679Z</time></trkpt><trkpt lat="44.3239034" lon="9.5041374"><ele>891.0</ele><time>2026-03-22T14:58:20.679Z</time></trkpt><trkpt lat="44.3238933" lon="9.5043239"><ele>895.0</ele><time>2026-03-22T14:58:22.679Z</time></trkpt><trkpt lat="44.3238712" lon="9.5044252"><ele>899.0</ele><time>2026-03-22T14:58:23.68Z</time></trkpt><trkpt lat="44.3238581" lon="9.5045247"><ele>903.0</ele><time>2026-03-22T14:58:24.68Z</time></trkpt><trkpt lat="44.3238289" lon="9.5046267"><ele>907.0</ele><time>2026-03-22T14:58:25.679Z</time></trkpt><trkpt lat="44.3237991" lon="9.5047298"><ele>911.0</ele><time>2026-03-22T14:58:26.679Z</time></trkpt><trkpt lat="44.3237693" lon="9.5048343"><ele>915.0</ele><time>2026-03-22T14:58:27.679Z</time></trkpt><trkpt lat="44.3237394" lon="9.504928"><ele>915.3333333333334</ele><time>2026-03-22T14:58:28.679Z</time></trkpt><trkpt lat="44.3237137" lon="9.5050191"><ele>915.6666666666667</ele><time>2026-03-22T14:58:29.679Z</time></trkpt><trkpt lat="44.3236941" lon="9.5051109"><ele>916.0</ele><time>2026-03-22T14:58:30.679Z</time></trkpt><trkpt lat="44.3236734" lon="9.505265"><ele>916.3333333333334</ele><time>2026-03-22T14:58:32.679Z</time></trkpt><trkpt lat="44.3236509" lon="9.505405"><ele>916.6666666666667</ele><time>2026-03-22T14:58:34.679Z</time></trkpt><trkpt lat="44.3236364" lon="9.5055369"><ele>917.0</ele><time>2026-03-22T14:58:36.68Z</time></trkpt><trkpt lat="44.3236453" lon="9.505703"><ele>916.8333333333334</ele><time>2026-03-22T14:58:38.679Z</time></trkpt><trkpt lat="44.3236562" lon="9.5058653"><ele>916.6666666666667</ele><time>2026-03-22T14:58:40.679Z</time></trkpt><trkpt lat="44.3236953" lon="9.5059537"><ele>916.5</ele><time>2026-03-22T14:58:41.679Z</time></trkpt><trkpt lat="44.3237309" lon="9.5060423"><ele>916.3333333333333</ele><time>2026-03-22T14:58:42.68Z</time></trkpt><trkpt lat="44.3237554" lon="9.5061511"><ele>916.1666666666666</ele><time>2026-03-22T14:58:43.679Z</time></trkpt><trkpt lat="44.3237726" lon="9.5062542"><ele>916.0</ele><time>2026-03-22T14:58:44.679Z</time></trkpt><trkpt lat="44.3237905" lon="9.5063644"><ele>916.0</ele><time>2026-03-22T14:58:45.679Z</time></trkpt><trkpt lat="44.3238249" lon="9.506464"><ele>915.9999999999999</ele><time>2026-03-22T14:58:46.679Z</time></trkpt><trkpt lat="44.3238619" lon="9.5065427"><ele>915.9999999999999</ele><time>2026-03-22T14:58:47.679Z</time></trkpt><trkpt lat="44.3238899" lon="9.5066964"><ele>916.0</ele><time>2026-03-22T14:58:49.679Z</time></trkpt><trkpt lat="44.3239431" lon="9.5068378"><ele>916.0</ele><time>2026-03-22T14:58:51.679Z</time></trkpt><trkpt lat="44.324028" lon="9.5069594"><ele>910.4999999999999</ele><time>2026-03-22T14:58:53.679Z</time></trkpt><trkpt lat="44.3240891" lon="9.5069833"><ele>905.0</ele><time>2026-03-22T14:58:54.679Z</time></trkpt><trkpt lat="44.3242082" lon="9.5070179"><ele>899.5</ele><time>2026-03-22T14:58:56.679Z</time></trkpt><trkpt lat="44.3242813" lon="9.5070054"><ele>894.0</ele><time>2026-03-22T14:58:57.679Z</time></trkpt><trkpt lat="44.3243665" lon="9.5069847"><ele>888.4999999999999</ele><time>2026-03-22T14:58:58.679Z</time></trkpt><trkpt lat="44.3244457" lon="9.5069757"><ele>883.0</ele><time>2026-03-22T14:58:59.679Z</time></trkpt><trkpt lat="44.3245113" lon="9.5069766"><ele>883.0</ele><time>2026-03-22T14:59:00.679Z</time></trkpt><trkpt lat="44.324598" lon="9.5069855"><ele>883.0</ele><time>2026-03-22T14:59:02.679Z</time></trkpt><trkpt lat="44.3246498" lon="9.507056"><ele>883.0</ele><time>2026-03-22T14:59:04.68Z</time></trkpt><trkpt lat="44.3246326" lon="9.5071965"><ele>883.0</ele><time>2026-03-22T14:59:07.679Z</time></trkpt><trkpt lat="44.3245474" lon="9.5073188"><ele>883.0</ele><time>2026-03-22T14:59:09.679Z</time></trkpt><trkpt lat="44.3244974" lon="9.5073908"><ele>882.8333333333333</ele><time>2026-03-22T14:59:10.679Z</time></trkpt><trkpt lat="44.3244502" lon="9.5074527"><ele>882.6666666666666</ele><time>2026-03-22T14:59:11.679Z</time></trkpt><trkpt lat="44.324359" lon="9.5075554"><ele>882.5</ele><time>2026-03-22T14:59:13.679Z</time></trkpt><trkpt lat="44.3243301" lon="9.5076582"><ele>882.3333333333333</ele><time>2026-03-22T14:59:15.679Z</time></trkpt><trkpt lat="44.3243328" lon="9.5077666"><ele>882.1666666666666</ele><time>2026-03-22T14:59:16.679Z</time></trkpt><trkpt lat="44.3243379" lon="9.5078587"><ele>882.0</ele><time>2026-03-22T14:59:17.679Z</time></trkpt><trkpt lat="44.3243313" lon="9.5079541"><ele>882.6</ele><time>2026-03-22T14:59:18.679Z</time></trkpt><trkpt lat="44.3243583" lon="9.5081107"><ele>883.2</ele><time>2026-03-22T14:59:20.679Z</time></trkpt><trkpt lat="44.3243925" lon="9.5082379"><ele>883.8</ele><time>2026-03-22T14:59:22.679Z</time></trkpt><trkpt lat="44.3244528" lon="9.5083259"><ele>884.4</ele><time>2026-03-22T14:59:24.679Z</time></trkpt><trkpt lat="44.3245401" lon="9.5084202"><ele>885.0</ele><time>2026-03-22T14:59:26.68Z</time></trkpt><trkpt lat="44.3246535" lon="9.5084397"><ele>881.0</ele><time>2026-03-22T14:59:29.679Z</time></trkpt><trkpt lat="44.324749" lon="9.5084688"><ele>877.0</ele><time>2026-03-22T14:59:31.679Z</time></trkpt><trkpt lat="44.3248355" lon="9.50849"><ele>873.0</ele><time>2026-03-22T14:59:32.679Z</time></trkpt><trkpt lat="44.3249527" lon="9.5085553"><ele>869.0</ele><time>2026-03-22T14:59:34.679Z</time></trkpt><trkpt lat="44.3250241" lon="9.5086895"><ele>865.0</ele><time>2026-03-22T14:59:36.679Z</time></trkpt><trkpt lat="44.3250625" lon="9.5088417"><ele>865.0</ele><time>2026-03-22T14:59:38.679Z</time></trkpt><trkpt lat="44.3250821" lon="9.5090125"><ele>865.0</ele><time>2026-03-22T14:59:40.679Z</time></trkpt><trkpt lat="44.3251435" lon="9.5091313"><ele>865.0</ele><time>2026-03-22T14:59:42.679Z</time></trkpt><trkpt lat="44.3252127" lon="9.5091339"><ele>865.0</ele><time>2026-03-22T14:59:43.679Z</time></trkpt><trkpt lat="44.3253198" lon="9.5091423"><ele>865.0</ele><time>2026-03-22T14:59:45.679Z</time></trkpt><trkpt lat="44.3253975" lon="9.5091942"><ele>865.0</ele><time>2026-03-22T14:59:47.68Z</time></trkpt><trkpt lat="44.3253936" lon="9.5093313"><ele>865.0</ele><time>2026-03-22T14:59:49.679Z</time></trkpt><trkpt lat="44.3253483" lon="9.5094697"><ele>865.0</ele><time>2026-03-22T14:59:51.679Z</time></trkpt><trkpt lat="44.325288" lon="9.5096201"><ele>865.0</ele><time>2026-03-22T14:59:53.679Z</time></trkpt><trkpt lat="44.3252527" lon="9.509779"><ele>865.0</ele><time>2026-03-22T14:59:55.679Z</time></trkpt><trkpt lat="44.3251778" lon="9.5099284"><ele>863.5714285714286</ele><time>2026-03-22T14:59:57.679Z</time></trkpt><trkpt lat="44.3251333" lon="9.5100098"><ele>862.1428571428571</ele><time>2026-03-22T14:59:58.679Z</time></trkpt><trkpt lat="44.32509" lon="9.5100866"><ele>860.7142857142858</ele><time>2026-03-22T14:59:59.679Z</time></trkpt><trkpt lat="44.3250558" lon="9.5101627"><ele>859.2857142857142</ele><time>2026-03-22T15:00:00.679Z</time></trkpt><trkpt lat="44.3250199" lon="9.5102451"><ele>857.8571428571428</ele><time>2026-03-22T15:00:01.679Z</time></trkpt><trkpt lat="44.3249844" lon="9.5103322"><ele>856.4285714285714</ele><time>2026-03-22T15:00:02.679Z</time></trkpt><trkpt lat="44.3249464" lon="9.5104533"><ele>855.0</ele><time>2026-03-22T15:00:04.679Z</time></trkpt><trkpt lat="44.3249289" lon="9.5105567"><ele>853.0</ele><time>2026-03-22T15:00:07.679Z</time></trkpt><trkpt lat="44.3249421" lon="9.5107055"><ele>851.0</ele><time>2026-03-22T15:00:09.679Z</time></trkpt><trkpt lat="44.324969" lon="9.5107948"><ele>849.0</ele><time>2026-03-22T15:00:10.68Z</time></trkpt><trkpt lat="44.3250403" lon="9.5109257"><ele>847.0</ele><time>2026-03-22T15:00:12.679Z</time></trkpt><trkpt lat="44.3250872" lon="9.5110104"><ele>845.0</ele><time>2026-03-22T15:00:13.679Z</time></trkpt><trkpt lat="44.3251295" lon="9.5111099"><ele>845.0000000000001</ele><time>2026-03-22T15:00:14.679Z</time></trkpt><trkpt lat="44.3251681" lon="9.5112073"><ele>845.0</ele><time>2026-03-22T15:00:15.679Z</time></trkpt><trkpt lat="44.3251882" lon="9.5112926"><ele>845.0</ele><time>2026-03-22T15:00:16.679Z</time></trkpt><trkpt lat="44.3252363" lon="9.5114361"><ele>845.0</ele><time>2026-03-22T15:00:18.679Z</time></trkpt><trkpt lat="44.3252919" lon="9.5115954"><ele>845.0000000000001</ele><time>2026-03-22T15:00:20.679Z</time></trkpt><trkpt lat="44.3253017" lon="9.5116824"><ele>845.0</ele><time>2026-03-22T15:00:21.679Z</time></trkpt><trkpt lat="44.3252836" lon="9.5118455"><ele>843.4</ele><time>2026-03-22T15:00:23.679Z</time></trkpt><trkpt lat="44.3252652" lon="9.5119388"><ele>841.8</ele><time>2026-03-22T15:00:24.679Z</time></trkpt><trkpt lat="44.3252358" lon="9.5120893"><ele>840.2</ele><time>2026-03-22T15:00:26.679Z</time></trkpt><trkpt lat="44.3251626" lon="9.5121821"><ele>838.6</ele><time>2026-03-22T15:00:28.679Z</time></trkpt><trkpt lat="44.3250655" lon="9.5122645"><ele>837.0</ele><time>2026-03-22T15:00:30.679Z</time></trkpt><trkpt lat="44.3250035" lon="9.512333"><ele>838.6666666666666</ele><time>2026-03-22T15:00:31.679Z</time></trkpt><trkpt lat="44.324958" lon="9.5124011"><ele>840.3333333333333</ele><time>2026-03-22T15:00:32.679Z</time></trkpt><trkpt lat="44.3249053" lon="9.512471"><ele>842.0</ele><time>2026-03-22T15:00:33.679Z</time></trkpt><trkpt lat="44.3248546" lon="9.512543"><ele>843.6666666666666</ele><time>2026-03-22T15:00:34.679Z</time></trkpt><trkpt lat="44.3247956" lon="9.5126823"><ele>845.3333333333333</ele><time>2026-03-22T15:00:36.679Z</time></trkpt><trkpt lat="44.3246831" lon="9.5127223"><ele>847.0</ele><time>2026-03-22T15:00:38.68Z</time></trkpt><trkpt lat="44.3245843" lon="9.5127831"><ele>842.4000000000001</ele><time>2026-03-22T15:00:40.679Z</time></trkpt><trkpt lat="44.3245374" lon="9.5129178"><ele>837.8000000000001</ele><time>2026-03-22T15:00:43.679Z</time></trkpt><trkpt lat="44.3245003" lon="9.5130516"><ele>833.2</ele><time>2026-03-22T15:00:45.679Z</time></trkpt><trkpt lat="44.3244641" lon="9.5132094"><ele>828.6</ele><time>2026-03-22T15:00:47.68Z</time></trkpt><trkpt lat="44.3244057" lon="9.5133495"><ele>824.0</ele><time>2026-03-22T15:00:49.679Z</time></trkpt><trkpt lat="44.3242997" lon="9.5134146"><ele>824.0000000000001</ele><time>2026-03-22T15:00:51.68Z</time></trkpt><trkpt lat="44.3242399" lon="9.5134432"><ele>824.0</ele><time>2026-03-22T15:00:52.679Z</time></trkpt><trkpt lat="44.3241391" lon="9.513478"><ele>824.0</ele><time>2026-03-22T15:00:54.679Z</time></trkpt><trkpt lat="44.3240698" lon="9.5135151"><ele>824.0</ele><time>2026-03-22T15:00:56.679Z</time></trkpt><trkpt lat="44.3240448" lon="9.5136233"><ele>824.0000000000001</ele><time>2026-03-22T15:00:58.679Z</time></trkpt><trkpt lat="44.324032" lon="9.5137157"><ele>824.0</ele><time>2026-03-22T15:00:59.679Z</time></trkpt><trkpt lat="44.3240599" lon="9.513839"><ele>821.6</ele><time>2026-03-22T15:01:00.679Z</time></trkpt><trkpt lat="44.3240688" lon="9.5139791"><ele>819.2</ele><time>2026-03-22T15:01:01.679Z</time></trkpt><trkpt lat="44.3240736" lon="9.5141233"><ele>816.8000000000001</ele><time>2026-03-22T15:01:02.679Z</time></trkpt><trkpt lat="44.3240767" lon="9.5142664"><ele>814.4000000000001</ele><time>2026-03-22T15:01:03.679Z</time></trkpt><trkpt lat="44.3240744" lon="9.5143869"><ele>812.0</ele><time>2026-03-22T15:01:04.679Z</time></trkpt><trkpt lat="44.3240828" lon="9.5144878"><ele>813.8</ele><time>2026-03-22T15:01:05.679Z</time></trkpt><trkpt lat="44.324096" lon="9.5146399"><ele>815.6</ele><time>2026-03-22T15:01:07.679Z</time></trkpt><trkpt lat="44.3241511" lon="9.5147578"><ele>817.4</ele><time>2026-03-22T15:01:09.679Z</time></trkpt><trkpt lat="44.3241968" lon="9.5148282"><ele>819.1999999999999</ele><time>2026-03-22T15:01:10.68Z</time></trkpt><trkpt lat="44.324267" lon="9.5149098"><ele>821.0</ele><time>2026-03-22T15:01:12.679Z</time></trkpt><trkpt lat="44.324368" lon="9.5149393"><ele>821.0</ele><time>2026-03-22T15:01:14.679Z</time></trkpt><trkpt lat="44.324505" lon="9.5149089"><ele>821.0</ele><time>2026-03-22T15:01:16.679Z</time></trkpt><trkpt lat="44.3245921" lon="9.5148721"><ele>821.0</ele><time>2026-03-22T15:01:17.679Z</time></trkpt><trkpt lat="44.3246834" lon="9.5148325"><ele>821.0</ele><time>2026-03-22T15:01:18.679Z</time></trkpt><trkpt lat="44.3247707" lon="9.5147897"><ele>821.0</ele><time>2026-03-22T15:01:19.679Z</time></trkpt><trkpt lat="44.3248689" lon="9.514746"><ele>819.1666666666667</ele><time>2026-03-22T15:01:20.679Z</time></trkpt><trkpt lat="44.3249563" lon="9.5146989"><ele>817.3333333333334</ele><time>2026-03-22T15:01:21.679Z</time></trkpt><trkpt lat="44.3250218" lon="9.5146613"><ele>815.5</ele><time>2026-03-22T15:01:22.679Z</time></trkpt><trkpt lat="44.3250892" lon="9.5146418"><ele>813.6666666666667</ele><time>2026-03-22T15:01:23.679Z</time></trkpt><trkpt lat="44.3251557" lon="9.5146072"><ele>811.8333333333334</ele><time>2026-03-22T15:01:24.679Z</time></trkpt><trkpt lat="44.3252684" lon="9.5145028"><ele>810.0</ele><time>2026-03-22T15:01:26.68Z</time></trkpt><trkpt lat="44.3253414" lon="9.5144254"><ele>807.1666666666666</ele><time>2026-03-22T15:01:27.679Z</time></trkpt><trkpt lat="44.3254004" lon="9.5143652"><ele>804.3333333333333</ele><time>2026-03-22T15:01:28.679Z</time></trkpt><trkpt lat="44.3254533" lon="9.5143168"><ele>801.5</ele><time>2026-03-22T15:01:29.679Z</time></trkpt><trkpt lat="44.3255804" lon="9.5142785"><ele>798.6666666666666</ele><time>2026-03-22T15:01:31.679Z</time></trkpt><trkpt lat="44.325665" lon="9.5143157"><ele>795.8333333333333</ele><time>2026-03-22T15:01:32.679Z</time></trkpt><trkpt lat="44.3257415" lon="9.5143631"><ele>793.0</ele><time>2026-03-22T15:01:33.679Z</time></trkpt><trkpt lat="44.3258065" lon="9.5144293"><ele>791.4999999999999</ele><time>2026-03-22T15:01:34.68Z</time></trkpt><trkpt lat="44.3258639" lon="9.5145147"><ele>790.0</ele><time>2026-03-22T15:01:35.679Z</time></trkpt><trkpt lat="44.3259172" lon="9.5146049"><ele>788.5</ele><time>2026-03-22T15:01:36.679Z</time></trkpt><trkpt lat="44.3259726" lon="9.5147125"><ele>787.0</ele><time>2026-03-22T15:01:37.679Z</time></trkpt><trkpt lat="44.326001" lon="9.5148326"><ele>785.4999999999999</ele><time>2026-03-22T15:01:38.679Z</time></trkpt><trkpt lat="44.3260041" lon="9.5149496"><ele>784.0</ele><time>2026-03-22T15:01:39.679Z</time></trkpt><trkpt lat="44.3260022" lon="9.5150633"><ele>787.6</ele><time>2026-03-22T15:01:40.679Z</time></trkpt><trkpt lat="44.325992" lon="9.515171"><ele>791.2</ele><time>2026-03-22T15:01:42.68Z</time></trkpt><trkpt lat="44.3260276" lon="9.5152789"><ele>794.8000000000001</ele><time>2026-03-22T15:01:44.679Z</time></trkpt><trkpt lat="44.3261548" lon="9.5153014"><ele>798.4000000000001</ele><time>2026-03-22T15:01:46.679Z</time></trkpt><trkpt lat="44.3262457" lon="9.5152936"><ele>802.0</ele><time>2026-03-22T15:01:47.679Z</time></trkpt><trkpt lat="44.3263444" lon="9.5152596"><ele>803.3333333333333</ele><time>2026-03-22T15:01:48.679Z</time></trkpt><trkpt lat="44.3264369" lon="9.5152289"><ele>804.6666666666666</ele><time>2026-03-22T15:01:49.679Z</time></trkpt><trkpt lat="44.3265221" lon="9.5152026"><ele>806.0</ele><time>2026-03-22T15:01:50.679Z</time></trkpt><trkpt lat="44.3266037" lon="9.5152155"><ele>807.3333333333333</ele><time>2026-03-22T15:01:51.679Z</time></trkpt><trkpt lat="44.3266732" lon="9.5152413"><ele>808.6666666666666</ele><time>2026-03-22T15:01:52.679Z</time></trkpt><trkpt lat="44.3267229" lon="9.5153275"><ele>810.0</ele><time>2026-03-22T15:01:53.679Z</time></trkpt><trkpt lat="44.3268095" lon="9.5154103"><ele>810.0</ele><time>2026-03-22T15:01:55.679Z</time></trkpt><trkpt lat="44.326924" lon="9.5153932"><ele>810.0</ele><time>2026-03-22T15:01:57.679Z</time></trkpt><trkpt lat="44.3270036" lon="9.5153628"><ele>810.0</ele><time>2026-03-22T15:01:58.679Z</time></trkpt><trkpt lat="44.3270751" lon="9.5153471"><ele>810.0</ele><time>2026-03-22T15:01:59.679Z</time></trkpt><trkpt lat="44.3271453" lon="9.515364"><ele>810.0</ele><time>2026-03-22T15:02:00.679Z</time></trkpt><trkpt lat="44.327216" lon="9.5153839"><ele>810.0</ele><time>2026-03-22T15:02:01.679Z</time></trkpt><trkpt lat="44.3272809" lon="9.5154219"><ele>810.0</ele><time>2026-03-22T15:02:02.679Z</time></trkpt><trkpt lat="44.3273553" lon="9.5154557"><ele>810.0</ele><time>2026-03-22T15:02:03.679Z</time></trkpt><trkpt lat="44.3274404" lon="9.5154675"><ele>810.0</ele><time>2026-03-22T15:02:04.679Z</time></trkpt><trkpt lat="44.3275283" lon="9.5154731"><ele>810.0</ele><time>2026-03-22T15:02:05.679Z</time></trkpt><trkpt lat="44.3276177" lon="9.5154805"><ele>810.0</ele><time>2026-03-22T15:02:06.679Z</time></trkpt><trkpt lat="44.3277043" lon="9.5154857"><ele>810.0</ele><time>2026-03-22T15:02:07.679Z</time></trkpt><trkpt lat="44.3278017" lon="9.5155058"><ele>810.0</ele><time>2026-03-22T15:02:08.679Z</time></trkpt><trkpt lat="44.3279129" lon="9.5155643"><ele>810.0</ele><time>2026-03-22T15:02:09.679Z</time></trkpt><trkpt lat="44.3280159" lon="9.5156109"><ele>810.0</ele><time>2026-03-22T15:02:10.679Z</time></trkpt><trkpt lat="44.3281095" lon="9.5156241"><ele>810.0</ele><time>2026-03-22T15:02:11.679Z</time></trkpt><trkpt lat="44.3282009" lon="9.5156314"><ele>810.0</ele><time>2026-03-22T15:02:12.679Z</time></trkpt><trkpt lat="44.32829" lon="9.515637"><ele>807.5</ele><time>2026-03-22T15:02:13.679Z</time></trkpt><trkpt lat="44.3283532" lon="9.5156478"><ele>805.0</ele><time>2026-03-22T15:02:14.679Z</time></trkpt><trkpt lat="44.3284416" lon="9.5156546"><ele>802.5</ele><time>2026-03-22T15:02:16.679Z</time></trkpt><trkpt lat="44.3285396" lon="9.5156972"><ele>800.0</ele><time>2026-03-22T15:02:18.679Z</time></trkpt><trkpt lat="44.3285773" lon="9.5158487"><ele>797.5</ele><time>2026-03-22T15:02:20.68Z</time></trkpt><trkpt lat="44.3285631" lon="9.5159366"><ele>795.0</ele><time>2026-03-22T15:02:21.679Z</time></trkpt><trkpt lat="44.32854" lon="9.5160228"><ele>795.0</ele><time>2026-03-22T15:02:22.679Z</time></trkpt><trkpt lat="44.328518" lon="9.5161095"><ele>795.0</ele><time>2026-03-22T15:02:23.679Z</time></trkpt><trkpt lat="44.3284775" lon="9.5162282"><ele>795.0</ele><time>2026-03-22T15:02:24.679Z</time></trkpt><trkpt lat="44.3284438" lon="9.5163441"><ele>795.0</ele><time>2026-03-22T15:02:25.679Z</time></trkpt><trkpt lat="44.3284122" lon="9.5164525"><ele>795.0</ele><time>2026-03-22T15:02:26.679Z</time></trkpt><trkpt lat="44.3284037" lon="9.5165762"><ele>795.0</ele><time>2026-03-22T15:02:27.679Z</time></trkpt><trkpt lat="44.3283763" lon="9.5166991"><ele>795.0</ele><time>2026-03-22T15:02:28.679Z</time></trkpt><trkpt lat="44.3283384" lon="9.5168257"><ele>795.0</ele><time>2026-03-22T15:02:29.679Z</time></trkpt><trkpt lat="44.3283354" lon="9.5169145"><ele>795.0</ele><time>2026-03-22T15:02:30.679Z</time></trkpt><trkpt lat="44.3283079" lon="9.5170181"><ele>795.0</ele><time>2026-03-22T15:02:31.679Z</time></trkpt><trkpt lat="44.3282755" lon="9.5171669"><ele>795.0</ele><time>2026-03-22T15:02:33.68Z</time></trkpt><trkpt lat="44.3281919" lon="9.5172768"><ele>797.8</ele><time>2026-03-22T15:02:35.679Z</time></trkpt><trkpt lat="44.3280702" lon="9.5173753"><ele>800.6</ele><time>2026-03-22T15:02:37.679Z</time></trkpt><trkpt lat="44.3279954" lon="9.5174207"><ele>803.4000000000001</ele><time>2026-03-22T15:02:38.679Z</time></trkpt><trkpt lat="44.3279142" lon="9.5174842"><ele>806.2</ele><time>2026-03-22T15:02:39.679Z</time></trkpt><trkpt lat="44.3278263" lon="9.5175571"><ele>809.0</ele><time>2026-03-22T15:02:40.679Z</time></trkpt><trkpt lat="44.3277276" lon="9.5176316"><ele>809.0000000000001</ele><time>2026-03-22T15:02:41.679Z</time></trkpt><trkpt lat="44.3276319" lon="9.5177062"><ele>809.0</ele><time>2026-03-22T15:02:42.679Z</time></trkpt><trkpt lat="44.3275562" lon="9.5177569"><ele>809.0</ele><time>2026-03-22T15:02:43.679Z</time></trkpt><trkpt lat="44.3274837" lon="9.5178127"><ele>809.0</ele><time>2026-03-22T15:02:44.679Z</time></trkpt><trkpt lat="44.3274099" lon="9.5178729"><ele>809.0000000000001</ele><time>2026-03-22T15:02:45.68Z</time></trkpt><trkpt lat="44.3273391" lon="9.5179208"><ele>809.0</ele><time>2026-03-22T15:02:46.679Z</time></trkpt><trkpt lat="44.32727" lon="9.5179662"><ele>807.0</ele><time>2026-03-22T15:02:47.679Z</time></trkpt><trkpt lat="44.3271887" lon="9.5180378"><ele>805.0</ele><time>2026-03-22T15:02:48.679Z</time></trkpt><trkpt lat="44.3270842" lon="9.5181214"><ele>803.0</ele><time>2026-03-22T15:02:49.679Z</time></trkpt><trkpt lat="44.3269797" lon="9.518166"><ele>801.0</ele><time>2026-03-22T15:02:50.679Z</time></trkpt><trkpt lat="44.3268649" lon="9.518215"><ele>799.0</ele><time>2026-03-22T15:02:51.679Z</time></trkpt><trkpt lat="44.3267501" lon="9.5182759"><ele>799.0</ele><time>2026-03-22T15:02:52.679Z</time></trkpt><trkpt lat="44.326656" lon="9.518335"><ele>799.0</ele><time>2026-03-22T15:02:53.679Z</time></trkpt><trkpt lat="44.3265598" lon="9.5183984"><ele>799.0</ele><time>2026-03-22T15:02:54.679Z</time></trkpt><trkpt lat="44.3264769" lon="9.5184622"><ele>799.0</ele><time>2026-03-22T15:02:55.679Z</time></trkpt><trkpt lat="44.3263985" lon="9.5185039"><ele>799.0</ele><time>2026-03-22T15:02:56.679Z</time></trkpt><trkpt lat="44.3263393" lon="9.5185458"><ele>802.4999999999999</ele><time>2026-03-22T15:02:57.679Z</time></trkpt><trkpt lat="44.32628" lon="9.5185978"><ele>806.0</ele><time>2026-03-22T15:02:58.679Z</time></trkpt><trkpt lat="44.3262133" lon="9.5186576"><ele>809.5</ele><time>2026-03-22T15:02:59.679Z</time></trkpt><trkpt lat="44.3261457" lon="9.5187252"><ele>813.0</ele><time>2026-03-22T15:03:00.679Z</time></trkpt><trkpt lat="44.3260597" lon="9.5188072"><ele>816.4999999999999</ele><time>2026-03-22T15:03:01.679Z</time></trkpt><trkpt lat="44.3259892" lon="9.5188755"><ele>820.0</ele><time>2026-03-22T15:03:02.679Z</time></trkpt><trkpt lat="44.3259261" lon="9.5189369"><ele>813.4</ele><time>2026-03-22T15:03:03.68Z</time></trkpt><trkpt lat="44.3258404" lon="9.5189758"><ele>806.8</ele><time>2026-03-22T15:03:04.679Z</time></trkpt><trkpt lat="44.3257615" lon="9.5190289"><ele>800.2</ele><time>2026-03-22T15:03:05.679Z</time></trkpt><trkpt lat="44.3256707" lon="9.5190698"><ele>793.6</ele><time>2026-03-22T15:03:06.68Z</time></trkpt><trkpt lat="44.325575" lon="9.5190995"><ele>787.0</ele><time>2026-03-22T15:03:07.679Z</time></trkpt><trkpt lat="44.325479" lon="9.5191468"><ele>787.0</ele><time>2026-03-22T15:03:08.679Z</time></trkpt><trkpt lat="44.3253848" lon="9.5191814"><ele>787.0</ele><time>2026-03-22T15:03:09.679Z</time></trkpt><trkpt lat="44.3252872" lon="9.5192167"><ele>787.0</ele><time>2026-03-22T15:03:10.679Z</time></trkpt><trkpt lat="44.3251793" lon="9.5192416"><ele>787.0</ele><time>2026-03-22T15:03:11.679Z</time></trkpt><trkpt lat="44.3250835" lon="9.5192819"><ele>787.0</ele><time>2026-03-22T15:03:12.679Z</time></trkpt><trkpt lat="44.3250065" lon="9.5192442"><ele>787.0</ele><time>2026-03-22T15:03:13.679Z</time></trkpt><trkpt lat="44.3249155" lon="9.5192545"><ele>787.0</ele><time>2026-03-22T15:03:14.679Z</time></trkpt><trkpt lat="44.324815" lon="9.5192819"><ele>787.0</ele><time>2026-03-22T15:03:15.679Z</time></trkpt><trkpt lat="44.3247201" lon="9.5193148"><ele>787.0</ele><time>2026-03-22T15:03:16.679Z</time></trkpt><trkpt lat="44.3246247" lon="9.5193481"><ele>787.0</ele><time>2026-03-22T15:03:17.679Z</time></trkpt><trkpt lat="44.3245591" lon="9.5193902"><ele>790.6</ele><time>2026-03-22T15:03:18.679Z</time></trkpt><trkpt lat="44.3244727" lon="9.5194352"><ele>794.2</ele><time>2026-03-22T15:03:19.679Z</time></trkpt><trkpt lat="44.3243797" lon="9.5194758"><ele>797.8</ele><time>2026-03-22T15:03:20.679Z</time></trkpt><trkpt lat="44.3242971" lon="9.5195037"><ele>801.4</ele><time>2026-03-22T15:03:21.679Z</time></trkpt><trkpt lat="44.3242029" lon="9.5195122"><ele>805.0</ele><time>2026-03-22T15:03:22.679Z</time></trkpt><trkpt lat="44.3241117" lon="9.5195185"><ele>804.9999999999999</ele><time>2026-03-22T15:03:23.679Z</time></trkpt><trkpt lat="44.3240236" lon="9.5195025"><ele>805.0</ele><time>2026-03-22T15:03:24.679Z</time></trkpt><trkpt lat="44.3239474" lon="9.5194868"><ele>805.0</ele><time>2026-03-22T15:03:25.679Z</time></trkpt><trkpt lat="44.3238412" lon="9.5194462"><ele>805.0</ele><time>2026-03-22T15:03:27.679Z</time></trkpt><trkpt lat="44.3237541" lon="9.519422"><ele>804.9999999999999</ele><time>2026-03-22T15:03:29.679Z</time></trkpt><trkpt lat="44.3237095" lon="9.5195088"><ele>805.0</ele><time>2026-03-22T15:03:31.679Z</time></trkpt><trkpt lat="44.3237288" lon="9.5196294"><ele>807.1666666666666</ele><time>2026-03-22T15:03:34.68Z</time></trkpt><trkpt lat="44.3237512" lon="9.5197892"><ele>809.3333333333333</ele><time>2026-03-22T15:03:36.679Z</time></trkpt><trkpt lat="44.3237886" lon="9.5199001"><ele>811.5</ele><time>2026-03-22T15:03:37.679Z</time></trkpt><trkpt lat="44.3238392" lon="9.5199892"><ele>813.6666666666667</ele><time>2026-03-22T15:03:38.679Z</time></trkpt><trkpt lat="44.3238893" lon="9.5200612"><ele>815.8333333333334</ele><time>2026-03-22T15:03:39.679Z</time></trkpt><trkpt lat="44.3239494" lon="9.5201283"><ele>818.0</ele><time>2026-03-22T15:03:40.679Z</time></trkpt><trkpt lat="44.3239878" lon="9.5202094"><ele>813.3333333333334</ele><time>2026-03-22T15:03:41.679Z</time></trkpt><trkpt lat="44.3240158" lon="9.5203123"><ele>808.6666666666667</ele><time>2026-03-22T15:03:42.679Z</time></trkpt><trkpt lat="44.3240091" lon="9.520431"><ele>804.0</ele><time>2026-03-22T15:03:43.679Z</time></trkpt><trkpt lat="44.3239875" lon="9.5205494"><ele>799.3333333333333</ele><time>2026-03-22T15:03:44.68Z</time></trkpt><trkpt lat="44.3239608" lon="9.5206811"><ele>794.6666666666666</ele><time>2026-03-22T15:03:45.68Z</time></trkpt><trkpt lat="44.3239484" lon="9.5208108"><ele>790.0</ele><time>2026-03-22T15:03:46.679Z</time></trkpt><trkpt lat="44.3239483" lon="9.5209316"><ele>789.9999999999999</ele><time>2026-03-22T15:03:47.679Z</time></trkpt><trkpt lat="44.3239536" lon="9.5210436"><ele>790.0</ele><time>2026-03-22T15:03:48.68Z</time></trkpt><trkpt lat="44.3239565" lon="9.521159"><ele>790.0</ele><time>2026-03-22T15:03:49.679Z</time></trkpt><trkpt lat="44.3239605" lon="9.521285"><ele>790.0</ele><time>2026-03-22T15:03:50.679Z</time></trkpt><trkpt lat="44.3239603" lon="9.5213969"><ele>789.9999999999999</ele><time>2026-03-22T15:03:51.679Z</time></trkpt><trkpt lat="44.3239916" lon="9.5215268"><ele>790.0</ele><time>2026-03-22T15:03:52.679Z</time></trkpt><trkpt lat="44.3240759" lon="9.5216324"><ele>791.0</ele><time>2026-03-22T15:03:53.679Z</time></trkpt><trkpt lat="44.3241587" lon="9.5217269"><ele>792.0</ele><time>2026-03-22T15:03:54.68Z</time></trkpt><trkpt lat="44.3242304" lon="9.521815"><ele>793.0</ele><time>2026-03-22T15:03:55.68Z</time></trkpt><trkpt lat="44.324308" lon="9.5218732"><ele>794.0</ele><time>2026-03-22T15:03:56.68Z</time></trkpt><trkpt lat="44.3243782" lon="9.5219371"><ele>795.0</ele><time>2026-03-22T15:03:57.679Z</time></trkpt><trkpt lat="44.3244497" lon="9.5220075"><ele>796.6</ele><time>2026-03-22T15:03:58.68Z</time></trkpt><trkpt lat="44.3244561" lon="9.5221401"><ele>798.2</ele><time>2026-03-22T15:03:59.679Z</time></trkpt><trkpt lat="44.3244655" lon="9.5222858"><ele>799.8</ele><time>2026-03-22T15:04:00.679Z</time></trkpt><trkpt lat="44.3244655" lon="9.5224342"><ele>801.4</ele><time>2026-03-22T15:04:01.679Z</time></trkpt><trkpt lat="44.3244558" lon="9.5225529"><ele>803.0</ele><time>2026-03-22T15:04:02.68Z</time></trkpt><trkpt lat="44.3244302" lon="9.5226537"><ele>803.0000000000001</ele><time>2026-03-22T15:04:03.679Z</time></trkpt><trkpt lat="44.3243832" lon="9.5227547"><ele>803.0</ele><time>2026-03-22T15:04:04.679Z</time></trkpt><trkpt lat="44.3243256" lon="9.5228553"><ele>803.0</ele><time>2026-03-22T15:04:05.679Z</time></trkpt><trkpt lat="44.3242686" lon="9.522951"><ele>803.0</ele><time>2026-03-22T15:04:06.679Z</time></trkpt><trkpt lat="44.3242235" lon="9.5230361"><ele>803.0000000000001</ele><time>2026-03-22T15:04:07.679Z</time></trkpt><trkpt lat="44.3241881" lon="9.5231136"><ele>803.0</ele><time>2026-03-22T15:04:08.679Z</time></trkpt><trkpt lat="44.3241615" lon="9.5232049"><ele>802.6666666666667</ele><time>2026-03-22T15:04:09.679Z</time></trkpt><trkpt lat="44.3241599" lon="9.5233025"><ele>802.3333333333334</ele><time>2026-03-22T15:04:10.679Z</time></trkpt><trkpt lat="44.3241692" lon="9.5234086"><ele>802.0</ele><time>2026-03-22T15:04:11.679Z</time></trkpt><trkpt lat="44.324189" lon="9.523509"><ele>801.6666666666667</ele><time>2026-03-22T15:04:12.679Z</time></trkpt><trkpt lat="44.3242161" lon="9.523643"><ele>801.3333333333334</ele><time>2026-03-22T15:04:13.679Z</time></trkpt><trkpt lat="44.324245" lon="9.5237568"><ele>801.0</ele><time>2026-03-22T15:04:14.679Z</time></trkpt><trkpt lat="44.3242709" lon="9.523869"><ele>799.3333333333334</ele><time>2026-03-22T15:04:15.679Z</time></trkpt><trkpt lat="44.3243022" lon="9.5239784"><ele>797.6666666666667</ele><time>2026-03-22T15:04:16.679Z</time></trkpt><trkpt lat="44.3243425" lon="9.5240516"><ele>796.0</ele><time>2026-03-22T15:04:17.679Z</time></trkpt><trkpt lat="44.3244149" lon="9.5241022"><ele>794.3333333333334</ele><time>2026-03-22T15:04:18.679Z</time></trkpt><trkpt lat="44.3244622" lon="9.5241747"><ele>792.6666666666667</ele><time>2026-03-22T15:04:19.679Z</time></trkpt><trkpt lat="44.3244922" lon="9.5243307"><ele>791.0</ele><time>2026-03-22T15:04:21.679Z</time></trkpt><trkpt lat="44.3244627" lon="9.5244587"><ele>791.0000000000001</ele><time>2026-03-22T15:04:23.679Z</time></trkpt><trkpt lat="44.3243676" lon="9.524541"><ele>791.0</ele><time>2026-03-22T15:04:25.679Z</time></trkpt><trkpt lat="44.3242948" lon="9.5245832"><ele>791.0</ele><time>2026-03-22T15:04:26.679Z</time></trkpt><trkpt lat="44.3242191" lon="9.5246233"><ele>791.0</ele><time>2026-03-22T15:04:27.679Z</time></trkpt><trkpt lat="44.3241485" lon="9.5246452"><ele>791.0000000000001</ele><time>2026-03-22T15:04:28.679Z</time></trkpt><trkpt lat="44.3240775" lon="9.5246424"><ele>791.0</ele><time>2026-03-22T15:04:29.679Z</time></trkpt><trkpt lat="44.3240043" lon="9.5246263"><ele>790.5714285714286</ele><time>2026-03-22T15:04:30.679Z</time></trkpt><trkpt lat="44.3239323" lon="9.5245969"><ele>790.1428571428571</ele><time>2026-03-22T15:04:31.679Z</time></trkpt><trkpt lat="44.3238653" lon="9.5245717"><ele>789.7142857142858</ele><time>2026-03-22T15:04:32.679Z</time></trkpt><trkpt lat="44.3238019" lon="9.5245651"><ele>789.2857142857142</ele><time>2026-03-22T15:04:33.679Z</time></trkpt><trkpt lat="44.3237378" lon="9.5245915"><ele>788.8571428571429</ele><time>2026-03-22T15:04:34.679Z</time></trkpt><trkpt lat="44.3236891" lon="9.5246514"><ele>788.4285714285714</ele><time>2026-03-22T15:04:35.679Z</time></trkpt><trkpt lat="44.3236382" lon="9.5247321"><ele>788.0</ele><time>2026-03-22T15:04:36.679Z</time></trkpt><trkpt lat="44.3235826" lon="9.5247962"><ele>788.0000000000001</ele><time>2026-03-22T15:04:37.679Z</time></trkpt><trkpt lat="44.3235231" lon="9.5248522"><ele>788.0</ele><time>2026-03-22T15:04:38.679Z</time></trkpt><trkpt lat="44.3234586" lon="9.5249063"><ele>788.0</ele><time>2026-03-22T15:04:39.679Z</time></trkpt><trkpt lat="44.3233618" lon="9.5248918"><ele>788.0</ele><time>2026-03-22T15:04:40.679Z</time></trkpt><trkpt lat="44.3232776" lon="9.5249105"><ele>788.0000000000001</ele><time>2026-03-22T15:04:41.679Z</time></trkpt><trkpt lat="44.3232021" lon="9.5249233"><ele>788.0</ele><time>2026-03-22T15:04:42.679Z</time></trkpt><trkpt lat="44.3231252" lon="9.5249443"><ele>788.0</ele><time>2026-03-22T15:04:43.679Z</time></trkpt><trkpt lat="44.3230876" lon="9.5251195"><ele>788.0</ele><time>2026-03-22T15:04:45.679Z</time></trkpt><trkpt lat="44.3230869" lon="9.5252289"><ele>788.0</ele><time>2026-03-22T15:04:46.679Z</time></trkpt><trkpt lat="44.3230843" lon="9.5253408"><ele>788.0</ele><time>2026-03-22T15:04:47.679Z</time></trkpt><trkpt lat="44.3230989" lon="9.5254849"><ele>788.0</ele><time>2026-03-22T15:04:48.679Z</time></trkpt><trkpt lat="44.3231057" lon="9.5256119"><ele>789.0</ele><time>2026-03-22T15:04:49.679Z</time></trkpt><trkpt lat="44.3231202" lon="9.5257366"><ele>790.0</ele><time>2026-03-22T15:04:50.679Z</time></trkpt><trkpt lat="44.3231194" lon="9.5258276"><ele>791.0</ele><time>2026-03-22T15:04:51.679Z</time></trkpt><trkpt lat="44.3231121" lon="9.5259324"><ele>792.0</ele><time>2026-03-22T15:04:52.679Z</time></trkpt><trkpt lat="44.3230684" lon="9.5260393"><ele>793.0</ele><time>2026-03-22T15:04:53.679Z</time></trkpt><trkpt lat="44.3230348" lon="9.5261174"><ele>794.0</ele><time>2026-03-22T15:04:54.679Z</time></trkpt><trkpt lat="44.322991" lon="9.5261837"><ele>795.0</ele><time>2026-03-22T15:04:55.68Z</time></trkpt><trkpt lat="44.3229334" lon="9.5262431"><ele>795.0</ele><time>2026-03-22T15:04:56.679Z</time></trkpt><trkpt lat="44.3228634" lon="9.526291"><ele>795.0</ele><time>2026-03-22T15:04:57.679Z</time></trkpt><trkpt lat="44.3227757" lon="9.526222"><ele>795.0</ele><time>2026-03-22T15:04:58.679Z</time></trkpt><trkpt lat="44.3227117" lon="9.5261804"><ele>795.0</ele><time>2026-03-22T15:04:59.68Z</time></trkpt><trkpt lat="44.3226176" lon="9.5261129"><ele>795.0</ele><time>2026-03-22T15:05:01.679Z</time></trkpt><trkpt lat="44.3225375" lon="9.5261434"><ele>795.0</ele><time>2026-03-22T15:05:03.679Z</time></trkpt><trkpt lat="44.3225257" lon="9.5262871"><ele>792.5</ele><time>2026-03-22T15:05:05.679Z</time></trkpt><trkpt lat="44.3225285" lon="9.5264117"><ele>790.0</ele><time>2026-03-22T15:05:06.679Z</time></trkpt><trkpt lat="44.3225302" lon="9.5265368"><ele>787.5</ele><time>2026-03-22T15:05:07.679Z</time></trkpt><trkpt lat="44.3225474" lon="9.5266536"><ele>785.0</ele><time>2026-03-22T15:05:08.679Z</time></trkpt><trkpt lat="44.3225574" lon="9.5267532"><ele>782.5</ele><time>2026-03-22T15:05:09.679Z</time></trkpt><trkpt lat="44.3225658" lon="9.526854"><ele>780.0</ele><time>2026-03-22T15:05:10.679Z</time></trkpt><trkpt lat="44.3225758" lon="9.5269499"><ele>780.0</ele><time>2026-03-22T15:05:11.679Z</time></trkpt><trkpt lat="44.3225423" lon="9.5270539"><ele>780.0</ele><time>2026-03-22T15:05:12.679Z</time></trkpt><trkpt lat="44.3225083" lon="9.527154"><ele>780.0</ele><time>2026-03-22T15:05:13.679Z</time></trkpt><trkpt lat="44.3224756" lon="9.527254"><ele>780.0</ele><time>2026-03-22T15:05:14.679Z</time></trkpt><trkpt lat="44.3224433" lon="9.5273578"><ele>780.0</ele><time>2026-03-22T15:05:15.679Z</time></trkpt><trkpt lat="44.3224647" lon="9.5274803"><ele>780.0</ele><time>2026-03-22T15:05:17.679Z</time></trkpt><trkpt lat="44.3224647" lon="9.5275726"><ele>777.0</ele><time>2026-03-22T15:05:18.679Z</time></trkpt><trkpt lat="44.3224742" lon="9.5276616"><ele>774.0</ele><time>2026-03-22T15:05:19.679Z</time></trkpt><trkpt lat="44.3224712" lon="9.5277531"><ele>771.0</ele><time>2026-03-22T15:05:20.679Z</time></trkpt><trkpt lat="44.3225042" lon="9.5279015"><ele>768.0</ele><time>2026-03-22T15:05:22.679Z</time></trkpt><trkpt lat="44.3224758" lon="9.5280639"><ele>765.0</ele><time>2026-03-22T15:05:24.679Z</time></trkpt><trkpt lat="44.322436" lon="9.5281352"><ele>762.0</ele><time>2026-03-22T15:05:25.679Z</time></trkpt><trkpt lat="44.3223892" lon="9.5281957"><ele>762.0</ele><time>2026-03-22T15:05:26.679Z</time></trkpt><trkpt lat="44.3223371" lon="9.5282562"><ele>762.0</ele><time>2026-03-22T15:05:27.679Z</time></trkpt><trkpt lat="44.3222277" lon="9.5282891"><ele>762.0</ele><time>2026-03-22T15:05:29.679Z</time></trkpt><trkpt lat="44.3221499" lon="9.5283861"><ele>762.0</ele><time>2026-03-22T15:05:31.679Z</time></trkpt><trkpt lat="44.3221186" lon="9.5285298"><ele>762.0</ele><time>2026-03-22T15:05:33.679Z</time></trkpt><trkpt lat="44.322115" lon="9.5286275"><ele>759.1666666666666</ele><time>2026-03-22T15:05:34.679Z</time></trkpt><trkpt lat="44.3221203" lon="9.5287381"><ele>756.3333333333334</ele><time>2026-03-22T15:05:35.679Z</time></trkpt><trkpt lat="44.3221624" lon="9.5288474"><ele>753.5</ele><time>2026-03-22T15:05:36.679Z</time></trkpt><trkpt lat="44.3221991" lon="9.5289465"><ele>750.6666666666667</ele><time>2026-03-22T15:05:37.679Z</time></trkpt><trkpt lat="44.3222379" lon="9.5290449"><ele>747.8333333333334</ele><time>2026-03-22T15:05:38.679Z</time></trkpt><trkpt lat="44.3222707" lon="9.5291534"><ele>745.0</ele><time>2026-03-22T15:05:39.679Z</time></trkpt><trkpt lat="44.3223034" lon="9.5292525"><ele>745.1666666666667</ele><time>2026-03-22T15:05:40.679Z</time></trkpt><trkpt lat="44.3223646" lon="9.5293197"><ele>745.3333333333334</ele><time>2026-03-22T15:05:41.679Z</time></trkpt><trkpt lat="44.322426" lon="9.5294461"><ele>745.5</ele><time>2026-03-22T15:05:43.679Z</time></trkpt><trkpt lat="44.3224208" lon="9.5295417"><ele>745.6666666666666</ele><time>2026-03-22T15:05:44.679Z</time></trkpt><trkpt lat="44.3224067" lon="9.529651"><ele>745.8333333333333</ele><time>2026-03-22T15:05:45.679Z</time></trkpt><trkpt lat="44.3223856" lon="9.529765"><ele>746.0</ele><time>2026-03-22T15:05:46.679Z</time></trkpt><trkpt lat="44.3223873" lon="9.529894"><ele>746.0</ele><time>2026-03-22T15:05:47.679Z</time></trkpt><trkpt lat="44.3224013" lon="9.5300156"><ele>746.0</ele><time>2026-03-22T15:05:48.679Z</time></trkpt><trkpt lat="44.3224322" lon="9.5301459"><ele>746.0</ele><time>2026-03-22T15:05:49.679Z</time></trkpt><trkpt lat="44.3224686" lon="9.5302614"><ele>746.0</ele><time>2026-03-22T15:05:50.679Z</time></trkpt><trkpt lat="44.3225008" lon="9.5303805"><ele>746.0</ele><time>2026-03-22T15:05:51.679Z</time></trkpt><trkpt lat="44.3225291" lon="9.5304946"><ele>745.6666666666666</ele><time>2026-03-22T15:05:52.679Z</time></trkpt><trkpt lat="44.3225546" lon="9.5305946"><ele>745.3333333333333</ele><time>2026-03-22T15:05:53.679Z</time></trkpt><trkpt lat="44.3225577" lon="9.5307018"><ele>745.0</ele><time>2026-03-22T15:05:54.68Z</time></trkpt><trkpt lat="44.3225366" lon="9.5308"><ele>744.6666666666666</ele><time>2026-03-22T15:05:55.68Z</time></trkpt><trkpt lat="44.3225135" lon="9.5308981"><ele>744.3333333333334</ele><time>2026-03-22T15:05:56.679Z</time></trkpt><trkpt lat="44.3225155" lon="9.5310009"><ele>744.0</ele><time>2026-03-22T15:05:57.679Z</time></trkpt><trkpt lat="44.3226129" lon="9.5311137"><ele>744.0</ele><time>2026-03-22T15:05:59.679Z</time></trkpt><trkpt lat="44.3226684" lon="9.5311612"><ele>744.0</ele><time>2026-03-22T15:06:00.679Z</time></trkpt><trkpt lat="44.322722" lon="9.5312326"><ele>744.0</ele><time>2026-03-22T15:06:01.679Z</time></trkpt><trkpt lat="44.3227595" lon="9.5313182"><ele>744.0</ele><time>2026-03-22T15:06:02.679Z</time></trkpt><trkpt lat="44.3227828" lon="9.5314201"><ele>744.0</ele><time>2026-03-22T15:06:03.679Z</time></trkpt><trkpt lat="44.3227956" lon="9.5315438"><ele>744.0</ele><time>2026-03-22T15:06:04.679Z</time></trkpt><trkpt lat="44.3228109" lon="9.5316648"><ele>742.5</ele><time>2026-03-22T15:06:05.679Z</time></trkpt><trkpt lat="44.3228093" lon="9.5317816"><ele>741.0</ele><time>2026-03-22T15:06:06.679Z</time></trkpt><trkpt lat="44.3228161" lon="9.5319031"><ele>739.5</ele><time>2026-03-22T15:06:07.68Z</time></trkpt><trkpt lat="44.3228368" lon="9.5320227"><ele>738.0</ele><time>2026-03-22T15:06:08.679Z</time></trkpt><trkpt lat="44.3228664" lon="9.532128"><ele>736.5</ele><time>2026-03-22T15:06:09.679Z</time></trkpt><trkpt lat="44.3229002" lon="9.5322226"><ele>735.0</ele><time>2026-03-22T15:06:10.679Z</time></trkpt><trkpt lat="44.3229575" lon="9.5323097"><ele>732.5</ele><time>2026-03-22T15:06:11.679Z</time></trkpt><trkpt lat="44.323021" lon="9.5323834"><ele>730.0</ele><time>2026-03-22T15:06:12.679Z</time></trkpt><trkpt lat="44.3230731" lon="9.5324647"><ele>727.5</ele><time>2026-03-22T15:06:13.68Z</time></trkpt><trkpt lat="44.3231224" lon="9.5325462"><ele>725.0</ele><time>2026-03-22T15:06:14.679Z</time></trkpt><trkpt lat="44.3231724" lon="9.5326358"><ele>722.5</ele><time>2026-03-22T15:06:15.679Z</time></trkpt><trkpt lat="44.3232354" lon="9.5327238"><ele>720.0</ele><time>2026-03-22T15:06:16.679Z</time></trkpt><trkpt lat="44.3233007" lon="9.5327976"><ele>719.8</ele><time>2026-03-22T15:06:17.679Z</time></trkpt><trkpt lat="44.3233914" lon="9.5328403"><ele>719.6</ele><time>2026-03-22T15:06:18.679Z</time></trkpt><trkpt lat="44.3234886" lon="9.532846"><ele>719.4000000000001</ele><time>2026-03-22T15:06:19.679Z</time></trkpt><trkpt lat="44.3235871" lon="9.5328477"><ele>719.2</ele><time>2026-03-22T15:06:20.679Z</time></trkpt><trkpt lat="44.323684" lon="9.5328657"><ele>719.0</ele><time>2026-03-22T15:06:21.679Z</time></trkpt><trkpt lat="44.3237772" lon="9.5329054"><ele>716.6</ele><time>2026-03-22T15:06:22.679Z</time></trkpt><trkpt lat="44.3238705" lon="9.5329609"><ele>714.2</ele><time>2026-03-22T15:06:23.679Z</time></trkpt><trkpt lat="44.3239549" lon="9.5330315"><ele>711.8000000000001</ele><time>2026-03-22T15:06:24.679Z</time></trkpt><trkpt lat="44.3240333" lon="9.5331132"><ele>709.4000000000001</ele><time>2026-03-22T15:06:25.679Z</time></trkpt><trkpt lat="44.3240854" lon="9.5332114"><ele>707.0</ele><time>2026-03-22T15:06:26.679Z</time></trkpt><trkpt lat="44.3241356" lon="9.5333175"><ele>706.8</ele><time>2026-03-22T15:06:27.679Z</time></trkpt><trkpt lat="44.3241887" lon="9.5334277"><ele>706.6</ele><time>2026-03-22T15:06:28.679Z</time></trkpt><trkpt lat="44.3242532" lon="9.5335369"><ele>706.4</ele><time>2026-03-22T15:06:29.679Z</time></trkpt><trkpt lat="44.3243247" lon="9.5336373"><ele>706.1999999999999</ele><time>2026-03-22T15:06:30.679Z</time></trkpt><trkpt lat="44.3244001" lon="9.5337286"><ele>706.0</ele><time>2026-03-22T15:06:31.679Z</time></trkpt><trkpt lat="44.3244708" lon="9.5338083"><ele>704.5</ele><time>2026-03-22T15:06:32.679Z</time></trkpt><trkpt lat="44.3245309" lon="9.5338738"><ele>703.0</ele><time>2026-03-22T15:06:33.679Z</time></trkpt><trkpt lat="44.3245923" lon="9.5339305"><ele>701.5</ele><time>2026-03-22T15:06:34.679Z</time></trkpt><trkpt lat="44.3246929" lon="9.5340075"><ele>700.0</ele><time>2026-03-22T15:06:36.679Z</time></trkpt><trkpt lat="44.3247404" lon="9.5341016"><ele>698.5</ele><time>2026-03-22T15:06:38.679Z</time></trkpt><trkpt lat="44.3246958" lon="9.5342268"><ele>697.0</ele><time>2026-03-22T15:06:40.68Z</time></trkpt><trkpt lat="44.3246222" lon="9.5343447"><ele>697.0</ele><time>2026-03-22T15:06:42.679Z</time></trkpt><trkpt lat="44.3245541" lon="9.534453"><ele>697.0</ele><time>2026-03-22T15:06:44.679Z</time></trkpt><trkpt lat="44.3244718" lon="9.5345689"><ele>697.0</ele><time>2026-03-22T15:06:46.679Z</time></trkpt><trkpt lat="44.3243449" lon="9.5345746"><ele>697.0</ele><time>2026-03-22T15:06:48.679Z</time></trkpt><trkpt lat="44.324255" lon="9.5344987"><ele>697.0</ele><time>2026-03-22T15:06:49.679Z</time></trkpt><trkpt lat="44.3241663" lon="9.5344192"><ele>697.0</ele><time>2026-03-22T15:06:50.679Z</time></trkpt><trkpt lat="44.3240827" lon="9.5343198"><ele>697.0</ele><time>2026-03-22T15:06:51.679Z</time></trkpt><trkpt lat="44.3239961" lon="9.5342388"><ele>697.0</ele><time>2026-03-22T15:06:52.68Z</time></trkpt><trkpt lat="44.3239109" lon="9.5341562"><ele>697.0</ele><time>2026-03-22T15:06:53.679Z</time></trkpt><trkpt lat="44.3238191" lon="9.5341186"><ele>695.4000000000001</ele><time>2026-03-22T15:06:54.679Z</time></trkpt><trkpt lat="44.3237169" lon="9.5340892"><ele>693.8000000000001</ele><time>2026-03-22T15:06:55.679Z</time></trkpt><trkpt lat="44.3236163" lon="9.5340634"><ele>692.2</ele><time>2026-03-22T15:06:56.68Z</time></trkpt><trkpt lat="44.3235181" lon="9.5340435"><ele>690.6</ele><time>2026-03-22T15:06:57.679Z</time></trkpt><trkpt lat="44.3234352" lon="9.5340559"><ele>689.0</ele><time>2026-03-22T15:06:58.679Z</time></trkpt><trkpt lat="44.3233541" lon="9.5340711"><ele>689.0</ele><time>2026-03-22T15:06:59.68Z</time></trkpt><trkpt lat="44.3232288" lon="9.5341319"><ele>689.0</ele><time>2026-03-22T15:07:01.679Z</time></trkpt><trkpt lat="44.3231692" lon="9.5342249"><ele>689.0</ele><time>2026-03-22T15:07:02.68Z</time></trkpt><trkpt lat="44.3231029" lon="9.534334"><ele>689.0</ele><time>2026-03-22T15:07:03.679Z</time></trkpt><trkpt lat="44.3231223" lon="9.5344769"><ele>689.0</ele><time>2026-03-22T15:07:04.679Z</time></trkpt><trkpt lat="44.3230807" lon="9.5345895"><ele>686.3333333333333</ele><time>2026-03-22T15:07:05.679Z</time></trkpt><trkpt lat="44.323044" lon="9.5346894"><ele>683.6666666666666</ele><time>2026-03-22T15:07:06.679Z</time></trkpt><trkpt lat="44.3230217" lon="9.5348115"><ele>681.0</ele><time>2026-03-22T15:07:08.679Z</time></trkpt><trkpt lat="44.3230826" lon="9.5348624"><ele>678.3333333333334</ele><time>2026-03-22T15:07:10.679Z</time></trkpt><trkpt lat="44.3231605" lon="9.5348086"><ele>675.6666666666667</ele><time>2026-03-22T15:07:12.679Z</time></trkpt><trkpt lat="44.3232353" lon="9.534806"><ele>673.0</ele><time>2026-03-22T15:07:14.68Z</time></trkpt><trkpt lat="44.3232797" lon="9.5348695"><ele>673.0</ele><time>2026-03-22T15:07:15.68Z</time></trkpt><trkpt lat="44.3232506" lon="9.5350046"><ele>673.0</ele><time>2026-03-22T15:07:16.679Z</time></trkpt><trkpt lat="44.3231451" lon="9.5351328"><ele>673.0</ele><time>2026-03-22T15:07:17.68Z</time></trkpt><trkpt lat="44.3230922" lon="9.5352424"><ele>673.0</ele><time>2026-03-22T15:07:18.68Z</time></trkpt><trkpt lat="44.3230485" lon="9.5353357"><ele>673.0</ele><time>2026-03-22T15:07:19.679Z</time></trkpt><trkpt lat="44.322996" lon="9.5354441"><ele>669.4</ele><time>2026-03-22T15:07:20.68Z</time></trkpt><trkpt lat="44.3229935" lon="9.5355401"><ele>665.8</ele><time>2026-03-22T15:07:21.679Z</time></trkpt><trkpt lat="44.3229546" lon="9.5356416"><ele>662.2</ele><time>2026-03-22T15:07:22.68Z</time></trkpt><trkpt lat="44.3228996" lon="9.5357001"><ele>658.6</ele><time>2026-03-22T15:07:23.679Z</time></trkpt><trkpt lat="44.3227509" lon="9.5356874"><ele>655.0</ele><time>2026-03-22T15:07:25.679Z</time></trkpt><trkpt lat="44.3226963" lon="9.5355789"><ele>655.0</ele><time>2026-03-22T15:07:26.681Z</time></trkpt><trkpt lat="44.3226034" lon="9.5355757"><ele>655.0</ele><time>2026-03-22T15:07:27.679Z</time></trkpt><trkpt lat="44.322505" lon="9.5355844"><ele>655.0</ele><time>2026-03-22T15:07:28.679Z</time></trkpt><trkpt lat="44.3224321" lon="9.5355678"><ele>655.0</ele><time>2026-03-22T15:07:29.68Z</time></trkpt><trkpt lat="44.3223611" lon="9.5355382"><ele>655.0</ele><time>2026-03-22T15:07:30.679Z</time></trkpt><trkpt lat="44.3222662" lon="9.5354527"><ele>656.0</ele><time>2026-03-22T15:07:32.679Z</time></trkpt><trkpt lat="44.3221669" lon="9.5354207"><ele>657.0</ele><time>2026-03-22T15:07:34.679Z</time></trkpt><trkpt lat="44.3221215" lon="9.5354963"><ele>658.0</ele><time>2026-03-22T15:07:35.679Z</time></trkpt><trkpt lat="44.3220599" lon="9.5356496"><ele>659.0</ele><time>2026-03-22T15:07:36.679Z</time></trkpt><trkpt lat="44.3220487" lon="9.5357718"><ele>660.0</ele><time>2026-03-22T15:07:37.679Z</time></trkpt><trkpt lat="44.3219952" lon="9.5359146"><ele>660.0</ele><time>2026-03-22T15:07:38.679Z</time></trkpt><trkpt lat="44.3219637" lon="9.5360284"><ele>660.0</ele><time>2026-03-22T15:07:39.679Z</time></trkpt><trkpt lat="44.3219149" lon="9.5361271"><ele>660.0</ele><time>2026-03-22T15:07:40.68Z</time></trkpt><trkpt lat="44.3218508" lon="9.5362206"><ele>660.0</ele><time>2026-03-22T15:07:41.679Z</time></trkpt><trkpt lat="44.3217873" lon="9.536306"><ele>660.0</ele><time>2026-03-22T15:07:42.679Z</time></trkpt><trkpt lat="44.3217254" lon="9.5364116"><ele>656.0</ele><time>2026-03-22T15:07:43.679Z</time></trkpt><trkpt lat="44.3216671" lon="9.5365118"><ele>652.0</ele><time>2026-03-22T15:07:44.679Z</time></trkpt><trkpt lat="44.3215984" lon="9.5365674"><ele>648.0</ele><time>2026-03-22T15:07:45.679Z</time></trkpt><trkpt lat="44.3215415" lon="9.5366104"><ele>644.0</ele><time>2026-03-22T15:07:46.68Z</time></trkpt><trkpt lat="44.3214892" lon="9.5366594"><ele>640.0</ele><time>2026-03-22T15:07:47.679Z</time></trkpt><trkpt lat="44.3214784" lon="9.5368297"><ele>636.0</ele><time>2026-03-22T15:07:49.679Z</time></trkpt><trkpt lat="44.3215564" lon="9.5369207"><ele>636.0</ele><time>2026-03-22T15:07:51.679Z</time></trkpt><trkpt lat="44.3216624" lon="9.5369387"><ele>636.0</ele><time>2026-03-22T15:07:53.679Z</time></trkpt><trkpt lat="44.3217278" lon="9.5368975"><ele>636.0</ele><time>2026-03-22T15:07:54.679Z</time></trkpt><trkpt lat="44.3217773" lon="9.5367101"><ele>636.0</ele><time>2026-03-22T15:07:55.679Z</time></trkpt><trkpt lat="44.3218235" lon="9.5366344"><ele>636.0</ele><time>2026-03-22T15:07:56.68Z</time></trkpt><trkpt lat="44.3218694" lon="9.5365667"><ele>636.0</ele><time>2026-03-22T15:07:57.679Z</time></trkpt><trkpt lat="44.3219487" lon="9.5364941"><ele>636.0</ele><time>2026-03-22T15:07:59.679Z</time></trkpt><trkpt lat="44.3220291" lon="9.5364519"><ele>636.0</ele><time>2026-03-22T15:08:01.679Z</time></trkpt><trkpt lat="44.322056" lon="9.5365409"><ele>636.0</ele><time>2026-03-22T15:08:03.679Z</time></trkpt><trkpt lat="44.3220122" lon="9.5367041"><ele>636.0</ele><time>2026-03-22T15:08:05.679Z</time></trkpt><trkpt lat="44.3219292" lon="9.5368759"><ele>636.0</ele><time>2026-03-22T15:08:06.679Z</time></trkpt><trkpt lat="44.3218721" lon="9.5370002"><ele>636.0</ele><time>2026-03-22T15:08:07.679Z</time></trkpt><trkpt lat="44.3218368" lon="9.5371358"><ele>636.0</ele><time>2026-03-22T15:08:08.68Z</time></trkpt><trkpt lat="44.3217944" lon="9.5372669"><ele>636.0</ele><time>2026-03-22T15:08:09.68Z</time></trkpt><trkpt lat="44.3217614" lon="9.5373888"><ele>636.0</ele><time>2026-03-22T15:08:10.68Z</time></trkpt><trkpt lat="44.3217139" lon="9.5375129"><ele>632.2</ele><time>2026-03-22T15:08:11.679Z</time></trkpt><trkpt lat="44.3216642" lon="9.5376386"><ele>628.4000000000001</ele><time>2026-03-22T15:08:12.679Z</time></trkpt><trkpt lat="44.3216058" lon="9.5377577"><ele>624.6</ele><time>2026-03-22T15:08:13.679Z</time></trkpt><trkpt lat="44.3215418" lon="9.5378689"><ele>620.8000000000001</ele><time>2026-03-22T15:08:14.679Z</time></trkpt><trkpt lat="44.3214604" lon="9.5379752"><ele>617.0</ele><time>2026-03-22T15:08:15.679Z</time></trkpt><trkpt lat="44.3213871" lon="9.5380781"><ele>613.6666666666666</ele><time>2026-03-22T15:08:16.68Z</time></trkpt><trkpt lat="44.3213183" lon="9.5381792"><ele>610.3333333333333</ele><time>2026-03-22T15:08:17.679Z</time></trkpt><trkpt lat="44.3212489" lon="9.5382704"><ele>607.0</ele><time>2026-03-22T15:08:18.679Z</time></trkpt><trkpt lat="44.3211802" lon="9.5383494"><ele>603.6666666666666</ele><time>2026-03-22T15:08:19.68Z</time></trkpt><trkpt lat="44.3211402" lon="9.5384448"><ele>600.3333333333334</ele><time>2026-03-22T15:08:20.679Z</time></trkpt><trkpt lat="44.3211065" lon="9.5385453"><ele>597.0</ele><time>2026-03-22T15:08:21.68Z</time></trkpt><trkpt lat="44.3211172" lon="9.5386581"><ele>597.2</ele><time>2026-03-22T15:08:22.679Z</time></trkpt><trkpt lat="44.3211229" lon="9.5387596"><ele>597.4000000000001</ele><time>2026-03-22T15:08:23.679Z</time></trkpt><trkpt lat="44.3212074" lon="9.5388562"><ele>597.5999999999999</ele><time>2026-03-22T15:08:24.68Z</time></trkpt><trkpt lat="44.3212543" lon="9.5389523"><ele>597.8</ele><time>2026-03-22T15:08:25.679Z</time></trkpt><trkpt lat="44.3212959" lon="9.5390618"><ele>598.0</ele><time>2026-03-22T15:08:26.679Z</time></trkpt><trkpt lat="44.3213052" lon="9.539195"><ele>598.0</ele><time>2026-03-22T15:08:27.679Z</time></trkpt><trkpt lat="44.3213009" lon="9.5393227"><ele>598.0</ele><time>2026-03-22T15:08:28.679Z</time></trkpt><trkpt lat="44.321276" lon="9.5394527"><ele>598.0</ele><time>2026-03-22T15:08:29.679Z</time></trkpt><trkpt lat="44.32126" lon="9.5395782"><ele>598.0</ele><time>2026-03-22T15:08:30.679Z</time></trkpt><trkpt lat="44.3212431" lon="9.5397127"><ele>598.0</ele><time>2026-03-22T15:08:31.679Z</time></trkpt><trkpt lat="44.3212618" lon="9.5398491"><ele>597.0</ele><time>2026-03-22T15:08:32.679Z</time></trkpt><trkpt lat="44.3212833" lon="9.5399896"><ele>596.0</ele><time>2026-03-22T15:08:33.679Z</time></trkpt><trkpt lat="44.3213106" lon="9.5401261"><ele>595.0</ele><time>2026-03-22T15:08:34.679Z</time></trkpt><trkpt lat="44.3213842" lon="9.54026"><ele>594.0</ele><time>2026-03-22T15:08:35.679Z</time></trkpt><trkpt lat="44.3214343" lon="9.5403948"><ele>593.0</ele><time>2026-03-22T15:08:36.679Z</time></trkpt><trkpt lat="44.3214895" lon="9.5404953"><ele>589.8</ele><time>2026-03-22T15:08:37.679Z</time></trkpt><trkpt lat="44.321542" lon="9.5405656"><ele>586.5999999999999</ele><time>2026-03-22T15:08:38.679Z</time></trkpt><trkpt lat="44.3215733" lon="9.5406863"><ele>583.4000000000001</ele><time>2026-03-22T15:08:39.679Z</time></trkpt><trkpt lat="44.3216009" lon="9.5408114"><ele>580.2</ele><time>2026-03-22T15:08:40.679Z</time></trkpt><trkpt lat="44.3215136" lon="9.5409762"><ele>577.0</ele><time>2026-03-22T15:08:41.679Z</time></trkpt><trkpt lat="44.3215039" lon="9.5411045"><ele>574.1666666666667</ele><time>2026-03-22T15:08:42.679Z</time></trkpt><trkpt lat="44.3214685" lon="9.5412191"><ele>571.3333333333334</ele><time>2026-03-22T15:08:43.679Z</time></trkpt><trkpt lat="44.3214357" lon="9.5413174"><ele>568.5</ele><time>2026-03-22T15:08:44.679Z</time></trkpt><trkpt lat="44.3213821" lon="9.5413949"><ele>565.6666666666666</ele><time>2026-03-22T15:08:45.679Z</time></trkpt><trkpt lat="44.3213349" lon="9.5414624"><ele>562.8333333333333</ele><time>2026-03-22T15:08:46.679Z</time></trkpt><trkpt lat="44.3212688" lon="9.5415114"><ele>560.0</ele><time>2026-03-22T15:08:47.679Z</time></trkpt><trkpt lat="44.3211698" lon="9.5415264"><ele>560.0</ele><time>2026-03-22T15:08:48.68Z</time></trkpt><trkpt lat="44.3210875" lon="9.5413431"><ele>560.0</ele><time>2026-03-22T15:08:49.679Z</time></trkpt><trkpt lat="44.3209998" lon="9.5412625"><ele>560.0</ele><time>2026-03-22T15:08:50.679Z</time></trkpt><trkpt lat="44.320913" lon="9.5411864"><ele>560.0</ele><time>2026-03-22T15:08:51.679Z</time></trkpt><trkpt lat="44.3208299" lon="9.5411291"><ele>560.0</ele><time>2026-03-22T15:08:52.679Z</time></trkpt><trkpt lat="44.3207681" lon="9.5410767"><ele>560.0</ele><time>2026-03-22T15:08:53.679Z</time></trkpt><trkpt lat="44.3206684" lon="9.5410219"><ele>560.0</ele><time>2026-03-22T15:08:55.679Z</time></trkpt><trkpt lat="44.3206952" lon="9.5411269"><ele>560.0</ele><time>2026-03-22T15:08:58.679Z</time></trkpt><trkpt lat="44.3208225" lon="9.5412566"><ele>560.0</ele><time>2026-03-22T15:09:00.679Z</time></trkpt><trkpt lat="44.3208643" lon="9.5413881"><ele>560.0</ele><time>2026-03-22T15:09:01.679Z</time></trkpt><trkpt lat="44.3208908" lon="9.5415276"><ele>560.0</ele><time>2026-03-22T15:09:02.679Z</time></trkpt><trkpt lat="44.320923" lon="9.5416529"><ele>560.0</ele><time>2026-03-22T15:09:03.679Z</time></trkpt><trkpt lat="44.3209574" lon="9.5417553"><ele>560.0</ele><time>2026-03-22T15:09:04.679Z</time></trkpt><trkpt lat="44.3209959" lon="9.5418417"><ele>560.0</ele><time>2026-03-22T15:09:05.679Z</time></trkpt><trkpt lat="44.3210912" lon="9.541946"><ele>560.0</ele><time>2026-03-22T15:09:07.679Z</time></trkpt><trkpt lat="44.3211081" lon="9.5420779"><ele>560.0</ele><time>2026-03-22T15:09:09.679Z</time></trkpt><trkpt lat="44.3210977" lon="9.5421758"><ele>560.0</ele><time>2026-03-22T15:09:11.679Z</time></trkpt><trkpt lat="44.3209907" lon="9.542173"><ele>560.0</ele><time>2026-03-22T15:09:12.679Z</time></trkpt><trkpt lat="44.3209256" lon="9.5421404"><ele>560.0</ele><time>2026-03-22T15:09:13.679Z</time></trkpt><trkpt lat="44.3208328" lon="9.5420198"><ele>560.0</ele><time>2026-03-22T15:09:14.679Z</time></trkpt><trkpt lat="44.3207465" lon="9.5418912"><ele>560.0</ele><time>2026-03-22T15:09:15.679Z</time></trkpt><trkpt lat="44.3206507" lon="9.54181"><ele>560.0</ele><time>2026-03-22T15:09:16.679Z</time></trkpt><trkpt lat="44.3205745" lon="9.541765"><ele>560.0</ele><time>2026-03-22T15:09:17.679Z</time></trkpt><trkpt lat="44.3204959" lon="9.5417526"><ele>560.0</ele><time>2026-03-22T15:09:18.679Z</time></trkpt><trkpt lat="44.3204168" lon="9.5417498"><ele>556.4</ele><time>2026-03-22T15:09:19.679Z</time></trkpt><trkpt lat="44.3203514" lon="9.5418139"><ele>552.8</ele><time>2026-03-22T15:09:20.679Z</time></trkpt><trkpt lat="44.3202756" lon="9.5419065"><ele>549.2</ele><time>2026-03-22T15:09:21.679Z</time></trkpt><trkpt lat="44.3202216" lon="9.5420056"><ele>545.6</ele><time>2026-03-22T15:09:22.679Z</time></trkpt><trkpt lat="44.3201735" lon="9.5421207"><ele>542.0</ele><time>2026-03-22T15:09:23.679Z</time></trkpt><trkpt lat="44.3201302" lon="9.5422376"><ele>540.6666666666666</ele><time>2026-03-22T15:09:24.679Z</time></trkpt><trkpt lat="44.3201004" lon="9.5423665"><ele>539.3333333333333</ele><time>2026-03-22T15:09:25.679Z</time></trkpt><trkpt lat="44.3201266" lon="9.5424636"><ele>538.0</ele><time>2026-03-22T15:09:26.679Z</time></trkpt><trkpt lat="44.3201432" lon="9.5425605"><ele>536.6666666666666</ele><time>2026-03-22T15:09:27.679Z</time></trkpt><trkpt lat="44.3201896" lon="9.5426566"><ele>535.3333333333334</ele><time>2026-03-22T15:09:28.68Z</time></trkpt><trkpt lat="44.3202427" lon="9.5427642"><ele>534.0</ele><time>2026-03-22T15:09:29.68Z</time></trkpt><trkpt lat="44.3202676" lon="9.5428798"><ele>532.4</ele><time>2026-03-22T15:09:30.679Z</time></trkpt><trkpt lat="44.3202606" lon="9.5430049"><ele>530.8</ele><time>2026-03-22T15:09:31.679Z</time></trkpt><trkpt lat="44.3202265" lon="9.5431276"><ele>529.2</ele><time>2026-03-22T15:09:32.679Z</time></trkpt><trkpt lat="44.3201852" lon="9.5432545"><ele>527.6</ele><time>2026-03-22T15:09:33.679Z</time></trkpt><trkpt lat="44.3201413" lon="9.5433847"><ele>526.0</ele><time>2026-03-22T15:09:34.679Z</time></trkpt><trkpt lat="44.3201033" lon="9.5435001"><ele>526.0</ele><time>2026-03-22T15:09:35.679Z</time></trkpt><trkpt lat="44.3200602" lon="9.5436133"><ele>526.0</ele><time>2026-03-22T15:09:36.679Z</time></trkpt><trkpt lat="44.3200153" lon="9.5437274"><ele>526.0</ele><time>2026-03-22T15:09:37.679Z</time></trkpt><trkpt lat="44.3199918" lon="9.5438191"><ele>526.0</ele><time>2026-03-22T15:09:38.679Z</time></trkpt><trkpt lat="44.3199001" lon="9.543911"><ele>526.0</ele><time>2026-03-22T15:09:40.679Z</time></trkpt><trkpt lat="44.3198106" lon="9.5437893"><ele>526.0</ele><time>2026-03-22T15:09:42.68Z</time></trkpt><trkpt lat="44.3197415" lon="9.5436177"><ele>526.0</ele><time>2026-03-22T15:09:44.679Z</time></trkpt><trkpt lat="44.3197219" lon="9.5435228"><ele>526.0</ele><time>2026-03-22T15:09:45.679Z</time></trkpt><trkpt lat="44.3196463" lon="9.5435754"><ele>526.0</ele><time>2026-03-22T15:09:46.68Z</time></trkpt><trkpt lat="44.3195389" lon="9.5436321"><ele>526.0</ele><time>2026-03-22T15:09:48.679Z</time></trkpt><trkpt lat="44.3194229" lon="9.5435678"><ele>522.4</ele><time>2026-03-22T15:09:50.68Z</time></trkpt><trkpt lat="44.3194657" lon="9.5434296"><ele>518.8</ele><time>2026-03-22T15:09:51.679Z</time></trkpt><trkpt lat="44.3194499" lon="9.5433009"><ele>515.1999999999999</ele><time>2026-03-22T15:09:52.679Z</time></trkpt><trkpt lat="44.3194426" lon="9.5431767"><ele>511.59999999999997</ele><time>2026-03-22T15:09:53.68Z</time></trkpt><trkpt lat="44.3194282" lon="9.5430535"><ele>508.0</ele><time>2026-03-22T15:09:54.679Z</time></trkpt><trkpt lat="44.3193892" lon="9.5429437"><ele>509.50000000000006</ele><time>2026-03-22T15:09:55.679Z</time></trkpt><trkpt lat="44.3193271" lon="9.5428493"><ele>511.0</ele><time>2026-03-22T15:09:56.679Z</time></trkpt><trkpt lat="44.3192572" lon="9.542782"><ele>512.5</ele><time>2026-03-22T15:09:57.679Z</time></trkpt><trkpt lat="44.3191829" lon="9.5427257"><ele>514.0</ele><time>2026-03-22T15:09:58.68Z</time></trkpt><trkpt lat="44.3191166" lon="9.5427001"><ele>515.5</ele><time>2026-03-22T15:09:59.679Z</time></trkpt><trkpt lat="44.3190572" lon="9.5426476"><ele>517.0</ele><time>2026-03-22T15:10:00.679Z</time></trkpt><trkpt lat="44.3189995" lon="9.5425816"><ele>517.0</ele><time>2026-03-22T15:10:01.679Z</time></trkpt><trkpt lat="44.3189434" lon="9.5425217"><ele>517.0</ele><time>2026-03-22T15:10:02.679Z</time></trkpt><trkpt lat="44.3188883" lon="9.5424665"><ele>517.0</ele><time>2026-03-22T15:10:03.679Z</time></trkpt><trkpt lat="44.3188367" lon="9.5424104"><ele>517.0</ele><time>2026-03-22T15:10:04.679Z</time></trkpt><trkpt lat="44.3187917" lon="9.5423426"><ele>517.0</ele><time>2026-03-22T15:10:05.68Z</time></trkpt><trkpt lat="44.3187374" lon="9.5422801"><ele>517.0</ele><time>2026-03-22T15:10:06.68Z</time></trkpt><trkpt lat="44.3186765" lon="9.542235"><ele>517.0</ele><time>2026-03-22T15:10:07.68Z</time></trkpt><trkpt lat="44.3185626" lon="9.5422768"><ele>517.3333333333334</ele><time>2026-03-22T15:10:09.68Z</time></trkpt><trkpt lat="44.3185312" lon="9.5424489"><ele>517.6666666666667</ele><time>2026-03-22T15:10:11.68Z</time></trkpt><trkpt lat="44.3185136" lon="9.5425417"><ele>518.0</ele><time>2026-03-22T15:10:12.68Z</time></trkpt><trkpt lat="44.3185026" lon="9.5426516"><ele>518.3333333333334</ele><time>2026-03-22T15:10:13.681Z</time></trkpt><trkpt lat="44.318501" lon="9.5427489"><ele>518.6666666666666</ele><time>2026-03-22T15:10:14.68Z</time></trkpt><trkpt lat="44.3185324" lon="9.5428473"><ele>519.0</ele><time>2026-03-22T15:10:15.68Z</time></trkpt><trkpt lat="44.3185597" lon="9.5429509"><ele>517.3333333333334</ele><time>2026-03-22T15:10:16.68Z</time></trkpt><trkpt lat="44.3185858" lon="9.5430532"><ele>515.6666666666666</ele><time>2026-03-22T15:10:17.68Z</time></trkpt><trkpt lat="44.318594" lon="9.5431587"><ele>514.0</ele><time>2026-03-22T15:10:18.68Z</time></trkpt><trkpt lat="44.3185591" lon="9.5432495"><ele>512.3333333333333</ele><time>2026-03-22T15:10:19.68Z</time></trkpt><trkpt lat="44.3184296" lon="9.543326"><ele>510.66666666666663</ele><time>2026-03-22T15:10:20.68Z</time></trkpt><trkpt lat="44.3183663" lon="9.5433937"><ele>509.0</ele><time>2026-03-22T15:10:21.68Z</time></trkpt><trkpt lat="44.318245" lon="9.5434178"><ele>509.0</ele><time>2026-03-22T15:10:22.68Z</time></trkpt><trkpt lat="44.3181374" lon="9.543456"><ele>509.0</ele><time>2026-03-22T15:10:23.68Z</time></trkpt><trkpt lat="44.318053" lon="9.5434147"><ele>509.0</ele><time>2026-03-22T15:10:24.68Z</time></trkpt><trkpt lat="44.3179564" lon="9.5433428"><ele>509.0</ele><time>2026-03-22T15:10:25.68Z</time></trkpt><trkpt lat="44.3178925" lon="9.5432554"><ele>509.0</ele><time>2026-03-22T15:10:26.68Z</time></trkpt><trkpt lat="44.317915" lon="9.54308"><ele>511.2</ele><time>2026-03-22T15:10:27.68Z</time></trkpt><trkpt lat="44.3178479" lon="9.5430293"><ele>513.4</ele><time>2026-03-22T15:10:28.68Z</time></trkpt><trkpt lat="44.3177399" lon="9.543034"><ele>515.6</ele><time>2026-03-22T15:10:30.68Z</time></trkpt><trkpt lat="44.3176588" lon="9.5431162"><ele>517.8</ele><time>2026-03-22T15:10:31.68Z</time></trkpt><trkpt lat="44.3175633" lon="9.5432389"><ele>520.0</ele><time>2026-03-22T15:10:32.68Z</time></trkpt><trkpt lat="44.3174586" lon="9.5433044"><ele>520.0</ele><time>2026-03-22T15:10:33.68Z</time></trkpt><trkpt lat="44.3173612" lon="9.5433802"><ele>520.0</ele><time>2026-03-22T15:10:34.68Z</time></trkpt><trkpt lat="44.3172034" lon="9.5434333"><ele>520.0</ele><time>2026-03-22T15:10:35.68Z</time></trkpt><trkpt lat="44.3170409" lon="9.5433874"><ele>520.0</ele><time>2026-03-22T15:10:36.68Z</time></trkpt><trkpt lat="44.3169171" lon="9.5433558"><ele>523.0</ele><time>2026-03-22T15:10:37.681Z</time></trkpt><trkpt lat="44.3167753" lon="9.5433622"><ele>526.0</ele><time>2026-03-22T15:10:38.68Z</time></trkpt><trkpt lat="44.3166786" lon="9.5433479"><ele>529.0</ele><time>2026-03-22T15:10:39.68Z</time></trkpt><trkpt lat="44.3165675" lon="9.5433168"><ele>532.0</ele><time>2026-03-22T15:10:40.68Z</time></trkpt><trkpt lat="44.3164659" lon="9.5431115"><ele>534.5</ele><time>2026-03-22T15:10:41.681Z</time></trkpt><trkpt lat="44.3163536" lon="9.5430664"><ele>537.0</ele><time>2026-03-22T15:10:42.68Z</time></trkpt><trkpt lat="44.3162441" lon="9.5430117"><ele>539.5</ele><time>2026-03-22T15:10:43.68Z</time></trkpt><trkpt lat="44.3161115" lon="9.5430732"><ele>542.0</ele><time>2026-03-22T15:10:44.68Z</time></trkpt><trkpt lat="44.3160229" lon="9.5430692"><ele>542.0</ele><time>2026-03-22T15:10:45.68Z</time></trkpt><trkpt lat="44.3159301" lon="9.5430671"><ele>542.0</ele><time>2026-03-22T15:10:46.68Z</time></trkpt><trkpt lat="44.3157976" lon="9.5430858"><ele>542.0</ele><time>2026-03-22T15:10:48.68Z</time></trkpt><trkpt lat="44.3157769" lon="9.5431886"><ele>542.0</ele><time>2026-03-22T15:10:50.68Z</time></trkpt><trkpt lat="44.315874" lon="9.5433634"><ele>542.0</ele><time>2026-03-22T15:10:51.68Z</time></trkpt><trkpt lat="44.3159249" lon="9.5434399"><ele>542.0</ele><time>2026-03-22T15:10:52.68Z</time></trkpt><trkpt lat="44.3161177" lon="9.5434914"><ele>542.0</ele><time>2026-03-22T15:10:53.68Z</time></trkpt><trkpt lat="44.3162139" lon="9.5435724"><ele>542.0</ele><time>2026-03-22T15:10:54.68Z</time></trkpt><trkpt lat="44.3163084" lon="9.5436779"><ele>543.5</ele><time>2026-03-22T15:10:55.68Z</time></trkpt><trkpt lat="44.3163842" lon="9.543793"><ele>545.0</ele><time>2026-03-22T15:10:56.68Z</time></trkpt><trkpt lat="44.3164682" lon="9.5439364"><ele>546.5</ele><time>2026-03-22T15:10:57.68Z</time></trkpt><trkpt lat="44.3165956" lon="9.5440172"><ele>548.0</ele><time>2026-03-22T15:10:58.681Z</time></trkpt><trkpt lat="44.3167241" lon="9.5440982"><ele>548.0</ele><time>2026-03-22T15:10:59.68Z</time></trkpt><trkpt lat="44.3168564" lon="9.5441587"><ele>548.0</ele><time>2026-03-22T15:11:00.68Z</time></trkpt><trkpt lat="44.3169754" lon="9.5442093"><ele>548.0</ele><time>2026-03-22T15:11:01.68Z</time></trkpt><trkpt lat="44.3170906" lon="9.5442714"><ele>548.0</ele><time>2026-03-22T15:11:02.68Z</time></trkpt><trkpt lat="44.3171755" lon="9.5443487"><ele>548.0</ele><time>2026-03-22T15:11:03.68Z</time></trkpt><trkpt lat="44.3172259" lon="9.5444762"><ele>548.0</ele><time>2026-03-22T15:11:04.68Z</time></trkpt><trkpt lat="44.317257" lon="9.5446277"><ele>548.0</ele><time>2026-03-22T15:11:05.68Z</time></trkpt><trkpt lat="44.3172976" lon="9.5447647"><ele>548.0</ele><time>2026-03-22T15:11:06.68Z</time></trkpt><trkpt lat="44.3173093" lon="9.5449028"><ele>548.0</ele><time>2026-03-22T15:11:07.68Z</time></trkpt><trkpt lat="44.3172711" lon="9.5450409"><ele>548.0</ele><time>2026-03-22T15:11:08.68Z</time></trkpt><trkpt lat="44.3171968" lon="9.5451398"><ele>548.0</ele><time>2026-03-22T15:11:09.68Z</time></trkpt><trkpt lat="44.3170951" lon="9.545226"><ele>548.0</ele><time>2026-03-22T15:11:10.68Z</time></trkpt><trkpt lat="44.3169981" lon="9.5453101"><ele>548.0</ele><time>2026-03-22T15:11:11.68Z</time></trkpt><trkpt lat="44.3168927" lon="9.5453794"><ele>548.0</ele><time>2026-03-22T15:11:12.68Z</time></trkpt><trkpt lat="44.316786" lon="9.5454499"><ele>548.0</ele><time>2026-03-22T15:11:13.68Z</time></trkpt><trkpt lat="44.3166694" lon="9.5455171"><ele>548.0</ele><time>2026-03-22T15:11:14.68Z</time></trkpt><trkpt lat="44.3165415" lon="9.5455869"><ele>548.0</ele><time>2026-03-22T15:11:15.68Z</time></trkpt><trkpt lat="44.3164028" lon="9.5456551"><ele>554.0</ele><time>2026-03-22T15:11:16.68Z</time></trkpt><trkpt lat="44.316261" lon="9.5457184"><ele>560.0</ele><time>2026-03-22T15:11:17.68Z</time></trkpt><trkpt lat="44.3161328" lon="9.5457825"><ele>566.0</ele><time>2026-03-22T15:11:18.681Z</time></trkpt><trkpt lat="44.3159915" lon="9.5458424"><ele>572.0</ele><time>2026-03-22T15:11:19.68Z</time></trkpt><trkpt lat="44.3158435" lon="9.5458763"><ele>572.0</ele><time>2026-03-22T15:11:20.68Z</time></trkpt><trkpt lat="44.3156827" lon="9.5459126"><ele>572.0</ele><time>2026-03-22T15:11:21.68Z</time></trkpt><trkpt lat="44.3155325" lon="9.5459659"><ele>572.0</ele><time>2026-03-22T15:11:22.68Z</time></trkpt><trkpt lat="44.3153842" lon="9.5460368"><ele>573.3333333333333</ele><time>2026-03-22T15:11:23.68Z</time></trkpt><trkpt lat="44.3152437" lon="9.5461836"><ele>574.6666666666666</ele><time>2026-03-22T15:11:24.68Z</time></trkpt><trkpt lat="44.3151303" lon="9.546313"><ele>576.0</ele><time>2026-03-22T15:11:25.68Z</time></trkpt><trkpt lat="44.3149979" lon="9.5464436"><ele>576.0</ele><time>2026-03-22T15:11:26.68Z</time></trkpt><trkpt lat="44.3148641" lon="9.546549"><ele>576.0</ele><time>2026-03-22T15:11:27.68Z</time></trkpt><trkpt lat="44.3147319" lon="9.5466397"><ele>576.0</ele><time>2026-03-22T15:11:28.68Z</time></trkpt><trkpt lat="44.3145863" lon="9.5466842"><ele>580.75</ele><time>2026-03-22T15:11:29.68Z</time></trkpt><trkpt lat="44.3144907" lon="9.5466393"><ele>585.5</ele><time>2026-03-22T15:11:30.68Z</time></trkpt><trkpt lat="44.3143517" lon="9.5466812"><ele>590.25</ele><time>2026-03-22T15:11:31.68Z</time></trkpt><trkpt lat="44.3142303" lon="9.5466959"><ele>595.0</ele><time>2026-03-22T15:11:32.68Z</time></trkpt><trkpt lat="44.3141169" lon="9.5467177"><ele>595.0</ele><time>2026-03-22T15:11:33.68Z</time></trkpt><trkpt lat="44.3139981" lon="9.5469056"><ele>595.0</ele><time>2026-03-22T15:11:34.68Z</time></trkpt><trkpt lat="44.3138852" lon="9.5470008"><ele>595.0</ele><time>2026-03-22T15:11:35.68Z</time></trkpt><trkpt lat="44.3137728" lon="9.547113"><ele>595.0</ele><time>2026-03-22T15:11:36.68Z</time></trkpt><trkpt lat="44.3136378" lon="9.5471676"><ele>595.75</ele><time>2026-03-22T15:11:37.68Z</time></trkpt><trkpt lat="44.313495" lon="9.547186"><ele>596.5</ele><time>2026-03-22T15:11:38.68Z</time></trkpt><trkpt lat="44.3133788" lon="9.5471867"><ele>597.25</ele><time>2026-03-22T15:11:39.681Z</time></trkpt><trkpt lat="44.3132749" lon="9.5471922"><ele>598.0</ele><time>2026-03-22T15:11:40.68Z</time></trkpt><trkpt lat="44.313183" lon="9.5472071"><ele>598.0</ele><time>2026-03-22T15:11:41.68Z</time></trkpt><trkpt lat="44.3130989" lon="9.5472622"><ele>598.0</ele><time>2026-03-22T15:11:42.68Z</time></trkpt><trkpt lat="44.3130351" lon="9.5473156"><ele>598.0</ele><time>2026-03-22T15:11:43.68Z</time></trkpt><trkpt lat="44.3130482" lon="9.5474096"><ele>598.0</ele><time>2026-03-22T15:11:44.68Z</time></trkpt><trkpt lat="44.3131038" lon="9.5474964"><ele>598.0</ele><time>2026-03-22T15:11:45.68Z</time></trkpt><trkpt lat="44.3131582" lon="9.5475721"><ele>598.0</ele><time>2026-03-22T15:11:46.68Z</time></trkpt><trkpt lat="44.3131979" lon="9.547662"><ele>598.0</ele><time>2026-03-22T15:11:47.68Z</time></trkpt><trkpt lat="44.3132041" lon="9.5477595"><ele>598.0</ele><time>2026-03-22T15:11:48.68Z</time></trkpt><trkpt lat="44.313182" lon="9.5478529"><ele>598.0</ele><time>2026-03-22T15:11:49.68Z</time></trkpt><trkpt lat="44.3131361" lon="9.5479705"><ele>598.0</ele><time>2026-03-22T15:11:50.68Z</time></trkpt><trkpt lat="44.31308" lon="9.5480759"><ele>598.0</ele><time>2026-03-22T15:11:51.68Z</time></trkpt><trkpt lat="44.3130238" lon="9.5481736"><ele>598.0</ele><time>2026-03-22T15:11:52.68Z</time></trkpt><trkpt lat="44.3129758" lon="9.5482611"><ele>597.6</ele><time>2026-03-22T15:11:53.68Z</time></trkpt><trkpt lat="44.3129337" lon="9.548365"><ele>597.1999999999999</ele><time>2026-03-22T15:11:54.68Z</time></trkpt><trkpt lat="44.3129122" lon="9.54848"><ele>596.8</ele><time>2026-03-22T15:11:55.68Z</time></trkpt><trkpt lat="44.3129013" lon="9.5486305"><ele>596.4</ele><time>2026-03-22T15:11:56.68Z</time></trkpt><trkpt lat="44.3129146" lon="9.5487481"><ele>596.0</ele><time>2026-03-22T15:11:57.68Z</time></trkpt><trkpt lat="44.3128846" lon="9.5488911"><ele>596.0</ele><time>2026-03-22T15:11:59.68Z</time></trkpt><trkpt lat="44.3128247" lon="9.548949"><ele>596.0</ele><time>2026-03-22T15:12:01.68Z</time></trkpt><trkpt lat="44.3127048" lon="9.5489472"><ele>596.0</ele><time>2026-03-22T15:12:03.68Z</time></trkpt><trkpt lat="44.312634" lon="9.5489178"><ele>596.0</ele><time>2026-03-22T15:12:04.68Z</time></trkpt><trkpt lat="44.3125401" lon="9.5488396"><ele>596.0</ele><time>2026-03-22T15:12:05.68Z</time></trkpt><trkpt lat="44.3124091" lon="9.5488809"><ele>596.0</ele><time>2026-03-22T15:12:06.681Z</time></trkpt><trkpt lat="44.3122846" lon="9.5488975"><ele>596.0</ele><time>2026-03-22T15:12:07.68Z</time></trkpt><trkpt lat="44.3121663" lon="9.5489154"><ele>596.0</ele><time>2026-03-22T15:12:08.68Z</time></trkpt><trkpt lat="44.3120373" lon="9.5489446"><ele>596.0</ele><time>2026-03-22T15:12:09.68Z</time></trkpt><trkpt lat="44.3119022" lon="9.5489744"><ele>595.5</ele><time>2026-03-22T15:12:10.68Z</time></trkpt><trkpt lat="44.311772" lon="9.5490028"><ele>595.0</ele><time>2026-03-22T15:12:11.68Z</time></trkpt><trkpt lat="44.3116539" lon="9.549029"><ele>594.5</ele><time>2026-03-22T15:12:12.68Z</time></trkpt><trkpt lat="44.3115469" lon="9.5490525"><ele>594.0</ele><time>2026-03-22T15:12:13.68Z</time></trkpt><trkpt lat="44.31144" lon="9.549077"><ele>594.4</ele><time>2026-03-22T15:12:14.68Z</time></trkpt><trkpt lat="44.3113546" lon="9.5491158"><ele>594.8</ele><time>2026-03-22T15:12:15.68Z</time></trkpt><trkpt lat="44.3112393" lon="9.5491665"><ele>595.2</ele><time>2026-03-22T15:12:16.68Z</time></trkpt><trkpt lat="44.3111286" lon="9.5492309"><ele>595.6</ele><time>2026-03-22T15:12:17.68Z</time></trkpt><trkpt lat="44.3110214" lon="9.5492973"><ele>596.0</ele><time>2026-03-22T15:12:18.68Z</time></trkpt><trkpt lat="44.3109058" lon="9.5493834"><ele>596.0</ele><time>2026-03-22T15:12:19.681Z</time></trkpt><trkpt lat="44.3108006" lon="9.5494705"><ele>596.0</ele><time>2026-03-22T15:12:20.68Z</time></trkpt><trkpt lat="44.3106909" lon="9.5496025"><ele>596.0</ele><time>2026-03-22T15:12:21.68Z</time></trkpt><trkpt lat="44.3106211" lon="9.5497546"><ele>596.0</ele><time>2026-03-22T15:12:22.681Z</time></trkpt><trkpt lat="44.3105351" lon="9.5498894"><ele>595.25</ele><time>2026-03-22T15:12:23.68Z</time></trkpt><trkpt lat="44.3104505" lon="9.5500371"><ele>594.5</ele><time>2026-03-22T15:12:24.68Z</time></trkpt><trkpt lat="44.3103702" lon="9.5501734"><ele>593.75</ele><time>2026-03-22T15:12:25.68Z</time></trkpt><trkpt lat="44.3102921" lon="9.5503086"><ele>593.0</ele><time>2026-03-22T15:12:26.68Z</time></trkpt><trkpt lat="44.3101991" lon="9.5504309"><ele>588.75</ele><time>2026-03-22T15:12:27.68Z</time></trkpt><trkpt lat="44.3101033" lon="9.5505381"><ele>584.5</ele><time>2026-03-22T15:12:28.68Z</time></trkpt><trkpt lat="44.3100007" lon="9.5506394"><ele>580.25</ele><time>2026-03-22T15:12:29.68Z</time></trkpt><trkpt lat="44.3098927" lon="9.5507353"><ele>576.0</ele><time>2026-03-22T15:12:30.68Z</time></trkpt><trkpt lat="44.3097961" lon="9.5508372"><ele>577.3333333333334</ele><time>2026-03-22T15:12:31.68Z</time></trkpt><trkpt lat="44.3097038" lon="9.5509695"><ele>578.6666666666667</ele><time>2026-03-22T15:12:32.68Z</time></trkpt><trkpt lat="44.3096161" lon="9.5511099"><ele>580.0</ele><time>2026-03-22T15:12:33.68Z</time></trkpt><trkpt lat="44.3095697" lon="9.5513615"><ele>580.0</ele><time>2026-03-22T15:12:34.68Z</time></trkpt><trkpt lat="44.3095227" lon="9.5515448"><ele>580.0</ele><time>2026-03-22T15:12:35.68Z</time></trkpt><trkpt lat="44.3094783" lon="9.5517238"><ele>580.0</ele><time>2026-03-22T15:12:36.68Z</time></trkpt><trkpt lat="44.3094216" lon="9.5518785"><ele>580.0</ele><time>2026-03-22T15:12:37.68Z</time></trkpt><trkpt lat="44.3093441" lon="9.5520109"><ele>577.25</ele><time>2026-03-22T15:12:38.68Z</time></trkpt><trkpt lat="44.3092531" lon="9.5521389"><ele>574.5</ele><time>2026-03-22T15:12:39.681Z</time></trkpt><trkpt lat="44.3091658" lon="9.5522603"><ele>571.75</ele><time>2026-03-22T15:12:40.68Z</time></trkpt><trkpt lat="44.3090921" lon="9.5524118"><ele>569.0</ele><time>2026-03-22T15:12:41.68Z</time></trkpt><trkpt lat="44.3090539" lon="9.5525794"><ele>569.0</ele><time>2026-03-22T15:12:42.68Z</time></trkpt><trkpt lat="44.3090075" lon="9.5527564"><ele>569.0</ele><time>2026-03-22T15:12:43.68Z</time></trkpt><trkpt lat="44.3090763" lon="9.5529777"><ele>569.0</ele><time>2026-03-22T15:12:44.68Z</time></trkpt><trkpt lat="44.309117" lon="9.553173"><ele>568.25</ele><time>2026-03-22T15:12:45.68Z</time></trkpt><trkpt lat="44.3091667" lon="9.5533698"><ele>567.5</ele><time>2026-03-22T15:12:46.68Z</time></trkpt><trkpt lat="44.3092297" lon="9.5535569"><ele>566.75</ele><time>2026-03-22T15:12:47.681Z</time></trkpt><trkpt lat="44.3092765" lon="9.5537302"><ele>566.0</ele><time>2026-03-22T15:12:48.68Z</time></trkpt><trkpt lat="44.3093218" lon="9.553896"><ele>565.0</ele><time>2026-03-22T15:12:49.68Z</time></trkpt><trkpt lat="44.3093627" lon="9.554048"><ele>564.0</ele><time>2026-03-22T15:12:50.68Z</time></trkpt><trkpt lat="44.3093898" lon="9.5541957"><ele>563.0</ele><time>2026-03-22T15:12:51.681Z</time></trkpt><trkpt lat="44.3093992" lon="9.5543288"><ele>562.0</ele><time>2026-03-22T15:12:52.68Z</time></trkpt><trkpt lat="44.309368" lon="9.5544417"><ele>561.0</ele><time>2026-03-22T15:12:53.68Z</time></trkpt><trkpt lat="44.3093024" lon="9.554518"><ele>559.0</ele><time>2026-03-22T15:12:54.68Z</time></trkpt><trkpt lat="44.3092092" lon="9.5545537"><ele>557.0</ele><time>2026-03-22T15:12:55.68Z</time></trkpt><trkpt lat="44.3091175" lon="9.5545835"><ele>555.0</ele><time>2026-03-22T15:12:56.68Z</time></trkpt><trkpt lat="44.3090313" lon="9.5546474"><ele>553.0</ele><time>2026-03-22T15:12:57.68Z</time></trkpt><trkpt lat="44.3089593" lon="9.5547062"><ele>551.0</ele><time>2026-03-22T15:12:58.68Z</time></trkpt><trkpt lat="44.3089194" lon="9.55482"><ele>551.0</ele><time>2026-03-22T15:12:59.68Z</time></trkpt><trkpt lat="44.3089255" lon="9.5549651"><ele>551.0</ele><time>2026-03-22T15:13:00.68Z</time></trkpt><trkpt lat="44.3090637" lon="9.555197"><ele>551.0</ele><time>2026-03-22T15:13:01.68Z</time></trkpt><trkpt lat="44.3090689" lon="9.5553206"><ele>551.0</ele><time>2026-03-22T15:13:02.68Z</time></trkpt><trkpt lat="44.3090493" lon="9.5554637"><ele>551.2</ele><time>2026-03-22T15:13:03.68Z</time></trkpt><trkpt lat="44.3089913" lon="9.555581"><ele>551.4000000000001</ele><time>2026-03-22T15:13:04.681Z</time></trkpt><trkpt lat="44.3088963" lon="9.5556339"><ele>551.6</ele><time>2026-03-22T15:13:05.68Z</time></trkpt><trkpt lat="44.3088052" lon="9.5556988"><ele>551.8000000000001</ele><time>2026-03-22T15:13:06.68Z</time></trkpt><trkpt lat="44.3086856" lon="9.5556813"><ele>552.0</ele><time>2026-03-22T15:13:07.68Z</time></trkpt><trkpt lat="44.3085965" lon="9.5556939"><ele>552.0</ele><time>2026-03-22T15:13:08.68Z</time></trkpt><trkpt lat="44.308509" lon="9.555708"><ele>552.0</ele><time>2026-03-22T15:13:09.68Z</time></trkpt><trkpt lat="44.3084517" lon="9.5558664"><ele>552.0</ele><time>2026-03-22T15:13:10.68Z</time></trkpt><trkpt lat="44.3084061" lon="9.5559559"><ele>552.0</ele><time>2026-03-22T15:13:11.68Z</time></trkpt><trkpt lat="44.3083721" lon="9.5561464"><ele>552.0</ele><time>2026-03-22T15:13:12.68Z</time></trkpt><trkpt lat="44.3084908" lon="9.5563373"><ele>549.0</ele><time>2026-03-22T15:13:13.68Z</time></trkpt><trkpt lat="44.3085203" lon="9.5565032"><ele>546.0</ele><time>2026-03-22T15:13:14.68Z</time></trkpt><trkpt lat="44.3085423" lon="9.5566834"><ele>543.0</ele><time>2026-03-22T15:13:15.68Z</time></trkpt><trkpt lat="44.3085667" lon="9.5568467"><ele>540.0</ele><time>2026-03-22T15:13:16.68Z</time></trkpt><trkpt lat="44.30859" lon="9.5570044"><ele>537.2</ele><time>2026-03-22T15:13:17.68Z</time></trkpt><trkpt lat="44.3086114" lon="9.5571563"><ele>534.4</ele><time>2026-03-22T15:13:18.68Z</time></trkpt><trkpt lat="44.308618" lon="9.5572867"><ele>531.6</ele><time>2026-03-22T15:13:19.68Z</time></trkpt><trkpt lat="44.3085908" lon="9.5573986"><ele>528.8</ele><time>2026-03-22T15:13:20.68Z</time></trkpt><trkpt lat="44.3085304" lon="9.557487"><ele>526.0</ele><time>2026-03-22T15:13:21.68Z</time></trkpt><trkpt lat="44.3084472" lon="9.55753"><ele>526.0</ele><time>2026-03-22T15:13:22.681Z</time></trkpt><trkpt lat="44.3083521" lon="9.5575256"><ele>526.0</ele><time>2026-03-22T15:13:23.68Z</time></trkpt><trkpt lat="44.3082405" lon="9.5574839"><ele>526.0</ele><time>2026-03-22T15:13:24.68Z</time></trkpt><trkpt lat="44.3081149" lon="9.5574365"><ele>526.0</ele><time>2026-03-22T15:13:25.68Z</time></trkpt><trkpt lat="44.3079782" lon="9.5573774"><ele>525.5</ele><time>2026-03-22T15:13:26.68Z</time></trkpt><trkpt lat="44.3078501" lon="9.5573179"><ele>525.0</ele><time>2026-03-22T15:13:27.68Z</time></trkpt><trkpt lat="44.3077317" lon="9.557261"><ele>524.5</ele><time>2026-03-22T15:13:28.68Z</time></trkpt><trkpt lat="44.3076363" lon="9.5572338"><ele>524.0</ele><time>2026-03-22T15:13:29.68Z</time></trkpt><trkpt lat="44.3075333" lon="9.5572333"><ele>524.0</ele><time>2026-03-22T15:13:30.68Z</time></trkpt><trkpt lat="44.3074543" lon="9.5573269"><ele>524.0</ele><time>2026-03-22T15:13:31.68Z</time></trkpt><trkpt lat="44.3073772" lon="9.5573879"><ele>524.0</ele><time>2026-03-22T15:13:32.68Z</time></trkpt><trkpt lat="44.3073077" lon="9.5574877"><ele>524.0</ele><time>2026-03-22T15:13:33.681Z</time></trkpt><trkpt lat="44.307339" lon="9.5577258"><ele>521.0</ele><time>2026-03-22T15:13:34.681Z</time></trkpt><trkpt lat="44.3073124" lon="9.5578981"><ele>518.0</ele><time>2026-03-22T15:13:35.68Z</time></trkpt><trkpt lat="44.3072972" lon="9.5580787"><ele>515.0</ele><time>2026-03-22T15:13:36.68Z</time></trkpt><trkpt lat="44.3072978" lon="9.5582721"><ele>512.0</ele><time>2026-03-22T15:13:37.679Z</time></trkpt><trkpt lat="44.3073169" lon="9.5584643"><ele>512.0</ele><time>2026-03-22T15:13:38.68Z</time></trkpt><trkpt lat="44.3073329" lon="9.5586417"><ele>512.0</ele><time>2026-03-22T15:13:39.68Z</time></trkpt><trkpt lat="44.3073379" lon="9.5588212"><ele>512.0</ele><time>2026-03-22T15:13:40.68Z</time></trkpt><trkpt lat="44.307349" lon="9.559007"><ele>512.0</ele><time>2026-03-22T15:13:41.68Z</time></trkpt><trkpt lat="44.3073482" lon="9.5591949"><ele>508.5</ele><time>2026-03-22T15:13:42.68Z</time></trkpt><trkpt lat="44.3073524" lon="9.5593758"><ele>505.0</ele><time>2026-03-22T15:13:43.68Z</time></trkpt><trkpt lat="44.3073553" lon="9.5595475"><ele>501.5</ele><time>2026-03-22T15:13:44.68Z</time></trkpt><trkpt lat="44.3073347" lon="9.5597207"><ele>498.0</ele><time>2026-03-22T15:13:45.68Z</time></trkpt><trkpt lat="44.3072882" lon="9.5598625"><ele>497.4</ele><time>2026-03-22T15:13:46.68Z</time></trkpt><trkpt lat="44.3072416" lon="9.5599962"><ele>496.79999999999995</ele><time>2026-03-22T15:13:47.68Z</time></trkpt><trkpt lat="44.3072072" lon="9.5600861"><ele>496.2</ele><time>2026-03-22T15:13:48.68Z</time></trkpt><trkpt lat="44.3071497" lon="9.5601878"><ele>495.6</ele><time>2026-03-22T15:13:49.68Z</time></trkpt><trkpt lat="44.3070988" lon="9.5602856"><ele>495.0</ele><time>2026-03-22T15:13:50.68Z</time></trkpt><trkpt lat="44.3069282" lon="9.5603221"><ele>495.0</ele><time>2026-03-22T15:13:51.68Z</time></trkpt><trkpt lat="44.3067945" lon="9.5599579"><ele>495.0</ele><time>2026-03-22T15:13:52.68Z</time></trkpt><trkpt lat="44.3066783" lon="9.5598898"><ele>495.0</ele><time>2026-03-22T15:13:53.681Z</time></trkpt><trkpt lat="44.3065445" lon="9.5598302"><ele>495.0</ele><time>2026-03-22T15:13:54.68Z</time></trkpt><trkpt lat="44.3064177" lon="9.5597677"><ele>495.0</ele><time>2026-03-22T15:13:55.68Z</time></trkpt><trkpt lat="44.3062934" lon="9.5597047"><ele>495.0</ele><time>2026-03-22T15:13:56.68Z</time></trkpt><trkpt lat="44.3061709" lon="9.5596465"><ele>495.0</ele><time>2026-03-22T15:13:57.68Z</time></trkpt><trkpt lat="44.3060461" lon="9.559583"><ele>495.6</ele><time>2026-03-22T15:13:58.681Z</time></trkpt><trkpt lat="44.3059329" lon="9.5595562"><ele>496.2</ele><time>2026-03-22T15:13:59.68Z</time></trkpt><trkpt lat="44.3058244" lon="9.5595534"><ele>496.79999999999995</ele><time>2026-03-22T15:14:00.68Z</time></trkpt><trkpt lat="44.3057192" lon="9.5595005"><ele>497.4</ele><time>2026-03-22T15:14:01.68Z</time></trkpt><trkpt lat="44.3056254" lon="9.5594442"><ele>498.0</ele><time>2026-03-22T15:14:02.68Z</time></trkpt><trkpt lat="44.3055594" lon="9.5592973"><ele>498.0</ele><time>2026-03-22T15:14:03.68Z</time></trkpt><trkpt lat="44.3054857" lon="9.5592181"><ele>498.0</ele><time>2026-03-22T15:14:04.68Z</time></trkpt><trkpt lat="44.3054284" lon="9.5591447"><ele>498.0</ele><time>2026-03-22T15:14:05.68Z</time></trkpt><trkpt lat="44.3053501" lon="9.559147"><ele>498.0</ele><time>2026-03-22T15:14:06.68Z</time></trkpt><trkpt lat="44.3052708" lon="9.5591537"><ele>498.0</ele><time>2026-03-22T15:14:07.68Z</time></trkpt><trkpt lat="44.3051865" lon="9.5592429"><ele>498.0</ele><time>2026-03-22T15:14:08.68Z</time></trkpt><trkpt lat="44.3051938" lon="9.5593596"><ele>496.33333333333337</ele><time>2026-03-22T15:14:09.68Z</time></trkpt><trkpt lat="44.3052734" lon="9.5595585"><ele>494.6666666666667</ele><time>2026-03-22T15:14:10.68Z</time></trkpt><trkpt lat="44.3054261" lon="9.5597379"><ele>493.0</ele><time>2026-03-22T15:14:11.68Z</time></trkpt><trkpt lat="44.3054835" lon="9.5598649"><ele>493.0</ele><time>2026-03-22T15:14:12.68Z</time></trkpt><trkpt lat="44.3055154" lon="9.5599798"><ele>492.99999999999994</ele><time>2026-03-22T15:14:13.68Z</time></trkpt><trkpt lat="44.3055054" lon="9.5601328"><ele>492.99999999999994</ele><time>2026-03-22T15:14:14.68Z</time></trkpt><trkpt lat="44.3054593" lon="9.5602829"><ele>493.0</ele><time>2026-03-22T15:14:15.681Z</time></trkpt><trkpt lat="44.3054026" lon="9.5604108"><ele>493.0</ele><time>2026-03-22T15:14:16.68Z</time></trkpt><trkpt lat="44.3053573" lon="9.5605434"><ele>490.75</ele><time>2026-03-22T15:14:17.68Z</time></trkpt><trkpt lat="44.3053099" lon="9.5606928"><ele>488.5</ele><time>2026-03-22T15:14:18.68Z</time></trkpt><trkpt lat="44.3053109" lon="9.5608422"><ele>486.25</ele><time>2026-03-22T15:14:19.68Z</time></trkpt><trkpt lat="44.3053401" lon="9.5610043"><ele>484.0</ele><time>2026-03-22T15:14:20.68Z</time></trkpt><trkpt lat="44.3053338" lon="9.5611579"><ele>479.6666666666667</ele><time>2026-03-22T15:14:21.68Z</time></trkpt><trkpt lat="44.3053254" lon="9.5613016"><ele>475.33333333333337</ele><time>2026-03-22T15:14:22.68Z</time></trkpt><trkpt lat="44.3051502" lon="9.5614657"><ele>471.0</ele><time>2026-03-22T15:14:23.68Z</time></trkpt><trkpt lat="44.3050636" lon="9.5616189"><ele>471.0</ele><time>2026-03-22T15:14:24.68Z</time></trkpt><trkpt lat="44.3049768" lon="9.5617649"><ele>471.0</ele><time>2026-03-22T15:14:25.68Z</time></trkpt><trkpt lat="44.3048837" lon="9.5619066"><ele>471.0</ele><time>2026-03-22T15:14:26.68Z</time></trkpt><trkpt lat="44.3048036" lon="9.5620633"><ele>471.0</ele><time>2026-03-22T15:14:27.68Z</time></trkpt><trkpt lat="44.3047281" lon="9.5622187"><ele>468.5</ele><time>2026-03-22T15:14:28.68Z</time></trkpt><trkpt lat="44.3046551" lon="9.5623571"><ele>466.0</ele><time>2026-03-22T15:14:29.68Z</time></trkpt><trkpt lat="44.3045964" lon="9.5625"><ele>463.5</ele><time>2026-03-22T15:14:30.68Z</time></trkpt><trkpt lat="44.304535" lon="9.5626453"><ele>461.0</ele><time>2026-03-22T15:14:31.68Z</time></trkpt><trkpt lat="44.3044783" lon="9.5627782"><ele>456.0</ele><time>2026-03-22T15:14:32.68Z</time></trkpt><trkpt lat="44.3044145" lon="9.5629094"><ele>451.0</ele><time>2026-03-22T15:14:33.68Z</time></trkpt><trkpt lat="44.3042783" lon="9.5629434"><ele>446.0</ele><time>2026-03-22T15:14:34.68Z</time></trkpt><trkpt lat="44.3041577" lon="9.5629747"><ele>441.0</ele><time>2026-03-22T15:14:35.68Z</time></trkpt><trkpt lat="44.3040206" lon="9.5629675"><ele>442.0</ele><time>2026-03-22T15:14:36.68Z</time></trkpt><trkpt lat="44.303889" lon="9.5629372"><ele>443.0</ele><time>2026-03-22T15:14:37.681Z</time></trkpt><trkpt lat="44.3037604" lon="9.5628937"><ele>444.0</ele><time>2026-03-22T15:14:38.68Z</time></trkpt><trkpt lat="44.3036477" lon="9.5628608"><ele>445.0</ele><time>2026-03-22T15:14:39.68Z</time></trkpt><trkpt lat="44.3035478" lon="9.5628345"><ele>445.0</ele><time>2026-03-22T15:14:40.68Z</time></trkpt><trkpt lat="44.3034494" lon="9.562813"><ele>445.0</ele><time>2026-03-22T15:14:41.68Z</time></trkpt><trkpt lat="44.3033845" lon="9.5629403"><ele>445.0</ele><time>2026-03-22T15:14:42.68Z</time></trkpt><trkpt lat="44.3033366" lon="9.5630402"><ele>445.0</ele><time>2026-03-22T15:14:43.68Z</time></trkpt><trkpt lat="44.3032998" lon="9.5631688"><ele>445.0</ele><time>2026-03-22T15:14:44.68Z</time></trkpt><trkpt lat="44.303258" lon="9.5633016"><ele>445.00000000000006</ele><time>2026-03-22T15:14:45.681Z</time></trkpt><trkpt lat="44.3032242" lon="9.5634149"><ele>445.0</ele><time>2026-03-22T15:14:46.68Z</time></trkpt><trkpt lat="44.3031959" lon="9.5635668"><ele>445.0</ele><time>2026-03-22T15:14:47.68Z</time></trkpt><trkpt lat="44.3031978" lon="9.5636927"><ele>445.0</ele><time>2026-03-22T15:14:48.68Z</time></trkpt><trkpt lat="44.3032166" lon="9.5637784"><ele>445.00000000000006</ele><time>2026-03-22T15:14:49.68Z</time></trkpt><trkpt lat="44.3032234" lon="9.5638743"><ele>445.0</ele><time>2026-03-22T15:14:50.681Z</time></trkpt><trkpt lat="44.303238" lon="9.5639798"><ele>440.5</ele><time>2026-03-22T15:14:51.68Z</time></trkpt><trkpt lat="44.3031948" lon="9.5640927"><ele>436.0</ele><time>2026-03-22T15:14:52.68Z</time></trkpt><trkpt lat="44.3031708" lon="9.5641984"><ele>431.5</ele><time>2026-03-22T15:14:53.681Z</time></trkpt><trkpt lat="44.3030054" lon="9.5641799"><ele>427.0</ele><time>2026-03-22T15:14:55.68Z</time></trkpt><trkpt lat="44.3028336" lon="9.5640463"><ele>425.33333333333337</ele><time>2026-03-22T15:14:56.68Z</time></trkpt><trkpt lat="44.3026635" lon="9.5638648"><ele>423.66666666666663</ele><time>2026-03-22T15:14:57.68Z</time></trkpt><trkpt lat="44.3025489" lon="9.5637947"><ele>422.0</ele><time>2026-03-22T15:14:58.681Z</time></trkpt><trkpt lat="44.3024253" lon="9.5637093"><ele>423.25</ele><time>2026-03-22T15:14:59.68Z</time></trkpt><trkpt lat="44.3022854" lon="9.5636592"><ele>424.5</ele><time>2026-03-22T15:15:00.68Z</time></trkpt><trkpt lat="44.3021614" lon="9.5636446"><ele>425.75</ele><time>2026-03-22T15:15:01.68Z</time></trkpt><trkpt lat="44.3020307" lon="9.5636387"><ele>427.0</ele><time>2026-03-22T15:15:02.68Z</time></trkpt><trkpt lat="44.3019033" lon="9.5636169"><ele>427.0</ele><time>2026-03-22T15:15:03.68Z</time></trkpt><trkpt lat="44.3017765" lon="9.5635772"><ele>427.00000000000006</ele><time>2026-03-22T15:15:04.68Z</time></trkpt><trkpt lat="44.3016632" lon="9.563532"><ele>427.00000000000006</ele><time>2026-03-22T15:15:05.68Z</time></trkpt><trkpt lat="44.3015606" lon="9.5634863"><ele>427.0</ele><time>2026-03-22T15:15:06.68Z</time></trkpt><trkpt lat="44.3014698" lon="9.5634575"><ele>427.0</ele><time>2026-03-22T15:15:07.68Z</time></trkpt><trkpt lat="44.301386" lon="9.5634657"><ele>426.40000000000003</ele><time>2026-03-22T15:15:08.68Z</time></trkpt><trkpt lat="44.301307" lon="9.5635012"><ele>425.80000000000007</ele><time>2026-03-22T15:15:09.68Z</time></trkpt><trkpt lat="44.3012506" lon="9.5636304"><ele>425.2</ele><time>2026-03-22T15:15:10.68Z</time></trkpt><trkpt lat="44.3011814" lon="9.5637648"><ele>424.6</ele><time>2026-03-22T15:15:11.68Z</time></trkpt><trkpt lat="44.301136" lon="9.5639397"><ele>424.0</ele><time>2026-03-22T15:15:12.68Z</time></trkpt><trkpt lat="44.301088" lon="9.5641069"><ele>421.6</ele><time>2026-03-22T15:15:13.68Z</time></trkpt><trkpt lat="44.3010308" lon="9.5642763"><ele>419.2</ele><time>2026-03-22T15:15:14.68Z</time></trkpt><trkpt lat="44.3009713" lon="9.5644289"><ele>416.8</ele><time>2026-03-22T15:15:15.681Z</time></trkpt><trkpt lat="44.3009184" lon="9.5645449"><ele>414.40000000000003</ele><time>2026-03-22T15:15:16.68Z</time></trkpt><trkpt lat="44.300859" lon="9.5646429"><ele>412.0</ele><time>2026-03-22T15:15:17.68Z</time></trkpt><trkpt lat="44.3007768" lon="9.5647057"><ele>407.25</ele><time>2026-03-22T15:15:18.68Z</time></trkpt><trkpt lat="44.3006994" lon="9.5647567"><ele>402.5</ele><time>2026-03-22T15:15:19.68Z</time></trkpt><trkpt lat="44.3005988" lon="9.5648014"><ele>397.75</ele><time>2026-03-22T15:15:20.681Z</time></trkpt><trkpt lat="44.3004379" lon="9.5646047"><ele>393.0</ele><time>2026-03-22T15:15:21.68Z</time></trkpt><trkpt lat="44.3003332" lon="9.5645473"><ele>393.79999999999995</ele><time>2026-03-22T15:15:22.68Z</time></trkpt><trkpt lat="44.3002341" lon="9.5644791"><ele>394.6</ele><time>2026-03-22T15:15:23.68Z</time></trkpt><trkpt lat="44.3001493" lon="9.5644156"><ele>395.4</ele><time>2026-03-22T15:15:24.68Z</time></trkpt><trkpt lat="44.300067" lon="9.5643607"><ele>396.20000000000005</ele><time>2026-03-22T15:15:25.68Z</time></trkpt><trkpt lat="44.2999917" lon="9.5643004"><ele>397.0</ele><time>2026-03-22T15:15:26.68Z</time></trkpt><trkpt lat="44.2999181" lon="9.5642296"><ele>397.00000000000006</ele><time>2026-03-22T15:15:27.68Z</time></trkpt><trkpt lat="44.2998528" lon="9.5641645"><ele>397.0</ele><time>2026-03-22T15:15:28.68Z</time></trkpt><trkpt lat="44.2997871" lon="9.5641071"><ele>397.0</ele><time>2026-03-22T15:15:29.68Z</time></trkpt><trkpt lat="44.2997285" lon="9.5640518"><ele>397.0</ele><time>2026-03-22T15:15:30.68Z</time></trkpt><trkpt lat="44.2996688" lon="9.5639981"><ele>397.00000000000006</ele><time>2026-03-22T15:15:31.68Z</time></trkpt><trkpt lat="44.2995941" lon="9.5639413"><ele>397.0</ele><time>2026-03-22T15:15:32.68Z</time></trkpt><trkpt lat="44.2995166" lon="9.5638477"><ele>396.25</ele><time>2026-03-22T15:15:33.68Z</time></trkpt><trkpt lat="44.2994369" lon="9.5637452"><ele>395.5</ele><time>2026-03-22T15:15:34.68Z</time></trkpt><trkpt lat="44.2993482" lon="9.5636204"><ele>394.75</ele><time>2026-03-22T15:15:35.68Z</time></trkpt><trkpt lat="44.2992609" lon="9.5635015"><ele>394.0</ele><time>2026-03-22T15:15:36.68Z</time></trkpt><trkpt lat="44.2991694" lon="9.5633863"><ele>394.0</ele><time>2026-03-22T15:15:37.68Z</time></trkpt><trkpt lat="44.2990753" lon="9.5633072"><ele>394.0</ele><time>2026-03-22T15:15:38.68Z</time></trkpt><trkpt lat="44.2989719" lon="9.5632574"><ele>394.0</ele><time>2026-03-22T15:15:39.68Z</time></trkpt><trkpt lat="44.2988657" lon="9.5632345"><ele>394.0</ele><time>2026-03-22T15:15:40.68Z</time></trkpt><trkpt lat="44.2987502" lon="9.5632322"><ele>394.0</ele><time>2026-03-22T15:15:41.68Z</time></trkpt><trkpt lat="44.2986291" lon="9.5632338"><ele>396.0</ele><time>2026-03-22T15:15:42.681Z</time></trkpt><trkpt lat="44.2985082" lon="9.5632283"><ele>398.0</ele><time>2026-03-22T15:15:43.68Z</time></trkpt><trkpt lat="44.2983885" lon="9.5631968"><ele>400.0</ele><time>2026-03-22T15:15:44.68Z</time></trkpt><trkpt lat="44.2982808" lon="9.5631278"><ele>402.0</ele><time>2026-03-22T15:15:45.68Z</time></trkpt><trkpt lat="44.2981725" lon="9.5630419"><ele>404.0</ele><time>2026-03-22T15:15:46.68Z</time></trkpt><trkpt lat="44.2980652" lon="9.5629467"><ele>406.0</ele><time>2026-03-22T15:15:47.68Z</time></trkpt><trkpt lat="44.2979586" lon="9.5628467"><ele>408.0</ele><time>2026-03-22T15:15:48.68Z</time></trkpt><trkpt lat="44.2978492" lon="9.5627431"><ele>410.0</ele><time>2026-03-22T15:15:49.681Z</time></trkpt><trkpt lat="44.297733" lon="9.5626475"><ele>412.25</ele><time>2026-03-22T15:15:50.68Z</time></trkpt><trkpt lat="44.2976031" lon="9.5625747"><ele>414.5</ele><time>2026-03-22T15:15:51.68Z</time></trkpt><trkpt lat="44.2974695" lon="9.5624945"><ele>416.75</ele><time>2026-03-22T15:15:52.68Z</time></trkpt><trkpt lat="44.2973392" lon="9.5623812"><ele>419.0</ele><time>2026-03-22T15:15:53.68Z</time></trkpt><trkpt lat="44.2972158" lon="9.5622522"><ele>419.0</ele><time>2026-03-22T15:15:54.681Z</time></trkpt><trkpt lat="44.2970806" lon="9.5621402"><ele>419.0</ele><time>2026-03-22T15:15:55.68Z</time></trkpt><trkpt lat="44.2969367" lon="9.562115"><ele>419.0</ele><time>2026-03-22T15:15:56.68Z</time></trkpt><trkpt lat="44.2968038" lon="9.5620932"><ele>419.0</ele><time>2026-03-22T15:15:57.68Z</time></trkpt><trkpt lat="44.2966628" lon="9.5620792"><ele>419.0</ele><time>2026-03-22T15:15:58.68Z</time></trkpt><trkpt lat="44.2965214" lon="9.5622002"><ele>419.0</ele><time>2026-03-22T15:15:59.68Z</time></trkpt><trkpt lat="44.2963778" lon="9.5622944"><ele>419.0</ele><time>2026-03-22T15:16:00.68Z</time></trkpt><trkpt lat="44.2962896" lon="9.562393"><ele>419.0</ele><time>2026-03-22T15:16:01.68Z</time></trkpt><trkpt lat="44.296199" lon="9.5624359"><ele>419.2</ele><time>2026-03-22T15:16:02.68Z</time></trkpt><trkpt lat="44.2961107" lon="9.5624336"><ele>419.4</ele><time>2026-03-22T15:16:03.68Z</time></trkpt><trkpt lat="44.2960369" lon="9.5623646"><ele>419.6</ele><time>2026-03-22T15:16:04.68Z</time></trkpt><trkpt lat="44.2959595" lon="9.5622585"><ele>419.8</ele><time>2026-03-22T15:16:05.68Z</time></trkpt><trkpt lat="44.2958599" lon="9.5621453"><ele>420.0</ele><time>2026-03-22T15:16:06.68Z</time></trkpt><trkpt lat="44.2957443" lon="9.5620403"><ele>422.0</ele><time>2026-03-22T15:16:07.68Z</time></trkpt><trkpt lat="44.2956221" lon="9.5619429"><ele>424.0</ele><time>2026-03-22T15:16:08.68Z</time></trkpt><trkpt lat="44.2955052" lon="9.5618816"><ele>426.0</ele><time>2026-03-22T15:16:09.68Z</time></trkpt><trkpt lat="44.2953911" lon="9.5618272"><ele>428.0</ele><time>2026-03-22T15:16:10.68Z</time></trkpt><trkpt lat="44.2952959" lon="9.5617446"><ele>428.0</ele><time>2026-03-22T15:16:11.681Z</time></trkpt><trkpt lat="44.2952273" lon="9.5616294"><ele>428.0</ele><time>2026-03-22T15:16:12.68Z</time></trkpt><trkpt lat="44.2951639" lon="9.5615152"><ele>428.0</ele><time>2026-03-22T15:16:13.68Z</time></trkpt><trkpt lat="44.2950897" lon="9.5614021"><ele>428.0</ele><time>2026-03-22T15:16:14.68Z</time></trkpt><trkpt lat="44.2949594" lon="9.5613366"><ele>428.0</ele><time>2026-03-22T15:16:15.68Z</time></trkpt><trkpt lat="44.2948656" lon="9.5612371"><ele>428.0</ele><time>2026-03-22T15:16:16.68Z</time></trkpt><trkpt lat="44.2947887" lon="9.5610811"><ele>428.0</ele><time>2026-03-22T15:16:17.68Z</time></trkpt><trkpt lat="44.2947208" lon="9.560953"><ele>428.0</ele><time>2026-03-22T15:16:18.68Z</time></trkpt><trkpt lat="44.2946827" lon="9.5608319"><ele>429.25</ele><time>2026-03-22T15:16:19.68Z</time></trkpt><trkpt lat="44.2946679" lon="9.5606943"><ele>430.5</ele><time>2026-03-22T15:16:20.68Z</time></trkpt><trkpt lat="44.2946558" lon="9.560533"><ele>431.75</ele><time>2026-03-22T15:16:21.68Z</time></trkpt><trkpt lat="44.2946257" lon="9.5603539"><ele>433.0</ele><time>2026-03-22T15:16:22.68Z</time></trkpt><trkpt lat="44.2945637" lon="9.5601769"><ele>434.33333333333337</ele><time>2026-03-22T15:16:23.68Z</time></trkpt><trkpt lat="44.2944797" lon="9.5599917"><ele>435.66666666666663</ele><time>2026-03-22T15:16:24.68Z</time></trkpt><trkpt lat="44.2943916" lon="9.5598015"><ele>437.0</ele><time>2026-03-22T15:16:25.68Z</time></trkpt><trkpt lat="44.294319" lon="9.5596234"><ele>439.0</ele><time>2026-03-22T15:16:26.681Z</time></trkpt><trkpt lat="44.2942597" lon="9.5594764"><ele>441.00000000000006</ele><time>2026-03-22T15:16:27.681Z</time></trkpt><trkpt lat="44.2941946" lon="9.5593838"><ele>443.00000000000006</ele><time>2026-03-22T15:16:28.68Z</time></trkpt><trkpt lat="44.2941267" lon="9.5593024"><ele>445.0</ele><time>2026-03-22T15:16:29.68Z</time></trkpt><trkpt lat="44.2940095" lon="9.559386"><ele>447.0</ele><time>2026-03-22T15:16:30.68Z</time></trkpt><trkpt lat="44.2939374" lon="9.5594438"><ele>447.5</ele><time>2026-03-22T15:16:31.681Z</time></trkpt><trkpt lat="44.2938652" lon="9.5595186"><ele>448.0</ele><time>2026-03-22T15:16:32.68Z</time></trkpt><trkpt lat="44.2938539" lon="9.5597098"><ele>448.5</ele><time>2026-03-22T15:16:33.68Z</time></trkpt><trkpt lat="44.2938195" lon="9.5598529"><ele>449.0</ele><time>2026-03-22T15:16:34.681Z</time></trkpt><trkpt lat="44.2937887" lon="9.5600221"><ele>449.0</ele><time>2026-03-22T15:16:35.68Z</time></trkpt><trkpt lat="44.2937661" lon="9.560197"><ele>449.0</ele><time>2026-03-22T15:16:36.68Z</time></trkpt><trkpt lat="44.2937511" lon="9.5603796"><ele>449.0</ele><time>2026-03-22T15:16:37.68Z</time></trkpt><trkpt lat="44.2937398" lon="9.5605732"><ele>449.0</ele><time>2026-03-22T15:16:38.68Z</time></trkpt><trkpt lat="44.293729" lon="9.5607541"><ele>448.6</ele><time>2026-03-22T15:16:39.68Z</time></trkpt><trkpt lat="44.2937122" lon="9.5609195"><ele>448.2</ele><time>2026-03-22T15:16:40.68Z</time></trkpt><trkpt lat="44.2936739" lon="9.5610687"><ele>447.80000000000007</ele><time>2026-03-22T15:16:41.68Z</time></trkpt><trkpt lat="44.293627" lon="9.5611847"><ele>447.40000000000003</ele><time>2026-03-22T15:16:42.68Z</time></trkpt><trkpt lat="44.2935644" lon="9.561272"><ele>447.0</ele><time>2026-03-22T15:16:43.68Z</time></trkpt><trkpt lat="44.293471" lon="9.5612749"><ele>445.5</ele><time>2026-03-22T15:16:44.68Z</time></trkpt><trkpt lat="44.2933778" lon="9.5612736"><ele>444.0</ele><time>2026-03-22T15:16:45.68Z</time></trkpt><trkpt lat="44.2933023" lon="9.5612852"><ele>442.5</ele><time>2026-03-22T15:16:46.68Z</time></trkpt><trkpt lat="44.2932354" lon="9.5613786"><ele>441.0</ele><time>2026-03-22T15:16:47.68Z</time></trkpt><trkpt lat="44.293209" lon="9.5614719"><ele>439.5</ele><time>2026-03-22T15:16:48.68Z</time></trkpt><trkpt lat="44.2932179" lon="9.5616018"><ele>438.0</ele><time>2026-03-22T15:16:49.68Z</time></trkpt><trkpt lat="44.2932221" lon="9.5617117"><ele>438.0</ele><time>2026-03-22T15:16:50.68Z</time></trkpt><trkpt lat="44.293191" lon="9.5618056"><ele>438.0</ele><time>2026-03-22T15:16:51.68Z</time></trkpt><trkpt lat="44.2931314" lon="9.5618616"><ele>438.0</ele><time>2026-03-22T15:16:52.681Z</time></trkpt><trkpt lat="44.2930693" lon="9.5618886"><ele>438.0</ele><time>2026-03-22T15:16:53.68Z</time></trkpt><trkpt lat="44.2929972" lon="9.5619157"><ele>438.0</ele><time>2026-03-22T15:16:54.68Z</time></trkpt><trkpt lat="44.2929386" lon="9.561797"><ele>438.0</ele><time>2026-03-22T15:16:55.68Z</time></trkpt><trkpt lat="44.2928726" lon="9.5617028"><ele>438.79999999999995</ele><time>2026-03-22T15:16:56.68Z</time></trkpt><trkpt lat="44.2928247" lon="9.5615795"><ele>439.59999999999997</ele><time>2026-03-22T15:16:57.68Z</time></trkpt><trkpt lat="44.2927777" lon="9.5614775"><ele>440.40000000000003</ele><time>2026-03-22T15:16:58.68Z</time></trkpt><trkpt lat="44.2927061" lon="9.5614173"><ele>441.20000000000005</ele><time>2026-03-22T15:16:59.68Z</time></trkpt><trkpt lat="44.2926159" lon="9.5613815"><ele>442.0</ele><time>2026-03-22T15:17:00.68Z</time></trkpt><trkpt lat="44.2925079" lon="9.5613742"><ele>442.0</ele><time>2026-03-22T15:17:01.68Z</time></trkpt><trkpt lat="44.2923816" lon="9.5614018"><ele>442.0</ele><time>2026-03-22T15:17:02.68Z</time></trkpt><trkpt lat="44.2922572" lon="9.5614284"><ele>442.0</ele><time>2026-03-22T15:17:03.68Z</time></trkpt><trkpt lat="44.2921146" lon="9.561457"><ele>442.0</ele><time>2026-03-22T15:17:04.68Z</time></trkpt><trkpt lat="44.2919812" lon="9.5614973"><ele>442.6</ele><time>2026-03-22T15:17:05.68Z</time></trkpt><trkpt lat="44.2918473" lon="9.5615684"><ele>443.20000000000005</ele><time>2026-03-22T15:17:06.68Z</time></trkpt><trkpt lat="44.2917357" lon="9.5616303"><ele>443.8</ele><time>2026-03-22T15:17:07.68Z</time></trkpt><trkpt lat="44.2916466" lon="9.5616379"><ele>444.4</ele><time>2026-03-22T15:17:08.68Z</time></trkpt><trkpt lat="44.291557" lon="9.5616557"><ele>445.0</ele><time>2026-03-22T15:17:09.68Z</time></trkpt><trkpt lat="44.2915266" lon="9.5615045"><ele>445.0</ele><time>2026-03-22T15:17:11.68Z</time></trkpt><trkpt lat="44.2915573" lon="9.5614078"><ele>445.0</ele><time>2026-03-22T15:17:12.681Z</time></trkpt><trkpt lat="44.2915904" lon="9.561298"><ele>445.0</ele><time>2026-03-22T15:17:13.68Z</time></trkpt><trkpt lat="44.2916582" lon="9.5611881"><ele>445.0</ele><time>2026-03-22T15:17:14.68Z</time></trkpt><trkpt lat="44.291726" lon="9.5610527"><ele>445.0</ele><time>2026-03-22T15:17:15.68Z</time></trkpt><trkpt lat="44.2917846" lon="9.5609047"><ele>447.8</ele><time>2026-03-22T15:17:16.68Z</time></trkpt><trkpt lat="44.2918311" lon="9.5607772"><ele>450.6</ele><time>2026-03-22T15:17:17.68Z</time></trkpt><trkpt lat="44.29186" lon="9.5606674"><ele>453.4</ele><time>2026-03-22T15:17:18.68Z</time></trkpt><trkpt lat="44.291885" lon="9.5605522"><ele>456.2</ele><time>2026-03-22T15:17:19.68Z</time></trkpt><trkpt lat="44.291825" lon="9.5604964"><ele>459.0</ele><time>2026-03-22T15:17:20.681Z</time></trkpt><trkpt lat="44.2917187" lon="9.5604107"><ele>459.0</ele><time>2026-03-22T15:17:22.68Z</time></trkpt><trkpt lat="44.2916359" lon="9.5603893"><ele>459.0</ele><time>2026-03-22T15:17:23.68Z</time></trkpt><trkpt lat="44.2914768" lon="9.5606019"><ele>459.0</ele><time>2026-03-22T15:17:24.68Z</time></trkpt><trkpt lat="44.2913717" lon="9.5606646"><ele>459.0</ele><time>2026-03-22T15:17:25.681Z</time></trkpt><trkpt lat="44.2912527" lon="9.5607288"><ele>459.75</ele><time>2026-03-22T15:17:26.68Z</time></trkpt><trkpt lat="44.2911265" lon="9.5607481"><ele>460.5</ele><time>2026-03-22T15:17:27.68Z</time></trkpt><trkpt lat="44.2910029" lon="9.5607235"><ele>461.25</ele><time>2026-03-22T15:17:28.68Z</time></trkpt><trkpt lat="44.2908962" lon="9.5606728"><ele>462.0</ele><time>2026-03-22T15:17:29.68Z</time></trkpt><trkpt lat="44.2907833" lon="9.5606373"><ele>462.0</ele><time>2026-03-22T15:17:30.68Z</time></trkpt><trkpt lat="44.2906607" lon="9.5606057"><ele>462.00000000000006</ele><time>2026-03-22T15:17:31.68Z</time></trkpt><trkpt lat="44.2905468" lon="9.5606512"><ele>462.00000000000006</ele><time>2026-03-22T15:17:32.68Z</time></trkpt><trkpt lat="44.2904508" lon="9.5606887"><ele>462.0</ele><time>2026-03-22T15:17:33.68Z</time></trkpt><trkpt lat="44.2903797" lon="9.5606422"><ele>462.0</ele><time>2026-03-22T15:17:34.68Z</time></trkpt><trkpt lat="44.2903227" lon="9.5605827"><ele>461.8</ele><time>2026-03-22T15:17:35.68Z</time></trkpt><trkpt lat="44.2902706" lon="9.5604975"><ele>461.6</ele><time>2026-03-22T15:17:36.68Z</time></trkpt><trkpt lat="44.290208" lon="9.5604307"><ele>461.40000000000003</ele><time>2026-03-22T15:17:37.68Z</time></trkpt><trkpt lat="44.2901" lon="9.5604503"><ele>461.20000000000005</ele><time>2026-03-22T15:17:38.68Z</time></trkpt><trkpt lat="44.2900148" lon="9.5604646"><ele>461.0</ele><time>2026-03-22T15:17:39.68Z</time></trkpt><trkpt lat="44.2899307" lon="9.560541"><ele>460.99999999999994</ele><time>2026-03-22T15:17:40.68Z</time></trkpt><trkpt lat="44.2898436" lon="9.5606036"><ele>461.0</ele><time>2026-03-22T15:17:41.68Z</time></trkpt><trkpt lat="44.2897622" lon="9.5606574"><ele>461.0</ele><time>2026-03-22T15:17:42.681Z</time></trkpt><trkpt lat="44.2896725" lon="9.5606885"><ele>461.0</ele><time>2026-03-22T15:17:43.68Z</time></trkpt><trkpt lat="44.2896038" lon="9.5606465"><ele>460.99999999999994</ele><time>2026-03-22T15:17:44.68Z</time></trkpt><trkpt lat="44.2895687" lon="9.5605649"><ele>461.0</ele><time>2026-03-22T15:17:45.68Z</time></trkpt><trkpt lat="44.289538" lon="9.5604396"><ele>464.75</ele><time>2026-03-22T15:17:46.68Z</time></trkpt><trkpt lat="44.2894951" lon="9.5602967"><ele>468.5</ele><time>2026-03-22T15:17:47.68Z</time></trkpt><trkpt lat="44.2894382" lon="9.5601437"><ele>472.25</ele><time>2026-03-22T15:17:48.68Z</time></trkpt><trkpt lat="44.2893713" lon="9.5599834"><ele>476.0</ele><time>2026-03-22T15:17:49.68Z</time></trkpt><trkpt lat="44.2893068" lon="9.5598221"><ele>476.0</ele><time>2026-03-22T15:17:50.681Z</time></trkpt><trkpt lat="44.2892624" lon="9.5596557"><ele>476.0</ele><time>2026-03-22T15:17:51.68Z</time></trkpt><trkpt lat="44.2892518" lon="9.5594712"><ele>476.0</ele><time>2026-03-22T15:17:52.68Z</time></trkpt><trkpt lat="44.289226" lon="9.5593059"><ele>476.0</ele><time>2026-03-22T15:17:53.68Z</time></trkpt><trkpt lat="44.2891488" lon="9.5591757"><ele>478.6</ele><time>2026-03-22T15:17:54.68Z</time></trkpt><trkpt lat="44.2890706" lon="9.5590372"><ele>481.20000000000005</ele><time>2026-03-22T15:17:55.68Z</time></trkpt><trkpt lat="44.2889996" lon="9.5589255"><ele>483.79999999999995</ele><time>2026-03-22T15:17:56.68Z</time></trkpt><trkpt lat="44.2889696" lon="9.5587971"><ele>486.4</ele><time>2026-03-22T15:17:57.68Z</time></trkpt><trkpt lat="44.2889754" lon="9.5586705"><ele>489.0</ele><time>2026-03-22T15:17:58.681Z</time></trkpt><trkpt lat="44.2889927" lon="9.5585558"><ele>491.6</ele><time>2026-03-22T15:17:59.68Z</time></trkpt><trkpt lat="44.2889962" lon="9.5584559"><ele>494.2</ele><time>2026-03-22T15:18:00.68Z</time></trkpt><trkpt lat="44.2889875" lon="9.5583222"><ele>496.80000000000007</ele><time>2026-03-22T15:18:02.68Z</time></trkpt><trkpt lat="44.2889237" lon="9.5582699"><ele>499.40000000000003</ele><time>2026-03-22T15:18:03.681Z</time></trkpt><trkpt lat="44.2887853" lon="9.558251"><ele>502.0</ele><time>2026-03-22T15:18:04.68Z</time></trkpt><trkpt lat="44.2886956" lon="9.5582544"><ele>502.0</ele><time>2026-03-22T15:18:05.68Z</time></trkpt><trkpt lat="44.2885919" lon="9.5582324"><ele>502.00000000000006</ele><time>2026-03-22T15:18:06.68Z</time></trkpt><trkpt lat="44.2885183" lon="9.5581639"><ele>502.00000000000006</ele><time>2026-03-22T15:18:07.68Z</time></trkpt><trkpt lat="44.2884467" lon="9.5582479"><ele>502.0</ele><time>2026-03-22T15:18:08.68Z</time></trkpt><trkpt lat="44.2884001" lon="9.5583429"><ele>502.0</ele><time>2026-03-22T15:18:09.681Z</time></trkpt><trkpt lat="44.2883805" lon="9.5585858"><ele>500.0</ele><time>2026-03-22T15:18:11.68Z</time></trkpt><trkpt lat="44.2884843" lon="9.5587938"><ele>498.0</ele><time>2026-03-22T15:18:12.68Z</time></trkpt><trkpt lat="44.2885036" lon="9.5589823"><ele>496.0</ele><time>2026-03-22T15:18:13.68Z</time></trkpt><trkpt lat="44.2885111" lon="9.5591339"><ele>494.0</ele><time>2026-03-22T15:18:14.68Z</time></trkpt><trkpt lat="44.2884985" lon="9.5592512"><ele>494.0</ele><time>2026-03-22T15:18:15.681Z</time></trkpt><trkpt lat="44.2884892" lon="9.5593695"><ele>494.0</ele><time>2026-03-22T15:18:16.68Z</time></trkpt><trkpt lat="44.2884242" lon="9.5594852"><ele>494.0</ele><time>2026-03-22T15:18:17.68Z</time></trkpt><trkpt lat="44.2883065" lon="9.5594898"><ele>494.0</ele><time>2026-03-22T15:18:19.68Z</time></trkpt><trkpt lat="44.2882064" lon="9.559414"><ele>494.0</ele><time>2026-03-22T15:18:20.681Z</time></trkpt><trkpt lat="44.2880949" lon="9.5593012"><ele>498.0</ele><time>2026-03-22T15:18:21.68Z</time></trkpt><trkpt lat="44.2880024" lon="9.5591073"><ele>502.0</ele><time>2026-03-22T15:18:22.68Z</time></trkpt><trkpt lat="44.2879084" lon="9.5589946"><ele>506.0</ele><time>2026-03-22T15:18:23.68Z</time></trkpt><trkpt lat="44.287835" lon="9.5589472"><ele>510.0</ele><time>2026-03-22T15:18:24.68Z</time></trkpt><trkpt lat="44.2877253" lon="9.5590675"><ele>510.0</ele><time>2026-03-22T15:18:25.68Z</time></trkpt><trkpt lat="44.2876831" lon="9.5591726"><ele>510.0</ele><time>2026-03-22T15:18:26.68Z</time></trkpt><trkpt lat="44.287615" lon="9.5592608"><ele>510.0</ele><time>2026-03-22T15:18:27.68Z</time></trkpt><trkpt lat="44.2874899" lon="9.5592601"><ele>510.0</ele><time>2026-03-22T15:18:28.68Z</time></trkpt><trkpt lat="44.2873957" lon="9.5592982"><ele>510.0</ele><time>2026-03-22T15:18:29.68Z</time></trkpt><trkpt lat="44.2873092" lon="9.5592506"><ele>511.0</ele><time>2026-03-22T15:18:30.68Z</time></trkpt><trkpt lat="44.287228" lon="9.5592794"><ele>512.0</ele><time>2026-03-22T15:18:31.68Z</time></trkpt><trkpt lat="44.2871539" lon="9.5593039"><ele>513.0</ele><time>2026-03-22T15:18:32.68Z</time></trkpt><trkpt lat="44.2870877" lon="9.5593669"><ele>514.0</ele><time>2026-03-22T15:18:33.681Z</time></trkpt><trkpt lat="44.2870453" lon="9.5595208"><ele>515.0</ele><time>2026-03-22T15:18:34.68Z</time></trkpt><trkpt lat="44.2870294" lon="9.5597319"><ele>513.3333333333333</ele><time>2026-03-22T15:18:35.681Z</time></trkpt><trkpt lat="44.2869805" lon="9.5598286"><ele>511.66666666666663</ele><time>2026-03-22T15:18:36.68Z</time></trkpt><trkpt lat="44.2869079" lon="9.5598885"><ele>510.0</ele><time>2026-03-22T15:18:37.68Z</time></trkpt><trkpt lat="44.2868474" lon="9.5599449"><ele>508.33333333333337</ele><time>2026-03-22T15:18:38.68Z</time></trkpt><trkpt lat="44.28677" lon="9.5599697"><ele>506.6666666666667</ele><time>2026-03-22T15:18:39.68Z</time></trkpt><trkpt lat="44.2867041" lon="9.5598444"><ele>505.0</ele><time>2026-03-22T15:18:40.68Z</time></trkpt><trkpt lat="44.2866675" lon="9.5597149"><ele>505.0</ele><time>2026-03-22T15:18:41.68Z</time></trkpt><trkpt lat="44.2866611" lon="9.5595534"><ele>505.0</ele><time>2026-03-22T15:18:42.68Z</time></trkpt><trkpt lat="44.286659" lon="9.5594204"><ele>505.0</ele><time>2026-03-22T15:18:43.68Z</time></trkpt><trkpt lat="44.2867699" lon="9.5592155"><ele>505.0</ele><time>2026-03-22T15:18:44.68Z</time></trkpt><trkpt lat="44.2867564" lon="9.5590312"><ele>507.5</ele><time>2026-03-22T15:18:45.68Z</time></trkpt><trkpt lat="44.2867345" lon="9.5588526"><ele>510.0</ele><time>2026-03-22T15:18:46.68Z</time></trkpt><trkpt lat="44.2866665" lon="9.5586844"><ele>512.5</ele><time>2026-03-22T15:18:47.68Z</time></trkpt><trkpt lat="44.2865778" lon="9.5585308"><ele>515.0</ele><time>2026-03-22T15:18:48.68Z</time></trkpt><trkpt lat="44.2864885" lon="9.5583729"><ele>514.6666666666666</ele><time>2026-03-22T15:18:49.681Z</time></trkpt><trkpt lat="44.2864078" lon="9.558191"><ele>514.3333333333334</ele><time>2026-03-22T15:18:50.68Z</time></trkpt><trkpt lat="44.2863321" lon="9.5579961"><ele>514.0</ele><time>2026-03-22T15:18:51.68Z</time></trkpt><trkpt lat="44.2862794" lon="9.557775"><ele>518.25</ele><time>2026-03-22T15:18:52.68Z</time></trkpt><trkpt lat="44.2862315" lon="9.5575829"><ele>522.5</ele><time>2026-03-22T15:18:53.68Z</time></trkpt><trkpt lat="44.2861947" lon="9.5574351"><ele>526.75</ele><time>2026-03-22T15:18:54.681Z</time></trkpt><trkpt lat="44.2861448" lon="9.5573132"><ele>531.0</ele><time>2026-03-22T15:18:55.68Z</time></trkpt><trkpt lat="44.2860628" lon="9.5572355"><ele>531.0</ele><time>2026-03-22T15:18:56.68Z</time></trkpt><trkpt lat="44.285965" lon="9.5571779"><ele>531.0</ele><time>2026-03-22T15:18:57.68Z</time></trkpt><trkpt lat="44.2858663" lon="9.557124"><ele>531.0</ele><time>2026-03-22T15:18:58.68Z</time></trkpt><trkpt lat="44.2858015" lon="9.5570023"><ele>531.0</ele><time>2026-03-22T15:18:59.681Z</time></trkpt><trkpt lat="44.2857424" lon="9.5569072"><ele>531.0</ele><time>2026-03-22T15:19:00.68Z</time></trkpt><trkpt lat="44.2856651" lon="9.5568217"><ele>534.0</ele><time>2026-03-22T15:19:01.68Z</time></trkpt><trkpt lat="44.2855915" lon="9.5568041"><ele>537.0</ele><time>2026-03-22T15:19:02.68Z</time></trkpt><trkpt lat="44.2855072" lon="9.5567844"><ele>540.0</ele><time>2026-03-22T15:19:03.681Z</time></trkpt><trkpt lat="44.2854146" lon="9.5568246"><ele>543.0</ele><time>2026-03-22T15:19:04.68Z</time></trkpt><trkpt lat="44.2853385" lon="9.5569751"><ele>546.0</ele><time>2026-03-22T15:19:05.68Z</time></trkpt><trkpt lat="44.2852831" lon="9.5572295"><ele>546.0</ele><time>2026-03-22T15:19:06.68Z</time></trkpt><trkpt lat="44.2852766" lon="9.5574569"><ele>546.0</ele><time>2026-03-22T15:19:07.68Z</time></trkpt><trkpt lat="44.2852059" lon="9.5575918"><ele>546.0</ele><time>2026-03-22T15:19:08.681Z</time></trkpt><trkpt lat="44.2851094" lon="9.5576682"><ele>546.0</ele><time>2026-03-22T15:19:09.68Z</time></trkpt><trkpt lat="44.2850237" lon="9.5577198"><ele>546.0</ele><time>2026-03-22T15:19:10.68Z</time></trkpt><trkpt lat="44.2849268" lon="9.5576541"><ele>546.0</ele><time>2026-03-22T15:19:11.68Z</time></trkpt><trkpt lat="44.2848285" lon="9.5575908"><ele>546.0</ele><time>2026-03-22T15:19:12.681Z</time></trkpt><trkpt lat="44.2847283" lon="9.5575333"><ele>546.0</ele><time>2026-03-22T15:19:13.68Z</time></trkpt><trkpt lat="44.2846154" lon="9.5575596"><ele>546.0</ele><time>2026-03-22T15:19:14.68Z</time></trkpt><trkpt lat="44.2845105" lon="9.5575694"><ele>545.2</ele><time>2026-03-22T15:19:15.68Z</time></trkpt><trkpt lat="44.2844228" lon="9.5576961"><ele>544.4000000000001</ele><time>2026-03-22T15:19:16.68Z</time></trkpt><trkpt lat="44.2843463" lon="9.5577672"><ele>543.6</ele><time>2026-03-22T15:19:17.68Z</time></trkpt><trkpt lat="44.2842794" lon="9.55784"><ele>542.8000000000001</ele><time>2026-03-22T15:19:18.68Z</time></trkpt><trkpt lat="44.2842062" lon="9.5578746"><ele>542.0</ele><time>2026-03-22T15:19:19.68Z</time></trkpt><trkpt lat="44.2841306" lon="9.5578712"><ele>542.2</ele><time>2026-03-22T15:19:20.68Z</time></trkpt><trkpt lat="44.2840345" lon="9.5578638"><ele>542.4000000000001</ele><time>2026-03-22T15:19:21.681Z</time></trkpt><trkpt lat="44.2839271" lon="9.557834"><ele>542.5999999999999</ele><time>2026-03-22T15:19:22.68Z</time></trkpt><trkpt lat="44.2838641" lon="9.5576851"><ele>542.8</ele><time>2026-03-22T15:19:23.68Z</time></trkpt><trkpt lat="44.2837811" lon="9.5576077"><ele>543.0</ele><time>2026-03-22T15:19:24.68Z</time></trkpt><trkpt lat="44.283716" lon="9.5575272"><ele>543.0</ele><time>2026-03-22T15:19:25.681Z</time></trkpt><trkpt lat="44.2837439" lon="9.5574089"><ele>543.0</ele><time>2026-03-22T15:19:26.68Z</time></trkpt><trkpt lat="44.2837649" lon="9.5572996"><ele>543.0</ele><time>2026-03-22T15:19:27.68Z</time></trkpt><trkpt lat="44.2838174" lon="9.5571537"><ele>543.0</ele><time>2026-03-22T15:19:28.68Z</time></trkpt><trkpt lat="44.2838771" lon="9.5570084"><ele>543.0</ele><time>2026-03-22T15:19:29.68Z</time></trkpt><trkpt lat="44.283917" lon="9.5568656"><ele>542.6</ele><time>2026-03-22T15:19:30.68Z</time></trkpt><trkpt lat="44.2839659" lon="9.5567236"><ele>542.1999999999999</ele><time>2026-03-22T15:19:31.68Z</time></trkpt><trkpt lat="44.2840081" lon="9.5565881"><ele>541.8</ele><time>2026-03-22T15:19:32.68Z</time></trkpt><trkpt lat="44.2840302" lon="9.5564371"><ele>541.4</ele><time>2026-03-22T15:19:33.68Z</time></trkpt><trkpt lat="44.28404" lon="9.5562853"><ele>541.0</ele><time>2026-03-22T15:19:34.68Z</time></trkpt><trkpt lat="44.2840482" lon="9.5561383"><ele>541.0</ele><time>2026-03-22T15:19:35.68Z</time></trkpt><trkpt lat="44.2840679" lon="9.5560198"><ele>541.0</ele><time>2026-03-22T15:19:36.68Z</time></trkpt><trkpt lat="44.284114" lon="9.5559111"><ele>541.0</ele><time>2026-03-22T15:19:37.68Z</time></trkpt><trkpt lat="44.2841827" lon="9.5558336"><ele>541.0</ele><time>2026-03-22T15:19:38.68Z</time></trkpt><trkpt lat="44.2842533" lon="9.5557591"><ele>541.0</ele><time>2026-03-22T15:19:39.68Z</time></trkpt><trkpt lat="44.2842762" lon="9.5556533"><ele>541.0</ele><time>2026-03-22T15:19:40.68Z</time></trkpt><trkpt lat="44.284305" lon="9.5555633"><ele>541.0</ele><time>2026-03-22T15:19:41.68Z</time></trkpt><trkpt lat="44.2842285" lon="9.5553791"><ele>541.0</ele><time>2026-03-22T15:19:43.68Z</time></trkpt><trkpt lat="44.2841381" lon="9.5553372"><ele>541.0</ele><time>2026-03-22T15:19:44.68Z</time></trkpt><trkpt lat="44.2840655" lon="9.5553826"><ele>541.0</ele><time>2026-03-22T15:19:45.68Z</time></trkpt><trkpt lat="44.2839599" lon="9.5555423"><ele>537.8</ele><time>2026-03-22T15:19:46.68Z</time></trkpt><trkpt lat="44.2839035" lon="9.5557162"><ele>534.6</ele><time>2026-03-22T15:19:47.68Z</time></trkpt><trkpt lat="44.2838537" lon="9.5558484"><ele>531.4</ele><time>2026-03-22T15:19:48.68Z</time></trkpt><trkpt lat="44.2838137" lon="9.5559725"><ele>528.2</ele><time>2026-03-22T15:19:49.68Z</time></trkpt><trkpt lat="44.283803" lon="9.5561033"><ele>525.0</ele><time>2026-03-22T15:19:50.681Z</time></trkpt><trkpt lat="44.2837805" lon="9.5562522"><ele>525.0</ele><time>2026-03-22T15:19:51.681Z</time></trkpt><trkpt lat="44.2837473" lon="9.556391"><ele>525.0</ele><time>2026-03-22T15:19:52.681Z</time></trkpt><trkpt lat="44.2836967" lon="9.5565252"><ele>525.0</ele><time>2026-03-22T15:19:53.68Z</time></trkpt><trkpt lat="44.283602" lon="9.5566427"><ele>525.0</ele><time>2026-03-22T15:19:54.68Z</time></trkpt><trkpt lat="44.2835305" lon="9.5567457"><ele>525.0</ele><time>2026-03-22T15:19:55.68Z</time></trkpt><trkpt lat="44.2834544" lon="9.5568464"><ele>525.0</ele><time>2026-03-22T15:19:56.68Z</time></trkpt><trkpt lat="44.283375" lon="9.5569273"><ele>525.0</ele><time>2026-03-22T15:19:57.68Z</time></trkpt><trkpt lat="44.2832642" lon="9.5569779"><ele>525.0</ele><time>2026-03-22T15:19:58.68Z</time></trkpt><trkpt lat="44.2831583" lon="9.5570043"><ele>525.0</ele><time>2026-03-22T15:19:59.68Z</time></trkpt><trkpt lat="44.2830434" lon="9.5570335"><ele>525.0</ele><time>2026-03-22T15:20:00.68Z</time></trkpt><trkpt lat="44.2829318" lon="9.5570451"><ele>526.8</ele><time>2026-03-22T15:20:01.681Z</time></trkpt><trkpt lat="44.2828251" lon="9.5570747"><ele>528.6</ele><time>2026-03-22T15:20:02.68Z</time></trkpt><trkpt lat="44.2827216" lon="9.5570916"><ele>530.4</ele><time>2026-03-22T15:20:03.68Z</time></trkpt><trkpt lat="44.2826176" lon="9.5571086"><ele>532.2</ele><time>2026-03-22T15:20:04.68Z</time></trkpt><trkpt lat="44.2825063" lon="9.5571302"><ele>534.0</ele><time>2026-03-22T15:20:05.68Z</time></trkpt><trkpt lat="44.2823933" lon="9.557154"><ele>534.0</ele><time>2026-03-22T15:20:06.68Z</time></trkpt><trkpt lat="44.2822896" lon="9.5571726"><ele>534.0</ele><time>2026-03-22T15:20:07.68Z</time></trkpt><trkpt lat="44.2821736" lon="9.5571903"><ele>534.0</ele><time>2026-03-22T15:20:08.68Z</time></trkpt><trkpt lat="44.2820577" lon="9.5571973"><ele>534.0</ele><time>2026-03-22T15:20:09.68Z</time></trkpt><trkpt lat="44.2819241" lon="9.5571818"><ele>532.75</ele><time>2026-03-22T15:20:10.68Z</time></trkpt><trkpt lat="44.2817978" lon="9.5571638"><ele>531.5</ele><time>2026-03-22T15:20:11.68Z</time></trkpt><trkpt lat="44.2816705" lon="9.557112"><ele>530.25</ele><time>2026-03-22T15:20:12.68Z</time></trkpt><trkpt lat="44.2815509" lon="9.5570644"><ele>529.0</ele><time>2026-03-22T15:20:13.68Z</time></trkpt><trkpt lat="44.281442" lon="9.5570219"><ele>527.4</ele><time>2026-03-22T15:20:14.68Z</time></trkpt><trkpt lat="44.2813393" lon="9.5569839"><ele>525.8</ele><time>2026-03-22T15:20:15.68Z</time></trkpt><trkpt lat="44.2812377" lon="9.5569474"><ele>524.2</ele><time>2026-03-22T15:20:16.68Z</time></trkpt><trkpt lat="44.2811175" lon="9.5569186"><ele>522.6</ele><time>2026-03-22T15:20:17.68Z</time></trkpt><trkpt lat="44.2810068" lon="9.556875"><ele>521.0</ele><time>2026-03-22T15:20:18.681Z</time></trkpt><trkpt lat="44.2808891" lon="9.5568284"><ele>521.0</ele><time>2026-03-22T15:20:19.681Z</time></trkpt><trkpt lat="44.280784" lon="9.5567705"><ele>521.0</ele><time>2026-03-22T15:20:20.68Z</time></trkpt><trkpt lat="44.2807406" lon="9.5566342"><ele>521.0</ele><time>2026-03-22T15:20:21.68Z</time></trkpt><trkpt lat="44.2806614" lon="9.5565338"><ele>521.0</ele><time>2026-03-22T15:20:22.68Z</time></trkpt><trkpt lat="44.2805758" lon="9.5563751"><ele>521.0</ele><time>2026-03-22T15:20:24.68Z</time></trkpt><trkpt lat="44.2807492" lon="9.5563368"><ele>521.0</ele><time>2026-03-22T15:20:25.68Z</time></trkpt><trkpt lat="44.2808459" lon="9.5562387"><ele>521.0</ele><time>2026-03-22T15:20:27.68Z</time></trkpt><trkpt lat="44.2809367" lon="9.5562231"><ele>521.0</ele><time>2026-03-22T15:20:28.68Z</time></trkpt><trkpt lat="44.281003" lon="9.5561525"><ele>519.0</ele><time>2026-03-22T15:20:29.68Z</time></trkpt><trkpt lat="44.2810871" lon="9.5560878"><ele>517.0</ele><time>2026-03-22T15:20:30.68Z</time></trkpt><trkpt lat="44.281128" lon="9.5559471"><ele>515.0</ele><time>2026-03-22T15:20:31.68Z</time></trkpt><trkpt lat="44.2811301" lon="9.5557569"><ele>513.0</ele><time>2026-03-22T15:20:32.68Z</time></trkpt><trkpt lat="44.2811656" lon="9.5556005"><ele>513.0</ele><time>2026-03-22T15:20:33.68Z</time></trkpt><trkpt lat="44.2811957" lon="9.5554374"><ele>513.0</ele><time>2026-03-22T15:20:34.68Z</time></trkpt><trkpt lat="44.2812179" lon="9.5552985"><ele>513.0</ele><time>2026-03-22T15:20:35.68Z</time></trkpt><trkpt lat="44.281244" lon="9.5551823"><ele>513.0</ele><time>2026-03-22T15:20:36.68Z</time></trkpt><trkpt lat="44.2812673" lon="9.5550642"><ele>513.0</ele><time>2026-03-22T15:20:37.681Z</time></trkpt><trkpt lat="44.2812866" lon="9.5549446"><ele>511.3333333333333</ele><time>2026-03-22T15:20:38.68Z</time></trkpt><trkpt lat="44.2813012" lon="9.5548275"><ele>509.66666666666663</ele><time>2026-03-22T15:20:39.68Z</time></trkpt><trkpt lat="44.2813093" lon="9.5546994"><ele>508.0</ele><time>2026-03-22T15:20:40.68Z</time></trkpt><trkpt lat="44.28131" lon="9.5545697"><ele>506.3333333333333</ele><time>2026-03-22T15:20:41.68Z</time></trkpt><trkpt lat="44.281305" lon="9.5544617"><ele>504.66666666666663</ele><time>2026-03-22T15:20:42.681Z</time></trkpt><trkpt lat="44.2812779" lon="9.5543737"><ele>503.0</ele><time>2026-03-22T15:20:43.68Z</time></trkpt><trkpt lat="44.2812287" lon="9.5543004"><ele>498.25</ele><time>2026-03-22T15:20:44.68Z</time></trkpt><trkpt lat="44.2811437" lon="9.5542126"><ele>493.5</ele><time>2026-03-22T15:20:46.68Z</time></trkpt><trkpt lat="44.2810663" lon="9.5542966"><ele>488.75</ele><time>2026-03-22T15:20:47.68Z</time></trkpt><trkpt lat="44.280957" lon="9.5543635"><ele>484.0</ele><time>2026-03-22T15:20:48.68Z</time></trkpt><trkpt lat="44.2808307" lon="9.55451"><ele>487.75</ele><time>2026-03-22T15:20:49.68Z</time></trkpt><trkpt lat="44.280729" lon="9.5546255"><ele>491.5</ele><time>2026-03-22T15:20:50.68Z</time></trkpt><trkpt lat="44.2806184" lon="9.5547307"><ele>495.25</ele><time>2026-03-22T15:20:51.68Z</time></trkpt><trkpt lat="44.2805098" lon="9.5548483"><ele>499.0</ele><time>2026-03-22T15:20:52.68Z</time></trkpt><trkpt lat="44.2803945" lon="9.5549414"><ele>499.0</ele><time>2026-03-22T15:20:53.68Z</time></trkpt><trkpt lat="44.2802717" lon="9.5550297"><ele>499.0</ele><time>2026-03-22T15:20:54.68Z</time></trkpt><trkpt lat="44.2801536" lon="9.5551411"><ele>499.0</ele><time>2026-03-22T15:20:55.68Z</time></trkpt><trkpt lat="44.2800405" lon="9.5552475"><ele>499.0</ele><time>2026-03-22T15:20:56.68Z</time></trkpt><trkpt lat="44.2799278" lon="9.5553526"><ele>501.25</ele><time>2026-03-22T15:20:57.68Z</time></trkpt><trkpt lat="44.2798105" lon="9.5554561"><ele>503.5</ele><time>2026-03-22T15:20:58.68Z</time></trkpt><trkpt lat="44.2796898" lon="9.5555586"><ele>505.75</ele><time>2026-03-22T15:20:59.68Z</time></trkpt><trkpt lat="44.2795755" lon="9.5556584"><ele>508.0</ele><time>2026-03-22T15:21:00.68Z</time></trkpt><trkpt lat="44.2794593" lon="9.5557625"><ele>508.0</ele><time>2026-03-22T15:21:01.68Z</time></trkpt><trkpt lat="44.2793472" lon="9.5558488"><ele>508.0</ele><time>2026-03-22T15:21:02.681Z</time></trkpt><trkpt lat="44.2792384" lon="9.5559254"><ele>508.0</ele><time>2026-03-22T15:21:03.68Z</time></trkpt><trkpt lat="44.279114" lon="9.5559681"><ele>508.0</ele><time>2026-03-22T15:21:04.68Z</time></trkpt><trkpt lat="44.2789772" lon="9.5559727"><ele>510.0</ele><time>2026-03-22T15:21:05.68Z</time></trkpt><trkpt lat="44.2788416" lon="9.5559642"><ele>512.0</ele><time>2026-03-22T15:21:06.68Z</time></trkpt><trkpt lat="44.2787102" lon="9.5559306"><ele>514.0</ele><time>2026-03-22T15:21:07.68Z</time></trkpt><trkpt lat="44.2785931" lon="9.5558834"><ele>516.0</ele><time>2026-03-22T15:21:08.68Z</time></trkpt><trkpt lat="44.2784788" lon="9.5558588"><ele>516.0</ele><time>2026-03-22T15:21:09.68Z</time></trkpt><trkpt lat="44.2783506" lon="9.5559013"><ele>516.0</ele><time>2026-03-22T15:21:10.681Z</time></trkpt><trkpt lat="44.2782314" lon="9.5559316"><ele>516.0</ele><time>2026-03-22T15:21:11.68Z</time></trkpt><trkpt lat="44.2781166" lon="9.5559584"><ele>516.0</ele><time>2026-03-22T15:21:12.68Z</time></trkpt><trkpt lat="44.2780399" lon="9.5558887"><ele>522.6666666666666</ele><time>2026-03-22T15:21:13.68Z</time></trkpt><trkpt lat="44.2778887" lon="9.5557576"><ele>529.3333333333333</ele><time>2026-03-22T15:21:14.681Z</time></trkpt><trkpt lat="44.2777804" lon="9.5556761"><ele>536.0</ele><time>2026-03-22T15:21:15.68Z</time></trkpt><trkpt lat="44.2776549" lon="9.5555175"><ele>536.0</ele><time>2026-03-22T15:21:16.68Z</time></trkpt><trkpt lat="44.2774999" lon="9.5554229"><ele>536.0</ele><time>2026-03-22T15:21:17.68Z</time></trkpt><trkpt lat="44.2773535" lon="9.5553154"><ele>536.0</ele><time>2026-03-22T15:21:18.68Z</time></trkpt><trkpt lat="44.2772031" lon="9.5552369"><ele>533.25</ele><time>2026-03-22T15:21:19.68Z</time></trkpt><trkpt lat="44.2770611" lon="9.5551414"><ele>530.5</ele><time>2026-03-22T15:21:20.68Z</time></trkpt><trkpt lat="44.276913" lon="9.5550785"><ele>527.75</ele><time>2026-03-22T15:21:21.68Z</time></trkpt><trkpt lat="44.2767839" lon="9.5550806"><ele>525.0</ele><time>2026-03-22T15:21:22.681Z</time></trkpt><trkpt lat="44.276658" lon="9.5550313"><ele>525.0</ele><time>2026-03-22T15:21:23.681Z</time></trkpt><trkpt lat="44.2765427" lon="9.5550967"><ele>525.0</ele><time>2026-03-22T15:21:24.68Z</time></trkpt><trkpt lat="44.2764388" lon="9.5551404"><ele>525.0</ele><time>2026-03-22T15:21:25.68Z</time></trkpt><trkpt lat="44.2763141" lon="9.5552015"><ele>525.0</ele><time>2026-03-22T15:21:26.681Z</time></trkpt><trkpt lat="44.2762665" lon="9.5553565"><ele>524.0</ele><time>2026-03-22T15:21:27.68Z</time></trkpt><trkpt lat="44.2762098" lon="9.5555031"><ele>523.0</ele><time>2026-03-22T15:21:28.68Z</time></trkpt><trkpt lat="44.2761794" lon="9.5556801"><ele>522.0</ele><time>2026-03-22T15:21:29.68Z</time></trkpt><trkpt lat="44.2761733" lon="9.5558509"><ele>521.0</ele><time>2026-03-22T15:21:30.68Z</time></trkpt><trkpt lat="44.2762001" lon="9.5560288"><ele>521.75</ele><time>2026-03-22T15:21:31.681Z</time></trkpt><trkpt lat="44.2762466" lon="9.5562095"><ele>522.5</ele><time>2026-03-22T15:21:32.68Z</time></trkpt><trkpt lat="44.2762626" lon="9.5564093"><ele>523.25</ele><time>2026-03-22T15:21:33.68Z</time></trkpt><trkpt lat="44.2762652" lon="9.556638"><ele>524.0</ele><time>2026-03-22T15:21:34.681Z</time></trkpt><trkpt lat="44.2762506" lon="9.5568425"><ele>528.25</ele><time>2026-03-22T15:21:35.68Z</time></trkpt><trkpt lat="44.2762106" lon="9.5570406"><ele>532.5</ele><time>2026-03-22T15:21:36.68Z</time></trkpt><trkpt lat="44.2761512" lon="9.5572227"><ele>536.75</ele><time>2026-03-22T15:21:37.68Z</time></trkpt><trkpt lat="44.2760829" lon="9.5573993"><ele>541.0</ele><time>2026-03-22T15:21:38.68Z</time></trkpt><trkpt lat="44.2760141" lon="9.5575661"><ele>541.0</ele><time>2026-03-22T15:21:39.68Z</time></trkpt><trkpt lat="44.2759524" lon="9.5577287"><ele>541.0</ele><time>2026-03-22T15:21:40.68Z</time></trkpt><trkpt lat="44.2758976" lon="9.5578807"><ele>541.0</ele><time>2026-03-22T15:21:41.68Z</time></trkpt><trkpt lat="44.2758668" lon="9.5580263"><ele>541.0</ele><time>2026-03-22T15:21:42.68Z</time></trkpt><trkpt lat="44.275863" lon="9.5582022"><ele>540.0</ele><time>2026-03-22T15:21:43.68Z</time></trkpt><trkpt lat="44.275884" lon="9.558365"><ele>539.0</ele><time>2026-03-22T15:21:44.681Z</time></trkpt><trkpt lat="44.2759378" lon="9.5585609"><ele>538.0</ele><time>2026-03-22T15:21:45.68Z</time></trkpt><trkpt lat="44.2760718" lon="9.5587301"><ele>537.0</ele><time>2026-03-22T15:21:46.68Z</time></trkpt><trkpt lat="44.2761331" lon="9.558894"><ele>537.0</ele><time>2026-03-22T15:21:47.68Z</time></trkpt><trkpt lat="44.276184" lon="9.5590594"><ele>537.0</ele><time>2026-03-22T15:21:48.68Z</time></trkpt><trkpt lat="44.2762128" lon="9.5592431"><ele>537.0</ele><time>2026-03-22T15:21:49.68Z</time></trkpt><trkpt lat="44.2762483" lon="9.5594273"><ele>537.0</ele><time>2026-03-22T15:21:50.68Z</time></trkpt><trkpt lat="44.2762659" lon="9.5596134"><ele>537.75</ele><time>2026-03-22T15:21:51.68Z</time></trkpt><trkpt lat="44.2762904" lon="9.5598078"><ele>538.5</ele><time>2026-03-22T15:21:52.68Z</time></trkpt><trkpt lat="44.2762861" lon="9.5599898"><ele>539.25</ele><time>2026-03-22T15:21:53.68Z</time></trkpt><trkpt lat="44.2762703" lon="9.5601673"><ele>540.0</ele><time>2026-03-22T15:21:54.68Z</time></trkpt><trkpt lat="44.2762504" lon="9.5603381"><ele>542.5</ele><time>2026-03-22T15:21:55.68Z</time></trkpt><trkpt lat="44.2762408" lon="9.560494"><ele>545.0</ele><time>2026-03-22T15:21:56.68Z</time></trkpt><trkpt lat="44.2762598" lon="9.5606686"><ele>547.5</ele><time>2026-03-22T15:21:57.68Z</time></trkpt><trkpt lat="44.2763139" lon="9.5608183"><ele>550.0</ele><time>2026-03-22T15:21:58.68Z</time></trkpt><trkpt lat="44.2763364" lon="9.5609577"><ele>550.0</ele><time>2026-03-22T15:21:59.68Z</time></trkpt><trkpt lat="44.2763756" lon="9.5610925"><ele>550.0</ele><time>2026-03-22T15:22:00.68Z</time></trkpt><trkpt lat="44.2762581" lon="9.5611701"><ele>550.0</ele><time>2026-03-22T15:22:01.68Z</time></trkpt><trkpt lat="44.2762081" lon="9.5612895"><ele>550.0</ele><time>2026-03-22T15:22:02.68Z</time></trkpt><trkpt lat="44.2760284" lon="9.5613131"><ele>553.2</ele><time>2026-03-22T15:22:03.68Z</time></trkpt><trkpt lat="44.2759413" lon="9.5613704"><ele>556.4</ele><time>2026-03-22T15:22:04.68Z</time></trkpt><trkpt lat="44.2758514" lon="9.5614311"><ele>559.6</ele><time>2026-03-22T15:22:05.68Z</time></trkpt><trkpt lat="44.2757521" lon="9.5614825"><ele>562.8</ele><time>2026-03-22T15:22:06.68Z</time></trkpt><trkpt lat="44.2757125" lon="9.5616115"><ele>566.0</ele><time>2026-03-22T15:22:07.68Z</time></trkpt><trkpt lat="44.2757075" lon="9.5617439"><ele>566.0</ele><time>2026-03-22T15:22:08.68Z</time></trkpt><trkpt lat="44.2757824" lon="9.5618806"><ele>566.0</ele><time>2026-03-22T15:22:09.68Z</time></trkpt><trkpt lat="44.2759383" lon="9.5619761"><ele>566.0</ele><time>2026-03-22T15:22:10.68Z</time></trkpt><trkpt lat="44.2759653" lon="9.5621386"><ele>566.0</ele><time>2026-03-22T15:22:11.68Z</time></trkpt><trkpt lat="44.2759971" lon="9.5623015"><ele>566.6</ele><time>2026-03-22T15:22:12.68Z</time></trkpt><trkpt lat="44.2759751" lon="9.5624534"><ele>567.2</ele><time>2026-03-22T15:22:13.68Z</time></trkpt><trkpt lat="44.2759525" lon="9.5625925"><ele>567.8</ele><time>2026-03-22T15:22:14.68Z</time></trkpt><trkpt lat="44.2759593" lon="9.5627372"><ele>568.4</ele><time>2026-03-22T15:22:15.68Z</time></trkpt><trkpt lat="44.2760111" lon="9.5628806"><ele>569.0</ele><time>2026-03-22T15:22:16.68Z</time></trkpt><trkpt lat="44.2760971" lon="9.5630435"><ele>569.0</ele><time>2026-03-22T15:22:17.68Z</time></trkpt><trkpt lat="44.2761874" lon="9.5632027"><ele>569.0</ele><time>2026-03-22T15:22:18.68Z</time></trkpt><trkpt lat="44.2762769" lon="9.563344"><ele>569.0</ele><time>2026-03-22T15:22:19.68Z</time></trkpt><trkpt lat="44.2763719" lon="9.5634909"><ele>569.0</ele><time>2026-03-22T15:22:20.68Z</time></trkpt><trkpt lat="44.2764644" lon="9.5636245"><ele>572.75</ele><time>2026-03-22T15:22:21.68Z</time></trkpt><trkpt lat="44.2765596" lon="9.5637556"><ele>576.5</ele><time>2026-03-22T15:22:22.68Z</time></trkpt><trkpt lat="44.2766562" lon="9.5638815"><ele>580.25</ele><time>2026-03-22T15:22:23.68Z</time></trkpt><trkpt lat="44.2767501" lon="9.5639933"><ele>584.0</ele><time>2026-03-22T15:22:24.68Z</time></trkpt><trkpt lat="44.2768409" lon="9.5641041"><ele>584.0</ele><time>2026-03-22T15:22:25.68Z</time></trkpt><trkpt lat="44.2769033" lon="9.5642385"><ele>584.0</ele><time>2026-03-22T15:22:26.68Z</time></trkpt><trkpt lat="44.276946" lon="9.5643972"><ele>584.0</ele><time>2026-03-22T15:22:27.68Z</time></trkpt><trkpt lat="44.27697" lon="9.5645813"><ele>584.0</ele><time>2026-03-22T15:22:28.68Z</time></trkpt><trkpt lat="44.2769744" lon="9.5647681"><ele>585.5</ele><time>2026-03-22T15:22:29.68Z</time></trkpt><trkpt lat="44.2769408" lon="9.5649346"><ele>587.0</ele><time>2026-03-22T15:22:30.68Z</time></trkpt><trkpt lat="44.2768814" lon="9.5650697"><ele>588.5</ele><time>2026-03-22T15:22:31.68Z</time></trkpt><trkpt lat="44.2767929" lon="9.5652163"><ele>590.0</ele><time>2026-03-22T15:22:32.68Z</time></trkpt><trkpt lat="44.2767002" lon="9.5653671"><ele>590.0</ele><time>2026-03-22T15:22:33.68Z</time></trkpt><trkpt lat="44.2766015" lon="9.565528"><ele>590.0</ele><time>2026-03-22T15:22:34.68Z</time></trkpt><trkpt lat="44.2764979" lon="9.5656858"><ele>590.0</ele><time>2026-03-22T15:22:35.68Z</time></trkpt><trkpt lat="44.2764039" lon="9.5658584"><ele>600.6666666666666</ele><time>2026-03-22T15:22:36.68Z</time></trkpt><trkpt lat="44.2763268" lon="9.566054"><ele>611.3333333333334</ele><time>2026-03-22T15:22:37.68Z</time></trkpt><trkpt lat="44.2762812" lon="9.5662613"><ele>622.0</ele><time>2026-03-22T15:22:38.68Z</time></trkpt><trkpt lat="44.2762386" lon="9.5664792"><ele>622.6666666666667</ele><time>2026-03-22T15:22:39.68Z</time></trkpt><trkpt lat="44.276298" lon="9.5666742"><ele>623.3333333333334</ele><time>2026-03-22T15:22:40.68Z</time></trkpt><trkpt lat="44.2763075" lon="9.5668713"><ele>624.0</ele><time>2026-03-22T15:22:41.68Z</time></trkpt><trkpt lat="44.276297" lon="9.5670956"><ele>625.3333333333334</ele><time>2026-03-22T15:22:42.68Z</time></trkpt><trkpt lat="44.2762626" lon="9.5673335"><ele>626.6666666666667</ele><time>2026-03-22T15:22:43.68Z</time></trkpt><trkpt lat="44.2762231" lon="9.5675569"><ele>628.0</ele><time>2026-03-22T15:22:44.68Z</time></trkpt><trkpt lat="44.2761967" lon="9.5677612"><ele>628.5</ele><time>2026-03-22T15:22:45.68Z</time></trkpt><trkpt lat="44.2762004" lon="9.5679482"><ele>629.0</ele><time>2026-03-22T15:22:46.68Z</time></trkpt><trkpt lat="44.2762535" lon="9.5681299"><ele>629.5</ele><time>2026-03-22T15:22:47.68Z</time></trkpt><trkpt lat="44.2762983" lon="9.5683001"><ele>630.0</ele><time>2026-03-22T15:22:48.68Z</time></trkpt><trkpt lat="44.2764119" lon="9.5684426"><ele>626.25</ele><time>2026-03-22T15:22:49.68Z</time></trkpt><trkpt lat="44.2764759" lon="9.5685912"><ele>622.5</ele><time>2026-03-22T15:22:50.681Z</time></trkpt><trkpt lat="44.2765199" lon="9.5687553"><ele>618.75</ele><time>2026-03-22T15:22:51.68Z</time></trkpt><trkpt lat="44.2765314" lon="9.5689481"><ele>615.0</ele><time>2026-03-22T15:22:52.68Z</time></trkpt><trkpt lat="44.2765276" lon="9.5691651"><ele>615.0</ele><time>2026-03-22T15:22:53.681Z</time></trkpt><trkpt lat="44.2765305" lon="9.5693897"><ele>615.0</ele><time>2026-03-22T15:22:54.681Z</time></trkpt><trkpt lat="44.276552" lon="9.5696144"><ele>615.0</ele><time>2026-03-22T15:22:55.68Z</time></trkpt><trkpt lat="44.2765975" lon="9.5698382"><ele>614.0</ele><time>2026-03-22T15:22:56.68Z</time></trkpt><trkpt lat="44.2766505" lon="9.5700411"><ele>613.0</ele><time>2026-03-22T15:22:57.68Z</time></trkpt><trkpt lat="44.2766786" lon="9.5702461"><ele>612.0</ele><time>2026-03-22T15:22:58.68Z</time></trkpt><trkpt lat="44.2766771" lon="9.5704548"><ele>612.0</ele><time>2026-03-22T15:22:59.681Z</time></trkpt><trkpt lat="44.276657" lon="9.5706559"><ele>612.0</ele><time>2026-03-22T15:23:00.68Z</time></trkpt><trkpt lat="44.276618" lon="9.5708406"><ele>612.0</ele><time>2026-03-22T15:23:01.68Z</time></trkpt><trkpt lat="44.2765561" lon="9.5710258"><ele>612.0</ele><time>2026-03-22T15:23:02.68Z</time></trkpt><trkpt lat="44.2764734" lon="9.5712201"><ele>619.25</ele><time>2026-03-22T15:23:03.68Z</time></trkpt><trkpt lat="44.2763935" lon="9.5714059"><ele>626.5</ele><time>2026-03-22T15:23:04.68Z</time></trkpt><trkpt lat="44.2763119" lon="9.5715766"><ele>633.75</ele><time>2026-03-22T15:23:05.68Z</time></trkpt><trkpt lat="44.2762423" lon="9.5717356"><ele>641.0</ele><time>2026-03-22T15:23:06.68Z</time></trkpt><trkpt lat="44.2761934" lon="9.5718869"><ele>640.4</ele><time>2026-03-22T15:23:07.68Z</time></trkpt><trkpt lat="44.2761575" lon="9.5720408"><ele>639.8</ele><time>2026-03-22T15:23:08.68Z</time></trkpt><trkpt lat="44.2761628" lon="9.5722052"><ele>639.1999999999999</ele><time>2026-03-22T15:23:09.68Z</time></trkpt><trkpt lat="44.2761669" lon="9.5723439"><ele>638.5999999999999</ele><time>2026-03-22T15:23:10.68Z</time></trkpt><trkpt lat="44.2762081" lon="9.5724677"><ele>638.0</ele><time>2026-03-22T15:23:11.681Z</time></trkpt><trkpt lat="44.2762942" lon="9.5725766"><ele>638.0</ele><time>2026-03-22T15:23:12.68Z</time></trkpt><trkpt lat="44.2764038" lon="9.5726719"><ele>638.0</ele><time>2026-03-22T15:23:13.681Z</time></trkpt><trkpt lat="44.2765344" lon="9.5727675"><ele>638.0</ele><time>2026-03-22T15:23:14.68Z</time></trkpt><trkpt lat="44.2767145" lon="9.5728664"><ele>640.0</ele><time>2026-03-22T15:23:15.68Z</time></trkpt><trkpt lat="44.2768249" lon="9.5730104"><ele>642.0</ele><time>2026-03-22T15:23:16.68Z</time></trkpt><trkpt lat="44.2769214" lon="9.5731761"><ele>644.0</ele><time>2026-03-22T15:23:17.68Z</time></trkpt><trkpt lat="44.2770183" lon="9.5733329"><ele>644.0</ele><time>2026-03-22T15:23:18.68Z</time></trkpt><trkpt lat="44.2770971" lon="9.5734706"><ele>644.0</ele><time>2026-03-22T15:23:19.68Z</time></trkpt><trkpt lat="44.2772181" lon="9.5735596"><ele>644.0</ele><time>2026-03-22T15:23:20.681Z</time></trkpt><trkpt lat="44.2773317" lon="9.5736425"><ele>644.0</ele><time>2026-03-22T15:23:21.68Z</time></trkpt><trkpt lat="44.2774523" lon="9.5737"><ele>646.3333333333333</ele><time>2026-03-22T15:23:22.68Z</time></trkpt><trkpt lat="44.2775902" lon="9.5737193"><ele>648.6666666666666</ele><time>2026-03-22T15:23:23.68Z</time></trkpt><trkpt lat="44.2777703" lon="9.5736479"><ele>651.0</ele><time>2026-03-22T15:23:24.68Z</time></trkpt><trkpt lat="44.2779093" lon="9.573371"><ele>647.5</ele><time>2026-03-22T15:23:25.68Z</time></trkpt><trkpt lat="44.2780523" lon="9.5732911"><ele>644.0</ele><time>2026-03-22T15:23:26.68Z</time></trkpt><trkpt lat="44.2781829" lon="9.5732368"><ele>640.5</ele><time>2026-03-22T15:23:27.68Z</time></trkpt><trkpt lat="44.2783128" lon="9.5732292"><ele>637.0</ele><time>2026-03-22T15:23:28.682Z</time></trkpt><trkpt lat="44.2784418" lon="9.5732226"><ele>637.0</ele><time>2026-03-22T15:23:29.68Z</time></trkpt><trkpt lat="44.2785617" lon="9.5732467"><ele>637.0</ele><time>2026-03-22T15:23:30.68Z</time></trkpt><trkpt lat="44.2786616" lon="9.5734977"><ele>637.0</ele><time>2026-03-22T15:23:31.68Z</time></trkpt><trkpt lat="44.278716" lon="9.5737321"><ele>641.0</ele><time>2026-03-22T15:23:32.68Z</time></trkpt><trkpt lat="44.2785995" lon="9.5740395"><ele>645.0</ele><time>2026-03-22T15:23:33.68Z</time></trkpt><trkpt lat="44.2785815" lon="9.5742659"><ele>649.0</ele><time>2026-03-22T15:23:34.68Z</time></trkpt><trkpt lat="44.2785778" lon="9.5744925"><ele>651.6666666666667</ele><time>2026-03-22T15:23:35.68Z</time></trkpt><trkpt lat="44.2786188" lon="9.5747266"><ele>654.3333333333334</ele><time>2026-03-22T15:23:36.68Z</time></trkpt><trkpt lat="44.2786902" lon="9.5749647"><ele>657.0</ele><time>2026-03-22T15:23:37.68Z</time></trkpt><trkpt lat="44.278788" lon="9.5752156"><ele>659.6666666666666</ele><time>2026-03-22T15:23:38.68Z</time></trkpt><trkpt lat="44.2788887" lon="9.5754558"><ele>662.3333333333333</ele><time>2026-03-22T15:23:39.68Z</time></trkpt><trkpt lat="44.2789919" lon="9.5756922"><ele>665.0</ele><time>2026-03-22T15:23:40.68Z</time></trkpt><trkpt lat="44.2790828" lon="9.5759123"><ele>661.6666666666666</ele><time>2026-03-22T15:23:41.68Z</time></trkpt><trkpt lat="44.2791678" lon="9.5761243"><ele>658.3333333333334</ele><time>2026-03-22T15:23:42.68Z</time></trkpt><trkpt lat="44.2792559" lon="9.5763297"><ele>655.0</ele><time>2026-03-22T15:23:43.68Z</time></trkpt><trkpt lat="44.2793366" lon="9.5765299"><ele>655.0</ele><time>2026-03-22T15:23:44.68Z</time></trkpt><trkpt lat="44.2794127" lon="9.5767037"><ele>655.0</ele><time>2026-03-22T15:23:45.68Z</time></trkpt><trkpt lat="44.2794834" lon="9.5768778"><ele>655.0</ele><time>2026-03-22T15:23:46.68Z</time></trkpt><trkpt lat="44.2795512" lon="9.5770336"><ele>655.0</ele><time>2026-03-22T15:23:47.68Z</time></trkpt><trkpt lat="44.2796271" lon="9.5771708"><ele>654.75</ele><time>2026-03-22T15:23:48.68Z</time></trkpt><trkpt lat="44.2796894" lon="9.5773156"><ele>654.5</ele><time>2026-03-22T15:23:49.68Z</time></trkpt><trkpt lat="44.2797689" lon="9.5774505"><ele>654.25</ele><time>2026-03-22T15:23:50.68Z</time></trkpt><trkpt lat="44.279872" lon="9.5775812"><ele>654.0</ele><time>2026-03-22T15:23:51.68Z</time></trkpt><trkpt lat="44.2800019" lon="9.577683"><ele>654.0</ele><time>2026-03-22T15:23:52.68Z</time></trkpt><trkpt lat="44.2801554" lon="9.5777475"><ele>654.0</ele><time>2026-03-22T15:23:53.681Z</time></trkpt><trkpt lat="44.2802935" lon="9.5778091"><ele>654.0</ele><time>2026-03-22T15:23:54.68Z</time></trkpt><trkpt lat="44.2804179" lon="9.5778981"><ele>654.0</ele><time>2026-03-22T15:23:55.68Z</time></trkpt><trkpt lat="44.280526" lon="9.5780158"><ele>654.0</ele><time>2026-03-22T15:23:56.68Z</time></trkpt><trkpt lat="44.2806331" lon="9.5781297"><ele>654.0</ele><time>2026-03-22T15:23:57.68Z</time></trkpt><trkpt lat="44.2807253" lon="9.5782374"><ele>654.0</ele><time>2026-03-22T15:23:58.681Z</time></trkpt><trkpt lat="44.2808014" lon="9.5783338"><ele>654.0</ele><time>2026-03-22T15:23:59.68Z</time></trkpt><trkpt lat="44.2808375" lon="9.5784398"><ele>654.0</ele><time>2026-03-22T15:24:00.681Z</time></trkpt><trkpt lat="44.2808336" lon="9.5785479"><ele>654.0</ele><time>2026-03-22T15:24:01.68Z</time></trkpt><trkpt lat="44.2807873" lon="9.5786304"><ele>654.0</ele><time>2026-03-22T15:24:02.68Z</time></trkpt><trkpt lat="44.2807142" lon="9.5786561"><ele>654.0</ele><time>2026-03-22T15:24:03.68Z</time></trkpt><trkpt lat="44.2806205" lon="9.5786198"><ele>654.0</ele><time>2026-03-22T15:24:04.68Z</time></trkpt><trkpt lat="44.2805249" lon="9.5785533"><ele>654.0</ele><time>2026-03-22T15:24:05.68Z</time></trkpt><trkpt lat="44.2804217" lon="9.5784931"><ele>652.0</ele><time>2026-03-22T15:24:06.68Z</time></trkpt><trkpt lat="44.2803196" lon="9.578489"><ele>650.0</ele><time>2026-03-22T15:24:07.68Z</time></trkpt><trkpt lat="44.2801899" lon="9.5784985"><ele>648.0</ele><time>2026-03-22T15:24:08.68Z</time></trkpt><trkpt lat="44.28002" lon="9.5786374"><ele>646.0</ele><time>2026-03-22T15:24:09.68Z</time></trkpt><trkpt lat="44.2798861" lon="9.5787013"><ele>643.5</ele><time>2026-03-22T15:24:10.68Z</time></trkpt><trkpt lat="44.2797628" lon="9.5787574"><ele>641.0</ele><time>2026-03-22T15:24:11.68Z</time></trkpt><trkpt lat="44.2796463" lon="9.5788155"><ele>638.5</ele><time>2026-03-22T15:24:12.68Z</time></trkpt><trkpt lat="44.2795762" lon="9.5788849"><ele>636.0</ele><time>2026-03-22T15:24:13.681Z</time></trkpt><trkpt lat="44.2795111" lon="9.5790197"><ele>636.0</ele><time>2026-03-22T15:24:14.68Z</time></trkpt><trkpt lat="44.279493" lon="9.5791689"><ele>636.0</ele><time>2026-03-22T15:24:15.68Z</time></trkpt><trkpt lat="44.279476" lon="9.5792957"><ele>636.0</ele><time>2026-03-22T15:24:16.68Z</time></trkpt><trkpt lat="44.279577" lon="9.5793874"><ele>636.0</ele><time>2026-03-22T15:24:17.681Z</time></trkpt><trkpt lat="44.2796597" lon="9.5794482"><ele>636.0</ele><time>2026-03-22T15:24:18.68Z</time></trkpt><trkpt lat="44.2797666" lon="9.5794668"><ele>635.25</ele><time>2026-03-22T15:24:19.68Z</time></trkpt><trkpt lat="44.2798716" lon="9.5794783"><ele>634.5</ele><time>2026-03-22T15:24:20.68Z</time></trkpt><trkpt lat="44.2799741" lon="9.5793798"><ele>633.75</ele><time>2026-03-22T15:24:21.68Z</time></trkpt><trkpt lat="44.2800855" lon="9.5793428"><ele>633.0</ele><time>2026-03-22T15:24:22.68Z</time></trkpt><trkpt lat="44.2802104" lon="9.5793241"><ele>633.0</ele><time>2026-03-22T15:24:23.68Z</time></trkpt><trkpt lat="44.2803391" lon="9.5793427"><ele>633.0</ele><time>2026-03-22T15:24:24.68Z</time></trkpt><trkpt lat="44.2804618" lon="9.5793863"><ele>633.0</ele><time>2026-03-22T15:24:25.68Z</time></trkpt><trkpt lat="44.2805845" lon="9.5795086"><ele>633.0</ele><time>2026-03-22T15:24:26.68Z</time></trkpt><trkpt lat="44.2806983" lon="9.5796318"><ele>630.0</ele><time>2026-03-22T15:24:27.68Z</time></trkpt><trkpt lat="44.2808157" lon="9.5797652"><ele>627.0</ele><time>2026-03-22T15:24:28.68Z</time></trkpt><trkpt lat="44.2809264" lon="9.579894"><ele>624.0</ele><time>2026-03-22T15:24:29.68Z</time></trkpt><trkpt lat="44.2810409" lon="9.5800196"><ele>621.0</ele><time>2026-03-22T15:24:30.68Z</time></trkpt><trkpt lat="44.2811512" lon="9.5801459"><ele>621.0</ele><time>2026-03-22T15:24:31.681Z</time></trkpt><trkpt lat="44.2812583" lon="9.5802671"><ele>621.0</ele><time>2026-03-22T15:24:32.68Z</time></trkpt><trkpt lat="44.2813711" lon="9.5803899"><ele>621.0</ele><time>2026-03-22T15:24:33.68Z</time></trkpt><trkpt lat="44.2815206" lon="9.5804431"><ele>621.0</ele><time>2026-03-22T15:24:34.68Z</time></trkpt><trkpt lat="44.2816639" lon="9.5805019"><ele>615.3333333333334</ele><time>2026-03-22T15:24:35.68Z</time></trkpt><trkpt lat="44.2818629" lon="9.5804854"><ele>609.6666666666667</ele><time>2026-03-22T15:24:36.68Z</time></trkpt><trkpt lat="44.2819958" lon="9.5804944"><ele>604.0</ele><time>2026-03-22T15:24:37.681Z</time></trkpt><trkpt lat="44.2821311" lon="9.5805064"><ele>604.0</ele><time>2026-03-22T15:24:38.68Z</time></trkpt><trkpt lat="44.2822497" lon="9.5805203"><ele>604.0</ele><time>2026-03-22T15:24:39.68Z</time></trkpt><trkpt lat="44.2823707" lon="9.5805591"><ele>604.0</ele><time>2026-03-22T15:24:40.68Z</time></trkpt><trkpt lat="44.2824777" lon="9.5806367"><ele>604.0</ele><time>2026-03-22T15:24:41.68Z</time></trkpt><trkpt lat="44.28258" lon="9.580737"><ele>603.5</ele><time>2026-03-22T15:24:42.68Z</time></trkpt><trkpt lat="44.2826863" lon="9.5808301"><ele>603.0</ele><time>2026-03-22T15:24:43.68Z</time></trkpt><trkpt lat="44.2827853" lon="9.5809184"><ele>602.5</ele><time>2026-03-22T15:24:44.68Z</time></trkpt><trkpt lat="44.2828837" lon="9.5809864"><ele>602.0</ele><time>2026-03-22T15:24:45.68Z</time></trkpt><trkpt lat="44.2829856" lon="9.5810328"><ele>602.0</ele><time>2026-03-22T15:24:46.68Z</time></trkpt><trkpt lat="44.2830471" lon="9.5810887"><ele>602.0</ele><time>2026-03-22T15:24:47.68Z</time></trkpt><trkpt lat="44.283088" lon="9.5812296"><ele>602.0</ele><time>2026-03-22T15:24:48.68Z</time></trkpt><trkpt lat="44.2830776" lon="9.5813312"><ele>602.0</ele><time>2026-03-22T15:24:49.68Z</time></trkpt><trkpt lat="44.2830789" lon="9.5814383"><ele>602.0</ele><time>2026-03-22T15:24:50.68Z</time></trkpt><trkpt lat="44.283041" lon="9.5815575"><ele>602.0</ele><time>2026-03-22T15:24:51.68Z</time></trkpt><trkpt lat="44.2829777" lon="9.5815991"><ele>602.0</ele><time>2026-03-22T15:24:52.681Z</time></trkpt><trkpt lat="44.2828499" lon="9.5815429"><ele>602.0</ele><time>2026-03-22T15:24:53.68Z</time></trkpt><trkpt lat="44.282734" lon="9.5813277"><ele>602.0</ele><time>2026-03-22T15:24:54.68Z</time></trkpt><trkpt lat="44.2826275" lon="9.5811609"><ele>602.0</ele><time>2026-03-22T15:24:55.68Z</time></trkpt><trkpt lat="44.2825085" lon="9.5810938"><ele>602.0</ele><time>2026-03-22T15:24:56.68Z</time></trkpt><trkpt lat="44.2823804" lon="9.5810441"><ele>602.0</ele><time>2026-03-22T15:24:57.68Z</time></trkpt><trkpt lat="44.2822577" lon="9.5810098"><ele>602.0</ele><time>2026-03-22T15:24:58.68Z</time></trkpt><trkpt lat="44.2821343" lon="9.5811104"><ele>602.4</ele><time>2026-03-22T15:24:59.68Z</time></trkpt><trkpt lat="44.2820295" lon="9.5811487"><ele>602.8000000000001</ele><time>2026-03-22T15:25:00.681Z</time></trkpt><trkpt lat="44.2819369" lon="9.5812006"><ele>603.2</ele><time>2026-03-22T15:25:01.681Z</time></trkpt><trkpt lat="44.2818626" lon="9.5812821"><ele>603.6</ele><time>2026-03-22T15:25:02.68Z</time></trkpt><trkpt lat="44.2818065" lon="9.5813891"><ele>604.0</ele><time>2026-03-22T15:25:03.68Z</time></trkpt><trkpt lat="44.2819585" lon="9.5816897"><ele>600.5</ele><time>2026-03-22T15:25:05.68Z</time></trkpt><trkpt lat="44.2820063" lon="9.5818244"><ele>597.0</ele><time>2026-03-22T15:25:06.681Z</time></trkpt><trkpt lat="44.2820801" lon="9.581997"><ele>593.5</ele><time>2026-03-22T15:25:07.68Z</time></trkpt><trkpt lat="44.2821259" lon="9.5821889"><ele>590.0</ele><time>2026-03-22T15:25:08.681Z</time></trkpt><trkpt lat="44.2821538" lon="9.5823768"><ele>588.0</ele><time>2026-03-22T15:25:09.68Z</time></trkpt><trkpt lat="44.2821656" lon="9.5825541"><ele>586.0</ele><time>2026-03-22T15:25:10.68Z</time></trkpt><trkpt lat="44.2821835" lon="9.5827241"><ele>584.0</ele><time>2026-03-22T15:25:11.68Z</time></trkpt><trkpt lat="44.2821716" lon="9.5829058"><ele>582.0</ele><time>2026-03-22T15:25:12.68Z</time></trkpt><trkpt lat="44.2821315" lon="9.5830904"><ele>579.25</ele><time>2026-03-22T15:25:13.68Z</time></trkpt><trkpt lat="44.282065" lon="9.5832674"><ele>576.5</ele><time>2026-03-22T15:25:14.68Z</time></trkpt><trkpt lat="44.2819798" lon="9.5834477"><ele>573.75</ele><time>2026-03-22T15:25:15.68Z</time></trkpt><trkpt lat="44.2818976" lon="9.5836091"><ele>571.0</ele><time>2026-03-22T15:25:16.68Z</time></trkpt><trkpt lat="44.2818153" lon="9.5837722"><ele>568.75</ele><time>2026-03-22T15:25:17.68Z</time></trkpt><trkpt lat="44.2817308" lon="9.5839307"><ele>566.5</ele><time>2026-03-22T15:25:18.68Z</time></trkpt><trkpt lat="44.2816541" lon="9.5840894"><ele>564.25</ele><time>2026-03-22T15:25:19.68Z</time></trkpt><trkpt lat="44.2815793" lon="9.5842302"><ele>562.0</ele><time>2026-03-22T15:25:20.68Z</time></trkpt><trkpt lat="44.2815103" lon="9.5843517"><ele>562.0</ele><time>2026-03-22T15:25:21.681Z</time></trkpt><trkpt lat="44.2814628" lon="9.584473"><ele>562.0</ele><time>2026-03-22T15:25:22.68Z</time></trkpt><trkpt lat="44.2814163" lon="9.5845827"><ele>562.0</ele><time>2026-03-22T15:25:23.68Z</time></trkpt><trkpt lat="44.2814048" lon="9.5847205"><ele>562.0</ele><time>2026-03-22T15:25:24.68Z</time></trkpt><trkpt lat="44.2815327" lon="9.5848855"><ele>561.5</ele><time>2026-03-22T15:25:25.68Z</time></trkpt><trkpt lat="44.2815865" lon="9.585024"><ele>561.0</ele><time>2026-03-22T15:25:26.681Z</time></trkpt><trkpt lat="44.2817" lon="9.5851752"><ele>560.5</ele><time>2026-03-22T15:25:27.68Z</time></trkpt><trkpt lat="44.2818007" lon="9.5853386"><ele>560.0</ele><time>2026-03-22T15:25:28.68Z</time></trkpt><trkpt lat="44.2819072" lon="9.5854998"><ele>556.0</ele><time>2026-03-22T15:25:29.68Z</time></trkpt><trkpt lat="44.2820117" lon="9.5856603"><ele>552.0</ele><time>2026-03-22T15:25:30.68Z</time></trkpt><trkpt lat="44.2821073" lon="9.5858124"><ele>548.0</ele><time>2026-03-22T15:25:31.68Z</time></trkpt><trkpt lat="44.2822126" lon="9.5859618"><ele>548.5</ele><time>2026-03-22T15:25:32.68Z</time></trkpt><trkpt lat="44.2823146" lon="9.5861108"><ele>549.0</ele><time>2026-03-22T15:25:33.68Z</time></trkpt><trkpt lat="44.2824068" lon="9.5862494"><ele>549.5</ele><time>2026-03-22T15:25:34.68Z</time></trkpt><trkpt lat="44.2824861" lon="9.5863699"><ele>550.0</ele><time>2026-03-22T15:25:35.68Z</time></trkpt><trkpt lat="44.2825563" lon="9.5864667"><ele>550.0</ele><time>2026-03-22T15:25:36.68Z</time></trkpt><trkpt lat="44.2826223" lon="9.5865696"><ele>550.0</ele><time>2026-03-22T15:25:37.68Z</time></trkpt><trkpt lat="44.2826568" lon="9.5867041"><ele>550.0</ele><time>2026-03-22T15:25:38.68Z</time></trkpt><trkpt lat="44.2827011" lon="9.5868403"><ele>550.0</ele><time>2026-03-22T15:25:39.68Z</time></trkpt><trkpt lat="44.2826803" lon="9.5869976"><ele>550.0</ele><time>2026-03-22T15:25:40.68Z</time></trkpt><trkpt lat="44.2826684" lon="9.5871318"><ele>547.75</ele><time>2026-03-22T15:25:41.68Z</time></trkpt><trkpt lat="44.2824556" lon="9.5871635"><ele>545.5</ele><time>2026-03-22T15:25:42.68Z</time></trkpt><trkpt lat="44.2823621" lon="9.5872337"><ele>543.25</ele><time>2026-03-22T15:25:43.68Z</time></trkpt><trkpt lat="44.2822464" lon="9.5872444"><ele>541.0</ele><time>2026-03-22T15:25:44.68Z</time></trkpt><trkpt lat="44.2821269" lon="9.5872134"><ele>539.0</ele><time>2026-03-22T15:25:45.68Z</time></trkpt><trkpt lat="44.2820501" lon="9.5868836"><ele>537.0</ele><time>2026-03-22T15:25:46.68Z</time></trkpt><trkpt lat="44.2819528" lon="9.5867745"><ele>535.0</ele><time>2026-03-22T15:25:47.68Z</time></trkpt><trkpt lat="44.2818495" lon="9.5866387"><ele>535.0</ele><time>2026-03-22T15:25:48.68Z</time></trkpt><trkpt lat="44.2817528" lon="9.5865047"><ele>535.0</ele><time>2026-03-22T15:25:49.68Z</time></trkpt><trkpt lat="44.2816645" lon="9.5863749"><ele>535.0</ele><time>2026-03-22T15:25:50.68Z</time></trkpt><trkpt lat="44.2815818" lon="9.5862632"><ele>535.0</ele><time>2026-03-22T15:25:51.68Z</time></trkpt><trkpt lat="44.2814854" lon="9.5861807"><ele>535.6</ele><time>2026-03-22T15:25:52.68Z</time></trkpt><trkpt lat="44.2813936" lon="9.5861151"><ele>536.2</ele><time>2026-03-22T15:25:53.681Z</time></trkpt><trkpt lat="44.281304" lon="9.5860725"><ele>536.8</ele><time>2026-03-22T15:25:54.68Z</time></trkpt><trkpt lat="44.2812061" lon="9.5861588"><ele>537.4</ele><time>2026-03-22T15:25:55.681Z</time></trkpt><trkpt lat="44.2811362" lon="9.5863197"><ele>538.0</ele><time>2026-03-22T15:25:56.68Z</time></trkpt><trkpt lat="44.2810742" lon="9.5865161"><ele>538.0</ele><time>2026-03-22T15:25:57.68Z</time></trkpt><trkpt lat="44.2810242" lon="9.5868221"><ele>538.0</ele><time>2026-03-22T15:25:58.68Z</time></trkpt><trkpt lat="44.280971" lon="9.5870082"><ele>538.0</ele><time>2026-03-22T15:25:59.68Z</time></trkpt><trkpt lat="44.2808919" lon="9.5871766"><ele>536.3333333333334</ele><time>2026-03-22T15:26:00.68Z</time></trkpt><trkpt lat="44.280784" lon="9.5873251"><ele>534.6666666666666</ele><time>2026-03-22T15:26:01.68Z</time></trkpt><trkpt lat="44.2806595" lon="9.587478"><ele>533.0</ele><time>2026-03-22T15:26:02.68Z</time></trkpt><trkpt lat="44.280544" lon="9.5876484"><ele>530.3333333333333</ele><time>2026-03-22T15:26:03.68Z</time></trkpt><trkpt lat="44.2804618" lon="9.5878806"><ele>527.6666666666666</ele><time>2026-03-22T15:26:04.68Z</time></trkpt><trkpt lat="44.2803768" lon="9.5880901"><ele>525.0</ele><time>2026-03-22T15:26:05.68Z</time></trkpt><trkpt lat="44.2802974" lon="9.5883009"><ele>525.0</ele><time>2026-03-22T15:26:06.68Z</time></trkpt><trkpt lat="44.2802374" lon="9.5884916"><ele>525.0</ele><time>2026-03-22T15:26:07.68Z</time></trkpt><trkpt lat="44.2801962" lon="9.5886839"><ele>525.0</ele><time>2026-03-22T15:26:08.68Z</time></trkpt><trkpt lat="44.2801724" lon="9.5888714"><ele>525.0</ele><time>2026-03-22T15:26:09.68Z</time></trkpt><trkpt lat="44.280147" lon="9.5890589"><ele>522.5</ele><time>2026-03-22T15:26:10.68Z</time></trkpt><trkpt lat="44.2801166" lon="9.5892369"><ele>520.0</ele><time>2026-03-22T15:26:11.68Z</time></trkpt><trkpt lat="44.2800647" lon="9.5894051"><ele>517.5</ele><time>2026-03-22T15:26:12.68Z</time></trkpt><trkpt lat="44.2800209" lon="9.5895658"><ele>515.0</ele><time>2026-03-22T15:26:13.68Z</time></trkpt><trkpt lat="44.2799648" lon="9.5897281"><ele>513.3333333333333</ele><time>2026-03-22T15:26:14.68Z</time></trkpt><trkpt lat="44.279803" lon="9.5898673"><ele>511.66666666666663</ele><time>2026-03-22T15:26:15.681Z</time></trkpt><trkpt lat="44.2797006" lon="9.5900129"><ele>510.0</ele><time>2026-03-22T15:26:16.68Z</time></trkpt><trkpt lat="44.2795743" lon="9.5901326"><ele>510.0</ele><time>2026-03-22T15:26:17.68Z</time></trkpt><trkpt lat="44.2794272" lon="9.5903083"><ele>510.0</ele><time>2026-03-22T15:26:18.68Z</time></trkpt><trkpt lat="44.2792921" lon="9.5904344"><ele>510.0</ele><time>2026-03-22T15:26:19.68Z</time></trkpt><trkpt lat="44.2791512" lon="9.5905923"><ele>508.33333333333337</ele><time>2026-03-22T15:26:20.68Z</time></trkpt><trkpt lat="44.2790119" lon="9.5907187"><ele>506.6666666666667</ele><time>2026-03-22T15:26:21.68Z</time></trkpt><trkpt lat="44.2788623" lon="9.5908519"><ele>505.0</ele><time>2026-03-22T15:26:22.68Z</time></trkpt><trkpt lat="44.2787148" lon="9.5909735"><ele>505.0</ele><time>2026-03-22T15:26:23.68Z</time></trkpt><trkpt lat="44.2785805" lon="9.5911002"><ele>505.0</ele><time>2026-03-22T15:26:24.68Z</time></trkpt><trkpt lat="44.2784328" lon="9.5912513"><ele>505.0</ele><time>2026-03-22T15:26:25.68Z</time></trkpt><trkpt lat="44.2783623" lon="9.5915458"><ele>502.0</ele><time>2026-03-22T15:26:26.68Z</time></trkpt><trkpt lat="44.2782662" lon="9.5917556"><ele>499.0</ele><time>2026-03-22T15:26:27.681Z</time></trkpt><trkpt lat="44.2781726" lon="9.5919628"><ele>496.0</ele><time>2026-03-22T15:26:28.681Z</time></trkpt><trkpt lat="44.2780667" lon="9.5921753"><ele>496.0</ele><time>2026-03-22T15:26:29.68Z</time></trkpt><trkpt lat="44.2779436" lon="9.5923704"><ele>496.0</ele><time>2026-03-22T15:26:30.68Z</time></trkpt><trkpt lat="44.2778203" lon="9.5925661"><ele>496.0</ele><time>2026-03-22T15:26:31.68Z</time></trkpt><trkpt lat="44.2777043" lon="9.5927565"><ele>488.0</ele><time>2026-03-22T15:26:32.68Z</time></trkpt><trkpt lat="44.2775812" lon="9.5929406"><ele>480.0</ele><time>2026-03-22T15:26:33.68Z</time></trkpt><trkpt lat="44.2774697" lon="9.5931329"><ele>472.0</ele><time>2026-03-22T15:26:34.68Z</time></trkpt><trkpt lat="44.2773685" lon="9.5933053"><ele>472.0</ele><time>2026-03-22T15:26:35.68Z</time></trkpt><trkpt lat="44.2773683" lon="9.5935551"><ele>472.0</ele><time>2026-03-22T15:26:36.68Z</time></trkpt><trkpt lat="44.277315" lon="9.5937404"><ele>472.0</ele><time>2026-03-22T15:26:37.68Z</time></trkpt><trkpt lat="44.2772384" lon="9.5939208"><ele>474.33333333333337</ele><time>2026-03-22T15:26:38.681Z</time></trkpt><trkpt lat="44.2771071" lon="9.5941019"><ele>476.66666666666663</ele><time>2026-03-22T15:26:39.68Z</time></trkpt><trkpt lat="44.2769723" lon="9.5942705"><ele>479.0</ele><time>2026-03-22T15:26:40.68Z</time></trkpt><trkpt lat="44.2768443" lon="9.5944357"><ele>471.66666666666663</ele><time>2026-03-22T15:26:41.68Z</time></trkpt><trkpt lat="44.2767162" lon="9.5945995"><ele>464.33333333333337</ele><time>2026-03-22T15:26:42.68Z</time></trkpt><trkpt lat="44.2765951" lon="9.5947608"><ele>457.0</ele><time>2026-03-22T15:26:43.68Z</time></trkpt><trkpt lat="44.2764721" lon="9.5949119"><ele>456.6666666666667</ele><time>2026-03-22T15:26:44.68Z</time></trkpt><trkpt lat="44.2763706" lon="9.5950895"><ele>456.33333333333337</ele><time>2026-03-22T15:26:45.68Z</time></trkpt><trkpt lat="44.2762393" lon="9.5952622"><ele>456.0</ele><time>2026-03-22T15:26:46.68Z</time></trkpt><trkpt lat="44.2761376" lon="9.5954412"><ele>456.0</ele><time>2026-03-22T15:26:47.68Z</time></trkpt><trkpt lat="44.2761073" lon="9.5955993"><ele>456.0</ele><time>2026-03-22T15:26:48.681Z</time></trkpt><trkpt lat="44.2759927" lon="9.5957331"><ele>456.0</ele><time>2026-03-22T15:26:49.68Z</time></trkpt><trkpt lat="44.2758796" lon="9.595868"><ele>456.0</ele><time>2026-03-22T15:26:50.68Z</time></trkpt><trkpt lat="44.2757486" lon="9.5959655"><ele>456.0</ele><time>2026-03-22T15:26:51.681Z</time></trkpt><trkpt lat="44.2756291" lon="9.5960748"><ele>456.0</ele><time>2026-03-22T15:26:52.68Z</time></trkpt><trkpt lat="44.2755129" lon="9.5962161"><ele>456.0</ele><time>2026-03-22T15:26:53.68Z</time></trkpt><trkpt lat="44.2754099" lon="9.5963537"><ele>456.0</ele><time>2026-03-22T15:26:54.68Z</time></trkpt><trkpt lat="44.2753328" lon="9.5965563"><ele>452.75</ele><time>2026-03-22T15:26:55.68Z</time></trkpt><trkpt lat="44.2752845" lon="9.5967091"><ele>449.5</ele><time>2026-03-22T15:26:56.68Z</time></trkpt><trkpt lat="44.2752312" lon="9.5968792"><ele>446.25</ele><time>2026-03-22T15:26:57.681Z</time></trkpt><trkpt lat="44.275202" lon="9.5970593"><ele>443.0</ele><time>2026-03-22T15:26:58.68Z</time></trkpt><trkpt lat="44.2751952" lon="9.5972368"><ele>441.5</ele><time>2026-03-22T15:26:59.68Z</time></trkpt><trkpt lat="44.2751903" lon="9.597416"><ele>440.0</ele><time>2026-03-22T15:27:00.68Z</time></trkpt><trkpt lat="44.2751794" lon="9.5976051"><ele>438.5</ele><time>2026-03-22T15:27:01.68Z</time></trkpt><trkpt lat="44.2751448" lon="9.5978008"><ele>437.0</ele><time>2026-03-22T15:27:02.68Z</time></trkpt><trkpt lat="44.2750823" lon="9.5980017"><ele>437.0</ele><time>2026-03-22T15:27:03.68Z</time></trkpt><trkpt lat="44.2750068" lon="9.5982122"><ele>437.0</ele><time>2026-03-22T15:27:04.681Z</time></trkpt><trkpt lat="44.274926" lon="9.5984272"><ele>437.0</ele><time>2026-03-22T15:27:05.68Z</time></trkpt><trkpt lat="44.2748376" lon="9.598635"><ele>437.3333333333333</ele><time>2026-03-22T15:27:06.68Z</time></trkpt><trkpt lat="44.2747545" lon="9.5988343"><ele>437.66666666666663</ele><time>2026-03-22T15:27:07.68Z</time></trkpt><trkpt lat="44.2746792" lon="9.5990319"><ele>438.0</ele><time>2026-03-22T15:27:08.68Z</time></trkpt><trkpt lat="44.2746331" lon="9.5992285"><ele>438.0</ele><time>2026-03-22T15:27:09.68Z</time></trkpt><trkpt lat="44.2746137" lon="9.599449"><ele>438.0</ele><time>2026-03-22T15:27:10.68Z</time></trkpt><trkpt lat="44.2746137" lon="9.5996877"><ele>438.0</ele><time>2026-03-22T15:27:11.68Z</time></trkpt><trkpt lat="44.2746227" lon="9.5999317"><ele>441.66666666666663</ele><time>2026-03-22T15:27:12.68Z</time></trkpt><trkpt lat="44.2746294" lon="9.6001652"><ele>445.3333333333333</ele><time>2026-03-22T15:27:13.68Z</time></trkpt><trkpt lat="44.2746412" lon="9.6003739"><ele>449.0</ele><time>2026-03-22T15:27:14.68Z</time></trkpt><trkpt lat="44.2746776" lon="9.600564"><ele>449.75</ele><time>2026-03-22T15:27:15.68Z</time></trkpt><trkpt lat="44.2747189" lon="9.6007404"><ele>450.5</ele><time>2026-03-22T15:27:16.68Z</time></trkpt><trkpt lat="44.2747651" lon="9.6008872"><ele>451.25</ele><time>2026-03-22T15:27:17.68Z</time></trkpt><trkpt lat="44.2747967" lon="9.6010514"><ele>452.0</ele><time>2026-03-22T15:27:18.681Z</time></trkpt><trkpt lat="44.2747989" lon="9.601213"><ele>450.25</ele><time>2026-03-22T15:27:19.68Z</time></trkpt><trkpt lat="44.2747663" lon="9.6013795"><ele>448.5</ele><time>2026-03-22T15:27:20.68Z</time></trkpt><trkpt lat="44.2746702" lon="9.6015461"><ele>446.75</ele><time>2026-03-22T15:27:21.68Z</time></trkpt><trkpt lat="44.2745935" lon="9.6017103"><ele>445.0</ele><time>2026-03-22T15:27:22.68Z</time></trkpt><trkpt lat="44.2745177" lon="9.6018698"><ele>441.5</ele><time>2026-03-22T15:27:23.68Z</time></trkpt><trkpt lat="44.2744497" lon="9.6020249"><ele>438.0</ele><time>2026-03-22T15:27:24.68Z</time></trkpt><trkpt lat="44.2744681" lon="9.6022443"><ele>434.5</ele><time>2026-03-22T15:27:25.68Z</time></trkpt><trkpt lat="44.2744511" lon="9.6024372"><ele>431.0</ele><time>2026-03-22T15:27:26.681Z</time></trkpt><trkpt lat="44.2745049" lon="9.6026312"><ele>431.0</ele><time>2026-03-22T15:27:27.68Z</time></trkpt><trkpt lat="44.2745239" lon="9.6028184"><ele>431.0</ele><time>2026-03-22T15:27:28.68Z</time></trkpt><trkpt lat="44.2745431" lon="9.6029919"><ele>431.0</ele><time>2026-03-22T15:27:29.68Z</time></trkpt><trkpt lat="44.2745491" lon="9.6031717"><ele>431.0</ele><time>2026-03-22T15:27:30.68Z</time></trkpt><trkpt lat="44.2745274" lon="9.6033376"><ele>428.0</ele><time>2026-03-22T15:27:31.68Z</time></trkpt><trkpt lat="44.274469" lon="9.6034816"><ele>425.0</ele><time>2026-03-22T15:27:32.68Z</time></trkpt><trkpt lat="44.2743797" lon="9.603594"><ele>422.0</ele><time>2026-03-22T15:27:33.68Z</time></trkpt><trkpt lat="44.2742548" lon="9.6036901"><ele>419.0</ele><time>2026-03-22T15:27:34.68Z</time></trkpt><trkpt lat="44.2741222" lon="9.6037934"><ele>416.0</ele><time>2026-03-22T15:27:35.681Z</time></trkpt><trkpt lat="44.2739843" lon="9.6038978"><ele>413.0</ele><time>2026-03-22T15:27:36.68Z</time></trkpt><trkpt lat="44.2738476" lon="9.6039996"><ele>410.0</ele><time>2026-03-22T15:27:37.681Z</time></trkpt><trkpt lat="44.2737243" lon="9.6040962"><ele>410.0</ele><time>2026-03-22T15:27:38.68Z</time></trkpt><trkpt lat="44.2736133" lon="9.6041845"><ele>410.0</ele><time>2026-03-22T15:27:39.68Z</time></trkpt><trkpt lat="44.2735137" lon="9.6042646"><ele>410.0</ele><time>2026-03-22T15:27:40.68Z</time></trkpt><trkpt lat="44.2734232" lon="9.6043469"><ele>410.0</ele><time>2026-03-22T15:27:41.68Z</time></trkpt><trkpt lat="44.2733398" lon="9.6044378"><ele>407.4</ele><time>2026-03-22T15:27:42.68Z</time></trkpt><trkpt lat="44.2732664" lon="9.6045395"><ele>404.8</ele><time>2026-03-22T15:27:43.681Z</time></trkpt><trkpt lat="44.2732013" lon="9.6046373"><ele>402.20000000000005</ele><time>2026-03-22T15:27:44.68Z</time></trkpt><trkpt lat="44.2731324" lon="9.6047607"><ele>399.6</ele><time>2026-03-22T15:27:45.68Z</time></trkpt><trkpt lat="44.2730487" lon="9.6048904"><ele>397.0</ele><time>2026-03-22T15:27:46.68Z</time></trkpt><trkpt lat="44.2729482" lon="9.6050166"><ele>397.0</ele><time>2026-03-22T15:27:47.681Z</time></trkpt><trkpt lat="44.272839" lon="9.6051579"><ele>397.0</ele><time>2026-03-22T15:27:48.68Z</time></trkpt><trkpt lat="44.2727365" lon="9.6053048"><ele>397.0</ele><time>2026-03-22T15:27:49.68Z</time></trkpt><trkpt lat="44.272625" lon="9.6054487"><ele>397.0</ele><time>2026-03-22T15:27:50.68Z</time></trkpt><trkpt lat="44.272513" lon="9.6055936"><ele>397.75</ele><time>2026-03-22T15:27:51.68Z</time></trkpt><trkpt lat="44.2724146" lon="9.6057359"><ele>398.5</ele><time>2026-03-22T15:27:52.681Z</time></trkpt><trkpt lat="44.2723463" lon="9.6059057"><ele>399.25</ele><time>2026-03-22T15:27:53.68Z</time></trkpt><trkpt lat="44.2722681" lon="9.6060922"><ele>400.0</ele><time>2026-03-22T15:27:54.68Z</time></trkpt><trkpt lat="44.2722713" lon="9.606354"><ele>393.33333333333337</ele><time>2026-03-22T15:27:55.68Z</time></trkpt><trkpt lat="44.272242" lon="9.6065953"><ele>386.6666666666667</ele><time>2026-03-22T15:27:56.68Z</time></trkpt><trkpt lat="44.2722248" lon="9.606814"><ele>380.0</ele><time>2026-03-22T15:27:57.68Z</time></trkpt><trkpt lat="44.2721987" lon="9.6070319"><ele>378.0</ele><time>2026-03-22T15:27:58.68Z</time></trkpt><trkpt lat="44.2721727" lon="9.6072453"><ele>376.0</ele><time>2026-03-22T15:27:59.68Z</time></trkpt><trkpt lat="44.2721501" lon="9.6074562"><ele>374.0</ele><time>2026-03-22T15:28:00.68Z</time></trkpt><trkpt lat="44.2721281" lon="9.6076536"><ele>373.25</ele><time>2026-03-22T15:28:01.68Z</time></trkpt><trkpt lat="44.2721048" lon="9.6078531"><ele>372.5</ele><time>2026-03-22T15:28:02.68Z</time></trkpt><trkpt lat="44.2720824" lon="9.6080494"><ele>371.75</ele><time>2026-03-22T15:28:03.681Z</time></trkpt><trkpt lat="44.2720713" lon="9.6082387"><ele>371.0</ele><time>2026-03-22T15:28:04.68Z</time></trkpt><trkpt lat="44.2720758" lon="9.6084432"><ele>371.0</ele><time>2026-03-22T15:28:05.68Z</time></trkpt><trkpt lat="44.272102" lon="9.6086556"><ele>371.0</ele><time>2026-03-22T15:28:06.68Z</time></trkpt><trkpt lat="44.2721511" lon="9.6088663"><ele>371.0</ele><time>2026-03-22T15:28:07.681Z</time></trkpt><trkpt lat="44.2721995" lon="9.6090616"><ele>370.5</ele><time>2026-03-22T15:28:08.68Z</time></trkpt><trkpt lat="44.2722334" lon="9.6092427"><ele>370.0</ele><time>2026-03-22T15:28:09.68Z</time></trkpt><trkpt lat="44.2722471" lon="9.6094325"><ele>369.5</ele><time>2026-03-22T15:28:10.68Z</time></trkpt><trkpt lat="44.2722401" lon="9.6096291"><ele>369.0</ele><time>2026-03-22T15:28:11.68Z</time></trkpt><trkpt lat="44.2722248" lon="9.6098418"><ele>368.75</ele><time>2026-03-22T15:28:12.681Z</time></trkpt><trkpt lat="44.272204" lon="9.6100379"><ele>368.5</ele><time>2026-03-22T15:28:13.681Z</time></trkpt><trkpt lat="44.2721934" lon="9.6102245"><ele>368.25</ele><time>2026-03-22T15:28:14.68Z</time></trkpt><trkpt lat="44.2721726" lon="9.6104273"><ele>368.0</ele><time>2026-03-22T15:28:15.68Z</time></trkpt><trkpt lat="44.2721481" lon="9.6106416"><ele>368.33333333333337</ele><time>2026-03-22T15:28:16.68Z</time></trkpt><trkpt lat="44.2721158" lon="9.6108641"><ele>368.6666666666667</ele><time>2026-03-22T15:28:17.681Z</time></trkpt><trkpt lat="44.2720784" lon="9.6110709"><ele>369.0</ele><time>2026-03-22T15:28:18.68Z</time></trkpt><trkpt lat="44.2720341" lon="9.6112722"><ele>369.0</ele><time>2026-03-22T15:28:19.68Z</time></trkpt><trkpt lat="44.2719804" lon="9.6114645"><ele>369.0</ele><time>2026-03-22T15:28:20.68Z</time></trkpt><trkpt lat="44.2719149" lon="9.6116361"><ele>369.0</ele><time>2026-03-22T15:28:21.681Z</time></trkpt><trkpt lat="44.2718395" lon="9.6117989"><ele>369.0</ele><time>2026-03-22T15:28:22.68Z</time></trkpt><trkpt lat="44.2717429" lon="9.6119488"><ele>367.6666666666667</ele><time>2026-03-22T15:28:23.68Z</time></trkpt><trkpt lat="44.271622" lon="9.6120839"><ele>366.33333333333337</ele><time>2026-03-22T15:28:24.68Z</time></trkpt><trkpt lat="44.2714987" lon="9.6122104"><ele>365.0</ele><time>2026-03-22T15:28:25.68Z</time></trkpt><trkpt lat="44.2713803" lon="9.6123293"><ele>365.0</ele><time>2026-03-22T15:28:26.68Z</time></trkpt><trkpt lat="44.271251" lon="9.6124719"><ele>365.0</ele><time>2026-03-22T15:28:27.68Z</time></trkpt><trkpt lat="44.2711219" lon="9.6126372"><ele>365.0</ele><time>2026-03-22T15:28:28.68Z</time></trkpt><trkpt lat="44.2709969" lon="9.6128012"><ele>366.5</ele><time>2026-03-22T15:28:29.681Z</time></trkpt><trkpt lat="44.2708822" lon="9.6129491"><ele>368.0</ele><time>2026-03-22T15:28:30.68Z</time></trkpt><trkpt lat="44.2707982" lon="9.6130946"><ele>369.5</ele><time>2026-03-22T15:28:31.681Z</time></trkpt><trkpt lat="44.2707199" lon="9.6132253"><ele>371.0</ele><time>2026-03-22T15:28:32.68Z</time></trkpt><trkpt lat="44.2706532" lon="9.6133571"><ele>368.75</ele><time>2026-03-22T15:28:33.681Z</time></trkpt><trkpt lat="44.2706008" lon="9.6134956"><ele>366.5</ele><time>2026-03-22T15:28:34.68Z</time></trkpt><trkpt lat="44.2705664" lon="9.6136365"><ele>364.25</ele><time>2026-03-22T15:28:35.68Z</time></trkpt><trkpt lat="44.2705564" lon="9.6138009"><ele>362.0</ele><time>2026-03-22T15:28:36.68Z</time></trkpt><trkpt lat="44.270572" lon="9.6139709"><ele>360.5</ele><time>2026-03-22T15:28:37.68Z</time></trkpt><trkpt lat="44.2705866" lon="9.6141595"><ele>359.0</ele><time>2026-03-22T15:28:38.68Z</time></trkpt><trkpt lat="44.2706026" lon="9.6143589"><ele>357.5</ele><time>2026-03-22T15:28:39.68Z</time></trkpt><trkpt lat="44.2706173" lon="9.6145581"><ele>356.0</ele><time>2026-03-22T15:28:40.68Z</time></trkpt><trkpt lat="44.270622" lon="9.6147629"><ele>356.33333333333337</ele><time>2026-03-22T15:28:41.68Z</time></trkpt><trkpt lat="44.2706016" lon="9.6149914"><ele>356.6666666666667</ele><time>2026-03-22T15:28:42.68Z</time></trkpt><trkpt lat="44.2705456" lon="9.6152082"><ele>357.0</ele><time>2026-03-22T15:28:43.68Z</time></trkpt><trkpt lat="44.2704719" lon="9.6153974"><ele>357.0</ele><time>2026-03-22T15:28:44.68Z</time></trkpt><trkpt lat="44.2703895" lon="9.6155602"><ele>357.0</ele><time>2026-03-22T15:28:45.68Z</time></trkpt><trkpt lat="44.2702901" lon="9.6157011"><ele>357.0</ele><time>2026-03-22T15:28:46.68Z</time></trkpt><trkpt lat="44.270178" lon="9.6158203"><ele>357.0</ele><time>2026-03-22T15:28:47.68Z</time></trkpt><trkpt lat="44.2700557" lon="9.615936"><ele>357.0</ele><time>2026-03-22T15:28:48.68Z</time></trkpt><trkpt lat="44.2699302" lon="9.6160476"><ele>357.0</ele><time>2026-03-22T15:28:49.68Z</time></trkpt><trkpt lat="44.2698023" lon="9.6161568"><ele>357.0</ele><time>2026-03-22T15:28:50.68Z</time></trkpt><trkpt lat="44.2696838" lon="9.6162646"><ele>357.0</ele><time>2026-03-22T15:28:51.68Z</time></trkpt><trkpt lat="44.2695726" lon="9.6164009"><ele>354.3333333333333</ele><time>2026-03-22T15:28:52.68Z</time></trkpt><trkpt lat="44.2694601" lon="9.6165555"><ele>351.66666666666663</ele><time>2026-03-22T15:28:53.681Z</time></trkpt><trkpt lat="44.2693613" lon="9.6167241"><ele>349.0</ele><time>2026-03-22T15:28:54.68Z</time></trkpt><trkpt lat="44.2693364" lon="9.6169342"><ele>346.0</ele><time>2026-03-22T15:28:55.68Z</time></trkpt><trkpt lat="44.2692963" lon="9.6171292"><ele>343.0</ele><time>2026-03-22T15:28:56.68Z</time></trkpt><trkpt lat="44.2692615" lon="9.6173166"><ele>340.0</ele><time>2026-03-22T15:28:57.68Z</time></trkpt><trkpt lat="44.2692576" lon="9.6175514"><ele>340.0</ele><time>2026-03-22T15:28:58.68Z</time></trkpt><trkpt lat="44.2692845" lon="9.6178045"><ele>340.0</ele><time>2026-03-22T15:28:59.681Z</time></trkpt><trkpt lat="44.2692749" lon="9.6180447"><ele>340.0</ele><time>2026-03-22T15:29:00.68Z</time></trkpt><trkpt lat="44.269282" lon="9.6182799"><ele>339.0</ele><time>2026-03-22T15:29:01.68Z</time></trkpt><trkpt lat="44.2692891" lon="9.6185049"><ele>338.0</ele><time>2026-03-22T15:29:02.68Z</time></trkpt><trkpt lat="44.2692855" lon="9.6187376"><ele>337.0</ele><time>2026-03-22T15:29:03.68Z</time></trkpt><trkpt lat="44.2692768" lon="9.6189709"><ele>337.0</ele><time>2026-03-22T15:29:04.68Z</time></trkpt><trkpt lat="44.2692597" lon="9.6192103"><ele>337.0</ele><time>2026-03-22T15:29:05.68Z</time></trkpt><trkpt lat="44.2692331" lon="9.6194504"><ele>337.0</ele><time>2026-03-22T15:29:06.68Z</time></trkpt><trkpt lat="44.2692047" lon="9.6196874"><ele>335.3333333333333</ele><time>2026-03-22T15:29:07.68Z</time></trkpt><trkpt lat="44.2691732" lon="9.6199195"><ele>333.6666666666667</ele><time>2026-03-22T15:29:08.68Z</time></trkpt><trkpt lat="44.2691494" lon="9.6201461"><ele>332.0</ele><time>2026-03-22T15:29:09.68Z</time></trkpt><trkpt lat="44.2691242" lon="9.6203745"><ele>331.33333333333337</ele><time>2026-03-22T15:29:10.681Z</time></trkpt><trkpt lat="44.2690935" lon="9.6205989"><ele>330.6666666666667</ele><time>2026-03-22T15:29:11.68Z</time></trkpt><trkpt lat="44.26905" lon="9.620816"><ele>330.0</ele><time>2026-03-22T15:29:12.68Z</time></trkpt><trkpt lat="44.2689912" lon="9.621035"><ele>321.6666666666667</ele><time>2026-03-22T15:29:13.68Z</time></trkpt><trkpt lat="44.2689085" lon="9.6212593"><ele>313.33333333333337</ele><time>2026-03-22T15:29:14.68Z</time></trkpt><trkpt lat="44.2688104" lon="9.6214881"><ele>305.0</ele><time>2026-03-22T15:29:15.68Z</time></trkpt><trkpt lat="44.2687079" lon="9.621715"><ele>305.0</ele><time>2026-03-22T15:29:16.68Z</time></trkpt><trkpt lat="44.2686038" lon="9.6219414"><ele>305.0</ele><time>2026-03-22T15:29:17.68Z</time></trkpt><trkpt lat="44.268507" lon="9.6221543"><ele>305.0</ele><time>2026-03-22T15:29:18.68Z</time></trkpt><trkpt lat="44.2684111" lon="9.6223574"><ele>308.33333333333337</ele><time>2026-03-22T15:29:19.68Z</time></trkpt><trkpt lat="44.2683237" lon="9.622552"><ele>311.6666666666667</ele><time>2026-03-22T15:29:20.68Z</time></trkpt><trkpt lat="44.2682488" lon="9.6227416"><ele>315.0</ele><time>2026-03-22T15:29:21.68Z</time></trkpt><trkpt lat="44.2681897" lon="9.6229366"><ele>316.5</ele><time>2026-03-22T15:29:22.68Z</time></trkpt><trkpt lat="44.2681433" lon="9.6231361"><ele>318.0</ele><time>2026-03-22T15:29:23.681Z</time></trkpt><trkpt lat="44.2681143" lon="9.6233356"><ele>319.5</ele><time>2026-03-22T15:29:24.68Z</time></trkpt><trkpt lat="44.268086" lon="9.6235333"><ele>321.0</ele><time>2026-03-22T15:29:25.68Z</time></trkpt><trkpt lat="44.2680543" lon="9.6236999"><ele>313.40000000000003</ele><time>2026-03-22T15:29:26.68Z</time></trkpt><trkpt lat="44.2680369" lon="9.6238537"><ele>305.8</ele><time>2026-03-22T15:29:27.68Z</time></trkpt><trkpt lat="44.2680247" lon="9.6240051"><ele>298.20000000000005</ele><time>2026-03-22T15:29:28.68Z</time></trkpt><trkpt lat="44.2680196" lon="9.6241462"><ele>290.6</ele><time>2026-03-22T15:29:29.681Z</time></trkpt><trkpt lat="44.2680069" lon="9.6242906"><ele>283.0</ele><time>2026-03-22T15:29:30.68Z</time></trkpt><trkpt lat="44.2679745" lon="9.6244213"><ele>285.0</ele><time>2026-03-22T15:29:31.68Z</time></trkpt><trkpt lat="44.2679431" lon="9.6245504"><ele>287.0</ele><time>2026-03-22T15:29:32.68Z</time></trkpt><trkpt lat="44.2678842" lon="9.6246579"><ele>289.0</ele><time>2026-03-22T15:29:33.68Z</time></trkpt><trkpt lat="44.2678194" lon="9.6248661"><ele>291.0</ele><time>2026-03-22T15:29:34.68Z</time></trkpt><trkpt lat="44.2677439" lon="9.6250367"><ele>291.0</ele><time>2026-03-22T15:29:35.68Z</time></trkpt><trkpt lat="44.2676543" lon="9.6252078"><ele>291.0</ele><time>2026-03-22T15:29:36.68Z</time></trkpt><trkpt lat="44.2675639" lon="9.6253773"><ele>291.0</ele><time>2026-03-22T15:29:37.68Z</time></trkpt><trkpt lat="44.2674716" lon="9.6255416"><ele>286.5</ele><time>2026-03-22T15:29:38.68Z</time></trkpt><trkpt lat="44.26738" lon="9.6256907"><ele>282.0</ele><time>2026-03-22T15:29:39.681Z</time></trkpt><trkpt lat="44.267275" lon="9.6258211"><ele>277.5</ele><time>2026-03-22T15:29:40.68Z</time></trkpt><trkpt lat="44.2671571" lon="9.6259145"><ele>273.0</ele><time>2026-03-22T15:29:41.68Z</time></trkpt><trkpt lat="44.2670405" lon="9.6260413"><ele>277.5</ele><time>2026-03-22T15:29:42.68Z</time></trkpt><trkpt lat="44.2669239" lon="9.6261533"><ele>282.0</ele><time>2026-03-22T15:29:43.68Z</time></trkpt><trkpt lat="44.2668336" lon="9.6262892"><ele>286.5</ele><time>2026-03-22T15:29:44.68Z</time></trkpt><trkpt lat="44.2667344" lon="9.6264095"><ele>291.0</ele><time>2026-03-22T15:29:45.681Z</time></trkpt><trkpt lat="44.2666432" lon="9.626532"><ele>291.0</ele><time>2026-03-22T15:29:46.68Z</time></trkpt><trkpt lat="44.2665578" lon="9.6266519"><ele>291.0</ele><time>2026-03-22T15:29:47.68Z</time></trkpt><trkpt lat="44.2665164" lon="9.6267836"><ele>291.0</ele><time>2026-03-22T15:29:48.68Z</time></trkpt><trkpt lat="44.2664948" lon="9.6269073"><ele>291.0</ele><time>2026-03-22T15:29:49.68Z</time></trkpt><trkpt lat="44.2664739" lon="9.6270447"><ele>291.0</ele><time>2026-03-22T15:29:50.68Z</time></trkpt><trkpt lat="44.2664949" lon="9.6271629"><ele>287.5</ele><time>2026-03-22T15:29:51.681Z</time></trkpt><trkpt lat="44.2665357" lon="9.6272512"><ele>284.0</ele><time>2026-03-22T15:29:52.68Z</time></trkpt><trkpt lat="44.2666404" lon="9.6273325"><ele>280.5</ele><time>2026-03-22T15:29:53.68Z</time></trkpt><trkpt lat="44.2668227" lon="9.6273671"><ele>277.0</ele><time>2026-03-22T15:29:54.681Z</time></trkpt><trkpt lat="44.2669177" lon="9.6274569"><ele>277.0</ele><time>2026-03-22T15:29:55.68Z</time></trkpt><trkpt lat="44.2669787" lon="9.6275727"><ele>277.0</ele><time>2026-03-22T15:29:56.68Z</time></trkpt><trkpt lat="44.2670188" lon="9.6276915"><ele>277.0</ele><time>2026-03-22T15:29:57.68Z</time></trkpt><trkpt lat="44.2670394" lon="9.6278194"><ele>277.0</ele><time>2026-03-22T15:29:58.68Z</time></trkpt><trkpt lat="44.267055" lon="9.6279712"><ele>277.0</ele><time>2026-03-22T15:29:59.68Z</time></trkpt><trkpt lat="44.2670555" lon="9.6281493"><ele>274.0</ele><time>2026-03-22T15:30:00.68Z</time></trkpt><trkpt lat="44.2670627" lon="9.6283268"><ele>271.0</ele><time>2026-03-22T15:30:01.681Z</time></trkpt><trkpt lat="44.2670695" lon="9.6285013"><ele>268.0</ele><time>2026-03-22T15:30:02.68Z</time></trkpt><trkpt lat="44.2670841" lon="9.6287171"><ele>265.0</ele><time>2026-03-22T15:30:03.68Z</time></trkpt><trkpt lat="44.2670898" lon="9.6289115"><ele>263.5</ele><time>2026-03-22T15:30:04.681Z</time></trkpt><trkpt lat="44.2670962" lon="9.6290918"><ele>262.0</ele><time>2026-03-22T15:30:05.68Z</time></trkpt><trkpt lat="44.2670851" lon="9.6292604"><ele>260.5</ele><time>2026-03-22T15:30:06.681Z</time></trkpt><trkpt lat="44.2670573" lon="9.6294251"><ele>259.0</ele><time>2026-03-22T15:30:07.68Z</time></trkpt><trkpt lat="44.2669993" lon="9.6295789"><ele>263.75</ele><time>2026-03-22T15:30:08.68Z</time></trkpt><trkpt lat="44.2669322" lon="9.6297215"><ele>268.5</ele><time>2026-03-22T15:30:09.68Z</time></trkpt><trkpt lat="44.2668199" lon="9.6298579"><ele>273.25</ele><time>2026-03-22T15:30:10.68Z</time></trkpt><trkpt lat="44.2667018" lon="9.6299843"><ele>278.0</ele><time>2026-03-22T15:30:11.68Z</time></trkpt><trkpt lat="44.2665828" lon="9.6301024"><ele>278.0</ele><time>2026-03-22T15:30:12.68Z</time></trkpt><trkpt lat="44.2664634" lon="9.6302228"><ele>278.0</ele><time>2026-03-22T15:30:13.68Z</time></trkpt><trkpt lat="44.2663208" lon="9.6303159"><ele>278.0</ele><time>2026-03-22T15:30:14.681Z</time></trkpt><trkpt lat="44.2661921" lon="9.6304011"><ele>278.0</ele><time>2026-03-22T15:30:15.68Z</time></trkpt><trkpt lat="44.2660536" lon="9.630475"><ele>274.25</ele><time>2026-03-22T15:30:16.68Z</time></trkpt><trkpt lat="44.2659175" lon="9.630522"><ele>270.5</ele><time>2026-03-22T15:30:17.68Z</time></trkpt><trkpt lat="44.2657823" lon="9.6305415"><ele>266.75</ele><time>2026-03-22T15:30:18.68Z</time></trkpt><trkpt lat="44.265655" lon="9.6305367"><ele>263.0</ele><time>2026-03-22T15:30:19.681Z</time></trkpt><trkpt lat="44.265535" lon="9.630529"><ele>263.0</ele><time>2026-03-22T15:30:20.68Z</time></trkpt><trkpt lat="44.265417" lon="9.6305425"><ele>263.0</ele><time>2026-03-22T15:30:21.68Z</time></trkpt><trkpt lat="44.2653069" lon="9.6305578"><ele>263.0</ele><time>2026-03-22T15:30:22.68Z</time></trkpt><trkpt lat="44.2652042" lon="9.6305848"><ele>263.0</ele><time>2026-03-22T15:30:23.68Z</time></trkpt><trkpt lat="44.2651024" lon="9.6307046"><ele>263.0</ele><time>2026-03-22T15:30:24.68Z</time></trkpt><trkpt lat="44.2650136" lon="9.6308136"><ele>263.0</ele><time>2026-03-22T15:30:25.68Z</time></trkpt><trkpt lat="44.2649263" lon="9.6309617"><ele>263.0</ele><time>2026-03-22T15:30:26.68Z</time></trkpt><trkpt lat="44.264851" lon="9.6311333"><ele>263.0</ele><time>2026-03-22T15:30:27.68Z</time></trkpt><trkpt lat="44.2647957" lon="9.6314488"><ele>260.6666666666667</ele><time>2026-03-22T15:30:28.68Z</time></trkpt><trkpt lat="44.2647186" lon="9.6316429"><ele>258.3333333333333</ele><time>2026-03-22T15:30:29.68Z</time></trkpt><trkpt lat="44.2646516" lon="9.6318379"><ele>256.0</ele><time>2026-03-22T15:30:30.68Z</time></trkpt><trkpt lat="44.2645826" lon="9.6320119"><ele>256.0</ele><time>2026-03-22T15:30:31.682Z</time></trkpt><trkpt lat="44.2645073" lon="9.6321757"><ele>256.0</ele><time>2026-03-22T15:30:32.681Z</time></trkpt><trkpt lat="44.2644478" lon="9.6323235"><ele>256.0</ele><time>2026-03-22T15:30:33.681Z</time></trkpt><trkpt lat="44.2643807" lon="9.63246"><ele>256.0</ele><time>2026-03-22T15:30:34.681Z</time></trkpt><trkpt lat="44.264331" lon="9.632599"><ele>256.0</ele><time>2026-03-22T15:30:35.681Z</time></trkpt><trkpt lat="44.2643053" lon="9.6327412"><ele>256.0</ele><time>2026-03-22T15:30:36.681Z</time></trkpt><trkpt lat="44.2643192" lon="9.6328965"><ele>256.0</ele><time>2026-03-22T15:30:37.681Z</time></trkpt><trkpt lat="44.2643919" lon="9.6330501"><ele>256.0</ele><time>2026-03-22T15:30:38.681Z</time></trkpt><trkpt lat="44.2644498" lon="9.633245"><ele>254.0</ele><time>2026-03-22T15:30:39.681Z</time></trkpt><trkpt lat="44.2645314" lon="9.633438"><ele>252.0</ele><time>2026-03-22T15:30:40.681Z</time></trkpt><trkpt lat="44.2646353" lon="9.633644"><ele>250.0</ele><time>2026-03-22T15:30:41.681Z</time></trkpt><trkpt lat="44.2646913" lon="9.6338348"><ele>250.0</ele><time>2026-03-22T15:30:42.681Z</time></trkpt><trkpt lat="44.264769" lon="9.634022"><ele>250.0</ele><time>2026-03-22T15:30:43.681Z</time></trkpt><trkpt lat="44.2648444" lon="9.634216"><ele>250.0</ele><time>2026-03-22T15:30:44.681Z</time></trkpt><trkpt lat="44.2649678" lon="9.634435"><ele>246.0</ele><time>2026-03-22T15:30:45.681Z</time></trkpt><trkpt lat="44.2651168" lon="9.6346095"><ele>242.0</ele><time>2026-03-22T15:30:46.681Z</time></trkpt><trkpt lat="44.2652109" lon="9.6347792"><ele>238.0</ele><time>2026-03-22T15:30:47.681Z</time></trkpt><trkpt lat="44.2653014" lon="9.6349262"><ele>238.0</ele><time>2026-03-22T15:30:48.682Z</time></trkpt><trkpt lat="44.2653865" lon="9.6350644"><ele>238.0</ele><time>2026-03-22T15:30:49.681Z</time></trkpt><trkpt lat="44.2654684" lon="9.6351967"><ele>238.0</ele><time>2026-03-22T15:30:50.681Z</time></trkpt><trkpt lat="44.2655911" lon="9.635298"><ele>238.0</ele><time>2026-03-22T15:30:51.681Z</time></trkpt><trkpt lat="44.2657299" lon="9.6353881"><ele>236.66666666666666</ele><time>2026-03-22T15:30:52.681Z</time></trkpt><trkpt lat="44.2658844" lon="9.6354965"><ele>235.33333333333331</ele><time>2026-03-22T15:30:53.681Z</time></trkpt><trkpt lat="44.2661356" lon="9.6356222"><ele>234.0</ele><time>2026-03-22T15:30:54.681Z</time></trkpt><trkpt lat="44.266326" lon="9.6357221"><ele>238.66666666666669</ele><time>2026-03-22T15:30:55.681Z</time></trkpt><trkpt lat="44.2664985" lon="9.6358215"><ele>243.33333333333334</ele><time>2026-03-22T15:30:56.681Z</time></trkpt><trkpt lat="44.2666617" lon="9.6359321"><ele>248.0</ele><time>2026-03-22T15:30:57.681Z</time></trkpt><trkpt lat="44.2668017" lon="9.6360372"><ele>241.33333333333334</ele><time>2026-03-22T15:30:58.681Z</time></trkpt><trkpt lat="44.2669209" lon="9.6361817"><ele>234.66666666666669</ele><time>2026-03-22T15:30:59.681Z</time></trkpt><trkpt lat="44.2670249" lon="9.6363432"><ele>228.0</ele><time>2026-03-22T15:31:00.681Z</time></trkpt><trkpt lat="44.2671119" lon="9.6365253"><ele>228.0</ele><time>2026-03-22T15:31:01.681Z</time></trkpt><trkpt lat="44.2672009" lon="9.636706"><ele>228.0</ele><time>2026-03-22T15:31:02.681Z</time></trkpt><trkpt lat="44.267174" lon="9.6369351"><ele>228.0</ele><time>2026-03-22T15:31:03.681Z</time></trkpt><trkpt lat="44.2671809" lon="9.6371267"><ele>227.5</ele><time>2026-03-22T15:31:04.681Z</time></trkpt><trkpt lat="44.267148" lon="9.637311"><ele>227.0</ele><time>2026-03-22T15:31:05.681Z</time></trkpt><trkpt lat="44.2671069" lon="9.6374959"><ele>226.5</ele><time>2026-03-22T15:31:06.681Z</time></trkpt><trkpt lat="44.2670508" lon="9.6376618"><ele>226.0</ele><time>2026-03-22T15:31:07.681Z</time></trkpt><trkpt lat="44.2669996" lon="9.6378291"><ele>226.0</ele><time>2026-03-22T15:31:08.681Z</time></trkpt><trkpt lat="44.2669477" lon="9.6379817"><ele>226.0</ele><time>2026-03-22T15:31:09.681Z</time></trkpt><trkpt lat="44.2668775" lon="9.6381262"><ele>226.0</ele><time>2026-03-22T15:31:10.681Z</time></trkpt><trkpt lat="44.2668254" lon="9.6382507"><ele>226.0</ele><time>2026-03-22T15:31:11.681Z</time></trkpt><trkpt lat="44.2667944" lon="9.6383861"><ele>226.0</ele><time>2026-03-22T15:31:12.681Z</time></trkpt><trkpt lat="44.2667827" lon="9.6385299"><ele>226.00000000000003</ele><time>2026-03-22T15:31:13.681Z</time></trkpt><trkpt lat="44.2668104" lon="9.6386713"><ele>226.00000000000003</ele><time>2026-03-22T15:31:14.681Z</time></trkpt><trkpt lat="44.2668457" lon="9.6388093"><ele>226.0</ele><time>2026-03-22T15:31:15.681Z</time></trkpt><trkpt lat="44.2668979" lon="9.6389552"><ele>226.0</ele><time>2026-03-22T15:31:16.681Z</time></trkpt><trkpt lat="44.2669426" lon="9.6390726"><ele>227.33333333333331</ele><time>2026-03-22T15:31:17.681Z</time></trkpt><trkpt lat="44.2670835" lon="9.6392196"><ele>228.66666666666669</ele><time>2026-03-22T15:31:18.681Z</time></trkpt><trkpt lat="44.2673021" lon="9.6393347"><ele>230.0</ele><time>2026-03-22T15:31:19.681Z</time></trkpt><trkpt lat="44.2674644" lon="9.6394759"><ele>225.0</ele><time>2026-03-22T15:31:20.681Z</time></trkpt><trkpt lat="44.2676221" lon="9.6396359"><ele>220.0</ele><time>2026-03-22T15:31:21.681Z</time></trkpt><trkpt lat="44.2677955" lon="9.6397808"><ele>215.0</ele><time>2026-03-22T15:31:22.681Z</time></trkpt><trkpt lat="44.2679667" lon="9.6399315"><ele>213.0</ele><time>2026-03-22T15:31:23.681Z</time></trkpt><trkpt lat="44.2681325" lon="9.640069"><ele>211.0</ele><time>2026-03-22T15:31:24.681Z</time></trkpt><trkpt lat="44.2682968" lon="9.6402049"><ele>209.0</ele><time>2026-03-22T15:31:25.681Z</time></trkpt><trkpt lat="44.2684107" lon="9.6403698"><ele>209.0</ele><time>2026-03-22T15:31:26.681Z</time></trkpt><trkpt lat="44.2685041" lon="9.6405413"><ele>209.0</ele><time>2026-03-22T15:31:27.681Z</time></trkpt><trkpt lat="44.2685717" lon="9.6407429"><ele>209.0</ele><time>2026-03-22T15:31:28.681Z</time></trkpt><trkpt lat="44.2686058" lon="9.6409621"><ele>210.0</ele><time>2026-03-22T15:31:29.681Z</time></trkpt><trkpt lat="44.2685965" lon="9.6412072"><ele>211.0</ele><time>2026-03-22T15:31:30.681Z</time></trkpt><trkpt lat="44.268563" lon="9.6414703"><ele>212.0</ele><time>2026-03-22T15:31:31.681Z</time></trkpt><trkpt lat="44.2685247" lon="9.6417203"><ele>210.66666666666669</ele><time>2026-03-22T15:31:32.681Z</time></trkpt><trkpt lat="44.2684894" lon="9.6419679"><ele>209.33333333333331</ele><time>2026-03-22T15:31:33.681Z</time></trkpt><trkpt lat="44.2684685" lon="9.6422205"><ele>208.0</ele><time>2026-03-22T15:31:34.682Z</time></trkpt><trkpt lat="44.2684526" lon="9.6424481"><ele>208.0</ele><time>2026-03-22T15:31:35.681Z</time></trkpt><trkpt lat="44.2685321" lon="9.6426765"><ele>208.0</ele><time>2026-03-22T15:31:36.681Z</time></trkpt><trkpt lat="44.2685857" lon="9.6429016"><ele>208.0</ele><time>2026-03-22T15:31:37.681Z</time></trkpt><trkpt lat="44.2686518" lon="9.6431035"><ele>208.33333333333331</ele><time>2026-03-22T15:31:38.682Z</time></trkpt><trkpt lat="44.2688463" lon="9.6432164"><ele>208.66666666666669</ele><time>2026-03-22T15:31:39.681Z</time></trkpt><trkpt lat="44.268951" lon="9.6433946"><ele>209.0</ele><time>2026-03-22T15:31:40.682Z</time></trkpt><trkpt lat="44.2690383" lon="9.6437027"><ele>209.0</ele><time>2026-03-22T15:31:41.681Z</time></trkpt><trkpt lat="44.2691208" lon="9.6439552"><ele>209.0</ele><time>2026-03-22T15:31:42.681Z</time></trkpt><trkpt lat="44.2691965" lon="9.6442182"><ele>209.0</ele><time>2026-03-22T15:31:43.681Z</time></trkpt><trkpt lat="44.2692683" lon="9.6444806"><ele>207.66666666666669</ele><time>2026-03-22T15:31:44.681Z</time></trkpt><trkpt lat="44.2693261" lon="9.6447587"><ele>206.33333333333331</ele><time>2026-03-22T15:31:45.682Z</time></trkpt><trkpt lat="44.2693645" lon="9.6450679"><ele>205.0</ele><time>2026-03-22T15:31:46.681Z</time></trkpt><trkpt lat="44.269393" lon="9.6453578"><ele>204.66666666666666</ele><time>2026-03-22T15:31:47.682Z</time></trkpt><trkpt lat="44.2694247" lon="9.6456339"><ele>204.33333333333331</ele><time>2026-03-22T15:31:48.681Z</time></trkpt><trkpt lat="44.2694551" lon="9.6459098"><ele>204.0</ele><time>2026-03-22T15:31:49.681Z</time></trkpt><trkpt lat="44.269497" lon="9.6461771"><ele>203.0</ele><time>2026-03-22T15:31:50.681Z</time></trkpt><trkpt lat="44.2695576" lon="9.6464228"><ele>202.0</ele><time>2026-03-22T15:31:51.681Z</time></trkpt><trkpt lat="44.2696231" lon="9.6466619"><ele>201.0</ele><time>2026-03-22T15:31:52.682Z</time></trkpt><trkpt lat="44.2697041" lon="9.6468901"><ele>198.0</ele><time>2026-03-22T15:31:53.681Z</time></trkpt><trkpt lat="44.2698161" lon="9.6471032"><ele>195.0</ele><time>2026-03-22T15:31:54.681Z</time></trkpt><trkpt lat="44.269931" lon="9.6472773"><ele>192.0</ele><time>2026-03-22T15:31:55.681Z</time></trkpt><trkpt lat="44.2700855" lon="9.6474293"><ele>192.0</ele><time>2026-03-22T15:31:56.681Z</time></trkpt><trkpt lat="44.2702145" lon="9.6475296"><ele>192.0</ele><time>2026-03-22T15:31:57.681Z</time></trkpt><trkpt lat="44.2703388" lon="9.6476783"><ele>192.0</ele><time>2026-03-22T15:31:58.682Z</time></trkpt><trkpt lat="44.2704273" lon="9.6478754"><ele>191.33333333333334</ele><time>2026-03-22T15:31:59.681Z</time></trkpt><trkpt lat="44.2705252" lon="9.648063"><ele>190.66666666666669</ele><time>2026-03-22T15:32:00.681Z</time></trkpt><trkpt lat="44.2705235" lon="9.6483797"><ele>190.0</ele><time>2026-03-22T15:32:01.681Z</time></trkpt><trkpt lat="44.2705793" lon="9.6486285"><ele>190.33333333333334</ele><time>2026-03-22T15:32:02.681Z</time></trkpt><trkpt lat="44.2706457" lon="9.6488934"><ele>190.66666666666666</ele><time>2026-03-22T15:32:03.681Z</time></trkpt><trkpt lat="44.270721" lon="9.6491536"><ele>191.0</ele><time>2026-03-22T15:32:04.682Z</time></trkpt><trkpt lat="44.2708034" lon="9.6494102"><ele>188.33333333333331</ele><time>2026-03-22T15:32:05.681Z</time></trkpt><trkpt lat="44.270885" lon="9.6496665"><ele>185.66666666666666</ele><time>2026-03-22T15:32:06.681Z</time></trkpt><trkpt lat="44.2709648" lon="9.649942"><ele>183.0</ele><time>2026-03-22T15:32:07.681Z</time></trkpt><trkpt lat="44.2710535" lon="9.6502188"><ele>182.0</ele><time>2026-03-22T15:32:08.681Z</time></trkpt><trkpt lat="44.2711391" lon="9.6504763"><ele>181.0</ele><time>2026-03-22T15:32:09.681Z</time></trkpt><trkpt lat="44.2712284" lon="9.6507359"><ele>180.0</ele><time>2026-03-22T15:32:10.681Z</time></trkpt><trkpt lat="44.2713131" lon="9.6509884"><ele>178.0</ele><time>2026-03-22T15:32:11.681Z</time></trkpt><trkpt lat="44.2714003" lon="9.6512226"><ele>176.0</ele><time>2026-03-22T15:32:12.681Z</time></trkpt><trkpt lat="44.2714711" lon="9.6514405"><ele>174.0</ele><time>2026-03-22T15:32:13.681Z</time></trkpt><trkpt lat="44.2715323" lon="9.6516628"><ele>179.66666666666666</ele><time>2026-03-22T15:32:14.681Z</time></trkpt><trkpt lat="44.2714816" lon="9.6519123"><ele>185.33333333333331</ele><time>2026-03-22T15:32:15.681Z</time></trkpt><trkpt lat="44.2715063" lon="9.6521438"><ele>191.0</ele><time>2026-03-22T15:32:16.682Z</time></trkpt><trkpt lat="44.2715338" lon="9.6523663"><ele>191.0</ele><time>2026-03-22T15:32:17.681Z</time></trkpt><trkpt lat="44.2715792" lon="9.6525894"><ele>191.0</ele><time>2026-03-22T15:32:18.681Z</time></trkpt><trkpt lat="44.2716553" lon="9.6527986"><ele>191.0</ele><time>2026-03-22T15:32:19.681Z</time></trkpt><trkpt lat="44.2717481" lon="9.6529858"><ele>186.0</ele><time>2026-03-22T15:32:20.681Z</time></trkpt><trkpt lat="44.2718839" lon="9.6531631"><ele>181.0</ele><time>2026-03-22T15:32:21.681Z</time></trkpt><trkpt lat="44.272052" lon="9.6533237"><ele>176.0</ele><time>2026-03-22T15:32:22.681Z</time></trkpt><trkpt lat="44.2722184" lon="9.6534835"><ele>177.33333333333331</ele><time>2026-03-22T15:32:23.682Z</time></trkpt><trkpt lat="44.2723749" lon="9.6536653"><ele>178.66666666666666</ele><time>2026-03-22T15:32:24.681Z</time></trkpt><trkpt lat="44.272527" lon="9.6538731"><ele>180.0</ele><time>2026-03-22T15:32:25.681Z</time></trkpt><trkpt lat="44.272671" lon="9.6540958"><ele>180.0</ele><time>2026-03-22T15:32:26.681Z</time></trkpt><trkpt lat="44.2728103" lon="9.6543253"><ele>180.0</ele><time>2026-03-22T15:32:27.681Z</time></trkpt><trkpt lat="44.2729489" lon="9.6545521"><ele>180.0</ele><time>2026-03-22T15:32:28.681Z</time></trkpt><trkpt lat="44.2730749" lon="9.6547763"><ele>179.0</ele><time>2026-03-22T15:32:29.681Z</time></trkpt><trkpt lat="44.2731978" lon="9.6549923"><ele>178.0</ele><time>2026-03-22T15:32:30.681Z</time></trkpt><trkpt lat="44.2733139" lon="9.6551877"><ele>177.0</ele><time>2026-03-22T15:32:31.682Z</time></trkpt><trkpt lat="44.2734199" lon="9.6553828"><ele>177.0</ele><time>2026-03-22T15:32:32.681Z</time></trkpt><trkpt lat="44.2735238" lon="9.6555894"><ele>177.0</ele><time>2026-03-22T15:32:33.681Z</time></trkpt><trkpt lat="44.2736343" lon="9.6558049"><ele>177.0</ele><time>2026-03-22T15:32:34.681Z</time></trkpt><trkpt lat="44.2737406" lon="9.6560526"><ele>175.33333333333334</ele><time>2026-03-22T15:32:35.681Z</time></trkpt><trkpt lat="44.2738423" lon="9.656297"><ele>173.66666666666669</ele><time>2026-03-22T15:32:36.681Z</time></trkpt><trkpt lat="44.2739361" lon="9.6565315"><ele>172.0</ele><time>2026-03-22T15:32:37.682Z</time></trkpt><trkpt lat="44.2740304" lon="9.6567601"><ele>175.66666666666669</ele><time>2026-03-22T15:32:38.681Z</time></trkpt><trkpt lat="44.2741274" lon="9.6569868"><ele>179.33333333333334</ele><time>2026-03-22T15:32:39.681Z</time></trkpt><trkpt lat="44.2742325" lon="9.6572129"><ele>183.0</ele><time>2026-03-22T15:32:40.681Z</time></trkpt><trkpt lat="44.2743577" lon="9.6574283"><ele>183.0</ele><time>2026-03-22T15:32:41.681Z</time></trkpt><trkpt lat="44.2744832" lon="9.657617"><ele>183.0</ele><time>2026-03-22T15:32:42.681Z</time></trkpt><trkpt lat="44.2746069" lon="9.6577961"><ele>183.0</ele><time>2026-03-22T15:32:43.681Z</time></trkpt><trkpt lat="44.274718" lon="9.6579565"><ele>184.0</ele><time>2026-03-22T15:32:44.681Z</time></trkpt><trkpt lat="44.2748152" lon="9.6581191"><ele>185.0</ele><time>2026-03-22T15:32:45.681Z</time></trkpt><trkpt lat="44.2748854" lon="9.6582935"><ele>186.0</ele><time>2026-03-22T15:32:46.682Z</time></trkpt><trkpt lat="44.2749228" lon="9.6584777"><ele>187.0</ele><time>2026-03-22T15:32:47.682Z</time></trkpt><trkpt lat="44.2749332" lon="9.6586661"><ele>187.0</ele><time>2026-03-22T15:32:48.681Z</time></trkpt><trkpt lat="44.2749459" lon="9.6588454"><ele>187.0</ele><time>2026-03-22T15:32:49.681Z</time></trkpt><trkpt lat="44.274975" lon="9.6589914"><ele>187.0</ele><time>2026-03-22T15:32:50.681Z</time></trkpt><trkpt lat="44.2750171" lon="9.659114"><ele>187.0</ele><time>2026-03-22T15:32:51.681Z</time></trkpt><trkpt lat="44.2750646" lon="9.6592174"><ele>187.0</ele><time>2026-03-22T15:32:52.681Z</time></trkpt><trkpt lat="44.2751044" lon="9.6593029"><ele>185.2</ele><time>2026-03-22T15:32:53.681Z</time></trkpt><trkpt lat="44.2751453" lon="9.6594592"><ele>183.39999999999998</ele><time>2026-03-22T15:32:55.681Z</time></trkpt><trkpt lat="44.2751296" lon="9.6595462"><ele>181.60000000000002</ele><time>2026-03-22T15:32:57.681Z</time></trkpt><trkpt lat="44.2751135" lon="9.6596326"><ele>179.8</ele><time>2026-03-22T15:33:43.681Z</time></trkpt><trkpt lat="44.275022" lon="9.6596647"><ele>178.0</ele><time>2026-03-22T15:33:47.681Z</time></trkpt><trkpt lat="44.274892" lon="9.6596271"><ele>178.0</ele><time>2026-03-22T15:33:49.681Z</time></trkpt><trkpt lat="44.2748141" lon="9.659588"><ele>178.0</ele><time>2026-03-22T15:33:50.681Z</time></trkpt><trkpt lat="44.2747318" lon="9.6595573"><ele>178.0</ele><time>2026-03-22T15:33:51.681Z</time></trkpt><trkpt lat="44.2746537" lon="9.6595249"><ele>178.0</ele><time>2026-03-22T15:33:52.682Z</time></trkpt><trkpt lat="44.274563" lon="9.659491"><ele>178.0</ele><time>2026-03-22T15:33:53.681Z</time></trkpt><trkpt lat="44.2744581" lon="9.6594427"><ele>177.60000000000002</ele><time>2026-03-22T15:33:54.681Z</time></trkpt><trkpt lat="44.274357" lon="9.6594025"><ele>177.20000000000002</ele><time>2026-03-22T15:33:55.681Z</time></trkpt><trkpt lat="44.2742648" lon="9.6593659"><ele>176.8</ele><time>2026-03-22T15:33:56.681Z</time></trkpt><trkpt lat="44.2741696" lon="9.659323"><ele>176.4</ele><time>2026-03-22T15:33:57.681Z</time></trkpt><trkpt lat="44.2740747" lon="9.6592688"><ele>176.0</ele><time>2026-03-22T15:33:58.681Z</time></trkpt><trkpt lat="44.2739799" lon="9.6591988"><ele>182.0</ele><time>2026-03-22T15:33:59.681Z</time></trkpt><trkpt lat="44.2738769" lon="9.6591097"><ele>188.0</ele><time>2026-03-22T15:34:00.681Z</time></trkpt><trkpt lat="44.2737728" lon="9.6589903"><ele>194.0</ele><time>2026-03-22T15:34:01.681Z</time></trkpt><trkpt lat="44.2736712" lon="9.6588483"><ele>200.0</ele><time>2026-03-22T15:34:02.681Z</time></trkpt><trkpt lat="44.2735757" lon="9.6586897"><ele>195.33333333333334</ele><time>2026-03-22T15:34:03.681Z</time></trkpt><trkpt lat="44.2734856" lon="9.6585057"><ele>190.66666666666669</ele><time>2026-03-22T15:34:04.681Z</time></trkpt><trkpt lat="44.273406" lon="9.6583079"><ele>186.0</ele><time>2026-03-22T15:34:05.681Z</time></trkpt><trkpt lat="44.2733322" lon="9.6581071"><ele>186.0</ele><time>2026-03-22T15:34:06.681Z</time></trkpt><trkpt lat="44.2732382" lon="9.657893"><ele>186.0</ele><time>2026-03-22T15:34:07.681Z</time></trkpt><trkpt lat="44.273133" lon="9.6576886"><ele>186.0</ele><time>2026-03-22T15:34:08.681Z</time></trkpt><trkpt lat="44.2729991" lon="9.6575028"><ele>187.33333333333334</ele><time>2026-03-22T15:34:09.681Z</time></trkpt><trkpt lat="44.2728731" lon="9.6573344"><ele>188.66666666666669</ele><time>2026-03-22T15:34:10.681Z</time></trkpt><trkpt lat="44.2727464" lon="9.6571683"><ele>190.0</ele><time>2026-03-22T15:34:11.681Z</time></trkpt><trkpt lat="44.2726254" lon="9.6570105"><ele>186.0</ele><time>2026-03-22T15:34:12.682Z</time></trkpt><trkpt lat="44.2724904" lon="9.6568744"><ele>182.0</ele><time>2026-03-22T15:34:13.681Z</time></trkpt><trkpt lat="44.272343" lon="9.6567542"><ele>178.0</ele><time>2026-03-22T15:34:14.681Z</time></trkpt><trkpt lat="44.2721844" lon="9.6566529"><ele>178.0</ele><time>2026-03-22T15:34:15.681Z</time></trkpt><trkpt lat="44.2720046" lon="9.6565692"><ele>178.0</ele><time>2026-03-22T15:34:16.681Z</time></trkpt><trkpt lat="44.2718241" lon="9.6565126"><ele>178.0</ele><time>2026-03-22T15:34:17.681Z</time></trkpt><trkpt lat="44.271645" lon="9.6564671"><ele>178.0</ele><time>2026-03-22T15:34:18.681Z</time></trkpt><trkpt lat="44.2714557" lon="9.6564614"><ele>178.0</ele><time>2026-03-22T15:34:19.681Z</time></trkpt><trkpt lat="44.2712669" lon="9.6564698"><ele>178.0</ele><time>2026-03-22T15:34:20.681Z</time></trkpt><trkpt lat="44.2710757" lon="9.6564825"><ele>179.0</ele><time>2026-03-22T15:34:21.681Z</time></trkpt><trkpt lat="44.2708803" lon="9.6565013"><ele>180.0</ele><time>2026-03-22T15:34:22.681Z</time></trkpt><trkpt lat="44.2706846" lon="9.6565172"><ele>181.0</ele><time>2026-03-22T15:34:23.681Z</time></trkpt><trkpt lat="44.2704912" lon="9.6565308"><ele>181.0</ele><time>2026-03-22T15:34:24.681Z</time></trkpt><trkpt lat="44.2702962" lon="9.6565486"><ele>181.0</ele><time>2026-03-22T15:34:25.681Z</time></trkpt><trkpt lat="44.2701051" lon="9.6565673"><ele>181.0</ele><time>2026-03-22T15:34:26.681Z</time></trkpt><trkpt lat="44.26992" lon="9.6565777"><ele>177.66666666666669</ele><time>2026-03-22T15:34:27.681Z</time></trkpt><trkpt lat="44.2697433" lon="9.6566261"><ele>174.33333333333334</ele><time>2026-03-22T15:34:28.681Z</time></trkpt><trkpt lat="44.2695675" lon="9.6567302"><ele>171.0</ele><time>2026-03-22T15:34:29.681Z</time></trkpt><trkpt lat="44.2694108" lon="9.6568805"><ele>172.66666666666666</ele><time>2026-03-22T15:34:30.681Z</time></trkpt><trkpt lat="44.2692615" lon="9.6570146"><ele>174.33333333333331</ele><time>2026-03-22T15:34:31.681Z</time></trkpt><trkpt lat="44.2691921" lon="9.657248"><ele>176.0</ele><time>2026-03-22T15:34:32.681Z</time></trkpt><trkpt lat="44.2691248" lon="9.6574953"><ele>176.0</ele><time>2026-03-22T15:34:33.681Z</time></trkpt><trkpt lat="44.2690858" lon="9.6577546"><ele>176.0</ele><time>2026-03-22T15:34:34.681Z</time></trkpt><trkpt lat="44.2690559" lon="9.6580088"><ele>176.0</ele><time>2026-03-22T15:34:35.681Z</time></trkpt><trkpt lat="44.2690288" lon="9.6582616"><ele>177.66666666666666</ele><time>2026-03-22T15:34:36.681Z</time></trkpt><trkpt lat="44.2690014" lon="9.6585084"><ele>179.33333333333334</ele><time>2026-03-22T15:34:37.681Z</time></trkpt><trkpt lat="44.2689748" lon="9.6587519"><ele>181.0</ele><time>2026-03-22T15:34:38.681Z</time></trkpt><trkpt lat="44.2689471" lon="9.659002"><ele>176.0</ele><time>2026-03-22T15:34:39.681Z</time></trkpt><trkpt lat="44.2689275" lon="9.6592574"><ele>171.0</ele><time>2026-03-22T15:34:40.681Z</time></trkpt><trkpt lat="44.2689049" lon="9.6594988"><ele>166.0</ele><time>2026-03-22T15:34:41.681Z</time></trkpt><trkpt lat="44.2688781" lon="9.6597445"><ele>166.0</ele><time>2026-03-22T15:34:42.681Z</time></trkpt><trkpt lat="44.2688566" lon="9.6599922"><ele>166.0</ele><time>2026-03-22T15:34:43.682Z</time></trkpt><trkpt lat="44.2688258" lon="9.660242"><ele>166.0</ele><time>2026-03-22T15:34:44.681Z</time></trkpt><trkpt lat="44.2688065" lon="9.6604949"><ele>166.0</ele><time>2026-03-22T15:34:45.681Z</time></trkpt><trkpt lat="44.2687767" lon="9.6607485"><ele>166.0</ele><time>2026-03-22T15:34:46.682Z</time></trkpt><trkpt lat="44.2687412" lon="9.661006"><ele>166.0</ele><time>2026-03-22T15:34:47.681Z</time></trkpt><trkpt lat="44.2686852" lon="9.6612564"><ele>169.66666666666669</ele><time>2026-03-22T15:34:48.681Z</time></trkpt><trkpt lat="44.2686081" lon="9.6615012"><ele>173.33333333333334</ele><time>2026-03-22T15:34:49.681Z</time></trkpt><trkpt lat="44.2685044" lon="9.6617283"><ele>177.0</ele><time>2026-03-22T15:34:50.681Z</time></trkpt><trkpt lat="44.2683804" lon="9.6619426"><ele>174.33333333333334</ele><time>2026-03-22T15:34:51.681Z</time></trkpt><trkpt lat="44.2682332" lon="9.6621364"><ele>171.66666666666669</ele><time>2026-03-22T15:34:52.681Z</time></trkpt><trkpt lat="44.268077" lon="9.6623167"><ele>169.0</ele><time>2026-03-22T15:34:53.681Z</time></trkpt><trkpt lat="44.2679218" lon="9.6624908"><ele>169.0</ele><time>2026-03-22T15:34:54.681Z</time></trkpt><trkpt lat="44.2677703" lon="9.662662"><ele>169.0</ele><time>2026-03-22T15:34:55.681Z</time></trkpt><trkpt lat="44.2676609" lon="9.6628804"><ele>169.0</ele><time>2026-03-22T15:34:56.681Z</time></trkpt><trkpt lat="44.267532" lon="9.66309"><ele>169.0</ele><time>2026-03-22T15:34:57.681Z</time></trkpt><trkpt lat="44.2674057" lon="9.663324"><ele>169.0</ele><time>2026-03-22T15:34:58.681Z</time></trkpt><trkpt lat="44.2672951" lon="9.6635597"><ele>169.0</ele><time>2026-03-22T15:34:59.681Z</time></trkpt><trkpt lat="44.2671918" lon="9.6637914"><ele>169.0</ele><time>2026-03-22T15:35:00.681Z</time></trkpt><trkpt lat="44.2670899" lon="9.6640131"><ele>169.0</ele><time>2026-03-22T15:35:01.681Z</time></trkpt><trkpt lat="44.2669914" lon="9.6642516"><ele>169.0</ele><time>2026-03-22T15:35:02.681Z</time></trkpt><trkpt lat="44.2669085" lon="9.6645"><ele>172.33333333333334</ele><time>2026-03-22T15:35:03.681Z</time></trkpt><trkpt lat="44.2668274" lon="9.6647428"><ele>175.66666666666666</ele><time>2026-03-22T15:35:04.681Z</time></trkpt><trkpt lat="44.266761" lon="9.6649951"><ele>179.0</ele><time>2026-03-22T15:35:05.681Z</time></trkpt><trkpt lat="44.2667052" lon="9.6652562"><ele>179.66666666666666</ele><time>2026-03-22T15:35:06.681Z</time></trkpt><trkpt lat="44.2666637" lon="9.6655327"><ele>180.33333333333334</ele><time>2026-03-22T15:35:07.681Z</time></trkpt><trkpt lat="44.2666335" lon="9.6657907"><ele>181.0</ele><time>2026-03-22T15:35:08.681Z</time></trkpt><trkpt lat="44.2665935" lon="9.6660329"><ele>181.0</ele><time>2026-03-22T15:35:09.681Z</time></trkpt><trkpt lat="44.2665344" lon="9.6662731"><ele>181.0</ele><time>2026-03-22T15:35:10.681Z</time></trkpt><trkpt lat="44.2664411" lon="9.6665105"><ele>181.0</ele><time>2026-03-22T15:35:11.681Z</time></trkpt><trkpt lat="44.2663261" lon="9.6667338"><ele>179.66666666666669</ele><time>2026-03-22T15:35:12.681Z</time></trkpt><trkpt lat="44.2662039" lon="9.6669292"><ele>178.33333333333334</ele><time>2026-03-22T15:35:13.681Z</time></trkpt><trkpt lat="44.2660745" lon="9.6670965"><ele>177.0</ele><time>2026-03-22T15:35:14.681Z</time></trkpt><trkpt lat="44.2659311" lon="9.6672493"><ele>177.0</ele><time>2026-03-22T15:35:15.682Z</time></trkpt><trkpt lat="44.2657738" lon="9.6673744"><ele>177.0</ele><time>2026-03-22T15:35:16.682Z</time></trkpt><trkpt lat="44.2656149" lon="9.6675123"><ele>177.0</ele><time>2026-03-22T15:35:17.682Z</time></trkpt><trkpt lat="44.2654643" lon="9.6676237"><ele>176.33333333333334</ele><time>2026-03-22T15:35:18.681Z</time></trkpt><trkpt lat="44.2652956" lon="9.6676831"><ele>175.66666666666669</ele><time>2026-03-22T15:35:19.681Z</time></trkpt><trkpt lat="44.2651242" lon="9.6677605"><ele>175.0</ele><time>2026-03-22T15:35:20.682Z</time></trkpt><trkpt lat="44.2649438" lon="9.6677957"><ele>185.0</ele><time>2026-03-22T15:35:21.681Z</time></trkpt><trkpt lat="44.2646857" lon="9.6675886"><ele>195.0</ele><time>2026-03-22T15:35:22.682Z</time></trkpt><trkpt lat="44.264493" lon="9.6674836"><ele>195.0</ele><time>2026-03-22T15:35:23.682Z</time></trkpt><trkpt lat="44.2643074" lon="9.6673446"><ele>195.0</ele><time>2026-03-22T15:35:24.682Z</time></trkpt><trkpt lat="44.2641517" lon="9.6671472"><ele>195.0</ele><time>2026-03-22T15:35:25.681Z</time></trkpt><trkpt lat="44.2640135" lon="9.6669155"><ele>200.0</ele><time>2026-03-22T15:35:26.681Z</time></trkpt><trkpt lat="44.2639076" lon="9.6666647"><ele>205.0</ele><time>2026-03-22T15:35:27.681Z</time></trkpt><trkpt lat="44.2638102" lon="9.6664099"><ele>210.0</ele><time>2026-03-22T15:35:28.681Z</time></trkpt><trkpt lat="44.2637272" lon="9.6661473"><ele>201.66666666666666</ele><time>2026-03-22T15:35:29.681Z</time></trkpt><trkpt lat="44.2636224" lon="9.6659133"><ele>193.33333333333331</ele><time>2026-03-22T15:35:30.681Z</time></trkpt><trkpt lat="44.2635177" lon="9.665702"><ele>185.0</ele><time>2026-03-22T15:35:31.681Z</time></trkpt><trkpt lat="44.2634122" lon="9.6655005"><ele>185.0</ele><time>2026-03-22T15:35:32.681Z</time></trkpt><trkpt lat="44.2632943" lon="9.6652937"><ele>185.0</ele><time>2026-03-22T15:35:33.681Z</time></trkpt><trkpt lat="44.2631466" lon="9.6651278"><ele>185.0</ele><time>2026-03-22T15:35:34.681Z</time></trkpt><trkpt lat="44.26293" lon="9.6650828"><ele>182.33333333333331</ele><time>2026-03-22T15:35:35.681Z</time></trkpt><trkpt lat="44.2627428" lon="9.6650128"><ele>179.66666666666666</ele><time>2026-03-22T15:35:36.681Z</time></trkpt><trkpt lat="44.2625616" lon="9.6649603"><ele>177.0</ele><time>2026-03-22T15:35:37.681Z</time></trkpt><trkpt lat="44.2623713" lon="9.6649038"><ele>177.0</ele><time>2026-03-22T15:35:38.682Z</time></trkpt><trkpt lat="44.2621793" lon="9.6648624"><ele>177.0</ele><time>2026-03-22T15:35:39.681Z</time></trkpt><trkpt lat="44.2619866" lon="9.6648312"><ele>177.0</ele><time>2026-03-22T15:35:40.681Z</time></trkpt><trkpt lat="44.2617789" lon="9.6648314"><ele>177.0</ele><time>2026-03-22T15:35:41.681Z</time></trkpt><trkpt lat="44.2615862" lon="9.6648142"><ele>177.0</ele><time>2026-03-22T15:35:42.681Z</time></trkpt><trkpt lat="44.2613719" lon="9.6649487"><ele>177.0</ele><time>2026-03-22T15:35:43.681Z</time></trkpt><trkpt lat="44.2611878" lon="9.6649735"><ele>174.33333333333334</ele><time>2026-03-22T15:35:44.682Z</time></trkpt><trkpt lat="44.2610032" lon="9.6650536"><ele>171.66666666666669</ele><time>2026-03-22T15:35:45.681Z</time></trkpt><trkpt lat="44.2608182" lon="9.6651423"><ele>169.0</ele><time>2026-03-22T15:35:46.681Z</time></trkpt><trkpt lat="44.2606253" lon="9.665231"><ele>170.0</ele><time>2026-03-22T15:35:47.681Z</time></trkpt><trkpt lat="44.2604568" lon="9.6654491"><ele>171.0</ele><time>2026-03-22T15:35:48.681Z</time></trkpt><trkpt lat="44.2602974" lon="9.6656202"><ele>172.0</ele><time>2026-03-22T15:35:49.681Z</time></trkpt><trkpt lat="44.2601374" lon="9.6658129"><ele>172.0</ele><time>2026-03-22T15:35:50.681Z</time></trkpt><trkpt lat="44.2599819" lon="9.6659904"><ele>172.0</ele><time>2026-03-22T15:35:51.681Z</time></trkpt><trkpt lat="44.2598222" lon="9.6661753"><ele>172.0</ele><time>2026-03-22T15:35:52.681Z</time></trkpt><trkpt lat="44.2596629" lon="9.666369"><ele>169.33333333333334</ele><time>2026-03-22T15:35:53.681Z</time></trkpt><trkpt lat="44.2595149" lon="9.6665694"><ele>166.66666666666666</ele><time>2026-03-22T15:35:54.681Z</time></trkpt><trkpt lat="44.2593673" lon="9.6667738"><ele>164.0</ele><time>2026-03-22T15:35:55.681Z</time></trkpt><trkpt lat="44.2592204" lon="9.6669788"><ele>164.0</ele><time>2026-03-22T15:35:56.681Z</time></trkpt><trkpt lat="44.2590788" lon="9.6671799"><ele>164.0</ele><time>2026-03-22T15:35:57.681Z</time></trkpt><trkpt lat="44.2589777" lon="9.6674529"><ele>164.0</ele><time>2026-03-22T15:35:58.681Z</time></trkpt><trkpt lat="44.2588793" lon="9.6677223"><ele>162.33333333333331</ele><time>2026-03-22T15:35:59.681Z</time></trkpt><trkpt lat="44.2588142" lon="9.6680048"><ele>160.66666666666666</ele><time>2026-03-22T15:36:00.682Z</time></trkpt><trkpt lat="44.2587494" lon="9.6682649"><ele>159.0</ele><time>2026-03-22T15:36:01.681Z</time></trkpt><trkpt lat="44.2586946" lon="9.6685195"><ele>159.33333333333334</ele><time>2026-03-22T15:36:02.681Z</time></trkpt><trkpt lat="44.2586329" lon="9.6687884"><ele>159.66666666666669</ele><time>2026-03-22T15:36:03.681Z</time></trkpt><trkpt lat="44.2585652" lon="9.6690539"><ele>160.0</ele><time>2026-03-22T15:36:04.681Z</time></trkpt><trkpt lat="44.2584912" lon="9.6693197"><ele>165.33333333333334</ele><time>2026-03-22T15:36:05.681Z</time></trkpt><trkpt lat="44.2584148" lon="9.6695924"><ele>170.66666666666666</ele><time>2026-03-22T15:36:06.681Z</time></trkpt><trkpt lat="44.2583447" lon="9.6698721"><ele>176.0</ele><time>2026-03-22T15:36:07.681Z</time></trkpt><trkpt lat="44.2582699" lon="9.6701504"><ele>181.66666666666666</ele><time>2026-03-22T15:36:08.681Z</time></trkpt><trkpt lat="44.2581898" lon="9.6704339"><ele>187.33333333333331</ele><time>2026-03-22T15:36:09.681Z</time></trkpt><trkpt lat="44.2580926" lon="9.670715"><ele>193.0</ele><time>2026-03-22T15:36:10.681Z</time></trkpt><trkpt lat="44.2579607" lon="9.6709793"><ele>185.5</ele><time>2026-03-22T15:36:11.681Z</time></trkpt><trkpt lat="44.2578076" lon="9.6712115"><ele>178.0</ele><time>2026-03-22T15:36:12.681Z</time></trkpt><trkpt lat="44.2576351" lon="9.6714158"><ele>178.0</ele><time>2026-03-22T15:36:13.681Z</time></trkpt><trkpt lat="44.2574555" lon="9.6715961"><ele>178.0</ele><time>2026-03-22T15:36:14.681Z</time></trkpt><trkpt lat="44.2572761" lon="9.6717752"><ele>178.0</ele><time>2026-03-22T15:36:15.681Z</time></trkpt><trkpt lat="44.2570988" lon="9.6719616"><ele>175.0</ele><time>2026-03-22T15:36:16.681Z</time></trkpt><trkpt lat="44.2569151" lon="9.672144"><ele>172.0</ele><time>2026-03-22T15:36:17.681Z</time></trkpt><trkpt lat="44.2567332" lon="9.6723274"><ele>172.0</ele><time>2026-03-22T15:36:18.681Z</time></trkpt><trkpt lat="44.2565547" lon="9.6725117"><ele>172.0</ele><time>2026-03-22T15:36:19.681Z</time></trkpt><trkpt lat="44.2563811" lon="9.6726755"><ele>172.0</ele><time>2026-03-22T15:36:20.681Z</time></trkpt><trkpt lat="44.2561952" lon="9.6728281"><ele>170.66666666666669</ele><time>2026-03-22T15:36:21.681Z</time></trkpt><trkpt lat="44.2559984" lon="9.6729607"><ele>169.33333333333334</ele><time>2026-03-22T15:36:22.681Z</time></trkpt><trkpt lat="44.2557978" lon="9.673076"><ele>168.0</ele><time>2026-03-22T15:36:23.681Z</time></trkpt><trkpt lat="44.2555877" lon="9.6731736"><ele>165.0</ele><time>2026-03-22T15:36:24.681Z</time></trkpt><trkpt lat="44.2553646" lon="9.67325"><ele>162.0</ele><time>2026-03-22T15:36:25.681Z</time></trkpt><trkpt lat="44.2551153" lon="9.6732864"><ele>162.0</ele><time>2026-03-22T15:36:26.682Z</time></trkpt><trkpt lat="44.2548607" lon="9.6733114"><ele>162.0</ele><time>2026-03-22T15:36:27.681Z</time></trkpt><trkpt lat="44.2546178" lon="9.6733292"><ele>158.0</ele><time>2026-03-22T15:36:28.681Z</time></trkpt><trkpt lat="44.2543855" lon="9.6733459"><ele>154.0</ele><time>2026-03-22T15:36:29.681Z</time></trkpt><trkpt lat="44.2541573" lon="9.6733663"><ele>152.0</ele><time>2026-03-22T15:36:30.681Z</time></trkpt><trkpt lat="44.2539213" lon="9.6733824"><ele>150.0</ele><time>2026-03-22T15:36:31.681Z</time></trkpt><trkpt lat="44.2536809" lon="9.6734006"><ele>150.0</ele><time>2026-03-22T15:36:32.681Z</time></trkpt><trkpt lat="44.2534541" lon="9.6734168"><ele>150.0</ele><time>2026-03-22T15:36:33.681Z</time></trkpt><trkpt lat="44.2532234" lon="9.6734344"><ele>149.0</ele><time>2026-03-22T15:36:34.681Z</time></trkpt><trkpt lat="44.2530009" lon="9.6734657"><ele>148.0</ele><time>2026-03-22T15:36:35.681Z</time></trkpt><trkpt lat="44.2527863" lon="9.6735267"><ele>147.0</ele><time>2026-03-22T15:36:36.681Z</time></trkpt><trkpt lat="44.252571" lon="9.6736395"><ele>152.5</ele><time>2026-03-22T15:36:37.681Z</time></trkpt><trkpt lat="44.2523599" lon="9.6737416"><ele>158.0</ele><time>2026-03-22T15:36:38.681Z</time></trkpt><trkpt lat="44.2521513" lon="9.67387"><ele>169.5</ele><time>2026-03-22T15:36:39.681Z</time></trkpt><trkpt lat="44.2519526" lon="9.674018"><ele>181.0</ele><time>2026-03-22T15:36:40.681Z</time></trkpt><trkpt lat="44.2517482" lon="9.6741612"><ele>181.0</ele><time>2026-03-22T15:36:41.681Z</time></trkpt><trkpt lat="44.2515456" lon="9.6743067"><ele>181.0</ele><time>2026-03-22T15:36:42.681Z</time></trkpt><trkpt lat="44.2504558" lon="9.6782098"><ele>161.0</ele><time>2026-03-22T15:36:55.681Z</time></trkpt><trkpt lat="44.2504051" lon="9.6785625"><ele>141.0</ele><time>2026-03-22T15:36:56.681Z</time></trkpt><trkpt lat="44.2503588" lon="9.6788745"><ele>139.5</ele><time>2026-03-22T15:36:57.682Z</time></trkpt><trkpt lat="44.2502995" lon="9.6791837"><ele>138.0</ele><time>2026-03-22T15:36:58.682Z</time></trkpt><trkpt lat="44.2502514" lon="9.6794873"><ele>138.0</ele><time>2026-03-22T15:36:59.681Z</time></trkpt><trkpt lat="44.2502019" lon="9.6798097"><ele>138.0</ele><time>2026-03-22T15:37:00.681Z</time></trkpt><trkpt lat="44.2501606" lon="9.6800961"><ele>138.0</ele><time>2026-03-22T15:37:01.681Z</time></trkpt><trkpt lat="44.2501191" lon="9.6803464"><ele>139.0</ele><time>2026-03-22T15:37:02.681Z</time></trkpt><trkpt lat="44.2500613" lon="9.6805788"><ele>140.0</ele><time>2026-03-22T15:37:03.681Z</time></trkpt><trkpt lat="44.2499696" lon="9.6808065"><ele>141.0</ele><time>2026-03-22T15:37:04.682Z</time></trkpt><trkpt lat="44.2498507" lon="9.6810358"><ele>144.33333333333334</ele><time>2026-03-22T15:37:05.681Z</time></trkpt><trkpt lat="44.2496968" lon="9.6812412"><ele>147.66666666666669</ele><time>2026-03-22T15:37:06.681Z</time></trkpt><trkpt lat="44.249523" lon="9.6814495"><ele>151.0</ele><time>2026-03-22T15:37:07.681Z</time></trkpt><trkpt lat="44.2493495" lon="9.6816397"><ele>151.0</ele><time>2026-03-22T15:37:08.681Z</time></trkpt><trkpt lat="44.2491912" lon="9.6818204"><ele>151.0</ele><time>2026-03-22T15:37:09.681Z</time></trkpt><trkpt lat="44.2490335" lon="9.6819972"><ele>151.0</ele><time>2026-03-22T15:37:10.682Z</time></trkpt><trkpt lat="44.2488838" lon="9.6821598"><ele>149.66666666666669</ele><time>2026-03-22T15:37:11.682Z</time></trkpt><trkpt lat="44.2487333" lon="9.6823067"><ele>148.33333333333334</ele><time>2026-03-22T15:37:12.681Z</time></trkpt><trkpt lat="44.2485771" lon="9.6824348"><ele>147.0</ele><time>2026-03-22T15:37:13.681Z</time></trkpt><trkpt lat="44.2484187" lon="9.6825507"><ele>147.0</ele><time>2026-03-22T15:37:14.681Z</time></trkpt><trkpt lat="44.2482528" lon="9.6826544"><ele>147.0</ele><time>2026-03-22T15:37:15.681Z</time></trkpt><trkpt lat="44.248083" lon="9.682748"><ele>147.0</ele><time>2026-03-22T15:37:16.681Z</time></trkpt><trkpt lat="44.24791" lon="9.6828377"><ele>146.0</ele><time>2026-03-22T15:37:17.681Z</time></trkpt><trkpt lat="44.2477359" lon="9.6829147"><ele>145.0</ele><time>2026-03-22T15:37:18.681Z</time></trkpt><trkpt lat="44.2475636" lon="9.6829903"><ele>144.0</ele><time>2026-03-22T15:37:19.681Z</time></trkpt><trkpt lat="44.2473894" lon="9.6830629"><ele>145.33333333333334</ele><time>2026-03-22T15:37:20.682Z</time></trkpt><trkpt lat="44.2472183" lon="9.6831283"><ele>146.66666666666669</ele><time>2026-03-22T15:37:21.681Z</time></trkpt><trkpt lat="44.2470618" lon="9.6831858"><ele>148.0</ele><time>2026-03-22T15:37:22.682Z</time></trkpt><trkpt lat="44.246916" lon="9.6832295"><ele>148.0</ele><time>2026-03-22T15:37:23.681Z</time></trkpt><trkpt lat="44.2467791" lon="9.683263"><ele>148.0</ele><time>2026-03-22T15:37:24.681Z</time></trkpt><trkpt lat="44.2466466" lon="9.6832826"><ele>148.0</ele><time>2026-03-22T15:37:25.681Z</time></trkpt><trkpt lat="44.2465169" lon="9.6832738"><ele>148.0</ele><time>2026-03-22T15:37:26.681Z</time></trkpt><trkpt lat="44.2463964" lon="9.6832453"><ele>146.16666666666669</ele><time>2026-03-22T15:37:27.681Z</time></trkpt><trkpt lat="44.2462972" lon="9.6831967"><ele>144.33333333333334</ele><time>2026-03-22T15:37:28.681Z</time></trkpt><trkpt lat="44.2462027" lon="9.6831535"><ele>142.5</ele><time>2026-03-22T15:37:29.681Z</time></trkpt><trkpt lat="44.2461171" lon="9.6831287"><ele>140.66666666666666</ele><time>2026-03-22T15:37:30.681Z</time></trkpt><trkpt lat="44.2460442" lon="9.6831292"><ele>138.83333333333331</ele><time>2026-03-22T15:37:31.681Z</time></trkpt><trkpt lat="44.2459791" lon="9.6831699"><ele>137.0</ele><time>2026-03-22T15:37:32.681Z</time></trkpt><trkpt lat="44.2458866" lon="9.6832943"><ele>137.0</ele><time>2026-03-22T15:37:34.682Z</time></trkpt><trkpt lat="44.2459403" lon="9.6835124"><ele>137.0</ele><time>2026-03-22T15:37:35.681Z</time></trkpt><trkpt lat="44.2459598" lon="9.6837115"><ele>137.0</ele><time>2026-03-22T15:37:36.681Z</time></trkpt><trkpt lat="44.2459873" lon="9.683897"><ele>137.0</ele><time>2026-03-22T15:37:37.681Z</time></trkpt><trkpt lat="44.2460187" lon="9.684084"><ele>136.0</ele><time>2026-03-22T15:37:38.681Z</time></trkpt><trkpt lat="44.2460382" lon="9.6842829"><ele>135.0</ele><time>2026-03-22T15:37:39.681Z</time></trkpt><trkpt lat="44.2460525" lon="9.6844894"><ele>134.0</ele><time>2026-03-22T15:37:40.681Z</time></trkpt><trkpt lat="44.2460692" lon="9.6846875"><ele>133.0</ele><time>2026-03-22T15:37:41.681Z</time></trkpt><trkpt lat="44.2460849" lon="9.6848934"><ele>132.0</ele><time>2026-03-22T15:37:42.681Z</time></trkpt><trkpt lat="44.2460998" lon="9.6851045"><ele>131.0</ele><time>2026-03-22T15:37:43.682Z</time></trkpt><trkpt lat="44.2461196" lon="9.6853275"><ele>130.0</ele><time>2026-03-22T15:37:44.681Z</time></trkpt><trkpt lat="44.2461395" lon="9.6855481"><ele>130.0</ele><time>2026-03-22T15:37:45.681Z</time></trkpt><trkpt lat="44.2461603" lon="9.6857706"><ele>130.0</ele><time>2026-03-22T15:37:46.681Z</time></trkpt><trkpt lat="44.2461771" lon="9.6860057"><ele>130.0</ele><time>2026-03-22T15:37:47.681Z</time></trkpt><trkpt lat="44.2461962" lon="9.6862366"><ele>131.33333333333334</ele><time>2026-03-22T15:37:48.681Z</time></trkpt><trkpt lat="44.2462171" lon="9.68647"><ele>132.66666666666666</ele><time>2026-03-22T15:37:49.681Z</time></trkpt><trkpt lat="44.2462443" lon="9.686689"><ele>134.0</ele><time>2026-03-22T15:37:50.681Z</time></trkpt><trkpt lat="44.246277" lon="9.6869146"><ele>133.66666666666666</ele><time>2026-03-22T15:37:51.681Z</time></trkpt><trkpt lat="44.2463422" lon="9.6871496"><ele>133.33333333333334</ele><time>2026-03-22T15:37:52.681Z</time></trkpt><trkpt lat="44.2463992" lon="9.6873916"><ele>133.0</ele><time>2026-03-22T15:37:53.681Z</time></trkpt><trkpt lat="44.2465445" lon="9.6876156"><ele>133.66666666666669</ele><time>2026-03-22T15:37:54.682Z</time></trkpt><trkpt lat="44.246634" lon="9.6878546"><ele>134.33333333333334</ele><time>2026-03-22T15:37:55.681Z</time></trkpt><trkpt lat="44.2467797" lon="9.688014"><ele>135.0</ele><time>2026-03-22T15:37:56.682Z</time></trkpt><trkpt lat="44.2469023" lon="9.6881549"><ele>135.0</ele><time>2026-03-22T15:37:57.681Z</time></trkpt><trkpt lat="44.2470255" lon="9.6883058"><ele>135.0</ele><time>2026-03-22T15:37:58.681Z</time></trkpt><trkpt lat="44.2471336" lon="9.6884076"><ele>135.0</ele><time>2026-03-22T15:37:59.681Z</time></trkpt><trkpt lat="44.2472265" lon="9.6885552"><ele>135.0</ele><time>2026-03-22T15:38:00.681Z</time></trkpt><trkpt lat="44.2472958" lon="9.6887242"><ele>139.33333333333334</ele><time>2026-03-22T15:38:01.681Z</time></trkpt><trkpt lat="44.247348" lon="9.6889343"><ele>143.66666666666669</ele><time>2026-03-22T15:38:02.681Z</time></trkpt><trkpt lat="44.2474025" lon="9.6891422"><ele>148.0</ele><time>2026-03-22T15:38:03.681Z</time></trkpt><trkpt lat="44.2474281" lon="9.6893625"><ele>144.66666666666669</ele><time>2026-03-22T15:38:04.681Z</time></trkpt><trkpt lat="44.2474468" lon="9.6895715"><ele>141.33333333333334</ele><time>2026-03-22T15:38:05.681Z</time></trkpt><trkpt lat="44.2474636" lon="9.6897789"><ele>138.0</ele><time>2026-03-22T15:38:06.682Z</time></trkpt><trkpt lat="44.2475032" lon="9.6899834"><ele>138.0</ele><time>2026-03-22T15:38:07.681Z</time></trkpt><trkpt lat="44.2475386" lon="9.6901719"><ele>138.0</ele><time>2026-03-22T15:38:08.681Z</time></trkpt><trkpt lat="44.2475566" lon="9.6903484"><ele>138.0</ele><time>2026-03-22T15:38:09.681Z</time></trkpt><trkpt lat="44.2475674" lon="9.6905197"><ele>138.0</ele><time>2026-03-22T15:38:10.681Z</time></trkpt><trkpt lat="44.2475714" lon="9.6906717"><ele>141.20000000000002</ele><time>2026-03-22T15:38:11.681Z</time></trkpt><trkpt lat="44.2475676" lon="9.6908057"><ele>144.4</ele><time>2026-03-22T15:38:12.682Z</time></trkpt><trkpt lat="44.2475573" lon="9.6909457"><ele>147.60000000000002</ele><time>2026-03-22T15:38:13.681Z</time></trkpt><trkpt lat="44.2475433" lon="9.6910771"><ele>150.8</ele><time>2026-03-22T15:38:14.681Z</time></trkpt><trkpt lat="44.2474945" lon="9.6912323"><ele>154.0</ele><time>2026-03-22T15:38:15.681Z</time></trkpt><trkpt lat="44.2474164" lon="9.6914016"><ele>156.66666666666669</ele><time>2026-03-22T15:38:16.681Z</time></trkpt><trkpt lat="44.2473196" lon="9.6915681"><ele>159.33333333333334</ele><time>2026-03-22T15:38:17.682Z</time></trkpt><trkpt lat="44.2472187" lon="9.6917375"><ele>162.0</ele><time>2026-03-22T15:38:18.681Z</time></trkpt><trkpt lat="44.24712" lon="9.6919059"><ele>155.33333333333334</ele><time>2026-03-22T15:38:19.681Z</time></trkpt><trkpt lat="44.2470164" lon="9.6920915"><ele>148.66666666666669</ele><time>2026-03-22T15:38:20.682Z</time></trkpt><trkpt lat="44.2468963" lon="9.6922987"><ele>142.0</ele><time>2026-03-22T15:38:21.681Z</time></trkpt><trkpt lat="44.2467719" lon="9.6924851"><ele>142.0</ele><time>2026-03-22T15:38:22.681Z</time></trkpt><trkpt lat="44.2466476" lon="9.6926794"><ele>142.0</ele><time>2026-03-22T15:38:23.681Z</time></trkpt><trkpt lat="44.2465322" lon="9.6928788"><ele>142.0</ele><time>2026-03-22T15:38:24.681Z</time></trkpt><trkpt lat="44.2464149" lon="9.6930726"><ele>143.66666666666669</ele><time>2026-03-22T15:38:25.681Z</time></trkpt><trkpt lat="44.2463014" lon="9.693263"><ele>145.33333333333334</ele><time>2026-03-22T15:38:26.681Z</time></trkpt><trkpt lat="44.2461794" lon="9.6934585"><ele>147.0</ele><time>2026-03-22T15:38:27.681Z</time></trkpt><trkpt lat="44.2460572" lon="9.693651"><ele>147.0</ele><time>2026-03-22T15:38:28.682Z</time></trkpt><trkpt lat="44.2459327" lon="9.6938306"><ele>147.0</ele><time>2026-03-22T15:38:29.681Z</time></trkpt><trkpt lat="44.2457976" lon="9.6939801"><ele>147.0</ele><time>2026-03-22T15:38:30.681Z</time></trkpt><trkpt lat="44.2456401" lon="9.6941089"><ele>147.33333333333334</ele><time>2026-03-22T15:38:31.681Z</time></trkpt><trkpt lat="44.2454595" lon="9.6942336"><ele>147.66666666666669</ele><time>2026-03-22T15:38:32.681Z</time></trkpt><trkpt lat="44.2452854" lon="9.6943467"><ele>148.0</ele><time>2026-03-22T15:38:33.681Z</time></trkpt><trkpt lat="44.2451096" lon="9.6944498"><ele>148.0</ele><time>2026-03-22T15:38:34.681Z</time></trkpt><trkpt lat="44.2449269" lon="9.6945605"><ele>148.0</ele><time>2026-03-22T15:38:35.681Z</time></trkpt><trkpt lat="44.2447457" lon="9.6946795"><ele>148.0</ele><time>2026-03-22T15:38:36.681Z</time></trkpt><trkpt lat="44.2445708" lon="9.6947921"><ele>143.33333333333334</ele><time>2026-03-22T15:38:37.681Z</time></trkpt><trkpt lat="44.2443996" lon="9.6949027"><ele>138.66666666666666</ele><time>2026-03-22T15:38:38.681Z</time></trkpt><trkpt lat="44.2442384" lon="9.6949953"><ele>134.0</ele><time>2026-03-22T15:38:39.681Z</time></trkpt><trkpt lat="44.2440652" lon="9.6950893"><ele>135.33333333333331</ele><time>2026-03-22T15:38:40.681Z</time></trkpt><trkpt lat="44.2438871" lon="9.6951907"><ele>136.66666666666666</ele><time>2026-03-22T15:38:41.681Z</time></trkpt><trkpt lat="44.2437144" lon="9.6952964"><ele>138.0</ele><time>2026-03-22T15:38:42.681Z</time></trkpt><trkpt lat="44.2435633" lon="9.6954162"><ele>138.0</ele><time>2026-03-22T15:38:43.681Z</time></trkpt><trkpt lat="44.2434041" lon="9.6955317"><ele>138.0</ele><time>2026-03-22T15:38:44.681Z</time></trkpt><trkpt lat="44.2433073" lon="9.6957149"><ele>138.0</ele><time>2026-03-22T15:38:45.681Z</time></trkpt><trkpt lat="44.2432512" lon="9.6959114"><ele>139.33333333333334</ele><time>2026-03-22T15:38:46.681Z</time></trkpt><trkpt lat="44.2432186" lon="9.6961151"><ele>140.66666666666669</ele><time>2026-03-22T15:38:47.681Z</time></trkpt><trkpt lat="44.2432033" lon="9.6963356"><ele>142.0</ele><time>2026-03-22T15:38:48.681Z</time></trkpt><trkpt lat="44.2432866" lon="9.6965969"><ele>142.0</ele><time>2026-03-22T15:38:49.682Z</time></trkpt><trkpt lat="44.243316" lon="9.6968475"><ele>142.0</ele><time>2026-03-22T15:38:50.682Z</time></trkpt><trkpt lat="44.2433452" lon="9.6971195"><ele>142.0</ele><time>2026-03-22T15:38:51.681Z</time></trkpt><trkpt lat="44.2433767" lon="9.6973927"><ele>142.33333333333334</ele><time>2026-03-22T15:38:52.681Z</time></trkpt><trkpt lat="44.2434126" lon="9.6976728"><ele>142.66666666666666</ele><time>2026-03-22T15:38:53.681Z</time></trkpt><trkpt lat="44.2434446" lon="9.6979535"><ele>143.0</ele><time>2026-03-22T15:38:54.681Z</time></trkpt><trkpt lat="44.2434762" lon="9.6982353"><ele>143.0</ele><time>2026-03-22T15:38:55.681Z</time></trkpt><trkpt lat="44.2435095" lon="9.6985204"><ele>143.0</ele><time>2026-03-22T15:38:56.682Z</time></trkpt><trkpt lat="44.2435478" lon="9.6988123"><ele>143.0</ele><time>2026-03-22T15:38:57.681Z</time></trkpt><trkpt lat="44.2435932" lon="9.6991088"><ele>143.33333333333331</ele><time>2026-03-22T15:38:58.681Z</time></trkpt><trkpt lat="44.2436338" lon="9.6993926"><ele>143.66666666666666</ele><time>2026-03-22T15:38:59.681Z</time></trkpt><trkpt lat="44.2436775" lon="9.6996599"><ele>144.0</ele><time>2026-03-22T15:39:00.681Z</time></trkpt><trkpt lat="44.2437386" lon="9.6999341"><ele>144.0</ele><time>2026-03-22T15:39:01.681Z</time></trkpt><trkpt lat="44.2438218" lon="9.700213"><ele>144.0</ele><time>2026-03-22T15:39:02.681Z</time></trkpt><trkpt lat="44.2439236" lon="9.7004868"><ele>144.0</ele><time>2026-03-22T15:39:03.682Z</time></trkpt><trkpt lat="44.2440251" lon="9.700766"><ele>145.0</ele><time>2026-03-22T15:39:04.681Z</time></trkpt><trkpt lat="44.2441577" lon="9.7010173"><ele>146.0</ele><time>2026-03-22T15:39:05.681Z</time></trkpt><trkpt lat="44.2443349" lon="9.7012291"><ele>149.0</ele><time>2026-03-22T15:39:06.681Z</time></trkpt><trkpt lat="44.244517" lon="9.7014065"><ele>152.0</ele><time>2026-03-22T15:39:07.681Z</time></trkpt><trkpt lat="44.2446772" lon="9.7016132"><ele>155.0</ele><time>2026-03-22T15:39:08.681Z</time></trkpt><trkpt lat="44.2448286" lon="9.7018374"><ele>148.5</ele><time>2026-03-22T15:39:09.681Z</time></trkpt><trkpt lat="44.2449737" lon="9.7020806"><ele>142.0</ele><time>2026-03-22T15:39:10.681Z</time></trkpt><trkpt lat="44.2450952" lon="9.7023417"><ele>142.0</ele><time>2026-03-22T15:39:11.681Z</time></trkpt><trkpt lat="44.2451925" lon="9.7026228"><ele>142.0</ele><time>2026-03-22T15:39:12.681Z</time></trkpt><trkpt lat="44.2452545" lon="9.702908"><ele>142.0</ele><time>2026-03-22T15:39:13.681Z</time></trkpt><trkpt lat="44.2452926" lon="9.7032023"><ele>143.0</ele><time>2026-03-22T15:39:14.681Z</time></trkpt><trkpt lat="44.2453007" lon="9.7035009"><ele>144.0</ele><time>2026-03-22T15:39:15.681Z</time></trkpt><trkpt lat="44.2452793" lon="9.7037802"><ele>145.0</ele><time>2026-03-22T15:39:16.681Z</time></trkpt><trkpt lat="44.2452406" lon="9.7040539"><ele>145.0</ele><time>2026-03-22T15:39:17.681Z</time></trkpt><trkpt lat="44.2451573" lon="9.7043226"><ele>145.0</ele><time>2026-03-22T15:39:18.681Z</time></trkpt><trkpt lat="44.2450606" lon="9.7045855"><ele>145.0</ele><time>2026-03-22T15:39:19.681Z</time></trkpt><trkpt lat="44.2449623" lon="9.7048304"><ele>141.33333333333334</ele><time>2026-03-22T15:39:20.681Z</time></trkpt><trkpt lat="44.2448582" lon="9.705076"><ele>137.66666666666666</ele><time>2026-03-22T15:39:21.681Z</time></trkpt><trkpt lat="44.2447553" lon="9.7053235"><ele>134.0</ele><time>2026-03-22T15:39:22.681Z</time></trkpt><trkpt lat="44.2428541" lon="9.7065639"><ele>134.0</ele><time>2026-03-22T15:39:30.681Z</time></trkpt><trkpt lat="44.2426253" lon="9.7067313"><ele>134.0</ele><time>2026-03-22T15:39:31.681Z</time></trkpt><trkpt lat="44.2423853" lon="9.7068968"><ele>137.0</ele><time>2026-03-22T15:39:32.681Z</time></trkpt><trkpt lat="44.2421264" lon="9.7070657"><ele>140.0</ele><time>2026-03-22T15:39:33.681Z</time></trkpt><trkpt lat="44.2418811" lon="9.7072394"><ele>140.0</ele><time>2026-03-22T15:39:34.681Z</time></trkpt><trkpt lat="44.2416459" lon="9.7074138"><ele>140.0</ele><time>2026-03-22T15:39:35.682Z</time></trkpt><trkpt lat="44.2414196" lon="9.7075858"><ele>141.5</ele><time>2026-03-22T15:39:36.681Z</time></trkpt><trkpt lat="44.2411913" lon="9.7077654"><ele>143.0</ele><time>2026-03-22T15:39:37.681Z</time></trkpt><trkpt lat="44.2409802" lon="9.7079309"><ele>143.0</ele><time>2026-03-22T15:39:38.681Z</time></trkpt><trkpt lat="44.240789" lon="9.7081149"><ele>143.0</ele><time>2026-03-22T15:39:39.681Z</time></trkpt><trkpt lat="44.2406254" lon="9.7083178"><ele>137.0</ele><time>2026-03-22T15:39:40.681Z</time></trkpt><trkpt lat="44.2404542" lon="9.708507"><ele>131.0</ele><time>2026-03-22T15:39:41.681Z</time></trkpt><trkpt lat="44.2402979" lon="9.7087551"><ele>131.0</ele><time>2026-03-22T15:39:42.681Z</time></trkpt><trkpt lat="44.2402015" lon="9.7090701"><ele>131.0</ele><time>2026-03-22T15:39:43.681Z</time></trkpt><trkpt lat="44.2400504" lon="9.709321"><ele>126.0</ele><time>2026-03-22T15:39:44.681Z</time></trkpt><trkpt lat="44.2398804" lon="9.7095613"><ele>121.0</ele><time>2026-03-22T15:39:45.681Z</time></trkpt><trkpt lat="44.2397068" lon="9.7097781"><ele>121.0</ele><time>2026-03-22T15:39:46.681Z</time></trkpt><trkpt lat="44.2395342" lon="9.7099903"><ele>121.0</ele><time>2026-03-22T15:39:47.681Z</time></trkpt><trkpt lat="44.2393619" lon="9.7102054"><ele>120.33333333333334</ele><time>2026-03-22T15:39:48.681Z</time></trkpt><trkpt lat="44.2391995" lon="9.7104003"><ele>119.66666666666666</ele><time>2026-03-22T15:39:49.681Z</time></trkpt><trkpt lat="44.2390439" lon="9.7105874"><ele>119.0</ele><time>2026-03-22T15:39:50.682Z</time></trkpt><trkpt lat="44.2389032" lon="9.7107652"><ele>119.0</ele><time>2026-03-22T15:39:51.681Z</time></trkpt><trkpt lat="44.238762" lon="9.7109386"><ele>119.0</ele><time>2026-03-22T15:39:52.681Z</time></trkpt><trkpt lat="44.2386216" lon="9.7111004"><ele>119.0</ele><time>2026-03-22T15:39:53.681Z</time></trkpt><trkpt lat="44.2384739" lon="9.7112509"><ele>122.0</ele><time>2026-03-22T15:39:54.681Z</time></trkpt><trkpt lat="44.2383164" lon="9.7113522"><ele>125.0</ele><time>2026-03-22T15:39:55.681Z</time></trkpt><trkpt lat="44.2381516" lon="9.7114313"><ele>128.0</ele><time>2026-03-22T15:39:56.681Z</time></trkpt><trkpt lat="44.2379864" lon="9.7114442"><ele>128.0</ele><time>2026-03-22T15:39:57.681Z</time></trkpt><trkpt lat="44.2378241" lon="9.711472"><ele>128.0</ele><time>2026-03-22T15:39:58.681Z</time></trkpt><trkpt lat="44.2376621" lon="9.7114809"><ele>128.0</ele><time>2026-03-22T15:39:59.681Z</time></trkpt><trkpt lat="44.2375265" lon="9.7115011"><ele>128.0</ele><time>2026-03-22T15:40:00.681Z</time></trkpt><trkpt lat="44.2373637" lon="9.7115996"><ele>128.0</ele><time>2026-03-22T15:40:01.681Z</time></trkpt><trkpt lat="44.2372283" lon="9.7118166"><ele>128.0</ele><time>2026-03-22T15:40:02.681Z</time></trkpt><trkpt lat="44.2370809" lon="9.7119998"><ele>131.0</ele><time>2026-03-22T15:40:03.681Z</time></trkpt><trkpt lat="44.2368821" lon="9.7122075"><ele>134.0</ele><time>2026-03-22T15:40:04.682Z</time></trkpt><trkpt lat="44.2366728" lon="9.7124183"><ele>125.0</ele><time>2026-03-22T15:40:05.681Z</time></trkpt><trkpt lat="44.2364474" lon="9.7125992"><ele>116.0</ele><time>2026-03-22T15:40:06.682Z</time></trkpt><trkpt lat="44.2362121" lon="9.7127372"><ele>115.0</ele><time>2026-03-22T15:40:07.681Z</time></trkpt><trkpt lat="44.2359909" lon="9.7128628"><ele>114.0</ele><time>2026-03-22T15:40:08.681Z</time></trkpt><trkpt lat="44.235815" lon="9.7129862"><ele>113.0</ele><time>2026-03-22T15:40:09.681Z</time></trkpt><trkpt lat="44.2356354" lon="9.7131137"><ele>113.0</ele><time>2026-03-22T15:40:10.682Z</time></trkpt><trkpt lat="44.2354751" lon="9.7132523"><ele>113.0</ele><time>2026-03-22T15:40:11.682Z</time></trkpt><trkpt lat="44.2353814" lon="9.7134412"><ele>113.0</ele><time>2026-03-22T15:40:12.681Z</time></trkpt><trkpt lat="44.2352551" lon="9.713612"><ele>115.33333333333333</ele><time>2026-03-22T15:40:13.681Z</time></trkpt><trkpt lat="44.2352068" lon="9.7139131"><ele>117.66666666666666</ele><time>2026-03-22T15:40:14.681Z</time></trkpt><trkpt lat="44.2351215" lon="9.7141362"><ele>120.0</ele><time>2026-03-22T15:40:15.681Z</time></trkpt><trkpt lat="44.2350344" lon="9.7143724"><ele>120.0</ele><time>2026-03-22T15:40:16.681Z</time></trkpt><trkpt lat="44.234954" lon="9.7145964"><ele>120.0</ele><time>2026-03-22T15:40:17.681Z</time></trkpt><trkpt lat="44.234874" lon="9.7148081"><ele>120.0</ele><time>2026-03-22T15:40:18.681Z</time></trkpt><trkpt lat="44.2347906" lon="9.7150092"><ele>118.66666666666666</ele><time>2026-03-22T15:40:19.681Z</time></trkpt><trkpt lat="44.2346961" lon="9.7151883"><ele>117.33333333333333</ele><time>2026-03-22T15:40:20.682Z</time></trkpt><trkpt lat="44.2345899" lon="9.715337"><ele>116.0</ele><time>2026-03-22T15:40:21.681Z</time></trkpt><trkpt lat="44.2344642" lon="9.7154629"><ele>115.33333333333333</ele><time>2026-03-22T15:40:22.681Z</time></trkpt><trkpt lat="44.2343297" lon="9.7155804"><ele>114.66666666666666</ele><time>2026-03-22T15:40:23.681Z</time></trkpt><trkpt lat="44.2341977" lon="9.715685"><ele>114.0</ele><time>2026-03-22T15:40:24.681Z</time></trkpt><trkpt lat="44.2340725" lon="9.7157853"><ele>112.66666666666666</ele><time>2026-03-22T15:40:25.681Z</time></trkpt><trkpt lat="44.2339274" lon="9.7158709"><ele>111.33333333333333</ele><time>2026-03-22T15:40:26.681Z</time></trkpt><trkpt lat="44.2337716" lon="9.7159293"><ele>110.0</ele><time>2026-03-22T15:40:27.681Z</time></trkpt><trkpt lat="44.2336047" lon="9.7159625"><ele>110.0</ele><time>2026-03-22T15:40:28.681Z</time></trkpt><trkpt lat="44.233423" lon="9.7159606"><ele>110.0</ele><time>2026-03-22T15:40:29.681Z</time></trkpt><trkpt lat="44.2332356" lon="9.7159558"><ele>110.0</ele><time>2026-03-22T15:40:30.681Z</time></trkpt><trkpt lat="44.2330406" lon="9.7159581"><ele>109.33333333333333</ele><time>2026-03-22T15:40:31.682Z</time></trkpt><trkpt lat="44.2328387" lon="9.7159464"><ele>108.66666666666666</ele><time>2026-03-22T15:40:32.681Z</time></trkpt><trkpt lat="44.2326403" lon="9.7159106"><ele>108.0</ele><time>2026-03-22T15:40:33.682Z</time></trkpt><trkpt lat="44.2324493" lon="9.715849"><ele>106.33333333333334</ele><time>2026-03-22T15:40:34.681Z</time></trkpt><trkpt lat="44.2322589" lon="9.7157976"><ele>104.66666666666667</ele><time>2026-03-22T15:40:35.681Z</time></trkpt><trkpt lat="44.2320756" lon="9.7157476"><ele>103.0</ele><time>2026-03-22T15:40:36.682Z</time></trkpt><trkpt lat="44.2319029" lon="9.7156964"><ele>103.0</ele><time>2026-03-22T15:40:37.681Z</time></trkpt><trkpt lat="44.2317327" lon="9.7156462"><ele>103.0</ele><time>2026-03-22T15:40:38.681Z</time></trkpt><trkpt lat="44.2315539" lon="9.7155956"><ele>103.0</ele><time>2026-03-22T15:40:39.681Z</time></trkpt><trkpt lat="44.2313881" lon="9.7155334"><ele>106.0</ele><time>2026-03-22T15:40:40.681Z</time></trkpt><trkpt lat="44.2312268" lon="9.7154838"><ele>109.0</ele><time>2026-03-22T15:40:41.681Z</time></trkpt><trkpt lat="44.2310618" lon="9.7154653"><ele>112.0</ele><time>2026-03-22T15:40:42.681Z</time></trkpt><trkpt lat="44.2308891" lon="9.7154926"><ele>112.0</ele><time>2026-03-22T15:40:43.681Z</time></trkpt><trkpt lat="44.230724" lon="9.7155562"><ele>112.0</ele><time>2026-03-22T15:40:44.681Z</time></trkpt><trkpt lat="44.2305761" lon="9.7156427"><ele>112.0</ele><time>2026-03-22T15:40:45.681Z</time></trkpt><trkpt lat="44.2304365" lon="9.7157882"><ele>110.0</ele><time>2026-03-22T15:40:46.681Z</time></trkpt><trkpt lat="44.2302982" lon="9.7159074"><ele>108.0</ele><time>2026-03-22T15:40:47.681Z</time></trkpt><trkpt lat="44.2301638" lon="9.7160187"><ele>106.0</ele><time>2026-03-22T15:40:48.681Z</time></trkpt><trkpt lat="44.2300335" lon="9.7161243"><ele>106.0</ele><time>2026-03-22T15:40:49.682Z</time></trkpt><trkpt lat="44.229899" lon="9.7162269"><ele>106.0</ele><time>2026-03-22T15:40:50.681Z</time></trkpt><trkpt lat="44.2297626" lon="9.7163361"><ele>106.0</ele><time>2026-03-22T15:40:51.681Z</time></trkpt><trkpt lat="44.2296155" lon="9.7164424"><ele>109.33333333333334</ele><time>2026-03-22T15:40:52.681Z</time></trkpt><trkpt lat="44.2294697" lon="9.7165481"><ele>112.66666666666666</ele><time>2026-03-22T15:40:53.682Z</time></trkpt><trkpt lat="44.2293222" lon="9.7166395"><ele>116.0</ele><time>2026-03-22T15:40:54.681Z</time></trkpt><trkpt lat="44.2291817" lon="9.7167227"><ele>116.0</ele><time>2026-03-22T15:40:55.681Z</time></trkpt><trkpt lat="44.2290502" lon="9.7168128"><ele>116.0</ele><time>2026-03-22T15:40:56.681Z</time></trkpt><trkpt lat="44.2289255" lon="9.7168963"><ele>116.0</ele><time>2026-03-22T15:40:57.681Z</time></trkpt><trkpt lat="44.2288014" lon="9.716974"><ele>116.0</ele><time>2026-03-22T15:40:58.681Z</time></trkpt><trkpt lat="44.2286789" lon="9.7170551"><ele>116.0</ele><time>2026-03-22T15:40:59.681Z</time></trkpt><trkpt lat="44.2285656" lon="9.7171309"><ele>116.0</ele><time>2026-03-22T15:41:00.681Z</time></trkpt><trkpt lat="44.2284654" lon="9.7172023"><ele>116.0</ele><time>2026-03-22T15:41:01.681Z</time></trkpt><trkpt lat="44.2283528" lon="9.7172798"><ele>116.0</ele><time>2026-03-22T15:41:02.681Z</time></trkpt><trkpt lat="44.2282217" lon="9.7173847"><ele>117.0</ele><time>2026-03-22T15:41:03.681Z</time></trkpt><trkpt lat="44.228075" lon="9.7175016"><ele>118.0</ele><time>2026-03-22T15:41:04.681Z</time></trkpt><trkpt lat="44.2278945" lon="9.717621"><ele>119.0</ele><time>2026-03-22T15:41:05.681Z</time></trkpt><trkpt lat="44.2277494" lon="9.7177481"><ele>119.0</ele><time>2026-03-22T15:41:06.681Z</time></trkpt><trkpt lat="44.2276175" lon="9.7178941"><ele>119.0</ele><time>2026-03-22T15:41:07.681Z</time></trkpt><trkpt lat="44.2275057" lon="9.7180474"><ele>119.0</ele><time>2026-03-22T15:41:08.681Z</time></trkpt><trkpt lat="44.2274029" lon="9.7182128"><ele>119.66666666666666</ele><time>2026-03-22T15:41:09.681Z</time></trkpt><trkpt lat="44.2272946" lon="9.7183976"><ele>120.33333333333334</ele><time>2026-03-22T15:41:10.681Z</time></trkpt><trkpt lat="44.2271894" lon="9.7185799"><ele>121.0</ele><time>2026-03-22T15:41:11.681Z</time></trkpt><trkpt lat="44.2270846" lon="9.7187562"><ele>119.0</ele><time>2026-03-22T15:41:12.681Z</time></trkpt><trkpt lat="44.226969" lon="9.7189486"><ele>117.0</ele><time>2026-03-22T15:41:13.681Z</time></trkpt><trkpt lat="44.2268463" lon="9.7191391"><ele>115.0</ele><time>2026-03-22T15:41:14.681Z</time></trkpt><trkpt lat="44.2267191" lon="9.7193128"><ele>114.66666666666667</ele><time>2026-03-22T15:41:15.681Z</time></trkpt><trkpt lat="44.2265899" lon="9.7194705"><ele>114.33333333333334</ele><time>2026-03-22T15:41:16.681Z</time></trkpt><trkpt lat="44.22646" lon="9.7196145"><ele>114.0</ele><time>2026-03-22T15:41:17.681Z</time></trkpt><trkpt lat="44.2263299" lon="9.7197512"><ele>114.0</ele><time>2026-03-22T15:41:18.681Z</time></trkpt><trkpt lat="44.2261921" lon="9.7198883"><ele>114.0</ele><time>2026-03-22T15:41:19.681Z</time></trkpt><trkpt lat="44.2260519" lon="9.720025"><ele>114.0</ele><time>2026-03-22T15:41:20.681Z</time></trkpt><trkpt lat="44.2259133" lon="9.7201563"><ele>114.0</ele><time>2026-03-22T15:41:21.682Z</time></trkpt><trkpt lat="44.2257914" lon="9.7202764"><ele>114.0</ele><time>2026-03-22T15:41:22.681Z</time></trkpt><trkpt lat="44.2256712" lon="9.7203885"><ele>114.0</ele><time>2026-03-22T15:41:23.681Z</time></trkpt><trkpt lat="44.2255586" lon="9.7205007"><ele>114.0</ele><time>2026-03-22T15:41:24.681Z</time></trkpt><trkpt lat="44.225449" lon="9.7206067"><ele>114.0</ele><time>2026-03-22T15:41:25.681Z</time></trkpt><trkpt lat="44.2253423" lon="9.7207102"><ele>114.0</ele><time>2026-03-22T15:41:26.681Z</time></trkpt><trkpt lat="44.2252199" lon="9.720813"><ele>114.0</ele><time>2026-03-22T15:41:27.682Z</time></trkpt><trkpt lat="44.2251039" lon="9.7209025"><ele>114.0</ele><time>2026-03-22T15:41:28.681Z</time></trkpt><trkpt lat="44.2249856" lon="9.7209896"><ele>112.0</ele><time>2026-03-22T15:41:29.681Z</time></trkpt><trkpt lat="44.2248709" lon="9.7210808"><ele>110.0</ele><time>2026-03-22T15:41:30.681Z</time></trkpt><trkpt lat="44.2247564" lon="9.7211655"><ele>108.0</ele><time>2026-03-22T15:41:31.681Z</time></trkpt><trkpt lat="44.2246524" lon="9.7212392"><ele>106.0</ele><time>2026-03-22T15:41:32.681Z</time></trkpt><trkpt lat="44.2245478" lon="9.7212918"><ele>105.19999999999999</ele><time>2026-03-22T15:41:33.681Z</time></trkpt><trkpt lat="44.2244367" lon="9.7212898"><ele>104.39999999999999</ele><time>2026-03-22T15:41:34.681Z</time></trkpt><trkpt lat="44.2243344" lon="9.7212535"><ele>103.6</ele><time>2026-03-22T15:41:35.681Z</time></trkpt><trkpt lat="44.2242305" lon="9.7212023"><ele>102.8</ele><time>2026-03-22T15:41:36.681Z</time></trkpt><trkpt lat="44.2241315" lon="9.7211267"><ele>102.0</ele><time>2026-03-22T15:41:37.681Z</time></trkpt><trkpt lat="44.2240367" lon="9.7210167"><ele>102.25</ele><time>2026-03-22T15:41:38.681Z</time></trkpt><trkpt lat="44.2239547" lon="9.7209018"><ele>102.5</ele><time>2026-03-22T15:41:39.681Z</time></trkpt><trkpt lat="44.2238791" lon="9.7207737"><ele>102.75</ele><time>2026-03-22T15:41:40.681Z</time></trkpt><trkpt lat="44.2238266" lon="9.720635"><ele>103.0</ele><time>2026-03-22T15:41:41.681Z</time></trkpt><trkpt lat="44.2237798" lon="9.7204965"><ele>103.0</ele><time>2026-03-22T15:41:42.681Z</time></trkpt><trkpt lat="44.2237403" lon="9.720359"><ele>103.0</ele><time>2026-03-22T15:41:43.681Z</time></trkpt><trkpt lat="44.2237008" lon="9.7202554"><ele>103.0</ele><time>2026-03-22T15:41:44.681Z</time></trkpt><trkpt lat="44.2236388" lon="9.720178"><ele>103.0</ele><time>2026-03-22T15:41:45.681Z</time></trkpt><trkpt lat="44.2235566" lon="9.7201289"><ele>103.0</ele><time>2026-03-22T15:41:46.681Z</time></trkpt><trkpt lat="44.2234655" lon="9.720104"><ele>103.0</ele><time>2026-03-22T15:41:47.681Z</time></trkpt><trkpt lat="44.2233695" lon="9.7201433"><ele>103.0</ele><time>2026-03-22T15:41:48.682Z</time></trkpt><trkpt lat="44.2232832" lon="9.7202062"><ele>103.0</ele><time>2026-03-22T15:41:49.681Z</time></trkpt><trkpt lat="44.2231967" lon="9.7202585"><ele>103.0</ele><time>2026-03-22T15:41:50.682Z</time></trkpt><trkpt lat="44.2231136" lon="9.7203153"><ele>103.0</ele><time>2026-03-22T15:41:51.681Z</time></trkpt><trkpt lat="44.2230477" lon="9.7203677"><ele>103.33333333333334</ele><time>2026-03-22T15:41:52.681Z</time></trkpt><trkpt lat="44.2229878" lon="9.7204202"><ele>103.66666666666667</ele><time>2026-03-22T15:41:53.681Z</time></trkpt><trkpt lat="44.2229284" lon="9.7204679"><ele>104.0</ele><time>2026-03-22T15:41:54.681Z</time></trkpt><trkpt lat="44.2228279" lon="9.7205592"><ele>104.33333333333334</ele><time>2026-03-22T15:41:56.681Z</time></trkpt><trkpt lat="44.2227815" lon="9.720633"><ele>104.66666666666667</ele><time>2026-03-22T15:41:57.682Z</time></trkpt><trkpt lat="44.2227431" lon="9.7207483"><ele>105.0</ele><time>2026-03-22T15:41:58.681Z</time></trkpt><trkpt lat="44.2227254" lon="9.7209122"><ele>105.75</ele><time>2026-03-22T15:41:59.681Z</time></trkpt><trkpt lat="44.2227286" lon="9.7210772"><ele>106.5</ele><time>2026-03-22T15:42:00.681Z</time></trkpt><trkpt lat="44.2227516" lon="9.7212425"><ele>107.25</ele><time>2026-03-22T15:42:01.681Z</time></trkpt><trkpt lat="44.2227719" lon="9.7214008"><ele>108.0</ele><time>2026-03-22T15:42:02.681Z</time></trkpt><trkpt lat="44.2228009" lon="9.7215763"><ele>108.0</ele><time>2026-03-22T15:42:03.681Z</time></trkpt><trkpt lat="44.222827" lon="9.7217516"><ele>108.0</ele><time>2026-03-22T15:42:04.681Z</time></trkpt><trkpt lat="44.2228547" lon="9.7219394"><ele>108.0</ele><time>2026-03-22T15:42:05.681Z</time></trkpt><trkpt lat="44.2228825" lon="9.7221123"><ele>108.0</ele><time>2026-03-22T15:42:06.681Z</time></trkpt><trkpt lat="44.222909" lon="9.722286"><ele>108.25</ele><time>2026-03-22T15:42:07.681Z</time></trkpt><trkpt lat="44.2229394" lon="9.7224671"><ele>108.5</ele><time>2026-03-22T15:42:08.681Z</time></trkpt><trkpt lat="44.2229726" lon="9.7226579"><ele>108.75</ele><time>2026-03-22T15:42:09.681Z</time></trkpt><trkpt lat="44.2230176" lon="9.7228617"><ele>109.0</ele><time>2026-03-22T15:42:10.681Z</time></trkpt><trkpt lat="44.223056" lon="9.7230994"><ele>109.0</ele><time>2026-03-22T15:42:11.681Z</time></trkpt><trkpt lat="44.2230785" lon="9.7233493"><ele>109.0</ele><time>2026-03-22T15:42:12.681Z</time></trkpt><trkpt lat="44.223083" lon="9.7235707"><ele>109.0</ele><time>2026-03-22T15:42:13.681Z</time></trkpt><trkpt lat="44.2230839" lon="9.7237659"><ele>109.0</ele><time>2026-03-22T15:42:14.681Z</time></trkpt><trkpt lat="44.2230795" lon="9.7239516"><ele>109.0</ele><time>2026-03-22T15:42:15.681Z</time></trkpt><trkpt lat="44.2230756" lon="9.7241312"><ele>109.0</ele><time>2026-03-22T15:42:16.681Z</time></trkpt><trkpt lat="44.2230694" lon="9.724325"><ele>109.0</ele><time>2026-03-22T15:42:17.681Z</time></trkpt><trkpt lat="44.2230421" lon="9.7245043"><ele>108.5</ele><time>2026-03-22T15:42:18.681Z</time></trkpt><trkpt lat="44.222989" lon="9.7246751"><ele>108.0</ele><time>2026-03-22T15:42:19.681Z</time></trkpt><trkpt lat="44.2229193" lon="9.7248353"><ele>107.5</ele><time>2026-03-22T15:42:20.681Z</time></trkpt><trkpt lat="44.2228354" lon="9.7249909"><ele>107.0</ele><time>2026-03-22T15:42:21.681Z</time></trkpt><trkpt lat="44.2227467" lon="9.7251416"><ele>105.75</ele><time>2026-03-22T15:42:22.681Z</time></trkpt><trkpt lat="44.2226542" lon="9.7252855"><ele>104.5</ele><time>2026-03-22T15:42:23.681Z</time></trkpt><trkpt lat="44.2225639" lon="9.7254366"><ele>103.25</ele><time>2026-03-22T15:42:24.681Z</time></trkpt><trkpt lat="44.2224831" lon="9.7255796"><ele>102.0</ele><time>2026-03-22T15:42:25.681Z</time></trkpt><trkpt lat="44.2223996" lon="9.7257178"><ele>102.0</ele><time>2026-03-22T15:42:26.681Z</time></trkpt><trkpt lat="44.2223226" lon="9.7258535"><ele>102.0</ele><time>2026-03-22T15:42:27.681Z</time></trkpt><trkpt lat="44.2222454" lon="9.7259884"><ele>102.0</ele><time>2026-03-22T15:42:28.681Z</time></trkpt><trkpt lat="44.2221715" lon="9.7261212"><ele>102.0</ele><time>2026-03-22T15:42:29.681Z</time></trkpt><trkpt lat="44.2220941" lon="9.726255"><ele>102.75</ele><time>2026-03-22T15:42:30.681Z</time></trkpt><trkpt lat="44.2220145" lon="9.7263973"><ele>103.5</ele><time>2026-03-22T15:42:31.682Z</time></trkpt><trkpt lat="44.2219288" lon="9.7265383"><ele>104.25</ele><time>2026-03-22T15:42:32.681Z</time></trkpt><trkpt lat="44.2218427" lon="9.7266857"><ele>105.0</ele><time>2026-03-22T15:42:33.681Z</time></trkpt><trkpt lat="44.2217555" lon="9.7268328"><ele>105.5</ele><time>2026-03-22T15:42:34.681Z</time></trkpt><trkpt lat="44.2216671" lon="9.7269816"><ele>106.0</ele><time>2026-03-22T15:42:35.681Z</time></trkpt><trkpt lat="44.2215789" lon="9.7271341"><ele>106.5</ele><time>2026-03-22T15:42:36.681Z</time></trkpt><trkpt lat="44.2214883" lon="9.727288"><ele>107.0</ele><time>2026-03-22T15:42:37.681Z</time></trkpt><trkpt lat="44.221396" lon="9.7274495"><ele>107.0</ele><time>2026-03-22T15:42:38.681Z</time></trkpt><trkpt lat="44.2212958" lon="9.7276201"><ele>107.0</ele><time>2026-03-22T15:42:39.681Z</time></trkpt><trkpt lat="44.2211939" lon="9.7277944"><ele>107.0</ele><time>2026-03-22T15:42:40.681Z</time></trkpt><trkpt lat="44.2210874" lon="9.727964"><ele>106.66666666666666</ele><time>2026-03-22T15:42:41.681Z</time></trkpt><trkpt lat="44.2209822" lon="9.7281449"><ele>106.33333333333334</ele><time>2026-03-22T15:42:42.681Z</time></trkpt><trkpt lat="44.2208648" lon="9.7283287"><ele>106.0</ele><time>2026-03-22T15:42:43.681Z</time></trkpt><trkpt lat="44.2207347" lon="9.7285417"><ele>107.66666666666667</ele><time>2026-03-22T15:42:44.682Z</time></trkpt><trkpt lat="44.2205983" lon="9.7287645"><ele>109.33333333333334</ele><time>2026-03-22T15:42:45.681Z</time></trkpt><trkpt lat="44.220467" lon="9.7289737"><ele>111.0</ele><time>2026-03-22T15:42:46.682Z</time></trkpt><trkpt lat="44.220347" lon="9.7291787"><ele>111.0</ele><time>2026-03-22T15:42:47.681Z</time></trkpt><trkpt lat="44.2202273" lon="9.7293734"><ele>111.0</ele><time>2026-03-22T15:42:48.681Z</time></trkpt><trkpt lat="44.2201107" lon="9.7295675"><ele>111.0</ele><time>2026-03-22T15:42:49.682Z</time></trkpt><trkpt lat="44.2200031" lon="9.7297543"><ele>108.66666666666666</ele><time>2026-03-22T15:42:50.681Z</time></trkpt><trkpt lat="44.2198943" lon="9.7299289"><ele>106.33333333333333</ele><time>2026-03-22T15:42:51.681Z</time></trkpt><trkpt lat="44.2197899" lon="9.7301081"><ele>104.0</ele><time>2026-03-22T15:42:52.681Z</time></trkpt><trkpt lat="44.219686" lon="9.7302964"><ele>110.66666666666666</ele><time>2026-03-22T15:42:53.681Z</time></trkpt><trkpt lat="44.2195977" lon="9.7305062"><ele>117.33333333333334</ele><time>2026-03-22T15:42:54.681Z</time></trkpt><trkpt lat="44.2196096" lon="9.7308252"><ele>124.0</ele><time>2026-03-22T15:42:55.681Z</time></trkpt><trkpt lat="44.2195857" lon="9.7310943"><ele>125.0</ele><time>2026-03-22T15:42:56.681Z</time></trkpt><trkpt lat="44.2195807" lon="9.7313726"><ele>126.0</ele><time>2026-03-22T15:42:57.681Z</time></trkpt><trkpt lat="44.2196069" lon="9.7316764"><ele>127.0</ele><time>2026-03-22T15:42:58.681Z</time></trkpt><trkpt lat="44.2196514" lon="9.7319674"><ele>128.0</ele><time>2026-03-22T15:42:59.681Z</time></trkpt><trkpt lat="44.2196976" lon="9.7322376"><ele>129.0</ele><time>2026-03-22T15:43:00.681Z</time></trkpt><trkpt lat="44.2197472" lon="9.7325079"><ele>130.0</ele><time>2026-03-22T15:43:01.681Z</time></trkpt><trkpt lat="44.2197905" lon="9.7327503"><ele>121.66666666666667</ele><time>2026-03-22T15:43:02.682Z</time></trkpt><trkpt lat="44.2198296" lon="9.7329825"><ele>113.33333333333334</ele><time>2026-03-22T15:43:03.681Z</time></trkpt><trkpt lat="44.2198718" lon="9.7332188"><ele>105.0</ele><time>2026-03-22T15:43:04.681Z</time></trkpt><trkpt lat="44.2199435" lon="9.7334354"><ele>109.66666666666666</ele><time>2026-03-22T15:43:05.681Z</time></trkpt><trkpt lat="44.2200679" lon="9.7336842"><ele>114.33333333333333</ele><time>2026-03-22T15:43:06.681Z</time></trkpt><trkpt lat="44.2202295" lon="9.7338809"><ele>119.0</ele><time>2026-03-22T15:43:07.681Z</time></trkpt><trkpt lat="44.2203355" lon="9.7340792"><ele>119.0</ele><time>2026-03-22T15:43:08.681Z</time></trkpt><trkpt lat="44.220453" lon="9.7342687"><ele>119.0</ele><time>2026-03-22T15:43:09.681Z</time></trkpt><trkpt lat="44.2205716" lon="9.7344665"><ele>119.0</ele><time>2026-03-22T15:43:10.681Z</time></trkpt><trkpt lat="44.2206829" lon="9.7346832"><ele>115.66666666666666</ele><time>2026-03-22T15:43:11.681Z</time></trkpt><trkpt lat="44.2207787" lon="9.7349106"><ele>112.33333333333334</ele><time>2026-03-22T15:43:12.681Z</time></trkpt><trkpt lat="44.2208622" lon="9.7351487"><ele>109.0</ele><time>2026-03-22T15:43:13.681Z</time></trkpt><trkpt lat="44.2209307" lon="9.7353991"><ele>109.0</ele><time>2026-03-22T15:43:14.681Z</time></trkpt><trkpt lat="44.220976" lon="9.7356573"><ele>109.0</ele><time>2026-03-22T15:43:15.681Z</time></trkpt><trkpt lat="44.2209993" lon="9.7359139"><ele>109.0</ele><time>2026-03-22T15:43:16.682Z</time></trkpt><trkpt lat="44.221004" lon="9.736162"><ele>108.66666666666667</ele><time>2026-03-22T15:43:17.681Z</time></trkpt><trkpt lat="44.2209174" lon="9.7364072"><ele>108.33333333333334</ele><time>2026-03-22T15:43:18.681Z</time></trkpt><trkpt lat="44.2208895" lon="9.7366382"><ele>108.0</ele><time>2026-03-22T15:43:19.681Z</time></trkpt><trkpt lat="44.2208883" lon="9.7369229"><ele>108.0</ele><time>2026-03-22T15:43:20.681Z</time></trkpt><trkpt lat="44.2209008" lon="9.7372283"><ele>108.0</ele><time>2026-03-22T15:43:21.681Z</time></trkpt><trkpt lat="44.220906" lon="9.7375124"><ele>108.0</ele><time>2026-03-22T15:43:22.681Z</time></trkpt><trkpt lat="44.2209129" lon="9.737788"><ele>108.66666666666666</ele><time>2026-03-22T15:43:23.681Z</time></trkpt><trkpt lat="44.2209232" lon="9.7380562"><ele>109.33333333333333</ele><time>2026-03-22T15:43:24.682Z</time></trkpt><trkpt lat="44.2209417" lon="9.7383247"><ele>110.0</ele><time>2026-03-22T15:43:25.681Z</time></trkpt><trkpt lat="44.2209533" lon="9.7386025"><ele>110.33333333333333</ele><time>2026-03-22T15:43:26.681Z</time></trkpt><trkpt lat="44.2209619" lon="9.7388756"><ele>110.66666666666666</ele><time>2026-03-22T15:43:27.682Z</time></trkpt><trkpt lat="44.2209758" lon="9.73915"><ele>111.0</ele><time>2026-03-22T15:43:28.681Z</time></trkpt><trkpt lat="44.2209944" lon="9.739425"><ele>112.0</ele><time>2026-03-22T15:43:29.682Z</time></trkpt><trkpt lat="44.221024" lon="9.7396979"><ele>113.0</ele><time>2026-03-22T15:43:30.682Z</time></trkpt><trkpt lat="44.2210638" lon="9.7399565"><ele>114.0</ele><time>2026-03-22T15:43:31.681Z</time></trkpt><trkpt lat="44.2211162" lon="9.7402151"><ele>117.0</ele><time>2026-03-22T15:43:32.681Z</time></trkpt><trkpt lat="44.2211795" lon="9.7404898"><ele>120.0</ele><time>2026-03-22T15:43:33.681Z</time></trkpt><trkpt lat="44.2213055" lon="9.7407407"><ele>123.0</ele><time>2026-03-22T15:43:34.681Z</time></trkpt><trkpt lat="44.2213824" lon="9.7409957"><ele>125.66666666666666</ele><time>2026-03-22T15:43:35.681Z</time></trkpt><trkpt lat="44.2214514" lon="9.7412714"><ele>128.33333333333331</ele><time>2026-03-22T15:43:36.681Z</time></trkpt><trkpt lat="44.221505" lon="9.7415561"><ele>131.0</ele><time>2026-03-22T15:43:37.681Z</time></trkpt><trkpt lat="44.2215556" lon="9.7418298"><ele>121.0</ele><time>2026-03-22T15:43:38.681Z</time></trkpt><trkpt lat="44.2216032" lon="9.7420983"><ele>111.0</ele><time>2026-03-22T15:43:39.681Z</time></trkpt><trkpt lat="44.2216533" lon="9.7423696"><ele>101.0</ele><time>2026-03-22T15:43:40.681Z</time></trkpt><trkpt lat="44.2217159" lon="9.7426445"><ele>104.0</ele><time>2026-03-22T15:43:41.681Z</time></trkpt><trkpt lat="44.2217786" lon="9.7429412"><ele>107.0</ele><time>2026-03-22T15:43:42.681Z</time></trkpt><trkpt lat="44.2218269" lon="9.743237"><ele>110.0</ele><time>2026-03-22T15:43:43.681Z</time></trkpt><trkpt lat="44.2218762" lon="9.7435142"><ele>116.66666666666666</ele><time>2026-03-22T15:43:44.681Z</time></trkpt><trkpt lat="44.2219293" lon="9.7437997"><ele>123.33333333333334</ele><time>2026-03-22T15:43:45.682Z</time></trkpt><trkpt lat="44.2219836" lon="9.7440793"><ele>130.0</ele><time>2026-03-22T15:43:46.681Z</time></trkpt><trkpt lat="44.2220416" lon="9.7443471"><ele>135.33333333333334</ele><time>2026-03-22T15:43:47.681Z</time></trkpt><trkpt lat="44.222125" lon="9.744591"><ele>140.66666666666666</ele><time>2026-03-22T15:43:48.681Z</time></trkpt><trkpt lat="44.2222123" lon="9.744832"><ele>146.0</ele><time>2026-03-22T15:43:49.682Z</time></trkpt><trkpt lat="44.2223848" lon="9.7449548"><ele>134.66666666666666</ele><time>2026-03-22T15:43:50.681Z</time></trkpt><trkpt lat="44.222506" lon="9.7451406"><ele>123.33333333333334</ele><time>2026-03-22T15:43:51.681Z</time></trkpt><trkpt lat="44.2226321" lon="9.7453306"><ele>112.0</ele><time>2026-03-22T15:43:52.681Z</time></trkpt><trkpt lat="44.2227038" lon="9.7455567"><ele>112.0</ele><time>2026-03-22T15:43:53.681Z</time></trkpt><trkpt lat="44.2227804" lon="9.745764"><ele>112.0</ele><time>2026-03-22T15:43:54.681Z</time></trkpt><trkpt lat="44.2227227" lon="9.7460363"><ele>112.0</ele><time>2026-03-22T15:43:55.681Z</time></trkpt><trkpt lat="44.2226888" lon="9.7463242"><ele>112.33333333333334</ele><time>2026-03-22T15:43:56.681Z</time></trkpt><trkpt lat="44.2226523" lon="9.7466037"><ele>112.66666666666666</ele><time>2026-03-22T15:43:57.681Z</time></trkpt><trkpt lat="44.2226122" lon="9.7468729"><ele>113.0</ele><time>2026-03-22T15:43:58.681Z</time></trkpt><trkpt lat="44.2225727" lon="9.7471328"><ele>113.33333333333333</ele><time>2026-03-22T15:43:59.681Z</time></trkpt><trkpt lat="44.2225467" lon="9.7473869"><ele>113.66666666666666</ele><time>2026-03-22T15:44:00.681Z</time></trkpt><trkpt lat="44.2225625" lon="9.7476724"><ele>114.0</ele><time>2026-03-22T15:44:01.681Z</time></trkpt><trkpt lat="44.222589" lon="9.7479772"><ele>114.0</ele><time>2026-03-22T15:44:02.681Z</time></trkpt><trkpt lat="44.2226708" lon="9.748253"><ele>114.0</ele><time>2026-03-22T15:44:03.681Z</time></trkpt><trkpt lat="44.2227401" lon="9.7485209"><ele>114.0</ele><time>2026-03-22T15:44:04.682Z</time></trkpt><trkpt lat="44.2228252" lon="9.7487774"><ele>119.33333333333334</ele><time>2026-03-22T15:44:05.681Z</time></trkpt><trkpt lat="44.2228926" lon="9.7490318"><ele>124.66666666666667</ele><time>2026-03-22T15:44:06.681Z</time></trkpt><trkpt lat="44.2229817" lon="9.7492937"><ele>130.0</ele><time>2026-03-22T15:44:07.681Z</time></trkpt><trkpt lat="44.2230944" lon="9.7495448"><ele>122.0</ele><time>2026-03-22T15:44:08.681Z</time></trkpt><trkpt lat="44.2232108" lon="9.7497678"><ele>114.0</ele><time>2026-03-22T15:44:09.681Z</time></trkpt><trkpt lat="44.2233286" lon="9.7499815"><ele>106.0</ele><time>2026-03-22T15:44:10.681Z</time></trkpt><trkpt lat="44.2234367" lon="9.750178"><ele>109.33333333333334</ele><time>2026-03-22T15:44:11.681Z</time></trkpt><trkpt lat="44.2235422" lon="9.7503637"><ele>112.66666666666666</ele><time>2026-03-22T15:44:12.681Z</time></trkpt><trkpt lat="44.2236383" lon="9.750534"><ele>116.0</ele><time>2026-03-22T15:44:13.681Z</time></trkpt><trkpt lat="44.2237203" lon="9.7507068"><ele>116.0</ele><time>2026-03-22T15:44:14.681Z</time></trkpt><trkpt lat="44.223729" lon="9.7509181"><ele>116.0</ele><time>2026-03-22T15:44:15.681Z</time></trkpt><trkpt lat="44.2237252" lon="9.7511343"><ele>116.0</ele><time>2026-03-22T15:44:16.681Z</time></trkpt><trkpt lat="44.2236857" lon="9.7513231"><ele>116.0</ele><time>2026-03-22T15:44:17.681Z</time></trkpt><trkpt lat="44.2235991" lon="9.751504"><ele>112.33333333333333</ele><time>2026-03-22T15:44:18.681Z</time></trkpt><trkpt lat="44.2234777" lon="9.7516905"><ele>108.66666666666666</ele><time>2026-03-22T15:44:19.681Z</time></trkpt><trkpt lat="44.2233551" lon="9.7518587"><ele>105.0</ele><time>2026-03-22T15:44:20.681Z</time></trkpt><trkpt lat="44.2232391" lon="9.7520427"><ele>112.0</ele><time>2026-03-22T15:44:21.681Z</time></trkpt><trkpt lat="44.223123" lon="9.7522421"><ele>119.0</ele><time>2026-03-22T15:44:22.681Z</time></trkpt><trkpt lat="44.2230069" lon="9.7524482"><ele>126.0</ele><time>2026-03-22T15:44:23.681Z</time></trkpt><trkpt lat="44.2228982" lon="9.7526376"><ele>119.0</ele><time>2026-03-22T15:44:24.682Z</time></trkpt><trkpt lat="44.2227974" lon="9.7528134"><ele>112.0</ele><time>2026-03-22T15:44:25.681Z</time></trkpt><trkpt lat="44.2226974" lon="9.7529879"><ele>105.0</ele><time>2026-03-22T15:44:26.681Z</time></trkpt><trkpt lat="44.2225915" lon="9.7531694"><ele>105.0</ele><time>2026-03-22T15:44:27.681Z</time></trkpt><trkpt lat="44.2224914" lon="9.7533376"><ele>105.0</ele><time>2026-03-22T15:44:28.681Z</time></trkpt><trkpt lat="44.2223845" lon="9.7535141"><ele>105.0</ele><time>2026-03-22T15:44:29.681Z</time></trkpt><trkpt lat="44.2222672" lon="9.7536884"><ele>100.0</ele><time>2026-03-22T15:44:30.682Z</time></trkpt><trkpt lat="44.2221281" lon="9.7538184"><ele>95.0</ele><time>2026-03-22T15:44:31.681Z</time></trkpt><trkpt lat="44.2219817" lon="9.7539152"><ele>90.0</ele><time>2026-03-22T15:44:32.681Z</time></trkpt><trkpt lat="44.2218395" lon="9.7539742"><ele>90.0</ele><time>2026-03-22T15:44:33.682Z</time></trkpt><trkpt lat="44.2217067" lon="9.7540219"><ele>90.0</ele><time>2026-03-22T15:44:34.681Z</time></trkpt><trkpt lat="44.2215864" lon="9.754063"><ele>90.0</ele><time>2026-03-22T15:44:35.681Z</time></trkpt><trkpt lat="44.2214541" lon="9.7540968"><ele>90.0</ele><time>2026-03-22T15:44:36.681Z</time></trkpt><trkpt lat="44.2213099" lon="9.7541044"><ele>87.66666666666667</ele><time>2026-03-22T15:44:37.681Z</time></trkpt><trkpt lat="44.221166" lon="9.7539986"><ele>85.33333333333334</ele><time>2026-03-22T15:44:38.681Z</time></trkpt><trkpt lat="44.2210116" lon="9.7538827"><ele>83.0</ele><time>2026-03-22T15:44:39.681Z</time></trkpt><trkpt lat="44.2208429" lon="9.7537369"><ele>83.0</ele><time>2026-03-22T15:44:40.681Z</time></trkpt><trkpt lat="44.2206779" lon="9.7535784"><ele>83.0</ele><time>2026-03-22T15:44:41.682Z</time></trkpt><trkpt lat="44.2205153" lon="9.7534142"><ele>83.0</ele><time>2026-03-22T15:44:42.681Z</time></trkpt><trkpt lat="44.2203525" lon="9.7532296"><ele>84.33333333333334</ele><time>2026-03-22T15:44:43.681Z</time></trkpt><trkpt lat="44.2201967" lon="9.7530467"><ele>85.66666666666667</ele><time>2026-03-22T15:44:44.681Z</time></trkpt><trkpt lat="44.2200453" lon="9.7528711"><ele>87.0</ele><time>2026-03-22T15:44:45.681Z</time></trkpt><trkpt lat="44.2199105" lon="9.7527222"><ele>88.33333333333333</ele><time>2026-03-22T15:44:46.681Z</time></trkpt><trkpt lat="44.2197892" lon="9.7525826"><ele>89.66666666666666</ele><time>2026-03-22T15:44:47.681Z</time></trkpt><trkpt lat="44.2196683" lon="9.7524503"><ele>91.0</ele><time>2026-03-22T15:44:48.681Z</time></trkpt><trkpt lat="44.2195305" lon="9.752426"><ele>91.0</ele><time>2026-03-22T15:44:49.681Z</time></trkpt><trkpt lat="44.2194099" lon="9.7523586"><ele>91.0</ele><time>2026-03-22T15:44:50.681Z</time></trkpt><trkpt lat="44.2191892" lon="9.7524693"><ele>91.0</ele><time>2026-03-22T15:44:51.681Z</time></trkpt><trkpt lat="44.2190045" lon="9.7525048"><ele>92.0</ele><time>2026-03-22T15:44:52.681Z</time></trkpt><trkpt lat="44.2188296" lon="9.7525552"><ele>93.0</ele><time>2026-03-22T15:44:53.681Z</time></trkpt><trkpt lat="44.218649" lon="9.7525866"><ele>94.0</ele><time>2026-03-22T15:44:54.681Z</time></trkpt><trkpt lat="44.2184558" lon="9.7525627"><ele>94.0</ele><time>2026-03-22T15:44:55.681Z</time></trkpt><trkpt lat="44.2182525" lon="9.7524846"><ele>94.0</ele><time>2026-03-22T15:44:56.681Z</time></trkpt><trkpt lat="44.2180648" lon="9.7524093"><ele>94.0</ele><time>2026-03-22T15:44:57.682Z</time></trkpt><trkpt lat="44.2178819" lon="9.752335"><ele>93.0</ele><time>2026-03-22T15:44:58.681Z</time></trkpt><trkpt lat="44.2176918" lon="9.7522673"><ele>92.0</ele><time>2026-03-22T15:44:59.682Z</time></trkpt><trkpt lat="44.2174812" lon="9.752217"><ele>91.0</ele><time>2026-03-22T15:45:00.681Z</time></trkpt><trkpt lat="44.2172771" lon="9.7522073"><ele>93.33333333333333</ele><time>2026-03-22T15:45:01.681Z</time></trkpt><trkpt lat="44.2170874" lon="9.7521972"><ele>95.66666666666666</ele><time>2026-03-22T15:45:02.681Z</time></trkpt><trkpt lat="44.2169008" lon="9.7522149"><ele>98.0</ele><time>2026-03-22T15:45:03.681Z</time></trkpt><trkpt lat="44.2167089" lon="9.7522471"><ele>98.0</ele><time>2026-03-22T15:45:04.681Z</time></trkpt><trkpt lat="44.2165235" lon="9.7522849"><ele>98.0</ele><time>2026-03-22T15:45:05.681Z</time></trkpt><trkpt lat="44.2163284" lon="9.7524957"><ele>98.0</ele><time>2026-03-22T15:45:06.681Z</time></trkpt><trkpt lat="44.2161448" lon="9.752598"><ele>103.0</ele><time>2026-03-22T15:45:07.681Z</time></trkpt><trkpt lat="44.2159531" lon="9.752699"><ele>108.0</ele><time>2026-03-22T15:45:08.681Z</time></trkpt><trkpt lat="44.215728" lon="9.7527501"><ele>113.0</ele><time>2026-03-22T15:45:09.681Z</time></trkpt><trkpt lat="44.2155142" lon="9.752754"><ele>103.0</ele><time>2026-03-22T15:45:10.682Z</time></trkpt><trkpt lat="44.2153175" lon="9.7527596"><ele>93.0</ele><time>2026-03-22T15:45:11.681Z</time></trkpt><trkpt lat="44.2151127" lon="9.7527614"><ele>83.0</ele><time>2026-03-22T15:45:12.681Z</time></trkpt><trkpt lat="44.2148782" lon="9.7528252"><ele>90.5</ele><time>2026-03-22T15:45:13.681Z</time></trkpt><trkpt lat="44.2146504" lon="9.752909"><ele>98.0</ele><time>2026-03-22T15:45:14.681Z</time></trkpt><trkpt lat="44.2144422" lon="9.7530667"><ele>98.0</ele><time>2026-03-22T15:45:15.681Z</time></trkpt><trkpt lat="44.2142376" lon="9.7531641"><ele>98.0</ele><time>2026-03-22T15:45:16.681Z</time></trkpt><trkpt lat="44.2140433" lon="9.7532645"><ele>98.0</ele><time>2026-03-22T15:45:17.681Z</time></trkpt><trkpt lat="44.213858" lon="9.753361"><ele>101.33333333333333</ele><time>2026-03-22T15:45:18.681Z</time></trkpt><trkpt lat="44.2136768" lon="9.7534489"><ele>104.66666666666666</ele><time>2026-03-22T15:45:19.682Z</time></trkpt><trkpt lat="44.2135262" lon="9.7535389"><ele>108.0</ele><time>2026-03-22T15:45:20.682Z</time></trkpt><trkpt lat="44.2133825" lon="9.7536298"><ele>111.66666666666666</ele><time>2026-03-22T15:45:21.681Z</time></trkpt><trkpt lat="44.2132415" lon="9.7537429"><ele>115.33333333333333</ele><time>2026-03-22T15:45:22.681Z</time></trkpt><trkpt lat="44.2131538" lon="9.7539484"><ele>119.0</ele><time>2026-03-22T15:45:23.681Z</time></trkpt><trkpt lat="44.2130813" lon="9.754176"><ele>126.33333333333333</ele><time>2026-03-22T15:45:24.681Z</time></trkpt><trkpt lat="44.2130442" lon="9.7544021"><ele>133.66666666666666</ele><time>2026-03-22T15:45:25.681Z</time></trkpt><trkpt lat="44.2130289" lon="9.754651"><ele>141.0</ele><time>2026-03-22T15:45:26.681Z</time></trkpt><trkpt lat="44.2130162" lon="9.7549039"><ele>141.0</ele><time>2026-03-22T15:45:27.681Z</time></trkpt><trkpt lat="44.2129992" lon="9.7551612"><ele>141.0</ele><time>2026-03-22T15:45:28.681Z</time></trkpt><trkpt lat="44.2129769" lon="9.7554235"><ele>141.0</ele><time>2026-03-22T15:45:29.681Z</time></trkpt><trkpt lat="44.212983" lon="9.7556952"><ele>143.66666666666666</ele><time>2026-03-22T15:45:30.681Z</time></trkpt><trkpt lat="44.213009" lon="9.7559624"><ele>146.33333333333331</ele><time>2026-03-22T15:45:31.681Z</time></trkpt><trkpt lat="44.2130426" lon="9.7562242"><ele>149.0</ele><time>2026-03-22T15:45:32.681Z</time></trkpt><trkpt lat="44.2130774" lon="9.7564777"><ele>152.66666666666666</ele><time>2026-03-22T15:45:33.681Z</time></trkpt><trkpt lat="44.2131285" lon="9.7567303"><ele>156.33333333333334</ele><time>2026-03-22T15:45:34.681Z</time></trkpt><trkpt lat="44.2131836" lon="9.7569744"><ele>160.0</ele><time>2026-03-22T15:45:35.681Z</time></trkpt><trkpt lat="44.2132557" lon="9.7571979"><ele>139.33333333333334</ele><time>2026-03-22T15:45:36.681Z</time></trkpt><trkpt lat="44.2133074" lon="9.7574028"><ele>118.66666666666666</ele><time>2026-03-22T15:45:37.681Z</time></trkpt><trkpt lat="44.2133455" lon="9.7576062"><ele>98.0</ele><time>2026-03-22T15:45:38.681Z</time></trkpt><trkpt lat="44.2133587" lon="9.7578466"><ele>98.0</ele><time>2026-03-22T15:45:39.681Z</time></trkpt><trkpt lat="44.2133488" lon="9.7581218"><ele>98.0</ele><time>2026-03-22T15:45:40.681Z</time></trkpt><trkpt lat="44.2133345" lon="9.7584152"><ele>98.0</ele><time>2026-03-22T15:45:41.681Z</time></trkpt><trkpt lat="44.2133171" lon="9.7587053"><ele>97.33333333333333</ele><time>2026-03-22T15:45:42.681Z</time></trkpt><trkpt lat="44.2133028" lon="9.7589808"><ele>96.66666666666666</ele><time>2026-03-22T15:45:43.681Z</time></trkpt><trkpt lat="44.2132878" lon="9.7592481"><ele>96.0</ele><time>2026-03-22T15:45:44.681Z</time></trkpt><trkpt lat="44.213275" lon="9.7595141"><ele>95.33333333333333</ele><time>2026-03-22T15:45:45.681Z</time></trkpt><trkpt lat="44.2132619" lon="9.7597764"><ele>94.66666666666666</ele><time>2026-03-22T15:45:46.681Z</time></trkpt><trkpt lat="44.2132363" lon="9.7600393"><ele>94.0</ele><time>2026-03-22T15:45:47.681Z</time></trkpt><trkpt lat="44.2131995" lon="9.7603028"><ele>99.0</ele><time>2026-03-22T15:45:48.681Z</time></trkpt><trkpt lat="44.2131396" lon="9.7605638"><ele>104.0</ele><time>2026-03-22T15:45:49.681Z</time></trkpt><trkpt lat="44.2130579" lon="9.7608297"><ele>109.0</ele><time>2026-03-22T15:45:50.681Z</time></trkpt><trkpt lat="44.2129737" lon="9.7610802"><ele>109.0</ele><time>2026-03-22T15:45:51.681Z</time></trkpt><trkpt lat="44.2128945" lon="9.761314"><ele>109.0</ele><time>2026-03-22T15:45:52.681Z</time></trkpt><trkpt lat="44.2128214" lon="9.7615412"><ele>109.0</ele><time>2026-03-22T15:45:53.681Z</time></trkpt><trkpt lat="44.2127471" lon="9.7617366"><ele>103.5</ele><time>2026-03-22T15:45:54.681Z</time></trkpt><trkpt lat="44.2126596" lon="9.7619126"><ele>98.0</ele><time>2026-03-22T15:45:55.681Z</time></trkpt><trkpt lat="44.2125491" lon="9.7620664"><ele>92.5</ele><time>2026-03-22T15:45:56.681Z</time></trkpt><trkpt lat="44.2124532" lon="9.7621906"><ele>87.0</ele><time>2026-03-22T15:45:57.681Z</time></trkpt><trkpt lat="44.2123702" lon="9.7622846"><ele>88.19999999999999</ele><time>2026-03-22T15:45:58.681Z</time></trkpt><trkpt lat="44.21229" lon="9.7623647"><ele>89.4</ele><time>2026-03-22T15:45:59.682Z</time></trkpt><trkpt lat="44.212215" lon="9.7624464"><ele>90.6</ele><time>2026-03-22T15:46:00.681Z</time></trkpt><trkpt lat="44.2121397" lon="9.7625403"><ele>91.80000000000001</ele><time>2026-03-22T15:46:01.681Z</time></trkpt><trkpt lat="44.2120643" lon="9.7626629"><ele>93.0</ele><time>2026-03-22T15:46:02.681Z</time></trkpt><trkpt lat="44.2119855" lon="9.7628384"><ele>93.0</ele><time>2026-03-22T15:46:03.681Z</time></trkpt><trkpt lat="44.2118992" lon="9.7630113"><ele>93.0</ele><time>2026-03-22T15:46:04.681Z</time></trkpt><trkpt lat="44.2118238" lon="9.7631722"><ele>93.0</ele><time>2026-03-22T15:46:05.681Z</time></trkpt><trkpt lat="44.2117517" lon="9.7633252"><ele>93.0</ele><time>2026-03-22T15:46:06.681Z</time></trkpt><trkpt lat="44.2117013" lon="9.7634551"><ele>91.4</ele><time>2026-03-22T15:46:07.681Z</time></trkpt><trkpt lat="44.2116451" lon="9.7635802"><ele>89.80000000000001</ele><time>2026-03-22T15:46:08.681Z</time></trkpt><trkpt lat="44.2115952" lon="9.7636999"><ele>88.2</ele><time>2026-03-22T15:46:09.681Z</time></trkpt><trkpt lat="44.2115441" lon="9.7638189"><ele>86.6</ele><time>2026-03-22T15:46:10.681Z</time></trkpt><trkpt lat="44.2114807" lon="9.7639309"><ele>85.0</ele><time>2026-03-22T15:46:11.681Z</time></trkpt><trkpt lat="44.2114002" lon="9.7640233"><ele>85.0</ele><time>2026-03-22T15:46:12.681Z</time></trkpt><trkpt lat="44.2113049" lon="9.7640762"><ele>85.0</ele><time>2026-03-22T15:46:13.681Z</time></trkpt><trkpt lat="44.2112006" lon="9.7640958"><ele>85.0</ele><time>2026-03-22T15:46:14.681Z</time></trkpt><trkpt lat="44.2110761" lon="9.7640747"><ele>85.0</ele><time>2026-03-22T15:46:15.681Z</time></trkpt><trkpt lat="44.210927" lon="9.7640186"><ele>85.0</ele><time>2026-03-22T15:46:16.682Z</time></trkpt><trkpt lat="44.2107593" lon="9.7639316"><ele>85.0</ele><time>2026-03-22T15:46:17.681Z</time></trkpt><trkpt lat="44.210559" lon="9.7638279"><ele>85.0</ele><time>2026-03-22T15:46:18.681Z</time></trkpt><trkpt lat="44.2103471" lon="9.7637252"><ele>82.66666666666666</ele><time>2026-03-22T15:46:19.681Z</time></trkpt><trkpt lat="44.2101389" lon="9.7636212"><ele>80.33333333333333</ele><time>2026-03-22T15:46:20.681Z</time></trkpt><trkpt lat="44.2099393" lon="9.7635249"><ele>78.0</ele><time>2026-03-22T15:46:21.682Z</time></trkpt><trkpt lat="44.2097402" lon="9.7634413"><ele>88.0</ele><time>2026-03-22T15:46:22.682Z</time></trkpt><trkpt lat="44.2095219" lon="9.7633993"><ele>98.0</ele><time>2026-03-22T15:46:23.681Z</time></trkpt><trkpt lat="44.2092841" lon="9.7633837"><ele>98.0</ele><time>2026-03-22T15:46:24.681Z</time></trkpt><trkpt lat="44.2090356" lon="9.7634086"><ele>98.0</ele><time>2026-03-22T15:46:25.681Z</time></trkpt><trkpt lat="44.2088065" lon="9.7634173"><ele>97.0</ele><time>2026-03-22T15:46:26.682Z</time></trkpt><trkpt lat="44.2085839" lon="9.7634299"><ele>96.0</ele><time>2026-03-22T15:46:27.682Z</time></trkpt><trkpt lat="44.2083758" lon="9.7634448"><ele>95.0</ele><time>2026-03-22T15:46:28.681Z</time></trkpt><trkpt lat="44.2081666" lon="9.7634558"><ele>89.5</ele><time>2026-03-22T15:46:29.681Z</time></trkpt><trkpt lat="44.2079551" lon="9.7634572"><ele>84.0</ele><time>2026-03-22T15:46:30.682Z</time></trkpt><trkpt lat="44.2077082" lon="9.7633254"><ele>84.0</ele><time>2026-03-22T15:46:31.682Z</time></trkpt><trkpt lat="44.2074607" lon="9.7632421"><ele>84.0</ele><time>2026-03-22T15:46:32.682Z</time></trkpt><trkpt lat="44.2072292" lon="9.7631412"><ele>79.0</ele><time>2026-03-22T15:46:33.681Z</time></trkpt><trkpt lat="44.2070102" lon="9.7630521"><ele>74.0</ele><time>2026-03-22T15:46:34.681Z</time></trkpt><trkpt lat="44.2067953" lon="9.7629654"><ele>74.0</ele><time>2026-03-22T15:46:35.682Z</time></trkpt><trkpt lat="44.206588" lon="9.7628771"><ele>74.0</ele><time>2026-03-22T15:46:36.681Z</time></trkpt><trkpt lat="44.2063857" lon="9.7627939"><ele>74.0</ele><time>2026-03-22T15:46:37.681Z</time></trkpt><trkpt lat="44.2061773" lon="9.7627073"><ele>75.0</ele><time>2026-03-22T15:46:38.681Z</time></trkpt><trkpt lat="44.2059764" lon="9.7626268"><ele>76.0</ele><time>2026-03-22T15:46:39.681Z</time></trkpt><trkpt lat="44.2057838" lon="9.7625507"><ele>77.0</ele><time>2026-03-22T15:46:40.682Z</time></trkpt><trkpt lat="44.2056017" lon="9.7624794"><ele>77.0</ele><time>2026-03-22T15:46:41.681Z</time></trkpt><trkpt lat="44.2054238" lon="9.7623994"><ele>77.0</ele><time>2026-03-22T15:46:42.681Z</time></trkpt><trkpt lat="44.2052493" lon="9.7623001"><ele>77.0</ele><time>2026-03-22T15:46:43.681Z</time></trkpt><trkpt lat="44.2050978" lon="9.7621665"><ele>77.0</ele><time>2026-03-22T15:46:44.681Z</time></trkpt><trkpt lat="44.2049579" lon="9.7620261"><ele>77.0</ele><time>2026-03-22T15:46:45.681Z</time></trkpt><trkpt lat="44.2048214" lon="9.761898"><ele>77.0</ele><time>2026-03-22T15:46:46.682Z</time></trkpt><trkpt lat="44.2046696" lon="9.7618026"><ele>80.66666666666667</ele><time>2026-03-22T15:46:47.681Z</time></trkpt><trkpt lat="44.2045114" lon="9.7617606"><ele>84.33333333333333</ele><time>2026-03-22T15:46:48.682Z</time></trkpt><trkpt lat="44.2043118" lon="9.7617321"><ele>88.0</ele><time>2026-03-22T15:46:49.681Z</time></trkpt><trkpt lat="44.2040733" lon="9.7618194"><ele>83.0</ele><time>2026-03-22T15:46:50.682Z</time></trkpt><trkpt lat="44.203859" lon="9.7618716"><ele>78.0</ele><time>2026-03-22T15:46:51.681Z</time></trkpt><trkpt lat="44.2036441" lon="9.7619127"><ele>73.0</ele><time>2026-03-22T15:46:52.681Z</time></trkpt><trkpt lat="44.2034621" lon="9.7619534"><ele>73.0</ele><time>2026-03-22T15:46:53.682Z</time></trkpt><trkpt lat="44.2032703" lon="9.7619906"><ele>73.0</ele><time>2026-03-22T15:46:54.681Z</time></trkpt><trkpt lat="44.2030808" lon="9.7620269"><ele>73.0</ele><time>2026-03-22T15:46:55.681Z</time></trkpt><trkpt lat="44.2028772" lon="9.7620612"><ele>74.0</ele><time>2026-03-22T15:46:56.681Z</time></trkpt><trkpt lat="44.2026657" lon="9.76209"><ele>75.0</ele><time>2026-03-22T15:46:57.681Z</time></trkpt><trkpt lat="44.2024561" lon="9.7621324"><ele>76.0</ele><time>2026-03-22T15:46:58.681Z</time></trkpt><trkpt lat="44.2022237" lon="9.7621708"><ele>77.66666666666666</ele><time>2026-03-22T15:46:59.682Z</time></trkpt><trkpt lat="44.2020151" lon="9.7622256"><ele>79.33333333333333</ele><time>2026-03-22T15:47:00.683Z</time></trkpt><trkpt lat="44.2017917" lon="9.7622381"><ele>81.0</ele><time>2026-03-22T15:47:01.681Z</time></trkpt><trkpt lat="44.2015897" lon="9.7623104"><ele>78.0</ele><time>2026-03-22T15:47:02.681Z</time></trkpt><trkpt lat="44.2013728" lon="9.7623269"><ele>75.0</ele><time>2026-03-22T15:47:03.681Z</time></trkpt><trkpt lat="44.2011857" lon="9.7624915"><ele>72.0</ele><time>2026-03-22T15:47:04.681Z</time></trkpt><trkpt lat="44.2010214" lon="9.7627595"><ele>72.0</ele><time>2026-03-22T15:47:05.681Z</time></trkpt><trkpt lat="44.2008229" lon="9.7629381"><ele>72.0</ele><time>2026-03-22T15:47:06.681Z</time></trkpt><trkpt lat="44.200648" lon="9.7630755"><ele>72.0</ele><time>2026-03-22T15:47:07.681Z</time></trkpt><trkpt lat="44.2004636" lon="9.763224"><ele>71.33333333333333</ele><time>2026-03-22T15:47:08.681Z</time></trkpt><trkpt lat="44.2002814" lon="9.7633736"><ele>70.66666666666666</ele><time>2026-03-22T15:47:09.681Z</time></trkpt><trkpt lat="44.2000899" lon="9.7635412"><ele>70.0</ele><time>2026-03-22T15:47:10.682Z</time></trkpt><trkpt lat="44.1999126" lon="9.7637081"><ele>78.0</ele><time>2026-03-22T15:47:11.682Z</time></trkpt><trkpt lat="44.1997406" lon="9.763889"><ele>86.0</ele><time>2026-03-22T15:47:12.681Z</time></trkpt><trkpt lat="44.1995763" lon="9.7640798"><ele>94.0</ele><time>2026-03-22T15:47:13.681Z</time></trkpt><trkpt lat="44.1994189" lon="9.7642716"><ele>87.33333333333333</ele><time>2026-03-22T15:47:14.681Z</time></trkpt><trkpt lat="44.1992795" lon="9.7644874"><ele>80.66666666666667</ele><time>2026-03-22T15:47:15.681Z</time></trkpt><trkpt lat="44.1991469" lon="9.7647078"><ele>74.0</ele><time>2026-03-22T15:47:16.681Z</time></trkpt><trkpt lat="44.1990349" lon="9.7649291"><ele>74.0</ele><time>2026-03-22T15:47:17.681Z</time></trkpt><trkpt lat="44.1989105" lon="9.7651252"><ele>74.0</ele><time>2026-03-22T15:47:18.681Z</time></trkpt><trkpt lat="44.1987864" lon="9.7653233"><ele>74.0</ele><time>2026-03-22T15:47:19.682Z</time></trkpt><trkpt lat="44.1986476" lon="9.7655"><ele>74.0</ele><time>2026-03-22T15:47:20.681Z</time></trkpt><trkpt lat="44.1985008" lon="9.7656661"><ele>74.0</ele><time>2026-03-22T15:47:21.681Z</time></trkpt><trkpt lat="44.1983668" lon="9.7658402"><ele>74.0</ele><time>2026-03-22T15:47:22.681Z</time></trkpt><trkpt lat="44.1982282" lon="9.7659896"><ele>73.33333333333334</ele><time>2026-03-22T15:47:23.681Z</time></trkpt><trkpt lat="44.1980898" lon="9.7661438"><ele>72.66666666666667</ele><time>2026-03-22T15:47:24.682Z</time></trkpt><trkpt lat="44.1979498" lon="9.7662969"><ele>72.0</ele><time>2026-03-22T15:47:25.681Z</time></trkpt><trkpt lat="44.1978219" lon="9.7664388"><ele>72.0</ele><time>2026-03-22T15:47:26.681Z</time></trkpt><trkpt lat="44.1977048" lon="9.7665731"><ele>72.0</ele><time>2026-03-22T15:47:27.681Z</time></trkpt><trkpt lat="44.1975751" lon="9.7667058"><ele>72.0</ele><time>2026-03-22T15:47:28.681Z</time></trkpt><trkpt lat="44.1974388" lon="9.7668497"><ele>73.33333333333333</ele><time>2026-03-22T15:47:29.681Z</time></trkpt><trkpt lat="44.1972956" lon="9.7670098"><ele>74.66666666666666</ele><time>2026-03-22T15:47:30.681Z</time></trkpt><trkpt lat="44.1971492" lon="9.76719"><ele>76.0</ele><time>2026-03-22T15:47:31.681Z</time></trkpt><trkpt lat="44.1970112" lon="9.7673419"><ele>76.0</ele><time>2026-03-22T15:47:32.681Z</time></trkpt><trkpt lat="44.1968705" lon="9.7674869"><ele>76.0</ele><time>2026-03-22T15:47:33.681Z</time></trkpt><trkpt lat="44.1967393" lon="9.7676258"><ele>76.0</ele><time>2026-03-22T15:47:34.681Z</time></trkpt><trkpt lat="44.1966043" lon="9.7677565"><ele>76.33333333333333</ele><time>2026-03-22T15:47:35.681Z</time></trkpt><trkpt lat="44.1964582" lon="9.7678709"><ele>76.66666666666667</ele><time>2026-03-22T15:47:36.681Z</time></trkpt><trkpt lat="44.1963075" lon="9.7679713"><ele>77.0</ele><time>2026-03-22T15:47:37.681Z</time></trkpt><trkpt lat="44.1961527" lon="9.7680664"><ele>77.0</ele><time>2026-03-22T15:47:38.681Z</time></trkpt><trkpt lat="44.1959959" lon="9.7681594"><ele>77.0</ele><time>2026-03-22T15:47:39.681Z</time></trkpt><trkpt lat="44.1958413" lon="9.7682507"><ele>77.0</ele><time>2026-03-22T15:47:40.681Z</time></trkpt><trkpt lat="44.1956869" lon="9.7683465"><ele>77.66666666666667</ele><time>2026-03-22T15:47:41.681Z</time></trkpt><trkpt lat="44.1955314" lon="9.7684448"><ele>78.33333333333333</ele><time>2026-03-22T15:47:42.681Z</time></trkpt><trkpt lat="44.1953733" lon="9.7685454"><ele>79.0</ele><time>2026-03-22T15:47:43.681Z</time></trkpt><trkpt lat="44.1952102" lon="9.7686341"><ele>79.0</ele><time>2026-03-22T15:47:44.681Z</time></trkpt><trkpt lat="44.1950335" lon="9.7687105"><ele>79.0</ele><time>2026-03-22T15:47:45.681Z</time></trkpt><trkpt lat="44.1948551" lon="9.7687742"><ele>79.0</ele><time>2026-03-22T15:47:46.681Z</time></trkpt><trkpt lat="44.1946738" lon="9.7688191"><ele>78.66666666666666</ele><time>2026-03-22T15:47:47.682Z</time></trkpt><trkpt lat="44.1944804" lon="9.7688445"><ele>78.33333333333333</ele><time>2026-03-22T15:47:48.681Z</time></trkpt><trkpt lat="44.1942829" lon="9.7688546"><ele>78.0</ele><time>2026-03-22T15:47:49.681Z</time></trkpt><trkpt lat="44.1940893" lon="9.7688603"><ele>77.33333333333333</ele><time>2026-03-22T15:47:50.681Z</time></trkpt><trkpt lat="44.1939028" lon="9.7688588"><ele>76.66666666666666</ele><time>2026-03-22T15:47:51.681Z</time></trkpt><trkpt lat="44.1937224" lon="9.768859"><ele>76.0</ele><time>2026-03-22T15:47:52.681Z</time></trkpt><trkpt lat="44.1935428" lon="9.7688381"><ele>76.0</ele><time>2026-03-22T15:47:53.681Z</time></trkpt><trkpt lat="44.1933639" lon="9.7687732"><ele>76.0</ele><time>2026-03-22T15:47:54.681Z</time></trkpt><trkpt lat="44.1931888" lon="9.7686827"><ele>76.0</ele><time>2026-03-22T15:47:55.681Z</time></trkpt><trkpt lat="44.1930347" lon="9.7685386"><ele>75.33333333333333</ele><time>2026-03-22T15:47:56.681Z</time></trkpt><trkpt lat="44.1928803" lon="9.7683367"><ele>74.66666666666667</ele><time>2026-03-22T15:47:57.681Z</time></trkpt><trkpt lat="44.1927338" lon="9.7681078"><ele>74.0</ele><time>2026-03-22T15:47:58.681Z</time></trkpt><trkpt lat="44.1925885" lon="9.76789"><ele>74.33333333333334</ele><time>2026-03-22T15:47:59.681Z</time></trkpt><trkpt lat="44.1924526" lon="9.7676774"><ele>74.66666666666667</ele><time>2026-03-22T15:48:00.681Z</time></trkpt><trkpt lat="44.1923148" lon="9.7674663"><ele>75.0</ele><time>2026-03-22T15:48:01.681Z</time></trkpt><trkpt lat="44.1921746" lon="9.7672589"><ele>75.0</ele><time>2026-03-22T15:48:02.681Z</time></trkpt><trkpt lat="44.1920401" lon="9.7670533"><ele>75.0</ele><time>2026-03-22T15:48:03.681Z</time></trkpt><trkpt lat="44.1919132" lon="9.7668578"><ele>75.0</ele><time>2026-03-22T15:48:04.681Z</time></trkpt><trkpt lat="44.1917873" lon="9.7666621"><ele>75.33333333333333</ele><time>2026-03-22T15:48:05.681Z</time></trkpt><trkpt lat="44.1916698" lon="9.7664779"><ele>75.66666666666666</ele><time>2026-03-22T15:48:06.681Z</time></trkpt><trkpt lat="44.1915527" lon="9.7663053"><ele>76.0</ele><time>2026-03-22T15:48:07.682Z</time></trkpt><trkpt lat="44.191428" lon="9.7661383"><ele>76.0</ele><time>2026-03-22T15:48:08.681Z</time></trkpt><trkpt lat="44.1912902" lon="9.7659984"><ele>76.0</ele><time>2026-03-22T15:48:09.681Z</time></trkpt><trkpt lat="44.1911405" lon="9.7659172"><ele>76.0</ele><time>2026-03-22T15:48:10.681Z</time></trkpt><trkpt lat="44.1909863" lon="9.7658436"><ele>76.0</ele><time>2026-03-22T15:48:11.681Z</time></trkpt><trkpt lat="44.1908127" lon="9.7657986"><ele>76.0</ele><time>2026-03-22T15:48:12.681Z</time></trkpt><trkpt lat="44.1906129" lon="9.7658546"><ele>76.0</ele><time>2026-03-22T15:48:13.681Z</time></trkpt><trkpt lat="44.1904134" lon="9.7659857"><ele>76.66666666666666</ele><time>2026-03-22T15:48:14.681Z</time></trkpt><trkpt lat="44.1902183" lon="9.7660044"><ele>77.33333333333333</ele><time>2026-03-22T15:48:15.681Z</time></trkpt><trkpt lat="44.1900196" lon="9.7660406"><ele>78.0</ele><time>2026-03-22T15:48:16.682Z</time></trkpt><trkpt lat="44.1898086" lon="9.7659025"><ele>80.0</ele><time>2026-03-22T15:48:17.681Z</time></trkpt><trkpt lat="44.1896155" lon="9.7658484"><ele>82.0</ele><time>2026-03-22T15:48:18.681Z</time></trkpt><trkpt lat="44.1894283" lon="9.7657901"><ele>84.0</ele><time>2026-03-22T15:48:19.681Z</time></trkpt><trkpt lat="44.1892386" lon="9.7657293"><ele>84.0</ele><time>2026-03-22T15:48:20.681Z</time></trkpt><trkpt lat="44.1890482" lon="9.7656693"><ele>84.0</ele><time>2026-03-22T15:48:21.682Z</time></trkpt><trkpt lat="44.1888524" lon="9.7656086"><ele>84.0</ele><time>2026-03-22T15:48:22.681Z</time></trkpt><trkpt lat="44.1886572" lon="9.765544"><ele>82.0</ele><time>2026-03-22T15:48:23.681Z</time></trkpt><trkpt lat="44.1884574" lon="9.7654804"><ele>80.0</ele><time>2026-03-22T15:48:24.681Z</time></trkpt><trkpt lat="44.1882556" lon="9.7654174"><ele>78.0</ele><time>2026-03-22T15:48:25.681Z</time></trkpt><trkpt lat="44.1880541" lon="9.7653493"><ele>78.0</ele><time>2026-03-22T15:48:26.681Z</time></trkpt><trkpt lat="44.1878477" lon="9.7652839"><ele>78.0</ele><time>2026-03-22T15:48:27.681Z</time></trkpt><trkpt lat="44.1876406" lon="9.7652226"><ele>78.0</ele><time>2026-03-22T15:48:28.681Z</time></trkpt><trkpt lat="44.1874326" lon="9.7651504"><ele>81.33333333333333</ele><time>2026-03-22T15:48:29.681Z</time></trkpt><trkpt lat="44.1872229" lon="9.7650748"><ele>84.66666666666666</ele><time>2026-03-22T15:48:30.681Z</time></trkpt><trkpt lat="44.1870182" lon="9.7650108"><ele>88.0</ele><time>2026-03-22T15:48:31.681Z</time></trkpt><trkpt lat="44.1868112" lon="9.7649363"><ele>88.0</ele><time>2026-03-22T15:48:32.681Z</time></trkpt><trkpt lat="44.1865931" lon="9.7648657"><ele>88.0</ele><time>2026-03-22T15:48:33.681Z</time></trkpt><trkpt lat="44.1863796" lon="9.7647963"><ele>88.0</ele><time>2026-03-22T15:48:34.681Z</time></trkpt><trkpt lat="44.1861644" lon="9.7647272"><ele>84.0</ele><time>2026-03-22T15:48:35.681Z</time></trkpt><trkpt lat="44.1859432" lon="9.7646804"><ele>80.0</ele><time>2026-03-22T15:48:36.681Z</time></trkpt><trkpt lat="44.1857144" lon="9.7646577"><ele>79.66666666666667</ele><time>2026-03-22T15:48:37.681Z</time></trkpt><trkpt lat="44.1854942" lon="9.7646568"><ele>79.33333333333333</ele><time>2026-03-22T15:48:38.681Z</time></trkpt><trkpt lat="44.1852848" lon="9.7646685"><ele>79.0</ele><time>2026-03-22T15:48:39.681Z</time></trkpt><trkpt lat="44.1850799" lon="9.7646911"><ele>79.0</ele><time>2026-03-22T15:48:40.681Z</time></trkpt><trkpt lat="44.1848759" lon="9.7647037"><ele>79.0</ele><time>2026-03-22T15:48:41.681Z</time></trkpt><trkpt lat="44.1846781" lon="9.7647059"><ele>79.0</ele><time>2026-03-22T15:48:42.681Z</time></trkpt><trkpt lat="44.1844913" lon="9.7646765"><ele>79.0</ele><time>2026-03-22T15:48:43.681Z</time></trkpt><trkpt lat="44.1843024" lon="9.7646031"><ele>79.0</ele><time>2026-03-22T15:48:44.681Z</time></trkpt><trkpt lat="44.184115" lon="9.764489"><ele>79.0</ele><time>2026-03-22T15:48:45.681Z</time></trkpt><trkpt lat="44.1839143" lon="9.7643386"><ele>81.0</ele><time>2026-03-22T15:48:46.681Z</time></trkpt><trkpt lat="44.1837136" lon="9.7641777"><ele>83.0</ele><time>2026-03-22T15:48:47.681Z</time></trkpt><trkpt lat="44.1835167" lon="9.7640265"><ele>83.0</ele><time>2026-03-22T15:48:48.681Z</time></trkpt><trkpt lat="44.1833266" lon="9.7638748"><ele>83.0</ele><time>2026-03-22T15:48:49.681Z</time></trkpt><trkpt lat="44.1831397" lon="9.7637307"><ele>83.0</ele><time>2026-03-22T15:48:50.682Z</time></trkpt><trkpt lat="44.1829579" lon="9.7635848"><ele>85.0</ele><time>2026-03-22T15:48:51.681Z</time></trkpt><trkpt lat="44.1827827" lon="9.7634226"><ele>87.0</ele><time>2026-03-22T15:48:52.681Z</time></trkpt><trkpt lat="44.1826098" lon="9.7632523"><ele>89.0</ele><time>2026-03-22T15:48:53.681Z</time></trkpt><trkpt lat="44.1824377" lon="9.7630835"><ele>86.66666666666667</ele><time>2026-03-22T15:48:54.682Z</time></trkpt><trkpt lat="44.1822639" lon="9.7629185"><ele>84.33333333333333</ele><time>2026-03-22T15:48:55.681Z</time></trkpt><trkpt lat="44.1820991" lon="9.7627602"><ele>82.0</ele><time>2026-03-22T15:48:56.681Z</time></trkpt><trkpt lat="44.1819431" lon="9.7626245"><ele>82.0</ele><time>2026-03-22T15:48:57.681Z</time></trkpt><trkpt lat="44.1818098" lon="9.7624926"><ele>82.0</ele><time>2026-03-22T15:48:58.681Z</time></trkpt><trkpt lat="44.1816833" lon="9.7623767"><ele>82.0</ele><time>2026-03-22T15:48:59.681Z</time></trkpt><trkpt lat="44.1815645" lon="9.7622618"><ele>82.0</ele><time>2026-03-22T15:49:00.681Z</time></trkpt><trkpt lat="44.1814464" lon="9.7621498"><ele>82.0</ele><time>2026-03-22T15:49:01.681Z</time></trkpt><trkpt lat="44.1813282" lon="9.762041"><ele>82.0</ele><time>2026-03-22T15:49:02.681Z</time></trkpt><trkpt lat="44.1812132" lon="9.7619286"><ele>82.0</ele><time>2026-03-22T15:49:03.681Z</time></trkpt><trkpt lat="44.181097" lon="9.761814"><ele>82.0</ele><time>2026-03-22T15:49:04.681Z</time></trkpt><trkpt lat="44.1809844" lon="9.7617029"><ele>82.0</ele><time>2026-03-22T15:49:05.681Z</time></trkpt><trkpt lat="44.1808748" lon="9.7615983"><ele>82.0</ele><time>2026-03-22T15:49:06.681Z</time></trkpt><trkpt lat="44.1807679" lon="9.7614981"><ele>82.0</ele><time>2026-03-22T15:49:07.681Z</time></trkpt><trkpt lat="44.1806652" lon="9.7614024"><ele>81.25</ele><time>2026-03-22T15:49:08.681Z</time></trkpt><trkpt lat="44.1805604" lon="9.7613002"><ele>80.5</ele><time>2026-03-22T15:49:09.682Z</time></trkpt><trkpt lat="44.1804544" lon="9.7612015"><ele>79.75</ele><time>2026-03-22T15:49:10.681Z</time></trkpt><trkpt lat="44.1803487" lon="9.7610985"><ele>79.0</ele><time>2026-03-22T15:49:11.682Z</time></trkpt><trkpt lat="44.1802446" lon="9.7609982"><ele>80.0</ele><time>2026-03-22T15:49:12.681Z</time></trkpt><trkpt lat="44.180139" lon="9.760895"><ele>81.0</ele><time>2026-03-22T15:49:13.681Z</time></trkpt><trkpt lat="44.180036" lon="9.7607916"><ele>82.0</ele><time>2026-03-22T15:49:14.681Z</time></trkpt><trkpt lat="44.179932" lon="9.7606934"><ele>83.0</ele><time>2026-03-22T15:49:15.681Z</time></trkpt><trkpt lat="44.1798291" lon="9.7605921"><ele>83.0</ele><time>2026-03-22T15:49:16.681Z</time></trkpt><trkpt lat="44.179721" lon="9.7604915"><ele>83.0</ele><time>2026-03-22T15:49:17.681Z</time></trkpt><trkpt lat="44.1796125" lon="9.7603862"><ele>83.0</ele><time>2026-03-22T15:49:18.681Z</time></trkpt><trkpt lat="44.1795034" lon="9.7602788"><ele>83.0</ele><time>2026-03-22T15:49:19.681Z</time></trkpt><trkpt lat="44.1793904" lon="9.7601653"><ele>83.33333333333334</ele><time>2026-03-22T15:49:20.681Z</time></trkpt><trkpt lat="44.1792737" lon="9.7600499"><ele>83.66666666666667</ele><time>2026-03-22T15:49:21.681Z</time></trkpt><trkpt lat="44.1791469" lon="9.7599302"><ele>84.0</ele><time>2026-03-22T15:49:22.681Z</time></trkpt><trkpt lat="44.1790148" lon="9.7598077"><ele>84.0</ele><time>2026-03-22T15:49:23.682Z</time></trkpt><trkpt lat="44.1788811" lon="9.7596772"><ele>84.0</ele><time>2026-03-22T15:49:24.681Z</time></trkpt><trkpt lat="44.1787407" lon="9.7595433"><ele>84.0</ele><time>2026-03-22T15:49:25.681Z</time></trkpt><trkpt lat="44.1785977" lon="9.7594088"><ele>84.33333333333333</ele><time>2026-03-22T15:49:26.681Z</time></trkpt><trkpt lat="44.1784511" lon="9.7592694"><ele>84.66666666666666</ele><time>2026-03-22T15:49:27.681Z</time></trkpt><trkpt lat="44.1783083" lon="9.7591312"><ele>85.0</ele><time>2026-03-22T15:49:28.681Z</time></trkpt><trkpt lat="44.1781631" lon="9.7589926"><ele>85.0</ele><time>2026-03-22T15:49:29.682Z</time></trkpt><trkpt lat="44.1780183" lon="9.7588521"><ele>85.0</ele><time>2026-03-22T15:49:30.681Z</time></trkpt><trkpt lat="44.1778701" lon="9.7587145"><ele>85.0</ele><time>2026-03-22T15:49:31.681Z</time></trkpt><trkpt lat="44.1777226" lon="9.7585753"><ele>85.33333333333333</ele><time>2026-03-22T15:49:32.681Z</time></trkpt><trkpt lat="44.1775772" lon="9.7584339"><ele>85.66666666666667</ele><time>2026-03-22T15:49:33.681Z</time></trkpt><trkpt lat="44.1774323" lon="9.7582965"><ele>86.0</ele><time>2026-03-22T15:49:34.682Z</time></trkpt><trkpt lat="44.17728" lon="9.7581611"><ele>86.0</ele><time>2026-03-22T15:49:35.681Z</time></trkpt><trkpt lat="44.1771347" lon="9.7580161"><ele>86.0</ele><time>2026-03-22T15:49:36.681Z</time></trkpt><trkpt lat="44.1770072" lon="9.7578546"><ele>86.0</ele><time>2026-03-22T15:49:37.681Z</time></trkpt><trkpt lat="44.1768917" lon="9.7576716"><ele>86.66666666666667</ele><time>2026-03-22T15:49:38.681Z</time></trkpt><trkpt lat="44.176779" lon="9.7574877"><ele>87.33333333333333</ele><time>2026-03-22T15:49:39.681Z</time></trkpt><trkpt lat="44.176665" lon="9.7572789"><ele>88.0</ele><time>2026-03-22T15:49:40.681Z</time></trkpt><trkpt lat="44.1765612" lon="9.7570821"><ele>88.0</ele><time>2026-03-22T15:49:41.681Z</time></trkpt><trkpt lat="44.1764567" lon="9.7568901"><ele>88.0</ele><time>2026-03-22T15:49:42.681Z</time></trkpt><trkpt lat="44.1763609" lon="9.7567069"><ele>88.0</ele><time>2026-03-22T15:49:43.681Z</time></trkpt><trkpt lat="44.1762722" lon="9.7565316"><ele>88.0</ele><time>2026-03-22T15:49:44.681Z</time></trkpt><trkpt lat="44.1761886" lon="9.7563636"><ele>88.0</ele><time>2026-03-22T15:49:45.681Z</time></trkpt><trkpt lat="44.1761061" lon="9.7562014"><ele>88.0</ele><time>2026-03-22T15:49:46.681Z</time></trkpt><trkpt lat="44.1760191" lon="9.7560325"><ele>88.0</ele><time>2026-03-22T15:49:47.681Z</time></trkpt><trkpt lat="44.1759295" lon="9.7558787"><ele>88.5</ele><time>2026-03-22T15:49:48.681Z</time></trkpt><trkpt lat="44.1758282" lon="9.7557399"><ele>89.0</ele><time>2026-03-22T15:49:49.681Z</time></trkpt><trkpt lat="44.1757168" lon="9.7556114"><ele>89.5</ele><time>2026-03-22T15:49:50.681Z</time></trkpt><trkpt lat="44.1755996" lon="9.7554973"><ele>90.0</ele><time>2026-03-22T15:49:51.681Z</time></trkpt><trkpt lat="44.1754809" lon="9.7553896"><ele>90.0</ele><time>2026-03-22T15:49:52.681Z</time></trkpt><trkpt lat="44.1753624" lon="9.7553023"><ele>90.0</ele><time>2026-03-22T15:49:53.681Z</time></trkpt><trkpt lat="44.175242" lon="9.7552326"><ele>90.0</ele><time>2026-03-22T15:49:54.681Z</time></trkpt><trkpt lat="44.175122" lon="9.7551529"><ele>90.0</ele><time>2026-03-22T15:49:55.681Z</time></trkpt><trkpt lat="44.1749996" lon="9.7550735"><ele>90.25</ele><time>2026-03-22T15:49:56.681Z</time></trkpt><trkpt lat="44.174875" lon="9.7549934"><ele>90.5</ele><time>2026-03-22T15:49:57.681Z</time></trkpt><trkpt lat="44.1747544" lon="9.754912"><ele>90.75</ele><time>2026-03-22T15:49:58.681Z</time></trkpt><trkpt lat="44.1746302" lon="9.7548306"><ele>91.0</ele><time>2026-03-22T15:49:59.681Z</time></trkpt><trkpt lat="44.1745187" lon="9.7547535"><ele>91.0</ele><time>2026-03-22T15:50:00.682Z</time></trkpt><trkpt lat="44.1744141" lon="9.7546796"><ele>91.0</ele><time>2026-03-22T15:50:01.681Z</time></trkpt><trkpt lat="44.1743159" lon="9.7546062"><ele>91.0</ele><time>2026-03-22T15:50:02.681Z</time></trkpt><trkpt lat="44.1742197" lon="9.7545451"><ele>91.0</ele><time>2026-03-22T15:50:03.681Z</time></trkpt><trkpt lat="44.1741301" lon="9.754479"><ele>91.0</ele><time>2026-03-22T15:50:04.681Z</time></trkpt><trkpt lat="44.1740353" lon="9.7544197"><ele>91.4</ele><time>2026-03-22T15:50:05.681Z</time></trkpt><trkpt lat="44.1739528" lon="9.7543611"><ele>91.8</ele><time>2026-03-22T15:50:06.681Z</time></trkpt><trkpt lat="44.1738723" lon="9.7543097"><ele>92.2</ele><time>2026-03-22T15:50:07.681Z</time></trkpt><trkpt lat="44.1737842" lon="9.7542533"><ele>92.60000000000001</ele><time>2026-03-22T15:50:08.681Z</time></trkpt><trkpt lat="44.1736978" lon="9.7541963"><ele>93.0</ele><time>2026-03-22T15:50:09.681Z</time></trkpt><trkpt lat="44.1736072" lon="9.7541517"><ele>93.0</ele><time>2026-03-22T15:50:10.681Z</time></trkpt><trkpt lat="44.1735061" lon="9.7541345"><ele>93.0</ele><time>2026-03-22T15:50:11.681Z</time></trkpt><trkpt lat="44.1734135" lon="9.7541634"><ele>93.0</ele><time>2026-03-22T15:50:12.681Z</time></trkpt><trkpt lat="44.17332" lon="9.7542064"><ele>93.0</ele><time>2026-03-22T15:50:13.682Z</time></trkpt><trkpt lat="44.1732266" lon="9.7542639"><ele>93.0</ele><time>2026-03-22T15:50:14.681Z</time></trkpt><trkpt lat="44.1731435" lon="9.7543001"><ele>93.2</ele><time>2026-03-22T15:50:15.681Z</time></trkpt><trkpt lat="44.1730423" lon="9.7543574"><ele>93.4</ele><time>2026-03-22T15:50:16.681Z</time></trkpt><trkpt lat="44.1729386" lon="9.7544167"><ele>93.60000000000001</ele><time>2026-03-22T15:50:17.681Z</time></trkpt><trkpt lat="44.172841" lon="9.7544682"><ele>93.80000000000001</ele><time>2026-03-22T15:50:18.681Z</time></trkpt><trkpt lat="44.172731" lon="9.7545281"><ele>94.0</ele><time>2026-03-22T15:50:19.681Z</time></trkpt><trkpt lat="44.1725911" lon="9.7545996"><ele>94.0</ele><time>2026-03-22T15:50:20.681Z</time></trkpt><trkpt lat="44.1724237" lon="9.7546781"><ele>94.0</ele><time>2026-03-22T15:50:21.681Z</time></trkpt><trkpt lat="44.172229" lon="9.7547553"><ele>94.0</ele><time>2026-03-22T15:50:22.681Z</time></trkpt><trkpt lat="44.1720251" lon="9.7548584"><ele>95.33333333333333</ele><time>2026-03-22T15:50:23.681Z</time></trkpt><trkpt lat="44.1718132" lon="9.7549712"><ele>96.66666666666666</ele><time>2026-03-22T15:50:24.681Z</time></trkpt><trkpt lat="44.1716163" lon="9.7550692"><ele>98.0</ele><time>2026-03-22T15:50:25.682Z</time></trkpt><trkpt lat="44.1714315" lon="9.7551605"><ele>99.0</ele><time>2026-03-22T15:50:26.681Z</time></trkpt><trkpt lat="44.1712594" lon="9.7552555"><ele>100.0</ele><time>2026-03-22T15:50:27.681Z</time></trkpt><trkpt lat="44.1710995" lon="9.7553771"><ele>101.0</ele><time>2026-03-22T15:50:28.681Z</time></trkpt><trkpt lat="44.1709396" lon="9.7555304"><ele>101.0</ele><time>2026-03-22T15:50:29.681Z</time></trkpt><trkpt lat="44.1707974" lon="9.7557613"><ele>101.0</ele><time>2026-03-22T15:50:30.681Z</time></trkpt><trkpt lat="44.1706487" lon="9.7560104"><ele>106.0</ele><time>2026-03-22T15:50:31.681Z</time></trkpt><trkpt lat="44.1704915" lon="9.7562508"><ele>111.0</ele><time>2026-03-22T15:50:32.682Z</time></trkpt><trkpt lat="44.1703417" lon="9.7564703"><ele>111.0</ele><time>2026-03-22T15:50:33.681Z</time></trkpt><trkpt lat="44.1702082" lon="9.7566715"><ele>111.0</ele><time>2026-03-22T15:50:34.681Z</time></trkpt><trkpt lat="44.1700892" lon="9.7568537"><ele>111.0</ele><time>2026-03-22T15:50:35.681Z</time></trkpt><trkpt lat="44.1699845" lon="9.7570158"><ele>110.5</ele><time>2026-03-22T15:50:36.681Z</time></trkpt><trkpt lat="44.1698763" lon="9.7571462"><ele>110.0</ele><time>2026-03-22T15:50:37.681Z</time></trkpt><trkpt lat="44.1697709" lon="9.7572821"><ele>109.5</ele><time>2026-03-22T15:50:38.681Z</time></trkpt><trkpt lat="44.1696415" lon="9.7572026"><ele>109.0</ele><time>2026-03-22T15:50:39.681Z</time></trkpt><trkpt lat="44.1695407" lon="9.7571374"><ele>109.0</ele><time>2026-03-22T15:50:40.681Z</time></trkpt><trkpt lat="44.1694491" lon="9.7570051"><ele>109.0</ele><time>2026-03-22T15:50:41.681Z</time></trkpt><trkpt lat="44.1693406" lon="9.7568932"><ele>109.0</ele><time>2026-03-22T15:50:42.681Z</time></trkpt><trkpt lat="44.1692271" lon="9.7567787"><ele>109.0</ele><time>2026-03-22T15:50:43.682Z</time></trkpt><trkpt lat="44.1690864" lon="9.7566689"><ele>113.66666666666667</ele><time>2026-03-22T15:50:44.681Z</time></trkpt><trkpt lat="44.1688988" lon="9.7568075"><ele>118.33333333333334</ele><time>2026-03-22T15:50:45.681Z</time></trkpt><trkpt lat="44.1687433" lon="9.7568034"><ele>123.0</ele><time>2026-03-22T15:50:46.681Z</time></trkpt><trkpt lat="44.168614" lon="9.7569286"><ele>123.0</ele><time>2026-03-22T15:50:47.681Z</time></trkpt><trkpt lat="44.1685015" lon="9.7570193"><ele>123.0</ele><time>2026-03-22T15:50:48.681Z</time></trkpt><trkpt lat="44.1684249" lon="9.7572687"><ele>123.0</ele><time>2026-03-22T15:50:49.681Z</time></trkpt><trkpt lat="44.1684329" lon="9.7576797"><ele>121.66666666666666</ele><time>2026-03-22T15:50:50.681Z</time></trkpt><trkpt lat="44.1683635" lon="9.7579435"><ele>120.33333333333333</ele><time>2026-03-22T15:50:51.68Z</time></trkpt><trkpt lat="44.1683046" lon="9.7581679"><ele>119.0</ele><time>2026-03-22T15:50:52.681Z</time></trkpt><trkpt lat="44.1682508" lon="9.7583595"><ele>121.5</ele><time>2026-03-22T15:50:53.681Z</time></trkpt><trkpt lat="44.1681915" lon="9.7585053"><ele>124.0</ele><time>2026-03-22T15:50:54.681Z</time></trkpt><trkpt lat="44.1680976" lon="9.7585956"><ele>126.5</ele><time>2026-03-22T15:50:55.681Z</time></trkpt><trkpt lat="44.1680136" lon="9.7586995"><ele>129.0</ele><time>2026-03-22T15:50:56.681Z</time></trkpt><trkpt lat="44.1678447" lon="9.7586135"><ele>129.0</ele><time>2026-03-22T15:50:57.681Z</time></trkpt><trkpt lat="44.1676998" lon="9.7585622"><ele>129.0</ele><time>2026-03-22T15:50:58.681Z</time></trkpt><trkpt lat="44.1675492" lon="9.7585047"><ele>129.0</ele><time>2026-03-22T15:50:59.681Z</time></trkpt><trkpt lat="44.1673851" lon="9.7584406"><ele>131.66666666666666</ele><time>2026-03-22T15:51:00.681Z</time></trkpt><trkpt lat="44.167222" lon="9.7583779"><ele>134.33333333333331</ele><time>2026-03-22T15:51:01.681Z</time></trkpt><trkpt lat="44.1670681" lon="9.7583269"><ele>137.0</ele><time>2026-03-22T15:51:02.681Z</time></trkpt><trkpt lat="44.166907" lon="9.758294"><ele>137.0</ele><time>2026-03-22T15:51:03.681Z</time></trkpt><trkpt lat="44.1667444" lon="9.7582966"><ele>137.0</ele><time>2026-03-22T15:51:04.681Z</time></trkpt><trkpt lat="44.1665719" lon="9.7583364"><ele>137.0</ele><time>2026-03-22T15:51:05.682Z</time></trkpt><trkpt lat="44.1664006" lon="9.7584197"><ele>136.66666666666666</ele><time>2026-03-22T15:51:06.681Z</time></trkpt><trkpt lat="44.1662425" lon="9.7585239"><ele>136.33333333333334</ele><time>2026-03-22T15:51:07.681Z</time></trkpt><trkpt lat="44.1660974" lon="9.7586656"><ele>136.0</ele><time>2026-03-22T15:51:08.681Z</time></trkpt><trkpt lat="44.1659402" lon="9.7588383"><ele>136.0</ele><time>2026-03-22T15:51:09.682Z</time></trkpt><trkpt lat="44.1657871" lon="9.759014"><ele>136.0</ele><time>2026-03-22T15:51:10.681Z</time></trkpt><trkpt lat="44.165647" lon="9.7591724"><ele>136.0</ele><time>2026-03-22T15:51:11.681Z</time></trkpt><trkpt lat="44.165525" lon="9.7593142"><ele>135.75</ele><time>2026-03-22T15:51:12.68Z</time></trkpt><trkpt lat="44.1654074" lon="9.7594481"><ele>135.5</ele><time>2026-03-22T15:51:13.682Z</time></trkpt><trkpt lat="44.1652933" lon="9.7595707"><ele>135.25</ele><time>2026-03-22T15:51:14.681Z</time></trkpt><trkpt lat="44.165168" lon="9.759666"><ele>135.0</ele><time>2026-03-22T15:51:15.682Z</time></trkpt><trkpt lat="44.1650287" lon="9.759702"><ele>135.0</ele><time>2026-03-22T15:51:16.681Z</time></trkpt><trkpt lat="44.1648839" lon="9.7596729"><ele>135.0</ele><time>2026-03-22T15:51:17.681Z</time></trkpt><trkpt lat="44.1647725" lon="9.7595841"><ele>135.0</ele><time>2026-03-22T15:51:18.681Z</time></trkpt><trkpt lat="44.1646804" lon="9.7594371"><ele>135.0</ele><time>2026-03-22T15:51:19.681Z</time></trkpt><trkpt lat="44.1645815" lon="9.7592865"><ele>135.33333333333334</ele><time>2026-03-22T15:51:20.681Z</time></trkpt><trkpt lat="44.1645109" lon="9.7590228"><ele>135.66666666666669</ele><time>2026-03-22T15:51:21.681Z</time></trkpt><trkpt lat="44.1644107" lon="9.7588419"><ele>136.0</ele><time>2026-03-22T15:51:22.681Z</time></trkpt><trkpt lat="44.1643002" lon="9.758672"><ele>138.66666666666669</ele><time>2026-03-22T15:51:23.681Z</time></trkpt><trkpt lat="44.1641777" lon="9.758515"><ele>141.33333333333334</ele><time>2026-03-22T15:51:24.681Z</time></trkpt><trkpt lat="44.1640477" lon="9.7583697"><ele>144.0</ele><time>2026-03-22T15:51:25.681Z</time></trkpt><trkpt lat="44.1639159" lon="9.7582301"><ele>138.66666666666666</ele><time>2026-03-22T15:51:26.682Z</time></trkpt><trkpt lat="44.163785" lon="9.7580905"><ele>133.33333333333331</ele><time>2026-03-22T15:51:27.681Z</time></trkpt><trkpt lat="44.1636669" lon="9.7579606"><ele>128.0</ele><time>2026-03-22T15:51:28.681Z</time></trkpt><trkpt lat="44.1635627" lon="9.7578338"><ele>128.0</ele><time>2026-03-22T15:51:29.682Z</time></trkpt><trkpt lat="44.1634653" lon="9.7577233"><ele>128.0</ele><time>2026-03-22T15:51:30.681Z</time></trkpt><trkpt lat="44.163357" lon="9.757628"><ele>128.0</ele><time>2026-03-22T15:51:31.681Z</time></trkpt><trkpt lat="44.1632409" lon="9.7575696"><ele>128.0</ele><time>2026-03-22T15:51:32.681Z</time></trkpt><trkpt lat="44.1631258" lon="9.7575053"><ele>128.66666666666666</ele><time>2026-03-22T15:51:33.681Z</time></trkpt><trkpt lat="44.1630115" lon="9.7574986"><ele>129.33333333333334</ele><time>2026-03-22T15:51:34.681Z</time></trkpt><trkpt lat="44.1628927" lon="9.7575145"><ele>130.0</ele><time>2026-03-22T15:51:35.681Z</time></trkpt><trkpt lat="44.1627428" lon="9.7577377"><ele>130.0</ele><time>2026-03-22T15:51:36.681Z</time></trkpt><trkpt lat="44.1626042" lon="9.7578882"><ele>130.0</ele><time>2026-03-22T15:51:37.681Z</time></trkpt><trkpt lat="44.1624599" lon="9.7580239"><ele>130.0</ele><time>2026-03-22T15:51:38.681Z</time></trkpt><trkpt lat="44.1623056" lon="9.7581567"><ele>129.66666666666669</ele><time>2026-03-22T15:51:39.681Z</time></trkpt><trkpt lat="44.1621473" lon="9.7582757"><ele>129.33333333333334</ele><time>2026-03-22T15:51:40.681Z</time></trkpt><trkpt lat="44.1620016" lon="9.7583942"><ele>129.0</ele><time>2026-03-22T15:51:41.681Z</time></trkpt><trkpt lat="44.1618697" lon="9.7585007"><ele>130.0</ele><time>2026-03-22T15:51:42.681Z</time></trkpt><trkpt lat="44.161744" lon="9.7586042"><ele>131.0</ele><time>2026-03-22T15:51:43.682Z</time></trkpt><trkpt lat="44.1616263" lon="9.758707"><ele>132.0</ele><time>2026-03-22T15:51:44.681Z</time></trkpt><trkpt lat="44.1615061" lon="9.7588085"><ele>133.0</ele><time>2026-03-22T15:51:45.681Z</time></trkpt><trkpt lat="44.1613818" lon="9.7589133"><ele>133.0</ele><time>2026-03-22T15:51:46.681Z</time></trkpt><trkpt lat="44.1612542" lon="9.7590193"><ele>133.0</ele><time>2026-03-22T15:51:47.681Z</time></trkpt><trkpt lat="44.1611303" lon="9.7591227"><ele>133.0</ele><time>2026-03-22T15:51:48.682Z</time></trkpt><trkpt lat="44.1610098" lon="9.759224"><ele>133.0</ele><time>2026-03-22T15:51:49.682Z</time></trkpt><trkpt lat="44.1608983" lon="9.759316"><ele>134.25</ele><time>2026-03-22T15:51:50.681Z</time></trkpt><trkpt lat="44.1607886" lon="9.7594073"><ele>135.5</ele><time>2026-03-22T15:51:51.682Z</time></trkpt><trkpt lat="44.1606808" lon="9.7595005"><ele>136.75</ele><time>2026-03-22T15:51:52.681Z</time></trkpt><trkpt lat="44.1605704" lon="9.759593"><ele>138.0</ele><time>2026-03-22T15:51:53.681Z</time></trkpt><trkpt lat="44.1604594" lon="9.7596898"><ele>138.0</ele><time>2026-03-22T15:51:54.681Z</time></trkpt><trkpt lat="44.1603528" lon="9.7597803"><ele>138.0</ele><time>2026-03-22T15:51:55.681Z</time></trkpt><trkpt lat="44.1602446" lon="9.7598741"><ele>138.0</ele><time>2026-03-22T15:51:56.681Z</time></trkpt><trkpt lat="44.1601436" lon="9.7599564"><ele>138.0</ele><time>2026-03-22T15:51:57.681Z</time></trkpt><trkpt lat="44.1600569" lon="9.7600327"><ele>138.0</ele><time>2026-03-22T15:51:58.681Z</time></trkpt><trkpt lat="44.159961" lon="9.7601072"><ele>138.0</ele><time>2026-03-22T15:51:59.681Z</time></trkpt><trkpt lat="44.1598704" lon="9.7601806"><ele>138.0</ele><time>2026-03-22T15:52:00.682Z</time></trkpt><trkpt lat="44.1597741" lon="9.76026"><ele>138.0</ele><time>2026-03-22T15:52:01.681Z</time></trkpt><trkpt lat="44.1596756" lon="9.7603417"><ele>138.0</ele><time>2026-03-22T15:52:02.682Z</time></trkpt><trkpt lat="44.1595767" lon="9.7604195"><ele>138.75</ele><time>2026-03-22T15:52:03.681Z</time></trkpt><trkpt lat="44.1594758" lon="9.7605031"><ele>139.5</ele><time>2026-03-22T15:52:04.681Z</time></trkpt><trkpt lat="44.1593778" lon="9.7605839"><ele>140.25</ele><time>2026-03-22T15:52:05.682Z</time></trkpt><trkpt lat="44.159286" lon="9.7606645"><ele>141.0</ele><time>2026-03-22T15:52:06.681Z</time></trkpt><trkpt lat="44.1591923" lon="9.7607453"><ele>141.0</ele><time>2026-03-22T15:52:07.681Z</time></trkpt><trkpt lat="44.1590991" lon="9.7608211"><ele>141.0</ele><time>2026-03-22T15:52:08.681Z</time></trkpt><trkpt lat="44.1590085" lon="9.760898"><ele>141.0</ele><time>2026-03-22T15:52:09.681Z</time></trkpt><trkpt lat="44.1589208" lon="9.7609735"><ele>141.0</ele><time>2026-03-22T15:52:10.681Z</time></trkpt><trkpt lat="44.1588302" lon="9.7610497"><ele>141.0</ele><time>2026-03-22T15:52:11.682Z</time></trkpt><trkpt lat="44.1587396" lon="9.7611199"><ele>141.2</ele><time>2026-03-22T15:52:12.682Z</time></trkpt><trkpt lat="44.1586447" lon="9.7611935"><ele>141.39999999999998</ele><time>2026-03-22T15:52:13.681Z</time></trkpt><trkpt lat="44.1585497" lon="9.761273"><ele>141.6</ele><time>2026-03-22T15:52:14.681Z</time></trkpt><trkpt lat="44.1584552" lon="9.7613547"><ele>141.79999999999998</ele><time>2026-03-22T15:52:15.681Z</time></trkpt><trkpt lat="44.1583624" lon="9.7614333"><ele>142.0</ele><time>2026-03-22T15:52:16.681Z</time></trkpt><trkpt lat="44.1582659" lon="9.7615143"><ele>141.0</ele><time>2026-03-22T15:52:17.681Z</time></trkpt><trkpt lat="44.1581685" lon="9.7615968"><ele>140.0</ele><time>2026-03-22T15:52:18.681Z</time></trkpt><trkpt lat="44.158072" lon="9.7616787"><ele>139.0</ele><time>2026-03-22T15:52:19.681Z</time></trkpt><trkpt lat="44.1579768" lon="9.7617631"><ele>138.0</ele><time>2026-03-22T15:52:20.681Z</time></trkpt><trkpt lat="44.1578772" lon="9.7618413"><ele>138.8</ele><time>2026-03-22T15:52:21.681Z</time></trkpt><trkpt lat="44.1577773" lon="9.7619164"><ele>139.60000000000002</ele><time>2026-03-22T15:52:22.681Z</time></trkpt><trkpt lat="44.1576926" lon="9.7619899"><ele>140.39999999999998</ele><time>2026-03-22T15:52:23.682Z</time></trkpt><trkpt lat="44.1576069" lon="9.7620631"><ele>141.2</ele><time>2026-03-22T15:52:24.681Z</time></trkpt><trkpt lat="44.1575307" lon="9.7621318"><ele>142.0</ele><time>2026-03-22T15:52:25.681Z</time></trkpt><trkpt lat="44.1574605" lon="9.7621947"><ele>142.0</ele><time>2026-03-22T15:52:26.681Z</time></trkpt><trkpt lat="44.1573907" lon="9.7622511"><ele>142.0</ele><time>2026-03-22T15:52:27.681Z</time></trkpt><trkpt lat="44.1573114" lon="9.7623082"><ele>142.0</ele><time>2026-03-22T15:52:28.681Z</time></trkpt><trkpt lat="44.1572222" lon="9.7623832"><ele>142.0</ele><time>2026-03-22T15:52:29.682Z</time></trkpt><trkpt lat="44.1571556" lon="9.7624408"><ele>142.0</ele><time>2026-03-22T15:52:30.682Z</time></trkpt><trkpt lat="44.1570657" lon="9.762491"><ele>142.0</ele><time>2026-03-22T15:52:32.681Z</time></trkpt><trkpt lat="44.1570241" lon="9.7623916"><ele>141.83333333333334</ele><time>2026-03-22T15:52:35.681Z</time></trkpt><trkpt lat="44.1570124" lon="9.7623019"><ele>141.66666666666669</ele><time>2026-03-22T15:52:36.681Z</time></trkpt><trkpt lat="44.1569896" lon="9.7622041"><ele>141.5</ele><time>2026-03-22T15:52:37.681Z</time></trkpt><trkpt lat="44.1569676" lon="9.7620613"><ele>141.33333333333334</ele><time>2026-03-22T15:52:39.68Z</time></trkpt><trkpt lat="44.1570129" lon="9.7619227"><ele>141.16666666666666</ele><time>2026-03-22T15:52:41.681Z</time></trkpt><trkpt lat="44.157085" lon="9.7618499"><ele>141.0</ele><time>2026-03-22T15:52:42.681Z</time></trkpt><trkpt lat="44.1571801" lon="9.7617692"><ele>141.0</ele><time>2026-03-22T15:52:43.681Z</time></trkpt><trkpt lat="44.1572796" lon="9.7616797"><ele>141.0</ele><time>2026-03-22T15:52:44.681Z</time></trkpt><trkpt lat="44.1573703" lon="9.761595"><ele>141.0</ele><time>2026-03-22T15:52:45.681Z</time></trkpt><trkpt lat="44.1574548" lon="9.7615118"><ele>141.0</ele><time>2026-03-22T15:52:46.681Z</time></trkpt><trkpt lat="44.157516" lon="9.7614344"><ele>141.0</ele><time>2026-03-22T15:52:47.681Z</time></trkpt><trkpt lat="44.1575585" lon="9.7613645"><ele>138.0</ele><time>2026-03-22T15:52:48.681Z</time></trkpt><trkpt lat="44.1576158" lon="9.7612901"><ele>138.0</ele><time>2026-03-22T15:52:50.681Z</time></trkpt><trkpt lat="44.1576821" lon="9.7613096"><ele>138.0</ele><time>2026-03-22T15:53:17.681Z</time></trkpt><trkpt lat="44.1577072" lon="9.7614185"><ele>138.0</ele><time>2026-03-22T15:53:20.681Z</time></trkpt></trkseg></trk></gpx>